<?xml version="1.0" encoding="UTF-8"?>
<gpx version="1.1" creator="https://www.youtrack.es" xsi:schemaLocation="http://www.topografix.com/GPX/1/1 http://www.topografix.com/GPX/1/1/gpx.xsd http://www.garmin.com/xmlschemas/GpxExtensions/v3 http://www.garmin.com/xmlschemas/GpxExtensionsv3.xsd http://www.garmin.com/xmlschemas/TrackPointExtension/v1 http://www.garmin.com/xmlschemas/TrackPointExtensionv1.xsd" xmlns:gpxtpx="http://www.garmin.com/xmlschemas/TrackPointExtension/v1" xmlns:gpxx="http://www.garmin.com/xmlschemas/GpxExtensions/v3" xmlns:xsi="http://www.w3.org/2001/XMLSchema-instance">
  <metadata>
    <link href="https://www.youtrack.es">
      <text>YouTrack.es</text>
    </link>
    <time>2026-05-08T10:28:31Z</time>
  </metadata>
  <trk>
    <src>https://www.youtrack.es</src>
    <link href="https://www.youtrack.es/ruta/4988-pico-del-ave">
      <text>YouTrack.es</text>
    </link>
    <trkseg>
      <trkpt lat="39.3922920" lon="-0.7115430">
        <ele>271.0</ele>
        <time>2018-09-16T06:05:32Z</time>
      </trkpt>
      <trkpt lat="39.3922920" lon="-0.7115430">
        <ele>272.0</ele>
        <time>2018-09-16T06:05:33Z</time>
      </trkpt>
      <trkpt lat="39.3922920" lon="-0.7115430">
        <ele>272.0</ele>
        <time>2018-09-16T06:05:34Z</time>
      </trkpt>
      <trkpt lat="39.3922920" lon="-0.7115430">
        <ele>272.0</ele>
        <time>2018-09-16T06:05:35Z</time>
      </trkpt>
      <trkpt lat="39.3922920" lon="-0.7115430">
        <ele>272.0</ele>
        <time>2018-09-16T06:05:36Z</time>
      </trkpt>
      <trkpt lat="39.3922920" lon="-0.7115430">
        <ele>272.0</ele>
        <time>2018-09-16T06:05:37Z</time>
      </trkpt>
      <trkpt lat="39.3922920" lon="-0.7115430">
        <ele>272.0</ele>
        <time>2018-09-16T06:05:38Z</time>
      </trkpt>
      <trkpt lat="39.3922920" lon="-0.7115430">
        <ele>272.0</ele>
        <time>2018-09-16T06:05:39Z</time>
      </trkpt>
      <trkpt lat="39.3923220" lon="-0.7115550">
        <ele>272.0</ele>
        <time>2018-09-16T06:05:40Z</time>
      </trkpt>
      <trkpt lat="39.3923220" lon="-0.7115550">
        <ele>272.0</ele>
        <time>2018-09-16T06:05:41Z</time>
      </trkpt>
      <trkpt lat="39.3923220" lon="-0.7115550">
        <ele>272.0</ele>
        <time>2018-09-16T06:05:42Z</time>
      </trkpt>
      <trkpt lat="39.3923180" lon="-0.7115680">
        <ele>272.0</ele>
        <time>2018-09-16T06:05:43Z</time>
      </trkpt>
      <trkpt lat="39.3923150" lon="-0.7116020">
        <ele>272.0</ele>
        <time>2018-09-16T06:05:44Z</time>
      </trkpt>
      <trkpt lat="39.3923150" lon="-0.7116020">
        <ele>272.0</ele>
        <time>2018-09-16T06:05:45Z</time>
      </trkpt>
      <trkpt lat="39.3923050" lon="-0.7116430">
        <ele>272.0</ele>
        <time>2018-09-16T06:05:46Z</time>
      </trkpt>
      <trkpt lat="39.3923050" lon="-0.7116430">
        <ele>272.0</ele>
        <time>2018-09-16T06:05:47Z</time>
      </trkpt>
      <trkpt lat="39.3922880" lon="-0.7116730">
        <ele>272.0</ele>
        <time>2018-09-16T06:05:48Z</time>
      </trkpt>
      <trkpt lat="39.3922880" lon="-0.7116730">
        <ele>272.0</ele>
        <time>2018-09-16T06:05:49Z</time>
      </trkpt>
      <trkpt lat="39.3922550" lon="-0.7116800">
        <ele>272.0</ele>
        <time>2018-09-16T06:05:50Z</time>
      </trkpt>
      <trkpt lat="39.3922550" lon="-0.7116800">
        <ele>272.0</ele>
        <time>2018-09-16T06:05:51Z</time>
      </trkpt>
      <trkpt lat="39.3922200" lon="-0.7116930">
        <ele>272.0</ele>
        <time>2018-09-16T06:05:52Z</time>
      </trkpt>
      <trkpt lat="39.3922020" lon="-0.7117000">
        <ele>272.0</ele>
        <time>2018-09-16T06:05:53Z</time>
      </trkpt>
      <trkpt lat="39.3921800" lon="-0.7117080">
        <ele>272.0</ele>
        <time>2018-09-16T06:05:54Z</time>
      </trkpt>
      <trkpt lat="39.3921800" lon="-0.7117080">
        <ele>272.0</ele>
        <time>2018-09-16T06:05:55Z</time>
      </trkpt>
      <trkpt lat="39.3921150" lon="-0.7117120">
        <ele>272.0</ele>
        <time>2018-09-16T06:05:56Z</time>
      </trkpt>
      <trkpt lat="39.3921150" lon="-0.7117120">
        <ele>272.0</ele>
        <time>2018-09-16T06:05:57Z</time>
      </trkpt>
      <trkpt lat="39.3920800" lon="-0.7117170">
        <ele>272.0</ele>
        <time>2018-09-16T06:05:58Z</time>
      </trkpt>
      <trkpt lat="39.3920470" lon="-0.7117230">
        <ele>272.0</ele>
        <time>2018-09-16T06:05:59Z</time>
      </trkpt>
      <trkpt lat="39.3920470" lon="-0.7117230">
        <ele>272.0</ele>
        <time>2018-09-16T06:06:00Z</time>
      </trkpt>
      <trkpt lat="39.3919720" lon="-0.7117380">
        <ele>272.0</ele>
        <time>2018-09-16T06:06:01Z</time>
      </trkpt>
      <trkpt lat="39.3918870" lon="-0.7117620">
        <ele>272.0</ele>
        <time>2018-09-16T06:06:02Z</time>
      </trkpt>
      <trkpt lat="39.3918870" lon="-0.7117620">
        <ele>272.0</ele>
        <time>2018-09-16T06:06:03Z</time>
      </trkpt>
      <trkpt lat="39.3918870" lon="-0.7117620">
        <ele>272.0</ele>
        <time>2018-09-16T06:06:04Z</time>
      </trkpt>
      <trkpt lat="39.3918070" lon="-0.7118020">
        <ele>271.0</ele>
        <time>2018-09-16T06:06:05Z</time>
      </trkpt>
      <trkpt lat="39.3917330" lon="-0.7118400">
        <ele>271.0</ele>
        <time>2018-09-16T06:06:06Z</time>
      </trkpt>
      <trkpt lat="39.3917330" lon="-0.7118400">
        <ele>271.0</ele>
        <time>2018-09-16T06:06:07Z</time>
      </trkpt>
      <trkpt lat="39.3916920" lon="-0.7118540">
        <ele>271.0</ele>
        <time>2018-09-16T06:06:08Z</time>
      </trkpt>
      <trkpt lat="39.3916770" lon="-0.7118580">
        <ele>270.0</ele>
        <time>2018-09-16T06:06:09Z</time>
      </trkpt>
      <trkpt lat="39.3916620" lon="-0.7118620">
        <ele>270.0</ele>
        <time>2018-09-16T06:06:10Z</time>
      </trkpt>
      <trkpt lat="39.3916120" lon="-0.7118640">
        <ele>270.0</ele>
        <time>2018-09-16T06:06:11Z</time>
      </trkpt>
      <trkpt lat="39.3915620" lon="-0.7118650">
        <ele>270.0</ele>
        <time>2018-09-16T06:06:12Z</time>
      </trkpt>
      <trkpt lat="39.3915620" lon="-0.7118650">
        <ele>270.0</ele>
        <time>2018-09-16T06:06:13Z</time>
      </trkpt>
      <trkpt lat="39.3914770" lon="-0.7118700">
        <ele>270.0</ele>
        <time>2018-09-16T06:06:14Z</time>
      </trkpt>
      <trkpt lat="39.3914380" lon="-0.7118930">
        <ele>270.0</ele>
        <time>2018-09-16T06:06:15Z</time>
      </trkpt>
      <trkpt lat="39.3914380" lon="-0.7118930">
        <ele>269.0</ele>
        <time>2018-09-16T06:06:16Z</time>
      </trkpt>
      <trkpt lat="39.3913450" lon="-0.7119100">
        <ele>269.0</ele>
        <time>2018-09-16T06:06:17Z</time>
      </trkpt>
      <trkpt lat="39.3913450" lon="-0.7119100">
        <ele>269.0</ele>
        <time>2018-09-16T06:06:18Z</time>
      </trkpt>
      <trkpt lat="39.3912930" lon="-0.7119180">
        <ele>269.0</ele>
        <time>2018-09-16T06:06:19Z</time>
      </trkpt>
      <trkpt lat="39.3911850" lon="-0.7119330">
        <ele>269.0</ele>
        <time>2018-09-16T06:06:20Z</time>
      </trkpt>
      <trkpt lat="39.3911850" lon="-0.7119330">
        <ele>269.0</ele>
        <time>2018-09-16T06:06:21Z</time>
      </trkpt>
      <trkpt lat="39.3910800" lon="-0.7119630">
        <ele>269.0</ele>
        <time>2018-09-16T06:06:22Z</time>
      </trkpt>
      <trkpt lat="39.3910800" lon="-0.7119630">
        <ele>269.0</ele>
        <time>2018-09-16T06:06:23Z</time>
      </trkpt>
      <trkpt lat="39.3909820" lon="-0.7120000">
        <ele>269.0</ele>
        <time>2018-09-16T06:06:24Z</time>
      </trkpt>
      <trkpt lat="39.3909300" lon="-0.7120230">
        <ele>269.0</ele>
        <time>2018-09-16T06:06:25Z</time>
      </trkpt>
      <trkpt lat="39.3909300" lon="-0.7120230">
        <ele>269.0</ele>
        <time>2018-09-16T06:06:26Z</time>
      </trkpt>
      <trkpt lat="39.3908230" lon="-0.7120580">
        <ele>269.0</ele>
        <time>2018-09-16T06:06:27Z</time>
      </trkpt>
      <trkpt lat="39.3908230" lon="-0.7120580">
        <ele>269.0</ele>
        <time>2018-09-16T06:06:28Z</time>
      </trkpt>
      <trkpt lat="39.3907270" lon="-0.7121130">
        <ele>269.0</ele>
        <time>2018-09-16T06:06:29Z</time>
      </trkpt>
      <trkpt lat="39.3906800" lon="-0.7121350">
        <ele>269.0</ele>
        <time>2018-09-16T06:06:30Z</time>
      </trkpt>
      <trkpt lat="39.3906800" lon="-0.7121350">
        <ele>268.0</ele>
        <time>2018-09-16T06:06:31Z</time>
      </trkpt>
      <trkpt lat="39.3906800" lon="-0.7121350">
        <ele>268.0</ele>
        <time>2018-09-16T06:06:32Z</time>
      </trkpt>
      <trkpt lat="39.3906150" lon="-0.7122070">
        <ele>268.0</ele>
        <time>2018-09-16T06:06:33Z</time>
      </trkpt>
      <trkpt lat="39.3905910" lon="-0.7122890">
        <ele>268.0</ele>
        <time>2018-09-16T06:06:34Z</time>
      </trkpt>
      <trkpt lat="39.3905920" lon="-0.7123080">
        <ele>268.0</ele>
        <time>2018-09-16T06:06:35Z</time>
      </trkpt>
      <trkpt lat="39.3905920" lon="-0.7123080">
        <ele>268.0</ele>
        <time>2018-09-16T06:06:36Z</time>
      </trkpt>
      <trkpt lat="39.3905880" lon="-0.7124180">
        <ele>268.0</ele>
        <time>2018-09-16T06:06:37Z</time>
      </trkpt>
      <trkpt lat="39.3905950" lon="-0.7124750">
        <ele>268.0</ele>
        <time>2018-09-16T06:06:38Z</time>
      </trkpt>
      <trkpt lat="39.3905950" lon="-0.7124750">
        <ele>268.0</ele>
        <time>2018-09-16T06:06:39Z</time>
      </trkpt>
      <trkpt lat="39.3906150" lon="-0.7125830">
        <ele>268.0</ele>
        <time>2018-09-16T06:06:40Z</time>
      </trkpt>
      <trkpt lat="39.3906270" lon="-0.7126380">
        <ele>268.0</ele>
        <time>2018-09-16T06:06:41Z</time>
      </trkpt>
      <trkpt lat="39.3906420" lon="-0.7126980">
        <ele>268.0</ele>
        <time>2018-09-16T06:06:42Z</time>
      </trkpt>
      <trkpt lat="39.3906420" lon="-0.7126980">
        <ele>268.0</ele>
        <time>2018-09-16T06:06:43Z</time>
      </trkpt>
      <trkpt lat="39.3906800" lon="-0.7128250">
        <ele>268.0</ele>
        <time>2018-09-16T06:06:44Z</time>
      </trkpt>
      <trkpt lat="39.3906800" lon="-0.7128250">
        <ele>268.0</ele>
        <time>2018-09-16T06:06:45Z</time>
      </trkpt>
      <trkpt lat="39.3907120" lon="-0.7128780">
        <ele>268.0</ele>
        <time>2018-09-16T06:06:46Z</time>
      </trkpt>
      <trkpt lat="39.3907120" lon="-0.7128780">
        <ele>268.0</ele>
        <time>2018-09-16T06:06:47Z</time>
      </trkpt>
      <trkpt lat="39.3908170" lon="-0.7130270">
        <ele>268.0</ele>
        <time>2018-09-16T06:06:48Z</time>
      </trkpt>
      <trkpt lat="39.3908170" lon="-0.7130270">
        <ele>268.0</ele>
        <time>2018-09-16T06:06:49Z</time>
      </trkpt>
      <trkpt lat="39.3908830" lon="-0.7131320">
        <ele>268.0</ele>
        <time>2018-09-16T06:06:50Z</time>
      </trkpt>
      <trkpt lat="39.3908830" lon="-0.7131320">
        <ele>268.0</ele>
        <time>2018-09-16T06:06:51Z</time>
      </trkpt>
      <trkpt lat="39.3909430" lon="-0.7132320">
        <ele>268.0</ele>
        <time>2018-09-16T06:06:52Z</time>
      </trkpt>
      <trkpt lat="39.3909430" lon="-0.7132320">
        <ele>268.0</ele>
        <time>2018-09-16T06:06:53Z</time>
      </trkpt>
      <trkpt lat="39.3909700" lon="-0.7133600">
        <ele>268.0</ele>
        <time>2018-09-16T06:06:54Z</time>
      </trkpt>
      <trkpt lat="39.3909620" lon="-0.7134250">
        <ele>268.0</ele>
        <time>2018-09-16T06:06:55Z</time>
      </trkpt>
      <trkpt lat="39.3909620" lon="-0.7134250">
        <ele>268.0</ele>
        <time>2018-09-16T06:06:56Z</time>
      </trkpt>
      <trkpt lat="39.3909620" lon="-0.7134250">
        <ele>268.0</ele>
        <time>2018-09-16T06:06:57Z</time>
      </trkpt>
      <trkpt lat="39.3909300" lon="-0.7135500">
        <ele>268.0</ele>
        <time>2018-09-16T06:06:58Z</time>
      </trkpt>
      <trkpt lat="39.3909130" lon="-0.7136180">
        <ele>268.0</ele>
        <time>2018-09-16T06:06:59Z</time>
      </trkpt>
      <trkpt lat="39.3909130" lon="-0.7136180">
        <ele>267.0</ele>
        <time>2018-09-16T06:07:00Z</time>
      </trkpt>
      <trkpt lat="39.3908680" lon="-0.7137430">
        <ele>267.0</ele>
        <time>2018-09-16T06:07:01Z</time>
      </trkpt>
      <trkpt lat="39.3908220" lon="-0.7138840">
        <ele>267.0</ele>
        <time>2018-09-16T06:07:02Z</time>
      </trkpt>
      <trkpt lat="39.3908170" lon="-0.7139000">
        <ele>267.0</ele>
        <time>2018-09-16T06:07:03Z</time>
      </trkpt>
      <trkpt lat="39.3908070" lon="-0.7139320">
        <ele>267.0</ele>
        <time>2018-09-16T06:07:04Z</time>
      </trkpt>
      <trkpt lat="39.3907670" lon="-0.7140650">
        <ele>267.0</ele>
        <time>2018-09-16T06:07:05Z</time>
      </trkpt>
      <trkpt lat="39.3907470" lon="-0.7141330">
        <ele>267.0</ele>
        <time>2018-09-16T06:07:06Z</time>
      </trkpt>
      <trkpt lat="39.3907470" lon="-0.7141330">
        <ele>267.0</ele>
        <time>2018-09-16T06:07:07Z</time>
      </trkpt>
      <trkpt lat="39.3907470" lon="-0.7141330">
        <ele>267.0</ele>
        <time>2018-09-16T06:07:08Z</time>
      </trkpt>
      <trkpt lat="39.3907030" lon="-0.7142480">
        <ele>267.0</ele>
        <time>2018-09-16T06:07:09Z</time>
      </trkpt>
      <trkpt lat="39.3907030" lon="-0.7142480">
        <ele>267.0</ele>
        <time>2018-09-16T06:07:10Z</time>
      </trkpt>
      <trkpt lat="39.3906520" lon="-0.7144000">
        <ele>267.0</ele>
        <time>2018-09-16T06:07:11Z</time>
      </trkpt>
      <trkpt lat="39.3906520" lon="-0.7144000">
        <ele>267.0</ele>
        <time>2018-09-16T06:07:12Z</time>
      </trkpt>
      <trkpt lat="39.3906220" lon="-0.7144870">
        <ele>267.0</ele>
        <time>2018-09-16T06:07:13Z</time>
      </trkpt>
      <trkpt lat="39.3906220" lon="-0.7144870">
        <ele>267.0</ele>
        <time>2018-09-16T06:07:14Z</time>
      </trkpt>
      <trkpt lat="39.3906120" lon="-0.7145980">
        <ele>267.0</ele>
        <time>2018-09-16T06:07:15Z</time>
      </trkpt>
      <trkpt lat="39.3906120" lon="-0.7145980">
        <ele>267.0</ele>
        <time>2018-09-16T06:07:16Z</time>
      </trkpt>
      <trkpt lat="39.3905980" lon="-0.7147350">
        <ele>267.0</ele>
        <time>2018-09-16T06:07:17Z</time>
      </trkpt>
      <trkpt lat="39.3905980" lon="-0.7147350">
        <ele>267.0</ele>
        <time>2018-09-16T06:07:18Z</time>
      </trkpt>
      <trkpt lat="39.3905880" lon="-0.7148020">
        <ele>267.0</ele>
        <time>2018-09-16T06:07:19Z</time>
      </trkpt>
      <trkpt lat="39.3905880" lon="-0.7148020">
        <ele>267.0</ele>
        <time>2018-09-16T06:07:20Z</time>
      </trkpt>
      <trkpt lat="39.3905630" lon="-0.7149250">
        <ele>267.0</ele>
        <time>2018-09-16T06:07:21Z</time>
      </trkpt>
      <trkpt lat="39.3905630" lon="-0.7149250">
        <ele>267.0</ele>
        <time>2018-09-16T06:07:22Z</time>
      </trkpt>
      <trkpt lat="39.3905150" lon="-0.7150900">
        <ele>267.0</ele>
        <time>2018-09-16T06:07:23Z</time>
      </trkpt>
      <trkpt lat="39.3905150" lon="-0.7150900">
        <ele>267.0</ele>
        <time>2018-09-16T06:07:24Z</time>
      </trkpt>
      <trkpt lat="39.3904850" lon="-0.7152020">
        <ele>267.0</ele>
        <time>2018-09-16T06:07:25Z</time>
      </trkpt>
      <trkpt lat="39.3904850" lon="-0.7152020">
        <ele>267.0</ele>
        <time>2018-09-16T06:07:26Z</time>
      </trkpt>
      <trkpt lat="39.3904850" lon="-0.7152020">
        <ele>267.0</ele>
        <time>2018-09-16T06:07:27Z</time>
      </trkpt>
      <trkpt lat="39.3904300" lon="-0.7153750">
        <ele>267.0</ele>
        <time>2018-09-16T06:07:28Z</time>
      </trkpt>
      <trkpt lat="39.3904300" lon="-0.7153750">
        <ele>267.0</ele>
        <time>2018-09-16T06:07:29Z</time>
      </trkpt>
      <trkpt lat="39.3904300" lon="-0.7153750">
        <ele>267.0</ele>
        <time>2018-09-16T06:07:30Z</time>
      </trkpt>
      <trkpt lat="39.3904070" lon="-0.7155020">
        <ele>267.0</ele>
        <time>2018-09-16T06:07:31Z</time>
      </trkpt>
      <trkpt lat="39.3904070" lon="-0.7155020">
        <ele>267.0</ele>
        <time>2018-09-16T06:07:32Z</time>
      </trkpt>
      <trkpt lat="39.3903830" lon="-0.7156280">
        <ele>267.0</ele>
        <time>2018-09-16T06:07:33Z</time>
      </trkpt>
      <trkpt lat="39.3903830" lon="-0.7156280">
        <ele>267.0</ele>
        <time>2018-09-16T06:07:34Z</time>
      </trkpt>
      <trkpt lat="39.3903580" lon="-0.7157550">
        <ele>267.0</ele>
        <time>2018-09-16T06:07:35Z</time>
      </trkpt>
      <trkpt lat="39.3903580" lon="-0.7157550">
        <ele>267.0</ele>
        <time>2018-09-16T06:07:36Z</time>
      </trkpt>
      <trkpt lat="39.3903280" lon="-0.7158830">
        <ele>267.0</ele>
        <time>2018-09-16T06:07:37Z</time>
      </trkpt>
      <trkpt lat="39.3902830" lon="-0.7160000">
        <ele>267.0</ele>
        <time>2018-09-16T06:07:38Z</time>
      </trkpt>
      <trkpt lat="39.3902830" lon="-0.7160000">
        <ele>267.0</ele>
        <time>2018-09-16T06:07:39Z</time>
      </trkpt>
      <trkpt lat="39.3902830" lon="-0.7160000">
        <ele>267.0</ele>
        <time>2018-09-16T06:07:40Z</time>
      </trkpt>
      <trkpt lat="39.3902500" lon="-0.7161220">
        <ele>267.0</ele>
        <time>2018-09-16T06:07:41Z</time>
      </trkpt>
      <trkpt lat="39.3902500" lon="-0.7161220">
        <ele>267.0</ele>
        <time>2018-09-16T06:07:42Z</time>
      </trkpt>
      <trkpt lat="39.3902250" lon="-0.7162470">
        <ele>267.0</ele>
        <time>2018-09-16T06:07:43Z</time>
      </trkpt>
      <trkpt lat="39.3901900" lon="-0.7163620">
        <ele>267.0</ele>
        <time>2018-09-16T06:07:44Z</time>
      </trkpt>
      <trkpt lat="39.3901900" lon="-0.7163620">
        <ele>267.0</ele>
        <time>2018-09-16T06:07:45Z</time>
      </trkpt>
      <trkpt lat="39.3901570" lon="-0.7164720">
        <ele>267.0</ele>
        <time>2018-09-16T06:07:46Z</time>
      </trkpt>
      <trkpt lat="39.3901570" lon="-0.7164720">
        <ele>267.0</ele>
        <time>2018-09-16T06:07:47Z</time>
      </trkpt>
      <trkpt lat="39.3901570" lon="-0.7164720">
        <ele>267.0</ele>
        <time>2018-09-16T06:07:48Z</time>
      </trkpt>
      <trkpt lat="39.3901250" lon="-0.7165880">
        <ele>267.0</ele>
        <time>2018-09-16T06:07:49Z</time>
      </trkpt>
      <trkpt lat="39.3901020" lon="-0.7167120">
        <ele>267.0</ele>
        <time>2018-09-16T06:07:50Z</time>
      </trkpt>
      <trkpt lat="39.3901020" lon="-0.7167120">
        <ele>267.0</ele>
        <time>2018-09-16T06:07:51Z</time>
      </trkpt>
      <trkpt lat="39.3901020" lon="-0.7167120">
        <ele>267.0</ele>
        <time>2018-09-16T06:07:52Z</time>
      </trkpt>
      <trkpt lat="39.3900730" lon="-0.7168180">
        <ele>267.0</ele>
        <time>2018-09-16T06:07:53Z</time>
      </trkpt>
      <trkpt lat="39.3900730" lon="-0.7168180">
        <ele>268.0</ele>
        <time>2018-09-16T06:07:54Z</time>
      </trkpt>
      <trkpt lat="39.3900320" lon="-0.7168820">
        <ele>268.0</ele>
        <time>2018-09-16T06:07:55Z</time>
      </trkpt>
      <trkpt lat="39.3899680" lon="-0.7168720">
        <ele>268.0</ele>
        <time>2018-09-16T06:07:56Z</time>
      </trkpt>
      <trkpt lat="39.3899300" lon="-0.7168570">
        <ele>268.0</ele>
        <time>2018-09-16T06:07:57Z</time>
      </trkpt>
      <trkpt lat="39.3899300" lon="-0.7168570">
        <ele>268.0</ele>
        <time>2018-09-16T06:07:58Z</time>
      </trkpt>
      <trkpt lat="39.3898450" lon="-0.7168230">
        <ele>268.0</ele>
        <time>2018-09-16T06:07:59Z</time>
      </trkpt>
      <trkpt lat="39.3898450" lon="-0.7168230">
        <ele>268.0</ele>
        <time>2018-09-16T06:08:00Z</time>
      </trkpt>
      <trkpt lat="39.3898000" lon="-0.7168050">
        <ele>268.0</ele>
        <time>2018-09-16T06:08:01Z</time>
      </trkpt>
      <trkpt lat="39.3898000" lon="-0.7168050">
        <ele>268.0</ele>
        <time>2018-09-16T06:08:02Z</time>
      </trkpt>
      <trkpt lat="39.3897080" lon="-0.7167780">
        <ele>268.0</ele>
        <time>2018-09-16T06:08:03Z</time>
      </trkpt>
      <trkpt lat="39.3897080" lon="-0.7167780">
        <ele>268.0</ele>
        <time>2018-09-16T06:08:04Z</time>
      </trkpt>
      <trkpt lat="39.3896180" lon="-0.7167530">
        <ele>268.0</ele>
        <time>2018-09-16T06:08:05Z</time>
      </trkpt>
      <trkpt lat="39.3896180" lon="-0.7167530">
        <ele>268.0</ele>
        <time>2018-09-16T06:08:06Z</time>
      </trkpt>
      <trkpt lat="39.3895320" lon="-0.7167300">
        <ele>268.0</ele>
        <time>2018-09-16T06:08:07Z</time>
      </trkpt>
      <trkpt lat="39.3895320" lon="-0.7167300">
        <ele>268.0</ele>
        <time>2018-09-16T06:08:08Z</time>
      </trkpt>
      <trkpt lat="39.3894450" lon="-0.7167000">
        <ele>268.0</ele>
        <time>2018-09-16T06:08:09Z</time>
      </trkpt>
      <trkpt lat="39.3894450" lon="-0.7167000">
        <ele>268.0</ele>
        <time>2018-09-16T06:08:10Z</time>
      </trkpt>
      <trkpt lat="39.3893620" lon="-0.7166730">
        <ele>268.0</ele>
        <time>2018-09-16T06:08:11Z</time>
      </trkpt>
      <trkpt lat="39.3893620" lon="-0.7166730">
        <ele>268.0</ele>
        <time>2018-09-16T06:08:12Z</time>
      </trkpt>
      <trkpt lat="39.3892820" lon="-0.7166570">
        <ele>268.0</ele>
        <time>2018-09-16T06:08:13Z</time>
      </trkpt>
      <trkpt lat="39.3892050" lon="-0.7166320">
        <ele>268.0</ele>
        <time>2018-09-16T06:08:14Z</time>
      </trkpt>
      <trkpt lat="39.3892050" lon="-0.7166320">
        <ele>268.0</ele>
        <time>2018-09-16T06:08:15Z</time>
      </trkpt>
      <trkpt lat="39.3892050" lon="-0.7166320">
        <ele>268.0</ele>
        <time>2018-09-16T06:08:16Z</time>
      </trkpt>
      <trkpt lat="39.3891080" lon="-0.7165950">
        <ele>268.0</ele>
        <time>2018-09-16T06:08:17Z</time>
      </trkpt>
      <trkpt lat="39.3890680" lon="-0.7165770">
        <ele>268.0</ele>
        <time>2018-09-16T06:08:18Z</time>
      </trkpt>
      <trkpt lat="39.3890680" lon="-0.7165770">
        <ele>268.0</ele>
        <time>2018-09-16T06:08:19Z</time>
      </trkpt>
      <trkpt lat="39.3889850" lon="-0.7165430">
        <ele>268.0</ele>
        <time>2018-09-16T06:08:20Z</time>
      </trkpt>
      <trkpt lat="39.3889850" lon="-0.7165430">
        <ele>268.0</ele>
        <time>2018-09-16T06:08:21Z</time>
      </trkpt>
      <trkpt lat="39.3889030" lon="-0.7165270">
        <ele>268.0</ele>
        <time>2018-09-16T06:08:22Z</time>
      </trkpt>
      <trkpt lat="39.3889030" lon="-0.7165270">
        <ele>268.0</ele>
        <time>2018-09-16T06:08:23Z</time>
      </trkpt>
      <trkpt lat="39.3889030" lon="-0.7165270">
        <ele>268.0</ele>
        <time>2018-09-16T06:08:24Z</time>
      </trkpt>
      <trkpt lat="39.3888300" lon="-0.7164870">
        <ele>268.0</ele>
        <time>2018-09-16T06:08:25Z</time>
      </trkpt>
      <trkpt lat="39.3887530" lon="-0.7164450">
        <ele>268.0</ele>
        <time>2018-09-16T06:08:26Z</time>
      </trkpt>
      <trkpt lat="39.3887530" lon="-0.7164450">
        <ele>268.0</ele>
        <time>2018-09-16T06:08:27Z</time>
      </trkpt>
      <trkpt lat="39.3887170" lon="-0.7164230">
        <ele>268.0</ele>
        <time>2018-09-16T06:08:28Z</time>
      </trkpt>
      <trkpt lat="39.3886380" lon="-0.7163830">
        <ele>268.0</ele>
        <time>2018-09-16T06:08:29Z</time>
      </trkpt>
      <trkpt lat="39.3886030" lon="-0.7163700">
        <ele>268.0</ele>
        <time>2018-09-16T06:08:30Z</time>
      </trkpt>
      <trkpt lat="39.3886030" lon="-0.7163700">
        <ele>268.0</ele>
        <time>2018-09-16T06:08:31Z</time>
      </trkpt>
      <trkpt lat="39.3885270" lon="-0.7163400">
        <ele>268.0</ele>
        <time>2018-09-16T06:08:32Z</time>
      </trkpt>
      <trkpt lat="39.3884900" lon="-0.7163280">
        <ele>267.0</ele>
        <time>2018-09-16T06:08:33Z</time>
      </trkpt>
      <trkpt lat="39.3884900" lon="-0.7163280">
        <ele>267.0</ele>
        <time>2018-09-16T06:08:34Z</time>
      </trkpt>
      <trkpt lat="39.3884280" lon="-0.7163100">
        <ele>267.0</ele>
        <time>2018-09-16T06:08:35Z</time>
      </trkpt>
      <trkpt lat="39.3883980" lon="-0.7163030">
        <ele>267.0</ele>
        <time>2018-09-16T06:08:36Z</time>
      </trkpt>
      <trkpt lat="39.3883980" lon="-0.7163030">
        <ele>266.0</ele>
        <time>2018-09-16T06:08:37Z</time>
      </trkpt>
      <trkpt lat="39.3883680" lon="-0.7162980">
        <ele>266.0</ele>
        <time>2018-09-16T06:08:38Z</time>
      </trkpt>
      <trkpt lat="39.3883050" lon="-0.7162870">
        <ele>266.0</ele>
        <time>2018-09-16T06:08:39Z</time>
      </trkpt>
      <trkpt lat="39.3883050" lon="-0.7162870">
        <ele>266.0</ele>
        <time>2018-09-16T06:08:40Z</time>
      </trkpt>
      <trkpt lat="39.3882350" lon="-0.7162830">
        <ele>266.0</ele>
        <time>2018-09-16T06:08:41Z</time>
      </trkpt>
      <trkpt lat="39.3882020" lon="-0.7162870">
        <ele>266.0</ele>
        <time>2018-09-16T06:08:42Z</time>
      </trkpt>
      <trkpt lat="39.3881730" lon="-0.7163000">
        <ele>265.0</ele>
        <time>2018-09-16T06:08:43Z</time>
      </trkpt>
      <trkpt lat="39.3881730" lon="-0.7163000">
        <ele>265.0</ele>
        <time>2018-09-16T06:08:44Z</time>
      </trkpt>
      <trkpt lat="39.3881180" lon="-0.7163330">
        <ele>265.0</ele>
        <time>2018-09-16T06:08:45Z</time>
      </trkpt>
      <trkpt lat="39.3880870" lon="-0.7163620">
        <ele>265.0</ele>
        <time>2018-09-16T06:08:46Z</time>
      </trkpt>
      <trkpt lat="39.3880870" lon="-0.7163620">
        <ele>265.0</ele>
        <time>2018-09-16T06:08:47Z</time>
      </trkpt>
      <trkpt lat="39.3880300" lon="-0.7164330">
        <ele>265.0</ele>
        <time>2018-09-16T06:08:48Z</time>
      </trkpt>
      <trkpt lat="39.3880300" lon="-0.7164330">
        <ele>265.0</ele>
        <time>2018-09-16T06:08:49Z</time>
      </trkpt>
      <trkpt lat="39.3879630" lon="-0.7165000">
        <ele>265.0</ele>
        <time>2018-09-16T06:08:50Z</time>
      </trkpt>
      <trkpt lat="39.3879630" lon="-0.7165000">
        <ele>265.0</ele>
        <time>2018-09-16T06:08:51Z</time>
      </trkpt>
      <trkpt lat="39.3878880" lon="-0.7165230">
        <ele>265.0</ele>
        <time>2018-09-16T06:08:52Z</time>
      </trkpt>
      <trkpt lat="39.3878880" lon="-0.7165230">
        <ele>265.0</ele>
        <time>2018-09-16T06:08:53Z</time>
      </trkpt>
      <trkpt lat="39.3878020" lon="-0.7165130">
        <ele>265.0</ele>
        <time>2018-09-16T06:08:54Z</time>
      </trkpt>
      <trkpt lat="39.3878020" lon="-0.7165130">
        <ele>265.0</ele>
        <time>2018-09-16T06:08:55Z</time>
      </trkpt>
      <trkpt lat="39.3878020" lon="-0.7165130">
        <ele>265.0</ele>
        <time>2018-09-16T06:08:56Z</time>
      </trkpt>
      <trkpt lat="39.3876730" lon="-0.7164730">
        <ele>265.0</ele>
        <time>2018-09-16T06:08:57Z</time>
      </trkpt>
      <trkpt lat="39.3876730" lon="-0.7164730">
        <ele>265.0</ele>
        <time>2018-09-16T06:08:58Z</time>
      </trkpt>
      <trkpt lat="39.3875660" lon="-0.7164420">
        <ele>265.0</ele>
        <time>2018-09-16T06:08:59Z</time>
      </trkpt>
      <trkpt lat="39.3875430" lon="-0.7164370">
        <ele>265.0</ele>
        <time>2018-09-16T06:09:00Z</time>
      </trkpt>
      <trkpt lat="39.3875430" lon="-0.7164370">
        <ele>265.0</ele>
        <time>2018-09-16T06:09:01Z</time>
      </trkpt>
      <trkpt lat="39.3874480" lon="-0.7164070">
        <ele>265.0</ele>
        <time>2018-09-16T06:09:02Z</time>
      </trkpt>
      <trkpt lat="39.3874480" lon="-0.7164070">
        <ele>265.0</ele>
        <time>2018-09-16T06:09:03Z</time>
      </trkpt>
      <trkpt lat="39.3874480" lon="-0.7164070">
        <ele>265.0</ele>
        <time>2018-09-16T06:09:04Z</time>
      </trkpt>
      <trkpt lat="39.3873470" lon="-0.7163770">
        <ele>265.0</ele>
        <time>2018-09-16T06:09:05Z</time>
      </trkpt>
      <trkpt lat="39.3872430" lon="-0.7163480">
        <ele>265.0</ele>
        <time>2018-09-16T06:09:06Z</time>
      </trkpt>
      <trkpt lat="39.3872430" lon="-0.7163480">
        <ele>265.0</ele>
        <time>2018-09-16T06:09:07Z</time>
      </trkpt>
      <trkpt lat="39.3871480" lon="-0.7163320">
        <ele>263.0</ele>
        <time>2018-09-16T06:09:08Z</time>
      </trkpt>
      <trkpt lat="39.3871480" lon="-0.7163320">
        <ele>263.0</ele>
        <time>2018-09-16T06:09:09Z</time>
      </trkpt>
      <trkpt lat="39.3870770" lon="-0.7163650">
        <ele>263.0</ele>
        <time>2018-09-16T06:09:10Z</time>
      </trkpt>
      <trkpt lat="39.3870770" lon="-0.7163650">
        <ele>263.0</ele>
        <time>2018-09-16T06:09:11Z</time>
      </trkpt>
      <trkpt lat="39.3870420" lon="-0.7164420">
        <ele>262.0</ele>
        <time>2018-09-16T06:09:12Z</time>
      </trkpt>
      <trkpt lat="39.3870420" lon="-0.7164420">
        <ele>262.0</ele>
        <time>2018-09-16T06:09:13Z</time>
      </trkpt>
      <trkpt lat="39.3870200" lon="-0.7165470">
        <ele>262.0</ele>
        <time>2018-09-16T06:09:14Z</time>
      </trkpt>
      <trkpt lat="39.3870200" lon="-0.7165470">
        <ele>262.0</ele>
        <time>2018-09-16T06:09:15Z</time>
      </trkpt>
      <trkpt lat="39.3870020" lon="-0.7166550">
        <ele>262.0</ele>
        <time>2018-09-16T06:09:16Z</time>
      </trkpt>
      <trkpt lat="39.3869930" lon="-0.7167080">
        <ele>262.0</ele>
        <time>2018-09-16T06:09:17Z</time>
      </trkpt>
      <trkpt lat="39.3869930" lon="-0.7167080">
        <ele>262.0</ele>
        <time>2018-09-16T06:09:18Z</time>
      </trkpt>
      <trkpt lat="39.3869930" lon="-0.7167080">
        <ele>262.0</ele>
        <time>2018-09-16T06:09:19Z</time>
      </trkpt>
      <trkpt lat="39.3869580" lon="-0.7168700">
        <ele>262.0</ele>
        <time>2018-09-16T06:09:20Z</time>
      </trkpt>
      <trkpt lat="39.3869580" lon="-0.7168700">
        <ele>262.0</ele>
        <time>2018-09-16T06:09:21Z</time>
      </trkpt>
      <trkpt lat="39.3869380" lon="-0.7169980">
        <ele>262.0</ele>
        <time>2018-09-16T06:09:22Z</time>
      </trkpt>
      <trkpt lat="39.3869380" lon="-0.7169980">
        <ele>262.0</ele>
        <time>2018-09-16T06:09:23Z</time>
      </trkpt>
      <trkpt lat="39.3869230" lon="-0.7171250">
        <ele>262.0</ele>
        <time>2018-09-16T06:09:24Z</time>
      </trkpt>
      <trkpt lat="39.3869230" lon="-0.7171250">
        <ele>262.0</ele>
        <time>2018-09-16T06:09:25Z</time>
      </trkpt>
      <trkpt lat="39.3869230" lon="-0.7171250">
        <ele>261.0</ele>
        <time>2018-09-16T06:09:26Z</time>
      </trkpt>
      <trkpt lat="39.3868700" lon="-0.7173030">
        <ele>261.0</ele>
        <time>2018-09-16T06:09:27Z</time>
      </trkpt>
      <trkpt lat="39.3868700" lon="-0.7173030">
        <ele>261.0</ele>
        <time>2018-09-16T06:09:28Z</time>
      </trkpt>
      <trkpt lat="39.3867870" lon="-0.7173900">
        <ele>261.0</ele>
        <time>2018-09-16T06:09:29Z</time>
      </trkpt>
      <trkpt lat="39.3867380" lon="-0.7174230">
        <ele>261.0</ele>
        <time>2018-09-16T06:09:30Z</time>
      </trkpt>
      <trkpt lat="39.3867380" lon="-0.7174230">
        <ele>261.0</ele>
        <time>2018-09-16T06:09:31Z</time>
      </trkpt>
      <trkpt lat="39.3866380" lon="-0.7174930">
        <ele>260.0</ele>
        <time>2018-09-16T06:09:32Z</time>
      </trkpt>
      <trkpt lat="39.3865870" lon="-0.7175300">
        <ele>260.0</ele>
        <time>2018-09-16T06:09:33Z</time>
      </trkpt>
      <trkpt lat="39.3865370" lon="-0.7175720">
        <ele>260.0</ele>
        <time>2018-09-16T06:09:34Z</time>
      </trkpt>
      <trkpt lat="39.3865370" lon="-0.7175720">
        <ele>260.0</ele>
        <time>2018-09-16T06:09:35Z</time>
      </trkpt>
      <trkpt lat="39.3865370" lon="-0.7175720">
        <ele>260.0</ele>
        <time>2018-09-16T06:09:36Z</time>
      </trkpt>
      <trkpt lat="39.3864220" lon="-0.7176330">
        <ele>260.0</ele>
        <time>2018-09-16T06:09:37Z</time>
      </trkpt>
      <trkpt lat="39.3862920" lon="-0.7176070">
        <ele>260.0</ele>
        <time>2018-09-16T06:09:38Z</time>
      </trkpt>
      <trkpt lat="39.3862260" lon="-0.7175790">
        <ele>260.0</ele>
        <time>2018-09-16T06:09:39Z</time>
      </trkpt>
      <trkpt lat="39.3861600" lon="-0.7175520">
        <ele>258.0</ele>
        <time>2018-09-16T06:09:40Z</time>
      </trkpt>
      <trkpt lat="39.3860850" lon="-0.7175420">
        <ele>258.0</ele>
        <time>2018-09-16T06:09:41Z</time>
      </trkpt>
      <trkpt lat="39.3860850" lon="-0.7175420">
        <ele>258.0</ele>
        <time>2018-09-16T06:09:42Z</time>
      </trkpt>
      <trkpt lat="39.3859300" lon="-0.7175250">
        <ele>258.0</ele>
        <time>2018-09-16T06:09:43Z</time>
      </trkpt>
      <trkpt lat="39.3858520" lon="-0.7175010">
        <ele>257.0</ele>
        <time>2018-09-16T06:09:44Z</time>
      </trkpt>
      <trkpt lat="39.3857730" lon="-0.7174780">
        <ele>257.0</ele>
        <time>2018-09-16T06:09:45Z</time>
      </trkpt>
      <trkpt lat="39.3856950" lon="-0.7174430">
        <ele>256.0</ele>
        <time>2018-09-16T06:09:46Z</time>
      </trkpt>
      <trkpt lat="39.3856950" lon="-0.7174430">
        <ele>256.0</ele>
        <time>2018-09-16T06:09:47Z</time>
      </trkpt>
      <trkpt lat="39.3855450" lon="-0.7173500">
        <ele>256.0</ele>
        <time>2018-09-16T06:09:48Z</time>
      </trkpt>
      <trkpt lat="39.3855450" lon="-0.7173500">
        <ele>256.0</ele>
        <time>2018-09-16T06:09:49Z</time>
      </trkpt>
      <trkpt lat="39.3853970" lon="-0.7172480">
        <ele>254.0</ele>
        <time>2018-09-16T06:09:50Z</time>
      </trkpt>
      <trkpt lat="39.3853970" lon="-0.7172480">
        <ele>252.0</ele>
        <time>2018-09-16T06:09:51Z</time>
      </trkpt>
      <trkpt lat="39.3852620" lon="-0.7172270">
        <ele>252.0</ele>
        <time>2018-09-16T06:09:52Z</time>
      </trkpt>
      <trkpt lat="39.3852620" lon="-0.7172270">
        <ele>251.0</ele>
        <time>2018-09-16T06:09:53Z</time>
      </trkpt>
      <trkpt lat="39.3852620" lon="-0.7172270">
        <ele>251.0</ele>
        <time>2018-09-16T06:09:54Z</time>
      </trkpt>
      <trkpt lat="39.3851580" lon="-0.7173200">
        <ele>250.0</ele>
        <time>2018-09-16T06:09:55Z</time>
      </trkpt>
      <trkpt lat="39.3850550" lon="-0.7174420">
        <ele>250.0</ele>
        <time>2018-09-16T06:09:56Z</time>
      </trkpt>
      <trkpt lat="39.3850550" lon="-0.7174420">
        <ele>250.0</ele>
        <time>2018-09-16T06:09:57Z</time>
      </trkpt>
      <trkpt lat="39.3849280" lon="-0.7175330">
        <ele>250.0</ele>
        <time>2018-09-16T06:09:58Z</time>
      </trkpt>
      <trkpt lat="39.3849280" lon="-0.7175330">
        <ele>249.0</ele>
        <time>2018-09-16T06:09:59Z</time>
      </trkpt>
      <trkpt lat="39.3849280" lon="-0.7175330">
        <ele>249.0</ele>
        <time>2018-09-16T06:10:00Z</time>
      </trkpt>
      <trkpt lat="39.3847970" lon="-0.7176000">
        <ele>248.0</ele>
        <time>2018-09-16T06:10:01Z</time>
      </trkpt>
      <trkpt lat="39.3846720" lon="-0.7176620">
        <ele>248.0</ele>
        <time>2018-09-16T06:10:02Z</time>
      </trkpt>
      <trkpt lat="39.3846720" lon="-0.7176620">
        <ele>248.0</ele>
        <time>2018-09-16T06:10:03Z</time>
      </trkpt>
      <trkpt lat="39.3845820" lon="-0.7177550">
        <ele>248.0</ele>
        <time>2018-09-16T06:10:04Z</time>
      </trkpt>
      <trkpt lat="39.3845820" lon="-0.7177550">
        <ele>248.0</ele>
        <time>2018-09-16T06:10:05Z</time>
      </trkpt>
      <trkpt lat="39.3845820" lon="-0.7177550">
        <ele>248.0</ele>
        <time>2018-09-16T06:10:06Z</time>
      </trkpt>
      <trkpt lat="39.3845100" lon="-0.7178680">
        <ele>248.0</ele>
        <time>2018-09-16T06:10:07Z</time>
      </trkpt>
      <trkpt lat="39.3844300" lon="-0.7179680">
        <ele>248.0</ele>
        <time>2018-09-16T06:10:08Z</time>
      </trkpt>
      <trkpt lat="39.3843870" lon="-0.7180170">
        <ele>248.0</ele>
        <time>2018-09-16T06:10:09Z</time>
      </trkpt>
      <trkpt lat="39.3843870" lon="-0.7180170">
        <ele>248.0</ele>
        <time>2018-09-16T06:10:10Z</time>
      </trkpt>
      <trkpt lat="39.3842920" lon="-0.7181050">
        <ele>248.0</ele>
        <time>2018-09-16T06:10:11Z</time>
      </trkpt>
      <trkpt lat="39.3842420" lon="-0.7181380">
        <ele>248.0</ele>
        <time>2018-09-16T06:10:12Z</time>
      </trkpt>
      <trkpt lat="39.3842420" lon="-0.7181380">
        <ele>248.0</ele>
        <time>2018-09-16T06:10:13Z</time>
      </trkpt>
      <trkpt lat="39.3841380" lon="-0.7181880">
        <ele>248.0</ele>
        <time>2018-09-16T06:10:14Z</time>
      </trkpt>
      <trkpt lat="39.3840930" lon="-0.7182170">
        <ele>248.0</ele>
        <time>2018-09-16T06:10:15Z</time>
      </trkpt>
      <trkpt lat="39.3840930" lon="-0.7182170">
        <ele>248.0</ele>
        <time>2018-09-16T06:10:16Z</time>
      </trkpt>
      <trkpt lat="39.3840270" lon="-0.7183000">
        <ele>248.0</ele>
        <time>2018-09-16T06:10:17Z</time>
      </trkpt>
      <trkpt lat="39.3840030" lon="-0.7183570">
        <ele>248.0</ele>
        <time>2018-09-16T06:10:18Z</time>
      </trkpt>
      <trkpt lat="39.3840030" lon="-0.7183570">
        <ele>249.0</ele>
        <time>2018-09-16T06:10:19Z</time>
      </trkpt>
      <trkpt lat="39.3839720" lon="-0.7184580">
        <ele>249.0</ele>
        <time>2018-09-16T06:10:20Z</time>
      </trkpt>
      <trkpt lat="39.3839720" lon="-0.7184580">
        <ele>250.0</ele>
        <time>2018-09-16T06:10:21Z</time>
      </trkpt>
      <trkpt lat="39.3839500" lon="-0.7185500">
        <ele>250.0</ele>
        <time>2018-09-16T06:10:22Z</time>
      </trkpt>
      <trkpt lat="39.3839500" lon="-0.7185500">
        <ele>251.0</ele>
        <time>2018-09-16T06:10:23Z</time>
      </trkpt>
      <trkpt lat="39.3839300" lon="-0.7186570">
        <ele>251.0</ele>
        <time>2018-09-16T06:10:24Z</time>
      </trkpt>
      <trkpt lat="39.3839300" lon="-0.7186570">
        <ele>252.0</ele>
        <time>2018-09-16T06:10:25Z</time>
      </trkpt>
      <trkpt lat="39.3838980" lon="-0.7187480">
        <ele>252.0</ele>
        <time>2018-09-16T06:10:26Z</time>
      </trkpt>
      <trkpt lat="39.3838980" lon="-0.7187480">
        <ele>253.0</ele>
        <time>2018-09-16T06:10:27Z</time>
      </trkpt>
      <trkpt lat="39.3838620" lon="-0.7188380">
        <ele>253.0</ele>
        <time>2018-09-16T06:10:28Z</time>
      </trkpt>
      <trkpt lat="39.3838620" lon="-0.7188380">
        <ele>253.0</ele>
        <time>2018-09-16T06:10:29Z</time>
      </trkpt>
      <trkpt lat="39.3838350" lon="-0.7189300">
        <ele>253.0</ele>
        <time>2018-09-16T06:10:30Z</time>
      </trkpt>
      <trkpt lat="39.3838350" lon="-0.7189300">
        <ele>253.0</ele>
        <time>2018-09-16T06:10:31Z</time>
      </trkpt>
      <trkpt lat="39.3838180" lon="-0.7190220">
        <ele>253.0</ele>
        <time>2018-09-16T06:10:32Z</time>
      </trkpt>
      <trkpt lat="39.3838150" lon="-0.7190700">
        <ele>253.0</ele>
        <time>2018-09-16T06:10:33Z</time>
      </trkpt>
      <trkpt lat="39.3838150" lon="-0.7190700">
        <ele>253.0</ele>
        <time>2018-09-16T06:10:34Z</time>
      </trkpt>
      <trkpt lat="39.3838230" lon="-0.7191680">
        <ele>254.0</ele>
        <time>2018-09-16T06:10:35Z</time>
      </trkpt>
      <trkpt lat="39.3838230" lon="-0.7191680">
        <ele>254.0</ele>
        <time>2018-09-16T06:10:36Z</time>
      </trkpt>
      <trkpt lat="39.3838420" lon="-0.7192650">
        <ele>254.0</ele>
        <time>2018-09-16T06:10:37Z</time>
      </trkpt>
      <trkpt lat="39.3838420" lon="-0.7192650">
        <ele>254.0</ele>
        <time>2018-09-16T06:10:38Z</time>
      </trkpt>
      <trkpt lat="39.3838470" lon="-0.7193570">
        <ele>255.0</ele>
        <time>2018-09-16T06:10:39Z</time>
      </trkpt>
      <trkpt lat="39.3838320" lon="-0.7193930">
        <ele>255.0</ele>
        <time>2018-09-16T06:10:40Z</time>
      </trkpt>
      <trkpt lat="39.3838320" lon="-0.7193930">
        <ele>255.0</ele>
        <time>2018-09-16T06:10:41Z</time>
      </trkpt>
      <trkpt lat="39.3837720" lon="-0.7194400">
        <ele>255.0</ele>
        <time>2018-09-16T06:10:42Z</time>
      </trkpt>
      <trkpt lat="39.3837720" lon="-0.7194400">
        <ele>256.0</ele>
        <time>2018-09-16T06:10:43Z</time>
      </trkpt>
      <trkpt lat="39.3837000" lon="-0.7194700">
        <ele>256.0</ele>
        <time>2018-09-16T06:10:44Z</time>
      </trkpt>
      <trkpt lat="39.3837000" lon="-0.7194700">
        <ele>256.0</ele>
        <time>2018-09-16T06:10:45Z</time>
      </trkpt>
      <trkpt lat="39.3836250" lon="-0.7195000">
        <ele>256.0</ele>
        <time>2018-09-16T06:10:46Z</time>
      </trkpt>
      <trkpt lat="39.3835870" lon="-0.7195180">
        <ele>256.0</ele>
        <time>2018-09-16T06:10:47Z</time>
      </trkpt>
      <trkpt lat="39.3835870" lon="-0.7195180">
        <ele>257.0</ele>
        <time>2018-09-16T06:10:48Z</time>
      </trkpt>
      <trkpt lat="39.3835100" lon="-0.7195520">
        <ele>257.0</ele>
        <time>2018-09-16T06:10:49Z</time>
      </trkpt>
      <trkpt lat="39.3835100" lon="-0.7195520">
        <ele>257.0</ele>
        <time>2018-09-16T06:10:50Z</time>
      </trkpt>
      <trkpt lat="39.3834300" lon="-0.7195870">
        <ele>257.0</ele>
        <time>2018-09-16T06:10:51Z</time>
      </trkpt>
      <trkpt lat="39.3834300" lon="-0.7195870">
        <ele>258.0</ele>
        <time>2018-09-16T06:10:52Z</time>
      </trkpt>
      <trkpt lat="39.3833470" lon="-0.7196150">
        <ele>258.0</ele>
        <time>2018-09-16T06:10:53Z</time>
      </trkpt>
      <trkpt lat="39.3833470" lon="-0.7196150">
        <ele>258.0</ele>
        <time>2018-09-16T06:10:54Z</time>
      </trkpt>
      <trkpt lat="39.3832700" lon="-0.7196450">
        <ele>258.0</ele>
        <time>2018-09-16T06:10:55Z</time>
      </trkpt>
      <trkpt lat="39.3832700" lon="-0.7196450">
        <ele>259.0</ele>
        <time>2018-09-16T06:10:56Z</time>
      </trkpt>
      <trkpt lat="39.3831980" lon="-0.7196930">
        <ele>259.0</ele>
        <time>2018-09-16T06:10:57Z</time>
      </trkpt>
      <trkpt lat="39.3831980" lon="-0.7196930">
        <ele>259.0</ele>
        <time>2018-09-16T06:10:58Z</time>
      </trkpt>
      <trkpt lat="39.3831400" lon="-0.7197620">
        <ele>259.0</ele>
        <time>2018-09-16T06:10:59Z</time>
      </trkpt>
      <trkpt lat="39.3831150" lon="-0.7198020">
        <ele>260.0</ele>
        <time>2018-09-16T06:11:00Z</time>
      </trkpt>
      <trkpt lat="39.3831150" lon="-0.7198020">
        <ele>260.0</ele>
        <time>2018-09-16T06:11:01Z</time>
      </trkpt>
      <trkpt lat="39.3830750" lon="-0.7198900">
        <ele>260.0</ele>
        <time>2018-09-16T06:11:02Z</time>
      </trkpt>
      <trkpt lat="39.3830550" lon="-0.7199300">
        <ele>260.0</ele>
        <time>2018-09-16T06:11:03Z</time>
      </trkpt>
      <trkpt lat="39.3830550" lon="-0.7199300">
        <ele>260.0</ele>
        <time>2018-09-16T06:11:04Z</time>
      </trkpt>
      <trkpt lat="39.3830230" lon="-0.7200150">
        <ele>260.0</ele>
        <time>2018-09-16T06:11:05Z</time>
      </trkpt>
      <trkpt lat="39.3830070" lon="-0.7200580">
        <ele>262.0</ele>
        <time>2018-09-16T06:11:06Z</time>
      </trkpt>
      <trkpt lat="39.3830070" lon="-0.7200580">
        <ele>262.0</ele>
        <time>2018-09-16T06:11:07Z</time>
      </trkpt>
      <trkpt lat="39.3829680" lon="-0.7201400">
        <ele>262.0</ele>
        <time>2018-09-16T06:11:08Z</time>
      </trkpt>
      <trkpt lat="39.3829680" lon="-0.7201400">
        <ele>262.0</ele>
        <time>2018-09-16T06:11:09Z</time>
      </trkpt>
      <trkpt lat="39.3829280" lon="-0.7202130">
        <ele>262.0</ele>
        <time>2018-09-16T06:11:10Z</time>
      </trkpt>
      <trkpt lat="39.3829280" lon="-0.7202130">
        <ele>262.0</ele>
        <time>2018-09-16T06:11:11Z</time>
      </trkpt>
      <trkpt lat="39.3829280" lon="-0.7202130">
        <ele>262.0</ele>
        <time>2018-09-16T06:11:12Z</time>
      </trkpt>
      <trkpt lat="39.3828920" lon="-0.7202870">
        <ele>262.0</ele>
        <time>2018-09-16T06:11:13Z</time>
      </trkpt>
      <trkpt lat="39.3828450" lon="-0.7203580">
        <ele>263.0</ele>
        <time>2018-09-16T06:11:14Z</time>
      </trkpt>
      <trkpt lat="39.3828450" lon="-0.7203580">
        <ele>263.0</ele>
        <time>2018-09-16T06:11:15Z</time>
      </trkpt>
      <trkpt lat="39.3827930" lon="-0.7204230">
        <ele>263.0</ele>
        <time>2018-09-16T06:11:16Z</time>
      </trkpt>
      <trkpt lat="39.3827930" lon="-0.7204230">
        <ele>264.0</ele>
        <time>2018-09-16T06:11:17Z</time>
      </trkpt>
      <trkpt lat="39.3827350" lon="-0.7204630">
        <ele>264.0</ele>
        <time>2018-09-16T06:11:18Z</time>
      </trkpt>
      <trkpt lat="39.3827350" lon="-0.7204630">
        <ele>264.0</ele>
        <time>2018-09-16T06:11:19Z</time>
      </trkpt>
      <trkpt lat="39.3827020" lon="-0.7204750">
        <ele>264.0</ele>
        <time>2018-09-16T06:11:20Z</time>
      </trkpt>
      <trkpt lat="39.3826330" lon="-0.7204900">
        <ele>265.0</ele>
        <time>2018-09-16T06:11:21Z</time>
      </trkpt>
      <trkpt lat="39.3826000" lon="-0.7204950">
        <ele>265.0</ele>
        <time>2018-09-16T06:11:22Z</time>
      </trkpt>
      <trkpt lat="39.3826000" lon="-0.7204950">
        <ele>265.0</ele>
        <time>2018-09-16T06:11:23Z</time>
      </trkpt>
      <trkpt lat="39.3825420" lon="-0.7205250">
        <ele>265.0</ele>
        <time>2018-09-16T06:11:24Z</time>
      </trkpt>
      <trkpt lat="39.3825420" lon="-0.7205250">
        <ele>266.0</ele>
        <time>2018-09-16T06:11:25Z</time>
      </trkpt>
      <trkpt lat="39.3824970" lon="-0.7205980">
        <ele>266.0</ele>
        <time>2018-09-16T06:11:26Z</time>
      </trkpt>
      <trkpt lat="39.3824970" lon="-0.7205980">
        <ele>266.0</ele>
        <time>2018-09-16T06:11:27Z</time>
      </trkpt>
      <trkpt lat="39.3824620" lon="-0.7206930">
        <ele>266.0</ele>
        <time>2018-09-16T06:11:28Z</time>
      </trkpt>
      <trkpt lat="39.3824620" lon="-0.7206930">
        <ele>266.0</ele>
        <time>2018-09-16T06:11:29Z</time>
      </trkpt>
      <trkpt lat="39.3824620" lon="-0.7206930">
        <ele>266.0</ele>
        <time>2018-09-16T06:11:30Z</time>
      </trkpt>
      <trkpt lat="39.3824330" lon="-0.7207870">
        <ele>266.0</ele>
        <time>2018-09-16T06:11:31Z</time>
      </trkpt>
      <trkpt lat="39.3824100" lon="-0.7208870">
        <ele>266.0</ele>
        <time>2018-09-16T06:11:32Z</time>
      </trkpt>
      <trkpt lat="39.3824100" lon="-0.7208870">
        <ele>266.0</ele>
        <time>2018-09-16T06:11:33Z</time>
      </trkpt>
      <trkpt lat="39.3823930" lon="-0.7209330">
        <ele>266.0</ele>
        <time>2018-09-16T06:11:34Z</time>
      </trkpt>
      <trkpt lat="39.3823580" lon="-0.7210280">
        <ele>266.0</ele>
        <time>2018-09-16T06:11:35Z</time>
      </trkpt>
      <trkpt lat="39.3823350" lon="-0.7210730">
        <ele>266.0</ele>
        <time>2018-09-16T06:11:36Z</time>
      </trkpt>
      <trkpt lat="39.3823350" lon="-0.7210730">
        <ele>266.0</ele>
        <time>2018-09-16T06:11:37Z</time>
      </trkpt>
      <trkpt lat="39.3822830" lon="-0.7211520">
        <ele>266.0</ele>
        <time>2018-09-16T06:11:38Z</time>
      </trkpt>
      <trkpt lat="39.3822830" lon="-0.7211520">
        <ele>266.0</ele>
        <time>2018-09-16T06:11:39Z</time>
      </trkpt>
      <trkpt lat="39.3822270" lon="-0.7212180">
        <ele>266.0</ele>
        <time>2018-09-16T06:11:40Z</time>
      </trkpt>
      <trkpt lat="39.3822270" lon="-0.7212180">
        <ele>266.0</ele>
        <time>2018-09-16T06:11:41Z</time>
      </trkpt>
      <trkpt lat="39.3821580" lon="-0.7212550">
        <ele>266.0</ele>
        <time>2018-09-16T06:11:42Z</time>
      </trkpt>
      <trkpt lat="39.3821580" lon="-0.7212550">
        <ele>267.0</ele>
        <time>2018-09-16T06:11:43Z</time>
      </trkpt>
      <trkpt lat="39.3820920" lon="-0.7212870">
        <ele>267.0</ele>
        <time>2018-09-16T06:11:44Z</time>
      </trkpt>
      <trkpt lat="39.3820570" lon="-0.7212980">
        <ele>267.0</ele>
        <time>2018-09-16T06:11:45Z</time>
      </trkpt>
      <trkpt lat="39.3820570" lon="-0.7212980">
        <ele>268.0</ele>
        <time>2018-09-16T06:11:46Z</time>
      </trkpt>
      <trkpt lat="39.3819920" lon="-0.7213150">
        <ele>268.0</ele>
        <time>2018-09-16T06:11:47Z</time>
      </trkpt>
      <trkpt lat="39.3819620" lon="-0.7213270">
        <ele>268.0</ele>
        <time>2018-09-16T06:11:48Z</time>
      </trkpt>
      <trkpt lat="39.3819620" lon="-0.7213270">
        <ele>268.0</ele>
        <time>2018-09-16T06:11:49Z</time>
      </trkpt>
      <trkpt lat="39.3819030" lon="-0.7213570">
        <ele>268.0</ele>
        <time>2018-09-16T06:11:50Z</time>
      </trkpt>
      <trkpt lat="39.3819030" lon="-0.7213570">
        <ele>268.0</ele>
        <time>2018-09-16T06:11:51Z</time>
      </trkpt>
      <trkpt lat="39.3818320" lon="-0.7214000">
        <ele>268.0</ele>
        <time>2018-09-16T06:11:52Z</time>
      </trkpt>
      <trkpt lat="39.3818320" lon="-0.7214000">
        <ele>268.0</ele>
        <time>2018-09-16T06:11:53Z</time>
      </trkpt>
      <trkpt lat="39.3817580" lon="-0.7214580">
        <ele>269.0</ele>
        <time>2018-09-16T06:11:54Z</time>
      </trkpt>
      <trkpt lat="39.3817580" lon="-0.7214580">
        <ele>269.0</ele>
        <time>2018-09-16T06:11:55Z</time>
      </trkpt>
      <trkpt lat="39.3816920" lon="-0.7215280">
        <ele>269.0</ele>
        <time>2018-09-16T06:11:56Z</time>
      </trkpt>
      <trkpt lat="39.3816600" lon="-0.7215650">
        <ele>269.0</ele>
        <time>2018-09-16T06:11:57Z</time>
      </trkpt>
      <trkpt lat="39.3816270" lon="-0.7216020">
        <ele>269.0</ele>
        <time>2018-09-16T06:11:58Z</time>
      </trkpt>
      <trkpt lat="39.3816270" lon="-0.7216020">
        <ele>269.0</ele>
        <time>2018-09-16T06:11:59Z</time>
      </trkpt>
      <trkpt lat="39.3815630" lon="-0.7216680">
        <ele>269.0</ele>
        <time>2018-09-16T06:12:00Z</time>
      </trkpt>
      <trkpt lat="39.3815630" lon="-0.7216680">
        <ele>269.0</ele>
        <time>2018-09-16T06:12:01Z</time>
      </trkpt>
      <trkpt lat="39.3815630" lon="-0.7216680">
        <ele>269.0</ele>
        <time>2018-09-16T06:12:02Z</time>
      </trkpt>
      <trkpt lat="39.3814700" lon="-0.7217600">
        <ele>269.0</ele>
        <time>2018-09-16T06:12:03Z</time>
      </trkpt>
      <trkpt lat="39.3814700" lon="-0.7217600">
        <ele>269.0</ele>
        <time>2018-09-16T06:12:04Z</time>
      </trkpt>
      <trkpt lat="39.3814150" lon="-0.7218100">
        <ele>269.0</ele>
        <time>2018-09-16T06:12:05Z</time>
      </trkpt>
      <trkpt lat="39.3813930" lon="-0.7218320">
        <ele>269.0</ele>
        <time>2018-09-16T06:12:06Z</time>
      </trkpt>
      <trkpt lat="39.3813930" lon="-0.7218320">
        <ele>269.0</ele>
        <time>2018-09-16T06:12:07Z</time>
      </trkpt>
      <trkpt lat="39.3813570" lon="-0.7218950">
        <ele>269.0</ele>
        <time>2018-09-16T06:12:08Z</time>
      </trkpt>
      <trkpt lat="39.3813570" lon="-0.7218950">
        <ele>269.0</ele>
        <time>2018-09-16T06:12:09Z</time>
      </trkpt>
      <trkpt lat="39.3813120" lon="-0.7219850">
        <ele>269.0</ele>
        <time>2018-09-16T06:12:10Z</time>
      </trkpt>
      <trkpt lat="39.3813120" lon="-0.7219850">
        <ele>269.0</ele>
        <time>2018-09-16T06:12:11Z</time>
      </trkpt>
      <trkpt lat="39.3812830" lon="-0.7220950">
        <ele>269.0</ele>
        <time>2018-09-16T06:12:12Z</time>
      </trkpt>
      <trkpt lat="39.3812830" lon="-0.7220950">
        <ele>269.0</ele>
        <time>2018-09-16T06:12:13Z</time>
      </trkpt>
      <trkpt lat="39.3812800" lon="-0.7222170">
        <ele>269.0</ele>
        <time>2018-09-16T06:12:14Z</time>
      </trkpt>
      <trkpt lat="39.3812800" lon="-0.7222170">
        <ele>269.0</ele>
        <time>2018-09-16T06:12:15Z</time>
      </trkpt>
      <trkpt lat="39.3812800" lon="-0.7223480">
        <ele>269.0</ele>
        <time>2018-09-16T06:12:16Z</time>
      </trkpt>
      <trkpt lat="39.3812810" lon="-0.7224200">
        <ele>269.0</ele>
        <time>2018-09-16T06:12:17Z</time>
      </trkpt>
      <trkpt lat="39.3812820" lon="-0.7224930">
        <ele>269.0</ele>
        <time>2018-09-16T06:12:18Z</time>
      </trkpt>
      <trkpt lat="39.3812820" lon="-0.7224930">
        <ele>269.0</ele>
        <time>2018-09-16T06:12:19Z</time>
      </trkpt>
      <trkpt lat="39.3812900" lon="-0.7226380">
        <ele>269.0</ele>
        <time>2018-09-16T06:12:20Z</time>
      </trkpt>
      <trkpt lat="39.3812900" lon="-0.7226380">
        <ele>269.0</ele>
        <time>2018-09-16T06:12:21Z</time>
      </trkpt>
      <trkpt lat="39.3812980" lon="-0.7227870">
        <ele>269.0</ele>
        <time>2018-09-16T06:12:22Z</time>
      </trkpt>
      <trkpt lat="39.3813020" lon="-0.7228520">
        <ele>269.0</ele>
        <time>2018-09-16T06:12:23Z</time>
      </trkpt>
      <trkpt lat="39.3813030" lon="-0.7229130">
        <ele>269.0</ele>
        <time>2018-09-16T06:12:24Z</time>
      </trkpt>
      <trkpt lat="39.3813030" lon="-0.7229130">
        <ele>269.0</ele>
        <time>2018-09-16T06:12:25Z</time>
      </trkpt>
      <trkpt lat="39.3813030" lon="-0.7229130">
        <ele>269.0</ele>
        <time>2018-09-16T06:12:26Z</time>
      </trkpt>
      <trkpt lat="39.3813120" lon="-0.7230450">
        <ele>269.0</ele>
        <time>2018-09-16T06:12:27Z</time>
      </trkpt>
      <trkpt lat="39.3813150" lon="-0.7231830">
        <ele>269.0</ele>
        <time>2018-09-16T06:12:28Z</time>
      </trkpt>
      <trkpt lat="39.3813150" lon="-0.7231830">
        <ele>269.0</ele>
        <time>2018-09-16T06:12:29Z</time>
      </trkpt>
      <trkpt lat="39.3813120" lon="-0.7233120">
        <ele>269.0</ele>
        <time>2018-09-16T06:12:30Z</time>
      </trkpt>
      <trkpt lat="39.3813000" lon="-0.7233720">
        <ele>268.0</ele>
        <time>2018-09-16T06:12:31Z</time>
      </trkpt>
      <trkpt lat="39.3813000" lon="-0.7233720">
        <ele>268.0</ele>
        <time>2018-09-16T06:12:32Z</time>
      </trkpt>
      <trkpt lat="39.3812830" lon="-0.7234970">
        <ele>268.0</ele>
        <time>2018-09-16T06:12:33Z</time>
      </trkpt>
      <trkpt lat="39.3812830" lon="-0.7234970">
        <ele>268.0</ele>
        <time>2018-09-16T06:12:34Z</time>
      </trkpt>
      <trkpt lat="39.3812880" lon="-0.7236300">
        <ele>268.0</ele>
        <time>2018-09-16T06:12:35Z</time>
      </trkpt>
      <trkpt lat="39.3812900" lon="-0.7236970">
        <ele>268.0</ele>
        <time>2018-09-16T06:12:36Z</time>
      </trkpt>
      <trkpt lat="39.3812900" lon="-0.7236970">
        <ele>268.0</ele>
        <time>2018-09-16T06:12:37Z</time>
      </trkpt>
      <trkpt lat="39.3812980" lon="-0.7238300">
        <ele>268.0</ele>
        <time>2018-09-16T06:12:38Z</time>
      </trkpt>
      <trkpt lat="39.3812980" lon="-0.7238300">
        <ele>267.0</ele>
        <time>2018-09-16T06:12:39Z</time>
      </trkpt>
      <trkpt lat="39.3813020" lon="-0.7239720">
        <ele>267.0</ele>
        <time>2018-09-16T06:12:40Z</time>
      </trkpt>
      <trkpt lat="39.3813070" lon="-0.7240380">
        <ele>267.0</ele>
        <time>2018-09-16T06:12:41Z</time>
      </trkpt>
      <trkpt lat="39.3813070" lon="-0.7240380">
        <ele>267.0</ele>
        <time>2018-09-16T06:12:42Z</time>
      </trkpt>
      <trkpt lat="39.3813120" lon="-0.7241700">
        <ele>266.0</ele>
        <time>2018-09-16T06:12:43Z</time>
      </trkpt>
      <trkpt lat="39.3813120" lon="-0.7241700">
        <ele>266.0</ele>
        <time>2018-09-16T06:12:44Z</time>
      </trkpt>
      <trkpt lat="39.3813300" lon="-0.7243030">
        <ele>266.0</ele>
        <time>2018-09-16T06:12:45Z</time>
      </trkpt>
      <trkpt lat="39.3813300" lon="-0.7243030">
        <ele>264.0</ele>
        <time>2018-09-16T06:12:46Z</time>
      </trkpt>
      <trkpt lat="39.3813380" lon="-0.7244180">
        <ele>264.0</ele>
        <time>2018-09-16T06:12:47Z</time>
      </trkpt>
      <trkpt lat="39.3813330" lon="-0.7244770">
        <ele>264.0</ele>
        <time>2018-09-16T06:12:48Z</time>
      </trkpt>
      <trkpt lat="39.3813330" lon="-0.7244770">
        <ele>263.0</ele>
        <time>2018-09-16T06:12:49Z</time>
      </trkpt>
      <trkpt lat="39.3813300" lon="-0.7245600">
        <ele>262.0</ele>
        <time>2018-09-16T06:12:50Z</time>
      </trkpt>
      <trkpt lat="39.3813320" lon="-0.7245800">
        <ele>262.0</ele>
        <time>2018-09-16T06:12:51Z</time>
      </trkpt>
      <trkpt lat="39.3813320" lon="-0.7245800">
        <ele>261.0</ele>
        <time>2018-09-16T06:12:52Z</time>
      </trkpt>
      <trkpt lat="39.3813320" lon="-0.7246150">
        <ele>261.0</ele>
        <time>2018-09-16T06:12:53Z</time>
      </trkpt>
      <trkpt lat="39.3813320" lon="-0.7246150">
        <ele>261.0</ele>
        <time>2018-09-16T06:12:54Z</time>
      </trkpt>
      <trkpt lat="39.3813310" lon="-0.7246470">
        <ele>261.0</ele>
        <time>2018-09-16T06:12:55Z</time>
      </trkpt>
      <trkpt lat="39.3813310" lon="-0.7246580">
        <ele>261.0</ele>
        <time>2018-09-16T06:12:56Z</time>
      </trkpt>
      <trkpt lat="39.3813300" lon="-0.7246680">
        <ele>260.0</ele>
        <time>2018-09-16T06:12:57Z</time>
      </trkpt>
      <trkpt lat="39.3813300" lon="-0.7246900">
        <ele>260.0</ele>
        <time>2018-09-16T06:12:58Z</time>
      </trkpt>
      <trkpt lat="39.3813300" lon="-0.7246900">
        <ele>260.0</ele>
        <time>2018-09-16T06:12:59Z</time>
      </trkpt>
      <trkpt lat="39.3813300" lon="-0.7246900">
        <ele>260.0</ele>
        <time>2018-09-16T06:13:00Z</time>
      </trkpt>
      <trkpt lat="39.3813280" lon="-0.7247030">
        <ele>260.0</ele>
        <time>2018-09-16T06:13:01Z</time>
      </trkpt>
      <trkpt lat="39.3813250" lon="-0.7247180">
        <ele>260.0</ele>
        <time>2018-09-16T06:13:02Z</time>
      </trkpt>
      <trkpt lat="39.3813230" lon="-0.7247270">
        <ele>260.0</ele>
        <time>2018-09-16T06:13:03Z</time>
      </trkpt>
      <trkpt lat="39.3813230" lon="-0.7247270">
        <ele>260.0</ele>
        <time>2018-09-16T06:13:04Z</time>
      </trkpt>
      <trkpt lat="39.3813220" lon="-0.7247420">
        <ele>260.0</ele>
        <time>2018-09-16T06:13:05Z</time>
      </trkpt>
      <trkpt lat="39.3813220" lon="-0.7247420">
        <ele>260.0</ele>
        <time>2018-09-16T06:13:06Z</time>
      </trkpt>
      <trkpt lat="39.3813200" lon="-0.7247520">
        <ele>260.0</ele>
        <time>2018-09-16T06:13:07Z</time>
      </trkpt>
      <trkpt lat="39.3813150" lon="-0.7247720">
        <ele>260.0</ele>
        <time>2018-09-16T06:13:08Z</time>
      </trkpt>
      <trkpt lat="39.3813100" lon="-0.7247870">
        <ele>260.0</ele>
        <time>2018-09-16T06:13:09Z</time>
      </trkpt>
      <trkpt lat="39.3813020" lon="-0.7248020">
        <ele>260.0</ele>
        <time>2018-09-16T06:13:10Z</time>
      </trkpt>
      <trkpt lat="39.3813020" lon="-0.7248020">
        <ele>260.0</ele>
        <time>2018-09-16T06:13:11Z</time>
      </trkpt>
      <trkpt lat="39.3813020" lon="-0.7248020">
        <ele>260.0</ele>
        <time>2018-09-16T06:13:12Z</time>
      </trkpt>
      <trkpt lat="39.3812900" lon="-0.7248280">
        <ele>260.0</ele>
        <time>2018-09-16T06:13:13Z</time>
      </trkpt>
      <trkpt lat="39.3812830" lon="-0.7248600">
        <ele>260.0</ele>
        <time>2018-09-16T06:13:14Z</time>
      </trkpt>
      <trkpt lat="39.3812830" lon="-0.7248600">
        <ele>260.0</ele>
        <time>2018-09-16T06:13:15Z</time>
      </trkpt>
      <trkpt lat="39.3812800" lon="-0.7248970">
        <ele>260.0</ele>
        <time>2018-09-16T06:13:16Z</time>
      </trkpt>
      <trkpt lat="39.3812800" lon="-0.7248970">
        <ele>260.0</ele>
        <time>2018-09-16T06:13:17Z</time>
      </trkpt>
      <trkpt lat="39.3812730" lon="-0.7249520">
        <ele>260.0</ele>
        <time>2018-09-16T06:13:18Z</time>
      </trkpt>
      <trkpt lat="39.3812730" lon="-0.7249520">
        <ele>260.0</ele>
        <time>2018-09-16T06:13:19Z</time>
      </trkpt>
      <trkpt lat="39.3812630" lon="-0.7250150">
        <ele>260.0</ele>
        <time>2018-09-16T06:13:20Z</time>
      </trkpt>
      <trkpt lat="39.3812630" lon="-0.7250150">
        <ele>260.0</ele>
        <time>2018-09-16T06:13:21Z</time>
      </trkpt>
      <trkpt lat="39.3812570" lon="-0.7250800">
        <ele>260.0</ele>
        <time>2018-09-16T06:13:22Z</time>
      </trkpt>
      <trkpt lat="39.3812520" lon="-0.7251130">
        <ele>260.0</ele>
        <time>2018-09-16T06:13:23Z</time>
      </trkpt>
      <trkpt lat="39.3812520" lon="-0.7251130">
        <ele>260.0</ele>
        <time>2018-09-16T06:13:24Z</time>
      </trkpt>
      <trkpt lat="39.3812380" lon="-0.7251750">
        <ele>260.0</ele>
        <time>2018-09-16T06:13:25Z</time>
      </trkpt>
      <trkpt lat="39.3812310" lon="-0.7252030">
        <ele>260.0</ele>
        <time>2018-09-16T06:13:26Z</time>
      </trkpt>
      <trkpt lat="39.3812230" lon="-0.7252300">
        <ele>260.0</ele>
        <time>2018-09-16T06:13:27Z</time>
      </trkpt>
      <trkpt lat="39.3812180" lon="-0.7252570">
        <ele>260.0</ele>
        <time>2018-09-16T06:13:28Z</time>
      </trkpt>
      <trkpt lat="39.3812180" lon="-0.7252570">
        <ele>260.0</ele>
        <time>2018-09-16T06:13:29Z</time>
      </trkpt>
      <trkpt lat="39.3811920" lon="-0.7253030">
        <ele>260.0</ele>
        <time>2018-09-16T06:13:30Z</time>
      </trkpt>
      <trkpt lat="39.3811920" lon="-0.7253030">
        <ele>260.0</ele>
        <time>2018-09-16T06:13:31Z</time>
      </trkpt>
      <trkpt lat="39.3811550" lon="-0.7253530">
        <ele>260.0</ele>
        <time>2018-09-16T06:13:32Z</time>
      </trkpt>
      <trkpt lat="39.3811550" lon="-0.7253530">
        <ele>260.0</ele>
        <time>2018-09-16T06:13:33Z</time>
      </trkpt>
      <trkpt lat="39.3811400" lon="-0.7254330">
        <ele>260.0</ele>
        <time>2018-09-16T06:13:34Z</time>
      </trkpt>
      <trkpt lat="39.3811400" lon="-0.7254330">
        <ele>260.0</ele>
        <time>2018-09-16T06:13:35Z</time>
      </trkpt>
      <trkpt lat="39.3811400" lon="-0.7255220">
        <ele>260.0</ele>
        <time>2018-09-16T06:13:36Z</time>
      </trkpt>
      <trkpt lat="39.3811400" lon="-0.7255220">
        <ele>260.0</ele>
        <time>2018-09-16T06:13:37Z</time>
      </trkpt>
      <trkpt lat="39.3811350" lon="-0.7256300">
        <ele>260.0</ele>
        <time>2018-09-16T06:13:38Z</time>
      </trkpt>
      <trkpt lat="39.3811330" lon="-0.7257000">
        <ele>260.0</ele>
        <time>2018-09-16T06:13:39Z</time>
      </trkpt>
      <trkpt lat="39.3811230" lon="-0.7257700">
        <ele>260.0</ele>
        <time>2018-09-16T06:13:40Z</time>
      </trkpt>
      <trkpt lat="39.3811230" lon="-0.7257700">
        <ele>259.0</ele>
        <time>2018-09-16T06:13:41Z</time>
      </trkpt>
      <trkpt lat="39.3810920" lon="-0.7259100">
        <ele>259.0</ele>
        <time>2018-09-16T06:13:42Z</time>
      </trkpt>
      <trkpt lat="39.3810920" lon="-0.7259100">
        <ele>259.0</ele>
        <time>2018-09-16T06:13:43Z</time>
      </trkpt>
      <trkpt lat="39.3810920" lon="-0.7259100">
        <ele>259.0</ele>
        <time>2018-09-16T06:13:44Z</time>
      </trkpt>
      <trkpt lat="39.3810500" lon="-0.7260470">
        <ele>257.0</ele>
        <time>2018-09-16T06:13:45Z</time>
      </trkpt>
      <trkpt lat="39.3809880" lon="-0.7261680">
        <ele>257.0</ele>
        <time>2018-09-16T06:13:46Z</time>
      </trkpt>
      <trkpt lat="39.3809880" lon="-0.7261680">
        <ele>257.0</ele>
        <time>2018-09-16T06:13:47Z</time>
      </trkpt>
      <trkpt lat="39.3809250" lon="-0.7262870">
        <ele>257.0</ele>
        <time>2018-09-16T06:13:48Z</time>
      </trkpt>
      <trkpt lat="39.3809030" lon="-0.7263470">
        <ele>257.0</ele>
        <time>2018-09-16T06:13:49Z</time>
      </trkpt>
      <trkpt lat="39.3809030" lon="-0.7263470">
        <ele>257.0</ele>
        <time>2018-09-16T06:13:50Z</time>
      </trkpt>
      <trkpt lat="39.3808770" lon="-0.7264620">
        <ele>255.0</ele>
        <time>2018-09-16T06:13:51Z</time>
      </trkpt>
      <trkpt lat="39.3808770" lon="-0.7264620">
        <ele>255.0</ele>
        <time>2018-09-16T06:13:52Z</time>
      </trkpt>
      <trkpt lat="39.3808420" lon="-0.7265670">
        <ele>255.0</ele>
        <time>2018-09-16T06:13:53Z</time>
      </trkpt>
      <trkpt lat="39.3808420" lon="-0.7265670">
        <ele>255.0</ele>
        <time>2018-09-16T06:13:54Z</time>
      </trkpt>
      <trkpt lat="39.3807720" lon="-0.7265870">
        <ele>254.0</ele>
        <time>2018-09-16T06:13:55Z</time>
      </trkpt>
      <trkpt lat="39.3807720" lon="-0.7265870">
        <ele>254.0</ele>
        <time>2018-09-16T06:13:56Z</time>
      </trkpt>
      <trkpt lat="39.3807030" lon="-0.7265300">
        <ele>254.0</ele>
        <time>2018-09-16T06:13:57Z</time>
      </trkpt>
      <trkpt lat="39.3807030" lon="-0.7265300">
        <ele>254.0</ele>
        <time>2018-09-16T06:13:58Z</time>
      </trkpt>
      <trkpt lat="39.3806350" lon="-0.7264550">
        <ele>254.0</ele>
        <time>2018-09-16T06:13:59Z</time>
      </trkpt>
      <trkpt lat="39.3806000" lon="-0.7264200">
        <ele>254.0</ele>
        <time>2018-09-16T06:14:00Z</time>
      </trkpt>
      <trkpt lat="39.3806000" lon="-0.7264200">
        <ele>253.0</ele>
        <time>2018-09-16T06:14:01Z</time>
      </trkpt>
      <trkpt lat="39.3805220" lon="-0.7263600">
        <ele>253.0</ele>
        <time>2018-09-16T06:14:02Z</time>
      </trkpt>
      <trkpt lat="39.3804800" lon="-0.7263330">
        <ele>253.0</ele>
        <time>2018-09-16T06:14:03Z</time>
      </trkpt>
      <trkpt lat="39.3804800" lon="-0.7263330">
        <ele>253.0</ele>
        <time>2018-09-16T06:14:04Z</time>
      </trkpt>
      <trkpt lat="39.3803880" lon="-0.7262880">
        <ele>253.0</ele>
        <time>2018-09-16T06:14:05Z</time>
      </trkpt>
      <trkpt lat="39.3803880" lon="-0.7262880">
        <ele>253.0</ele>
        <time>2018-09-16T06:14:06Z</time>
      </trkpt>
      <trkpt lat="39.3802870" lon="-0.7262520">
        <ele>252.0</ele>
        <time>2018-09-16T06:14:07Z</time>
      </trkpt>
      <trkpt lat="39.3802370" lon="-0.7262320">
        <ele>252.0</ele>
        <time>2018-09-16T06:14:08Z</time>
      </trkpt>
      <trkpt lat="39.3802370" lon="-0.7262320">
        <ele>252.0</ele>
        <time>2018-09-16T06:14:09Z</time>
      </trkpt>
      <trkpt lat="39.3801220" lon="-0.7262280">
        <ele>252.0</ele>
        <time>2018-09-16T06:14:10Z</time>
      </trkpt>
      <trkpt lat="39.3801220" lon="-0.7262280">
        <ele>251.0</ele>
        <time>2018-09-16T06:14:11Z</time>
      </trkpt>
      <trkpt lat="39.3800000" lon="-0.7262950">
        <ele>250.0</ele>
        <time>2018-09-16T06:14:12Z</time>
      </trkpt>
      <trkpt lat="39.3800000" lon="-0.7262950">
        <ele>250.0</ele>
        <time>2018-09-16T06:14:13Z</time>
      </trkpt>
      <trkpt lat="39.3798780" lon="-0.7263450">
        <ele>250.0</ele>
        <time>2018-09-16T06:14:14Z</time>
      </trkpt>
      <trkpt lat="39.3798780" lon="-0.7263450">
        <ele>250.0</ele>
        <time>2018-09-16T06:14:15Z</time>
      </trkpt>
      <trkpt lat="39.3797320" lon="-0.7263530">
        <ele>249.0</ele>
        <time>2018-09-16T06:14:16Z</time>
      </trkpt>
      <trkpt lat="39.3796530" lon="-0.7263650">
        <ele>249.0</ele>
        <time>2018-09-16T06:14:17Z</time>
      </trkpt>
      <trkpt lat="39.3795730" lon="-0.7263820">
        <ele>249.0</ele>
        <time>2018-09-16T06:14:18Z</time>
      </trkpt>
      <trkpt lat="39.3795730" lon="-0.7263820">
        <ele>249.0</ele>
        <time>2018-09-16T06:14:19Z</time>
      </trkpt>
      <trkpt lat="39.3795730" lon="-0.7263820">
        <ele>248.0</ele>
        <time>2018-09-16T06:14:20Z</time>
      </trkpt>
      <trkpt lat="39.3793370" lon="-0.7264570">
        <ele>248.0</ele>
        <time>2018-09-16T06:14:21Z</time>
      </trkpt>
      <trkpt lat="39.3793370" lon="-0.7264570">
        <ele>247.0</ele>
        <time>2018-09-16T06:14:22Z</time>
      </trkpt>
      <trkpt lat="39.3791850" lon="-0.7265050">
        <ele>247.0</ele>
        <time>2018-09-16T06:14:23Z</time>
      </trkpt>
      <trkpt lat="39.3791180" lon="-0.7265300">
        <ele>246.0</ele>
        <time>2018-09-16T06:14:24Z</time>
      </trkpt>
      <trkpt lat="39.3790660" lon="-0.7265890">
        <ele>246.0</ele>
        <time>2018-09-16T06:14:25Z</time>
      </trkpt>
      <trkpt lat="39.3790130" lon="-0.7266480">
        <ele>245.0</ele>
        <time>2018-09-16T06:14:26Z</time>
      </trkpt>
      <trkpt lat="39.3789880" lon="-0.7267320">
        <ele>245.0</ele>
        <time>2018-09-16T06:14:27Z</time>
      </trkpt>
      <trkpt lat="39.3789880" lon="-0.7267320">
        <ele>245.0</ele>
        <time>2018-09-16T06:14:28Z</time>
      </trkpt>
      <trkpt lat="39.3789530" lon="-0.7267980">
        <ele>245.0</ele>
        <time>2018-09-16T06:14:29Z</time>
      </trkpt>
      <trkpt lat="39.3788520" lon="-0.7268900">
        <ele>245.0</ele>
        <time>2018-09-16T06:14:30Z</time>
      </trkpt>
      <trkpt lat="39.3787870" lon="-0.7269170">
        <ele>245.0</ele>
        <time>2018-09-16T06:14:31Z</time>
      </trkpt>
      <trkpt lat="39.3787870" lon="-0.7269170">
        <ele>244.0</ele>
        <time>2018-09-16T06:14:32Z</time>
      </trkpt>
      <trkpt lat="39.3786430" lon="-0.7269570">
        <ele>244.0</ele>
        <time>2018-09-16T06:14:33Z</time>
      </trkpt>
      <trkpt lat="39.3786430" lon="-0.7269570">
        <ele>244.0</ele>
        <time>2018-09-16T06:14:34Z</time>
      </trkpt>
      <trkpt lat="39.3785050" lon="-0.7269830">
        <ele>244.0</ele>
        <time>2018-09-16T06:14:35Z</time>
      </trkpt>
      <trkpt lat="39.3784380" lon="-0.7269950">
        <ele>244.0</ele>
        <time>2018-09-16T06:14:36Z</time>
      </trkpt>
      <trkpt lat="39.3784380" lon="-0.7269950">
        <ele>243.0</ele>
        <time>2018-09-16T06:14:37Z</time>
      </trkpt>
      <trkpt lat="39.3783130" lon="-0.7270100">
        <ele>243.0</ele>
        <time>2018-09-16T06:14:38Z</time>
      </trkpt>
      <trkpt lat="39.3783130" lon="-0.7270100">
        <ele>243.0</ele>
        <time>2018-09-16T06:14:39Z</time>
      </trkpt>
      <trkpt lat="39.3782000" lon="-0.7270280">
        <ele>243.0</ele>
        <time>2018-09-16T06:14:40Z</time>
      </trkpt>
      <trkpt lat="39.3782000" lon="-0.7270280">
        <ele>243.0</ele>
        <time>2018-09-16T06:14:41Z</time>
      </trkpt>
      <trkpt lat="39.3780930" lon="-0.7270370">
        <ele>243.0</ele>
        <time>2018-09-16T06:14:42Z</time>
      </trkpt>
      <trkpt lat="39.3780930" lon="-0.7270370">
        <ele>243.0</ele>
        <time>2018-09-16T06:14:43Z</time>
      </trkpt>
      <trkpt lat="39.3779830" lon="-0.7270170">
        <ele>243.0</ele>
        <time>2018-09-16T06:14:44Z</time>
      </trkpt>
      <trkpt lat="39.3779270" lon="-0.7270000">
        <ele>243.0</ele>
        <time>2018-09-16T06:14:45Z</time>
      </trkpt>
      <trkpt lat="39.3779270" lon="-0.7270000">
        <ele>243.0</ele>
        <time>2018-09-16T06:14:46Z</time>
      </trkpt>
      <trkpt lat="39.3778070" lon="-0.7269830">
        <ele>242.0</ele>
        <time>2018-09-16T06:14:47Z</time>
      </trkpt>
      <trkpt lat="39.3777470" lon="-0.7269780">
        <ele>242.0</ele>
        <time>2018-09-16T06:14:48Z</time>
      </trkpt>
      <trkpt lat="39.3777470" lon="-0.7269780">
        <ele>242.0</ele>
        <time>2018-09-16T06:14:49Z</time>
      </trkpt>
      <trkpt lat="39.3776350" lon="-0.7269650">
        <ele>242.0</ele>
        <time>2018-09-16T06:14:50Z</time>
      </trkpt>
      <trkpt lat="39.3776350" lon="-0.7269650">
        <ele>242.0</ele>
        <time>2018-09-16T06:14:51Z</time>
      </trkpt>
      <trkpt lat="39.3776350" lon="-0.7269650">
        <ele>242.0</ele>
        <time>2018-09-16T06:14:52Z</time>
      </trkpt>
      <trkpt lat="39.3775320" lon="-0.7269530">
        <ele>242.0</ele>
        <time>2018-09-16T06:14:53Z</time>
      </trkpt>
      <trkpt lat="39.3774280" lon="-0.7269420">
        <ele>242.0</ele>
        <time>2018-09-16T06:14:54Z</time>
      </trkpt>
      <trkpt lat="39.3774280" lon="-0.7269420">
        <ele>241.0</ele>
        <time>2018-09-16T06:14:55Z</time>
      </trkpt>
      <trkpt lat="39.3774280" lon="-0.7269420">
        <ele>241.0</ele>
        <time>2018-09-16T06:14:56Z</time>
      </trkpt>
      <trkpt lat="39.3772530" lon="-0.7269420">
        <ele>241.0</ele>
        <time>2018-09-16T06:14:57Z</time>
      </trkpt>
      <trkpt lat="39.3771950" lon="-0.7269520">
        <ele>241.0</ele>
        <time>2018-09-16T06:14:58Z</time>
      </trkpt>
      <trkpt lat="39.3771950" lon="-0.7269520">
        <ele>241.0</ele>
        <time>2018-09-16T06:14:59Z</time>
      </trkpt>
      <trkpt lat="39.3770780" lon="-0.7269620">
        <ele>241.0</ele>
        <time>2018-09-16T06:15:00Z</time>
      </trkpt>
      <trkpt lat="39.3770780" lon="-0.7269620">
        <ele>241.0</ele>
        <time>2018-09-16T06:15:01Z</time>
      </trkpt>
      <trkpt lat="39.3769650" lon="-0.7269450">
        <ele>241.0</ele>
        <time>2018-09-16T06:15:02Z</time>
      </trkpt>
      <trkpt lat="39.3769650" lon="-0.7269450">
        <ele>241.0</ele>
        <time>2018-09-16T06:15:03Z</time>
      </trkpt>
      <trkpt lat="39.3768670" lon="-0.7269100">
        <ele>241.0</ele>
        <time>2018-09-16T06:15:04Z</time>
      </trkpt>
      <trkpt lat="39.3768670" lon="-0.7269100">
        <ele>241.0</ele>
        <time>2018-09-16T06:15:05Z</time>
      </trkpt>
      <trkpt lat="39.3767630" lon="-0.7268730">
        <ele>240.0</ele>
        <time>2018-09-16T06:15:06Z</time>
      </trkpt>
      <trkpt lat="39.3767630" lon="-0.7268730">
        <ele>240.0</ele>
        <time>2018-09-16T06:15:07Z</time>
      </trkpt>
      <trkpt lat="39.3766470" lon="-0.7268250">
        <ele>240.0</ele>
        <time>2018-09-16T06:15:08Z</time>
      </trkpt>
      <trkpt lat="39.3766470" lon="-0.7268250">
        <ele>240.0</ele>
        <time>2018-09-16T06:15:09Z</time>
      </trkpt>
      <trkpt lat="39.3766470" lon="-0.7268250">
        <ele>240.0</ele>
        <time>2018-09-16T06:15:10Z</time>
      </trkpt>
      <trkpt lat="39.3765300" lon="-0.7267800">
        <ele>240.0</ele>
        <time>2018-09-16T06:15:11Z</time>
      </trkpt>
      <trkpt lat="39.3764270" lon="-0.7267820">
        <ele>240.0</ele>
        <time>2018-09-16T06:15:12Z</time>
      </trkpt>
      <trkpt lat="39.3764270" lon="-0.7267820">
        <ele>240.0</ele>
        <time>2018-09-16T06:15:13Z</time>
      </trkpt>
      <trkpt lat="39.3763220" lon="-0.7267870">
        <ele>240.0</ele>
        <time>2018-09-16T06:15:14Z</time>
      </trkpt>
      <trkpt lat="39.3763220" lon="-0.7267870">
        <ele>240.0</ele>
        <time>2018-09-16T06:15:15Z</time>
      </trkpt>
      <trkpt lat="39.3762120" lon="-0.7267670">
        <ele>240.0</ele>
        <time>2018-09-16T06:15:16Z</time>
      </trkpt>
      <trkpt lat="39.3761580" lon="-0.7267520">
        <ele>240.0</ele>
        <time>2018-09-16T06:15:17Z</time>
      </trkpt>
      <trkpt lat="39.3761030" lon="-0.7267370">
        <ele>240.0</ele>
        <time>2018-09-16T06:15:18Z</time>
      </trkpt>
      <trkpt lat="39.3761030" lon="-0.7267370">
        <ele>240.0</ele>
        <time>2018-09-16T06:15:19Z</time>
      </trkpt>
      <trkpt lat="39.3761030" lon="-0.7267370">
        <ele>240.0</ele>
        <time>2018-09-16T06:15:20Z</time>
      </trkpt>
      <trkpt lat="39.3759980" lon="-0.7267150">
        <ele>240.0</ele>
        <time>2018-09-16T06:15:21Z</time>
      </trkpt>
      <trkpt lat="39.3758980" lon="-0.7267120">
        <ele>240.0</ele>
        <time>2018-09-16T06:15:22Z</time>
      </trkpt>
      <trkpt lat="39.3758980" lon="-0.7267120">
        <ele>240.0</ele>
        <time>2018-09-16T06:15:23Z</time>
      </trkpt>
      <trkpt lat="39.3758170" lon="-0.7267100">
        <ele>240.0</ele>
        <time>2018-09-16T06:15:24Z</time>
      </trkpt>
      <trkpt lat="39.3758170" lon="-0.7267100">
        <ele>240.0</ele>
        <time>2018-09-16T06:15:25Z</time>
      </trkpt>
      <trkpt lat="39.3757320" lon="-0.7266930">
        <ele>240.0</ele>
        <time>2018-09-16T06:15:26Z</time>
      </trkpt>
      <trkpt lat="39.3757320" lon="-0.7266930">
        <ele>240.0</ele>
        <time>2018-09-16T06:15:27Z</time>
      </trkpt>
      <trkpt lat="39.3756420" lon="-0.7266720">
        <ele>240.0</ele>
        <time>2018-09-16T06:15:28Z</time>
      </trkpt>
      <trkpt lat="39.3755970" lon="-0.7266670">
        <ele>241.0</ele>
        <time>2018-09-16T06:15:29Z</time>
      </trkpt>
      <trkpt lat="39.3755520" lon="-0.7266620">
        <ele>241.0</ele>
        <time>2018-09-16T06:15:30Z</time>
      </trkpt>
      <trkpt lat="39.3755520" lon="-0.7266620">
        <ele>241.0</ele>
        <time>2018-09-16T06:15:31Z</time>
      </trkpt>
      <trkpt lat="39.3754480" lon="-0.7266500">
        <ele>241.0</ele>
        <time>2018-09-16T06:15:32Z</time>
      </trkpt>
      <trkpt lat="39.3753850" lon="-0.7266420">
        <ele>241.0</ele>
        <time>2018-09-16T06:15:33Z</time>
      </trkpt>
      <trkpt lat="39.3753850" lon="-0.7266420">
        <ele>241.0</ele>
        <time>2018-09-16T06:15:34Z</time>
      </trkpt>
      <trkpt lat="39.3752520" lon="-0.7266500">
        <ele>240.0</ele>
        <time>2018-09-16T06:15:35Z</time>
      </trkpt>
      <trkpt lat="39.3752520" lon="-0.7266500">
        <ele>240.0</ele>
        <time>2018-09-16T06:15:36Z</time>
      </trkpt>
      <trkpt lat="39.3751130" lon="-0.7266970">
        <ele>240.0</ele>
        <time>2018-09-16T06:15:37Z</time>
      </trkpt>
      <trkpt lat="39.3751130" lon="-0.7266970">
        <ele>239.0</ele>
        <time>2018-09-16T06:15:38Z</time>
      </trkpt>
      <trkpt lat="39.3749680" lon="-0.7267280">
        <ele>239.0</ele>
        <time>2018-09-16T06:15:39Z</time>
      </trkpt>
      <trkpt lat="39.3748930" lon="-0.7267250">
        <ele>239.0</ele>
        <time>2018-09-16T06:15:40Z</time>
      </trkpt>
      <trkpt lat="39.3748230" lon="-0.7267080">
        <ele>239.0</ele>
        <time>2018-09-16T06:15:41Z</time>
      </trkpt>
      <trkpt lat="39.3748230" lon="-0.7267080">
        <ele>239.0</ele>
        <time>2018-09-16T06:15:42Z</time>
      </trkpt>
      <trkpt lat="39.3746830" lon="-0.7266600">
        <ele>239.0</ele>
        <time>2018-09-16T06:15:43Z</time>
      </trkpt>
      <trkpt lat="39.3746830" lon="-0.7266600">
        <ele>238.0</ele>
        <time>2018-09-16T06:15:44Z</time>
      </trkpt>
      <trkpt lat="39.3746150" lon="-0.7266330">
        <ele>238.0</ele>
        <time>2018-09-16T06:15:45Z</time>
      </trkpt>
      <trkpt lat="39.3744750" lon="-0.7265700">
        <ele>237.0</ele>
        <time>2018-09-16T06:15:46Z</time>
      </trkpt>
      <trkpt lat="39.3744030" lon="-0.7265350">
        <ele>237.0</ele>
        <time>2018-09-16T06:15:47Z</time>
      </trkpt>
      <trkpt lat="39.3743370" lon="-0.7264920">
        <ele>237.0</ele>
        <time>2018-09-16T06:15:48Z</time>
      </trkpt>
      <trkpt lat="39.3743370" lon="-0.7264920">
        <ele>237.0</ele>
        <time>2018-09-16T06:15:49Z</time>
      </trkpt>
      <trkpt lat="39.3742220" lon="-0.7263830">
        <ele>237.0</ele>
        <time>2018-09-16T06:15:50Z</time>
      </trkpt>
      <trkpt lat="39.3741670" lon="-0.7263330">
        <ele>237.0</ele>
        <time>2018-09-16T06:15:51Z</time>
      </trkpt>
      <trkpt lat="39.3741670" lon="-0.7263330">
        <ele>237.0</ele>
        <time>2018-09-16T06:15:52Z</time>
      </trkpt>
      <trkpt lat="39.3740530" lon="-0.7262600">
        <ele>237.0</ele>
        <time>2018-09-16T06:15:53Z</time>
      </trkpt>
      <trkpt lat="39.3740530" lon="-0.7262600">
        <ele>237.0</ele>
        <time>2018-09-16T06:15:54Z</time>
      </trkpt>
      <trkpt lat="39.3739920" lon="-0.7262270">
        <ele>237.0</ele>
        <time>2018-09-16T06:15:55Z</time>
      </trkpt>
      <trkpt lat="39.3738600" lon="-0.7261650">
        <ele>237.0</ele>
        <time>2018-09-16T06:15:56Z</time>
      </trkpt>
      <trkpt lat="39.3737920" lon="-0.7261320">
        <ele>236.0</ele>
        <time>2018-09-16T06:15:57Z</time>
      </trkpt>
      <trkpt lat="39.3737250" lon="-0.7260970">
        <ele>236.0</ele>
        <time>2018-09-16T06:15:58Z</time>
      </trkpt>
      <trkpt lat="39.3737250" lon="-0.7260970">
        <ele>236.0</ele>
        <time>2018-09-16T06:15:59Z</time>
      </trkpt>
      <trkpt lat="39.3735920" lon="-0.7260070">
        <ele>236.0</ele>
        <time>2018-09-16T06:16:00Z</time>
      </trkpt>
      <trkpt lat="39.3735920" lon="-0.7260070">
        <ele>236.0</ele>
        <time>2018-09-16T06:16:01Z</time>
      </trkpt>
      <trkpt lat="39.3734670" lon="-0.7259130">
        <ele>236.0</ele>
        <time>2018-09-16T06:16:02Z</time>
      </trkpt>
      <trkpt lat="39.3734670" lon="-0.7259130">
        <ele>235.0</ele>
        <time>2018-09-16T06:16:03Z</time>
      </trkpt>
      <trkpt lat="39.3733430" lon="-0.7258300">
        <ele>235.0</ele>
        <time>2018-09-16T06:16:04Z</time>
      </trkpt>
      <trkpt lat="39.3733430" lon="-0.7258300">
        <ele>235.0</ele>
        <time>2018-09-16T06:16:05Z</time>
      </trkpt>
      <trkpt lat="39.3732250" lon="-0.7257330">
        <ele>235.0</ele>
        <time>2018-09-16T06:16:06Z</time>
      </trkpt>
      <trkpt lat="39.3732250" lon="-0.7257330">
        <ele>234.0</ele>
        <time>2018-09-16T06:16:07Z</time>
      </trkpt>
      <trkpt lat="39.3731120" lon="-0.7256180">
        <ele>234.0</ele>
        <time>2018-09-16T06:16:08Z</time>
      </trkpt>
      <trkpt lat="39.3731120" lon="-0.7256180">
        <ele>234.0</ele>
        <time>2018-09-16T06:16:09Z</time>
      </trkpt>
      <trkpt lat="39.3730570" lon="-0.7255550">
        <ele>234.0</ele>
        <time>2018-09-16T06:16:10Z</time>
      </trkpt>
      <trkpt lat="39.3729450" lon="-0.7254450">
        <ele>234.0</ele>
        <time>2018-09-16T06:16:11Z</time>
      </trkpt>
      <trkpt lat="39.3729450" lon="-0.7254450">
        <ele>234.0</ele>
        <time>2018-09-16T06:16:12Z</time>
      </trkpt>
      <trkpt lat="39.3728320" lon="-0.7253820">
        <ele>234.0</ele>
        <time>2018-09-16T06:16:13Z</time>
      </trkpt>
      <trkpt lat="39.3728320" lon="-0.7253820">
        <ele>234.0</ele>
        <time>2018-09-16T06:16:14Z</time>
      </trkpt>
      <trkpt lat="39.3727250" lon="-0.7253820">
        <ele>234.0</ele>
        <time>2018-09-16T06:16:15Z</time>
      </trkpt>
      <trkpt lat="39.3726760" lon="-0.7253850">
        <ele>234.0</ele>
        <time>2018-09-16T06:16:16Z</time>
      </trkpt>
      <trkpt lat="39.3726270" lon="-0.7253880">
        <ele>234.0</ele>
        <time>2018-09-16T06:16:17Z</time>
      </trkpt>
      <trkpt lat="39.3725770" lon="-0.7253780">
        <ele>234.0</ele>
        <time>2018-09-16T06:16:18Z</time>
      </trkpt>
      <trkpt lat="39.3725770" lon="-0.7253780">
        <ele>234.0</ele>
        <time>2018-09-16T06:16:19Z</time>
      </trkpt>
      <trkpt lat="39.3724730" lon="-0.7253520">
        <ele>234.0</ele>
        <time>2018-09-16T06:16:20Z</time>
      </trkpt>
      <trkpt lat="39.3724730" lon="-0.7253520">
        <ele>234.0</ele>
        <time>2018-09-16T06:16:21Z</time>
      </trkpt>
      <trkpt lat="39.3723700" lon="-0.7253180">
        <ele>234.0</ele>
        <time>2018-09-16T06:16:22Z</time>
      </trkpt>
      <trkpt lat="39.3723170" lon="-0.7252980">
        <ele>234.0</ele>
        <time>2018-09-16T06:16:23Z</time>
      </trkpt>
      <trkpt lat="39.3722600" lon="-0.7252780">
        <ele>234.0</ele>
        <time>2018-09-16T06:16:24Z</time>
      </trkpt>
      <trkpt lat="39.3722600" lon="-0.7252780">
        <ele>234.0</ele>
        <time>2018-09-16T06:16:25Z</time>
      </trkpt>
      <trkpt lat="39.3721450" lon="-0.7252330">
        <ele>234.0</ele>
        <time>2018-09-16T06:16:26Z</time>
      </trkpt>
      <trkpt lat="39.3721450" lon="-0.7252330">
        <ele>234.0</ele>
        <time>2018-09-16T06:16:27Z</time>
      </trkpt>
      <trkpt lat="39.3720300" lon="-0.7251920">
        <ele>234.0</ele>
        <time>2018-09-16T06:16:28Z</time>
      </trkpt>
      <trkpt lat="39.3719700" lon="-0.7251720">
        <ele>234.0</ele>
        <time>2018-09-16T06:16:29Z</time>
      </trkpt>
      <trkpt lat="39.3719110" lon="-0.7251570">
        <ele>234.0</ele>
        <time>2018-09-16T06:16:30Z</time>
      </trkpt>
      <trkpt lat="39.3718520" lon="-0.7251430">
        <ele>234.0</ele>
        <time>2018-09-16T06:16:31Z</time>
      </trkpt>
      <trkpt lat="39.3718520" lon="-0.7251430">
        <ele>234.0</ele>
        <time>2018-09-16T06:16:32Z</time>
      </trkpt>
      <trkpt lat="39.3718520" lon="-0.7251430">
        <ele>234.0</ele>
        <time>2018-09-16T06:16:33Z</time>
      </trkpt>
      <trkpt lat="39.3717620" lon="-0.7251420">
        <ele>234.0</ele>
        <time>2018-09-16T06:16:34Z</time>
      </trkpt>
      <trkpt lat="39.3717320" lon="-0.7251670">
        <ele>235.0</ele>
        <time>2018-09-16T06:16:35Z</time>
      </trkpt>
      <trkpt lat="39.3717100" lon="-0.7252100">
        <ele>235.0</ele>
        <time>2018-09-16T06:16:36Z</time>
      </trkpt>
      <trkpt lat="39.3716930" lon="-0.7252620">
        <ele>235.0</ele>
        <time>2018-09-16T06:16:37Z</time>
      </trkpt>
      <trkpt lat="39.3716670" lon="-0.7253780">
        <ele>235.0</ele>
        <time>2018-09-16T06:16:38Z</time>
      </trkpt>
      <trkpt lat="39.3716670" lon="-0.7253780">
        <ele>235.0</ele>
        <time>2018-09-16T06:16:39Z</time>
      </trkpt>
      <trkpt lat="39.3716320" lon="-0.7254950">
        <ele>235.0</ele>
        <time>2018-09-16T06:16:40Z</time>
      </trkpt>
      <trkpt lat="39.3716320" lon="-0.7254950">
        <ele>235.0</ele>
        <time>2018-09-16T06:16:41Z</time>
      </trkpt>
      <trkpt lat="39.3715850" lon="-0.7255970">
        <ele>235.0</ele>
        <time>2018-09-16T06:16:42Z</time>
      </trkpt>
      <trkpt lat="39.3715850" lon="-0.7255970">
        <ele>235.0</ele>
        <time>2018-09-16T06:16:43Z</time>
      </trkpt>
      <trkpt lat="39.3715150" lon="-0.7256770">
        <ele>235.0</ele>
        <time>2018-09-16T06:16:44Z</time>
      </trkpt>
      <trkpt lat="39.3714730" lon="-0.7257010">
        <ele>235.0</ele>
        <time>2018-09-16T06:16:45Z</time>
      </trkpt>
      <trkpt lat="39.3714300" lon="-0.7257250">
        <ele>235.0</ele>
        <time>2018-09-16T06:16:46Z</time>
      </trkpt>
      <trkpt lat="39.3714300" lon="-0.7257250">
        <ele>235.0</ele>
        <time>2018-09-16T06:16:47Z</time>
      </trkpt>
      <trkpt lat="39.3713320" lon="-0.7257020">
        <ele>235.0</ele>
        <time>2018-09-16T06:16:48Z</time>
      </trkpt>
      <trkpt lat="39.3713320" lon="-0.7257020">
        <ele>235.0</ele>
        <time>2018-09-16T06:16:49Z</time>
      </trkpt>
      <trkpt lat="39.3713320" lon="-0.7257020">
        <ele>235.0</ele>
        <time>2018-09-16T06:16:50Z</time>
      </trkpt>
      <trkpt lat="39.3711900" lon="-0.7256350">
        <ele>235.0</ele>
        <time>2018-09-16T06:16:51Z</time>
      </trkpt>
      <trkpt lat="39.3711900" lon="-0.7256350">
        <ele>235.0</ele>
        <time>2018-09-16T06:16:52Z</time>
      </trkpt>
      <trkpt lat="39.3710950" lon="-0.7255950">
        <ele>235.0</ele>
        <time>2018-09-16T06:16:53Z</time>
      </trkpt>
      <trkpt lat="39.3710470" lon="-0.7255750">
        <ele>235.0</ele>
        <time>2018-09-16T06:16:54Z</time>
      </trkpt>
      <trkpt lat="39.3710470" lon="-0.7255750">
        <ele>235.0</ele>
        <time>2018-09-16T06:16:55Z</time>
      </trkpt>
      <trkpt lat="39.3709550" lon="-0.7255350">
        <ele>235.0</ele>
        <time>2018-09-16T06:16:56Z</time>
      </trkpt>
      <trkpt lat="39.3709550" lon="-0.7255350">
        <ele>235.0</ele>
        <time>2018-09-16T06:16:57Z</time>
      </trkpt>
      <trkpt lat="39.3708650" lon="-0.7254870">
        <ele>235.0</ele>
        <time>2018-09-16T06:16:58Z</time>
      </trkpt>
      <trkpt lat="39.3708650" lon="-0.7254870">
        <ele>235.0</ele>
        <time>2018-09-16T06:16:59Z</time>
      </trkpt>
      <trkpt lat="39.3707830" lon="-0.7254230">
        <ele>235.0</ele>
        <time>2018-09-16T06:17:00Z</time>
      </trkpt>
      <trkpt lat="39.3707830" lon="-0.7254230">
        <ele>235.0</ele>
        <time>2018-09-16T06:17:01Z</time>
      </trkpt>
      <trkpt lat="39.3707480" lon="-0.7253080">
        <ele>235.0</ele>
        <time>2018-09-16T06:17:02Z</time>
      </trkpt>
      <trkpt lat="39.3707380" lon="-0.7252450">
        <ele>235.0</ele>
        <time>2018-09-16T06:17:03Z</time>
      </trkpt>
      <trkpt lat="39.3707280" lon="-0.7251820">
        <ele>235.0</ele>
        <time>2018-09-16T06:17:04Z</time>
      </trkpt>
      <trkpt lat="39.3707280" lon="-0.7251820">
        <ele>235.0</ele>
        <time>2018-09-16T06:17:05Z</time>
      </trkpt>
      <trkpt lat="39.3706850" lon="-0.7250770">
        <ele>235.0</ele>
        <time>2018-09-16T06:17:06Z</time>
      </trkpt>
      <trkpt lat="39.3706850" lon="-0.7250770">
        <ele>235.0</ele>
        <time>2018-09-16T06:17:07Z</time>
      </trkpt>
      <trkpt lat="39.3706070" lon="-0.7250270">
        <ele>235.0</ele>
        <time>2018-09-16T06:17:08Z</time>
      </trkpt>
      <trkpt lat="39.3706070" lon="-0.7250270">
        <ele>235.0</ele>
        <time>2018-09-16T06:17:09Z</time>
      </trkpt>
      <trkpt lat="39.3706070" lon="-0.7250270">
        <ele>235.0</ele>
        <time>2018-09-16T06:17:10Z</time>
      </trkpt>
      <trkpt lat="39.3704680" lon="-0.7250450">
        <ele>235.0</ele>
        <time>2018-09-16T06:17:11Z</time>
      </trkpt>
      <trkpt lat="39.3704680" lon="-0.7250450">
        <ele>235.0</ele>
        <time>2018-09-16T06:17:12Z</time>
      </trkpt>
      <trkpt lat="39.3703700" lon="-0.7250920">
        <ele>235.0</ele>
        <time>2018-09-16T06:17:13Z</time>
      </trkpt>
      <trkpt lat="39.3703200" lon="-0.7251170">
        <ele>235.0</ele>
        <time>2018-09-16T06:17:14Z</time>
      </trkpt>
      <trkpt lat="39.3703200" lon="-0.7251170">
        <ele>235.0</ele>
        <time>2018-09-16T06:17:15Z</time>
      </trkpt>
      <trkpt lat="39.3702170" lon="-0.7251650">
        <ele>235.0</ele>
        <time>2018-09-16T06:17:16Z</time>
      </trkpt>
      <trkpt lat="39.3702170" lon="-0.7251650">
        <ele>234.0</ele>
        <time>2018-09-16T06:17:17Z</time>
      </trkpt>
      <trkpt lat="39.3701080" lon="-0.7252120">
        <ele>234.0</ele>
        <time>2018-09-16T06:17:18Z</time>
      </trkpt>
      <trkpt lat="39.3701080" lon="-0.7252120">
        <ele>234.0</ele>
        <time>2018-09-16T06:17:19Z</time>
      </trkpt>
      <trkpt lat="39.3701080" lon="-0.7252120">
        <ele>234.0</ele>
        <time>2018-09-16T06:17:20Z</time>
      </trkpt>
      <trkpt lat="39.3699370" lon="-0.7252920">
        <ele>233.0</ele>
        <time>2018-09-16T06:17:21Z</time>
      </trkpt>
      <trkpt lat="39.3699370" lon="-0.7252920">
        <ele>233.0</ele>
        <time>2018-09-16T06:17:22Z</time>
      </trkpt>
      <trkpt lat="39.3698100" lon="-0.7253330">
        <ele>233.0</ele>
        <time>2018-09-16T06:17:23Z</time>
      </trkpt>
      <trkpt lat="39.3697470" lon="-0.7253430">
        <ele>233.0</ele>
        <time>2018-09-16T06:17:24Z</time>
      </trkpt>
      <trkpt lat="39.3697470" lon="-0.7253430">
        <ele>233.0</ele>
        <time>2018-09-16T06:17:25Z</time>
      </trkpt>
      <trkpt lat="39.3696200" lon="-0.7253670">
        <ele>233.0</ele>
        <time>2018-09-16T06:17:26Z</time>
      </trkpt>
      <trkpt lat="39.3696200" lon="-0.7253670">
        <ele>233.0</ele>
        <time>2018-09-16T06:17:27Z</time>
      </trkpt>
      <trkpt lat="39.3694980" lon="-0.7253680">
        <ele>233.0</ele>
        <time>2018-09-16T06:17:28Z</time>
      </trkpt>
      <trkpt lat="39.3694420" lon="-0.7253430">
        <ele>232.0</ele>
        <time>2018-09-16T06:17:29Z</time>
      </trkpt>
      <trkpt lat="39.3693900" lon="-0.7253230">
        <ele>232.0</ele>
        <time>2018-09-16T06:17:30Z</time>
      </trkpt>
      <trkpt lat="39.3693900" lon="-0.7253230">
        <ele>232.0</ele>
        <time>2018-09-16T06:17:31Z</time>
      </trkpt>
      <trkpt lat="39.3693000" lon="-0.7253270">
        <ele>232.0</ele>
        <time>2018-09-16T06:17:32Z</time>
      </trkpt>
      <trkpt lat="39.3693000" lon="-0.7253270">
        <ele>231.0</ele>
        <time>2018-09-16T06:17:33Z</time>
      </trkpt>
      <trkpt lat="39.3692530" lon="-0.7253180">
        <ele>230.0</ele>
        <time>2018-09-16T06:17:34Z</time>
      </trkpt>
      <trkpt lat="39.3691750" lon="-0.7252300">
        <ele>230.0</ele>
        <time>2018-09-16T06:17:35Z</time>
      </trkpt>
      <trkpt lat="39.3691480" lon="-0.7251650">
        <ele>230.0</ele>
        <time>2018-09-16T06:17:36Z</time>
      </trkpt>
      <trkpt lat="39.3691480" lon="-0.7251650">
        <ele>230.0</ele>
        <time>2018-09-16T06:17:37Z</time>
      </trkpt>
      <trkpt lat="39.3691480" lon="-0.7251650">
        <ele>230.0</ele>
        <time>2018-09-16T06:17:38Z</time>
      </trkpt>
      <trkpt lat="39.3690750" lon="-0.7250630">
        <ele>230.0</ele>
        <time>2018-09-16T06:17:39Z</time>
      </trkpt>
      <trkpt lat="39.3689700" lon="-0.7250030">
        <ele>230.0</ele>
        <time>2018-09-16T06:17:40Z</time>
      </trkpt>
      <trkpt lat="39.3689700" lon="-0.7250030">
        <ele>230.0</ele>
        <time>2018-09-16T06:17:41Z</time>
      </trkpt>
      <trkpt lat="39.3688550" lon="-0.7249800">
        <ele>230.0</ele>
        <time>2018-09-16T06:17:42Z</time>
      </trkpt>
      <trkpt lat="39.3688550" lon="-0.7249800">
        <ele>230.0</ele>
        <time>2018-09-16T06:17:43Z</time>
      </trkpt>
      <trkpt lat="39.3687450" lon="-0.7249700">
        <ele>230.0</ele>
        <time>2018-09-16T06:17:44Z</time>
      </trkpt>
      <trkpt lat="39.3686890" lon="-0.7249570">
        <ele>230.0</ele>
        <time>2018-09-16T06:17:45Z</time>
      </trkpt>
      <trkpt lat="39.3686330" lon="-0.7249450">
        <ele>230.0</ele>
        <time>2018-09-16T06:17:46Z</time>
      </trkpt>
      <trkpt lat="39.3686330" lon="-0.7249450">
        <ele>230.0</ele>
        <time>2018-09-16T06:17:47Z</time>
      </trkpt>
      <trkpt lat="39.3685270" lon="-0.7249070">
        <ele>230.0</ele>
        <time>2018-09-16T06:17:48Z</time>
      </trkpt>
      <trkpt lat="39.3685270" lon="-0.7249070">
        <ele>230.0</ele>
        <time>2018-09-16T06:17:49Z</time>
      </trkpt>
      <trkpt lat="39.3685270" lon="-0.7249070">
        <ele>230.0</ele>
        <time>2018-09-16T06:17:50Z</time>
      </trkpt>
      <trkpt lat="39.3684180" lon="-0.7248530">
        <ele>230.0</ele>
        <time>2018-09-16T06:17:51Z</time>
      </trkpt>
      <trkpt lat="39.3683080" lon="-0.7247730">
        <ele>230.0</ele>
        <time>2018-09-16T06:17:52Z</time>
      </trkpt>
      <trkpt lat="39.3682520" lon="-0.7247270">
        <ele>230.0</ele>
        <time>2018-09-16T06:17:53Z</time>
      </trkpt>
      <trkpt lat="39.3681920" lon="-0.7246770">
        <ele>229.0</ele>
        <time>2018-09-16T06:17:54Z</time>
      </trkpt>
      <trkpt lat="39.3681920" lon="-0.7246770">
        <ele>229.0</ele>
        <time>2018-09-16T06:17:55Z</time>
      </trkpt>
      <trkpt lat="39.3680630" lon="-0.7245680">
        <ele>229.0</ele>
        <time>2018-09-16T06:17:56Z</time>
      </trkpt>
      <trkpt lat="39.3680630" lon="-0.7245680">
        <ele>229.0</ele>
        <time>2018-09-16T06:17:57Z</time>
      </trkpt>
      <trkpt lat="39.3679350" lon="-0.7244480">
        <ele>228.0</ele>
        <time>2018-09-16T06:17:58Z</time>
      </trkpt>
      <trkpt lat="39.3679350" lon="-0.7244480">
        <ele>228.0</ele>
        <time>2018-09-16T06:17:59Z</time>
      </trkpt>
      <trkpt lat="39.3679350" lon="-0.7244480">
        <ele>228.0</ele>
        <time>2018-09-16T06:18:00Z</time>
      </trkpt>
      <trkpt lat="39.3678080" lon="-0.7243300">
        <ele>227.0</ele>
        <time>2018-09-16T06:18:01Z</time>
      </trkpt>
      <trkpt lat="39.3676870" lon="-0.7242230">
        <ele>227.0</ele>
        <time>2018-09-16T06:18:02Z</time>
      </trkpt>
      <trkpt lat="39.3676870" lon="-0.7242230">
        <ele>227.0</ele>
        <time>2018-09-16T06:18:03Z</time>
      </trkpt>
      <trkpt lat="39.3675750" lon="-0.7241180">
        <ele>227.0</ele>
        <time>2018-09-16T06:18:04Z</time>
      </trkpt>
      <trkpt lat="39.3675220" lon="-0.7240700">
        <ele>226.0</ele>
        <time>2018-09-16T06:18:05Z</time>
      </trkpt>
      <trkpt lat="39.3675220" lon="-0.7240700">
        <ele>226.0</ele>
        <time>2018-09-16T06:18:06Z</time>
      </trkpt>
      <trkpt lat="39.3674170" lon="-0.7239780">
        <ele>226.0</ele>
        <time>2018-09-16T06:18:07Z</time>
      </trkpt>
      <trkpt lat="39.3674170" lon="-0.7239780">
        <ele>226.0</ele>
        <time>2018-09-16T06:18:08Z</time>
      </trkpt>
      <trkpt lat="39.3673630" lon="-0.7239370">
        <ele>226.0</ele>
        <time>2018-09-16T06:18:09Z</time>
      </trkpt>
      <trkpt lat="39.3672600" lon="-0.7238500">
        <ele>226.0</ele>
        <time>2018-09-16T06:18:10Z</time>
      </trkpt>
      <trkpt lat="39.3672600" lon="-0.7238500">
        <ele>226.0</ele>
        <time>2018-09-16T06:18:11Z</time>
      </trkpt>
      <trkpt lat="39.3672600" lon="-0.7238500">
        <ele>226.0</ele>
        <time>2018-09-16T06:18:12Z</time>
      </trkpt>
      <trkpt lat="39.3671530" lon="-0.7237600">
        <ele>226.0</ele>
        <time>2018-09-16T06:18:13Z</time>
      </trkpt>
      <trkpt lat="39.3671530" lon="-0.7237600">
        <ele>226.0</ele>
        <time>2018-09-16T06:18:14Z</time>
      </trkpt>
      <trkpt lat="39.3669870" lon="-0.7236380">
        <ele>226.0</ele>
        <time>2018-09-16T06:18:15Z</time>
      </trkpt>
      <trkpt lat="39.3669270" lon="-0.7236100">
        <ele>226.0</ele>
        <time>2018-09-16T06:18:16Z</time>
      </trkpt>
      <trkpt lat="39.3669270" lon="-0.7236100">
        <ele>226.0</ele>
        <time>2018-09-16T06:18:17Z</time>
      </trkpt>
      <trkpt lat="39.3668030" lon="-0.7235770">
        <ele>226.0</ele>
        <time>2018-09-16T06:18:18Z</time>
      </trkpt>
      <trkpt lat="39.3668030" lon="-0.7235770">
        <ele>226.0</ele>
        <time>2018-09-16T06:18:19Z</time>
      </trkpt>
      <trkpt lat="39.3666820" lon="-0.7235470">
        <ele>226.0</ele>
        <time>2018-09-16T06:18:20Z</time>
      </trkpt>
      <trkpt lat="39.3666820" lon="-0.7235470">
        <ele>226.0</ele>
        <time>2018-09-16T06:18:21Z</time>
      </trkpt>
      <trkpt lat="39.3665630" lon="-0.7235080">
        <ele>226.0</ele>
        <time>2018-09-16T06:18:22Z</time>
      </trkpt>
      <trkpt lat="39.3665030" lon="-0.7234880">
        <ele>226.0</ele>
        <time>2018-09-16T06:18:23Z</time>
      </trkpt>
      <trkpt lat="39.3665030" lon="-0.7234880">
        <ele>226.0</ele>
        <time>2018-09-16T06:18:24Z</time>
      </trkpt>
      <trkpt lat="39.3663850" lon="-0.7234470">
        <ele>226.0</ele>
        <time>2018-09-16T06:18:25Z</time>
      </trkpt>
      <trkpt lat="39.3663850" lon="-0.7234470">
        <ele>226.0</ele>
        <time>2018-09-16T06:18:26Z</time>
      </trkpt>
      <trkpt lat="39.3662630" lon="-0.7234000">
        <ele>225.0</ele>
        <time>2018-09-16T06:18:27Z</time>
      </trkpt>
      <trkpt lat="39.3662030" lon="-0.7233680">
        <ele>225.0</ele>
        <time>2018-09-16T06:18:28Z</time>
      </trkpt>
      <trkpt lat="39.3662030" lon="-0.7233680">
        <ele>225.0</ele>
        <time>2018-09-16T06:18:29Z</time>
      </trkpt>
      <trkpt lat="39.3660880" lon="-0.7232880">
        <ele>225.0</ele>
        <time>2018-09-16T06:18:30Z</time>
      </trkpt>
      <trkpt lat="39.3660880" lon="-0.7232880">
        <ele>225.0</ele>
        <time>2018-09-16T06:18:31Z</time>
      </trkpt>
      <trkpt lat="39.3659820" lon="-0.7231830">
        <ele>225.0</ele>
        <time>2018-09-16T06:18:32Z</time>
      </trkpt>
      <trkpt lat="39.3659300" lon="-0.7231270">
        <ele>225.0</ele>
        <time>2018-09-16T06:18:33Z</time>
      </trkpt>
      <trkpt lat="39.3659300" lon="-0.7231270">
        <ele>225.0</ele>
        <time>2018-09-16T06:18:34Z</time>
      </trkpt>
      <trkpt lat="39.3658350" lon="-0.7230020">
        <ele>225.0</ele>
        <time>2018-09-16T06:18:35Z</time>
      </trkpt>
      <trkpt lat="39.3657920" lon="-0.7229350">
        <ele>224.0</ele>
        <time>2018-09-16T06:18:36Z</time>
      </trkpt>
      <trkpt lat="39.3657920" lon="-0.7229350">
        <ele>224.0</ele>
        <time>2018-09-16T06:18:37Z</time>
      </trkpt>
      <trkpt lat="39.3657920" lon="-0.7229350">
        <ele>224.0</ele>
        <time>2018-09-16T06:18:38Z</time>
      </trkpt>
      <trkpt lat="39.3657020" lon="-0.7228000">
        <ele>224.0</ele>
        <time>2018-09-16T06:18:39Z</time>
      </trkpt>
      <trkpt lat="39.3656170" lon="-0.7226550">
        <ele>224.0</ele>
        <time>2018-09-16T06:18:40Z</time>
      </trkpt>
      <trkpt lat="39.3656170" lon="-0.7226550">
        <ele>224.0</ele>
        <time>2018-09-16T06:18:41Z</time>
      </trkpt>
      <trkpt lat="39.3656170" lon="-0.7226550">
        <ele>224.0</ele>
        <time>2018-09-16T06:18:42Z</time>
      </trkpt>
      <trkpt lat="39.3655400" lon="-0.7225080">
        <ele>224.0</ele>
        <time>2018-09-16T06:18:43Z</time>
      </trkpt>
      <trkpt lat="39.3654700" lon="-0.7223530">
        <ele>224.0</ele>
        <time>2018-09-16T06:18:44Z</time>
      </trkpt>
      <trkpt lat="39.3654390" lon="-0.7222730">
        <ele>224.0</ele>
        <time>2018-09-16T06:18:45Z</time>
      </trkpt>
      <trkpt lat="39.3654070" lon="-0.7221930">
        <ele>224.0</ele>
        <time>2018-09-16T06:18:46Z</time>
      </trkpt>
      <trkpt lat="39.3653770" lon="-0.7221120">
        <ele>224.0</ele>
        <time>2018-09-16T06:18:47Z</time>
      </trkpt>
      <trkpt lat="39.3653480" lon="-0.7220270">
        <ele>224.0</ele>
        <time>2018-09-16T06:18:48Z</time>
      </trkpt>
      <trkpt lat="39.3653480" lon="-0.7220270">
        <ele>223.0</ele>
        <time>2018-09-16T06:18:49Z</time>
      </trkpt>
      <trkpt lat="39.3652950" lon="-0.7218550">
        <ele>223.0</ele>
        <time>2018-09-16T06:18:50Z</time>
      </trkpt>
      <trkpt lat="39.3652950" lon="-0.7218550">
        <ele>223.0</ele>
        <time>2018-09-16T06:18:51Z</time>
      </trkpt>
      <trkpt lat="39.3652480" lon="-0.7217020">
        <ele>223.0</ele>
        <time>2018-09-16T06:18:52Z</time>
      </trkpt>
      <trkpt lat="39.3652480" lon="-0.7217020">
        <ele>222.0</ele>
        <time>2018-09-16T06:18:53Z</time>
      </trkpt>
      <trkpt lat="39.3652480" lon="-0.7217020">
        <ele>222.0</ele>
        <time>2018-09-16T06:18:54Z</time>
      </trkpt>
      <trkpt lat="39.3652170" lon="-0.7216320">
        <ele>221.0</ele>
        <time>2018-09-16T06:18:55Z</time>
      </trkpt>
      <trkpt lat="39.3651820" lon="-0.7216280">
        <ele>221.0</ele>
        <time>2018-09-16T06:18:56Z</time>
      </trkpt>
      <trkpt lat="39.3651820" lon="-0.7216280">
        <ele>221.0</ele>
        <time>2018-09-16T06:18:57Z</time>
      </trkpt>
      <trkpt lat="39.3651660" lon="-0.7216410">
        <ele>221.0</ele>
        <time>2018-09-16T06:18:58Z</time>
      </trkpt>
      <trkpt lat="39.3651630" lon="-0.7216470">
        <ele>221.0</ele>
        <time>2018-09-16T06:19:18Z</time>
      </trkpt>
      <trkpt lat="39.3651590" lon="-0.7216530">
        <ele>221.0</ele>
        <time>2018-09-16T06:19:19Z</time>
      </trkpt>
      <trkpt lat="39.3651560" lon="-0.7216590">
        <ele>219.0</ele>
        <time>2018-09-16T06:19:20Z</time>
      </trkpt>
      <trkpt lat="39.3651520" lon="-0.7216650">
        <ele>219.0</ele>
        <time>2018-09-16T06:19:21Z</time>
      </trkpt>
      <trkpt lat="39.3651490" lon="-0.7216710">
        <ele>219.0</ele>
        <time>2018-09-16T06:19:22Z</time>
      </trkpt>
      <trkpt lat="39.3651450" lon="-0.7216770">
        <ele>219.0</ele>
        <time>2018-09-16T06:19:23Z</time>
      </trkpt>
      <trkpt lat="39.3651450" lon="-0.7216770">
        <ele>220.0</ele>
        <time>2018-09-16T06:19:24Z</time>
      </trkpt>
      <trkpt lat="39.3651250" lon="-0.7217350">
        <ele>220.0</ele>
        <time>2018-09-16T06:19:25Z</time>
      </trkpt>
      <trkpt lat="39.3651250" lon="-0.7217350">
        <ele>220.0</ele>
        <time>2018-09-16T06:19:26Z</time>
      </trkpt>
      <trkpt lat="39.3651020" lon="-0.7218070">
        <ele>220.0</ele>
        <time>2018-09-16T06:19:27Z</time>
      </trkpt>
      <trkpt lat="39.3650900" lon="-0.7218480">
        <ele>220.0</ele>
        <time>2018-09-16T06:19:28Z</time>
      </trkpt>
      <trkpt lat="39.3650900" lon="-0.7218480">
        <ele>220.0</ele>
        <time>2018-09-16T06:19:29Z</time>
      </trkpt>
      <trkpt lat="39.3650600" lon="-0.7219420">
        <ele>220.0</ele>
        <time>2018-09-16T06:19:30Z</time>
      </trkpt>
      <trkpt lat="39.3650600" lon="-0.7219420">
        <ele>220.0</ele>
        <time>2018-09-16T06:19:31Z</time>
      </trkpt>
      <trkpt lat="39.3650180" lon="-0.7220480">
        <ele>220.0</ele>
        <time>2018-09-16T06:19:32Z</time>
      </trkpt>
      <trkpt lat="39.3649950" lon="-0.7221080">
        <ele>220.0</ele>
        <time>2018-09-16T06:19:33Z</time>
      </trkpt>
      <trkpt lat="39.3649950" lon="-0.7221080">
        <ele>220.0</ele>
        <time>2018-09-16T06:19:34Z</time>
      </trkpt>
      <trkpt lat="39.3649430" lon="-0.7222280">
        <ele>220.0</ele>
        <time>2018-09-16T06:19:35Z</time>
      </trkpt>
      <trkpt lat="39.3649130" lon="-0.7222920">
        <ele>220.0</ele>
        <time>2018-09-16T06:19:36Z</time>
      </trkpt>
      <trkpt lat="39.3649130" lon="-0.7222920">
        <ele>219.0</ele>
        <time>2018-09-16T06:19:37Z</time>
      </trkpt>
      <trkpt lat="39.3648470" lon="-0.7224230">
        <ele>219.0</ele>
        <time>2018-09-16T06:19:38Z</time>
      </trkpt>
      <trkpt lat="39.3648470" lon="-0.7224230">
        <ele>219.0</ele>
        <time>2018-09-16T06:19:39Z</time>
      </trkpt>
      <trkpt lat="39.3647720" lon="-0.7225550">
        <ele>219.0</ele>
        <time>2018-09-16T06:19:40Z</time>
      </trkpt>
      <trkpt lat="39.3647720" lon="-0.7225550">
        <ele>219.0</ele>
        <time>2018-09-16T06:19:41Z</time>
      </trkpt>
      <trkpt lat="39.3646950" lon="-0.7226850">
        <ele>219.0</ele>
        <time>2018-09-16T06:19:42Z</time>
      </trkpt>
      <trkpt lat="39.3646600" lon="-0.7227480">
        <ele>218.0</ele>
        <time>2018-09-16T06:19:43Z</time>
      </trkpt>
      <trkpt lat="39.3646600" lon="-0.7227480">
        <ele>218.0</ele>
        <time>2018-09-16T06:19:44Z</time>
      </trkpt>
      <trkpt lat="39.3645830" lon="-0.7228680">
        <ele>218.0</ele>
        <time>2018-09-16T06:19:45Z</time>
      </trkpt>
      <trkpt lat="39.3645380" lon="-0.7229250">
        <ele>218.0</ele>
        <time>2018-09-16T06:19:46Z</time>
      </trkpt>
      <trkpt lat="39.3645380" lon="-0.7229250">
        <ele>218.0</ele>
        <time>2018-09-16T06:19:47Z</time>
      </trkpt>
      <trkpt lat="39.3644330" lon="-0.7230180">
        <ele>218.0</ele>
        <time>2018-09-16T06:19:48Z</time>
      </trkpt>
      <trkpt lat="39.3644330" lon="-0.7230180">
        <ele>218.0</ele>
        <time>2018-09-16T06:19:49Z</time>
      </trkpt>
      <trkpt lat="39.3643150" lon="-0.7230900">
        <ele>218.0</ele>
        <time>2018-09-16T06:19:50Z</time>
      </trkpt>
      <trkpt lat="39.3642620" lon="-0.7231250">
        <ele>218.0</ele>
        <time>2018-09-16T06:19:51Z</time>
      </trkpt>
      <trkpt lat="39.3642620" lon="-0.7231250">
        <ele>218.0</ele>
        <time>2018-09-16T06:19:52Z</time>
      </trkpt>
      <trkpt lat="39.3641600" lon="-0.7231970">
        <ele>218.0</ele>
        <time>2018-09-16T06:19:53Z</time>
      </trkpt>
      <trkpt lat="39.3641130" lon="-0.7232330">
        <ele>218.0</ele>
        <time>2018-09-16T06:19:54Z</time>
      </trkpt>
      <trkpt lat="39.3641130" lon="-0.7232330">
        <ele>218.0</ele>
        <time>2018-09-16T06:19:55Z</time>
      </trkpt>
      <trkpt lat="39.3640200" lon="-0.7233000">
        <ele>218.0</ele>
        <time>2018-09-16T06:19:56Z</time>
      </trkpt>
      <trkpt lat="39.3640200" lon="-0.7233000">
        <ele>218.0</ele>
        <time>2018-09-16T06:19:57Z</time>
      </trkpt>
      <trkpt lat="39.3639380" lon="-0.7233680">
        <ele>219.0</ele>
        <time>2018-09-16T06:19:58Z</time>
      </trkpt>
      <trkpt lat="39.3639380" lon="-0.7233680">
        <ele>219.0</ele>
        <time>2018-09-16T06:19:59Z</time>
      </trkpt>
      <trkpt lat="39.3638670" lon="-0.7234530">
        <ele>219.0</ele>
        <time>2018-09-16T06:20:00Z</time>
      </trkpt>
      <trkpt lat="39.3638670" lon="-0.7234530">
        <ele>219.0</ele>
        <time>2018-09-16T06:20:01Z</time>
      </trkpt>
      <trkpt lat="39.3638020" lon="-0.7235450">
        <ele>220.0</ele>
        <time>2018-09-16T06:20:02Z</time>
      </trkpt>
      <trkpt lat="39.3638020" lon="-0.7235450">
        <ele>220.0</ele>
        <time>2018-09-16T06:20:03Z</time>
      </trkpt>
      <trkpt lat="39.3637430" lon="-0.7236480">
        <ele>220.0</ele>
        <time>2018-09-16T06:20:04Z</time>
      </trkpt>
      <trkpt lat="39.3637430" lon="-0.7236480">
        <ele>220.0</ele>
        <time>2018-09-16T06:20:05Z</time>
      </trkpt>
      <trkpt lat="39.3636880" lon="-0.7237550">
        <ele>220.0</ele>
        <time>2018-09-16T06:20:06Z</time>
      </trkpt>
      <trkpt lat="39.3636880" lon="-0.7237550">
        <ele>220.0</ele>
        <time>2018-09-16T06:20:07Z</time>
      </trkpt>
      <trkpt lat="39.3636320" lon="-0.7238580">
        <ele>220.0</ele>
        <time>2018-09-16T06:20:08Z</time>
      </trkpt>
      <trkpt lat="39.3636320" lon="-0.7238580">
        <ele>220.0</ele>
        <time>2018-09-16T06:20:09Z</time>
      </trkpt>
      <trkpt lat="39.3635680" lon="-0.7239580">
        <ele>220.0</ele>
        <time>2018-09-16T06:20:10Z</time>
      </trkpt>
      <trkpt lat="39.3635680" lon="-0.7239580">
        <ele>220.0</ele>
        <time>2018-09-16T06:20:11Z</time>
      </trkpt>
      <trkpt lat="39.3635020" lon="-0.7240600">
        <ele>220.0</ele>
        <time>2018-09-16T06:20:12Z</time>
      </trkpt>
      <trkpt lat="39.3635020" lon="-0.7240600">
        <ele>220.0</ele>
        <time>2018-09-16T06:20:13Z</time>
      </trkpt>
      <trkpt lat="39.3634280" lon="-0.7241520">
        <ele>220.0</ele>
        <time>2018-09-16T06:20:14Z</time>
      </trkpt>
      <trkpt lat="39.3633880" lon="-0.7241970">
        <ele>220.0</ele>
        <time>2018-09-16T06:20:15Z</time>
      </trkpt>
      <trkpt lat="39.3633450" lon="-0.7242400">
        <ele>220.0</ele>
        <time>2018-09-16T06:20:16Z</time>
      </trkpt>
      <trkpt lat="39.3633450" lon="-0.7242400">
        <ele>220.0</ele>
        <time>2018-09-16T06:20:17Z</time>
      </trkpt>
      <trkpt lat="39.3632600" lon="-0.7243330">
        <ele>220.0</ele>
        <time>2018-09-16T06:20:18Z</time>
      </trkpt>
      <trkpt lat="39.3632600" lon="-0.7243330">
        <ele>220.0</ele>
        <time>2018-09-16T06:20:19Z</time>
      </trkpt>
      <trkpt lat="39.3631700" lon="-0.7244270">
        <ele>220.0</ele>
        <time>2018-09-16T06:20:20Z</time>
      </trkpt>
      <trkpt lat="39.3631700" lon="-0.7244270">
        <ele>219.0</ele>
        <time>2018-09-16T06:20:21Z</time>
      </trkpt>
      <trkpt lat="39.3630780" lon="-0.7245200">
        <ele>219.0</ele>
        <time>2018-09-16T06:20:22Z</time>
      </trkpt>
      <trkpt lat="39.3630330" lon="-0.7245700">
        <ele>219.0</ele>
        <time>2018-09-16T06:20:23Z</time>
      </trkpt>
      <trkpt lat="39.3629870" lon="-0.7246200">
        <ele>219.0</ele>
        <time>2018-09-16T06:20:24Z</time>
      </trkpt>
      <trkpt lat="39.3629870" lon="-0.7246200">
        <ele>218.0</ele>
        <time>2018-09-16T06:20:25Z</time>
      </trkpt>
      <trkpt lat="39.3628900" lon="-0.7247220">
        <ele>218.0</ele>
        <time>2018-09-16T06:20:26Z</time>
      </trkpt>
      <trkpt lat="39.3628400" lon="-0.7247730">
        <ele>218.0</ele>
        <time>2018-09-16T06:20:27Z</time>
      </trkpt>
      <trkpt lat="39.3627930" lon="-0.7248270">
        <ele>218.0</ele>
        <time>2018-09-16T06:20:28Z</time>
      </trkpt>
      <trkpt lat="39.3627930" lon="-0.7248270">
        <ele>217.0</ele>
        <time>2018-09-16T06:20:29Z</time>
      </trkpt>
      <trkpt lat="39.3627020" lon="-0.7249430">
        <ele>217.0</ele>
        <time>2018-09-16T06:20:30Z</time>
      </trkpt>
      <trkpt lat="39.3627020" lon="-0.7249430">
        <ele>217.0</ele>
        <time>2018-09-16T06:20:31Z</time>
      </trkpt>
      <trkpt lat="39.3626100" lon="-0.7250670">
        <ele>217.0</ele>
        <time>2018-09-16T06:20:32Z</time>
      </trkpt>
      <trkpt lat="39.3625650" lon="-0.7251270">
        <ele>217.0</ele>
        <time>2018-09-16T06:20:33Z</time>
      </trkpt>
      <trkpt lat="39.3625650" lon="-0.7251270">
        <ele>217.0</ele>
        <time>2018-09-16T06:20:34Z</time>
      </trkpt>
      <trkpt lat="39.3624780" lon="-0.7252430">
        <ele>217.0</ele>
        <time>2018-09-16T06:20:35Z</time>
      </trkpt>
      <trkpt lat="39.3624780" lon="-0.7252430">
        <ele>217.0</ele>
        <time>2018-09-16T06:20:36Z</time>
      </trkpt>
      <trkpt lat="39.3623900" lon="-0.7253620">
        <ele>216.0</ele>
        <time>2018-09-16T06:20:37Z</time>
      </trkpt>
      <trkpt lat="39.3623900" lon="-0.7253620">
        <ele>216.0</ele>
        <time>2018-09-16T06:20:38Z</time>
      </trkpt>
      <trkpt lat="39.3623000" lon="-0.7254720">
        <ele>216.0</ele>
        <time>2018-09-16T06:20:39Z</time>
      </trkpt>
      <trkpt lat="39.3622530" lon="-0.7255270">
        <ele>216.0</ele>
        <time>2018-09-16T06:20:40Z</time>
      </trkpt>
      <trkpt lat="39.3622030" lon="-0.7255820">
        <ele>216.0</ele>
        <time>2018-09-16T06:20:41Z</time>
      </trkpt>
      <trkpt lat="39.3621520" lon="-0.7256330">
        <ele>216.0</ele>
        <time>2018-09-16T06:20:42Z</time>
      </trkpt>
      <trkpt lat="39.3621520" lon="-0.7256330">
        <ele>216.0</ele>
        <time>2018-09-16T06:20:43Z</time>
      </trkpt>
      <trkpt lat="39.3620500" lon="-0.7257330">
        <ele>216.0</ele>
        <time>2018-09-16T06:20:44Z</time>
      </trkpt>
      <trkpt lat="39.3620500" lon="-0.7257330">
        <ele>215.0</ele>
        <time>2018-09-16T06:20:45Z</time>
      </trkpt>
      <trkpt lat="39.3619550" lon="-0.7258350">
        <ele>215.0</ele>
        <time>2018-09-16T06:20:46Z</time>
      </trkpt>
      <trkpt lat="39.3619550" lon="-0.7258350">
        <ele>215.0</ele>
        <time>2018-09-16T06:20:47Z</time>
      </trkpt>
      <trkpt lat="39.3618650" lon="-0.7259300">
        <ele>215.0</ele>
        <time>2018-09-16T06:20:48Z</time>
      </trkpt>
      <trkpt lat="39.3618650" lon="-0.7259300">
        <ele>215.0</ele>
        <time>2018-09-16T06:20:49Z</time>
      </trkpt>
      <trkpt lat="39.3617730" lon="-0.7260220">
        <ele>214.0</ele>
        <time>2018-09-16T06:20:50Z</time>
      </trkpt>
      <trkpt lat="39.3617730" lon="-0.7260220">
        <ele>214.0</ele>
        <time>2018-09-16T06:20:51Z</time>
      </trkpt>
      <trkpt lat="39.3616820" lon="-0.7261080">
        <ele>214.0</ele>
        <time>2018-09-16T06:20:52Z</time>
      </trkpt>
      <trkpt lat="39.3616350" lon="-0.7261500">
        <ele>214.0</ele>
        <time>2018-09-16T06:20:53Z</time>
      </trkpt>
      <trkpt lat="39.3616350" lon="-0.7261500">
        <ele>214.0</ele>
        <time>2018-09-16T06:20:54Z</time>
      </trkpt>
      <trkpt lat="39.3615450" lon="-0.7262300">
        <ele>214.0</ele>
        <time>2018-09-16T06:20:55Z</time>
      </trkpt>
      <trkpt lat="39.3615450" lon="-0.7262300">
        <ele>214.0</ele>
        <time>2018-09-16T06:20:56Z</time>
      </trkpt>
      <trkpt lat="39.3614570" lon="-0.7263030">
        <ele>214.0</ele>
        <time>2018-09-16T06:20:57Z</time>
      </trkpt>
      <trkpt lat="39.3614120" lon="-0.7263380">
        <ele>214.0</ele>
        <time>2018-09-16T06:20:58Z</time>
      </trkpt>
      <trkpt lat="39.3614120" lon="-0.7263380">
        <ele>214.0</ele>
        <time>2018-09-16T06:20:59Z</time>
      </trkpt>
      <trkpt lat="39.3613270" lon="-0.7264100">
        <ele>214.0</ele>
        <time>2018-09-16T06:21:00Z</time>
      </trkpt>
      <trkpt lat="39.3613270" lon="-0.7264100">
        <ele>214.0</ele>
        <time>2018-09-16T06:21:01Z</time>
      </trkpt>
      <trkpt lat="39.3612420" lon="-0.7264780">
        <ele>214.0</ele>
        <time>2018-09-16T06:21:02Z</time>
      </trkpt>
      <trkpt lat="39.3611980" lon="-0.7265100">
        <ele>214.0</ele>
        <time>2018-09-16T06:21:03Z</time>
      </trkpt>
      <trkpt lat="39.3611980" lon="-0.7265100">
        <ele>214.0</ele>
        <time>2018-09-16T06:21:04Z</time>
      </trkpt>
      <trkpt lat="39.3611100" lon="-0.7265770">
        <ele>214.0</ele>
        <time>2018-09-16T06:21:05Z</time>
      </trkpt>
      <trkpt lat="39.3611100" lon="-0.7265770">
        <ele>213.0</ele>
        <time>2018-09-16T06:21:06Z</time>
      </trkpt>
      <trkpt lat="39.3610230" lon="-0.7266430">
        <ele>213.0</ele>
        <time>2018-09-16T06:21:07Z</time>
      </trkpt>
      <trkpt lat="39.3610230" lon="-0.7266430">
        <ele>213.0</ele>
        <time>2018-09-16T06:21:08Z</time>
      </trkpt>
      <trkpt lat="39.3609400" lon="-0.7267120">
        <ele>213.0</ele>
        <time>2018-09-16T06:21:09Z</time>
      </trkpt>
      <trkpt lat="39.3608970" lon="-0.7267450">
        <ele>213.0</ele>
        <time>2018-09-16T06:21:10Z</time>
      </trkpt>
      <trkpt lat="39.3608970" lon="-0.7267450">
        <ele>213.0</ele>
        <time>2018-09-16T06:21:11Z</time>
      </trkpt>
      <trkpt lat="39.3608150" lon="-0.7268070">
        <ele>213.0</ele>
        <time>2018-09-16T06:21:12Z</time>
      </trkpt>
      <trkpt lat="39.3608150" lon="-0.7268070">
        <ele>213.0</ele>
        <time>2018-09-16T06:21:13Z</time>
      </trkpt>
      <trkpt lat="39.3607370" lon="-0.7268720">
        <ele>213.0</ele>
        <time>2018-09-16T06:21:14Z</time>
      </trkpt>
      <trkpt lat="39.3606950" lon="-0.7269030">
        <ele>213.0</ele>
        <time>2018-09-16T06:21:15Z</time>
      </trkpt>
      <trkpt lat="39.3606950" lon="-0.7269030">
        <ele>213.0</ele>
        <time>2018-09-16T06:21:16Z</time>
      </trkpt>
      <trkpt lat="39.3606150" lon="-0.7269620">
        <ele>213.0</ele>
        <time>2018-09-16T06:21:17Z</time>
      </trkpt>
      <trkpt lat="39.3605770" lon="-0.7269930">
        <ele>213.0</ele>
        <time>2018-09-16T06:21:18Z</time>
      </trkpt>
      <trkpt lat="39.3605770" lon="-0.7269930">
        <ele>213.0</ele>
        <time>2018-09-16T06:21:19Z</time>
      </trkpt>
      <trkpt lat="39.3605050" lon="-0.7270520">
        <ele>213.0</ele>
        <time>2018-09-16T06:21:20Z</time>
      </trkpt>
      <trkpt lat="39.3604670" lon="-0.7270800">
        <ele>213.0</ele>
        <time>2018-09-16T06:21:21Z</time>
      </trkpt>
      <trkpt lat="39.3604670" lon="-0.7270800">
        <ele>213.0</ele>
        <time>2018-09-16T06:21:22Z</time>
      </trkpt>
      <trkpt lat="39.3603900" lon="-0.7271400">
        <ele>213.0</ele>
        <time>2018-09-16T06:21:23Z</time>
      </trkpt>
      <trkpt lat="39.3603500" lon="-0.7271720">
        <ele>213.0</ele>
        <time>2018-09-16T06:21:24Z</time>
      </trkpt>
      <trkpt lat="39.3603500" lon="-0.7271720">
        <ele>213.0</ele>
        <time>2018-09-16T06:21:25Z</time>
      </trkpt>
      <trkpt lat="39.3602650" lon="-0.7272350">
        <ele>213.0</ele>
        <time>2018-09-16T06:21:26Z</time>
      </trkpt>
      <trkpt lat="39.3602200" lon="-0.7272680">
        <ele>213.0</ele>
        <time>2018-09-16T06:21:27Z</time>
      </trkpt>
      <trkpt lat="39.3602200" lon="-0.7272680">
        <ele>213.0</ele>
        <time>2018-09-16T06:21:28Z</time>
      </trkpt>
      <trkpt lat="39.3601270" lon="-0.7273400">
        <ele>213.0</ele>
        <time>2018-09-16T06:21:29Z</time>
      </trkpt>
      <trkpt lat="39.3600780" lon="-0.7273800">
        <ele>213.0</ele>
        <time>2018-09-16T06:21:30Z</time>
      </trkpt>
      <trkpt lat="39.3600780" lon="-0.7273800">
        <ele>213.0</ele>
        <time>2018-09-16T06:21:31Z</time>
      </trkpt>
      <trkpt lat="39.3599830" lon="-0.7274620">
        <ele>213.0</ele>
        <time>2018-09-16T06:21:32Z</time>
      </trkpt>
      <trkpt lat="39.3599830" lon="-0.7274620">
        <ele>213.0</ele>
        <time>2018-09-16T06:21:33Z</time>
      </trkpt>
      <trkpt lat="39.3598920" lon="-0.7275570">
        <ele>213.0</ele>
        <time>2018-09-16T06:21:34Z</time>
      </trkpt>
      <trkpt lat="39.3598500" lon="-0.7276130">
        <ele>213.0</ele>
        <time>2018-09-16T06:21:35Z</time>
      </trkpt>
      <trkpt lat="39.3598130" lon="-0.7276750">
        <ele>213.0</ele>
        <time>2018-09-16T06:21:36Z</time>
      </trkpt>
      <trkpt lat="39.3598130" lon="-0.7276750">
        <ele>213.0</ele>
        <time>2018-09-16T06:21:37Z</time>
      </trkpt>
      <trkpt lat="39.3597680" lon="-0.7278230">
        <ele>212.0</ele>
        <time>2018-09-16T06:21:38Z</time>
      </trkpt>
      <trkpt lat="39.3597570" lon="-0.7279020">
        <ele>212.0</ele>
        <time>2018-09-16T06:21:39Z</time>
      </trkpt>
      <trkpt lat="39.3597450" lon="-0.7279800">
        <ele>212.0</ele>
        <time>2018-09-16T06:21:40Z</time>
      </trkpt>
      <trkpt lat="39.3597450" lon="-0.7279800">
        <ele>212.0</ele>
        <time>2018-09-16T06:21:41Z</time>
      </trkpt>
      <trkpt lat="39.3597220" lon="-0.7281380">
        <ele>212.0</ele>
        <time>2018-09-16T06:21:42Z</time>
      </trkpt>
      <trkpt lat="39.3597220" lon="-0.7281380">
        <ele>212.0</ele>
        <time>2018-09-16T06:21:43Z</time>
      </trkpt>
      <trkpt lat="39.3596850" lon="-0.7282950">
        <ele>211.0</ele>
        <time>2018-09-16T06:21:44Z</time>
      </trkpt>
      <trkpt lat="39.3596530" lon="-0.7283680">
        <ele>211.0</ele>
        <time>2018-09-16T06:21:45Z</time>
      </trkpt>
      <trkpt lat="39.3596530" lon="-0.7283680">
        <ele>211.0</ele>
        <time>2018-09-16T06:21:46Z</time>
      </trkpt>
      <trkpt lat="39.3595480" lon="-0.7284250">
        <ele>210.0</ele>
        <time>2018-09-16T06:21:47Z</time>
      </trkpt>
      <trkpt lat="39.3594830" lon="-0.7283920">
        <ele>210.0</ele>
        <time>2018-09-16T06:21:48Z</time>
      </trkpt>
      <trkpt lat="39.3594830" lon="-0.7283920">
        <ele>209.0</ele>
        <time>2018-09-16T06:21:49Z</time>
      </trkpt>
      <trkpt lat="39.3593500" lon="-0.7282780">
        <ele>209.0</ele>
        <time>2018-09-16T06:21:50Z</time>
      </trkpt>
      <trkpt lat="39.3592770" lon="-0.7282270">
        <ele>209.0</ele>
        <time>2018-09-16T06:21:51Z</time>
      </trkpt>
      <trkpt lat="39.3592770" lon="-0.7282270">
        <ele>209.0</ele>
        <time>2018-09-16T06:21:52Z</time>
      </trkpt>
      <trkpt lat="39.3591170" lon="-0.7281380">
        <ele>207.0</ele>
        <time>2018-09-16T06:21:53Z</time>
      </trkpt>
      <trkpt lat="39.3590420" lon="-0.7280770">
        <ele>207.0</ele>
        <time>2018-09-16T06:21:54Z</time>
      </trkpt>
      <trkpt lat="39.3590420" lon="-0.7280770">
        <ele>206.0</ele>
        <time>2018-09-16T06:21:55Z</time>
      </trkpt>
      <trkpt lat="39.3589180" lon="-0.7279220">
        <ele>206.0</ele>
        <time>2018-09-16T06:21:56Z</time>
      </trkpt>
      <trkpt lat="39.3589180" lon="-0.7279220">
        <ele>205.0</ele>
        <time>2018-09-16T06:21:57Z</time>
      </trkpt>
      <trkpt lat="39.3588150" lon="-0.7278430">
        <ele>205.0</ele>
        <time>2018-09-16T06:21:58Z</time>
      </trkpt>
      <trkpt lat="39.3588150" lon="-0.7278430">
        <ele>204.0</ele>
        <time>2018-09-16T06:21:59Z</time>
      </trkpt>
      <trkpt lat="39.3587180" lon="-0.7278500">
        <ele>204.0</ele>
        <time>2018-09-16T06:22:00Z</time>
      </trkpt>
      <trkpt lat="39.3587180" lon="-0.7278500">
        <ele>204.0</ele>
        <time>2018-09-16T06:22:01Z</time>
      </trkpt>
      <trkpt lat="39.3586250" lon="-0.7279030">
        <ele>204.0</ele>
        <time>2018-09-16T06:22:02Z</time>
      </trkpt>
      <trkpt lat="39.3586250" lon="-0.7279030">
        <ele>203.0</ele>
        <time>2018-09-16T06:22:03Z</time>
      </trkpt>
      <trkpt lat="39.3585270" lon="-0.7279650">
        <ele>203.0</ele>
        <time>2018-09-16T06:22:04Z</time>
      </trkpt>
      <trkpt lat="39.3585270" lon="-0.7279650">
        <ele>203.0</ele>
        <time>2018-09-16T06:22:05Z</time>
      </trkpt>
      <trkpt lat="39.3584330" lon="-0.7280380">
        <ele>203.0</ele>
        <time>2018-09-16T06:22:06Z</time>
      </trkpt>
      <trkpt lat="39.3584330" lon="-0.7280380">
        <ele>203.0</ele>
        <time>2018-09-16T06:22:07Z</time>
      </trkpt>
      <trkpt lat="39.3583730" lon="-0.7281500">
        <ele>203.0</ele>
        <time>2018-09-16T06:22:08Z</time>
      </trkpt>
      <trkpt lat="39.3583730" lon="-0.7281500">
        <ele>203.0</ele>
        <time>2018-09-16T06:22:09Z</time>
      </trkpt>
      <trkpt lat="39.3583300" lon="-0.7282720">
        <ele>203.0</ele>
        <time>2018-09-16T06:22:10Z</time>
      </trkpt>
      <trkpt lat="39.3583300" lon="-0.7282720">
        <ele>203.0</ele>
        <time>2018-09-16T06:22:11Z</time>
      </trkpt>
      <trkpt lat="39.3583020" lon="-0.7283930">
        <ele>203.0</ele>
        <time>2018-09-16T06:22:12Z</time>
      </trkpt>
      <trkpt lat="39.3583020" lon="-0.7283930">
        <ele>203.0</ele>
        <time>2018-09-16T06:22:13Z</time>
      </trkpt>
      <trkpt lat="39.3582820" lon="-0.7285180">
        <ele>203.0</ele>
        <time>2018-09-16T06:22:14Z</time>
      </trkpt>
      <trkpt lat="39.3582820" lon="-0.7285180">
        <ele>204.0</ele>
        <time>2018-09-16T06:22:15Z</time>
      </trkpt>
      <trkpt lat="39.3582570" lon="-0.7286420">
        <ele>204.0</ele>
        <time>2018-09-16T06:22:16Z</time>
      </trkpt>
      <trkpt lat="39.3582570" lon="-0.7286420">
        <ele>204.0</ele>
        <time>2018-09-16T06:22:17Z</time>
      </trkpt>
      <trkpt lat="39.3582330" lon="-0.7287650">
        <ele>204.0</ele>
        <time>2018-09-16T06:22:18Z</time>
      </trkpt>
      <trkpt lat="39.3582330" lon="-0.7287650">
        <ele>204.0</ele>
        <time>2018-09-16T06:22:19Z</time>
      </trkpt>
      <trkpt lat="39.3582120" lon="-0.7288870">
        <ele>204.0</ele>
        <time>2018-09-16T06:22:20Z</time>
      </trkpt>
      <trkpt lat="39.3581950" lon="-0.7289470">
        <ele>204.0</ele>
        <time>2018-09-16T06:22:21Z</time>
      </trkpt>
      <trkpt lat="39.3581950" lon="-0.7289470">
        <ele>204.0</ele>
        <time>2018-09-16T06:22:22Z</time>
      </trkpt>
      <trkpt lat="39.3581520" lon="-0.7290630">
        <ele>204.0</ele>
        <time>2018-09-16T06:22:23Z</time>
      </trkpt>
      <trkpt lat="39.3581520" lon="-0.7290630">
        <ele>204.0</ele>
        <time>2018-09-16T06:22:24Z</time>
      </trkpt>
      <trkpt lat="39.3581120" lon="-0.7291820">
        <ele>204.0</ele>
        <time>2018-09-16T06:22:25Z</time>
      </trkpt>
      <trkpt lat="39.3581120" lon="-0.7291820">
        <ele>204.0</ele>
        <time>2018-09-16T06:22:26Z</time>
      </trkpt>
      <trkpt lat="39.3580670" lon="-0.7293020">
        <ele>204.0</ele>
        <time>2018-09-16T06:22:27Z</time>
      </trkpt>
      <trkpt lat="39.3580670" lon="-0.7293020">
        <ele>204.0</ele>
        <time>2018-09-16T06:22:28Z</time>
      </trkpt>
      <trkpt lat="39.3580200" lon="-0.7294170">
        <ele>204.0</ele>
        <time>2018-09-16T06:22:29Z</time>
      </trkpt>
      <trkpt lat="39.3579980" lon="-0.7294750">
        <ele>204.0</ele>
        <time>2018-09-16T06:22:30Z</time>
      </trkpt>
      <trkpt lat="39.3579980" lon="-0.7294750">
        <ele>204.0</ele>
        <time>2018-09-16T06:22:31Z</time>
      </trkpt>
      <trkpt lat="39.3579570" lon="-0.7295930">
        <ele>204.0</ele>
        <time>2018-09-16T06:22:32Z</time>
      </trkpt>
      <trkpt lat="39.3579570" lon="-0.7295930">
        <ele>204.0</ele>
        <time>2018-09-16T06:22:33Z</time>
      </trkpt>
      <trkpt lat="39.3579230" lon="-0.7297180">
        <ele>205.0</ele>
        <time>2018-09-16T06:22:34Z</time>
      </trkpt>
      <trkpt lat="39.3579230" lon="-0.7297180">
        <ele>205.0</ele>
        <time>2018-09-16T06:22:35Z</time>
      </trkpt>
      <trkpt lat="39.3578900" lon="-0.7298470">
        <ele>205.0</ele>
        <time>2018-09-16T06:22:36Z</time>
      </trkpt>
      <trkpt lat="39.3578900" lon="-0.7298470">
        <ele>205.0</ele>
        <time>2018-09-16T06:22:37Z</time>
      </trkpt>
      <trkpt lat="39.3578530" lon="-0.7299770">
        <ele>205.0</ele>
        <time>2018-09-16T06:22:38Z</time>
      </trkpt>
      <trkpt lat="39.3578350" lon="-0.7300380">
        <ele>205.0</ele>
        <time>2018-09-16T06:22:39Z</time>
      </trkpt>
      <trkpt lat="39.3578350" lon="-0.7300380">
        <ele>205.0</ele>
        <time>2018-09-16T06:22:40Z</time>
      </trkpt>
      <trkpt lat="39.3578000" lon="-0.7301650">
        <ele>205.0</ele>
        <time>2018-09-16T06:22:41Z</time>
      </trkpt>
      <trkpt lat="39.3578000" lon="-0.7301650">
        <ele>205.0</ele>
        <time>2018-09-16T06:22:42Z</time>
      </trkpt>
      <trkpt lat="39.3577770" lon="-0.7302900">
        <ele>205.0</ele>
        <time>2018-09-16T06:22:43Z</time>
      </trkpt>
      <trkpt lat="39.3577680" lon="-0.7303530">
        <ele>205.0</ele>
        <time>2018-09-16T06:22:44Z</time>
      </trkpt>
      <trkpt lat="39.3577680" lon="-0.7303530">
        <ele>205.0</ele>
        <time>2018-09-16T06:22:45Z</time>
      </trkpt>
      <trkpt lat="39.3577500" lon="-0.7304820">
        <ele>205.0</ele>
        <time>2018-09-16T06:22:46Z</time>
      </trkpt>
      <trkpt lat="39.3577500" lon="-0.7304820">
        <ele>205.0</ele>
        <time>2018-09-16T06:22:47Z</time>
      </trkpt>
      <trkpt lat="39.3577270" lon="-0.7306070">
        <ele>205.0</ele>
        <time>2018-09-16T06:22:48Z</time>
      </trkpt>
      <trkpt lat="39.3577270" lon="-0.7306070">
        <ele>205.0</ele>
        <time>2018-09-16T06:22:49Z</time>
      </trkpt>
      <trkpt lat="39.3577080" lon="-0.7307330">
        <ele>205.0</ele>
        <time>2018-09-16T06:22:50Z</time>
      </trkpt>
      <trkpt lat="39.3576970" lon="-0.7307950">
        <ele>205.0</ele>
        <time>2018-09-16T06:22:51Z</time>
      </trkpt>
      <trkpt lat="39.3576970" lon="-0.7307950">
        <ele>205.0</ele>
        <time>2018-09-16T06:22:52Z</time>
      </trkpt>
      <trkpt lat="39.3576720" lon="-0.7309180">
        <ele>205.0</ele>
        <time>2018-09-16T06:22:53Z</time>
      </trkpt>
      <trkpt lat="39.3576620" lon="-0.7309820">
        <ele>205.0</ele>
        <time>2018-09-16T06:22:54Z</time>
      </trkpt>
      <trkpt lat="39.3576620" lon="-0.7309820">
        <ele>205.0</ele>
        <time>2018-09-16T06:22:55Z</time>
      </trkpt>
      <trkpt lat="39.3576400" lon="-0.7311080">
        <ele>205.0</ele>
        <time>2018-09-16T06:22:56Z</time>
      </trkpt>
      <trkpt lat="39.3576400" lon="-0.7311080">
        <ele>205.0</ele>
        <time>2018-09-16T06:22:57Z</time>
      </trkpt>
      <trkpt lat="39.3576250" lon="-0.7312370">
        <ele>205.0</ele>
        <time>2018-09-16T06:22:58Z</time>
      </trkpt>
      <trkpt lat="39.3576250" lon="-0.7312370">
        <ele>205.0</ele>
        <time>2018-09-16T06:22:59Z</time>
      </trkpt>
      <trkpt lat="39.3576170" lon="-0.7313670">
        <ele>205.0</ele>
        <time>2018-09-16T06:23:00Z</time>
      </trkpt>
      <trkpt lat="39.3576170" lon="-0.7313670">
        <ele>205.0</ele>
        <time>2018-09-16T06:23:01Z</time>
      </trkpt>
      <trkpt lat="39.3576030" lon="-0.7315020">
        <ele>205.0</ele>
        <time>2018-09-16T06:23:02Z</time>
      </trkpt>
      <trkpt lat="39.3575950" lon="-0.7315700">
        <ele>205.0</ele>
        <time>2018-09-16T06:23:03Z</time>
      </trkpt>
      <trkpt lat="39.3575950" lon="-0.7315700">
        <ele>205.0</ele>
        <time>2018-09-16T06:23:04Z</time>
      </trkpt>
      <trkpt lat="39.3575680" lon="-0.7317000">
        <ele>205.0</ele>
        <time>2018-09-16T06:23:05Z</time>
      </trkpt>
      <trkpt lat="39.3575450" lon="-0.7317600">
        <ele>205.0</ele>
        <time>2018-09-16T06:23:06Z</time>
      </trkpt>
      <trkpt lat="39.3575450" lon="-0.7317600">
        <ele>205.0</ele>
        <time>2018-09-16T06:23:07Z</time>
      </trkpt>
      <trkpt lat="39.3575000" lon="-0.7318830">
        <ele>205.0</ele>
        <time>2018-09-16T06:23:08Z</time>
      </trkpt>
      <trkpt lat="39.3574770" lon="-0.7319470">
        <ele>205.0</ele>
        <time>2018-09-16T06:23:09Z</time>
      </trkpt>
      <trkpt lat="39.3574770" lon="-0.7319470">
        <ele>205.0</ele>
        <time>2018-09-16T06:23:10Z</time>
      </trkpt>
      <trkpt lat="39.3574330" lon="-0.7320750">
        <ele>205.0</ele>
        <time>2018-09-16T06:23:11Z</time>
      </trkpt>
      <trkpt lat="39.3574330" lon="-0.7320750">
        <ele>205.0</ele>
        <time>2018-09-16T06:23:12Z</time>
      </trkpt>
      <trkpt lat="39.3573850" lon="-0.7321920">
        <ele>205.0</ele>
        <time>2018-09-16T06:23:13Z</time>
      </trkpt>
      <trkpt lat="39.3573570" lon="-0.7322400">
        <ele>205.0</ele>
        <time>2018-09-16T06:23:14Z</time>
      </trkpt>
      <trkpt lat="39.3573570" lon="-0.7322400">
        <ele>205.0</ele>
        <time>2018-09-16T06:23:15Z</time>
      </trkpt>
      <trkpt lat="39.3572900" lon="-0.7323170">
        <ele>205.0</ele>
        <time>2018-09-16T06:23:16Z</time>
      </trkpt>
      <trkpt lat="39.3572900" lon="-0.7323170">
        <ele>205.0</ele>
        <time>2018-09-16T06:23:17Z</time>
      </trkpt>
      <trkpt lat="39.3572030" lon="-0.7323600">
        <ele>205.0</ele>
        <time>2018-09-16T06:23:18Z</time>
      </trkpt>
      <trkpt lat="39.3572030" lon="-0.7323600">
        <ele>205.0</ele>
        <time>2018-09-16T06:23:19Z</time>
      </trkpt>
      <trkpt lat="39.3571230" lon="-0.7323830">
        <ele>205.0</ele>
        <time>2018-09-16T06:23:20Z</time>
      </trkpt>
      <trkpt lat="39.3571230" lon="-0.7323830">
        <ele>205.0</ele>
        <time>2018-09-16T06:23:21Z</time>
      </trkpt>
      <trkpt lat="39.3570970" lon="-0.7324070">
        <ele>205.0</ele>
        <time>2018-09-16T06:23:22Z</time>
      </trkpt>
      <trkpt lat="39.3570970" lon="-0.7324070">
        <ele>205.0</ele>
        <time>2018-09-16T06:23:23Z</time>
      </trkpt>
      <trkpt lat="39.3570780" lon="-0.7324220">
        <ele>205.0</ele>
        <time>2018-09-16T06:23:24Z</time>
      </trkpt>
      <trkpt lat="39.3570780" lon="-0.7324220">
        <ele>205.0</ele>
        <time>2018-09-16T06:23:25Z</time>
      </trkpt>
      <trkpt lat="39.3570520" lon="-0.7324470">
        <ele>205.0</ele>
        <time>2018-09-16T06:23:26Z</time>
      </trkpt>
      <trkpt lat="39.3570520" lon="-0.7324470">
        <ele>205.0</ele>
        <time>2018-09-16T06:23:27Z</time>
      </trkpt>
      <trkpt lat="39.3570250" lon="-0.7324800">
        <ele>205.0</ele>
        <time>2018-09-16T06:23:28Z</time>
      </trkpt>
      <trkpt lat="39.3570090" lon="-0.7325040">
        <ele>205.0</ele>
        <time>2018-09-16T06:23:29Z</time>
      </trkpt>
      <trkpt lat="39.3569930" lon="-0.7325280">
        <ele>205.0</ele>
        <time>2018-09-16T06:23:30Z</time>
      </trkpt>
      <trkpt lat="39.3569930" lon="-0.7325280">
        <ele>205.0</ele>
        <time>2018-09-16T06:23:31Z</time>
      </trkpt>
      <trkpt lat="39.3569720" lon="-0.7325920">
        <ele>205.0</ele>
        <time>2018-09-16T06:23:32Z</time>
      </trkpt>
      <trkpt lat="39.3569630" lon="-0.7326280">
        <ele>205.0</ele>
        <time>2018-09-16T06:23:33Z</time>
      </trkpt>
      <trkpt lat="39.3569630" lon="-0.7326280">
        <ele>205.0</ele>
        <time>2018-09-16T06:23:34Z</time>
      </trkpt>
      <trkpt lat="39.3569550" lon="-0.7327030">
        <ele>205.0</ele>
        <time>2018-09-16T06:23:35Z</time>
      </trkpt>
      <trkpt lat="39.3569470" lon="-0.7327380">
        <ele>205.0</ele>
        <time>2018-09-16T06:23:36Z</time>
      </trkpt>
      <trkpt lat="39.3569470" lon="-0.7327380">
        <ele>205.0</ele>
        <time>2018-09-16T06:23:37Z</time>
      </trkpt>
      <trkpt lat="39.3569130" lon="-0.7327980">
        <ele>205.0</ele>
        <time>2018-09-16T06:23:38Z</time>
      </trkpt>
      <trkpt lat="39.3569130" lon="-0.7327980">
        <ele>205.0</ele>
        <time>2018-09-16T06:23:39Z</time>
      </trkpt>
      <trkpt lat="39.3568600" lon="-0.7328320">
        <ele>205.0</ele>
        <time>2018-09-16T06:23:40Z</time>
      </trkpt>
      <trkpt lat="39.3568230" lon="-0.7328350">
        <ele>205.0</ele>
        <time>2018-09-16T06:23:41Z</time>
      </trkpt>
      <trkpt lat="39.3568230" lon="-0.7328350">
        <ele>205.0</ele>
        <time>2018-09-16T06:23:42Z</time>
      </trkpt>
      <trkpt lat="39.3567470" lon="-0.7328280">
        <ele>205.0</ele>
        <time>2018-09-16T06:23:43Z</time>
      </trkpt>
      <trkpt lat="39.3567470" lon="-0.7328280">
        <ele>205.0</ele>
        <time>2018-09-16T06:23:44Z</time>
      </trkpt>
      <trkpt lat="39.3566720" lon="-0.7328350">
        <ele>205.0</ele>
        <time>2018-09-16T06:23:45Z</time>
      </trkpt>
      <trkpt lat="39.3566720" lon="-0.7328350">
        <ele>205.0</ele>
        <time>2018-09-16T06:23:46Z</time>
      </trkpt>
      <trkpt lat="39.3566000" lon="-0.7328680">
        <ele>205.0</ele>
        <time>2018-09-16T06:23:47Z</time>
      </trkpt>
      <trkpt lat="39.3565700" lon="-0.7328950">
        <ele>205.0</ele>
        <time>2018-09-16T06:23:48Z</time>
      </trkpt>
      <trkpt lat="39.3565700" lon="-0.7328950">
        <ele>205.0</ele>
        <time>2018-09-16T06:23:49Z</time>
      </trkpt>
      <trkpt lat="39.3565180" lon="-0.7329620">
        <ele>205.0</ele>
        <time>2018-09-16T06:23:50Z</time>
      </trkpt>
      <trkpt lat="39.3565180" lon="-0.7329620">
        <ele>205.0</ele>
        <time>2018-09-16T06:23:51Z</time>
      </trkpt>
      <trkpt lat="39.3564720" lon="-0.7330420">
        <ele>205.0</ele>
        <time>2018-09-16T06:23:52Z</time>
      </trkpt>
      <trkpt lat="39.3564500" lon="-0.7330870">
        <ele>205.0</ele>
        <time>2018-09-16T06:23:53Z</time>
      </trkpt>
      <trkpt lat="39.3564280" lon="-0.7331350">
        <ele>205.0</ele>
        <time>2018-09-16T06:23:54Z</time>
      </trkpt>
      <trkpt lat="39.3564280" lon="-0.7331350">
        <ele>205.0</ele>
        <time>2018-09-16T06:23:55Z</time>
      </trkpt>
      <trkpt lat="39.3563870" lon="-0.7332320">
        <ele>205.0</ele>
        <time>2018-09-16T06:23:56Z</time>
      </trkpt>
      <trkpt lat="39.3563870" lon="-0.7332320">
        <ele>206.0</ele>
        <time>2018-09-16T06:23:57Z</time>
      </trkpt>
      <trkpt lat="39.3563400" lon="-0.7333300">
        <ele>206.0</ele>
        <time>2018-09-16T06:23:58Z</time>
      </trkpt>
      <trkpt lat="39.3563400" lon="-0.7333300">
        <ele>206.0</ele>
        <time>2018-09-16T06:23:59Z</time>
      </trkpt>
      <trkpt lat="39.3562900" lon="-0.7334250">
        <ele>206.0</ele>
        <time>2018-09-16T06:24:00Z</time>
      </trkpt>
      <trkpt lat="39.3562900" lon="-0.7334250">
        <ele>206.0</ele>
        <time>2018-09-16T06:24:01Z</time>
      </trkpt>
      <trkpt lat="39.3562370" lon="-0.7335180">
        <ele>206.0</ele>
        <time>2018-09-16T06:24:02Z</time>
      </trkpt>
      <trkpt lat="39.3562370" lon="-0.7335180">
        <ele>206.0</ele>
        <time>2018-09-16T06:24:03Z</time>
      </trkpt>
      <trkpt lat="39.3561830" lon="-0.7336130">
        <ele>206.0</ele>
        <time>2018-09-16T06:24:04Z</time>
      </trkpt>
      <trkpt lat="39.3561830" lon="-0.7336130">
        <ele>206.0</ele>
        <time>2018-09-16T06:24:05Z</time>
      </trkpt>
      <trkpt lat="39.3561330" lon="-0.7337100">
        <ele>206.0</ele>
        <time>2018-09-16T06:24:06Z</time>
      </trkpt>
      <trkpt lat="39.3561330" lon="-0.7337100">
        <ele>206.0</ele>
        <time>2018-09-16T06:24:07Z</time>
      </trkpt>
      <trkpt lat="39.3560820" lon="-0.7338050">
        <ele>206.0</ele>
        <time>2018-09-16T06:24:08Z</time>
      </trkpt>
      <trkpt lat="39.3560820" lon="-0.7338050">
        <ele>206.0</ele>
        <time>2018-09-16T06:24:09Z</time>
      </trkpt>
      <trkpt lat="39.3560320" lon="-0.7339030">
        <ele>206.0</ele>
        <time>2018-09-16T06:24:10Z</time>
      </trkpt>
      <trkpt lat="39.3560050" lon="-0.7339520">
        <ele>206.0</ele>
        <time>2018-09-16T06:24:11Z</time>
      </trkpt>
      <trkpt lat="39.3560050" lon="-0.7339520">
        <ele>206.0</ele>
        <time>2018-09-16T06:24:12Z</time>
      </trkpt>
      <trkpt lat="39.3559520" lon="-0.7340470">
        <ele>206.0</ele>
        <time>2018-09-16T06:24:13Z</time>
      </trkpt>
      <trkpt lat="39.3559270" lon="-0.7340970">
        <ele>206.0</ele>
        <time>2018-09-16T06:24:14Z</time>
      </trkpt>
      <trkpt lat="39.3559270" lon="-0.7340970">
        <ele>206.0</ele>
        <time>2018-09-16T06:24:15Z</time>
      </trkpt>
      <trkpt lat="39.3558770" lon="-0.7341950">
        <ele>206.0</ele>
        <time>2018-09-16T06:24:16Z</time>
      </trkpt>
      <trkpt lat="39.3558770" lon="-0.7341950">
        <ele>206.0</ele>
        <time>2018-09-16T06:24:17Z</time>
      </trkpt>
      <trkpt lat="39.3558270" lon="-0.7342950">
        <ele>206.0</ele>
        <time>2018-09-16T06:24:18Z</time>
      </trkpt>
      <trkpt lat="39.3558270" lon="-0.7342950">
        <ele>206.0</ele>
        <time>2018-09-16T06:24:19Z</time>
      </trkpt>
      <trkpt lat="39.3557780" lon="-0.7343930">
        <ele>206.0</ele>
        <time>2018-09-16T06:24:20Z</time>
      </trkpt>
      <trkpt lat="39.3557520" lon="-0.7344400">
        <ele>206.0</ele>
        <time>2018-09-16T06:24:21Z</time>
      </trkpt>
      <trkpt lat="39.3557520" lon="-0.7344400">
        <ele>207.0</ele>
        <time>2018-09-16T06:24:22Z</time>
      </trkpt>
      <trkpt lat="39.3557030" lon="-0.7345380">
        <ele>207.0</ele>
        <time>2018-09-16T06:24:23Z</time>
      </trkpt>
      <trkpt lat="39.3556780" lon="-0.7345870">
        <ele>207.0</ele>
        <time>2018-09-16T06:24:24Z</time>
      </trkpt>
      <trkpt lat="39.3556780" lon="-0.7345870">
        <ele>207.0</ele>
        <time>2018-09-16T06:24:25Z</time>
      </trkpt>
      <trkpt lat="39.3556280" lon="-0.7346820">
        <ele>207.0</ele>
        <time>2018-09-16T06:24:26Z</time>
      </trkpt>
      <trkpt lat="39.3556280" lon="-0.7346820">
        <ele>207.0</ele>
        <time>2018-09-16T06:24:27Z</time>
      </trkpt>
      <trkpt lat="39.3555700" lon="-0.7347700">
        <ele>207.0</ele>
        <time>2018-09-16T06:24:28Z</time>
      </trkpt>
      <trkpt lat="39.3555700" lon="-0.7347700">
        <ele>207.0</ele>
        <time>2018-09-16T06:24:29Z</time>
      </trkpt>
      <trkpt lat="39.3555070" lon="-0.7348520">
        <ele>207.0</ele>
        <time>2018-09-16T06:24:30Z</time>
      </trkpt>
      <trkpt lat="39.3555070" lon="-0.7348520">
        <ele>207.0</ele>
        <time>2018-09-16T06:24:31Z</time>
      </trkpt>
      <trkpt lat="39.3554430" lon="-0.7349330">
        <ele>207.0</ele>
        <time>2018-09-16T06:24:32Z</time>
      </trkpt>
      <trkpt lat="39.3554430" lon="-0.7349330">
        <ele>207.0</ele>
        <time>2018-09-16T06:24:33Z</time>
      </trkpt>
      <trkpt lat="39.3553830" lon="-0.7350200">
        <ele>207.0</ele>
        <time>2018-09-16T06:24:34Z</time>
      </trkpt>
      <trkpt lat="39.3553830" lon="-0.7350200">
        <ele>207.0</ele>
        <time>2018-09-16T06:24:35Z</time>
      </trkpt>
      <trkpt lat="39.3553200" lon="-0.7350980">
        <ele>207.0</ele>
        <time>2018-09-16T06:24:36Z</time>
      </trkpt>
      <trkpt lat="39.3553200" lon="-0.7350980">
        <ele>207.0</ele>
        <time>2018-09-16T06:24:37Z</time>
      </trkpt>
      <trkpt lat="39.3552570" lon="-0.7351770">
        <ele>207.0</ele>
        <time>2018-09-16T06:24:38Z</time>
      </trkpt>
      <trkpt lat="39.3552570" lon="-0.7351770">
        <ele>207.0</ele>
        <time>2018-09-16T06:24:39Z</time>
      </trkpt>
      <trkpt lat="39.3551930" lon="-0.7352500">
        <ele>207.0</ele>
        <time>2018-09-16T06:24:40Z</time>
      </trkpt>
      <trkpt lat="39.3551930" lon="-0.7352500">
        <ele>207.0</ele>
        <time>2018-09-16T06:24:41Z</time>
      </trkpt>
      <trkpt lat="39.3551280" lon="-0.7353250">
        <ele>207.0</ele>
        <time>2018-09-16T06:24:42Z</time>
      </trkpt>
      <trkpt lat="39.3551280" lon="-0.7353250">
        <ele>207.0</ele>
        <time>2018-09-16T06:24:43Z</time>
      </trkpt>
      <trkpt lat="39.3550620" lon="-0.7354070">
        <ele>207.0</ele>
        <time>2018-09-16T06:24:44Z</time>
      </trkpt>
      <trkpt lat="39.3550620" lon="-0.7354070">
        <ele>207.0</ele>
        <time>2018-09-16T06:24:45Z</time>
      </trkpt>
      <trkpt lat="39.3549920" lon="-0.7354780">
        <ele>207.0</ele>
        <time>2018-09-16T06:24:46Z</time>
      </trkpt>
      <trkpt lat="39.3549920" lon="-0.7354780">
        <ele>207.0</ele>
        <time>2018-09-16T06:24:47Z</time>
      </trkpt>
      <trkpt lat="39.3549280" lon="-0.7355400">
        <ele>207.0</ele>
        <time>2018-09-16T06:24:48Z</time>
      </trkpt>
      <trkpt lat="39.3549280" lon="-0.7355400">
        <ele>207.0</ele>
        <time>2018-09-16T06:24:49Z</time>
      </trkpt>
      <trkpt lat="39.3548600" lon="-0.7355980">
        <ele>207.0</ele>
        <time>2018-09-16T06:24:50Z</time>
      </trkpt>
      <trkpt lat="39.3548600" lon="-0.7355980">
        <ele>207.0</ele>
        <time>2018-09-16T06:24:51Z</time>
      </trkpt>
      <trkpt lat="39.3547880" lon="-0.7356570">
        <ele>207.0</ele>
        <time>2018-09-16T06:24:52Z</time>
      </trkpt>
      <trkpt lat="39.3547880" lon="-0.7356570">
        <ele>207.0</ele>
        <time>2018-09-16T06:24:53Z</time>
      </trkpt>
      <trkpt lat="39.3547070" lon="-0.7356880">
        <ele>207.0</ele>
        <time>2018-09-16T06:24:54Z</time>
      </trkpt>
      <trkpt lat="39.3547070" lon="-0.7356880">
        <ele>207.0</ele>
        <time>2018-09-16T06:24:55Z</time>
      </trkpt>
      <trkpt lat="39.3546300" lon="-0.7356870">
        <ele>207.0</ele>
        <time>2018-09-16T06:24:56Z</time>
      </trkpt>
      <trkpt lat="39.3546300" lon="-0.7356870">
        <ele>207.0</ele>
        <time>2018-09-16T06:24:57Z</time>
      </trkpt>
      <trkpt lat="39.3545570" lon="-0.7356730">
        <ele>207.0</ele>
        <time>2018-09-16T06:24:58Z</time>
      </trkpt>
      <trkpt lat="39.3545570" lon="-0.7356730">
        <ele>207.0</ele>
        <time>2018-09-16T06:24:59Z</time>
      </trkpt>
      <trkpt lat="39.3544750" lon="-0.7356620">
        <ele>207.0</ele>
        <time>2018-09-16T06:25:00Z</time>
      </trkpt>
      <trkpt lat="39.3544750" lon="-0.7356620">
        <ele>207.0</ele>
        <time>2018-09-16T06:25:01Z</time>
      </trkpt>
      <trkpt lat="39.3543950" lon="-0.7356670">
        <ele>208.0</ele>
        <time>2018-09-16T06:25:02Z</time>
      </trkpt>
      <trkpt lat="39.3543550" lon="-0.7356680">
        <ele>208.0</ele>
        <time>2018-09-16T06:25:03Z</time>
      </trkpt>
      <trkpt lat="39.3543550" lon="-0.7356680">
        <ele>208.0</ele>
        <time>2018-09-16T06:25:04Z</time>
      </trkpt>
      <trkpt lat="39.3542820" lon="-0.7356700">
        <ele>208.0</ele>
        <time>2018-09-16T06:25:05Z</time>
      </trkpt>
      <trkpt lat="39.3542480" lon="-0.7356730">
        <ele>208.0</ele>
        <time>2018-09-16T06:25:06Z</time>
      </trkpt>
      <trkpt lat="39.3542480" lon="-0.7356730">
        <ele>208.0</ele>
        <time>2018-09-16T06:25:07Z</time>
      </trkpt>
      <trkpt lat="39.3541820" lon="-0.7356700">
        <ele>209.0</ele>
        <time>2018-09-16T06:25:08Z</time>
      </trkpt>
      <trkpt lat="39.3541820" lon="-0.7356700">
        <ele>209.0</ele>
        <time>2018-09-16T06:25:09Z</time>
      </trkpt>
      <trkpt lat="39.3541130" lon="-0.7356680">
        <ele>209.0</ele>
        <time>2018-09-16T06:25:10Z</time>
      </trkpt>
      <trkpt lat="39.3541130" lon="-0.7356680">
        <ele>209.0</ele>
        <time>2018-09-16T06:25:11Z</time>
      </trkpt>
      <trkpt lat="39.3540470" lon="-0.7356630">
        <ele>209.0</ele>
        <time>2018-09-16T06:25:12Z</time>
      </trkpt>
      <trkpt lat="39.3540120" lon="-0.7356600">
        <ele>209.0</ele>
        <time>2018-09-16T06:25:13Z</time>
      </trkpt>
      <trkpt lat="39.3540120" lon="-0.7356600">
        <ele>210.0</ele>
        <time>2018-09-16T06:25:14Z</time>
      </trkpt>
      <trkpt lat="39.3539500" lon="-0.7356450">
        <ele>210.0</ele>
        <time>2018-09-16T06:25:15Z</time>
      </trkpt>
      <trkpt lat="39.3539200" lon="-0.7356300">
        <ele>210.0</ele>
        <time>2018-09-16T06:25:16Z</time>
      </trkpt>
      <trkpt lat="39.3538880" lon="-0.7356150">
        <ele>210.0</ele>
        <time>2018-09-16T06:25:17Z</time>
      </trkpt>
      <trkpt lat="39.3538880" lon="-0.7356150">
        <ele>210.0</ele>
        <time>2018-09-16T06:25:18Z</time>
      </trkpt>
      <trkpt lat="39.3538280" lon="-0.7355800">
        <ele>210.0</ele>
        <time>2018-09-16T06:25:19Z</time>
      </trkpt>
      <trkpt lat="39.3537980" lon="-0.7355670">
        <ele>211.0</ele>
        <time>2018-09-16T06:25:20Z</time>
      </trkpt>
      <trkpt lat="39.3537980" lon="-0.7355670">
        <ele>211.0</ele>
        <time>2018-09-16T06:25:21Z</time>
      </trkpt>
      <trkpt lat="39.3537330" lon="-0.7355430">
        <ele>211.0</ele>
        <time>2018-09-16T06:25:22Z</time>
      </trkpt>
      <trkpt lat="39.3537000" lon="-0.7355350">
        <ele>211.0</ele>
        <time>2018-09-16T06:25:23Z</time>
      </trkpt>
      <trkpt lat="39.3537000" lon="-0.7355350">
        <ele>211.0</ele>
        <time>2018-09-16T06:25:24Z</time>
      </trkpt>
      <trkpt lat="39.3536330" lon="-0.7355220">
        <ele>211.0</ele>
        <time>2018-09-16T06:25:25Z</time>
      </trkpt>
      <trkpt lat="39.3536330" lon="-0.7355220">
        <ele>212.0</ele>
        <time>2018-09-16T06:25:26Z</time>
      </trkpt>
      <trkpt lat="39.3535700" lon="-0.7355020">
        <ele>212.0</ele>
        <time>2018-09-16T06:25:27Z</time>
      </trkpt>
      <trkpt lat="39.3535700" lon="-0.7355020">
        <ele>212.0</ele>
        <time>2018-09-16T06:25:28Z</time>
      </trkpt>
      <trkpt lat="39.3535070" lon="-0.7354770">
        <ele>212.0</ele>
        <time>2018-09-16T06:25:29Z</time>
      </trkpt>
      <trkpt lat="39.3534770" lon="-0.7354620">
        <ele>213.0</ele>
        <time>2018-09-16T06:25:30Z</time>
      </trkpt>
      <trkpt lat="39.3534770" lon="-0.7354620">
        <ele>213.0</ele>
        <time>2018-09-16T06:25:31Z</time>
      </trkpt>
      <trkpt lat="39.3534080" lon="-0.7354400">
        <ele>213.0</ele>
        <time>2018-09-16T06:25:32Z</time>
      </trkpt>
      <trkpt lat="39.3534080" lon="-0.7354400">
        <ele>213.0</ele>
        <time>2018-09-16T06:25:33Z</time>
      </trkpt>
      <trkpt lat="39.3533350" lon="-0.7354300">
        <ele>214.0</ele>
        <time>2018-09-16T06:25:34Z</time>
      </trkpt>
      <trkpt lat="39.3533350" lon="-0.7354300">
        <ele>214.0</ele>
        <time>2018-09-16T06:25:35Z</time>
      </trkpt>
      <trkpt lat="39.3532630" lon="-0.7354330">
        <ele>214.0</ele>
        <time>2018-09-16T06:25:36Z</time>
      </trkpt>
      <trkpt lat="39.3532630" lon="-0.7354330">
        <ele>214.0</ele>
        <time>2018-09-16T06:25:37Z</time>
      </trkpt>
      <trkpt lat="39.3531900" lon="-0.7354520">
        <ele>214.0</ele>
        <time>2018-09-16T06:25:38Z</time>
      </trkpt>
      <trkpt lat="39.3531900" lon="-0.7354520">
        <ele>215.0</ele>
        <time>2018-09-16T06:25:39Z</time>
      </trkpt>
      <trkpt lat="39.3531220" lon="-0.7354750">
        <ele>215.0</ele>
        <time>2018-09-16T06:25:40Z</time>
      </trkpt>
      <trkpt lat="39.3531220" lon="-0.7354750">
        <ele>215.0</ele>
        <time>2018-09-16T06:25:41Z</time>
      </trkpt>
      <trkpt lat="39.3530520" lon="-0.7355030">
        <ele>215.0</ele>
        <time>2018-09-16T06:25:42Z</time>
      </trkpt>
      <trkpt lat="39.3530520" lon="-0.7355030">
        <ele>215.0</ele>
        <time>2018-09-16T06:25:43Z</time>
      </trkpt>
      <trkpt lat="39.3529780" lon="-0.7355370">
        <ele>215.0</ele>
        <time>2018-09-16T06:25:44Z</time>
      </trkpt>
      <trkpt lat="39.3529420" lon="-0.7355580">
        <ele>216.0</ele>
        <time>2018-09-16T06:25:45Z</time>
      </trkpt>
      <trkpt lat="39.3529420" lon="-0.7355580">
        <ele>216.0</ele>
        <time>2018-09-16T06:25:46Z</time>
      </trkpt>
      <trkpt lat="39.3528700" lon="-0.7355980">
        <ele>216.0</ele>
        <time>2018-09-16T06:25:47Z</time>
      </trkpt>
      <trkpt lat="39.3528350" lon="-0.7356170">
        <ele>216.0</ele>
        <time>2018-09-16T06:25:48Z</time>
      </trkpt>
      <trkpt lat="39.3528350" lon="-0.7356170">
        <ele>216.0</ele>
        <time>2018-09-16T06:25:49Z</time>
      </trkpt>
      <trkpt lat="39.3527670" lon="-0.7356530">
        <ele>216.0</ele>
        <time>2018-09-16T06:25:50Z</time>
      </trkpt>
      <trkpt lat="39.3527670" lon="-0.7356530">
        <ele>216.0</ele>
        <time>2018-09-16T06:25:51Z</time>
      </trkpt>
      <trkpt lat="39.3526930" lon="-0.7356850">
        <ele>216.0</ele>
        <time>2018-09-16T06:25:52Z</time>
      </trkpt>
      <trkpt lat="39.3526930" lon="-0.7356850">
        <ele>216.0</ele>
        <time>2018-09-16T06:25:53Z</time>
      </trkpt>
      <trkpt lat="39.3526200" lon="-0.7357130">
        <ele>216.0</ele>
        <time>2018-09-16T06:25:54Z</time>
      </trkpt>
      <trkpt lat="39.3526200" lon="-0.7357130">
        <ele>217.0</ele>
        <time>2018-09-16T06:25:55Z</time>
      </trkpt>
      <trkpt lat="39.3525480" lon="-0.7357420">
        <ele>217.0</ele>
        <time>2018-09-16T06:25:56Z</time>
      </trkpt>
      <trkpt lat="39.3525480" lon="-0.7357420">
        <ele>217.0</ele>
        <time>2018-09-16T06:25:57Z</time>
      </trkpt>
      <trkpt lat="39.3524780" lon="-0.7357750">
        <ele>217.0</ele>
        <time>2018-09-16T06:25:58Z</time>
      </trkpt>
      <trkpt lat="39.3524780" lon="-0.7357750">
        <ele>217.0</ele>
        <time>2018-09-16T06:25:59Z</time>
      </trkpt>
      <trkpt lat="39.3524120" lon="-0.7358070">
        <ele>217.0</ele>
        <time>2018-09-16T06:26:00Z</time>
      </trkpt>
      <trkpt lat="39.3524120" lon="-0.7358070">
        <ele>218.0</ele>
        <time>2018-09-16T06:26:01Z</time>
      </trkpt>
      <trkpt lat="39.3523450" lon="-0.7358380">
        <ele>218.0</ele>
        <time>2018-09-16T06:26:02Z</time>
      </trkpt>
      <trkpt lat="39.3523450" lon="-0.7358380">
        <ele>218.0</ele>
        <time>2018-09-16T06:26:03Z</time>
      </trkpt>
      <trkpt lat="39.3522780" lon="-0.7358680">
        <ele>218.0</ele>
        <time>2018-09-16T06:26:04Z</time>
      </trkpt>
      <trkpt lat="39.3522450" lon="-0.7358850">
        <ele>218.0</ele>
        <time>2018-09-16T06:26:05Z</time>
      </trkpt>
      <trkpt lat="39.3522150" lon="-0.7359020">
        <ele>219.0</ele>
        <time>2018-09-16T06:26:06Z</time>
      </trkpt>
      <trkpt lat="39.3522150" lon="-0.7359020">
        <ele>219.0</ele>
        <time>2018-09-16T06:26:07Z</time>
      </trkpt>
      <trkpt lat="39.3521550" lon="-0.7359270">
        <ele>219.0</ele>
        <time>2018-09-16T06:26:08Z</time>
      </trkpt>
      <trkpt lat="39.3521550" lon="-0.7359270">
        <ele>219.0</ele>
        <time>2018-09-16T06:26:09Z</time>
      </trkpt>
      <trkpt lat="39.3521000" lon="-0.7359520">
        <ele>220.0</ele>
        <time>2018-09-16T06:26:10Z</time>
      </trkpt>
      <trkpt lat="39.3521000" lon="-0.7359520">
        <ele>220.0</ele>
        <time>2018-09-16T06:26:11Z</time>
      </trkpt>
      <trkpt lat="39.3520470" lon="-0.7359750">
        <ele>221.0</ele>
        <time>2018-09-16T06:26:12Z</time>
      </trkpt>
      <trkpt lat="39.3520470" lon="-0.7359750">
        <ele>221.0</ele>
        <time>2018-09-16T06:26:13Z</time>
      </trkpt>
      <trkpt lat="39.3519950" lon="-0.7359980">
        <ele>221.0</ele>
        <time>2018-09-16T06:26:14Z</time>
      </trkpt>
      <trkpt lat="39.3519950" lon="-0.7359980">
        <ele>221.0</ele>
        <time>2018-09-16T06:26:15Z</time>
      </trkpt>
      <trkpt lat="39.3519430" lon="-0.7360170">
        <ele>222.0</ele>
        <time>2018-09-16T06:26:16Z</time>
      </trkpt>
      <trkpt lat="39.3519430" lon="-0.7360170">
        <ele>222.0</ele>
        <time>2018-09-16T06:26:17Z</time>
      </trkpt>
      <trkpt lat="39.3518900" lon="-0.7360320">
        <ele>222.0</ele>
        <time>2018-09-16T06:26:18Z</time>
      </trkpt>
      <trkpt lat="39.3518900" lon="-0.7360320">
        <ele>222.0</ele>
        <time>2018-09-16T06:26:19Z</time>
      </trkpt>
      <trkpt lat="39.3518380" lon="-0.7360500">
        <ele>223.0</ele>
        <time>2018-09-16T06:26:20Z</time>
      </trkpt>
      <trkpt lat="39.3518380" lon="-0.7360500">
        <ele>223.0</ele>
        <time>2018-09-16T06:26:21Z</time>
      </trkpt>
      <trkpt lat="39.3517930" lon="-0.7360850">
        <ele>223.0</ele>
        <time>2018-09-16T06:26:22Z</time>
      </trkpt>
      <trkpt lat="39.3517770" lon="-0.7361100">
        <ele>223.0</ele>
        <time>2018-09-16T06:26:23Z</time>
      </trkpt>
      <trkpt lat="39.3517630" lon="-0.7361400">
        <ele>224.0</ele>
        <time>2018-09-16T06:26:24Z</time>
      </trkpt>
      <trkpt lat="39.3517630" lon="-0.7361400">
        <ele>224.0</ele>
        <time>2018-09-16T06:26:25Z</time>
      </trkpt>
      <trkpt lat="39.3517450" lon="-0.7362030">
        <ele>224.0</ele>
        <time>2018-09-16T06:26:26Z</time>
      </trkpt>
      <trkpt lat="39.3517450" lon="-0.7362030">
        <ele>224.0</ele>
        <time>2018-09-16T06:26:27Z</time>
      </trkpt>
      <trkpt lat="39.3517300" lon="-0.7362700">
        <ele>225.0</ele>
        <time>2018-09-16T06:26:28Z</time>
      </trkpt>
      <trkpt lat="39.3517300" lon="-0.7362700">
        <ele>225.0</ele>
        <time>2018-09-16T06:26:29Z</time>
      </trkpt>
      <trkpt lat="39.3517170" lon="-0.7363370">
        <ele>225.0</ele>
        <time>2018-09-16T06:26:30Z</time>
      </trkpt>
      <trkpt lat="39.3517170" lon="-0.7363370">
        <ele>225.0</ele>
        <time>2018-09-16T06:26:31Z</time>
      </trkpt>
      <trkpt lat="39.3517030" lon="-0.7364050">
        <ele>226.0</ele>
        <time>2018-09-16T06:26:32Z</time>
      </trkpt>
      <trkpt lat="39.3517030" lon="-0.7364050">
        <ele>226.0</ele>
        <time>2018-09-16T06:26:33Z</time>
      </trkpt>
      <trkpt lat="39.3516900" lon="-0.7364700">
        <ele>226.0</ele>
        <time>2018-09-16T06:26:34Z</time>
      </trkpt>
      <trkpt lat="39.3516900" lon="-0.7364700">
        <ele>227.0</ele>
        <time>2018-09-16T06:26:35Z</time>
      </trkpt>
      <trkpt lat="39.3516750" lon="-0.7365320">
        <ele>227.0</ele>
        <time>2018-09-16T06:26:36Z</time>
      </trkpt>
      <trkpt lat="39.3516750" lon="-0.7365320">
        <ele>227.0</ele>
        <time>2018-09-16T06:26:37Z</time>
      </trkpt>
      <trkpt lat="39.3516580" lon="-0.7365920">
        <ele>227.0</ele>
        <time>2018-09-16T06:26:38Z</time>
      </trkpt>
      <trkpt lat="39.3516580" lon="-0.7365920">
        <ele>228.0</ele>
        <time>2018-09-16T06:26:39Z</time>
      </trkpt>
      <trkpt lat="39.3516420" lon="-0.7366500">
        <ele>228.0</ele>
        <time>2018-09-16T06:26:40Z</time>
      </trkpt>
      <trkpt lat="39.3516420" lon="-0.7366500">
        <ele>228.0</ele>
        <time>2018-09-16T06:26:41Z</time>
      </trkpt>
      <trkpt lat="39.3516230" lon="-0.7367120">
        <ele>228.0</ele>
        <time>2018-09-16T06:26:42Z</time>
      </trkpt>
      <trkpt lat="39.3516230" lon="-0.7367120">
        <ele>229.0</ele>
        <time>2018-09-16T06:26:43Z</time>
      </trkpt>
      <trkpt lat="39.3516020" lon="-0.7367720">
        <ele>229.0</ele>
        <time>2018-09-16T06:26:44Z</time>
      </trkpt>
      <trkpt lat="39.3515900" lon="-0.7368000">
        <ele>229.0</ele>
        <time>2018-09-16T06:26:45Z</time>
      </trkpt>
      <trkpt lat="39.3515780" lon="-0.7368280">
        <ele>229.0</ele>
        <time>2018-09-16T06:26:46Z</time>
      </trkpt>
      <trkpt lat="39.3515780" lon="-0.7368280">
        <ele>229.0</ele>
        <time>2018-09-16T06:26:47Z</time>
      </trkpt>
      <trkpt lat="39.3515450" lon="-0.7368850">
        <ele>229.0</ele>
        <time>2018-09-16T06:26:48Z</time>
      </trkpt>
      <trkpt lat="39.3515450" lon="-0.7368850">
        <ele>229.0</ele>
        <time>2018-09-16T06:26:49Z</time>
      </trkpt>
      <trkpt lat="39.3515030" lon="-0.7369280">
        <ele>229.0</ele>
        <time>2018-09-16T06:26:50Z</time>
      </trkpt>
      <trkpt lat="39.3515030" lon="-0.7369280">
        <ele>230.0</ele>
        <time>2018-09-16T06:26:51Z</time>
      </trkpt>
      <trkpt lat="39.3514600" lon="-0.7369580">
        <ele>230.0</ele>
        <time>2018-09-16T06:26:52Z</time>
      </trkpt>
      <trkpt lat="39.3514600" lon="-0.7369580">
        <ele>230.0</ele>
        <time>2018-09-16T06:26:53Z</time>
      </trkpt>
      <trkpt lat="39.3514100" lon="-0.7369720">
        <ele>230.0</ele>
        <time>2018-09-16T06:26:54Z</time>
      </trkpt>
      <trkpt lat="39.3514100" lon="-0.7369720">
        <ele>232.0</ele>
        <time>2018-09-16T06:26:55Z</time>
      </trkpt>
      <trkpt lat="39.3513600" lon="-0.7369800">
        <ele>232.0</ele>
        <time>2018-09-16T06:26:56Z</time>
      </trkpt>
      <trkpt lat="39.3513600" lon="-0.7369800">
        <ele>232.0</ele>
        <time>2018-09-16T06:26:57Z</time>
      </trkpt>
      <trkpt lat="39.3513080" lon="-0.7369880">
        <ele>232.0</ele>
        <time>2018-09-16T06:26:58Z</time>
      </trkpt>
      <trkpt lat="39.3513080" lon="-0.7369880">
        <ele>233.0</ele>
        <time>2018-09-16T06:26:59Z</time>
      </trkpt>
      <trkpt lat="39.3512570" lon="-0.7369950">
        <ele>233.0</ele>
        <time>2018-09-16T06:27:00Z</time>
      </trkpt>
      <trkpt lat="39.3512570" lon="-0.7369950">
        <ele>233.0</ele>
        <time>2018-09-16T06:27:01Z</time>
      </trkpt>
      <trkpt lat="39.3512100" lon="-0.7370000">
        <ele>233.0</ele>
        <time>2018-09-16T06:27:02Z</time>
      </trkpt>
      <trkpt lat="39.3512100" lon="-0.7370000">
        <ele>234.0</ele>
        <time>2018-09-16T06:27:03Z</time>
      </trkpt>
      <trkpt lat="39.3511620" lon="-0.7370050">
        <ele>234.0</ele>
        <time>2018-09-16T06:27:04Z</time>
      </trkpt>
      <trkpt lat="39.3511620" lon="-0.7370050">
        <ele>234.0</ele>
        <time>2018-09-16T06:27:05Z</time>
      </trkpt>
      <trkpt lat="39.3511150" lon="-0.7370080">
        <ele>235.0</ele>
        <time>2018-09-16T06:27:06Z</time>
      </trkpt>
      <trkpt lat="39.3510930" lon="-0.7370170">
        <ele>235.0</ele>
        <time>2018-09-16T06:27:07Z</time>
      </trkpt>
      <trkpt lat="39.3510720" lon="-0.7370250">
        <ele>235.0</ele>
        <time>2018-09-16T06:27:08Z</time>
      </trkpt>
      <trkpt lat="39.3510720" lon="-0.7370250">
        <ele>235.0</ele>
        <time>2018-09-16T06:27:09Z</time>
      </trkpt>
      <trkpt lat="39.3510270" lon="-0.7370430">
        <ele>235.0</ele>
        <time>2018-09-16T06:27:10Z</time>
      </trkpt>
      <trkpt lat="39.3510270" lon="-0.7370430">
        <ele>235.0</ele>
        <time>2018-09-16T06:27:11Z</time>
      </trkpt>
      <trkpt lat="39.3509820" lon="-0.7370580">
        <ele>235.0</ele>
        <time>2018-09-16T06:27:12Z</time>
      </trkpt>
      <trkpt lat="39.3509820" lon="-0.7370580">
        <ele>235.0</ele>
        <time>2018-09-16T06:27:13Z</time>
      </trkpt>
      <trkpt lat="39.3509330" lon="-0.7370770">
        <ele>235.0</ele>
        <time>2018-09-16T06:27:14Z</time>
      </trkpt>
      <trkpt lat="39.3509330" lon="-0.7370770">
        <ele>235.0</ele>
        <time>2018-09-16T06:27:15Z</time>
      </trkpt>
      <trkpt lat="39.3508800" lon="-0.7370920">
        <ele>236.0</ele>
        <time>2018-09-16T06:27:16Z</time>
      </trkpt>
      <trkpt lat="39.3508530" lon="-0.7371020">
        <ele>236.0</ele>
        <time>2018-09-16T06:27:17Z</time>
      </trkpt>
      <trkpt lat="39.3508250" lon="-0.7371120">
        <ele>236.0</ele>
        <time>2018-09-16T06:27:18Z</time>
      </trkpt>
      <trkpt lat="39.3508250" lon="-0.7371120">
        <ele>236.0</ele>
        <time>2018-09-16T06:27:19Z</time>
      </trkpt>
      <trkpt lat="39.3507700" lon="-0.7371400">
        <ele>236.0</ele>
        <time>2018-09-16T06:27:20Z</time>
      </trkpt>
      <trkpt lat="39.3507700" lon="-0.7371400">
        <ele>236.0</ele>
        <time>2018-09-16T06:27:21Z</time>
      </trkpt>
      <trkpt lat="39.3507150" lon="-0.7371780">
        <ele>236.0</ele>
        <time>2018-09-16T06:27:22Z</time>
      </trkpt>
      <trkpt lat="39.3507150" lon="-0.7371780">
        <ele>236.0</ele>
        <time>2018-09-16T06:27:23Z</time>
      </trkpt>
      <trkpt lat="39.3506580" lon="-0.7372130">
        <ele>237.0</ele>
        <time>2018-09-16T06:27:24Z</time>
      </trkpt>
      <trkpt lat="39.3506580" lon="-0.7372130">
        <ele>237.0</ele>
        <time>2018-09-16T06:27:25Z</time>
      </trkpt>
      <trkpt lat="39.3506000" lon="-0.7372450">
        <ele>237.0</ele>
        <time>2018-09-16T06:27:26Z</time>
      </trkpt>
      <trkpt lat="39.3505720" lon="-0.7372580">
        <ele>237.0</ele>
        <time>2018-09-16T06:27:27Z</time>
      </trkpt>
      <trkpt lat="39.3505720" lon="-0.7372580">
        <ele>237.0</ele>
        <time>2018-09-16T06:27:28Z</time>
      </trkpt>
      <trkpt lat="39.3505100" lon="-0.7372850">
        <ele>237.0</ele>
        <time>2018-09-16T06:27:29Z</time>
      </trkpt>
      <trkpt lat="39.3504780" lon="-0.7372980">
        <ele>238.0</ele>
        <time>2018-09-16T06:27:30Z</time>
      </trkpt>
      <trkpt lat="39.3504780" lon="-0.7372980">
        <ele>238.0</ele>
        <time>2018-09-16T06:27:31Z</time>
      </trkpt>
      <trkpt lat="39.3504180" lon="-0.7373230">
        <ele>238.0</ele>
        <time>2018-09-16T06:27:32Z</time>
      </trkpt>
      <trkpt lat="39.3504180" lon="-0.7373230">
        <ele>238.0</ele>
        <time>2018-09-16T06:27:33Z</time>
      </trkpt>
      <trkpt lat="39.3503570" lon="-0.7373470">
        <ele>238.0</ele>
        <time>2018-09-16T06:27:34Z</time>
      </trkpt>
      <trkpt lat="39.3503570" lon="-0.7373470">
        <ele>238.0</ele>
        <time>2018-09-16T06:27:35Z</time>
      </trkpt>
      <trkpt lat="39.3502980" lon="-0.7373780">
        <ele>238.0</ele>
        <time>2018-09-16T06:27:36Z</time>
      </trkpt>
      <trkpt lat="39.3502980" lon="-0.7373780">
        <ele>238.0</ele>
        <time>2018-09-16T06:27:37Z</time>
      </trkpt>
      <trkpt lat="39.3502420" lon="-0.7374180">
        <ele>238.0</ele>
        <time>2018-09-16T06:27:38Z</time>
      </trkpt>
      <trkpt lat="39.3502420" lon="-0.7374180">
        <ele>238.0</ele>
        <time>2018-09-16T06:27:39Z</time>
      </trkpt>
      <trkpt lat="39.3501880" lon="-0.7374700">
        <ele>238.0</ele>
        <time>2018-09-16T06:27:40Z</time>
      </trkpt>
      <trkpt lat="39.3501880" lon="-0.7374700">
        <ele>238.0</ele>
        <time>2018-09-16T06:27:41Z</time>
      </trkpt>
      <trkpt lat="39.3501400" lon="-0.7375230">
        <ele>238.0</ele>
        <time>2018-09-16T06:27:42Z</time>
      </trkpt>
      <trkpt lat="39.3501400" lon="-0.7375230">
        <ele>238.0</ele>
        <time>2018-09-16T06:27:43Z</time>
      </trkpt>
      <trkpt lat="39.3500900" lon="-0.7375750">
        <ele>238.0</ele>
        <time>2018-09-16T06:27:44Z</time>
      </trkpt>
      <trkpt lat="39.3500900" lon="-0.7375750">
        <ele>239.0</ele>
        <time>2018-09-16T06:27:45Z</time>
      </trkpt>
      <trkpt lat="39.3500380" lon="-0.7376280">
        <ele>239.0</ele>
        <time>2018-09-16T06:27:46Z</time>
      </trkpt>
      <trkpt lat="39.3500070" lon="-0.7376550">
        <ele>239.0</ele>
        <time>2018-09-16T06:27:47Z</time>
      </trkpt>
      <trkpt lat="39.3499770" lon="-0.7376800">
        <ele>239.0</ele>
        <time>2018-09-16T06:27:48Z</time>
      </trkpt>
      <trkpt lat="39.3499770" lon="-0.7376800">
        <ele>239.0</ele>
        <time>2018-09-16T06:27:49Z</time>
      </trkpt>
      <trkpt lat="39.3499130" lon="-0.7377300">
        <ele>239.0</ele>
        <time>2018-09-16T06:27:50Z</time>
      </trkpt>
      <trkpt lat="39.3499130" lon="-0.7377300">
        <ele>239.0</ele>
        <time>2018-09-16T06:27:51Z</time>
      </trkpt>
      <trkpt lat="39.3498550" lon="-0.7377820">
        <ele>239.0</ele>
        <time>2018-09-16T06:27:52Z</time>
      </trkpt>
      <trkpt lat="39.3498550" lon="-0.7377820">
        <ele>239.0</ele>
        <time>2018-09-16T06:27:53Z</time>
      </trkpt>
      <trkpt lat="39.3497950" lon="-0.7378350">
        <ele>239.0</ele>
        <time>2018-09-16T06:27:54Z</time>
      </trkpt>
      <trkpt lat="39.3497950" lon="-0.7378350">
        <ele>240.0</ele>
        <time>2018-09-16T06:27:55Z</time>
      </trkpt>
      <trkpt lat="39.3497370" lon="-0.7378880">
        <ele>240.0</ele>
        <time>2018-09-16T06:27:56Z</time>
      </trkpt>
      <trkpt lat="39.3497370" lon="-0.7378880">
        <ele>240.0</ele>
        <time>2018-09-16T06:27:57Z</time>
      </trkpt>
      <trkpt lat="39.3496750" lon="-0.7379400">
        <ele>240.0</ele>
        <time>2018-09-16T06:27:58Z</time>
      </trkpt>
      <trkpt lat="39.3496750" lon="-0.7379400">
        <ele>240.0</ele>
        <time>2018-09-16T06:27:59Z</time>
      </trkpt>
      <trkpt lat="39.3496150" lon="-0.7379920">
        <ele>240.0</ele>
        <time>2018-09-16T06:28:00Z</time>
      </trkpt>
      <trkpt lat="39.3496150" lon="-0.7379920">
        <ele>240.0</ele>
        <time>2018-09-16T06:28:01Z</time>
      </trkpt>
      <trkpt lat="39.3495550" lon="-0.7380430">
        <ele>240.0</ele>
        <time>2018-09-16T06:28:02Z</time>
      </trkpt>
      <trkpt lat="39.3495550" lon="-0.7380430">
        <ele>240.0</ele>
        <time>2018-09-16T06:28:03Z</time>
      </trkpt>
      <trkpt lat="39.3494930" lon="-0.7380950">
        <ele>240.0</ele>
        <time>2018-09-16T06:28:04Z</time>
      </trkpt>
      <trkpt lat="39.3494930" lon="-0.7380950">
        <ele>240.0</ele>
        <time>2018-09-16T06:28:05Z</time>
      </trkpt>
      <trkpt lat="39.3494350" lon="-0.7381480">
        <ele>240.0</ele>
        <time>2018-09-16T06:28:06Z</time>
      </trkpt>
      <trkpt lat="39.3494350" lon="-0.7381480">
        <ele>240.0</ele>
        <time>2018-09-16T06:28:07Z</time>
      </trkpt>
      <trkpt lat="39.3493770" lon="-0.7382050">
        <ele>240.0</ele>
        <time>2018-09-16T06:28:08Z</time>
      </trkpt>
      <trkpt lat="39.3493770" lon="-0.7382050">
        <ele>240.0</ele>
        <time>2018-09-16T06:28:09Z</time>
      </trkpt>
      <trkpt lat="39.3493250" lon="-0.7382600">
        <ele>240.0</ele>
        <time>2018-09-16T06:28:10Z</time>
      </trkpt>
      <trkpt lat="39.3492980" lon="-0.7382880">
        <ele>241.0</ele>
        <time>2018-09-16T06:28:11Z</time>
      </trkpt>
      <trkpt lat="39.3492980" lon="-0.7382880">
        <ele>241.0</ele>
        <time>2018-09-16T06:28:12Z</time>
      </trkpt>
      <trkpt lat="39.3492470" lon="-0.7383430">
        <ele>241.0</ele>
        <time>2018-09-16T06:28:13Z</time>
      </trkpt>
      <trkpt lat="39.3492220" lon="-0.7383700">
        <ele>241.0</ele>
        <time>2018-09-16T06:28:14Z</time>
      </trkpt>
      <trkpt lat="39.3492220" lon="-0.7383700">
        <ele>242.0</ele>
        <time>2018-09-16T06:28:15Z</time>
      </trkpt>
      <trkpt lat="39.3491680" lon="-0.7384100">
        <ele>242.0</ele>
        <time>2018-09-16T06:28:16Z</time>
      </trkpt>
      <trkpt lat="39.3491680" lon="-0.7384100">
        <ele>242.0</ele>
        <time>2018-09-16T06:28:17Z</time>
      </trkpt>
      <trkpt lat="39.3491150" lon="-0.7384330">
        <ele>242.0</ele>
        <time>2018-09-16T06:28:18Z</time>
      </trkpt>
      <trkpt lat="39.3491150" lon="-0.7384330">
        <ele>242.0</ele>
        <time>2018-09-16T06:28:19Z</time>
      </trkpt>
      <trkpt lat="39.3490580" lon="-0.7384580">
        <ele>242.0</ele>
        <time>2018-09-16T06:28:20Z</time>
      </trkpt>
      <trkpt lat="39.3490580" lon="-0.7384580">
        <ele>242.0</ele>
        <time>2018-09-16T06:28:21Z</time>
      </trkpt>
      <trkpt lat="39.3489950" lon="-0.7384870">
        <ele>242.0</ele>
        <time>2018-09-16T06:28:22Z</time>
      </trkpt>
      <trkpt lat="39.3489630" lon="-0.7384980">
        <ele>243.0</ele>
        <time>2018-09-16T06:28:23Z</time>
      </trkpt>
      <trkpt lat="39.3489280" lon="-0.7385070">
        <ele>243.0</ele>
        <time>2018-09-16T06:28:24Z</time>
      </trkpt>
      <trkpt lat="39.3489280" lon="-0.7385070">
        <ele>243.0</ele>
        <time>2018-09-16T06:28:25Z</time>
      </trkpt>
      <trkpt lat="39.3488580" lon="-0.7385150">
        <ele>243.0</ele>
        <time>2018-09-16T06:28:26Z</time>
      </trkpt>
      <trkpt lat="39.3488580" lon="-0.7385150">
        <ele>244.0</ele>
        <time>2018-09-16T06:28:27Z</time>
      </trkpt>
      <trkpt lat="39.3487900" lon="-0.7385200">
        <ele>244.0</ele>
        <time>2018-09-16T06:28:28Z</time>
      </trkpt>
      <trkpt lat="39.3487900" lon="-0.7385200">
        <ele>244.0</ele>
        <time>2018-09-16T06:28:29Z</time>
      </trkpt>
      <trkpt lat="39.3487200" lon="-0.7385220">
        <ele>244.0</ele>
        <time>2018-09-16T06:28:30Z</time>
      </trkpt>
      <trkpt lat="39.3487200" lon="-0.7385220">
        <ele>244.0</ele>
        <time>2018-09-16T06:28:31Z</time>
      </trkpt>
      <trkpt lat="39.3486480" lon="-0.7385280">
        <ele>244.0</ele>
        <time>2018-09-16T06:28:32Z</time>
      </trkpt>
      <trkpt lat="39.3486480" lon="-0.7385280">
        <ele>244.0</ele>
        <time>2018-09-16T06:28:33Z</time>
      </trkpt>
      <trkpt lat="39.3485730" lon="-0.7385320">
        <ele>245.0</ele>
        <time>2018-09-16T06:28:34Z</time>
      </trkpt>
      <trkpt lat="39.3485730" lon="-0.7385320">
        <ele>245.0</ele>
        <time>2018-09-16T06:28:35Z</time>
      </trkpt>
      <trkpt lat="39.3484930" lon="-0.7385350">
        <ele>245.0</ele>
        <time>2018-09-16T06:28:36Z</time>
      </trkpt>
      <trkpt lat="39.3484930" lon="-0.7385350">
        <ele>245.0</ele>
        <time>2018-09-16T06:28:37Z</time>
      </trkpt>
      <trkpt lat="39.3484130" lon="-0.7385330">
        <ele>245.0</ele>
        <time>2018-09-16T06:28:38Z</time>
      </trkpt>
      <trkpt lat="39.3484130" lon="-0.7385330">
        <ele>245.0</ele>
        <time>2018-09-16T06:28:39Z</time>
      </trkpt>
      <trkpt lat="39.3483330" lon="-0.7385320">
        <ele>245.0</ele>
        <time>2018-09-16T06:28:40Z</time>
      </trkpt>
      <trkpt lat="39.3483330" lon="-0.7385320">
        <ele>245.0</ele>
        <time>2018-09-16T06:28:41Z</time>
      </trkpt>
      <trkpt lat="39.3482530" lon="-0.7385280">
        <ele>245.0</ele>
        <time>2018-09-16T06:28:42Z</time>
      </trkpt>
      <trkpt lat="39.3482530" lon="-0.7385280">
        <ele>245.0</ele>
        <time>2018-09-16T06:28:43Z</time>
      </trkpt>
      <trkpt lat="39.3481750" lon="-0.7385220">
        <ele>245.0</ele>
        <time>2018-09-16T06:28:44Z</time>
      </trkpt>
      <trkpt lat="39.3481750" lon="-0.7385220">
        <ele>245.0</ele>
        <time>2018-09-16T06:28:45Z</time>
      </trkpt>
      <trkpt lat="39.3480970" lon="-0.7385200">
        <ele>245.0</ele>
        <time>2018-09-16T06:28:46Z</time>
      </trkpt>
      <trkpt lat="39.3480970" lon="-0.7385200">
        <ele>245.0</ele>
        <time>2018-09-16T06:28:47Z</time>
      </trkpt>
      <trkpt lat="39.3480220" lon="-0.7385200">
        <ele>246.0</ele>
        <time>2018-09-16T06:28:48Z</time>
      </trkpt>
      <trkpt lat="39.3480220" lon="-0.7385200">
        <ele>246.0</ele>
        <time>2018-09-16T06:28:49Z</time>
      </trkpt>
      <trkpt lat="39.3479430" lon="-0.7385280">
        <ele>246.0</ele>
        <time>2018-09-16T06:28:50Z</time>
      </trkpt>
      <trkpt lat="39.3479430" lon="-0.7385280">
        <ele>246.0</ele>
        <time>2018-09-16T06:28:51Z</time>
      </trkpt>
      <trkpt lat="39.3478680" lon="-0.7385430">
        <ele>247.0</ele>
        <time>2018-09-16T06:28:52Z</time>
      </trkpt>
      <trkpt lat="39.3478330" lon="-0.7385550">
        <ele>247.0</ele>
        <time>2018-09-16T06:28:53Z</time>
      </trkpt>
      <trkpt lat="39.3477980" lon="-0.7385650">
        <ele>248.0</ele>
        <time>2018-09-16T06:28:54Z</time>
      </trkpt>
      <trkpt lat="39.3477980" lon="-0.7385650">
        <ele>248.0</ele>
        <time>2018-09-16T06:28:55Z</time>
      </trkpt>
      <trkpt lat="39.3477330" lon="-0.7385930">
        <ele>248.0</ele>
        <time>2018-09-16T06:28:56Z</time>
      </trkpt>
      <trkpt lat="39.3477330" lon="-0.7385930">
        <ele>249.0</ele>
        <time>2018-09-16T06:28:57Z</time>
      </trkpt>
      <trkpt lat="39.3476670" lon="-0.7386200">
        <ele>249.0</ele>
        <time>2018-09-16T06:28:58Z</time>
      </trkpt>
      <trkpt lat="39.3476670" lon="-0.7386200">
        <ele>249.0</ele>
        <time>2018-09-16T06:28:59Z</time>
      </trkpt>
      <trkpt lat="39.3476000" lon="-0.7386370">
        <ele>249.0</ele>
        <time>2018-09-16T06:29:00Z</time>
      </trkpt>
      <trkpt lat="39.3476000" lon="-0.7386370">
        <ele>250.0</ele>
        <time>2018-09-16T06:29:01Z</time>
      </trkpt>
      <trkpt lat="39.3475280" lon="-0.7386600">
        <ele>250.0</ele>
        <time>2018-09-16T06:29:02Z</time>
      </trkpt>
      <trkpt lat="39.3474930" lon="-0.7386630">
        <ele>250.0</ele>
        <time>2018-09-16T06:29:03Z</time>
      </trkpt>
      <trkpt lat="39.3474930" lon="-0.7386630">
        <ele>250.0</ele>
        <time>2018-09-16T06:29:04Z</time>
      </trkpt>
      <trkpt lat="39.3474230" lon="-0.7386670">
        <ele>251.0</ele>
        <time>2018-09-16T06:29:05Z</time>
      </trkpt>
      <trkpt lat="39.3473900" lon="-0.7386630">
        <ele>251.0</ele>
        <time>2018-09-16T06:29:06Z</time>
      </trkpt>
      <trkpt lat="39.3473900" lon="-0.7386630">
        <ele>251.0</ele>
        <time>2018-09-16T06:29:07Z</time>
      </trkpt>
      <trkpt lat="39.3473250" lon="-0.7386370">
        <ele>251.0</ele>
        <time>2018-09-16T06:29:08Z</time>
      </trkpt>
      <trkpt lat="39.3473250" lon="-0.7386370">
        <ele>253.0</ele>
        <time>2018-09-16T06:29:09Z</time>
      </trkpt>
      <trkpt lat="39.3472750" lon="-0.7385770">
        <ele>253.0</ele>
        <time>2018-09-16T06:29:10Z</time>
      </trkpt>
      <trkpt lat="39.3472750" lon="-0.7385770">
        <ele>253.0</ele>
        <time>2018-09-16T06:29:11Z</time>
      </trkpt>
      <trkpt lat="39.3472330" lon="-0.7384970">
        <ele>253.0</ele>
        <time>2018-09-16T06:29:12Z</time>
      </trkpt>
      <trkpt lat="39.3472330" lon="-0.7384970">
        <ele>253.0</ele>
        <time>2018-09-16T06:29:13Z</time>
      </trkpt>
      <trkpt lat="39.3471780" lon="-0.7384230">
        <ele>253.0</ele>
        <time>2018-09-16T06:29:14Z</time>
      </trkpt>
      <trkpt lat="39.3471780" lon="-0.7384230">
        <ele>253.0</ele>
        <time>2018-09-16T06:29:15Z</time>
      </trkpt>
      <trkpt lat="39.3471070" lon="-0.7383980">
        <ele>253.0</ele>
        <time>2018-09-16T06:29:16Z</time>
      </trkpt>
      <trkpt lat="39.3471070" lon="-0.7383980">
        <ele>253.0</ele>
        <time>2018-09-16T06:29:17Z</time>
      </trkpt>
      <trkpt lat="39.3470300" lon="-0.7383850">
        <ele>253.0</ele>
        <time>2018-09-16T06:29:18Z</time>
      </trkpt>
      <trkpt lat="39.3470300" lon="-0.7383850">
        <ele>253.0</ele>
        <time>2018-09-16T06:29:19Z</time>
      </trkpt>
      <trkpt lat="39.3469570" lon="-0.7383780">
        <ele>253.0</ele>
        <time>2018-09-16T06:29:20Z</time>
      </trkpt>
      <trkpt lat="39.3469570" lon="-0.7383780">
        <ele>253.0</ele>
        <time>2018-09-16T06:29:21Z</time>
      </trkpt>
      <trkpt lat="39.3468800" lon="-0.7383720">
        <ele>253.0</ele>
        <time>2018-09-16T06:29:22Z</time>
      </trkpt>
      <trkpt lat="39.3468430" lon="-0.7383670">
        <ele>253.0</ele>
        <time>2018-09-16T06:29:23Z</time>
      </trkpt>
      <trkpt lat="39.3468070" lon="-0.7383620">
        <ele>253.0</ele>
        <time>2018-09-16T06:29:24Z</time>
      </trkpt>
      <trkpt lat="39.3468070" lon="-0.7383620">
        <ele>253.0</ele>
        <time>2018-09-16T06:29:25Z</time>
      </trkpt>
      <trkpt lat="39.3467330" lon="-0.7383530">
        <ele>254.0</ele>
        <time>2018-09-16T06:29:26Z</time>
      </trkpt>
      <trkpt lat="39.3467330" lon="-0.7383530">
        <ele>254.0</ele>
        <time>2018-09-16T06:29:27Z</time>
      </trkpt>
      <trkpt lat="39.3466620" lon="-0.7383450">
        <ele>254.0</ele>
        <time>2018-09-16T06:29:28Z</time>
      </trkpt>
      <trkpt lat="39.3466620" lon="-0.7383450">
        <ele>254.0</ele>
        <time>2018-09-16T06:29:29Z</time>
      </trkpt>
      <trkpt lat="39.3465920" lon="-0.7383330">
        <ele>255.0</ele>
        <time>2018-09-16T06:29:30Z</time>
      </trkpt>
      <trkpt lat="39.3465920" lon="-0.7383330">
        <ele>255.0</ele>
        <time>2018-09-16T06:29:31Z</time>
      </trkpt>
      <trkpt lat="39.3465250" lon="-0.7383130">
        <ele>255.0</ele>
        <time>2018-09-16T06:29:32Z</time>
      </trkpt>
      <trkpt lat="39.3465250" lon="-0.7383130">
        <ele>255.0</ele>
        <time>2018-09-16T06:29:33Z</time>
      </trkpt>
      <trkpt lat="39.3464630" lon="-0.7382820">
        <ele>255.0</ele>
        <time>2018-09-16T06:29:34Z</time>
      </trkpt>
      <trkpt lat="39.3464630" lon="-0.7382820">
        <ele>255.0</ele>
        <time>2018-09-16T06:29:35Z</time>
      </trkpt>
      <trkpt lat="39.3464170" lon="-0.7382200">
        <ele>255.0</ele>
        <time>2018-09-16T06:29:36Z</time>
      </trkpt>
      <trkpt lat="39.3464170" lon="-0.7382200">
        <ele>255.0</ele>
        <time>2018-09-16T06:29:37Z</time>
      </trkpt>
      <trkpt lat="39.3463620" lon="-0.7381480">
        <ele>255.0</ele>
        <time>2018-09-16T06:29:38Z</time>
      </trkpt>
      <trkpt lat="39.3463620" lon="-0.7381480">
        <ele>255.0</ele>
        <time>2018-09-16T06:29:39Z</time>
      </trkpt>
      <trkpt lat="39.3462930" lon="-0.7380980">
        <ele>256.0</ele>
        <time>2018-09-16T06:29:40Z</time>
      </trkpt>
      <trkpt lat="39.3462930" lon="-0.7380980">
        <ele>256.0</ele>
        <time>2018-09-16T06:29:41Z</time>
      </trkpt>
      <trkpt lat="39.3462150" lon="-0.7380880">
        <ele>256.0</ele>
        <time>2018-09-16T06:29:42Z</time>
      </trkpt>
      <trkpt lat="39.3462150" lon="-0.7380880">
        <ele>256.0</ele>
        <time>2018-09-16T06:29:43Z</time>
      </trkpt>
      <trkpt lat="39.3461370" lon="-0.7380970">
        <ele>256.0</ele>
        <time>2018-09-16T06:29:44Z</time>
      </trkpt>
      <trkpt lat="39.3461370" lon="-0.7380970">
        <ele>256.0</ele>
        <time>2018-09-16T06:29:45Z</time>
      </trkpt>
      <trkpt lat="39.3460650" lon="-0.7380980">
        <ele>256.0</ele>
        <time>2018-09-16T06:29:46Z</time>
      </trkpt>
      <trkpt lat="39.3460650" lon="-0.7380980">
        <ele>256.0</ele>
        <time>2018-09-16T06:29:47Z</time>
      </trkpt>
      <trkpt lat="39.3459920" lon="-0.7380980">
        <ele>256.0</ele>
        <time>2018-09-16T06:29:48Z</time>
      </trkpt>
      <trkpt lat="39.3459920" lon="-0.7380980">
        <ele>256.0</ele>
        <time>2018-09-16T06:29:49Z</time>
      </trkpt>
      <trkpt lat="39.3459180" lon="-0.7381050">
        <ele>256.0</ele>
        <time>2018-09-16T06:29:50Z</time>
      </trkpt>
      <trkpt lat="39.3458780" lon="-0.7381120">
        <ele>256.0</ele>
        <time>2018-09-16T06:29:51Z</time>
      </trkpt>
      <trkpt lat="39.3458780" lon="-0.7381120">
        <ele>256.0</ele>
        <time>2018-09-16T06:29:52Z</time>
      </trkpt>
      <trkpt lat="39.3457970" lon="-0.7381280">
        <ele>256.0</ele>
        <time>2018-09-16T06:29:53Z</time>
      </trkpt>
      <trkpt lat="39.3457550" lon="-0.7381280">
        <ele>256.0</ele>
        <time>2018-09-16T06:29:54Z</time>
      </trkpt>
      <trkpt lat="39.3457550" lon="-0.7381280">
        <ele>256.0</ele>
        <time>2018-09-16T06:29:55Z</time>
      </trkpt>
      <trkpt lat="39.3456680" lon="-0.7381070">
        <ele>256.0</ele>
        <time>2018-09-16T06:29:56Z</time>
      </trkpt>
      <trkpt lat="39.3456680" lon="-0.7381070">
        <ele>256.0</ele>
        <time>2018-09-16T06:29:57Z</time>
      </trkpt>
      <trkpt lat="39.3455970" lon="-0.7380520">
        <ele>256.0</ele>
        <time>2018-09-16T06:29:58Z</time>
      </trkpt>
      <trkpt lat="39.3455970" lon="-0.7380520">
        <ele>256.0</ele>
        <time>2018-09-16T06:29:59Z</time>
      </trkpt>
      <trkpt lat="39.3455370" lon="-0.7379730">
        <ele>256.0</ele>
        <time>2018-09-16T06:30:00Z</time>
      </trkpt>
      <trkpt lat="39.3455370" lon="-0.7379730">
        <ele>256.0</ele>
        <time>2018-09-16T06:30:01Z</time>
      </trkpt>
      <trkpt lat="39.3454820" lon="-0.7378780">
        <ele>256.0</ele>
        <time>2018-09-16T06:30:02Z</time>
      </trkpt>
      <trkpt lat="39.3454820" lon="-0.7378780">
        <ele>256.0</ele>
        <time>2018-09-16T06:30:03Z</time>
      </trkpt>
      <trkpt lat="39.3454330" lon="-0.7377880">
        <ele>256.0</ele>
        <time>2018-09-16T06:30:04Z</time>
      </trkpt>
      <trkpt lat="39.3454330" lon="-0.7377880">
        <ele>256.0</ele>
        <time>2018-09-16T06:30:05Z</time>
      </trkpt>
      <trkpt lat="39.3453780" lon="-0.7377180">
        <ele>256.0</ele>
        <time>2018-09-16T06:30:06Z</time>
      </trkpt>
      <trkpt lat="39.3453780" lon="-0.7377180">
        <ele>256.0</ele>
        <time>2018-09-16T06:30:07Z</time>
      </trkpt>
      <trkpt lat="39.3453250" lon="-0.7376600">
        <ele>256.0</ele>
        <time>2018-09-16T06:30:08Z</time>
      </trkpt>
      <trkpt lat="39.3453250" lon="-0.7376600">
        <ele>257.0</ele>
        <time>2018-09-16T06:30:09Z</time>
      </trkpt>
      <trkpt lat="39.3452720" lon="-0.7376020">
        <ele>257.0</ele>
        <time>2018-09-16T06:30:10Z</time>
      </trkpt>
      <trkpt lat="39.3452720" lon="-0.7376020">
        <ele>257.0</ele>
        <time>2018-09-16T06:30:11Z</time>
      </trkpt>
      <trkpt lat="39.3452130" lon="-0.7375370">
        <ele>257.0</ele>
        <time>2018-09-16T06:30:12Z</time>
      </trkpt>
      <trkpt lat="39.3452130" lon="-0.7375370">
        <ele>257.0</ele>
        <time>2018-09-16T06:30:13Z</time>
      </trkpt>
      <trkpt lat="39.3451470" lon="-0.7374780">
        <ele>257.0</ele>
        <time>2018-09-16T06:30:14Z</time>
      </trkpt>
      <trkpt lat="39.3451150" lon="-0.7374520">
        <ele>257.0</ele>
        <time>2018-09-16T06:30:15Z</time>
      </trkpt>
      <trkpt lat="39.3450830" lon="-0.7374230">
        <ele>257.0</ele>
        <time>2018-09-16T06:30:16Z</time>
      </trkpt>
      <trkpt lat="39.3450500" lon="-0.7373950">
        <ele>257.0</ele>
        <time>2018-09-16T06:30:17Z</time>
      </trkpt>
      <trkpt lat="39.3450500" lon="-0.7373950">
        <ele>257.0</ele>
        <time>2018-09-16T06:30:18Z</time>
      </trkpt>
      <trkpt lat="39.3449870" lon="-0.7373420">
        <ele>257.0</ele>
        <time>2018-09-16T06:30:19Z</time>
      </trkpt>
      <trkpt lat="39.3449520" lon="-0.7373180">
        <ele>257.0</ele>
        <time>2018-09-16T06:30:20Z</time>
      </trkpt>
      <trkpt lat="39.3449520" lon="-0.7373180">
        <ele>257.0</ele>
        <time>2018-09-16T06:30:21Z</time>
      </trkpt>
      <trkpt lat="39.3448870" lon="-0.7372630">
        <ele>257.0</ele>
        <time>2018-09-16T06:30:22Z</time>
      </trkpt>
      <trkpt lat="39.3448870" lon="-0.7372630">
        <ele>257.0</ele>
        <time>2018-09-16T06:30:23Z</time>
      </trkpt>
      <trkpt lat="39.3448250" lon="-0.7372070">
        <ele>257.0</ele>
        <time>2018-09-16T06:30:24Z</time>
      </trkpt>
      <trkpt lat="39.3447970" lon="-0.7371770">
        <ele>257.0</ele>
        <time>2018-09-16T06:30:25Z</time>
      </trkpt>
      <trkpt lat="39.3447970" lon="-0.7371770">
        <ele>257.0</ele>
        <time>2018-09-16T06:30:26Z</time>
      </trkpt>
      <trkpt lat="39.3447450" lon="-0.7371180">
        <ele>257.0</ele>
        <time>2018-09-16T06:30:27Z</time>
      </trkpt>
      <trkpt lat="39.3447450" lon="-0.7371180">
        <ele>257.0</ele>
        <time>2018-09-16T06:30:28Z</time>
      </trkpt>
      <trkpt lat="39.3446980" lon="-0.7370600">
        <ele>257.0</ele>
        <time>2018-09-16T06:30:29Z</time>
      </trkpt>
      <trkpt lat="39.3446750" lon="-0.7370330">
        <ele>257.0</ele>
        <time>2018-09-16T06:30:30Z</time>
      </trkpt>
      <trkpt lat="39.3446750" lon="-0.7370330">
        <ele>257.0</ele>
        <time>2018-09-16T06:30:31Z</time>
      </trkpt>
      <trkpt lat="39.3446380" lon="-0.7369800">
        <ele>257.0</ele>
        <time>2018-09-16T06:30:32Z</time>
      </trkpt>
      <trkpt lat="39.3446380" lon="-0.7369800">
        <ele>258.0</ele>
        <time>2018-09-16T06:30:33Z</time>
      </trkpt>
      <trkpt lat="39.3446020" lon="-0.7369350">
        <ele>258.0</ele>
        <time>2018-09-16T06:30:34Z</time>
      </trkpt>
      <trkpt lat="39.3446020" lon="-0.7369350">
        <ele>259.0</ele>
        <time>2018-09-16T06:30:35Z</time>
      </trkpt>
      <trkpt lat="39.3445670" lon="-0.7368830">
        <ele>259.0</ele>
        <time>2018-09-16T06:30:36Z</time>
      </trkpt>
      <trkpt lat="39.3445670" lon="-0.7368830">
        <ele>259.0</ele>
        <time>2018-09-16T06:30:37Z</time>
      </trkpt>
      <trkpt lat="39.3445280" lon="-0.7368370">
        <ele>259.0</ele>
        <time>2018-09-16T06:30:38Z</time>
      </trkpt>
      <trkpt lat="39.3445280" lon="-0.7368370">
        <ele>259.0</ele>
        <time>2018-09-16T06:30:39Z</time>
      </trkpt>
      <trkpt lat="39.3444850" lon="-0.7367970">
        <ele>259.0</ele>
        <time>2018-09-16T06:30:40Z</time>
      </trkpt>
      <trkpt lat="39.3444850" lon="-0.7367970">
        <ele>260.0</ele>
        <time>2018-09-16T06:30:41Z</time>
      </trkpt>
      <trkpt lat="39.3444500" lon="-0.7367600">
        <ele>260.0</ele>
        <time>2018-09-16T06:30:42Z</time>
      </trkpt>
      <trkpt lat="39.3444350" lon="-0.7367360">
        <ele>260.0</ele>
        <time>2018-09-16T06:30:43Z</time>
      </trkpt>
      <trkpt lat="39.3444200" lon="-0.7367120">
        <ele>260.0</ele>
        <time>2018-09-16T06:30:44Z</time>
      </trkpt>
      <trkpt lat="39.3444200" lon="-0.7367120">
        <ele>261.0</ele>
        <time>2018-09-16T06:30:45Z</time>
      </trkpt>
      <trkpt lat="39.3443830" lon="-0.7366870">
        <ele>261.0</ele>
        <time>2018-09-16T06:30:46Z</time>
      </trkpt>
      <trkpt lat="39.3443830" lon="-0.7366870">
        <ele>261.0</ele>
        <time>2018-09-16T06:30:47Z</time>
      </trkpt>
      <trkpt lat="39.3443480" lon="-0.7366700">
        <ele>261.0</ele>
        <time>2018-09-16T06:30:48Z</time>
      </trkpt>
      <trkpt lat="39.3443280" lon="-0.7366720">
        <ele>261.0</ele>
        <time>2018-09-16T06:30:49Z</time>
      </trkpt>
      <trkpt lat="39.3443080" lon="-0.7366770">
        <ele>261.0</ele>
        <time>2018-09-16T06:30:50Z</time>
      </trkpt>
      <trkpt lat="39.3443080" lon="-0.7366770">
        <ele>262.0</ele>
        <time>2018-09-16T06:30:51Z</time>
      </trkpt>
      <trkpt lat="39.3442750" lon="-0.7366850">
        <ele>262.0</ele>
        <time>2018-09-16T06:30:52Z</time>
      </trkpt>
      <trkpt lat="39.3442750" lon="-0.7366850">
        <ele>262.0</ele>
        <time>2018-09-16T06:30:53Z</time>
      </trkpt>
      <trkpt lat="39.3442320" lon="-0.7366870">
        <ele>263.0</ele>
        <time>2018-09-16T06:30:54Z</time>
      </trkpt>
      <trkpt lat="39.3442130" lon="-0.7366870">
        <ele>263.0</ele>
        <time>2018-09-16T06:30:55Z</time>
      </trkpt>
      <trkpt lat="39.3441930" lon="-0.7366870">
        <ele>263.0</ele>
        <time>2018-09-16T06:30:56Z</time>
      </trkpt>
      <trkpt lat="39.3441930" lon="-0.7366870">
        <ele>263.0</ele>
        <time>2018-09-16T06:30:57Z</time>
      </trkpt>
      <trkpt lat="39.3441580" lon="-0.7366830">
        <ele>264.0</ele>
        <time>2018-09-16T06:30:58Z</time>
      </trkpt>
      <trkpt lat="39.3441400" lon="-0.7366800">
        <ele>264.0</ele>
        <time>2018-09-16T06:30:59Z</time>
      </trkpt>
      <trkpt lat="39.3441170" lon="-0.7366720">
        <ele>264.0</ele>
        <time>2018-09-16T06:31:00Z</time>
      </trkpt>
      <trkpt lat="39.3441170" lon="-0.7366720">
        <ele>264.0</ele>
        <time>2018-09-16T06:31:01Z</time>
      </trkpt>
      <trkpt lat="39.3440750" lon="-0.7366500">
        <ele>265.0</ele>
        <time>2018-09-16T06:31:02Z</time>
      </trkpt>
      <trkpt lat="39.3440750" lon="-0.7366500">
        <ele>265.0</ele>
        <time>2018-09-16T06:31:03Z</time>
      </trkpt>
      <trkpt lat="39.3440370" lon="-0.7366270">
        <ele>265.0</ele>
        <time>2018-09-16T06:31:04Z</time>
      </trkpt>
      <trkpt lat="39.3440370" lon="-0.7366270">
        <ele>265.0</ele>
        <time>2018-09-16T06:31:05Z</time>
      </trkpt>
      <trkpt lat="39.3439880" lon="-0.7366020">
        <ele>266.0</ele>
        <time>2018-09-16T06:31:06Z</time>
      </trkpt>
      <trkpt lat="39.3439880" lon="-0.7366020">
        <ele>266.0</ele>
        <time>2018-09-16T06:31:07Z</time>
      </trkpt>
      <trkpt lat="39.3439420" lon="-0.7365830">
        <ele>266.0</ele>
        <time>2018-09-16T06:31:08Z</time>
      </trkpt>
      <trkpt lat="39.3439180" lon="-0.7365780">
        <ele>266.0</ele>
        <time>2018-09-16T06:31:09Z</time>
      </trkpt>
      <trkpt lat="39.3439180" lon="-0.7365780">
        <ele>266.0</ele>
        <time>2018-09-16T06:31:10Z</time>
      </trkpt>
      <trkpt lat="39.3438680" lon="-0.7365910">
        <ele>266.0</ele>
        <time>2018-09-16T06:31:11Z</time>
      </trkpt>
      <trkpt lat="39.3438580" lon="-0.7365950">
        <ele>267.0</ele>
        <time>2018-09-16T06:31:12Z</time>
      </trkpt>
      <trkpt lat="39.3438580" lon="-0.7365950">
        <ele>267.0</ele>
        <time>2018-09-16T06:31:13Z</time>
      </trkpt>
      <trkpt lat="39.3438200" lon="-0.7366200">
        <ele>267.0</ele>
        <time>2018-09-16T06:31:14Z</time>
      </trkpt>
      <trkpt lat="39.3438200" lon="-0.7366200">
        <ele>267.0</ele>
        <time>2018-09-16T06:31:15Z</time>
      </trkpt>
      <trkpt lat="39.3437970" lon="-0.7366450">
        <ele>269.0</ele>
        <time>2018-09-16T06:31:16Z</time>
      </trkpt>
      <trkpt lat="39.3437880" lon="-0.7366600">
        <ele>269.0</ele>
        <time>2018-09-16T06:31:17Z</time>
      </trkpt>
      <trkpt lat="39.3437880" lon="-0.7366600">
        <ele>269.0</ele>
        <time>2018-09-16T06:31:18Z</time>
      </trkpt>
      <trkpt lat="39.3437630" lon="-0.7366870">
        <ele>269.0</ele>
        <time>2018-09-16T06:31:19Z</time>
      </trkpt>
      <trkpt lat="39.3437520" lon="-0.7366980">
        <ele>269.0</ele>
        <time>2018-09-16T06:31:20Z</time>
      </trkpt>
      <trkpt lat="39.3437520" lon="-0.7366980">
        <ele>270.0</ele>
        <time>2018-09-16T06:31:21Z</time>
      </trkpt>
      <trkpt lat="39.3437270" lon="-0.7367220">
        <ele>270.0</ele>
        <time>2018-09-16T06:31:22Z</time>
      </trkpt>
      <trkpt lat="39.3437150" lon="-0.7367330">
        <ele>270.0</ele>
        <time>2018-09-16T06:31:23Z</time>
      </trkpt>
      <trkpt lat="39.3437030" lon="-0.7367470">
        <ele>270.0</ele>
        <time>2018-09-16T06:31:24Z</time>
      </trkpt>
      <trkpt lat="39.3437030" lon="-0.7367470">
        <ele>271.0</ele>
        <time>2018-09-16T06:31:25Z</time>
      </trkpt>
      <trkpt lat="39.3436800" lon="-0.7367730">
        <ele>271.0</ele>
        <time>2018-09-16T06:31:26Z</time>
      </trkpt>
      <trkpt lat="39.3436800" lon="-0.7367730">
        <ele>271.0</ele>
        <time>2018-09-16T06:31:27Z</time>
      </trkpt>
      <trkpt lat="39.3436580" lon="-0.7367980">
        <ele>271.0</ele>
        <time>2018-09-16T06:31:28Z</time>
      </trkpt>
      <trkpt lat="39.3436480" lon="-0.7368100">
        <ele>272.0</ele>
        <time>2018-09-16T06:31:29Z</time>
      </trkpt>
      <trkpt lat="39.3436380" lon="-0.7368230">
        <ele>272.0</ele>
        <time>2018-09-16T06:31:30Z</time>
      </trkpt>
      <trkpt lat="39.3436380" lon="-0.7368230">
        <ele>272.0</ele>
        <time>2018-09-16T06:31:31Z</time>
      </trkpt>
      <trkpt lat="39.3436180" lon="-0.7368430">
        <ele>272.0</ele>
        <time>2018-09-16T06:31:32Z</time>
      </trkpt>
      <trkpt lat="39.3436180" lon="-0.7368430">
        <ele>272.0</ele>
        <time>2018-09-16T06:31:33Z</time>
      </trkpt>
      <trkpt lat="39.3435980" lon="-0.7368670">
        <ele>272.0</ele>
        <time>2018-09-16T06:31:34Z</time>
      </trkpt>
      <trkpt lat="39.3435980" lon="-0.7368670">
        <ele>272.0</ele>
        <time>2018-09-16T06:31:35Z</time>
      </trkpt>
      <trkpt lat="39.3435800" lon="-0.7368900">
        <ele>272.0</ele>
        <time>2018-09-16T06:31:36Z</time>
      </trkpt>
      <trkpt lat="39.3435800" lon="-0.7368900">
        <ele>272.0</ele>
        <time>2018-09-16T06:31:37Z</time>
      </trkpt>
      <trkpt lat="39.3435580" lon="-0.7369120">
        <ele>274.0</ele>
        <time>2018-09-16T06:31:38Z</time>
      </trkpt>
      <trkpt lat="39.3435580" lon="-0.7369120">
        <ele>274.0</ele>
        <time>2018-09-16T06:31:39Z</time>
      </trkpt>
      <trkpt lat="39.3435380" lon="-0.7369350">
        <ele>274.0</ele>
        <time>2018-09-16T06:31:40Z</time>
      </trkpt>
      <trkpt lat="39.3435380" lon="-0.7369350">
        <ele>274.0</ele>
        <time>2018-09-16T06:31:41Z</time>
      </trkpt>
      <trkpt lat="39.3435170" lon="-0.7369550">
        <ele>275.0</ele>
        <time>2018-09-16T06:31:42Z</time>
      </trkpt>
      <trkpt lat="39.3435170" lon="-0.7369550">
        <ele>275.0</ele>
        <time>2018-09-16T06:31:43Z</time>
      </trkpt>
      <trkpt lat="39.3434920" lon="-0.7369750">
        <ele>275.0</ele>
        <time>2018-09-16T06:31:44Z</time>
      </trkpt>
      <trkpt lat="39.3434920" lon="-0.7369750">
        <ele>275.0</ele>
        <time>2018-09-16T06:31:45Z</time>
      </trkpt>
      <trkpt lat="39.3434680" lon="-0.7369950">
        <ele>276.0</ele>
        <time>2018-09-16T06:31:46Z</time>
      </trkpt>
      <trkpt lat="39.3434680" lon="-0.7369950">
        <ele>276.0</ele>
        <time>2018-09-16T06:31:47Z</time>
      </trkpt>
      <trkpt lat="39.3434470" lon="-0.7370100">
        <ele>277.0</ele>
        <time>2018-09-16T06:31:48Z</time>
      </trkpt>
      <trkpt lat="39.3434470" lon="-0.7370100">
        <ele>277.0</ele>
        <time>2018-09-16T06:31:49Z</time>
      </trkpt>
      <trkpt lat="39.3434280" lon="-0.7370230">
        <ele>277.0</ele>
        <time>2018-09-16T06:31:50Z</time>
      </trkpt>
      <trkpt lat="39.3434280" lon="-0.7370230">
        <ele>278.0</ele>
        <time>2018-09-16T06:31:51Z</time>
      </trkpt>
      <trkpt lat="39.3434080" lon="-0.7370380">
        <ele>278.0</ele>
        <time>2018-09-16T06:31:52Z</time>
      </trkpt>
      <trkpt lat="39.3434080" lon="-0.7370380">
        <ele>278.0</ele>
        <time>2018-09-16T06:31:53Z</time>
      </trkpt>
      <trkpt lat="39.3433900" lon="-0.7370530">
        <ele>278.0</ele>
        <time>2018-09-16T06:31:54Z</time>
      </trkpt>
      <trkpt lat="39.3433900" lon="-0.7370530">
        <ele>279.0</ele>
        <time>2018-09-16T06:31:55Z</time>
      </trkpt>
      <trkpt lat="39.3433700" lon="-0.7370670">
        <ele>279.0</ele>
        <time>2018-09-16T06:31:56Z</time>
      </trkpt>
      <trkpt lat="39.3433700" lon="-0.7370670">
        <ele>279.0</ele>
        <time>2018-09-16T06:31:57Z</time>
      </trkpt>
      <trkpt lat="39.3433520" lon="-0.7370850">
        <ele>279.0</ele>
        <time>2018-09-16T06:31:58Z</time>
      </trkpt>
      <trkpt lat="39.3433520" lon="-0.7370850">
        <ele>280.0</ele>
        <time>2018-09-16T06:31:59Z</time>
      </trkpt>
      <trkpt lat="39.3433320" lon="-0.7371030">
        <ele>280.0</ele>
        <time>2018-09-16T06:32:00Z</time>
      </trkpt>
      <trkpt lat="39.3433320" lon="-0.7371030">
        <ele>280.0</ele>
        <time>2018-09-16T06:32:01Z</time>
      </trkpt>
      <trkpt lat="39.3433080" lon="-0.7371170">
        <ele>280.0</ele>
        <time>2018-09-16T06:32:02Z</time>
      </trkpt>
      <trkpt lat="39.3433080" lon="-0.7371170">
        <ele>280.0</ele>
        <time>2018-09-16T06:32:03Z</time>
      </trkpt>
      <trkpt lat="39.3432830" lon="-0.7371280">
        <ele>280.0</ele>
        <time>2018-09-16T06:32:04Z</time>
      </trkpt>
      <trkpt lat="39.3432830" lon="-0.7371280">
        <ele>281.0</ele>
        <time>2018-09-16T06:32:05Z</time>
      </trkpt>
      <trkpt lat="39.3432630" lon="-0.7371430">
        <ele>281.0</ele>
        <time>2018-09-16T06:32:06Z</time>
      </trkpt>
      <trkpt lat="39.3432630" lon="-0.7371430">
        <ele>281.0</ele>
        <time>2018-09-16T06:32:07Z</time>
      </trkpt>
      <trkpt lat="39.3432380" lon="-0.7371570">
        <ele>281.0</ele>
        <time>2018-09-16T06:32:08Z</time>
      </trkpt>
      <trkpt lat="39.3432380" lon="-0.7371570">
        <ele>282.0</ele>
        <time>2018-09-16T06:32:09Z</time>
      </trkpt>
      <trkpt lat="39.3432150" lon="-0.7371680">
        <ele>282.0</ele>
        <time>2018-09-16T06:32:10Z</time>
      </trkpt>
      <trkpt lat="39.3432150" lon="-0.7371680">
        <ele>282.0</ele>
        <time>2018-09-16T06:32:11Z</time>
      </trkpt>
      <trkpt lat="39.3431930" lon="-0.7371830">
        <ele>282.0</ele>
        <time>2018-09-16T06:32:12Z</time>
      </trkpt>
      <trkpt lat="39.3431930" lon="-0.7371830">
        <ele>283.0</ele>
        <time>2018-09-16T06:32:13Z</time>
      </trkpt>
      <trkpt lat="39.3431750" lon="-0.7372000">
        <ele>283.0</ele>
        <time>2018-09-16T06:32:14Z</time>
      </trkpt>
      <trkpt lat="39.3431630" lon="-0.7372050">
        <ele>284.0</ele>
        <time>2018-09-16T06:32:15Z</time>
      </trkpt>
      <trkpt lat="39.3431630" lon="-0.7372050">
        <ele>284.0</ele>
        <time>2018-09-16T06:32:16Z</time>
      </trkpt>
      <trkpt lat="39.3431420" lon="-0.7372220">
        <ele>284.0</ele>
        <time>2018-09-16T06:32:17Z</time>
      </trkpt>
      <trkpt lat="39.3431300" lon="-0.7372300">
        <ele>285.0</ele>
        <time>2018-09-16T06:32:18Z</time>
      </trkpt>
      <trkpt lat="39.3431300" lon="-0.7372300">
        <ele>285.0</ele>
        <time>2018-09-16T06:32:19Z</time>
      </trkpt>
      <trkpt lat="39.3431080" lon="-0.7372470">
        <ele>285.0</ele>
        <time>2018-09-16T06:32:20Z</time>
      </trkpt>
      <trkpt lat="39.3431080" lon="-0.7372470">
        <ele>285.0</ele>
        <time>2018-09-16T06:32:21Z</time>
      </trkpt>
      <trkpt lat="39.3430850" lon="-0.7372620">
        <ele>285.0</ele>
        <time>2018-09-16T06:32:22Z</time>
      </trkpt>
      <trkpt lat="39.3430850" lon="-0.7372620">
        <ele>285.0</ele>
        <time>2018-09-16T06:32:23Z</time>
      </trkpt>
      <trkpt lat="39.3430620" lon="-0.7372800">
        <ele>285.0</ele>
        <time>2018-09-16T06:32:24Z</time>
      </trkpt>
      <trkpt lat="39.3430620" lon="-0.7372800">
        <ele>285.0</ele>
        <time>2018-09-16T06:32:25Z</time>
      </trkpt>
      <trkpt lat="39.3430380" lon="-0.7372930">
        <ele>286.0</ele>
        <time>2018-09-16T06:32:26Z</time>
      </trkpt>
      <trkpt lat="39.3430380" lon="-0.7372930">
        <ele>286.0</ele>
        <time>2018-09-16T06:32:27Z</time>
      </trkpt>
      <trkpt lat="39.3430130" lon="-0.7373070">
        <ele>286.0</ele>
        <time>2018-09-16T06:32:28Z</time>
      </trkpt>
      <trkpt lat="39.3430130" lon="-0.7373070">
        <ele>286.0</ele>
        <time>2018-09-16T06:32:29Z</time>
      </trkpt>
      <trkpt lat="39.3429920" lon="-0.7373220">
        <ele>287.0</ele>
        <time>2018-09-16T06:32:30Z</time>
      </trkpt>
      <trkpt lat="39.3429920" lon="-0.7373220">
        <ele>287.0</ele>
        <time>2018-09-16T06:32:31Z</time>
      </trkpt>
      <trkpt lat="39.3429680" lon="-0.7373420">
        <ele>287.0</ele>
        <time>2018-09-16T06:32:32Z</time>
      </trkpt>
      <trkpt lat="39.3429680" lon="-0.7373420">
        <ele>287.0</ele>
        <time>2018-09-16T06:32:33Z</time>
      </trkpt>
      <trkpt lat="39.3429430" lon="-0.7373600">
        <ele>288.0</ele>
        <time>2018-09-16T06:32:34Z</time>
      </trkpt>
      <trkpt lat="39.3429300" lon="-0.7373700">
        <ele>288.0</ele>
        <time>2018-09-16T06:32:35Z</time>
      </trkpt>
      <trkpt lat="39.3429180" lon="-0.7373780">
        <ele>288.0</ele>
        <time>2018-09-16T06:32:36Z</time>
      </trkpt>
      <trkpt lat="39.3429180" lon="-0.7373780">
        <ele>288.0</ele>
        <time>2018-09-16T06:32:37Z</time>
      </trkpt>
      <trkpt lat="39.3428950" lon="-0.7373930">
        <ele>288.0</ele>
        <time>2018-09-16T06:32:38Z</time>
      </trkpt>
      <trkpt lat="39.3428950" lon="-0.7373930">
        <ele>288.0</ele>
        <time>2018-09-16T06:32:39Z</time>
      </trkpt>
      <trkpt lat="39.3428700" lon="-0.7374050">
        <ele>289.0</ele>
        <time>2018-09-16T06:32:40Z</time>
      </trkpt>
      <trkpt lat="39.3428700" lon="-0.7374050">
        <ele>289.0</ele>
        <time>2018-09-16T06:32:41Z</time>
      </trkpt>
      <trkpt lat="39.3428450" lon="-0.7374230">
        <ele>289.0</ele>
        <time>2018-09-16T06:32:42Z</time>
      </trkpt>
      <trkpt lat="39.3428450" lon="-0.7374230">
        <ele>289.0</ele>
        <time>2018-09-16T06:32:43Z</time>
      </trkpt>
      <trkpt lat="39.3428170" lon="-0.7374450">
        <ele>289.0</ele>
        <time>2018-09-16T06:32:44Z</time>
      </trkpt>
      <trkpt lat="39.3428170" lon="-0.7374450">
        <ele>290.0</ele>
        <time>2018-09-16T06:32:45Z</time>
      </trkpt>
      <trkpt lat="39.3427870" lon="-0.7374600">
        <ele>290.0</ele>
        <time>2018-09-16T06:32:46Z</time>
      </trkpt>
      <trkpt lat="39.3427870" lon="-0.7374600">
        <ele>290.0</ele>
        <time>2018-09-16T06:32:47Z</time>
      </trkpt>
      <trkpt lat="39.3427580" lon="-0.7374730">
        <ele>291.0</ele>
        <time>2018-09-16T06:32:48Z</time>
      </trkpt>
      <trkpt lat="39.3427580" lon="-0.7374730">
        <ele>291.0</ele>
        <time>2018-09-16T06:32:49Z</time>
      </trkpt>
      <trkpt lat="39.3427300" lon="-0.7374870">
        <ele>291.0</ele>
        <time>2018-09-16T06:32:50Z</time>
      </trkpt>
      <trkpt lat="39.3427300" lon="-0.7374870">
        <ele>291.0</ele>
        <time>2018-09-16T06:32:51Z</time>
      </trkpt>
      <trkpt lat="39.3427020" lon="-0.7375000">
        <ele>292.0</ele>
        <time>2018-09-16T06:32:52Z</time>
      </trkpt>
      <trkpt lat="39.3427020" lon="-0.7375000">
        <ele>292.0</ele>
        <time>2018-09-16T06:32:53Z</time>
      </trkpt>
      <trkpt lat="39.3426750" lon="-0.7375130">
        <ele>292.0</ele>
        <time>2018-09-16T06:32:54Z</time>
      </trkpt>
      <trkpt lat="39.3426620" lon="-0.7375180">
        <ele>292.0</ele>
        <time>2018-09-16T06:32:55Z</time>
      </trkpt>
      <trkpt lat="39.3426480" lon="-0.7375230">
        <ele>293.0</ele>
        <time>2018-09-16T06:32:56Z</time>
      </trkpt>
      <trkpt lat="39.3426480" lon="-0.7375230">
        <ele>293.0</ele>
        <time>2018-09-16T06:32:57Z</time>
      </trkpt>
      <trkpt lat="39.3426200" lon="-0.7375370">
        <ele>293.0</ele>
        <time>2018-09-16T06:32:58Z</time>
      </trkpt>
      <trkpt lat="39.3426200" lon="-0.7375370">
        <ele>293.0</ele>
        <time>2018-09-16T06:32:59Z</time>
      </trkpt>
      <trkpt lat="39.3425930" lon="-0.7375500">
        <ele>294.0</ele>
        <time>2018-09-16T06:33:00Z</time>
      </trkpt>
      <trkpt lat="39.3425930" lon="-0.7375500">
        <ele>294.0</ele>
        <time>2018-09-16T06:33:01Z</time>
      </trkpt>
      <trkpt lat="39.3425630" lon="-0.7375580">
        <ele>294.0</ele>
        <time>2018-09-16T06:33:02Z</time>
      </trkpt>
      <trkpt lat="39.3425630" lon="-0.7375580">
        <ele>294.0</ele>
        <time>2018-09-16T06:33:03Z</time>
      </trkpt>
      <trkpt lat="39.3425350" lon="-0.7375720">
        <ele>295.0</ele>
        <time>2018-09-16T06:33:04Z</time>
      </trkpt>
      <trkpt lat="39.3425350" lon="-0.7375720">
        <ele>295.0</ele>
        <time>2018-09-16T06:33:05Z</time>
      </trkpt>
      <trkpt lat="39.3425070" lon="-0.7375800">
        <ele>295.0</ele>
        <time>2018-09-16T06:33:06Z</time>
      </trkpt>
      <trkpt lat="39.3425070" lon="-0.7375800">
        <ele>295.0</ele>
        <time>2018-09-16T06:33:07Z</time>
      </trkpt>
      <trkpt lat="39.3424770" lon="-0.7375880">
        <ele>295.0</ele>
        <time>2018-09-16T06:33:08Z</time>
      </trkpt>
      <trkpt lat="39.3424770" lon="-0.7375880">
        <ele>296.0</ele>
        <time>2018-09-16T06:33:09Z</time>
      </trkpt>
      <trkpt lat="39.3424500" lon="-0.7376020">
        <ele>296.0</ele>
        <time>2018-09-16T06:33:10Z</time>
      </trkpt>
      <trkpt lat="39.3424500" lon="-0.7376020">
        <ele>296.0</ele>
        <time>2018-09-16T06:33:11Z</time>
      </trkpt>
      <trkpt lat="39.3424220" lon="-0.7376130">
        <ele>296.0</ele>
        <time>2018-09-16T06:33:12Z</time>
      </trkpt>
      <trkpt lat="39.3424220" lon="-0.7376130">
        <ele>296.0</ele>
        <time>2018-09-16T06:33:13Z</time>
      </trkpt>
      <trkpt lat="39.3423920" lon="-0.7376230">
        <ele>297.0</ele>
        <time>2018-09-16T06:33:14Z</time>
      </trkpt>
      <trkpt lat="39.3423920" lon="-0.7376230">
        <ele>297.0</ele>
        <time>2018-09-16T06:33:15Z</time>
      </trkpt>
      <trkpt lat="39.3423620" lon="-0.7376350">
        <ele>297.0</ele>
        <time>2018-09-16T06:33:16Z</time>
      </trkpt>
      <trkpt lat="39.3423620" lon="-0.7376350">
        <ele>297.0</ele>
        <time>2018-09-16T06:33:17Z</time>
      </trkpt>
      <trkpt lat="39.3423320" lon="-0.7376470">
        <ele>297.0</ele>
        <time>2018-09-16T06:33:18Z</time>
      </trkpt>
      <trkpt lat="39.3423320" lon="-0.7376470">
        <ele>298.0</ele>
        <time>2018-09-16T06:33:19Z</time>
      </trkpt>
      <trkpt lat="39.3423030" lon="-0.7376530">
        <ele>298.0</ele>
        <time>2018-09-16T06:33:20Z</time>
      </trkpt>
      <trkpt lat="39.3423030" lon="-0.7376530">
        <ele>298.0</ele>
        <time>2018-09-16T06:33:21Z</time>
      </trkpt>
      <trkpt lat="39.3422750" lon="-0.7376650">
        <ele>298.0</ele>
        <time>2018-09-16T06:33:22Z</time>
      </trkpt>
      <trkpt lat="39.3422750" lon="-0.7376650">
        <ele>298.0</ele>
        <time>2018-09-16T06:33:23Z</time>
      </trkpt>
      <trkpt lat="39.3422500" lon="-0.7376820">
        <ele>298.0</ele>
        <time>2018-09-16T06:33:24Z</time>
      </trkpt>
      <trkpt lat="39.3422500" lon="-0.7376820">
        <ele>299.0</ele>
        <time>2018-09-16T06:33:25Z</time>
      </trkpt>
      <trkpt lat="39.3422230" lon="-0.7376870">
        <ele>299.0</ele>
        <time>2018-09-16T06:33:26Z</time>
      </trkpt>
      <trkpt lat="39.3422230" lon="-0.7376870">
        <ele>299.0</ele>
        <time>2018-09-16T06:33:27Z</time>
      </trkpt>
      <trkpt lat="39.3421970" lon="-0.7376950">
        <ele>299.0</ele>
        <time>2018-09-16T06:33:28Z</time>
      </trkpt>
      <trkpt lat="39.3421970" lon="-0.7376950">
        <ele>300.0</ele>
        <time>2018-09-16T06:33:29Z</time>
      </trkpt>
      <trkpt lat="39.3421720" lon="-0.7377050">
        <ele>300.0</ele>
        <time>2018-09-16T06:33:30Z</time>
      </trkpt>
      <trkpt lat="39.3421720" lon="-0.7377050">
        <ele>300.0</ele>
        <time>2018-09-16T06:33:31Z</time>
      </trkpt>
      <trkpt lat="39.3421470" lon="-0.7377150">
        <ele>300.0</ele>
        <time>2018-09-16T06:33:32Z</time>
      </trkpt>
      <trkpt lat="39.3421470" lon="-0.7377150">
        <ele>300.0</ele>
        <time>2018-09-16T06:33:33Z</time>
      </trkpt>
      <trkpt lat="39.3421220" lon="-0.7377200">
        <ele>300.0</ele>
        <time>2018-09-16T06:33:34Z</time>
      </trkpt>
      <trkpt lat="39.3421220" lon="-0.7377200">
        <ele>300.0</ele>
        <time>2018-09-16T06:33:35Z</time>
      </trkpt>
      <trkpt lat="39.3421000" lon="-0.7377230">
        <ele>300.0</ele>
        <time>2018-09-16T06:33:36Z</time>
      </trkpt>
      <trkpt lat="39.3421000" lon="-0.7377230">
        <ele>301.0</ele>
        <time>2018-09-16T06:33:37Z</time>
      </trkpt>
      <trkpt lat="39.3420800" lon="-0.7377270">
        <ele>301.0</ele>
        <time>2018-09-16T06:33:38Z</time>
      </trkpt>
      <trkpt lat="39.3420800" lon="-0.7377270">
        <ele>301.0</ele>
        <time>2018-09-16T06:33:39Z</time>
      </trkpt>
      <trkpt lat="39.3420630" lon="-0.7377350">
        <ele>301.0</ele>
        <time>2018-09-16T06:33:40Z</time>
      </trkpt>
      <trkpt lat="39.3420630" lon="-0.7377350">
        <ele>301.0</ele>
        <time>2018-09-16T06:33:41Z</time>
      </trkpt>
      <trkpt lat="39.3420470" lon="-0.7377550">
        <ele>301.0</ele>
        <time>2018-09-16T06:33:42Z</time>
      </trkpt>
      <trkpt lat="39.3420470" lon="-0.7377550">
        <ele>302.0</ele>
        <time>2018-09-16T06:33:43Z</time>
      </trkpt>
      <trkpt lat="39.3420220" lon="-0.7377630">
        <ele>302.0</ele>
        <time>2018-09-16T06:33:44Z</time>
      </trkpt>
      <trkpt lat="39.3420220" lon="-0.7377630">
        <ele>302.0</ele>
        <time>2018-09-16T06:33:45Z</time>
      </trkpt>
      <trkpt lat="39.3419930" lon="-0.7377670">
        <ele>303.0</ele>
        <time>2018-09-16T06:33:46Z</time>
      </trkpt>
      <trkpt lat="39.3419930" lon="-0.7377670">
        <ele>303.0</ele>
        <time>2018-09-16T06:33:47Z</time>
      </trkpt>
      <trkpt lat="39.3419670" lon="-0.7377720">
        <ele>303.0</ele>
        <time>2018-09-16T06:33:48Z</time>
      </trkpt>
      <trkpt lat="39.3419670" lon="-0.7377720">
        <ele>303.0</ele>
        <time>2018-09-16T06:33:49Z</time>
      </trkpt>
      <trkpt lat="39.3419400" lon="-0.7377680">
        <ele>304.0</ele>
        <time>2018-09-16T06:33:50Z</time>
      </trkpt>
      <trkpt lat="39.3419400" lon="-0.7377680">
        <ele>304.0</ele>
        <time>2018-09-16T06:33:51Z</time>
      </trkpt>
      <trkpt lat="39.3419130" lon="-0.7377670">
        <ele>304.0</ele>
        <time>2018-09-16T06:33:52Z</time>
      </trkpt>
      <trkpt lat="39.3419130" lon="-0.7377670">
        <ele>304.0</ele>
        <time>2018-09-16T06:33:53Z</time>
      </trkpt>
      <trkpt lat="39.3418880" lon="-0.7377670">
        <ele>304.0</ele>
        <time>2018-09-16T06:33:54Z</time>
      </trkpt>
      <trkpt lat="39.3418880" lon="-0.7377670">
        <ele>304.0</ele>
        <time>2018-09-16T06:33:55Z</time>
      </trkpt>
      <trkpt lat="39.3418630" lon="-0.7377670">
        <ele>305.0</ele>
        <time>2018-09-16T06:33:56Z</time>
      </trkpt>
      <trkpt lat="39.3418630" lon="-0.7377670">
        <ele>305.0</ele>
        <time>2018-09-16T06:33:57Z</time>
      </trkpt>
      <trkpt lat="39.3418370" lon="-0.7377670">
        <ele>305.0</ele>
        <time>2018-09-16T06:33:58Z</time>
      </trkpt>
      <trkpt lat="39.3418370" lon="-0.7377670">
        <ele>305.0</ele>
        <time>2018-09-16T06:33:59Z</time>
      </trkpt>
      <trkpt lat="39.3418080" lon="-0.7377580">
        <ele>306.0</ele>
        <time>2018-09-16T06:34:00Z</time>
      </trkpt>
      <trkpt lat="39.3418080" lon="-0.7377580">
        <ele>306.0</ele>
        <time>2018-09-16T06:34:01Z</time>
      </trkpt>
      <trkpt lat="39.3417830" lon="-0.7377500">
        <ele>306.0</ele>
        <time>2018-09-16T06:34:02Z</time>
      </trkpt>
      <trkpt lat="39.3417830" lon="-0.7377500">
        <ele>306.0</ele>
        <time>2018-09-16T06:34:03Z</time>
      </trkpt>
      <trkpt lat="39.3417580" lon="-0.7377450">
        <ele>308.0</ele>
        <time>2018-09-16T06:34:04Z</time>
      </trkpt>
      <trkpt lat="39.3417580" lon="-0.7377450">
        <ele>308.0</ele>
        <time>2018-09-16T06:34:05Z</time>
      </trkpt>
      <trkpt lat="39.3417330" lon="-0.7377370">
        <ele>308.0</ele>
        <time>2018-09-16T06:34:06Z</time>
      </trkpt>
      <trkpt lat="39.3417330" lon="-0.7377370">
        <ele>308.0</ele>
        <time>2018-09-16T06:34:07Z</time>
      </trkpt>
      <trkpt lat="39.3417120" lon="-0.7377270">
        <ele>309.0</ele>
        <time>2018-09-16T06:34:08Z</time>
      </trkpt>
      <trkpt lat="39.3417120" lon="-0.7377270">
        <ele>309.0</ele>
        <time>2018-09-16T06:34:09Z</time>
      </trkpt>
      <trkpt lat="39.3416870" lon="-0.7377170">
        <ele>309.0</ele>
        <time>2018-09-16T06:34:10Z</time>
      </trkpt>
      <trkpt lat="39.3416870" lon="-0.7377170">
        <ele>309.0</ele>
        <time>2018-09-16T06:34:11Z</time>
      </trkpt>
      <trkpt lat="39.3416580" lon="-0.7377100">
        <ele>309.0</ele>
        <time>2018-09-16T06:34:12Z</time>
      </trkpt>
      <trkpt lat="39.3416580" lon="-0.7377100">
        <ele>310.0</ele>
        <time>2018-09-16T06:34:13Z</time>
      </trkpt>
      <trkpt lat="39.3416300" lon="-0.7376980">
        <ele>310.0</ele>
        <time>2018-09-16T06:34:14Z</time>
      </trkpt>
      <trkpt lat="39.3416170" lon="-0.7376950">
        <ele>310.0</ele>
        <time>2018-09-16T06:34:15Z</time>
      </trkpt>
      <trkpt lat="39.3416170" lon="-0.7376950">
        <ele>310.0</ele>
        <time>2018-09-16T06:34:16Z</time>
      </trkpt>
      <trkpt lat="39.3415900" lon="-0.7376880">
        <ele>311.0</ele>
        <time>2018-09-16T06:34:17Z</time>
      </trkpt>
      <trkpt lat="39.3415770" lon="-0.7376850">
        <ele>311.0</ele>
        <time>2018-09-16T06:34:18Z</time>
      </trkpt>
      <trkpt lat="39.3415770" lon="-0.7376850">
        <ele>311.0</ele>
        <time>2018-09-16T06:34:19Z</time>
      </trkpt>
      <trkpt lat="39.3415500" lon="-0.7376780">
        <ele>311.0</ele>
        <time>2018-09-16T06:34:20Z</time>
      </trkpt>
      <trkpt lat="39.3415500" lon="-0.7376780">
        <ele>311.0</ele>
        <time>2018-09-16T06:34:21Z</time>
      </trkpt>
      <trkpt lat="39.3415200" lon="-0.7376700">
        <ele>311.0</ele>
        <time>2018-09-16T06:34:22Z</time>
      </trkpt>
      <trkpt lat="39.3415200" lon="-0.7376700">
        <ele>312.0</ele>
        <time>2018-09-16T06:34:23Z</time>
      </trkpt>
      <trkpt lat="39.3414900" lon="-0.7376650">
        <ele>312.0</ele>
        <time>2018-09-16T06:34:24Z</time>
      </trkpt>
      <trkpt lat="39.3414900" lon="-0.7376650">
        <ele>312.0</ele>
        <time>2018-09-16T06:34:25Z</time>
      </trkpt>
      <trkpt lat="39.3414600" lon="-0.7376620">
        <ele>312.0</ele>
        <time>2018-09-16T06:34:26Z</time>
      </trkpt>
      <trkpt lat="39.3414470" lon="-0.7376620">
        <ele>313.0</ele>
        <time>2018-09-16T06:34:27Z</time>
      </trkpt>
      <trkpt lat="39.3414470" lon="-0.7376620">
        <ele>313.0</ele>
        <time>2018-09-16T06:34:28Z</time>
      </trkpt>
      <trkpt lat="39.3414180" lon="-0.7376680">
        <ele>313.0</ele>
        <time>2018-09-16T06:34:29Z</time>
      </trkpt>
      <trkpt lat="39.3414180" lon="-0.7376680">
        <ele>313.0</ele>
        <time>2018-09-16T06:34:30Z</time>
      </trkpt>
      <trkpt lat="39.3413980" lon="-0.7376720">
        <ele>313.0</ele>
        <time>2018-09-16T06:34:31Z</time>
      </trkpt>
      <trkpt lat="39.3413980" lon="-0.7376720">
        <ele>313.0</ele>
        <time>2018-09-16T06:34:32Z</time>
      </trkpt>
      <trkpt lat="39.3413750" lon="-0.7376730">
        <ele>313.0</ele>
        <time>2018-09-16T06:34:33Z</time>
      </trkpt>
      <trkpt lat="39.3413750" lon="-0.7376730">
        <ele>313.0</ele>
        <time>2018-09-16T06:34:34Z</time>
      </trkpt>
      <trkpt lat="39.3413520" lon="-0.7376730">
        <ele>313.0</ele>
        <time>2018-09-16T06:34:35Z</time>
      </trkpt>
      <trkpt lat="39.3413380" lon="-0.7376750">
        <ele>313.0</ele>
        <time>2018-09-16T06:34:36Z</time>
      </trkpt>
      <trkpt lat="39.3413380" lon="-0.7376750">
        <ele>315.0</ele>
        <time>2018-09-16T06:34:37Z</time>
      </trkpt>
      <trkpt lat="39.3413130" lon="-0.7376770">
        <ele>315.0</ele>
        <time>2018-09-16T06:34:38Z</time>
      </trkpt>
      <trkpt lat="39.3413130" lon="-0.7376770">
        <ele>315.0</ele>
        <time>2018-09-16T06:34:39Z</time>
      </trkpt>
      <trkpt lat="39.3412900" lon="-0.7376770">
        <ele>315.0</ele>
        <time>2018-09-16T06:34:40Z</time>
      </trkpt>
      <trkpt lat="39.3412900" lon="-0.7376770">
        <ele>315.0</ele>
        <time>2018-09-16T06:34:41Z</time>
      </trkpt>
      <trkpt lat="39.3412670" lon="-0.7376800">
        <ele>315.0</ele>
        <time>2018-09-16T06:34:42Z</time>
      </trkpt>
      <trkpt lat="39.3412670" lon="-0.7376800">
        <ele>315.0</ele>
        <time>2018-09-16T06:34:43Z</time>
      </trkpt>
      <trkpt lat="39.3412430" lon="-0.7376830">
        <ele>315.0</ele>
        <time>2018-09-16T06:34:44Z</time>
      </trkpt>
      <trkpt lat="39.3412430" lon="-0.7376830">
        <ele>315.0</ele>
        <time>2018-09-16T06:34:45Z</time>
      </trkpt>
      <trkpt lat="39.3412200" lon="-0.7376880">
        <ele>317.0</ele>
        <time>2018-09-16T06:34:46Z</time>
      </trkpt>
      <trkpt lat="39.3412200" lon="-0.7376880">
        <ele>317.0</ele>
        <time>2018-09-16T06:34:47Z</time>
      </trkpt>
      <trkpt lat="39.3411970" lon="-0.7376900">
        <ele>317.0</ele>
        <time>2018-09-16T06:34:48Z</time>
      </trkpt>
      <trkpt lat="39.3411970" lon="-0.7376900">
        <ele>317.0</ele>
        <time>2018-09-16T06:34:49Z</time>
      </trkpt>
      <trkpt lat="39.3411750" lon="-0.7376880">
        <ele>318.0</ele>
        <time>2018-09-16T06:34:50Z</time>
      </trkpt>
      <trkpt lat="39.3411630" lon="-0.7376920">
        <ele>318.0</ele>
        <time>2018-09-16T06:34:51Z</time>
      </trkpt>
      <trkpt lat="39.3411630" lon="-0.7376920">
        <ele>318.0</ele>
        <time>2018-09-16T06:34:52Z</time>
      </trkpt>
      <trkpt lat="39.3411380" lon="-0.7376920">
        <ele>318.0</ele>
        <time>2018-09-16T06:34:53Z</time>
      </trkpt>
      <trkpt lat="39.3411300" lon="-0.7376970">
        <ele>318.0</ele>
        <time>2018-09-16T06:34:54Z</time>
      </trkpt>
      <trkpt lat="39.3411300" lon="-0.7376970">
        <ele>318.0</ele>
        <time>2018-09-16T06:34:55Z</time>
      </trkpt>
      <trkpt lat="39.3411070" lon="-0.7377070">
        <ele>318.0</ele>
        <time>2018-09-16T06:34:56Z</time>
      </trkpt>
      <trkpt lat="39.3411070" lon="-0.7377070">
        <ele>318.0</ele>
        <time>2018-09-16T06:34:57Z</time>
      </trkpt>
      <trkpt lat="39.3410830" lon="-0.7377130">
        <ele>318.0</ele>
        <time>2018-09-16T06:34:58Z</time>
      </trkpt>
      <trkpt lat="39.3410830" lon="-0.7377130">
        <ele>318.0</ele>
        <time>2018-09-16T06:34:59Z</time>
      </trkpt>
      <trkpt lat="39.3410600" lon="-0.7377220">
        <ele>319.0</ele>
        <time>2018-09-16T06:35:00Z</time>
      </trkpt>
      <trkpt lat="39.3410500" lon="-0.7377250">
        <ele>319.0</ele>
        <time>2018-09-16T06:35:01Z</time>
      </trkpt>
      <trkpt lat="39.3410500" lon="-0.7377250">
        <ele>319.0</ele>
        <time>2018-09-16T06:35:02Z</time>
      </trkpt>
      <trkpt lat="39.3410280" lon="-0.7377320">
        <ele>319.0</ele>
        <time>2018-09-16T06:35:03Z</time>
      </trkpt>
      <trkpt lat="39.3410280" lon="-0.7377320">
        <ele>319.0</ele>
        <time>2018-09-16T06:35:04Z</time>
      </trkpt>
      <trkpt lat="39.3409980" lon="-0.7377280">
        <ele>319.0</ele>
        <time>2018-09-16T06:35:05Z</time>
      </trkpt>
      <trkpt lat="39.3409830" lon="-0.7377280">
        <ele>320.0</ele>
        <time>2018-09-16T06:35:06Z</time>
      </trkpt>
      <trkpt lat="39.3409830" lon="-0.7377280">
        <ele>320.0</ele>
        <time>2018-09-16T06:35:07Z</time>
      </trkpt>
      <trkpt lat="39.3409570" lon="-0.7377280">
        <ele>321.0</ele>
        <time>2018-09-16T06:35:08Z</time>
      </trkpt>
      <trkpt lat="39.3409570" lon="-0.7377280">
        <ele>321.0</ele>
        <time>2018-09-16T06:35:09Z</time>
      </trkpt>
      <trkpt lat="39.3409320" lon="-0.7377380">
        <ele>321.0</ele>
        <time>2018-09-16T06:35:10Z</time>
      </trkpt>
      <trkpt lat="39.3409220" lon="-0.7377450">
        <ele>322.0</ele>
        <time>2018-09-16T06:35:11Z</time>
      </trkpt>
      <trkpt lat="39.3409100" lon="-0.7377500">
        <ele>322.0</ele>
        <time>2018-09-16T06:35:12Z</time>
      </trkpt>
      <trkpt lat="39.3409100" lon="-0.7377500">
        <ele>322.0</ele>
        <time>2018-09-16T06:35:13Z</time>
      </trkpt>
      <trkpt lat="39.3408880" lon="-0.7377650">
        <ele>322.0</ele>
        <time>2018-09-16T06:35:14Z</time>
      </trkpt>
      <trkpt lat="39.3408880" lon="-0.7377650">
        <ele>323.0</ele>
        <time>2018-09-16T06:35:15Z</time>
      </trkpt>
      <trkpt lat="39.3408700" lon="-0.7377780">
        <ele>323.0</ele>
        <time>2018-09-16T06:35:16Z</time>
      </trkpt>
      <trkpt lat="39.3408700" lon="-0.7377780">
        <ele>323.0</ele>
        <time>2018-09-16T06:35:17Z</time>
      </trkpt>
      <trkpt lat="39.3408500" lon="-0.7377930">
        <ele>323.0</ele>
        <time>2018-09-16T06:35:18Z</time>
      </trkpt>
      <trkpt lat="39.3408500" lon="-0.7377930">
        <ele>323.0</ele>
        <time>2018-09-16T06:35:19Z</time>
      </trkpt>
      <trkpt lat="39.3408300" lon="-0.7378080">
        <ele>323.0</ele>
        <time>2018-09-16T06:35:20Z</time>
      </trkpt>
      <trkpt lat="39.3408300" lon="-0.7378080">
        <ele>325.0</ele>
        <time>2018-09-16T06:35:21Z</time>
      </trkpt>
      <trkpt lat="39.3408130" lon="-0.7378280">
        <ele>325.0</ele>
        <time>2018-09-16T06:35:22Z</time>
      </trkpt>
      <trkpt lat="39.3408070" lon="-0.7378380">
        <ele>325.0</ele>
        <time>2018-09-16T06:35:23Z</time>
      </trkpt>
      <trkpt lat="39.3408000" lon="-0.7378520">
        <ele>325.0</ele>
        <time>2018-09-16T06:35:24Z</time>
      </trkpt>
      <trkpt lat="39.3408000" lon="-0.7378520">
        <ele>326.0</ele>
        <time>2018-09-16T06:35:25Z</time>
      </trkpt>
      <trkpt lat="39.3407880" lon="-0.7378820">
        <ele>326.0</ele>
        <time>2018-09-16T06:35:26Z</time>
      </trkpt>
      <trkpt lat="39.3407880" lon="-0.7378820">
        <ele>326.0</ele>
        <time>2018-09-16T06:35:27Z</time>
      </trkpt>
      <trkpt lat="39.3407780" lon="-0.7379130">
        <ele>326.0</ele>
        <time>2018-09-16T06:35:28Z</time>
      </trkpt>
      <trkpt lat="39.3407780" lon="-0.7379130">
        <ele>327.0</ele>
        <time>2018-09-16T06:35:29Z</time>
      </trkpt>
      <trkpt lat="39.3407670" lon="-0.7379450">
        <ele>327.0</ele>
        <time>2018-09-16T06:35:30Z</time>
      </trkpt>
      <trkpt lat="39.3407670" lon="-0.7379450">
        <ele>327.0</ele>
        <time>2018-09-16T06:35:31Z</time>
      </trkpt>
      <trkpt lat="39.3407550" lon="-0.7379780">
        <ele>327.0</ele>
        <time>2018-09-16T06:35:32Z</time>
      </trkpt>
      <trkpt lat="39.3407550" lon="-0.7379780">
        <ele>328.0</ele>
        <time>2018-09-16T06:35:33Z</time>
      </trkpt>
      <trkpt lat="39.3407450" lon="-0.7380120">
        <ele>328.0</ele>
        <time>2018-09-16T06:35:34Z</time>
      </trkpt>
      <trkpt lat="39.3407420" lon="-0.7380270">
        <ele>328.0</ele>
        <time>2018-09-16T06:35:35Z</time>
      </trkpt>
      <trkpt lat="39.3407380" lon="-0.7380420">
        <ele>328.0</ele>
        <time>2018-09-16T06:35:36Z</time>
      </trkpt>
      <trkpt lat="39.3407380" lon="-0.7380420">
        <ele>328.0</ele>
        <time>2018-09-16T06:35:37Z</time>
      </trkpt>
      <trkpt lat="39.3407350" lon="-0.7380700">
        <ele>328.0</ele>
        <time>2018-09-16T06:35:38Z</time>
      </trkpt>
      <trkpt lat="39.3407350" lon="-0.7380700">
        <ele>329.0</ele>
        <time>2018-09-16T06:35:39Z</time>
      </trkpt>
      <trkpt lat="39.3407250" lon="-0.7381020">
        <ele>329.0</ele>
        <time>2018-09-16T06:35:40Z</time>
      </trkpt>
      <trkpt lat="39.3407250" lon="-0.7381020">
        <ele>329.0</ele>
        <time>2018-09-16T06:35:41Z</time>
      </trkpt>
      <trkpt lat="39.3407120" lon="-0.7381330">
        <ele>329.0</ele>
        <time>2018-09-16T06:35:42Z</time>
      </trkpt>
      <trkpt lat="39.3407120" lon="-0.7381330">
        <ele>329.0</ele>
        <time>2018-09-16T06:35:43Z</time>
      </trkpt>
      <trkpt lat="39.3406970" lon="-0.7381650">
        <ele>329.0</ele>
        <time>2018-09-16T06:35:44Z</time>
      </trkpt>
      <trkpt lat="39.3406970" lon="-0.7381650">
        <ele>329.0</ele>
        <time>2018-09-16T06:35:45Z</time>
      </trkpt>
      <trkpt lat="39.3406750" lon="-0.7382050">
        <ele>329.0</ele>
        <time>2018-09-16T06:35:46Z</time>
      </trkpt>
      <trkpt lat="39.3406750" lon="-0.7382050">
        <ele>329.0</ele>
        <time>2018-09-16T06:35:47Z</time>
      </trkpt>
      <trkpt lat="39.3406380" lon="-0.7382330">
        <ele>329.0</ele>
        <time>2018-09-16T06:35:48Z</time>
      </trkpt>
      <trkpt lat="39.3406380" lon="-0.7382330">
        <ele>329.0</ele>
        <time>2018-09-16T06:35:49Z</time>
      </trkpt>
      <trkpt lat="39.3406120" lon="-0.7382520">
        <ele>329.0</ele>
        <time>2018-09-16T06:35:50Z</time>
      </trkpt>
      <trkpt lat="39.3406120" lon="-0.7382520">
        <ele>329.0</ele>
        <time>2018-09-16T06:35:51Z</time>
      </trkpt>
      <trkpt lat="39.3405750" lon="-0.7382600">
        <ele>329.0</ele>
        <time>2018-09-16T06:35:52Z</time>
      </trkpt>
      <trkpt lat="39.3405570" lon="-0.7382600">
        <ele>329.0</ele>
        <time>2018-09-16T06:35:53Z</time>
      </trkpt>
      <trkpt lat="39.3405380" lon="-0.7382580">
        <ele>329.0</ele>
        <time>2018-09-16T06:35:54Z</time>
      </trkpt>
      <trkpt lat="39.3405380" lon="-0.7382580">
        <ele>329.0</ele>
        <time>2018-09-16T06:35:55Z</time>
      </trkpt>
      <trkpt lat="39.3405050" lon="-0.7382570">
        <ele>329.0</ele>
        <time>2018-09-16T06:35:56Z</time>
      </trkpt>
      <trkpt lat="39.3405050" lon="-0.7382570">
        <ele>329.0</ele>
        <time>2018-09-16T06:35:57Z</time>
      </trkpt>
      <trkpt lat="39.3404730" lon="-0.7382570">
        <ele>329.0</ele>
        <time>2018-09-16T06:35:58Z</time>
      </trkpt>
      <trkpt lat="39.3404730" lon="-0.7382570">
        <ele>329.0</ele>
        <time>2018-09-16T06:35:59Z</time>
      </trkpt>
      <trkpt lat="39.3404380" lon="-0.7382570">
        <ele>329.0</ele>
        <time>2018-09-16T06:36:00Z</time>
      </trkpt>
      <trkpt lat="39.3404380" lon="-0.7382570">
        <ele>329.0</ele>
        <time>2018-09-16T06:36:01Z</time>
      </trkpt>
      <trkpt lat="39.3404070" lon="-0.7382620">
        <ele>329.0</ele>
        <time>2018-09-16T06:36:02Z</time>
      </trkpt>
      <trkpt lat="39.3404070" lon="-0.7382620">
        <ele>330.0</ele>
        <time>2018-09-16T06:36:03Z</time>
      </trkpt>
      <trkpt lat="39.3403750" lon="-0.7382620">
        <ele>330.0</ele>
        <time>2018-09-16T06:36:04Z</time>
      </trkpt>
      <trkpt lat="39.3403750" lon="-0.7382620">
        <ele>330.0</ele>
        <time>2018-09-16T06:36:05Z</time>
      </trkpt>
      <trkpt lat="39.3403450" lon="-0.7382570">
        <ele>330.0</ele>
        <time>2018-09-16T06:36:06Z</time>
      </trkpt>
      <trkpt lat="39.3403450" lon="-0.7382570">
        <ele>331.0</ele>
        <time>2018-09-16T06:36:07Z</time>
      </trkpt>
      <trkpt lat="39.3403170" lon="-0.7382470">
        <ele>331.0</ele>
        <time>2018-09-16T06:36:08Z</time>
      </trkpt>
      <trkpt lat="39.3403170" lon="-0.7382470">
        <ele>331.0</ele>
        <time>2018-09-16T06:36:09Z</time>
      </trkpt>
      <trkpt lat="39.3402870" lon="-0.7382320">
        <ele>332.0</ele>
        <time>2018-09-16T06:36:10Z</time>
      </trkpt>
      <trkpt lat="39.3402870" lon="-0.7382320">
        <ele>332.0</ele>
        <time>2018-09-16T06:36:11Z</time>
      </trkpt>
      <trkpt lat="39.3402570" lon="-0.7382250">
        <ele>332.0</ele>
        <time>2018-09-16T06:36:12Z</time>
      </trkpt>
      <trkpt lat="39.3402570" lon="-0.7382250">
        <ele>332.0</ele>
        <time>2018-09-16T06:36:13Z</time>
      </trkpt>
      <trkpt lat="39.3402350" lon="-0.7382170">
        <ele>332.0</ele>
        <time>2018-09-16T06:36:14Z</time>
      </trkpt>
      <trkpt lat="39.3402350" lon="-0.7382170">
        <ele>332.0</ele>
        <time>2018-09-16T06:36:15Z</time>
      </trkpt>
      <trkpt lat="39.3402180" lon="-0.7382050">
        <ele>333.0</ele>
        <time>2018-09-16T06:36:16Z</time>
      </trkpt>
      <trkpt lat="39.3402180" lon="-0.7382050">
        <ele>333.0</ele>
        <time>2018-09-16T06:36:17Z</time>
      </trkpt>
      <trkpt lat="39.3402050" lon="-0.7381900">
        <ele>333.0</ele>
        <time>2018-09-16T06:36:18Z</time>
      </trkpt>
      <trkpt lat="39.3402050" lon="-0.7381900">
        <ele>333.0</ele>
        <time>2018-09-16T06:36:19Z</time>
      </trkpt>
      <trkpt lat="39.3401970" lon="-0.7381870">
        <ele>334.0</ele>
        <time>2018-09-16T06:36:20Z</time>
      </trkpt>
      <trkpt lat="39.3401970" lon="-0.7381870">
        <ele>334.0</ele>
        <time>2018-09-16T06:36:21Z</time>
      </trkpt>
      <trkpt lat="39.3401970" lon="-0.7381870">
        <ele>334.0</ele>
        <time>2018-09-16T06:36:22Z</time>
      </trkpt>
      <trkpt lat="39.3401970" lon="-0.7381870">
        <ele>334.0</ele>
        <time>2018-09-16T06:36:23Z</time>
      </trkpt>
      <trkpt lat="39.3401970" lon="-0.7381870">
        <ele>334.0</ele>
        <time>2018-09-16T06:36:24Z</time>
      </trkpt>
      <trkpt lat="39.3401970" lon="-0.7381870">
        <ele>334.0</ele>
        <time>2018-09-16T06:36:25Z</time>
      </trkpt>
      <trkpt lat="39.3401730" lon="-0.7381580">
        <ele>334.0</ele>
        <time>2018-09-16T06:36:26Z</time>
      </trkpt>
      <trkpt lat="39.3401730" lon="-0.7381580">
        <ele>334.0</ele>
        <time>2018-09-16T06:36:27Z</time>
      </trkpt>
      <trkpt lat="39.3401700" lon="-0.7381550">
        <ele>334.0</ele>
        <time>2018-09-16T06:36:28Z</time>
      </trkpt>
      <trkpt lat="39.3401700" lon="-0.7381550">
        <ele>334.0</ele>
        <time>2018-09-16T06:36:29Z</time>
      </trkpt>
      <trkpt lat="39.3401730" lon="-0.7381570">
        <ele>335.0</ele>
        <time>2018-09-16T06:36:30Z</time>
      </trkpt>
      <trkpt lat="39.3401730" lon="-0.7381570">
        <ele>335.0</ele>
        <time>2018-09-16T06:36:31Z</time>
      </trkpt>
      <trkpt lat="39.3401730" lon="-0.7381570">
        <ele>335.0</ele>
        <time>2018-09-16T06:36:32Z</time>
      </trkpt>
      <trkpt lat="39.3401730" lon="-0.7381570">
        <ele>335.0</ele>
        <time>2018-09-16T06:36:33Z</time>
      </trkpt>
      <trkpt lat="39.3401570" lon="-0.7381430">
        <ele>335.0</ele>
        <time>2018-09-16T06:36:34Z</time>
      </trkpt>
      <trkpt lat="39.3401480" lon="-0.7381350">
        <ele>335.0</ele>
        <time>2018-09-16T06:36:35Z</time>
      </trkpt>
      <trkpt lat="39.3401480" lon="-0.7381350">
        <ele>335.0</ele>
        <time>2018-09-16T06:36:36Z</time>
      </trkpt>
      <trkpt lat="39.3401270" lon="-0.7381200">
        <ele>335.0</ele>
        <time>2018-09-16T06:36:37Z</time>
      </trkpt>
      <trkpt lat="39.3401160" lon="-0.7381120">
        <ele>335.0</ele>
        <time>2018-09-16T06:36:38Z</time>
      </trkpt>
      <trkpt lat="39.3401050" lon="-0.7381050">
        <ele>335.0</ele>
        <time>2018-09-16T06:36:39Z</time>
      </trkpt>
      <trkpt lat="39.3400980" lon="-0.7380970">
        <ele>335.0</ele>
        <time>2018-09-16T06:36:40Z</time>
      </trkpt>
      <trkpt lat="39.3400980" lon="-0.7380970">
        <ele>335.0</ele>
        <time>2018-09-16T06:36:41Z</time>
      </trkpt>
      <trkpt lat="39.3400800" lon="-0.7380780">
        <ele>335.0</ele>
        <time>2018-09-16T06:36:42Z</time>
      </trkpt>
      <trkpt lat="39.3400800" lon="-0.7380780">
        <ele>336.0</ele>
        <time>2018-09-16T06:36:43Z</time>
      </trkpt>
      <trkpt lat="39.3400650" lon="-0.7380620">
        <ele>336.0</ele>
        <time>2018-09-16T06:36:44Z</time>
      </trkpt>
      <trkpt lat="39.3400650" lon="-0.7380620">
        <ele>336.0</ele>
        <time>2018-09-16T06:36:45Z</time>
      </trkpt>
      <trkpt lat="39.3400480" lon="-0.7380430">
        <ele>336.0</ele>
        <time>2018-09-16T06:36:46Z</time>
      </trkpt>
      <trkpt lat="39.3400480" lon="-0.7380430">
        <ele>337.0</ele>
        <time>2018-09-16T06:36:47Z</time>
      </trkpt>
      <trkpt lat="39.3400330" lon="-0.7380300">
        <ele>337.0</ele>
        <time>2018-09-16T06:36:48Z</time>
      </trkpt>
      <trkpt lat="39.3400330" lon="-0.7380300">
        <ele>337.0</ele>
        <time>2018-09-16T06:36:49Z</time>
      </trkpt>
      <trkpt lat="39.3400200" lon="-0.7380130">
        <ele>337.0</ele>
        <time>2018-09-16T06:36:50Z</time>
      </trkpt>
      <trkpt lat="39.3400200" lon="-0.7380130">
        <ele>338.0</ele>
        <time>2018-09-16T06:36:51Z</time>
      </trkpt>
      <trkpt lat="39.3400000" lon="-0.7379980">
        <ele>338.0</ele>
        <time>2018-09-16T06:36:52Z</time>
      </trkpt>
      <trkpt lat="39.3399900" lon="-0.7379950">
        <ele>338.0</ele>
        <time>2018-09-16T06:36:53Z</time>
      </trkpt>
      <trkpt lat="39.3399800" lon="-0.7379930">
        <ele>338.0</ele>
        <time>2018-09-16T06:36:54Z</time>
      </trkpt>
      <trkpt lat="39.3399800" lon="-0.7379930">
        <ele>338.0</ele>
        <time>2018-09-16T06:36:55Z</time>
      </trkpt>
      <trkpt lat="39.3399570" lon="-0.7379900">
        <ele>338.0</ele>
        <time>2018-09-16T06:36:56Z</time>
      </trkpt>
      <trkpt lat="39.3399570" lon="-0.7379900">
        <ele>338.0</ele>
        <time>2018-09-16T06:36:57Z</time>
      </trkpt>
      <trkpt lat="39.3399330" lon="-0.7379800">
        <ele>338.0</ele>
        <time>2018-09-16T06:36:58Z</time>
      </trkpt>
      <trkpt lat="39.3399230" lon="-0.7379770">
        <ele>339.0</ele>
        <time>2018-09-16T06:36:59Z</time>
      </trkpt>
      <trkpt lat="39.3399130" lon="-0.7379770">
        <ele>339.0</ele>
        <time>2018-09-16T06:37:00Z</time>
      </trkpt>
      <trkpt lat="39.3399130" lon="-0.7379770">
        <ele>339.0</ele>
        <time>2018-09-16T06:37:01Z</time>
      </trkpt>
      <trkpt lat="39.3398920" lon="-0.7379800">
        <ele>339.0</ele>
        <time>2018-09-16T06:37:02Z</time>
      </trkpt>
      <trkpt lat="39.3398830" lon="-0.7379800">
        <ele>340.0</ele>
        <time>2018-09-16T06:37:03Z</time>
      </trkpt>
      <trkpt lat="39.3398830" lon="-0.7379800">
        <ele>340.0</ele>
        <time>2018-09-16T06:37:04Z</time>
      </trkpt>
      <trkpt lat="39.3398620" lon="-0.7379680">
        <ele>340.0</ele>
        <time>2018-09-16T06:37:05Z</time>
      </trkpt>
      <trkpt lat="39.3398500" lon="-0.7379630">
        <ele>340.0</ele>
        <time>2018-09-16T06:37:06Z</time>
      </trkpt>
      <trkpt lat="39.3398500" lon="-0.7379630">
        <ele>340.0</ele>
        <time>2018-09-16T06:37:07Z</time>
      </trkpt>
      <trkpt lat="39.3398320" lon="-0.7379530">
        <ele>341.0</ele>
        <time>2018-09-16T06:37:08Z</time>
      </trkpt>
      <trkpt lat="39.3398320" lon="-0.7379530">
        <ele>341.0</ele>
        <time>2018-09-16T06:37:09Z</time>
      </trkpt>
      <trkpt lat="39.3398070" lon="-0.7379470">
        <ele>341.0</ele>
        <time>2018-09-16T06:37:10Z</time>
      </trkpt>
      <trkpt lat="39.3397930" lon="-0.7379450">
        <ele>341.0</ele>
        <time>2018-09-16T06:37:11Z</time>
      </trkpt>
      <trkpt lat="39.3397730" lon="-0.7379380">
        <ele>341.0</ele>
        <time>2018-09-16T06:37:12Z</time>
      </trkpt>
      <trkpt lat="39.3397640" lon="-0.7379370">
        <ele>341.0</ele>
        <time>2018-09-16T06:37:13Z</time>
      </trkpt>
      <trkpt lat="39.3397550" lon="-0.7379350">
        <ele>342.0</ele>
        <time>2018-09-16T06:37:14Z</time>
      </trkpt>
      <trkpt lat="39.3397470" lon="-0.7379330">
        <ele>342.0</ele>
        <time>2018-09-16T06:37:15Z</time>
      </trkpt>
      <trkpt lat="39.3397380" lon="-0.7379310">
        <ele>342.0</ele>
        <time>2018-09-16T06:37:16Z</time>
      </trkpt>
      <trkpt lat="39.3397290" lon="-0.7379300">
        <ele>342.0</ele>
        <time>2018-09-16T06:37:17Z</time>
      </trkpt>
      <trkpt lat="39.3397200" lon="-0.7379280">
        <ele>343.0</ele>
        <time>2018-09-16T06:37:18Z</time>
      </trkpt>
      <trkpt lat="39.3397200" lon="-0.7379280">
        <ele>343.0</ele>
        <time>2018-09-16T06:37:19Z</time>
      </trkpt>
      <trkpt lat="39.3397020" lon="-0.7379300">
        <ele>343.0</ele>
        <time>2018-09-16T06:37:20Z</time>
      </trkpt>
      <trkpt lat="39.3397020" lon="-0.7379300">
        <ele>343.0</ele>
        <time>2018-09-16T06:37:21Z</time>
      </trkpt>
      <trkpt lat="39.3396800" lon="-0.7379230">
        <ele>343.0</ele>
        <time>2018-09-16T06:37:22Z</time>
      </trkpt>
      <trkpt lat="39.3396800" lon="-0.7379230">
        <ele>344.0</ele>
        <time>2018-09-16T06:37:23Z</time>
      </trkpt>
      <trkpt lat="39.3396630" lon="-0.7378970">
        <ele>344.0</ele>
        <time>2018-09-16T06:37:24Z</time>
      </trkpt>
      <trkpt lat="39.3396630" lon="-0.7378970">
        <ele>344.0</ele>
        <time>2018-09-16T06:37:25Z</time>
      </trkpt>
      <trkpt lat="39.3396420" lon="-0.7378750">
        <ele>344.0</ele>
        <time>2018-09-16T06:37:26Z</time>
      </trkpt>
      <trkpt lat="39.3396420" lon="-0.7378750">
        <ele>345.0</ele>
        <time>2018-09-16T06:37:27Z</time>
      </trkpt>
      <trkpt lat="39.3396150" lon="-0.7378680">
        <ele>345.0</ele>
        <time>2018-09-16T06:37:28Z</time>
      </trkpt>
      <trkpt lat="39.3396150" lon="-0.7378680">
        <ele>345.0</ele>
        <time>2018-09-16T06:37:29Z</time>
      </trkpt>
      <trkpt lat="39.3395880" lon="-0.7378680">
        <ele>345.0</ele>
        <time>2018-09-16T06:37:30Z</time>
      </trkpt>
      <trkpt lat="39.3395880" lon="-0.7378680">
        <ele>345.0</ele>
        <time>2018-09-16T06:37:31Z</time>
      </trkpt>
      <trkpt lat="39.3395630" lon="-0.7378620">
        <ele>345.0</ele>
        <time>2018-09-16T06:37:32Z</time>
      </trkpt>
      <trkpt lat="39.3395530" lon="-0.7378470">
        <ele>345.0</ele>
        <time>2018-09-16T06:37:33Z</time>
      </trkpt>
      <trkpt lat="39.3395430" lon="-0.7378330">
        <ele>346.0</ele>
        <time>2018-09-16T06:37:34Z</time>
      </trkpt>
      <trkpt lat="39.3395430" lon="-0.7378330">
        <ele>346.0</ele>
        <time>2018-09-16T06:37:35Z</time>
      </trkpt>
      <trkpt lat="39.3395230" lon="-0.7378080">
        <ele>346.0</ele>
        <time>2018-09-16T06:37:36Z</time>
      </trkpt>
      <trkpt lat="39.3395230" lon="-0.7378080">
        <ele>346.0</ele>
        <time>2018-09-16T06:37:37Z</time>
      </trkpt>
      <trkpt lat="39.3395050" lon="-0.7378070">
        <ele>347.0</ele>
        <time>2018-09-16T06:37:38Z</time>
      </trkpt>
      <trkpt lat="39.3395050" lon="-0.7378070">
        <ele>347.0</ele>
        <time>2018-09-16T06:37:39Z</time>
      </trkpt>
      <trkpt lat="39.3394820" lon="-0.7378180">
        <ele>347.0</ele>
        <time>2018-09-16T06:37:40Z</time>
      </trkpt>
      <trkpt lat="39.3394820" lon="-0.7378180">
        <ele>347.0</ele>
        <time>2018-09-16T06:37:41Z</time>
      </trkpt>
      <trkpt lat="39.3394580" lon="-0.7378180">
        <ele>348.0</ele>
        <time>2018-09-16T06:37:42Z</time>
      </trkpt>
      <trkpt lat="39.3394580" lon="-0.7378180">
        <ele>348.0</ele>
        <time>2018-09-16T06:37:43Z</time>
      </trkpt>
      <trkpt lat="39.3394370" lon="-0.7378050">
        <ele>348.0</ele>
        <time>2018-09-16T06:37:44Z</time>
      </trkpt>
      <trkpt lat="39.3394370" lon="-0.7378050">
        <ele>348.0</ele>
        <time>2018-09-16T06:37:45Z</time>
      </trkpt>
      <trkpt lat="39.3394120" lon="-0.7377950">
        <ele>348.0</ele>
        <time>2018-09-16T06:37:46Z</time>
      </trkpt>
      <trkpt lat="39.3394120" lon="-0.7377950">
        <ele>349.0</ele>
        <time>2018-09-16T06:37:47Z</time>
      </trkpt>
      <trkpt lat="39.3393900" lon="-0.7377830">
        <ele>349.0</ele>
        <time>2018-09-16T06:37:48Z</time>
      </trkpt>
      <trkpt lat="39.3393900" lon="-0.7377830">
        <ele>349.0</ele>
        <time>2018-09-16T06:37:49Z</time>
      </trkpt>
      <trkpt lat="39.3393700" lon="-0.7377700">
        <ele>349.0</ele>
        <time>2018-09-16T06:37:50Z</time>
      </trkpt>
      <trkpt lat="39.3393700" lon="-0.7377700">
        <ele>349.0</ele>
        <time>2018-09-16T06:37:51Z</time>
      </trkpt>
      <trkpt lat="39.3393500" lon="-0.7377600">
        <ele>349.0</ele>
        <time>2018-09-16T06:37:52Z</time>
      </trkpt>
      <trkpt lat="39.3393380" lon="-0.7377520">
        <ele>350.0</ele>
        <time>2018-09-16T06:37:53Z</time>
      </trkpt>
      <trkpt lat="39.3393280" lon="-0.7377400">
        <ele>350.0</ele>
        <time>2018-09-16T06:37:54Z</time>
      </trkpt>
      <trkpt lat="39.3393280" lon="-0.7377400">
        <ele>350.0</ele>
        <time>2018-09-16T06:37:55Z</time>
      </trkpt>
      <trkpt lat="39.3393120" lon="-0.7377170">
        <ele>350.0</ele>
        <time>2018-09-16T06:37:56Z</time>
      </trkpt>
      <trkpt lat="39.3393120" lon="-0.7377170">
        <ele>350.0</ele>
        <time>2018-09-16T06:37:57Z</time>
      </trkpt>
      <trkpt lat="39.3392920" lon="-0.7376980">
        <ele>351.0</ele>
        <time>2018-09-16T06:37:58Z</time>
      </trkpt>
      <trkpt lat="39.3392920" lon="-0.7376980">
        <ele>351.0</ele>
        <time>2018-09-16T06:37:59Z</time>
      </trkpt>
      <trkpt lat="39.3392730" lon="-0.7376800">
        <ele>352.0</ele>
        <time>2018-09-16T06:38:00Z</time>
      </trkpt>
      <trkpt lat="39.3392730" lon="-0.7376800">
        <ele>352.0</ele>
        <time>2018-09-16T06:38:01Z</time>
      </trkpt>
      <trkpt lat="39.3392570" lon="-0.7376570">
        <ele>352.0</ele>
        <time>2018-09-16T06:38:02Z</time>
      </trkpt>
      <trkpt lat="39.3392480" lon="-0.7376470">
        <ele>353.0</ele>
        <time>2018-09-16T06:38:03Z</time>
      </trkpt>
      <trkpt lat="39.3392480" lon="-0.7376470">
        <ele>353.0</ele>
        <time>2018-09-16T06:38:04Z</time>
      </trkpt>
      <trkpt lat="39.3392330" lon="-0.7376230">
        <ele>353.0</ele>
        <time>2018-09-16T06:38:05Z</time>
      </trkpt>
      <trkpt lat="39.3392330" lon="-0.7376230">
        <ele>353.0</ele>
        <time>2018-09-16T06:38:06Z</time>
      </trkpt>
      <trkpt lat="39.3392200" lon="-0.7375950">
        <ele>353.0</ele>
        <time>2018-09-16T06:38:07Z</time>
      </trkpt>
      <trkpt lat="39.3392200" lon="-0.7375950">
        <ele>353.0</ele>
        <time>2018-09-16T06:38:08Z</time>
      </trkpt>
      <trkpt lat="39.3392030" lon="-0.7375750">
        <ele>353.0</ele>
        <time>2018-09-16T06:38:09Z</time>
      </trkpt>
      <trkpt lat="39.3391950" lon="-0.7375670">
        <ele>354.0</ele>
        <time>2018-09-16T06:38:10Z</time>
      </trkpt>
      <trkpt lat="39.3391950" lon="-0.7375670">
        <ele>354.0</ele>
        <time>2018-09-16T06:38:11Z</time>
      </trkpt>
      <trkpt lat="39.3391730" lon="-0.7375480">
        <ele>354.0</ele>
        <time>2018-09-16T06:38:12Z</time>
      </trkpt>
      <trkpt lat="39.3391730" lon="-0.7375480">
        <ele>354.0</ele>
        <time>2018-09-16T06:38:13Z</time>
      </trkpt>
      <trkpt lat="39.3391530" lon="-0.7375320">
        <ele>355.0</ele>
        <time>2018-09-16T06:38:14Z</time>
      </trkpt>
      <trkpt lat="39.3391530" lon="-0.7375320">
        <ele>355.0</ele>
        <time>2018-09-16T06:38:15Z</time>
      </trkpt>
      <trkpt lat="39.3391300" lon="-0.7375130">
        <ele>355.0</ele>
        <time>2018-09-16T06:38:16Z</time>
      </trkpt>
      <trkpt lat="39.3391300" lon="-0.7375130">
        <ele>355.0</ele>
        <time>2018-09-16T06:38:17Z</time>
      </trkpt>
      <trkpt lat="39.3391120" lon="-0.7374980">
        <ele>355.0</ele>
        <time>2018-09-16T06:38:18Z</time>
      </trkpt>
      <trkpt lat="39.3391120" lon="-0.7374980">
        <ele>355.0</ele>
        <time>2018-09-16T06:38:19Z</time>
      </trkpt>
      <trkpt lat="39.3390930" lon="-0.7374830">
        <ele>356.0</ele>
        <time>2018-09-16T06:38:20Z</time>
      </trkpt>
      <trkpt lat="39.3390930" lon="-0.7374830">
        <ele>356.0</ele>
        <time>2018-09-16T06:38:21Z</time>
      </trkpt>
      <trkpt lat="39.3390730" lon="-0.7374650">
        <ele>356.0</ele>
        <time>2018-09-16T06:38:22Z</time>
      </trkpt>
      <trkpt lat="39.3390650" lon="-0.7374550">
        <ele>356.0</ele>
        <time>2018-09-16T06:38:23Z</time>
      </trkpt>
      <trkpt lat="39.3390550" lon="-0.7374450">
        <ele>356.0</ele>
        <time>2018-09-16T06:38:24Z</time>
      </trkpt>
      <trkpt lat="39.3390550" lon="-0.7374450">
        <ele>356.0</ele>
        <time>2018-09-16T06:38:25Z</time>
      </trkpt>
      <trkpt lat="39.3390300" lon="-0.7374330">
        <ele>357.0</ele>
        <time>2018-09-16T06:38:26Z</time>
      </trkpt>
      <trkpt lat="39.3390300" lon="-0.7374330">
        <ele>357.0</ele>
        <time>2018-09-16T06:38:27Z</time>
      </trkpt>
      <trkpt lat="39.3390030" lon="-0.7374220">
        <ele>357.0</ele>
        <time>2018-09-16T06:38:28Z</time>
      </trkpt>
      <trkpt lat="39.3390030" lon="-0.7374220">
        <ele>357.0</ele>
        <time>2018-09-16T06:38:29Z</time>
      </trkpt>
      <trkpt lat="39.3389770" lon="-0.7374150">
        <ele>357.0</ele>
        <time>2018-09-16T06:38:30Z</time>
      </trkpt>
      <trkpt lat="39.3389770" lon="-0.7374150">
        <ele>357.0</ele>
        <time>2018-09-16T06:38:31Z</time>
      </trkpt>
      <trkpt lat="39.3389480" lon="-0.7374030">
        <ele>357.0</ele>
        <time>2018-09-16T06:38:32Z</time>
      </trkpt>
      <trkpt lat="39.3389320" lon="-0.7373930">
        <ele>357.0</ele>
        <time>2018-09-16T06:38:33Z</time>
      </trkpt>
      <trkpt lat="39.3389320" lon="-0.7373930">
        <ele>357.0</ele>
        <time>2018-09-16T06:38:34Z</time>
      </trkpt>
      <trkpt lat="39.3388980" lon="-0.7373770">
        <ele>357.0</ele>
        <time>2018-09-16T06:38:35Z</time>
      </trkpt>
      <trkpt lat="39.3388830" lon="-0.7373680">
        <ele>357.0</ele>
        <time>2018-09-16T06:38:36Z</time>
      </trkpt>
      <trkpt lat="39.3388830" lon="-0.7373680">
        <ele>357.0</ele>
        <time>2018-09-16T06:38:37Z</time>
      </trkpt>
      <trkpt lat="39.3388500" lon="-0.7373500">
        <ele>357.0</ele>
        <time>2018-09-16T06:38:38Z</time>
      </trkpt>
      <trkpt lat="39.3388500" lon="-0.7373500">
        <ele>357.0</ele>
        <time>2018-09-16T06:38:39Z</time>
      </trkpt>
      <trkpt lat="39.3388080" lon="-0.7373370">
        <ele>357.0</ele>
        <time>2018-09-16T06:38:40Z</time>
      </trkpt>
      <trkpt lat="39.3388080" lon="-0.7373370">
        <ele>357.0</ele>
        <time>2018-09-16T06:38:41Z</time>
      </trkpt>
      <trkpt lat="39.3387630" lon="-0.7373180">
        <ele>357.0</ele>
        <time>2018-09-16T06:38:42Z</time>
      </trkpt>
      <trkpt lat="39.3387630" lon="-0.7373180">
        <ele>357.0</ele>
        <time>2018-09-16T06:38:43Z</time>
      </trkpt>
      <trkpt lat="39.3387220" lon="-0.7373070">
        <ele>357.0</ele>
        <time>2018-09-16T06:38:44Z</time>
      </trkpt>
      <trkpt lat="39.3387220" lon="-0.7373070">
        <ele>357.0</ele>
        <time>2018-09-16T06:38:45Z</time>
      </trkpt>
      <trkpt lat="39.3386820" lon="-0.7372950">
        <ele>357.0</ele>
        <time>2018-09-16T06:38:46Z</time>
      </trkpt>
      <trkpt lat="39.3386620" lon="-0.7372880">
        <ele>357.0</ele>
        <time>2018-09-16T06:38:47Z</time>
      </trkpt>
      <trkpt lat="39.3386620" lon="-0.7372880">
        <ele>357.0</ele>
        <time>2018-09-16T06:38:48Z</time>
      </trkpt>
      <trkpt lat="39.3386200" lon="-0.7372770">
        <ele>358.0</ele>
        <time>2018-09-16T06:38:49Z</time>
      </trkpt>
      <trkpt lat="39.3386200" lon="-0.7372770">
        <ele>358.0</ele>
        <time>2018-09-16T06:38:50Z</time>
      </trkpt>
      <trkpt lat="39.3385750" lon="-0.7372650">
        <ele>358.0</ele>
        <time>2018-09-16T06:38:51Z</time>
      </trkpt>
      <trkpt lat="39.3385750" lon="-0.7372650">
        <ele>358.0</ele>
        <time>2018-09-16T06:38:52Z</time>
      </trkpt>
      <trkpt lat="39.3385320" lon="-0.7372500">
        <ele>358.0</ele>
        <time>2018-09-16T06:38:53Z</time>
      </trkpt>
      <trkpt lat="39.3385100" lon="-0.7372430">
        <ele>358.0</ele>
        <time>2018-09-16T06:38:54Z</time>
      </trkpt>
      <trkpt lat="39.3385100" lon="-0.7372430">
        <ele>358.0</ele>
        <time>2018-09-16T06:38:55Z</time>
      </trkpt>
      <trkpt lat="39.3384680" lon="-0.7372300">
        <ele>358.0</ele>
        <time>2018-09-16T06:38:56Z</time>
      </trkpt>
      <trkpt lat="39.3384680" lon="-0.7372300">
        <ele>358.0</ele>
        <time>2018-09-16T06:38:57Z</time>
      </trkpt>
      <trkpt lat="39.3384280" lon="-0.7372220">
        <ele>358.0</ele>
        <time>2018-09-16T06:38:58Z</time>
      </trkpt>
      <trkpt lat="39.3384120" lon="-0.7372200">
        <ele>358.0</ele>
        <time>2018-09-16T06:38:59Z</time>
      </trkpt>
      <trkpt lat="39.3383970" lon="-0.7372180">
        <ele>358.0</ele>
        <time>2018-09-16T06:39:00Z</time>
      </trkpt>
      <trkpt lat="39.3383800" lon="-0.7372150">
        <ele>358.0</ele>
        <time>2018-09-16T06:39:01Z</time>
      </trkpt>
      <trkpt lat="39.3383630" lon="-0.7372120">
        <ele>359.0</ele>
        <time>2018-09-16T06:39:02Z</time>
      </trkpt>
      <trkpt lat="39.3383470" lon="-0.7372100">
        <ele>359.0</ele>
        <time>2018-09-16T06:39:03Z</time>
      </trkpt>
      <trkpt lat="39.3383470" lon="-0.7372100">
        <ele>359.0</ele>
        <time>2018-09-16T06:39:04Z</time>
      </trkpt>
      <trkpt lat="39.3383150" lon="-0.7372120">
        <ele>359.0</ele>
        <time>2018-09-16T06:39:05Z</time>
      </trkpt>
      <trkpt lat="39.3383000" lon="-0.7372080">
        <ele>359.0</ele>
        <time>2018-09-16T06:39:06Z</time>
      </trkpt>
      <trkpt lat="39.3383000" lon="-0.7372080">
        <ele>359.0</ele>
        <time>2018-09-16T06:39:07Z</time>
      </trkpt>
      <trkpt lat="39.3382720" lon="-0.7372000">
        <ele>360.0</ele>
        <time>2018-09-16T06:39:08Z</time>
      </trkpt>
      <trkpt lat="39.3382720" lon="-0.7372000">
        <ele>360.0</ele>
        <time>2018-09-16T06:39:09Z</time>
      </trkpt>
      <trkpt lat="39.3382450" lon="-0.7371980">
        <ele>360.0</ele>
        <time>2018-09-16T06:39:10Z</time>
      </trkpt>
      <trkpt lat="39.3382450" lon="-0.7371980">
        <ele>360.0</ele>
        <time>2018-09-16T06:39:11Z</time>
      </trkpt>
      <trkpt lat="39.3382200" lon="-0.7371950">
        <ele>360.0</ele>
        <time>2018-09-16T06:39:12Z</time>
      </trkpt>
      <trkpt lat="39.3382200" lon="-0.7371950">
        <ele>360.0</ele>
        <time>2018-09-16T06:39:13Z</time>
      </trkpt>
      <trkpt lat="39.3381980" lon="-0.7371900">
        <ele>361.0</ele>
        <time>2018-09-16T06:39:14Z</time>
      </trkpt>
      <trkpt lat="39.3381870" lon="-0.7371850">
        <ele>361.0</ele>
        <time>2018-09-16T06:39:15Z</time>
      </trkpt>
      <trkpt lat="39.3381870" lon="-0.7371850">
        <ele>361.0</ele>
        <time>2018-09-16T06:39:16Z</time>
      </trkpt>
      <trkpt lat="39.3381670" lon="-0.7371670">
        <ele>361.0</ele>
        <time>2018-09-16T06:39:17Z</time>
      </trkpt>
      <trkpt lat="39.3381570" lon="-0.7371620">
        <ele>361.0</ele>
        <time>2018-09-16T06:39:18Z</time>
      </trkpt>
      <trkpt lat="39.3381570" lon="-0.7371620">
        <ele>362.0</ele>
        <time>2018-09-16T06:39:19Z</time>
      </trkpt>
      <trkpt lat="39.3381370" lon="-0.7371570">
        <ele>362.0</ele>
        <time>2018-09-16T06:39:20Z</time>
      </trkpt>
      <trkpt lat="39.3381250" lon="-0.7371520">
        <ele>363.0</ele>
        <time>2018-09-16T06:39:21Z</time>
      </trkpt>
      <trkpt lat="39.3381250" lon="-0.7371520">
        <ele>363.0</ele>
        <time>2018-09-16T06:39:22Z</time>
      </trkpt>
      <trkpt lat="39.3381030" lon="-0.7371380">
        <ele>364.0</ele>
        <time>2018-09-16T06:39:23Z</time>
      </trkpt>
      <trkpt lat="39.3380920" lon="-0.7371320">
        <ele>364.0</ele>
        <time>2018-09-16T06:39:24Z</time>
      </trkpt>
      <trkpt lat="39.3380920" lon="-0.7371320">
        <ele>364.0</ele>
        <time>2018-09-16T06:39:25Z</time>
      </trkpt>
      <trkpt lat="39.3380700" lon="-0.7371170">
        <ele>365.0</ele>
        <time>2018-09-16T06:39:26Z</time>
      </trkpt>
      <trkpt lat="39.3380700" lon="-0.7371170">
        <ele>366.0</ele>
        <time>2018-09-16T06:39:27Z</time>
      </trkpt>
      <trkpt lat="39.3380450" lon="-0.7371020">
        <ele>366.0</ele>
        <time>2018-09-16T06:39:28Z</time>
      </trkpt>
      <trkpt lat="39.3380450" lon="-0.7371020">
        <ele>366.0</ele>
        <time>2018-09-16T06:39:29Z</time>
      </trkpt>
      <trkpt lat="39.3380220" lon="-0.7370850">
        <ele>366.0</ele>
        <time>2018-09-16T06:39:30Z</time>
      </trkpt>
      <trkpt lat="39.3380220" lon="-0.7370850">
        <ele>367.0</ele>
        <time>2018-09-16T06:39:31Z</time>
      </trkpt>
      <trkpt lat="39.3380020" lon="-0.7370720">
        <ele>367.0</ele>
        <time>2018-09-16T06:39:32Z</time>
      </trkpt>
      <trkpt lat="39.3380020" lon="-0.7370720">
        <ele>367.0</ele>
        <time>2018-09-16T06:39:33Z</time>
      </trkpt>
      <trkpt lat="39.3379800" lon="-0.7370620">
        <ele>367.0</ele>
        <time>2018-09-16T06:39:34Z</time>
      </trkpt>
      <trkpt lat="39.3379800" lon="-0.7370620">
        <ele>368.0</ele>
        <time>2018-09-16T06:39:35Z</time>
      </trkpt>
      <trkpt lat="39.3379570" lon="-0.7370500">
        <ele>368.0</ele>
        <time>2018-09-16T06:39:36Z</time>
      </trkpt>
      <trkpt lat="39.3379570" lon="-0.7370500">
        <ele>368.0</ele>
        <time>2018-09-16T06:39:37Z</time>
      </trkpt>
      <trkpt lat="39.3379330" lon="-0.7370380">
        <ele>368.0</ele>
        <time>2018-09-16T06:39:38Z</time>
      </trkpt>
      <trkpt lat="39.3379330" lon="-0.7370380">
        <ele>368.0</ele>
        <time>2018-09-16T06:39:39Z</time>
      </trkpt>
      <trkpt lat="39.3379120" lon="-0.7370280">
        <ele>368.0</ele>
        <time>2018-09-16T06:39:40Z</time>
      </trkpt>
      <trkpt lat="39.3379120" lon="-0.7370280">
        <ele>369.0</ele>
        <time>2018-09-16T06:39:41Z</time>
      </trkpt>
      <trkpt lat="39.3378900" lon="-0.7370180">
        <ele>369.0</ele>
        <time>2018-09-16T06:39:42Z</time>
      </trkpt>
      <trkpt lat="39.3378900" lon="-0.7370180">
        <ele>369.0</ele>
        <time>2018-09-16T06:39:43Z</time>
      </trkpt>
      <trkpt lat="39.3378700" lon="-0.7370130">
        <ele>369.0</ele>
        <time>2018-09-16T06:39:44Z</time>
      </trkpt>
      <trkpt lat="39.3378700" lon="-0.7370130">
        <ele>370.0</ele>
        <time>2018-09-16T06:39:45Z</time>
      </trkpt>
      <trkpt lat="39.3378570" lon="-0.7370150">
        <ele>370.0</ele>
        <time>2018-09-16T06:39:46Z</time>
      </trkpt>
      <trkpt lat="39.3378570" lon="-0.7370150">
        <ele>370.0</ele>
        <time>2018-09-16T06:39:47Z</time>
      </trkpt>
      <trkpt lat="39.3378370" lon="-0.7370100">
        <ele>370.0</ele>
        <time>2018-09-16T06:39:48Z</time>
      </trkpt>
      <trkpt lat="39.3378370" lon="-0.7370100">
        <ele>371.0</ele>
        <time>2018-09-16T06:39:49Z</time>
      </trkpt>
      <trkpt lat="39.3378200" lon="-0.7369900">
        <ele>371.0</ele>
        <time>2018-09-16T06:39:50Z</time>
      </trkpt>
      <trkpt lat="39.3378200" lon="-0.7369900">
        <ele>371.0</ele>
        <time>2018-09-16T06:39:51Z</time>
      </trkpt>
      <trkpt lat="39.3378030" lon="-0.7369770">
        <ele>371.0</ele>
        <time>2018-09-16T06:39:52Z</time>
      </trkpt>
      <trkpt lat="39.3378030" lon="-0.7369770">
        <ele>371.0</ele>
        <time>2018-09-16T06:39:53Z</time>
      </trkpt>
      <trkpt lat="39.3377870" lon="-0.7369680">
        <ele>371.0</ele>
        <time>2018-09-16T06:39:54Z</time>
      </trkpt>
      <trkpt lat="39.3377870" lon="-0.7369680">
        <ele>372.0</ele>
        <time>2018-09-16T06:39:55Z</time>
      </trkpt>
      <trkpt lat="39.3377650" lon="-0.7369570">
        <ele>372.0</ele>
        <time>2018-09-16T06:39:56Z</time>
      </trkpt>
      <trkpt lat="39.3377520" lon="-0.7369500">
        <ele>372.0</ele>
        <time>2018-09-16T06:39:57Z</time>
      </trkpt>
      <trkpt lat="39.3377520" lon="-0.7369500">
        <ele>373.0</ele>
        <time>2018-09-16T06:39:58Z</time>
      </trkpt>
      <trkpt lat="39.3377300" lon="-0.7369420">
        <ele>373.0</ele>
        <time>2018-09-16T06:39:59Z</time>
      </trkpt>
      <trkpt lat="39.3377300" lon="-0.7369420">
        <ele>373.0</ele>
        <time>2018-09-16T06:40:00Z</time>
      </trkpt>
      <trkpt lat="39.3377070" lon="-0.7369370">
        <ele>373.0</ele>
        <time>2018-09-16T06:40:01Z</time>
      </trkpt>
      <trkpt lat="39.3377070" lon="-0.7369370">
        <ele>374.0</ele>
        <time>2018-09-16T06:40:02Z</time>
      </trkpt>
      <trkpt lat="39.3376830" lon="-0.7369300">
        <ele>374.0</ele>
        <time>2018-09-16T06:40:03Z</time>
      </trkpt>
      <trkpt lat="39.3376730" lon="-0.7369280">
        <ele>374.0</ele>
        <time>2018-09-16T06:40:04Z</time>
      </trkpt>
      <trkpt lat="39.3376730" lon="-0.7369280">
        <ele>374.0</ele>
        <time>2018-09-16T06:40:05Z</time>
      </trkpt>
      <trkpt lat="39.3376500" lon="-0.7369320">
        <ele>375.0</ele>
        <time>2018-09-16T06:40:06Z</time>
      </trkpt>
      <trkpt lat="39.3376380" lon="-0.7369320">
        <ele>375.0</ele>
        <time>2018-09-16T06:40:07Z</time>
      </trkpt>
      <trkpt lat="39.3376380" lon="-0.7369320">
        <ele>375.0</ele>
        <time>2018-09-16T06:40:08Z</time>
      </trkpt>
      <trkpt lat="39.3376230" lon="-0.7369350">
        <ele>375.0</ele>
        <time>2018-09-16T06:40:09Z</time>
      </trkpt>
      <trkpt lat="39.3376230" lon="-0.7369350">
        <ele>376.0</ele>
        <time>2018-09-16T06:40:10Z</time>
      </trkpt>
      <trkpt lat="39.3376120" lon="-0.7369450">
        <ele>376.0</ele>
        <time>2018-09-16T06:40:11Z</time>
      </trkpt>
      <trkpt lat="39.3376120" lon="-0.7369450">
        <ele>376.0</ele>
        <time>2018-09-16T06:40:12Z</time>
      </trkpt>
      <trkpt lat="39.3375970" lon="-0.7369550">
        <ele>376.0</ele>
        <time>2018-09-16T06:40:13Z</time>
      </trkpt>
      <trkpt lat="39.3375970" lon="-0.7369550">
        <ele>377.0</ele>
        <time>2018-09-16T06:40:14Z</time>
      </trkpt>
      <trkpt lat="39.3375750" lon="-0.7369630">
        <ele>377.0</ele>
        <time>2018-09-16T06:40:15Z</time>
      </trkpt>
      <trkpt lat="39.3375750" lon="-0.7369630">
        <ele>377.0</ele>
        <time>2018-09-16T06:40:16Z</time>
      </trkpt>
      <trkpt lat="39.3375580" lon="-0.7369680">
        <ele>377.0</ele>
        <time>2018-09-16T06:40:17Z</time>
      </trkpt>
      <trkpt lat="39.3375530" lon="-0.7369700">
        <ele>378.0</ele>
        <time>2018-09-16T06:40:18Z</time>
      </trkpt>
      <trkpt lat="39.3375530" lon="-0.7369700">
        <ele>378.0</ele>
        <time>2018-09-16T06:40:19Z</time>
      </trkpt>
      <trkpt lat="39.3375370" lon="-0.7369750">
        <ele>378.0</ele>
        <time>2018-09-16T06:40:20Z</time>
      </trkpt>
      <trkpt lat="39.3375370" lon="-0.7369750">
        <ele>378.0</ele>
        <time>2018-09-16T06:40:21Z</time>
      </trkpt>
      <trkpt lat="39.3375150" lon="-0.7369830">
        <ele>379.0</ele>
        <time>2018-09-16T06:40:22Z</time>
      </trkpt>
      <trkpt lat="39.3375150" lon="-0.7369830">
        <ele>379.0</ele>
        <time>2018-09-16T06:40:23Z</time>
      </trkpt>
      <trkpt lat="39.3374950" lon="-0.7369930">
        <ele>379.0</ele>
        <time>2018-09-16T06:40:24Z</time>
      </trkpt>
      <trkpt lat="39.3374950" lon="-0.7369930">
        <ele>379.0</ele>
        <time>2018-09-16T06:40:25Z</time>
      </trkpt>
      <trkpt lat="39.3374720" lon="-0.7370070">
        <ele>380.0</ele>
        <time>2018-09-16T06:40:26Z</time>
      </trkpt>
      <trkpt lat="39.3374720" lon="-0.7370070">
        <ele>380.0</ele>
        <time>2018-09-16T06:40:27Z</time>
      </trkpt>
      <trkpt lat="39.3374530" lon="-0.7370250">
        <ele>381.0</ele>
        <time>2018-09-16T06:40:28Z</time>
      </trkpt>
      <trkpt lat="39.3374530" lon="-0.7370250">
        <ele>381.0</ele>
        <time>2018-09-16T06:40:29Z</time>
      </trkpt>
      <trkpt lat="39.3374370" lon="-0.7370470">
        <ele>382.0</ele>
        <time>2018-09-16T06:40:30Z</time>
      </trkpt>
      <trkpt lat="39.3374370" lon="-0.7370470">
        <ele>382.0</ele>
        <time>2018-09-16T06:40:31Z</time>
      </trkpt>
      <trkpt lat="39.3374230" lon="-0.7370700">
        <ele>382.0</ele>
        <time>2018-09-16T06:40:32Z</time>
      </trkpt>
      <trkpt lat="39.3374230" lon="-0.7370700">
        <ele>382.0</ele>
        <time>2018-09-16T06:40:33Z</time>
      </trkpt>
      <trkpt lat="39.3374100" lon="-0.7370900">
        <ele>383.0</ele>
        <time>2018-09-16T06:40:34Z</time>
      </trkpt>
      <trkpt lat="39.3374100" lon="-0.7370900">
        <ele>383.0</ele>
        <time>2018-09-16T06:40:35Z</time>
      </trkpt>
      <trkpt lat="39.3373970" lon="-0.7371150">
        <ele>383.0</ele>
        <time>2018-09-16T06:40:36Z</time>
      </trkpt>
      <trkpt lat="39.3373970" lon="-0.7371150">
        <ele>383.0</ele>
        <time>2018-09-16T06:40:37Z</time>
      </trkpt>
      <trkpt lat="39.3373830" lon="-0.7371400">
        <ele>384.0</ele>
        <time>2018-09-16T06:40:38Z</time>
      </trkpt>
      <trkpt lat="39.3373830" lon="-0.7371400">
        <ele>384.0</ele>
        <time>2018-09-16T06:40:39Z</time>
      </trkpt>
      <trkpt lat="39.3373770" lon="-0.7371720">
        <ele>384.0</ele>
        <time>2018-09-16T06:40:40Z</time>
      </trkpt>
      <trkpt lat="39.3373770" lon="-0.7371720">
        <ele>384.0</ele>
        <time>2018-09-16T06:40:41Z</time>
      </trkpt>
      <trkpt lat="39.3373770" lon="-0.7372030">
        <ele>384.0</ele>
        <time>2018-09-16T06:40:42Z</time>
      </trkpt>
      <trkpt lat="39.3373770" lon="-0.7372030">
        <ele>384.0</ele>
        <time>2018-09-16T06:40:43Z</time>
      </trkpt>
      <trkpt lat="39.3373750" lon="-0.7372370">
        <ele>385.0</ele>
        <time>2018-09-16T06:40:44Z</time>
      </trkpt>
      <trkpt lat="39.3373750" lon="-0.7372370">
        <ele>385.0</ele>
        <time>2018-09-16T06:40:45Z</time>
      </trkpt>
      <trkpt lat="39.3373750" lon="-0.7372700">
        <ele>385.0</ele>
        <time>2018-09-16T06:40:46Z</time>
      </trkpt>
      <trkpt lat="39.3373750" lon="-0.7372700">
        <ele>385.0</ele>
        <time>2018-09-16T06:40:47Z</time>
      </trkpt>
      <trkpt lat="39.3373770" lon="-0.7373030">
        <ele>385.0</ele>
        <time>2018-09-16T06:40:48Z</time>
      </trkpt>
      <trkpt lat="39.3373770" lon="-0.7373030">
        <ele>385.0</ele>
        <time>2018-09-16T06:40:49Z</time>
      </trkpt>
      <trkpt lat="39.3373800" lon="-0.7373400">
        <ele>385.0</ele>
        <time>2018-09-16T06:40:50Z</time>
      </trkpt>
      <trkpt lat="39.3373850" lon="-0.7373580">
        <ele>386.0</ele>
        <time>2018-09-16T06:40:51Z</time>
      </trkpt>
      <trkpt lat="39.3373850" lon="-0.7373580">
        <ele>386.0</ele>
        <time>2018-09-16T06:40:52Z</time>
      </trkpt>
      <trkpt lat="39.3373970" lon="-0.7373930">
        <ele>386.0</ele>
        <time>2018-09-16T06:40:53Z</time>
      </trkpt>
      <trkpt lat="39.3373970" lon="-0.7374100">
        <ele>386.0</ele>
        <time>2018-09-16T06:40:54Z</time>
      </trkpt>
      <trkpt lat="39.3373970" lon="-0.7374100">
        <ele>386.0</ele>
        <time>2018-09-16T06:40:55Z</time>
      </trkpt>
      <trkpt lat="39.3373970" lon="-0.7374480">
        <ele>386.0</ele>
        <time>2018-09-16T06:40:56Z</time>
      </trkpt>
      <trkpt lat="39.3373970" lon="-0.7374480">
        <ele>386.0</ele>
        <time>2018-09-16T06:40:57Z</time>
      </trkpt>
      <trkpt lat="39.3374000" lon="-0.7374880">
        <ele>386.0</ele>
        <time>2018-09-16T06:40:58Z</time>
      </trkpt>
      <trkpt lat="39.3374000" lon="-0.7374880">
        <ele>386.0</ele>
        <time>2018-09-16T06:40:59Z</time>
      </trkpt>
      <trkpt lat="39.3374080" lon="-0.7375280">
        <ele>386.0</ele>
        <time>2018-09-16T06:41:00Z</time>
      </trkpt>
      <trkpt lat="39.3374080" lon="-0.7375280">
        <ele>386.0</ele>
        <time>2018-09-16T06:41:01Z</time>
      </trkpt>
      <trkpt lat="39.3374120" lon="-0.7375670">
        <ele>386.0</ele>
        <time>2018-09-16T06:41:02Z</time>
      </trkpt>
      <trkpt lat="39.3374120" lon="-0.7375670">
        <ele>386.0</ele>
        <time>2018-09-16T06:41:03Z</time>
      </trkpt>
      <trkpt lat="39.3374130" lon="-0.7376050">
        <ele>386.0</ele>
        <time>2018-09-16T06:41:04Z</time>
      </trkpt>
      <trkpt lat="39.3374130" lon="-0.7376050">
        <ele>386.0</ele>
        <time>2018-09-16T06:41:05Z</time>
      </trkpt>
      <trkpt lat="39.3374150" lon="-0.7376420">
        <ele>386.0</ele>
        <time>2018-09-16T06:41:06Z</time>
      </trkpt>
      <trkpt lat="39.3374150" lon="-0.7376420">
        <ele>386.0</ele>
        <time>2018-09-16T06:41:07Z</time>
      </trkpt>
      <trkpt lat="39.3374170" lon="-0.7376820">
        <ele>386.0</ele>
        <time>2018-09-16T06:41:08Z</time>
      </trkpt>
      <trkpt lat="39.3374170" lon="-0.7376820">
        <ele>386.0</ele>
        <time>2018-09-16T06:41:09Z</time>
      </trkpt>
      <trkpt lat="39.3374130" lon="-0.7377220">
        <ele>386.0</ele>
        <time>2018-09-16T06:41:10Z</time>
      </trkpt>
      <trkpt lat="39.3374130" lon="-0.7377220">
        <ele>386.0</ele>
        <time>2018-09-16T06:41:11Z</time>
      </trkpt>
      <trkpt lat="39.3374150" lon="-0.7377570">
        <ele>386.0</ele>
        <time>2018-09-16T06:41:12Z</time>
      </trkpt>
      <trkpt lat="39.3374150" lon="-0.7377570">
        <ele>386.0</ele>
        <time>2018-09-16T06:41:13Z</time>
      </trkpt>
      <trkpt lat="39.3374170" lon="-0.7377920">
        <ele>386.0</ele>
        <time>2018-09-16T06:41:14Z</time>
      </trkpt>
      <trkpt lat="39.3374180" lon="-0.7378150">
        <ele>386.0</ele>
        <time>2018-09-16T06:41:15Z</time>
      </trkpt>
      <trkpt lat="39.3374180" lon="-0.7378150">
        <ele>386.0</ele>
        <time>2018-09-16T06:41:16Z</time>
      </trkpt>
      <trkpt lat="39.3374200" lon="-0.7378520">
        <ele>386.0</ele>
        <time>2018-09-16T06:41:17Z</time>
      </trkpt>
      <trkpt lat="39.3374220" lon="-0.7378750">
        <ele>386.0</ele>
        <time>2018-09-16T06:41:18Z</time>
      </trkpt>
      <trkpt lat="39.3374220" lon="-0.7378750">
        <ele>386.0</ele>
        <time>2018-09-16T06:41:19Z</time>
      </trkpt>
      <trkpt lat="39.3374180" lon="-0.7379080">
        <ele>387.0</ele>
        <time>2018-09-16T06:41:20Z</time>
      </trkpt>
      <trkpt lat="39.3374180" lon="-0.7379080">
        <ele>387.0</ele>
        <time>2018-09-16T06:41:21Z</time>
      </trkpt>
      <trkpt lat="39.3374180" lon="-0.7379400">
        <ele>387.0</ele>
        <time>2018-09-16T06:41:22Z</time>
      </trkpt>
      <trkpt lat="39.3374180" lon="-0.7379400">
        <ele>387.0</ele>
        <time>2018-09-16T06:41:23Z</time>
      </trkpt>
      <trkpt lat="39.3374220" lon="-0.7379720">
        <ele>387.0</ele>
        <time>2018-09-16T06:41:24Z</time>
      </trkpt>
      <trkpt lat="39.3374220" lon="-0.7379720">
        <ele>387.0</ele>
        <time>2018-09-16T06:41:25Z</time>
      </trkpt>
      <trkpt lat="39.3374250" lon="-0.7380130">
        <ele>388.0</ele>
        <time>2018-09-16T06:41:26Z</time>
      </trkpt>
      <trkpt lat="39.3374250" lon="-0.7380130">
        <ele>388.0</ele>
        <time>2018-09-16T06:41:27Z</time>
      </trkpt>
      <trkpt lat="39.3374230" lon="-0.7380620">
        <ele>388.0</ele>
        <time>2018-09-16T06:41:28Z</time>
      </trkpt>
      <trkpt lat="39.3374230" lon="-0.7380620">
        <ele>388.0</ele>
        <time>2018-09-16T06:41:29Z</time>
      </trkpt>
      <trkpt lat="39.3374200" lon="-0.7381070">
        <ele>389.0</ele>
        <time>2018-09-16T06:41:30Z</time>
      </trkpt>
      <trkpt lat="39.3374200" lon="-0.7381070">
        <ele>389.0</ele>
        <time>2018-09-16T06:41:31Z</time>
      </trkpt>
      <trkpt lat="39.3374150" lon="-0.7381470">
        <ele>389.0</ele>
        <time>2018-09-16T06:41:32Z</time>
      </trkpt>
      <trkpt lat="39.3374150" lon="-0.7381470">
        <ele>389.0</ele>
        <time>2018-09-16T06:41:33Z</time>
      </trkpt>
      <trkpt lat="39.3374070" lon="-0.7381780">
        <ele>389.0</ele>
        <time>2018-09-16T06:41:34Z</time>
      </trkpt>
      <trkpt lat="39.3374070" lon="-0.7381780">
        <ele>389.0</ele>
        <time>2018-09-16T06:41:35Z</time>
      </trkpt>
      <trkpt lat="39.3374030" lon="-0.7382180">
        <ele>390.0</ele>
        <time>2018-09-16T06:41:36Z</time>
      </trkpt>
      <trkpt lat="39.3374030" lon="-0.7382180">
        <ele>390.0</ele>
        <time>2018-09-16T06:41:37Z</time>
      </trkpt>
      <trkpt lat="39.3374050" lon="-0.7382600">
        <ele>390.0</ele>
        <time>2018-09-16T06:41:38Z</time>
      </trkpt>
      <trkpt lat="39.3374050" lon="-0.7382600">
        <ele>390.0</ele>
        <time>2018-09-16T06:41:39Z</time>
      </trkpt>
      <trkpt lat="39.3374020" lon="-0.7383080">
        <ele>390.0</ele>
        <time>2018-09-16T06:41:40Z</time>
      </trkpt>
      <trkpt lat="39.3374020" lon="-0.7383080">
        <ele>390.0</ele>
        <time>2018-09-16T06:41:41Z</time>
      </trkpt>
      <trkpt lat="39.3373950" lon="-0.7383630">
        <ele>390.0</ele>
        <time>2018-09-16T06:41:42Z</time>
      </trkpt>
      <trkpt lat="39.3373950" lon="-0.7383630">
        <ele>390.0</ele>
        <time>2018-09-16T06:41:43Z</time>
      </trkpt>
      <trkpt lat="39.3374000" lon="-0.7384270">
        <ele>390.0</ele>
        <time>2018-09-16T06:41:44Z</time>
      </trkpt>
      <trkpt lat="39.3374000" lon="-0.7384270">
        <ele>390.0</ele>
        <time>2018-09-16T06:41:45Z</time>
      </trkpt>
      <trkpt lat="39.3374020" lon="-0.7384830">
        <ele>390.0</ele>
        <time>2018-09-16T06:41:46Z</time>
      </trkpt>
      <trkpt lat="39.3374020" lon="-0.7384830">
        <ele>391.0</ele>
        <time>2018-09-16T06:41:47Z</time>
      </trkpt>
      <trkpt lat="39.3374030" lon="-0.7385320">
        <ele>391.0</ele>
        <time>2018-09-16T06:41:48Z</time>
      </trkpt>
      <trkpt lat="39.3374030" lon="-0.7385570">
        <ele>391.0</ele>
        <time>2018-09-16T06:41:49Z</time>
      </trkpt>
      <trkpt lat="39.3374030" lon="-0.7385570">
        <ele>391.0</ele>
        <time>2018-09-16T06:41:50Z</time>
      </trkpt>
      <trkpt lat="39.3374000" lon="-0.7386130">
        <ele>391.0</ele>
        <time>2018-09-16T06:41:51Z</time>
      </trkpt>
      <trkpt lat="39.3374000" lon="-0.7386130">
        <ele>391.0</ele>
        <time>2018-09-16T06:41:52Z</time>
      </trkpt>
      <trkpt lat="39.3373970" lon="-0.7386700">
        <ele>391.0</ele>
        <time>2018-09-16T06:41:53Z</time>
      </trkpt>
      <trkpt lat="39.3373980" lon="-0.7386980">
        <ele>391.0</ele>
        <time>2018-09-16T06:41:54Z</time>
      </trkpt>
      <trkpt lat="39.3373980" lon="-0.7386980">
        <ele>391.0</ele>
        <time>2018-09-16T06:41:55Z</time>
      </trkpt>
      <trkpt lat="39.3373950" lon="-0.7387550">
        <ele>391.0</ele>
        <time>2018-09-16T06:41:56Z</time>
      </trkpt>
      <trkpt lat="39.3373950" lon="-0.7387820">
        <ele>391.0</ele>
        <time>2018-09-16T06:41:57Z</time>
      </trkpt>
      <trkpt lat="39.3373950" lon="-0.7387820">
        <ele>392.0</ele>
        <time>2018-09-16T06:41:58Z</time>
      </trkpt>
      <trkpt lat="39.3373980" lon="-0.7388380">
        <ele>392.0</ele>
        <time>2018-09-16T06:41:59Z</time>
      </trkpt>
      <trkpt lat="39.3373980" lon="-0.7388380">
        <ele>392.0</ele>
        <time>2018-09-16T06:42:00Z</time>
      </trkpt>
      <trkpt lat="39.3374000" lon="-0.7388970">
        <ele>392.0</ele>
        <time>2018-09-16T06:42:01Z</time>
      </trkpt>
      <trkpt lat="39.3374000" lon="-0.7388970">
        <ele>392.0</ele>
        <time>2018-09-16T06:42:02Z</time>
      </trkpt>
      <trkpt lat="39.3373930" lon="-0.7389530">
        <ele>392.0</ele>
        <time>2018-09-16T06:42:03Z</time>
      </trkpt>
      <trkpt lat="39.3373930" lon="-0.7389530">
        <ele>392.0</ele>
        <time>2018-09-16T06:42:04Z</time>
      </trkpt>
      <trkpt lat="39.3373780" lon="-0.7390100">
        <ele>392.0</ele>
        <time>2018-09-16T06:42:05Z</time>
      </trkpt>
      <trkpt lat="39.3373700" lon="-0.7390330">
        <ele>392.0</ele>
        <time>2018-09-16T06:42:06Z</time>
      </trkpt>
      <trkpt lat="39.3373610" lon="-0.7390570">
        <ele>392.0</ele>
        <time>2018-09-16T06:42:07Z</time>
      </trkpt>
      <trkpt lat="39.3373520" lon="-0.7390800">
        <ele>392.0</ele>
        <time>2018-09-16T06:42:08Z</time>
      </trkpt>
      <trkpt lat="39.3373520" lon="-0.7390800">
        <ele>392.0</ele>
        <time>2018-09-16T06:42:09Z</time>
      </trkpt>
      <trkpt lat="39.3373370" lon="-0.7391180">
        <ele>392.0</ele>
        <time>2018-09-16T06:42:10Z</time>
      </trkpt>
      <trkpt lat="39.3373370" lon="-0.7391180">
        <ele>392.0</ele>
        <time>2018-09-16T06:42:11Z</time>
      </trkpt>
      <trkpt lat="39.3373130" lon="-0.7391530">
        <ele>392.0</ele>
        <time>2018-09-16T06:42:12Z</time>
      </trkpt>
      <trkpt lat="39.3373030" lon="-0.7391730">
        <ele>393.0</ele>
        <time>2018-09-16T06:42:13Z</time>
      </trkpt>
      <trkpt lat="39.3372930" lon="-0.7391920">
        <ele>393.0</ele>
        <time>2018-09-16T06:42:14Z</time>
      </trkpt>
      <trkpt lat="39.3372770" lon="-0.7392020">
        <ele>394.0</ele>
        <time>2018-09-16T06:42:15Z</time>
      </trkpt>
      <trkpt lat="39.3372570" lon="-0.7392100">
        <ele>394.0</ele>
        <time>2018-09-16T06:42:16Z</time>
      </trkpt>
      <trkpt lat="39.3372570" lon="-0.7392100">
        <ele>394.0</ele>
        <time>2018-09-16T06:42:17Z</time>
      </trkpt>
      <trkpt lat="39.3372280" lon="-0.7392020">
        <ele>395.0</ele>
        <time>2018-09-16T06:42:18Z</time>
      </trkpt>
      <trkpt lat="39.3372280" lon="-0.7392020">
        <ele>395.0</ele>
        <time>2018-09-16T06:42:19Z</time>
      </trkpt>
      <trkpt lat="39.3372300" lon="-0.7391670">
        <ele>395.0</ele>
        <time>2018-09-16T06:42:20Z</time>
      </trkpt>
      <trkpt lat="39.3372300" lon="-0.7391670">
        <ele>395.0</ele>
        <time>2018-09-16T06:42:21Z</time>
      </trkpt>
      <trkpt lat="39.3372420" lon="-0.7391330">
        <ele>395.0</ele>
        <time>2018-09-16T06:42:22Z</time>
      </trkpt>
      <trkpt lat="39.3372450" lon="-0.7391130">
        <ele>395.0</ele>
        <time>2018-09-16T06:42:23Z</time>
      </trkpt>
      <trkpt lat="39.3372520" lon="-0.7390920">
        <ele>396.0</ele>
        <time>2018-09-16T06:42:24Z</time>
      </trkpt>
      <trkpt lat="39.3372520" lon="-0.7390920">
        <ele>396.0</ele>
        <time>2018-09-16T06:42:25Z</time>
      </trkpt>
      <trkpt lat="39.3372600" lon="-0.7390550">
        <ele>396.0</ele>
        <time>2018-09-16T06:42:26Z</time>
      </trkpt>
      <trkpt lat="39.3372600" lon="-0.7390550">
        <ele>396.0</ele>
        <time>2018-09-16T06:42:27Z</time>
      </trkpt>
      <trkpt lat="39.3372650" lon="-0.7390170">
        <ele>396.0</ele>
        <time>2018-09-16T06:42:28Z</time>
      </trkpt>
      <trkpt lat="39.3372620" lon="-0.7390020">
        <ele>396.0</ele>
        <time>2018-09-16T06:42:29Z</time>
      </trkpt>
      <trkpt lat="39.3372580" lon="-0.7389850">
        <ele>396.0</ele>
        <time>2018-09-16T06:42:30Z</time>
      </trkpt>
      <trkpt lat="39.3372580" lon="-0.7389850">
        <ele>396.0</ele>
        <time>2018-09-16T06:42:31Z</time>
      </trkpt>
      <trkpt lat="39.3372600" lon="-0.7389470">
        <ele>397.0</ele>
        <time>2018-09-16T06:42:32Z</time>
      </trkpt>
      <trkpt lat="39.3372620" lon="-0.7389280">
        <ele>397.0</ele>
        <time>2018-09-16T06:42:33Z</time>
      </trkpt>
      <trkpt lat="39.3372620" lon="-0.7389280">
        <ele>397.0</ele>
        <time>2018-09-16T06:42:34Z</time>
      </trkpt>
      <trkpt lat="39.3372620" lon="-0.7388950">
        <ele>397.0</ele>
        <time>2018-09-16T06:42:35Z</time>
      </trkpt>
      <trkpt lat="39.3372620" lon="-0.7388950">
        <ele>397.0</ele>
        <time>2018-09-16T06:42:36Z</time>
      </trkpt>
      <trkpt lat="39.3372650" lon="-0.7388700">
        <ele>397.0</ele>
        <time>2018-09-16T06:42:37Z</time>
      </trkpt>
      <trkpt lat="39.3372650" lon="-0.7388700">
        <ele>398.0</ele>
        <time>2018-09-16T06:42:38Z</time>
      </trkpt>
      <trkpt lat="39.3372600" lon="-0.7388350">
        <ele>398.0</ele>
        <time>2018-09-16T06:42:39Z</time>
      </trkpt>
      <trkpt lat="39.3372550" lon="-0.7388170">
        <ele>398.0</ele>
        <time>2018-09-16T06:42:40Z</time>
      </trkpt>
      <trkpt lat="39.3372550" lon="-0.7388170">
        <ele>398.0</ele>
        <time>2018-09-16T06:42:41Z</time>
      </trkpt>
      <trkpt lat="39.3372420" lon="-0.7387830">
        <ele>398.0</ele>
        <time>2018-09-16T06:42:42Z</time>
      </trkpt>
      <trkpt lat="39.3372420" lon="-0.7387830">
        <ele>399.0</ele>
        <time>2018-09-16T06:42:43Z</time>
      </trkpt>
      <trkpt lat="39.3372330" lon="-0.7387470">
        <ele>399.0</ele>
        <time>2018-09-16T06:42:44Z</time>
      </trkpt>
      <trkpt lat="39.3372300" lon="-0.7387280">
        <ele>399.0</ele>
        <time>2018-09-16T06:42:45Z</time>
      </trkpt>
      <trkpt lat="39.3372300" lon="-0.7387280">
        <ele>400.0</ele>
        <time>2018-09-16T06:42:46Z</time>
      </trkpt>
      <trkpt lat="39.3372150" lon="-0.7386880">
        <ele>400.0</ele>
        <time>2018-09-16T06:42:47Z</time>
      </trkpt>
      <trkpt lat="39.3372080" lon="-0.7386670">
        <ele>400.0</ele>
        <time>2018-09-16T06:42:48Z</time>
      </trkpt>
      <trkpt lat="39.3372080" lon="-0.7386670">
        <ele>400.0</ele>
        <time>2018-09-16T06:42:49Z</time>
      </trkpt>
      <trkpt lat="39.3371980" lon="-0.7386180">
        <ele>400.0</ele>
        <time>2018-09-16T06:42:50Z</time>
      </trkpt>
      <trkpt lat="39.3371920" lon="-0.7385950">
        <ele>400.0</ele>
        <time>2018-09-16T06:42:51Z</time>
      </trkpt>
      <trkpt lat="39.3371920" lon="-0.7385950">
        <ele>400.0</ele>
        <time>2018-09-16T06:42:52Z</time>
      </trkpt>
      <trkpt lat="39.3371850" lon="-0.7385480">
        <ele>400.0</ele>
        <time>2018-09-16T06:42:53Z</time>
      </trkpt>
      <trkpt lat="39.3371850" lon="-0.7385480">
        <ele>400.0</ele>
        <time>2018-09-16T06:42:54Z</time>
      </trkpt>
      <trkpt lat="39.3371780" lon="-0.7385000">
        <ele>400.0</ele>
        <time>2018-09-16T06:42:55Z</time>
      </trkpt>
      <trkpt lat="39.3371780" lon="-0.7385000">
        <ele>401.0</ele>
        <time>2018-09-16T06:42:56Z</time>
      </trkpt>
      <trkpt lat="39.3371720" lon="-0.7384570">
        <ele>401.0</ele>
        <time>2018-09-16T06:42:57Z</time>
      </trkpt>
      <trkpt lat="39.3371720" lon="-0.7384570">
        <ele>401.0</ele>
        <time>2018-09-16T06:42:58Z</time>
      </trkpt>
      <trkpt lat="39.3371670" lon="-0.7384220">
        <ele>401.0</ele>
        <time>2018-09-16T06:42:59Z</time>
      </trkpt>
      <trkpt lat="39.3371680" lon="-0.7384080">
        <ele>401.0</ele>
        <time>2018-09-16T06:43:00Z</time>
      </trkpt>
      <trkpt lat="39.3371680" lon="-0.7384080">
        <ele>401.0</ele>
        <time>2018-09-16T06:43:01Z</time>
      </trkpt>
      <trkpt lat="39.3371680" lon="-0.7383750">
        <ele>401.0</ele>
        <time>2018-09-16T06:43:02Z</time>
      </trkpt>
      <trkpt lat="39.3371680" lon="-0.7383750">
        <ele>401.0</ele>
        <time>2018-09-16T06:43:03Z</time>
      </trkpt>
      <trkpt lat="39.3371600" lon="-0.7383400">
        <ele>401.0</ele>
        <time>2018-09-16T06:43:04Z</time>
      </trkpt>
      <trkpt lat="39.3371600" lon="-0.7383400">
        <ele>401.0</ele>
        <time>2018-09-16T06:43:05Z</time>
      </trkpt>
      <trkpt lat="39.3371580" lon="-0.7383130">
        <ele>402.0</ele>
        <time>2018-09-16T06:43:06Z</time>
      </trkpt>
      <trkpt lat="39.3371580" lon="-0.7383130">
        <ele>402.0</ele>
        <time>2018-09-16T06:43:07Z</time>
      </trkpt>
      <trkpt lat="39.3371600" lon="-0.7382820">
        <ele>402.0</ele>
        <time>2018-09-16T06:43:08Z</time>
      </trkpt>
      <trkpt lat="39.3371600" lon="-0.7382820">
        <ele>402.0</ele>
        <time>2018-09-16T06:43:09Z</time>
      </trkpt>
      <trkpt lat="39.3371600" lon="-0.7382520">
        <ele>402.0</ele>
        <time>2018-09-16T06:43:10Z</time>
      </trkpt>
      <trkpt lat="39.3371600" lon="-0.7382520">
        <ele>402.0</ele>
        <time>2018-09-16T06:43:11Z</time>
      </trkpt>
      <trkpt lat="39.3371630" lon="-0.7382220">
        <ele>402.0</ele>
        <time>2018-09-16T06:43:12Z</time>
      </trkpt>
      <trkpt lat="39.3371630" lon="-0.7382220">
        <ele>403.0</ele>
        <time>2018-09-16T06:43:13Z</time>
      </trkpt>
      <trkpt lat="39.3371520" lon="-0.7381880">
        <ele>403.0</ele>
        <time>2018-09-16T06:43:14Z</time>
      </trkpt>
      <trkpt lat="39.3371470" lon="-0.7381700">
        <ele>403.0</ele>
        <time>2018-09-16T06:43:15Z</time>
      </trkpt>
      <trkpt lat="39.3371470" lon="-0.7381700">
        <ele>403.0</ele>
        <time>2018-09-16T06:43:16Z</time>
      </trkpt>
      <trkpt lat="39.3371270" lon="-0.7381230">
        <ele>403.0</ele>
        <time>2018-09-16T06:43:17Z</time>
      </trkpt>
      <trkpt lat="39.3371280" lon="-0.7381050">
        <ele>403.0</ele>
        <time>2018-09-16T06:43:18Z</time>
      </trkpt>
      <trkpt lat="39.3371280" lon="-0.7381050">
        <ele>403.0</ele>
        <time>2018-09-16T06:43:19Z</time>
      </trkpt>
      <trkpt lat="39.3371270" lon="-0.7380700">
        <ele>403.0</ele>
        <time>2018-09-16T06:43:20Z</time>
      </trkpt>
      <trkpt lat="39.3371220" lon="-0.7380500">
        <ele>404.0</ele>
        <time>2018-09-16T06:43:21Z</time>
      </trkpt>
      <trkpt lat="39.3371220" lon="-0.7380500">
        <ele>404.0</ele>
        <time>2018-09-16T06:43:22Z</time>
      </trkpt>
      <trkpt lat="39.3371170" lon="-0.7380150">
        <ele>404.0</ele>
        <time>2018-09-16T06:43:23Z</time>
      </trkpt>
      <trkpt lat="39.3371100" lon="-0.7379970">
        <ele>404.0</ele>
        <time>2018-09-16T06:43:24Z</time>
      </trkpt>
      <trkpt lat="39.3371100" lon="-0.7379970">
        <ele>404.0</ele>
        <time>2018-09-16T06:43:25Z</time>
      </trkpt>
      <trkpt lat="39.3370930" lon="-0.7379680">
        <ele>404.0</ele>
        <time>2018-09-16T06:43:26Z</time>
      </trkpt>
      <trkpt lat="39.3370930" lon="-0.7379680">
        <ele>405.0</ele>
        <time>2018-09-16T06:43:27Z</time>
      </trkpt>
      <trkpt lat="39.3370820" lon="-0.7379270">
        <ele>405.0</ele>
        <time>2018-09-16T06:43:28Z</time>
      </trkpt>
      <trkpt lat="39.3370770" lon="-0.7379080">
        <ele>405.0</ele>
        <time>2018-09-16T06:43:29Z</time>
      </trkpt>
      <trkpt lat="39.3370680" lon="-0.7378920">
        <ele>405.0</ele>
        <time>2018-09-16T06:43:30Z</time>
      </trkpt>
      <trkpt lat="39.3370680" lon="-0.7378920">
        <ele>406.0</ele>
        <time>2018-09-16T06:43:31Z</time>
      </trkpt>
      <trkpt lat="39.3370530" lon="-0.7378550">
        <ele>406.0</ele>
        <time>2018-09-16T06:43:32Z</time>
      </trkpt>
      <trkpt lat="39.3370530" lon="-0.7378550">
        <ele>406.0</ele>
        <time>2018-09-16T06:43:33Z</time>
      </trkpt>
      <trkpt lat="39.3370380" lon="-0.7378180">
        <ele>406.0</ele>
        <time>2018-09-16T06:43:34Z</time>
      </trkpt>
      <trkpt lat="39.3370320" lon="-0.7378030">
        <ele>408.0</ele>
        <time>2018-09-16T06:43:35Z</time>
      </trkpt>
      <trkpt lat="39.3370270" lon="-0.7377880">
        <ele>408.0</ele>
        <time>2018-09-16T06:43:36Z</time>
      </trkpt>
      <trkpt lat="39.3370270" lon="-0.7377880">
        <ele>408.0</ele>
        <time>2018-09-16T06:43:37Z</time>
      </trkpt>
      <trkpt lat="39.3370100" lon="-0.7377500">
        <ele>408.0</ele>
        <time>2018-09-16T06:43:38Z</time>
      </trkpt>
      <trkpt lat="39.3370100" lon="-0.7377500">
        <ele>408.0</ele>
        <time>2018-09-16T06:43:39Z</time>
      </trkpt>
      <trkpt lat="39.3369930" lon="-0.7377100">
        <ele>408.0</ele>
        <time>2018-09-16T06:43:40Z</time>
      </trkpt>
      <trkpt lat="39.3369930" lon="-0.7377100">
        <ele>408.0</ele>
        <time>2018-09-16T06:43:41Z</time>
      </trkpt>
      <trkpt lat="39.3369770" lon="-0.7376650">
        <ele>408.0</ele>
        <time>2018-09-16T06:43:42Z</time>
      </trkpt>
      <trkpt lat="39.3369770" lon="-0.7376650">
        <ele>408.0</ele>
        <time>2018-09-16T06:43:43Z</time>
      </trkpt>
      <trkpt lat="39.3369550" lon="-0.7376130">
        <ele>408.0</ele>
        <time>2018-09-16T06:43:44Z</time>
      </trkpt>
      <trkpt lat="39.3369550" lon="-0.7376130">
        <ele>408.0</ele>
        <time>2018-09-16T06:43:45Z</time>
      </trkpt>
      <trkpt lat="39.3369270" lon="-0.7375580">
        <ele>408.0</ele>
        <time>2018-09-16T06:43:46Z</time>
      </trkpt>
      <trkpt lat="39.3369270" lon="-0.7375580">
        <ele>408.0</ele>
        <time>2018-09-16T06:43:47Z</time>
      </trkpt>
      <trkpt lat="39.3369000" lon="-0.7375030">
        <ele>408.0</ele>
        <time>2018-09-16T06:43:48Z</time>
      </trkpt>
      <trkpt lat="39.3369000" lon="-0.7375030">
        <ele>408.0</ele>
        <time>2018-09-16T06:43:49Z</time>
      </trkpt>
      <trkpt lat="39.3368770" lon="-0.7374520">
        <ele>408.0</ele>
        <time>2018-09-16T06:43:50Z</time>
      </trkpt>
      <trkpt lat="39.3368770" lon="-0.7374520">
        <ele>408.0</ele>
        <time>2018-09-16T06:43:51Z</time>
      </trkpt>
      <trkpt lat="39.3368530" lon="-0.7374120">
        <ele>409.0</ele>
        <time>2018-09-16T06:43:52Z</time>
      </trkpt>
      <trkpt lat="39.3368530" lon="-0.7374120">
        <ele>409.0</ele>
        <time>2018-09-16T06:43:53Z</time>
      </trkpt>
      <trkpt lat="39.3368320" lon="-0.7373730">
        <ele>409.0</ele>
        <time>2018-09-16T06:43:54Z</time>
      </trkpt>
      <trkpt lat="39.3368180" lon="-0.7373510">
        <ele>409.0</ele>
        <time>2018-09-16T06:43:55Z</time>
      </trkpt>
      <trkpt lat="39.3368030" lon="-0.7373300">
        <ele>410.0</ele>
        <time>2018-09-16T06:43:56Z</time>
      </trkpt>
      <trkpt lat="39.3368030" lon="-0.7373300">
        <ele>410.0</ele>
        <time>2018-09-16T06:43:57Z</time>
      </trkpt>
      <trkpt lat="39.3367750" lon="-0.7372880">
        <ele>410.0</ele>
        <time>2018-09-16T06:43:58Z</time>
      </trkpt>
      <trkpt lat="39.3367600" lon="-0.7372680">
        <ele>410.0</ele>
        <time>2018-09-16T06:43:59Z</time>
      </trkpt>
      <trkpt lat="39.3367420" lon="-0.7372480">
        <ele>410.0</ele>
        <time>2018-09-16T06:44:00Z</time>
      </trkpt>
      <trkpt lat="39.3367420" lon="-0.7372480">
        <ele>410.0</ele>
        <time>2018-09-16T06:44:01Z</time>
      </trkpt>
      <trkpt lat="39.3367080" lon="-0.7372120">
        <ele>410.0</ele>
        <time>2018-09-16T06:44:02Z</time>
      </trkpt>
      <trkpt lat="39.3366900" lon="-0.7371970">
        <ele>410.0</ele>
        <time>2018-09-16T06:44:03Z</time>
      </trkpt>
      <trkpt lat="39.3366900" lon="-0.7371970">
        <ele>411.0</ele>
        <time>2018-09-16T06:44:04Z</time>
      </trkpt>
      <trkpt lat="39.3366530" lon="-0.7371780">
        <ele>411.0</ele>
        <time>2018-09-16T06:44:05Z</time>
      </trkpt>
      <trkpt lat="39.3366370" lon="-0.7371730">
        <ele>411.0</ele>
        <time>2018-09-16T06:44:06Z</time>
      </trkpt>
      <trkpt lat="39.3366370" lon="-0.7371730">
        <ele>411.0</ele>
        <time>2018-09-16T06:44:07Z</time>
      </trkpt>
      <trkpt lat="39.3366020" lon="-0.7371670">
        <ele>411.0</ele>
        <time>2018-09-16T06:44:08Z</time>
      </trkpt>
      <trkpt lat="39.3366020" lon="-0.7371670">
        <ele>411.0</ele>
        <time>2018-09-16T06:44:09Z</time>
      </trkpt>
      <trkpt lat="39.3365750" lon="-0.7371820">
        <ele>411.0</ele>
        <time>2018-09-16T06:44:10Z</time>
      </trkpt>
      <trkpt lat="39.3365680" lon="-0.7371970">
        <ele>411.0</ele>
        <time>2018-09-16T06:44:11Z</time>
      </trkpt>
      <trkpt lat="39.3365680" lon="-0.7371970">
        <ele>411.0</ele>
        <time>2018-09-16T06:44:12Z</time>
      </trkpt>
      <trkpt lat="39.3365670" lon="-0.7372320">
        <ele>411.0</ele>
        <time>2018-09-16T06:44:13Z</time>
      </trkpt>
      <trkpt lat="39.3365670" lon="-0.7372320">
        <ele>411.0</ele>
        <time>2018-09-16T06:44:14Z</time>
      </trkpt>
      <trkpt lat="39.3365670" lon="-0.7372320">
        <ele>411.0</ele>
        <time>2018-09-16T06:48:27Z</time>
      </trkpt>
      <trkpt lat="39.3365650" lon="-0.7372750">
        <ele>411.0</ele>
        <time>2018-09-16T06:48:28Z</time>
      </trkpt>
      <trkpt lat="39.3365650" lon="-0.7372750">
        <ele>411.0</ele>
        <time>2018-09-16T06:48:29Z</time>
      </trkpt>
      <trkpt lat="39.3365670" lon="-0.7373220">
        <ele>411.0</ele>
        <time>2018-09-16T06:48:30Z</time>
      </trkpt>
      <trkpt lat="39.3365670" lon="-0.7373220">
        <ele>411.0</ele>
        <time>2018-09-16T06:48:31Z</time>
      </trkpt>
      <trkpt lat="39.3365680" lon="-0.7373530">
        <ele>411.0</ele>
        <time>2018-09-16T06:48:32Z</time>
      </trkpt>
      <trkpt lat="39.3365680" lon="-0.7373730">
        <ele>411.0</ele>
        <time>2018-09-16T06:48:33Z</time>
      </trkpt>
      <trkpt lat="39.3365680" lon="-0.7373730">
        <ele>411.0</ele>
        <time>2018-09-16T06:48:34Z</time>
      </trkpt>
      <trkpt lat="39.3365730" lon="-0.7374340">
        <ele>411.0</ele>
        <time>2018-09-16T06:48:35Z</time>
      </trkpt>
      <trkpt lat="39.3365730" lon="-0.7374470">
        <ele>411.0</ele>
        <time>2018-09-16T06:48:36Z</time>
      </trkpt>
      <trkpt lat="39.3365730" lon="-0.7374470">
        <ele>411.0</ele>
        <time>2018-09-16T06:48:37Z</time>
      </trkpt>
      <trkpt lat="39.3365750" lon="-0.7374980">
        <ele>411.0</ele>
        <time>2018-09-16T06:48:38Z</time>
      </trkpt>
      <trkpt lat="39.3365750" lon="-0.7374980">
        <ele>411.0</ele>
        <time>2018-09-16T06:48:39Z</time>
      </trkpt>
      <trkpt lat="39.3365750" lon="-0.7375480">
        <ele>411.0</ele>
        <time>2018-09-16T06:48:40Z</time>
      </trkpt>
      <trkpt lat="39.3365750" lon="-0.7375480">
        <ele>411.0</ele>
        <time>2018-09-16T06:48:41Z</time>
      </trkpt>
      <trkpt lat="39.3365820" lon="-0.7375980">
        <ele>411.0</ele>
        <time>2018-09-16T06:48:42Z</time>
      </trkpt>
      <trkpt lat="39.3365830" lon="-0.7376230">
        <ele>411.0</ele>
        <time>2018-09-16T06:48:43Z</time>
      </trkpt>
      <trkpt lat="39.3365830" lon="-0.7376230">
        <ele>411.0</ele>
        <time>2018-09-16T06:48:44Z</time>
      </trkpt>
      <trkpt lat="39.3365870" lon="-0.7376750">
        <ele>411.0</ele>
        <time>2018-09-16T06:48:45Z</time>
      </trkpt>
      <trkpt lat="39.3365870" lon="-0.7376750">
        <ele>412.0</ele>
        <time>2018-09-16T06:48:46Z</time>
      </trkpt>
      <trkpt lat="39.3365880" lon="-0.7377300">
        <ele>412.0</ele>
        <time>2018-09-16T06:48:47Z</time>
      </trkpt>
      <trkpt lat="39.3365920" lon="-0.7377580">
        <ele>412.0</ele>
        <time>2018-09-16T06:48:48Z</time>
      </trkpt>
      <trkpt lat="39.3365920" lon="-0.7377580">
        <ele>412.0</ele>
        <time>2018-09-16T06:48:49Z</time>
      </trkpt>
      <trkpt lat="39.3365950" lon="-0.7378120">
        <ele>412.0</ele>
        <time>2018-09-16T06:48:50Z</time>
      </trkpt>
      <trkpt lat="39.3365970" lon="-0.7378370">
        <ele>412.0</ele>
        <time>2018-09-16T06:48:51Z</time>
      </trkpt>
      <trkpt lat="39.3365980" lon="-0.7378600">
        <ele>412.0</ele>
        <time>2018-09-16T06:48:52Z</time>
      </trkpt>
      <trkpt lat="39.3365980" lon="-0.7378600">
        <ele>413.0</ele>
        <time>2018-09-16T06:48:53Z</time>
      </trkpt>
      <trkpt lat="39.3366000" lon="-0.7379070">
        <ele>413.0</ele>
        <time>2018-09-16T06:48:54Z</time>
      </trkpt>
      <trkpt lat="39.3366030" lon="-0.7379350">
        <ele>413.0</ele>
        <time>2018-09-16T06:48:55Z</time>
      </trkpt>
      <trkpt lat="39.3366030" lon="-0.7379350">
        <ele>413.0</ele>
        <time>2018-09-16T06:48:56Z</time>
      </trkpt>
      <trkpt lat="39.3366080" lon="-0.7379900">
        <ele>413.0</ele>
        <time>2018-09-16T06:48:57Z</time>
      </trkpt>
      <trkpt lat="39.3366080" lon="-0.7379900">
        <ele>413.0</ele>
        <time>2018-09-16T06:48:58Z</time>
      </trkpt>
      <trkpt lat="39.3366120" lon="-0.7380430">
        <ele>413.0</ele>
        <time>2018-09-16T06:48:59Z</time>
      </trkpt>
      <trkpt lat="39.3366130" lon="-0.7380680">
        <ele>413.0</ele>
        <time>2018-09-16T06:49:00Z</time>
      </trkpt>
      <trkpt lat="39.3366130" lon="-0.7380680">
        <ele>413.0</ele>
        <time>2018-09-16T06:49:01Z</time>
      </trkpt>
      <trkpt lat="39.3366170" lon="-0.7381180">
        <ele>413.0</ele>
        <time>2018-09-16T06:49:02Z</time>
      </trkpt>
      <trkpt lat="39.3366170" lon="-0.7381180">
        <ele>414.0</ele>
        <time>2018-09-16T06:49:03Z</time>
      </trkpt>
      <trkpt lat="39.3366200" lon="-0.7381720">
        <ele>414.0</ele>
        <time>2018-09-16T06:49:04Z</time>
      </trkpt>
      <trkpt lat="39.3366200" lon="-0.7381720">
        <ele>414.0</ele>
        <time>2018-09-16T06:49:05Z</time>
      </trkpt>
      <trkpt lat="39.3366270" lon="-0.7382250">
        <ele>414.0</ele>
        <time>2018-09-16T06:49:06Z</time>
      </trkpt>
      <trkpt lat="39.3366270" lon="-0.7382250">
        <ele>414.0</ele>
        <time>2018-09-16T06:49:07Z</time>
      </trkpt>
      <trkpt lat="39.3366280" lon="-0.7382780">
        <ele>414.0</ele>
        <time>2018-09-16T06:49:08Z</time>
      </trkpt>
      <trkpt lat="39.3366280" lon="-0.7382780">
        <ele>414.0</ele>
        <time>2018-09-16T06:49:09Z</time>
      </trkpt>
      <trkpt lat="39.3366320" lon="-0.7383330">
        <ele>414.0</ele>
        <time>2018-09-16T06:49:10Z</time>
      </trkpt>
      <trkpt lat="39.3366320" lon="-0.7383330">
        <ele>414.0</ele>
        <time>2018-09-16T06:49:11Z</time>
      </trkpt>
      <trkpt lat="39.3366270" lon="-0.7383920">
        <ele>414.0</ele>
        <time>2018-09-16T06:49:12Z</time>
      </trkpt>
      <trkpt lat="39.3366270" lon="-0.7383920">
        <ele>415.0</ele>
        <time>2018-09-16T06:49:13Z</time>
      </trkpt>
      <trkpt lat="39.3366220" lon="-0.7384450">
        <ele>415.0</ele>
        <time>2018-09-16T06:49:14Z</time>
      </trkpt>
      <trkpt lat="39.3366220" lon="-0.7384450">
        <ele>415.0</ele>
        <time>2018-09-16T06:49:15Z</time>
      </trkpt>
      <trkpt lat="39.3366100" lon="-0.7384880">
        <ele>415.0</ele>
        <time>2018-09-16T06:49:16Z</time>
      </trkpt>
      <trkpt lat="39.3366100" lon="-0.7384880">
        <ele>415.0</ele>
        <time>2018-09-16T06:49:17Z</time>
      </trkpt>
      <trkpt lat="39.3365950" lon="-0.7385320">
        <ele>415.0</ele>
        <time>2018-09-16T06:49:18Z</time>
      </trkpt>
      <trkpt lat="39.3365950" lon="-0.7385320">
        <ele>415.0</ele>
        <time>2018-09-16T06:49:19Z</time>
      </trkpt>
      <trkpt lat="39.3365750" lon="-0.7385770">
        <ele>415.0</ele>
        <time>2018-09-16T06:49:20Z</time>
      </trkpt>
      <trkpt lat="39.3365750" lon="-0.7385770">
        <ele>416.0</ele>
        <time>2018-09-16T06:49:21Z</time>
      </trkpt>
      <trkpt lat="39.3365570" lon="-0.7386230">
        <ele>416.0</ele>
        <time>2018-09-16T06:49:22Z</time>
      </trkpt>
      <trkpt lat="39.3365480" lon="-0.7386470">
        <ele>416.0</ele>
        <time>2018-09-16T06:49:23Z</time>
      </trkpt>
      <trkpt lat="39.3365480" lon="-0.7386470">
        <ele>416.0</ele>
        <time>2018-09-16T06:49:24Z</time>
      </trkpt>
      <trkpt lat="39.3365370" lon="-0.7386930">
        <ele>416.0</ele>
        <time>2018-09-16T06:49:25Z</time>
      </trkpt>
      <trkpt lat="39.3365370" lon="-0.7386930">
        <ele>417.0</ele>
        <time>2018-09-16T06:49:26Z</time>
      </trkpt>
      <trkpt lat="39.3365150" lon="-0.7387400">
        <ele>417.0</ele>
        <time>2018-09-16T06:49:27Z</time>
      </trkpt>
      <trkpt lat="39.3365150" lon="-0.7387400">
        <ele>417.0</ele>
        <time>2018-09-16T06:49:28Z</time>
      </trkpt>
      <trkpt lat="39.3364930" lon="-0.7387850">
        <ele>417.0</ele>
        <time>2018-09-16T06:49:29Z</time>
      </trkpt>
      <trkpt lat="39.3364830" lon="-0.7388070">
        <ele>417.0</ele>
        <time>2018-09-16T06:49:30Z</time>
      </trkpt>
      <trkpt lat="39.3364830" lon="-0.7388070">
        <ele>417.0</ele>
        <time>2018-09-16T06:49:31Z</time>
      </trkpt>
      <trkpt lat="39.3364580" lon="-0.7388480">
        <ele>417.0</ele>
        <time>2018-09-16T06:49:32Z</time>
      </trkpt>
      <trkpt lat="39.3364420" lon="-0.7388720">
        <ele>417.0</ele>
        <time>2018-09-16T06:49:33Z</time>
      </trkpt>
      <trkpt lat="39.3364420" lon="-0.7388720">
        <ele>417.0</ele>
        <time>2018-09-16T06:49:34Z</time>
      </trkpt>
      <trkpt lat="39.3364070" lon="-0.7389130">
        <ele>417.0</ele>
        <time>2018-09-16T06:49:35Z</time>
      </trkpt>
      <trkpt lat="39.3364070" lon="-0.7389130">
        <ele>417.0</ele>
        <time>2018-09-16T06:49:36Z</time>
      </trkpt>
      <trkpt lat="39.3363700" lon="-0.7389430">
        <ele>417.0</ele>
        <time>2018-09-16T06:49:37Z</time>
      </trkpt>
      <trkpt lat="39.3363700" lon="-0.7389430">
        <ele>417.0</ele>
        <time>2018-09-16T06:49:38Z</time>
      </trkpt>
      <trkpt lat="39.3363320" lon="-0.7389720">
        <ele>417.0</ele>
        <time>2018-09-16T06:49:39Z</time>
      </trkpt>
      <trkpt lat="39.3363320" lon="-0.7389720">
        <ele>417.0</ele>
        <time>2018-09-16T06:49:40Z</time>
      </trkpt>
      <trkpt lat="39.3362970" lon="-0.7389950">
        <ele>417.0</ele>
        <time>2018-09-16T06:49:41Z</time>
      </trkpt>
      <trkpt lat="39.3362970" lon="-0.7389950">
        <ele>417.0</ele>
        <time>2018-09-16T06:49:42Z</time>
      </trkpt>
      <trkpt lat="39.3362600" lon="-0.7390130">
        <ele>417.0</ele>
        <time>2018-09-16T06:49:43Z</time>
      </trkpt>
      <trkpt lat="39.3362600" lon="-0.7390130">
        <ele>417.0</ele>
        <time>2018-09-16T06:49:44Z</time>
      </trkpt>
      <trkpt lat="39.3362380" lon="-0.7390270">
        <ele>417.0</ele>
        <time>2018-09-16T06:49:45Z</time>
      </trkpt>
      <trkpt lat="39.3362400" lon="-0.7390270">
        <ele>417.0</ele>
        <time>2018-09-16T06:49:46Z</time>
      </trkpt>
      <trkpt lat="39.3362400" lon="-0.7390270">
        <ele>417.0</ele>
        <time>2018-09-16T06:49:47Z</time>
      </trkpt>
      <trkpt lat="39.3362400" lon="-0.7390280">
        <ele>417.0</ele>
        <time>2018-09-16T06:49:48Z</time>
      </trkpt>
      <trkpt lat="39.3362400" lon="-0.7390280">
        <ele>417.0</ele>
        <time>2018-09-16T06:49:49Z</time>
      </trkpt>
      <trkpt lat="39.3362400" lon="-0.7390280">
        <ele>417.0</ele>
        <time>2018-09-16T06:49:50Z</time>
      </trkpt>
      <trkpt lat="39.3362400" lon="-0.7390280">
        <ele>421.0</ele>
        <time>2018-09-16T06:49:51Z</time>
      </trkpt>
      <trkpt lat="39.3362400" lon="-0.7390280">
        <ele>421.0</ele>
        <time>2018-09-16T06:49:52Z</time>
      </trkpt>
      <trkpt lat="39.3362400" lon="-0.7390280">
        <ele>424.0</ele>
        <time>2018-09-16T06:49:53Z</time>
      </trkpt>
      <trkpt lat="39.3362400" lon="-0.7390280">
        <ele>424.0</ele>
        <time>2018-09-16T06:49:54Z</time>
      </trkpt>
      <trkpt lat="39.3362400" lon="-0.7390280">
        <ele>421.0</ele>
        <time>2018-09-16T06:49:55Z</time>
      </trkpt>
      <trkpt lat="39.3362400" lon="-0.7390280">
        <ele>421.0</ele>
        <time>2018-09-16T06:49:56Z</time>
      </trkpt>
      <trkpt lat="39.3362400" lon="-0.7390280">
        <ele>420.0</ele>
        <time>2018-09-16T06:49:57Z</time>
      </trkpt>
      <trkpt lat="39.3362400" lon="-0.7390280">
        <ele>420.0</ele>
        <time>2018-09-16T06:49:58Z</time>
      </trkpt>
      <trkpt lat="39.3362400" lon="-0.7390280">
        <ele>418.0</ele>
        <time>2018-09-16T06:49:59Z</time>
      </trkpt>
      <trkpt lat="39.3362400" lon="-0.7390280">
        <ele>418.0</ele>
        <time>2018-09-16T06:50:00Z</time>
      </trkpt>
      <trkpt lat="39.3362400" lon="-0.7390280">
        <ele>417.0</ele>
        <time>2018-09-16T06:50:01Z</time>
      </trkpt>
      <trkpt lat="39.3362400" lon="-0.7390280">
        <ele>417.0</ele>
        <time>2018-09-16T06:50:02Z</time>
      </trkpt>
      <trkpt lat="39.3362400" lon="-0.7390280">
        <ele>417.0</ele>
        <time>2018-09-16T06:50:03Z</time>
      </trkpt>
      <trkpt lat="39.3362400" lon="-0.7390280">
        <ele>417.0</ele>
        <time>2018-09-16T06:50:04Z</time>
      </trkpt>
      <trkpt lat="39.3362400" lon="-0.7390280">
        <ele>417.0</ele>
        <time>2018-09-16T06:50:05Z</time>
      </trkpt>
      <trkpt lat="39.3362400" lon="-0.7390280">
        <ele>417.0</ele>
        <time>2018-09-16T06:50:06Z</time>
      </trkpt>
      <trkpt lat="39.3362400" lon="-0.7390280">
        <ele>417.0</ele>
        <time>2018-09-16T06:50:07Z</time>
      </trkpt>
      <trkpt lat="39.3362400" lon="-0.7390280">
        <ele>417.0</ele>
        <time>2018-09-16T06:50:08Z</time>
      </trkpt>
      <trkpt lat="39.3362400" lon="-0.7390280">
        <ele>417.0</ele>
        <time>2018-09-16T06:50:09Z</time>
      </trkpt>
      <trkpt lat="39.3362400" lon="-0.7390280">
        <ele>417.0</ele>
        <time>2018-09-16T06:50:10Z</time>
      </trkpt>
      <trkpt lat="39.3362400" lon="-0.7390280">
        <ele>417.0</ele>
        <time>2018-09-16T06:50:11Z</time>
      </trkpt>
      <trkpt lat="39.3362400" lon="-0.7390280">
        <ele>417.0</ele>
        <time>2018-09-16T06:50:12Z</time>
      </trkpt>
      <trkpt lat="39.3362400" lon="-0.7390280">
        <ele>417.0</ele>
        <time>2018-09-16T06:50:13Z</time>
      </trkpt>
      <trkpt lat="39.3362400" lon="-0.7390280">
        <ele>417.0</ele>
        <time>2018-09-16T06:50:14Z</time>
      </trkpt>
      <trkpt lat="39.3362400" lon="-0.7390280">
        <ele>417.0</ele>
        <time>2018-09-16T06:50:15Z</time>
      </trkpt>
      <trkpt lat="39.3362400" lon="-0.7390280">
        <ele>417.0</ele>
        <time>2018-09-16T06:50:16Z</time>
      </trkpt>
      <trkpt lat="39.3362300" lon="-0.7390380">
        <ele>417.0</ele>
        <time>2018-09-16T06:50:17Z</time>
      </trkpt>
      <trkpt lat="39.3362130" lon="-0.7390470">
        <ele>417.0</ele>
        <time>2018-09-16T06:50:18Z</time>
      </trkpt>
      <trkpt lat="39.3361860" lon="-0.7390600">
        <ele>417.0</ele>
        <time>2018-09-16T06:50:19Z</time>
      </trkpt>
      <trkpt lat="39.3361580" lon="-0.7390720">
        <ele>417.0</ele>
        <time>2018-09-16T06:50:20Z</time>
      </trkpt>
      <trkpt lat="39.3361240" lon="-0.7390870">
        <ele>417.0</ele>
        <time>2018-09-16T06:50:21Z</time>
      </trkpt>
      <trkpt lat="39.3360900" lon="-0.7391020">
        <ele>417.0</ele>
        <time>2018-09-16T06:50:22Z</time>
      </trkpt>
      <trkpt lat="39.3360520" lon="-0.7391200">
        <ele>417.0</ele>
        <time>2018-09-16T06:50:23Z</time>
      </trkpt>
      <trkpt lat="39.3360520" lon="-0.7391200">
        <ele>417.0</ele>
        <time>2018-09-16T06:50:24Z</time>
      </trkpt>
      <trkpt lat="39.3359770" lon="-0.7391600">
        <ele>417.0</ele>
        <time>2018-09-16T06:50:25Z</time>
      </trkpt>
      <trkpt lat="39.3359770" lon="-0.7391600">
        <ele>417.0</ele>
        <time>2018-09-16T06:50:26Z</time>
      </trkpt>
      <trkpt lat="39.3359050" lon="-0.7392070">
        <ele>417.0</ele>
        <time>2018-09-16T06:50:27Z</time>
      </trkpt>
      <trkpt lat="39.3359050" lon="-0.7392070">
        <ele>417.0</ele>
        <time>2018-09-16T06:50:28Z</time>
      </trkpt>
      <trkpt lat="39.3358320" lon="-0.7392670">
        <ele>417.0</ele>
        <time>2018-09-16T06:50:29Z</time>
      </trkpt>
      <trkpt lat="39.3357970" lon="-0.7393070">
        <ele>417.0</ele>
        <time>2018-09-16T06:50:30Z</time>
      </trkpt>
      <trkpt lat="39.3357970" lon="-0.7393070">
        <ele>417.0</ele>
        <time>2018-09-16T06:50:31Z</time>
      </trkpt>
      <trkpt lat="39.3357300" lon="-0.7393870">
        <ele>417.0</ele>
        <time>2018-09-16T06:50:32Z</time>
      </trkpt>
      <trkpt lat="39.3357300" lon="-0.7393870">
        <ele>417.0</ele>
        <time>2018-09-16T06:50:33Z</time>
      </trkpt>
      <trkpt lat="39.3356700" lon="-0.7394830">
        <ele>417.0</ele>
        <time>2018-09-16T06:50:34Z</time>
      </trkpt>
      <trkpt lat="39.3356700" lon="-0.7394830">
        <ele>417.0</ele>
        <time>2018-09-16T06:50:35Z</time>
      </trkpt>
      <trkpt lat="39.3356220" lon="-0.7395970">
        <ele>417.0</ele>
        <time>2018-09-16T06:50:36Z</time>
      </trkpt>
      <trkpt lat="39.3356220" lon="-0.7395970">
        <ele>417.0</ele>
        <time>2018-09-16T06:50:37Z</time>
      </trkpt>
      <trkpt lat="39.3355770" lon="-0.7397180">
        <ele>417.0</ele>
        <time>2018-09-16T06:50:38Z</time>
      </trkpt>
      <trkpt lat="39.3355770" lon="-0.7397180">
        <ele>417.0</ele>
        <time>2018-09-16T06:50:39Z</time>
      </trkpt>
      <trkpt lat="39.3355420" lon="-0.7398470">
        <ele>417.0</ele>
        <time>2018-09-16T06:50:40Z</time>
      </trkpt>
      <trkpt lat="39.3355420" lon="-0.7398470">
        <ele>417.0</ele>
        <time>2018-09-16T06:50:41Z</time>
      </trkpt>
      <trkpt lat="39.3355120" lon="-0.7399750">
        <ele>417.0</ele>
        <time>2018-09-16T06:50:42Z</time>
      </trkpt>
      <trkpt lat="39.3355120" lon="-0.7399750">
        <ele>417.0</ele>
        <time>2018-09-16T06:50:43Z</time>
      </trkpt>
      <trkpt lat="39.3354830" lon="-0.7401020">
        <ele>417.0</ele>
        <time>2018-09-16T06:50:44Z</time>
      </trkpt>
      <trkpt lat="39.3354830" lon="-0.7401020">
        <ele>417.0</ele>
        <time>2018-09-16T06:50:45Z</time>
      </trkpt>
      <trkpt lat="39.3354420" lon="-0.7402220">
        <ele>417.0</ele>
        <time>2018-09-16T06:50:46Z</time>
      </trkpt>
      <trkpt lat="39.3354420" lon="-0.7402220">
        <ele>417.0</ele>
        <time>2018-09-16T06:50:47Z</time>
      </trkpt>
      <trkpt lat="39.3353920" lon="-0.7403400">
        <ele>417.0</ele>
        <time>2018-09-16T06:50:48Z</time>
      </trkpt>
      <trkpt lat="39.3353920" lon="-0.7403400">
        <ele>417.0</ele>
        <time>2018-09-16T06:50:49Z</time>
      </trkpt>
      <trkpt lat="39.3353320" lon="-0.7404520">
        <ele>417.0</ele>
        <time>2018-09-16T06:50:50Z</time>
      </trkpt>
      <trkpt lat="39.3353320" lon="-0.7404520">
        <ele>417.0</ele>
        <time>2018-09-16T06:50:51Z</time>
      </trkpt>
      <trkpt lat="39.3352750" lon="-0.7405630">
        <ele>417.0</ele>
        <time>2018-09-16T06:50:52Z</time>
      </trkpt>
      <trkpt lat="39.3352750" lon="-0.7405630">
        <ele>417.0</ele>
        <time>2018-09-16T06:50:53Z</time>
      </trkpt>
      <trkpt lat="39.3352320" lon="-0.7406720">
        <ele>417.0</ele>
        <time>2018-09-16T06:50:54Z</time>
      </trkpt>
      <trkpt lat="39.3352320" lon="-0.7406720">
        <ele>417.0</ele>
        <time>2018-09-16T06:50:55Z</time>
      </trkpt>
      <trkpt lat="39.3351980" lon="-0.7407650">
        <ele>417.0</ele>
        <time>2018-09-16T06:50:56Z</time>
      </trkpt>
      <trkpt lat="39.3351980" lon="-0.7407650">
        <ele>417.0</ele>
        <time>2018-09-16T06:50:57Z</time>
      </trkpt>
      <trkpt lat="39.3351670" lon="-0.7408520">
        <ele>417.0</ele>
        <time>2018-09-16T06:50:58Z</time>
      </trkpt>
      <trkpt lat="39.3351670" lon="-0.7408520">
        <ele>417.0</ele>
        <time>2018-09-16T06:50:59Z</time>
      </trkpt>
      <trkpt lat="39.3351420" lon="-0.7409320">
        <ele>417.0</ele>
        <time>2018-09-16T06:51:00Z</time>
      </trkpt>
      <trkpt lat="39.3351420" lon="-0.7409320">
        <ele>417.0</ele>
        <time>2018-09-16T06:51:01Z</time>
      </trkpt>
      <trkpt lat="39.3351200" lon="-0.7410120">
        <ele>417.0</ele>
        <time>2018-09-16T06:51:02Z</time>
      </trkpt>
      <trkpt lat="39.3351120" lon="-0.7410480">
        <ele>417.0</ele>
        <time>2018-09-16T06:51:03Z</time>
      </trkpt>
      <trkpt lat="39.3351120" lon="-0.7410480">
        <ele>417.0</ele>
        <time>2018-09-16T06:51:04Z</time>
      </trkpt>
      <trkpt lat="39.3350970" lon="-0.7411230">
        <ele>418.0</ele>
        <time>2018-09-16T06:51:05Z</time>
      </trkpt>
      <trkpt lat="39.3350970" lon="-0.7411230">
        <ele>418.0</ele>
        <time>2018-09-16T06:51:06Z</time>
      </trkpt>
      <trkpt lat="39.3350780" lon="-0.7411930">
        <ele>418.0</ele>
        <time>2018-09-16T06:51:07Z</time>
      </trkpt>
      <trkpt lat="39.3350720" lon="-0.7412280">
        <ele>418.0</ele>
        <time>2018-09-16T06:51:08Z</time>
      </trkpt>
      <trkpt lat="39.3350720" lon="-0.7412280">
        <ele>419.0</ele>
        <time>2018-09-16T06:51:09Z</time>
      </trkpt>
      <trkpt lat="39.3350550" lon="-0.7412980">
        <ele>419.0</ele>
        <time>2018-09-16T06:51:10Z</time>
      </trkpt>
      <trkpt lat="39.3350450" lon="-0.7413320">
        <ele>419.0</ele>
        <time>2018-09-16T06:51:11Z</time>
      </trkpt>
      <trkpt lat="39.3350350" lon="-0.7413630">
        <ele>420.0</ele>
        <time>2018-09-16T06:51:12Z</time>
      </trkpt>
      <trkpt lat="39.3350350" lon="-0.7413630">
        <ele>420.0</ele>
        <time>2018-09-16T06:51:13Z</time>
      </trkpt>
      <trkpt lat="39.3350130" lon="-0.7414250">
        <ele>420.0</ele>
        <time>2018-09-16T06:51:14Z</time>
      </trkpt>
      <trkpt lat="39.3350130" lon="-0.7414250">
        <ele>420.0</ele>
        <time>2018-09-16T06:51:15Z</time>
      </trkpt>
      <trkpt lat="39.3349920" lon="-0.7414870">
        <ele>421.0</ele>
        <time>2018-09-16T06:51:16Z</time>
      </trkpt>
      <trkpt lat="39.3349920" lon="-0.7414870">
        <ele>421.0</ele>
        <time>2018-09-16T06:51:17Z</time>
      </trkpt>
      <trkpt lat="39.3349700" lon="-0.7415530">
        <ele>421.0</ele>
        <time>2018-09-16T06:51:18Z</time>
      </trkpt>
      <trkpt lat="39.3349700" lon="-0.7415530">
        <ele>421.0</ele>
        <time>2018-09-16T06:51:19Z</time>
      </trkpt>
      <trkpt lat="39.3349480" lon="-0.7416180">
        <ele>422.0</ele>
        <time>2018-09-16T06:51:20Z</time>
      </trkpt>
      <trkpt lat="39.3349480" lon="-0.7416180">
        <ele>422.0</ele>
        <time>2018-09-16T06:51:21Z</time>
      </trkpt>
      <trkpt lat="39.3349230" lon="-0.7416770">
        <ele>422.0</ele>
        <time>2018-09-16T06:51:22Z</time>
      </trkpt>
      <trkpt lat="39.3349230" lon="-0.7416770">
        <ele>422.0</ele>
        <time>2018-09-16T06:51:23Z</time>
      </trkpt>
      <trkpt lat="39.3349000" lon="-0.7417320">
        <ele>422.0</ele>
        <time>2018-09-16T06:51:24Z</time>
      </trkpt>
      <trkpt lat="39.3349000" lon="-0.7417320">
        <ele>422.0</ele>
        <time>2018-09-16T06:51:25Z</time>
      </trkpt>
      <trkpt lat="39.3348720" lon="-0.7417870">
        <ele>422.0</ele>
        <time>2018-09-16T06:51:26Z</time>
      </trkpt>
      <trkpt lat="39.3348720" lon="-0.7417870">
        <ele>422.0</ele>
        <time>2018-09-16T06:51:27Z</time>
      </trkpt>
      <trkpt lat="39.3348400" lon="-0.7418420">
        <ele>423.0</ele>
        <time>2018-09-16T06:51:28Z</time>
      </trkpt>
      <trkpt lat="39.3348400" lon="-0.7418420">
        <ele>423.0</ele>
        <time>2018-09-16T06:51:29Z</time>
      </trkpt>
      <trkpt lat="39.3347980" lon="-0.7419020">
        <ele>423.0</ele>
        <time>2018-09-16T06:51:30Z</time>
      </trkpt>
      <trkpt lat="39.3347980" lon="-0.7419020">
        <ele>423.0</ele>
        <time>2018-09-16T06:51:31Z</time>
      </trkpt>
      <trkpt lat="39.3347480" lon="-0.7419520">
        <ele>423.0</ele>
        <time>2018-09-16T06:51:32Z</time>
      </trkpt>
      <trkpt lat="39.3347480" lon="-0.7419520">
        <ele>423.0</ele>
        <time>2018-09-16T06:51:33Z</time>
      </trkpt>
      <trkpt lat="39.3346930" lon="-0.7420000">
        <ele>423.0</ele>
        <time>2018-09-16T06:51:34Z</time>
      </trkpt>
      <trkpt lat="39.3346930" lon="-0.7420000">
        <ele>423.0</ele>
        <time>2018-09-16T06:51:35Z</time>
      </trkpt>
      <trkpt lat="39.3346380" lon="-0.7420480">
        <ele>423.0</ele>
        <time>2018-09-16T06:51:36Z</time>
      </trkpt>
      <trkpt lat="39.3346380" lon="-0.7420480">
        <ele>423.0</ele>
        <time>2018-09-16T06:51:37Z</time>
      </trkpt>
      <trkpt lat="39.3345820" lon="-0.7420970">
        <ele>423.0</ele>
        <time>2018-09-16T06:51:38Z</time>
      </trkpt>
      <trkpt lat="39.3345820" lon="-0.7420970">
        <ele>423.0</ele>
        <time>2018-09-16T06:51:39Z</time>
      </trkpt>
      <trkpt lat="39.3345230" lon="-0.7421450">
        <ele>423.0</ele>
        <time>2018-09-16T06:51:40Z</time>
      </trkpt>
      <trkpt lat="39.3345230" lon="-0.7421450">
        <ele>423.0</ele>
        <time>2018-09-16T06:51:41Z</time>
      </trkpt>
      <trkpt lat="39.3344600" lon="-0.7421950">
        <ele>423.0</ele>
        <time>2018-09-16T06:51:42Z</time>
      </trkpt>
      <trkpt lat="39.3344600" lon="-0.7421950">
        <ele>423.0</ele>
        <time>2018-09-16T06:51:43Z</time>
      </trkpt>
      <trkpt lat="39.3343930" lon="-0.7422500">
        <ele>423.0</ele>
        <time>2018-09-16T06:51:44Z</time>
      </trkpt>
      <trkpt lat="39.3343930" lon="-0.7422500">
        <ele>423.0</ele>
        <time>2018-09-16T06:51:45Z</time>
      </trkpt>
      <trkpt lat="39.3343230" lon="-0.7422980">
        <ele>423.0</ele>
        <time>2018-09-16T06:51:46Z</time>
      </trkpt>
      <trkpt lat="39.3342880" lon="-0.7423220">
        <ele>423.0</ele>
        <time>2018-09-16T06:51:47Z</time>
      </trkpt>
      <trkpt lat="39.3342550" lon="-0.7423450">
        <ele>423.0</ele>
        <time>2018-09-16T06:51:48Z</time>
      </trkpt>
      <trkpt lat="39.3342550" lon="-0.7423450">
        <ele>423.0</ele>
        <time>2018-09-16T06:51:49Z</time>
      </trkpt>
      <trkpt lat="39.3341830" lon="-0.7423900">
        <ele>423.0</ele>
        <time>2018-09-16T06:51:50Z</time>
      </trkpt>
      <trkpt lat="39.3341480" lon="-0.7424120">
        <ele>423.0</ele>
        <time>2018-09-16T06:51:51Z</time>
      </trkpt>
      <trkpt lat="39.3341480" lon="-0.7424120">
        <ele>423.0</ele>
        <time>2018-09-16T06:51:52Z</time>
      </trkpt>
      <trkpt lat="39.3340780" lon="-0.7424570">
        <ele>423.0</ele>
        <time>2018-09-16T06:51:53Z</time>
      </trkpt>
      <trkpt lat="39.3340450" lon="-0.7424830">
        <ele>423.0</ele>
        <time>2018-09-16T06:51:54Z</time>
      </trkpt>
      <trkpt lat="39.3340450" lon="-0.7424830">
        <ele>423.0</ele>
        <time>2018-09-16T06:51:55Z</time>
      </trkpt>
      <trkpt lat="39.3339720" lon="-0.7425300">
        <ele>423.0</ele>
        <time>2018-09-16T06:51:56Z</time>
      </trkpt>
      <trkpt lat="39.3339380" lon="-0.7425550">
        <ele>424.0</ele>
        <time>2018-09-16T06:51:57Z</time>
      </trkpt>
      <trkpt lat="39.3339380" lon="-0.7425550">
        <ele>424.0</ele>
        <time>2018-09-16T06:51:58Z</time>
      </trkpt>
      <trkpt lat="39.3338680" lon="-0.7426050">
        <ele>424.0</ele>
        <time>2018-09-16T06:51:59Z</time>
      </trkpt>
      <trkpt lat="39.3338370" lon="-0.7426370">
        <ele>424.0</ele>
        <time>2018-09-16T06:52:00Z</time>
      </trkpt>
      <trkpt lat="39.3338370" lon="-0.7426370">
        <ele>423.0</ele>
        <time>2018-09-16T06:52:01Z</time>
      </trkpt>
      <trkpt lat="39.3337700" lon="-0.7426970">
        <ele>423.0</ele>
        <time>2018-09-16T06:52:02Z</time>
      </trkpt>
      <trkpt lat="39.3337330" lon="-0.7427230">
        <ele>423.0</ele>
        <time>2018-09-16T06:52:03Z</time>
      </trkpt>
      <trkpt lat="39.3337330" lon="-0.7427230">
        <ele>423.0</ele>
        <time>2018-09-16T06:52:04Z</time>
      </trkpt>
      <trkpt lat="39.3336620" lon="-0.7427870">
        <ele>423.0</ele>
        <time>2018-09-16T06:52:05Z</time>
      </trkpt>
      <trkpt lat="39.3336250" lon="-0.7428250">
        <ele>423.0</ele>
        <time>2018-09-16T06:52:06Z</time>
      </trkpt>
      <trkpt lat="39.3336250" lon="-0.7428250">
        <ele>423.0</ele>
        <time>2018-09-16T06:52:07Z</time>
      </trkpt>
      <trkpt lat="39.3335580" lon="-0.7429050">
        <ele>423.0</ele>
        <time>2018-09-16T06:52:08Z</time>
      </trkpt>
      <trkpt lat="39.3335580" lon="-0.7429050">
        <ele>423.0</ele>
        <time>2018-09-16T06:52:09Z</time>
      </trkpt>
      <trkpt lat="39.3334930" lon="-0.7429830">
        <ele>423.0</ele>
        <time>2018-09-16T06:52:10Z</time>
      </trkpt>
      <trkpt lat="39.3334600" lon="-0.7430200">
        <ele>423.0</ele>
        <time>2018-09-16T06:52:11Z</time>
      </trkpt>
      <trkpt lat="39.3334600" lon="-0.7430200">
        <ele>423.0</ele>
        <time>2018-09-16T06:52:12Z</time>
      </trkpt>
      <trkpt lat="39.3333930" lon="-0.7430870">
        <ele>423.0</ele>
        <time>2018-09-16T06:52:13Z</time>
      </trkpt>
      <trkpt lat="39.3333930" lon="-0.7430870">
        <ele>423.0</ele>
        <time>2018-09-16T06:52:14Z</time>
      </trkpt>
      <trkpt lat="39.3333270" lon="-0.7431500">
        <ele>423.0</ele>
        <time>2018-09-16T06:52:15Z</time>
      </trkpt>
      <trkpt lat="39.3333270" lon="-0.7431500">
        <ele>423.0</ele>
        <time>2018-09-16T06:52:16Z</time>
      </trkpt>
      <trkpt lat="39.3332670" lon="-0.7432150">
        <ele>423.0</ele>
        <time>2018-09-16T06:52:17Z</time>
      </trkpt>
      <trkpt lat="39.3332380" lon="-0.7432450">
        <ele>423.0</ele>
        <time>2018-09-16T06:52:18Z</time>
      </trkpt>
      <trkpt lat="39.3332380" lon="-0.7432450">
        <ele>423.0</ele>
        <time>2018-09-16T06:52:19Z</time>
      </trkpt>
      <trkpt lat="39.3331830" lon="-0.7433120">
        <ele>424.0</ele>
        <time>2018-09-16T06:52:20Z</time>
      </trkpt>
      <trkpt lat="39.3331830" lon="-0.7433120">
        <ele>424.0</ele>
        <time>2018-09-16T06:52:21Z</time>
      </trkpt>
      <trkpt lat="39.3331230" lon="-0.7433820">
        <ele>424.0</ele>
        <time>2018-09-16T06:52:22Z</time>
      </trkpt>
      <trkpt lat="39.3330930" lon="-0.7434100">
        <ele>424.0</ele>
        <time>2018-09-16T06:52:23Z</time>
      </trkpt>
      <trkpt lat="39.3330630" lon="-0.7434420">
        <ele>425.0</ele>
        <time>2018-09-16T06:52:24Z</time>
      </trkpt>
      <trkpt lat="39.3330630" lon="-0.7434420">
        <ele>425.0</ele>
        <time>2018-09-16T06:52:25Z</time>
      </trkpt>
      <trkpt lat="39.3330100" lon="-0.7435020">
        <ele>425.0</ele>
        <time>2018-09-16T06:52:26Z</time>
      </trkpt>
      <trkpt lat="39.3329820" lon="-0.7435220">
        <ele>425.0</ele>
        <time>2018-09-16T06:52:27Z</time>
      </trkpt>
      <trkpt lat="39.3329820" lon="-0.7435220">
        <ele>425.0</ele>
        <time>2018-09-16T06:52:28Z</time>
      </trkpt>
      <trkpt lat="39.3329270" lon="-0.7435600">
        <ele>425.0</ele>
        <time>2018-09-16T06:52:29Z</time>
      </trkpt>
      <trkpt lat="39.3329270" lon="-0.7435600">
        <ele>426.0</ele>
        <time>2018-09-16T06:52:30Z</time>
      </trkpt>
      <trkpt lat="39.3328800" lon="-0.7436130">
        <ele>426.0</ele>
        <time>2018-09-16T06:52:31Z</time>
      </trkpt>
      <trkpt lat="39.3328800" lon="-0.7436130">
        <ele>426.0</ele>
        <time>2018-09-16T06:52:32Z</time>
      </trkpt>
      <trkpt lat="39.3328380" lon="-0.7436800">
        <ele>426.0</ele>
        <time>2018-09-16T06:52:33Z</time>
      </trkpt>
      <trkpt lat="39.3328380" lon="-0.7436800">
        <ele>426.0</ele>
        <time>2018-09-16T06:52:34Z</time>
      </trkpt>
      <trkpt lat="39.3328000" lon="-0.7437430">
        <ele>426.0</ele>
        <time>2018-09-16T06:52:35Z</time>
      </trkpt>
      <trkpt lat="39.3327830" lon="-0.7437730">
        <ele>427.0</ele>
        <time>2018-09-16T06:52:36Z</time>
      </trkpt>
      <trkpt lat="39.3327830" lon="-0.7437730">
        <ele>427.0</ele>
        <time>2018-09-16T06:52:37Z</time>
      </trkpt>
      <trkpt lat="39.3327500" lon="-0.7438320">
        <ele>427.0</ele>
        <time>2018-09-16T06:52:38Z</time>
      </trkpt>
      <trkpt lat="39.3327500" lon="-0.7438320">
        <ele>427.0</ele>
        <time>2018-09-16T06:52:39Z</time>
      </trkpt>
      <trkpt lat="39.3327220" lon="-0.7438930">
        <ele>427.0</ele>
        <time>2018-09-16T06:52:40Z</time>
      </trkpt>
      <trkpt lat="39.3327220" lon="-0.7438930">
        <ele>427.0</ele>
        <time>2018-09-16T06:52:41Z</time>
      </trkpt>
      <trkpt lat="39.3326870" lon="-0.7439520">
        <ele>428.0</ele>
        <time>2018-09-16T06:52:42Z</time>
      </trkpt>
      <trkpt lat="39.3326870" lon="-0.7439520">
        <ele>428.0</ele>
        <time>2018-09-16T06:52:43Z</time>
      </trkpt>
      <trkpt lat="39.3326420" lon="-0.7439930">
        <ele>428.0</ele>
        <time>2018-09-16T06:52:44Z</time>
      </trkpt>
      <trkpt lat="39.3326420" lon="-0.7439930">
        <ele>428.0</ele>
        <time>2018-09-16T06:52:45Z</time>
      </trkpt>
      <trkpt lat="39.3325950" lon="-0.7440370">
        <ele>428.0</ele>
        <time>2018-09-16T06:52:46Z</time>
      </trkpt>
      <trkpt lat="39.3325950" lon="-0.7440370">
        <ele>428.0</ele>
        <time>2018-09-16T06:52:47Z</time>
      </trkpt>
      <trkpt lat="39.3325520" lon="-0.7440730">
        <ele>428.0</ele>
        <time>2018-09-16T06:52:48Z</time>
      </trkpt>
      <trkpt lat="39.3325520" lon="-0.7440730">
        <ele>428.0</ele>
        <time>2018-09-16T06:52:49Z</time>
      </trkpt>
      <trkpt lat="39.3325180" lon="-0.7441100">
        <ele>428.0</ele>
        <time>2018-09-16T06:52:50Z</time>
      </trkpt>
      <trkpt lat="39.3325180" lon="-0.7441100">
        <ele>429.0</ele>
        <time>2018-09-16T06:52:51Z</time>
      </trkpt>
      <trkpt lat="39.3324880" lon="-0.7441420">
        <ele>429.0</ele>
        <time>2018-09-16T06:52:52Z</time>
      </trkpt>
      <trkpt lat="39.3324730" lon="-0.7441580">
        <ele>429.0</ele>
        <time>2018-09-16T06:52:53Z</time>
      </trkpt>
      <trkpt lat="39.3324730" lon="-0.7441580">
        <ele>429.0</ele>
        <time>2018-09-16T06:52:54Z</time>
      </trkpt>
      <trkpt lat="39.3324450" lon="-0.7441970">
        <ele>429.0</ele>
        <time>2018-09-16T06:52:55Z</time>
      </trkpt>
      <trkpt lat="39.3324450" lon="-0.7441970">
        <ele>429.0</ele>
        <time>2018-09-16T06:52:56Z</time>
      </trkpt>
      <trkpt lat="39.3324180" lon="-0.7442350">
        <ele>430.0</ele>
        <time>2018-09-16T06:52:57Z</time>
      </trkpt>
      <trkpt lat="39.3324050" lon="-0.7442530">
        <ele>430.0</ele>
        <time>2018-09-16T06:52:58Z</time>
      </trkpt>
      <trkpt lat="39.3323930" lon="-0.7442730">
        <ele>430.0</ele>
        <time>2018-09-16T06:52:59Z</time>
      </trkpt>
      <trkpt lat="39.3323930" lon="-0.7442730">
        <ele>430.0</ele>
        <time>2018-09-16T06:53:00Z</time>
      </trkpt>
      <trkpt lat="39.3323680" lon="-0.7443150">
        <ele>431.0</ele>
        <time>2018-09-16T06:53:01Z</time>
      </trkpt>
      <trkpt lat="39.3323680" lon="-0.7443150">
        <ele>431.0</ele>
        <time>2018-09-16T06:53:02Z</time>
      </trkpt>
      <trkpt lat="39.3323470" lon="-0.7443620">
        <ele>432.0</ele>
        <time>2018-09-16T06:53:03Z</time>
      </trkpt>
      <trkpt lat="39.3323470" lon="-0.7443620">
        <ele>432.0</ele>
        <time>2018-09-16T06:53:04Z</time>
      </trkpt>
      <trkpt lat="39.3323330" lon="-0.7444030">
        <ele>432.0</ele>
        <time>2018-09-16T06:53:05Z</time>
      </trkpt>
      <trkpt lat="39.3323270" lon="-0.7444230">
        <ele>433.0</ele>
        <time>2018-09-16T06:53:06Z</time>
      </trkpt>
      <trkpt lat="39.3323270" lon="-0.7444230">
        <ele>433.0</ele>
        <time>2018-09-16T06:53:07Z</time>
      </trkpt>
      <trkpt lat="39.3323100" lon="-0.7444650">
        <ele>433.0</ele>
        <time>2018-09-16T06:53:08Z</time>
      </trkpt>
      <trkpt lat="39.3323030" lon="-0.7444830">
        <ele>433.0</ele>
        <time>2018-09-16T06:53:09Z</time>
      </trkpt>
      <trkpt lat="39.3323030" lon="-0.7444830">
        <ele>434.0</ele>
        <time>2018-09-16T06:53:10Z</time>
      </trkpt>
      <trkpt lat="39.3322920" lon="-0.7445230">
        <ele>434.0</ele>
        <time>2018-09-16T06:53:11Z</time>
      </trkpt>
      <trkpt lat="39.3322850" lon="-0.7445430">
        <ele>435.0</ele>
        <time>2018-09-16T06:53:12Z</time>
      </trkpt>
      <trkpt lat="39.3322850" lon="-0.7445430">
        <ele>435.0</ele>
        <time>2018-09-16T06:53:13Z</time>
      </trkpt>
      <trkpt lat="39.3322680" lon="-0.7445880">
        <ele>435.0</ele>
        <time>2018-09-16T06:53:14Z</time>
      </trkpt>
      <trkpt lat="39.3322680" lon="-0.7445880">
        <ele>435.0</ele>
        <time>2018-09-16T06:53:15Z</time>
      </trkpt>
      <trkpt lat="39.3322530" lon="-0.7446350">
        <ele>436.0</ele>
        <time>2018-09-16T06:53:16Z</time>
      </trkpt>
      <trkpt lat="39.3322530" lon="-0.7446350">
        <ele>436.0</ele>
        <time>2018-09-16T06:53:17Z</time>
      </trkpt>
      <trkpt lat="39.3322470" lon="-0.7446720">
        <ele>436.0</ele>
        <time>2018-09-16T06:53:18Z</time>
      </trkpt>
      <trkpt lat="39.3322470" lon="-0.7446720">
        <ele>436.0</ele>
        <time>2018-09-16T06:53:19Z</time>
      </trkpt>
      <trkpt lat="39.3322480" lon="-0.7447050">
        <ele>436.0</ele>
        <time>2018-09-16T06:53:20Z</time>
      </trkpt>
      <trkpt lat="39.3322480" lon="-0.7447050">
        <ele>436.0</ele>
        <time>2018-09-16T06:53:21Z</time>
      </trkpt>
      <trkpt lat="39.3322370" lon="-0.7447450">
        <ele>436.0</ele>
        <time>2018-09-16T06:53:22Z</time>
      </trkpt>
      <trkpt lat="39.3322300" lon="-0.7447670">
        <ele>437.0</ele>
        <time>2018-09-16T06:53:23Z</time>
      </trkpt>
      <trkpt lat="39.3322300" lon="-0.7447670">
        <ele>437.0</ele>
        <time>2018-09-16T06:53:24Z</time>
      </trkpt>
      <trkpt lat="39.3322150" lon="-0.7448120">
        <ele>437.0</ele>
        <time>2018-09-16T06:53:25Z</time>
      </trkpt>
      <trkpt lat="39.3322150" lon="-0.7448120">
        <ele>437.0</ele>
        <time>2018-09-16T06:53:26Z</time>
      </trkpt>
      <trkpt lat="39.3321970" lon="-0.7448580">
        <ele>437.0</ele>
        <time>2018-09-16T06:53:27Z</time>
      </trkpt>
      <trkpt lat="39.3321870" lon="-0.7448800">
        <ele>437.0</ele>
        <time>2018-09-16T06:53:28Z</time>
      </trkpt>
      <trkpt lat="39.3321770" lon="-0.7449030">
        <ele>438.0</ele>
        <time>2018-09-16T06:53:29Z</time>
      </trkpt>
      <trkpt lat="39.3321770" lon="-0.7449030">
        <ele>438.0</ele>
        <time>2018-09-16T06:53:30Z</time>
      </trkpt>
      <trkpt lat="39.3321580" lon="-0.7449470">
        <ele>438.0</ele>
        <time>2018-09-16T06:53:31Z</time>
      </trkpt>
      <trkpt lat="39.3321580" lon="-0.7449470">
        <ele>438.0</ele>
        <time>2018-09-16T06:53:32Z</time>
      </trkpt>
      <trkpt lat="39.3321420" lon="-0.7449880">
        <ele>438.0</ele>
        <time>2018-09-16T06:53:33Z</time>
      </trkpt>
      <trkpt lat="39.3321420" lon="-0.7449880">
        <ele>438.0</ele>
        <time>2018-09-16T06:53:34Z</time>
      </trkpt>
      <trkpt lat="39.3321230" lon="-0.7450330">
        <ele>438.0</ele>
        <time>2018-09-16T06:53:35Z</time>
      </trkpt>
      <trkpt lat="39.3321130" lon="-0.7450550">
        <ele>438.0</ele>
        <time>2018-09-16T06:53:36Z</time>
      </trkpt>
      <trkpt lat="39.3321130" lon="-0.7450550">
        <ele>438.0</ele>
        <time>2018-09-16T06:53:37Z</time>
      </trkpt>
      <trkpt lat="39.3320950" lon="-0.7450980">
        <ele>439.0</ele>
        <time>2018-09-16T06:53:38Z</time>
      </trkpt>
      <trkpt lat="39.3320950" lon="-0.7450980">
        <ele>439.0</ele>
        <time>2018-09-16T06:53:39Z</time>
      </trkpt>
      <trkpt lat="39.3320730" lon="-0.7451420">
        <ele>439.0</ele>
        <time>2018-09-16T06:53:40Z</time>
      </trkpt>
      <trkpt lat="39.3320730" lon="-0.7451420">
        <ele>439.0</ele>
        <time>2018-09-16T06:53:41Z</time>
      </trkpt>
      <trkpt lat="39.3320500" lon="-0.7451850">
        <ele>440.0</ele>
        <time>2018-09-16T06:53:42Z</time>
      </trkpt>
      <trkpt lat="39.3320500" lon="-0.7451850">
        <ele>440.0</ele>
        <time>2018-09-16T06:53:43Z</time>
      </trkpt>
      <trkpt lat="39.3320230" lon="-0.7452220">
        <ele>440.0</ele>
        <time>2018-09-16T06:53:44Z</time>
      </trkpt>
      <trkpt lat="39.3320070" lon="-0.7452400">
        <ele>440.0</ele>
        <time>2018-09-16T06:53:45Z</time>
      </trkpt>
      <trkpt lat="39.3320070" lon="-0.7452400">
        <ele>441.0</ele>
        <time>2018-09-16T06:53:46Z</time>
      </trkpt>
      <trkpt lat="39.3319780" lon="-0.7452730">
        <ele>441.0</ele>
        <time>2018-09-16T06:53:47Z</time>
      </trkpt>
      <trkpt lat="39.3319650" lon="-0.7452850">
        <ele>441.0</ele>
        <time>2018-09-16T06:53:48Z</time>
      </trkpt>
      <trkpt lat="39.3319650" lon="-0.7452850">
        <ele>441.0</ele>
        <time>2018-09-16T06:53:49Z</time>
      </trkpt>
      <trkpt lat="39.3319320" lon="-0.7453070">
        <ele>441.0</ele>
        <time>2018-09-16T06:53:50Z</time>
      </trkpt>
      <trkpt lat="39.3319150" lon="-0.7453180">
        <ele>441.0</ele>
        <time>2018-09-16T06:53:51Z</time>
      </trkpt>
      <trkpt lat="39.3319150" lon="-0.7453180">
        <ele>442.0</ele>
        <time>2018-09-16T06:53:52Z</time>
      </trkpt>
      <trkpt lat="39.3318870" lon="-0.7453470">
        <ele>442.0</ele>
        <time>2018-09-16T06:53:53Z</time>
      </trkpt>
      <trkpt lat="39.3318750" lon="-0.7453630">
        <ele>442.0</ele>
        <time>2018-09-16T06:53:54Z</time>
      </trkpt>
      <trkpt lat="39.3318750" lon="-0.7453630">
        <ele>442.0</ele>
        <time>2018-09-16T06:53:55Z</time>
      </trkpt>
      <trkpt lat="39.3318520" lon="-0.7453930">
        <ele>442.0</ele>
        <time>2018-09-16T06:53:56Z</time>
      </trkpt>
      <trkpt lat="39.3318520" lon="-0.7453930">
        <ele>442.0</ele>
        <time>2018-09-16T06:53:57Z</time>
      </trkpt>
      <trkpt lat="39.3318300" lon="-0.7454270">
        <ele>443.0</ele>
        <time>2018-09-16T06:53:58Z</time>
      </trkpt>
      <trkpt lat="39.3318300" lon="-0.7454270">
        <ele>443.0</ele>
        <time>2018-09-16T06:53:59Z</time>
      </trkpt>
      <trkpt lat="39.3318100" lon="-0.7454620">
        <ele>443.0</ele>
        <time>2018-09-16T06:54:00Z</time>
      </trkpt>
      <trkpt lat="39.3318100" lon="-0.7454620">
        <ele>443.0</ele>
        <time>2018-09-16T06:54:01Z</time>
      </trkpt>
      <trkpt lat="39.3317920" lon="-0.7455000">
        <ele>443.0</ele>
        <time>2018-09-16T06:54:02Z</time>
      </trkpt>
      <trkpt lat="39.3317830" lon="-0.7455180">
        <ele>443.0</ele>
        <time>2018-09-16T06:54:03Z</time>
      </trkpt>
      <trkpt lat="39.3317780" lon="-0.7455380">
        <ele>444.0</ele>
        <time>2018-09-16T06:54:04Z</time>
      </trkpt>
      <trkpt lat="39.3317780" lon="-0.7455380">
        <ele>444.0</ele>
        <time>2018-09-16T06:54:05Z</time>
      </trkpt>
      <trkpt lat="39.3317720" lon="-0.7455820">
        <ele>444.0</ele>
        <time>2018-09-16T06:54:06Z</time>
      </trkpt>
      <trkpt lat="39.3317720" lon="-0.7455820">
        <ele>445.0</ele>
        <time>2018-09-16T06:54:07Z</time>
      </trkpt>
      <trkpt lat="39.3317650" lon="-0.7456280">
        <ele>445.0</ele>
        <time>2018-09-16T06:54:08Z</time>
      </trkpt>
      <trkpt lat="39.3317650" lon="-0.7456280">
        <ele>445.0</ele>
        <time>2018-09-16T06:54:09Z</time>
      </trkpt>
      <trkpt lat="39.3317520" lon="-0.7456770">
        <ele>445.0</ele>
        <time>2018-09-16T06:54:10Z</time>
      </trkpt>
      <trkpt lat="39.3317450" lon="-0.7457020">
        <ele>445.0</ele>
        <time>2018-09-16T06:54:11Z</time>
      </trkpt>
      <trkpt lat="39.3317400" lon="-0.7457230">
        <ele>445.0</ele>
        <time>2018-09-16T06:54:12Z</time>
      </trkpt>
      <trkpt lat="39.3317400" lon="-0.7457230">
        <ele>445.0</ele>
        <time>2018-09-16T06:54:13Z</time>
      </trkpt>
      <trkpt lat="39.3317200" lon="-0.7457730">
        <ele>445.0</ele>
        <time>2018-09-16T06:54:14Z</time>
      </trkpt>
      <trkpt lat="39.3317200" lon="-0.7457730">
        <ele>445.0</ele>
        <time>2018-09-16T06:54:15Z</time>
      </trkpt>
      <trkpt lat="39.3316950" lon="-0.7458170">
        <ele>446.0</ele>
        <time>2018-09-16T06:54:16Z</time>
      </trkpt>
      <trkpt lat="39.3316950" lon="-0.7458170">
        <ele>446.0</ele>
        <time>2018-09-16T06:54:17Z</time>
      </trkpt>
      <trkpt lat="39.3316680" lon="-0.7458530">
        <ele>446.0</ele>
        <time>2018-09-16T06:54:18Z</time>
      </trkpt>
      <trkpt lat="39.3316680" lon="-0.7458530">
        <ele>446.0</ele>
        <time>2018-09-16T06:54:19Z</time>
      </trkpt>
      <trkpt lat="39.3316300" lon="-0.7458770">
        <ele>447.0</ele>
        <time>2018-09-16T06:54:20Z</time>
      </trkpt>
      <trkpt lat="39.3316300" lon="-0.7458770">
        <ele>447.0</ele>
        <time>2018-09-16T06:54:21Z</time>
      </trkpt>
      <trkpt lat="39.3315880" lon="-0.7458920">
        <ele>447.0</ele>
        <time>2018-09-16T06:54:22Z</time>
      </trkpt>
      <trkpt lat="39.3315880" lon="-0.7458920">
        <ele>447.0</ele>
        <time>2018-09-16T06:54:23Z</time>
      </trkpt>
      <trkpt lat="39.3315450" lon="-0.7459000">
        <ele>447.0</ele>
        <time>2018-09-16T06:54:24Z</time>
      </trkpt>
      <trkpt lat="39.3315450" lon="-0.7459000">
        <ele>447.0</ele>
        <time>2018-09-16T06:54:25Z</time>
      </trkpt>
      <trkpt lat="39.3315030" lon="-0.7459070">
        <ele>447.0</ele>
        <time>2018-09-16T06:54:26Z</time>
      </trkpt>
      <trkpt lat="39.3315030" lon="-0.7459070">
        <ele>447.0</ele>
        <time>2018-09-16T06:54:27Z</time>
      </trkpt>
      <trkpt lat="39.3314600" lon="-0.7459030">
        <ele>448.0</ele>
        <time>2018-09-16T06:54:28Z</time>
      </trkpt>
      <trkpt lat="39.3314600" lon="-0.7459030">
        <ele>448.0</ele>
        <time>2018-09-16T06:54:29Z</time>
      </trkpt>
      <trkpt lat="39.3314220" lon="-0.7458900">
        <ele>448.0</ele>
        <time>2018-09-16T06:54:30Z</time>
      </trkpt>
      <trkpt lat="39.3314220" lon="-0.7458900">
        <ele>448.0</ele>
        <time>2018-09-16T06:54:31Z</time>
      </trkpt>
      <trkpt lat="39.3313850" lon="-0.7458680">
        <ele>449.0</ele>
        <time>2018-09-16T06:54:32Z</time>
      </trkpt>
      <trkpt lat="39.3313670" lon="-0.7458580">
        <ele>449.0</ele>
        <time>2018-09-16T06:54:33Z</time>
      </trkpt>
      <trkpt lat="39.3313670" lon="-0.7458580">
        <ele>449.0</ele>
        <time>2018-09-16T06:54:34Z</time>
      </trkpt>
      <trkpt lat="39.3313370" lon="-0.7458480">
        <ele>449.0</ele>
        <time>2018-09-16T06:54:35Z</time>
      </trkpt>
      <trkpt lat="39.3313220" lon="-0.7458430">
        <ele>449.0</ele>
        <time>2018-09-16T06:54:36Z</time>
      </trkpt>
      <trkpt lat="39.3313220" lon="-0.7458430">
        <ele>449.0</ele>
        <time>2018-09-16T06:54:37Z</time>
      </trkpt>
      <trkpt lat="39.3312880" lon="-0.7458250">
        <ele>449.0</ele>
        <time>2018-09-16T06:54:38Z</time>
      </trkpt>
      <trkpt lat="39.3312700" lon="-0.7458170">
        <ele>449.0</ele>
        <time>2018-09-16T06:54:39Z</time>
      </trkpt>
      <trkpt lat="39.3312550" lon="-0.7458070">
        <ele>449.0</ele>
        <time>2018-09-16T06:54:40Z</time>
      </trkpt>
      <trkpt lat="39.3312550" lon="-0.7458070">
        <ele>450.0</ele>
        <time>2018-09-16T06:54:41Z</time>
      </trkpt>
      <trkpt lat="39.3312200" lon="-0.7457830">
        <ele>450.0</ele>
        <time>2018-09-16T06:54:42Z</time>
      </trkpt>
      <trkpt lat="39.3312200" lon="-0.7457830">
        <ele>450.0</ele>
        <time>2018-09-16T06:54:43Z</time>
      </trkpt>
      <trkpt lat="39.3311850" lon="-0.7457600">
        <ele>450.0</ele>
        <time>2018-09-16T06:54:44Z</time>
      </trkpt>
      <trkpt lat="39.3311850" lon="-0.7457600">
        <ele>450.0</ele>
        <time>2018-09-16T06:54:45Z</time>
      </trkpt>
      <trkpt lat="39.3311480" lon="-0.7457370">
        <ele>450.0</ele>
        <time>2018-09-16T06:54:46Z</time>
      </trkpt>
      <trkpt lat="39.3311320" lon="-0.7457270">
        <ele>451.0</ele>
        <time>2018-09-16T06:54:47Z</time>
      </trkpt>
      <trkpt lat="39.3311120" lon="-0.7457120">
        <ele>451.0</ele>
        <time>2018-09-16T06:54:48Z</time>
      </trkpt>
      <trkpt lat="39.3311120" lon="-0.7457120">
        <ele>451.0</ele>
        <time>2018-09-16T06:54:49Z</time>
      </trkpt>
      <trkpt lat="39.3310730" lon="-0.7456920">
        <ele>451.0</ele>
        <time>2018-09-16T06:54:50Z</time>
      </trkpt>
      <trkpt lat="39.3310550" lon="-0.7456820">
        <ele>451.0</ele>
        <time>2018-09-16T06:54:51Z</time>
      </trkpt>
      <trkpt lat="39.3310550" lon="-0.7456820">
        <ele>451.0</ele>
        <time>2018-09-16T06:54:52Z</time>
      </trkpt>
      <trkpt lat="39.3310200" lon="-0.7456650">
        <ele>451.0</ele>
        <time>2018-09-16T06:54:53Z</time>
      </trkpt>
      <trkpt lat="39.3310200" lon="-0.7456650">
        <ele>451.0</ele>
        <time>2018-09-16T06:54:54Z</time>
      </trkpt>
      <trkpt lat="39.3309820" lon="-0.7456500">
        <ele>451.0</ele>
        <time>2018-09-16T06:54:55Z</time>
      </trkpt>
      <trkpt lat="39.3309820" lon="-0.7456500">
        <ele>451.0</ele>
        <time>2018-09-16T06:54:56Z</time>
      </trkpt>
      <trkpt lat="39.3309450" lon="-0.7456370">
        <ele>452.0</ele>
        <time>2018-09-16T06:54:57Z</time>
      </trkpt>
      <trkpt lat="39.3309450" lon="-0.7456370">
        <ele>452.0</ele>
        <time>2018-09-16T06:54:58Z</time>
      </trkpt>
      <trkpt lat="39.3309080" lon="-0.7456270">
        <ele>452.0</ele>
        <time>2018-09-16T06:54:59Z</time>
      </trkpt>
      <trkpt lat="39.3308900" lon="-0.7456220">
        <ele>452.0</ele>
        <time>2018-09-16T06:55:00Z</time>
      </trkpt>
      <trkpt lat="39.3308900" lon="-0.7456220">
        <ele>453.0</ele>
        <time>2018-09-16T06:55:01Z</time>
      </trkpt>
      <trkpt lat="39.3308500" lon="-0.7456070">
        <ele>453.0</ele>
        <time>2018-09-16T06:55:02Z</time>
      </trkpt>
      <trkpt lat="39.3308500" lon="-0.7456070">
        <ele>453.0</ele>
        <time>2018-09-16T06:55:03Z</time>
      </trkpt>
      <trkpt lat="39.3308070" lon="-0.7455930">
        <ele>454.0</ele>
        <time>2018-09-16T06:55:04Z</time>
      </trkpt>
      <trkpt lat="39.3307870" lon="-0.7455870">
        <ele>454.0</ele>
        <time>2018-09-16T06:55:05Z</time>
      </trkpt>
      <trkpt lat="39.3307630" lon="-0.7455820">
        <ele>454.0</ele>
        <time>2018-09-16T06:55:06Z</time>
      </trkpt>
      <trkpt lat="39.3307430" lon="-0.7455770">
        <ele>454.0</ele>
        <time>2018-09-16T06:55:07Z</time>
      </trkpt>
      <trkpt lat="39.3307430" lon="-0.7455770">
        <ele>455.0</ele>
        <time>2018-09-16T06:55:08Z</time>
      </trkpt>
      <trkpt lat="39.3307050" lon="-0.7455730">
        <ele>455.0</ele>
        <time>2018-09-16T06:55:09Z</time>
      </trkpt>
      <trkpt lat="39.3306850" lon="-0.7455730">
        <ele>455.0</ele>
        <time>2018-09-16T06:55:10Z</time>
      </trkpt>
      <trkpt lat="39.3306850" lon="-0.7455730">
        <ele>455.0</ele>
        <time>2018-09-16T06:55:11Z</time>
      </trkpt>
      <trkpt lat="39.3306430" lon="-0.7455700">
        <ele>456.0</ele>
        <time>2018-09-16T06:55:12Z</time>
      </trkpt>
      <trkpt lat="39.3306430" lon="-0.7455700">
        <ele>456.0</ele>
        <time>2018-09-16T06:55:13Z</time>
      </trkpt>
      <trkpt lat="39.3306020" lon="-0.7455720">
        <ele>456.0</ele>
        <time>2018-09-16T06:55:14Z</time>
      </trkpt>
      <trkpt lat="39.3305820" lon="-0.7455770">
        <ele>456.0</ele>
        <time>2018-09-16T06:55:15Z</time>
      </trkpt>
      <trkpt lat="39.3305820" lon="-0.7455770">
        <ele>457.0</ele>
        <time>2018-09-16T06:55:16Z</time>
      </trkpt>
      <trkpt lat="39.3305430" lon="-0.7455870">
        <ele>457.0</ele>
        <time>2018-09-16T06:55:17Z</time>
      </trkpt>
      <trkpt lat="39.3305270" lon="-0.7455920">
        <ele>457.0</ele>
        <time>2018-09-16T06:55:18Z</time>
      </trkpt>
      <trkpt lat="39.3305270" lon="-0.7455920">
        <ele>457.0</ele>
        <time>2018-09-16T06:55:19Z</time>
      </trkpt>
      <trkpt lat="39.3304840" lon="-0.7456040">
        <ele>457.0</ele>
        <time>2018-09-16T06:55:20Z</time>
      </trkpt>
      <trkpt lat="39.3304750" lon="-0.7456080">
        <ele>457.0</ele>
        <time>2018-09-16T06:55:21Z</time>
      </trkpt>
      <trkpt lat="39.3304750" lon="-0.7456080">
        <ele>457.0</ele>
        <time>2018-09-16T06:55:22Z</time>
      </trkpt>
      <trkpt lat="39.3304420" lon="-0.7456230">
        <ele>457.0</ele>
        <time>2018-09-16T06:55:23Z</time>
      </trkpt>
      <trkpt lat="39.3304230" lon="-0.7456320">
        <ele>457.0</ele>
        <time>2018-09-16T06:55:24Z</time>
      </trkpt>
      <trkpt lat="39.3304230" lon="-0.7456320">
        <ele>457.0</ele>
        <time>2018-09-16T06:55:25Z</time>
      </trkpt>
      <trkpt lat="39.3303900" lon="-0.7456430">
        <ele>457.0</ele>
        <time>2018-09-16T06:55:26Z</time>
      </trkpt>
      <trkpt lat="39.3303750" lon="-0.7456500">
        <ele>457.0</ele>
        <time>2018-09-16T06:55:27Z</time>
      </trkpt>
      <trkpt lat="39.3303750" lon="-0.7456500">
        <ele>457.0</ele>
        <time>2018-09-16T06:55:28Z</time>
      </trkpt>
      <trkpt lat="39.3303430" lon="-0.7456680">
        <ele>457.0</ele>
        <time>2018-09-16T06:55:29Z</time>
      </trkpt>
      <trkpt lat="39.3303270" lon="-0.7456750">
        <ele>457.0</ele>
        <time>2018-09-16T06:55:30Z</time>
      </trkpt>
      <trkpt lat="39.3303270" lon="-0.7456750">
        <ele>458.0</ele>
        <time>2018-09-16T06:55:31Z</time>
      </trkpt>
      <trkpt lat="39.3302950" lon="-0.7456920">
        <ele>458.0</ele>
        <time>2018-09-16T06:55:32Z</time>
      </trkpt>
      <trkpt lat="39.3302800" lon="-0.7457000">
        <ele>458.0</ele>
        <time>2018-09-16T06:55:33Z</time>
      </trkpt>
      <trkpt lat="39.3302800" lon="-0.7457000">
        <ele>458.0</ele>
        <time>2018-09-16T06:55:34Z</time>
      </trkpt>
      <trkpt lat="39.3302520" lon="-0.7457150">
        <ele>458.0</ele>
        <time>2018-09-16T06:55:35Z</time>
      </trkpt>
      <trkpt lat="39.3302370" lon="-0.7457220">
        <ele>459.0</ele>
        <time>2018-09-16T06:55:36Z</time>
      </trkpt>
      <trkpt lat="39.3302370" lon="-0.7457220">
        <ele>459.0</ele>
        <time>2018-09-16T06:55:37Z</time>
      </trkpt>
      <trkpt lat="39.3302070" lon="-0.7457350">
        <ele>459.0</ele>
        <time>2018-09-16T06:55:38Z</time>
      </trkpt>
      <trkpt lat="39.3302070" lon="-0.7457350">
        <ele>459.0</ele>
        <time>2018-09-16T06:55:39Z</time>
      </trkpt>
      <trkpt lat="39.3301750" lon="-0.7457520">
        <ele>460.0</ele>
        <time>2018-09-16T06:55:40Z</time>
      </trkpt>
      <trkpt lat="39.3301600" lon="-0.7457580">
        <ele>460.0</ele>
        <time>2018-09-16T06:55:41Z</time>
      </trkpt>
      <trkpt lat="39.3301450" lon="-0.7457670">
        <ele>460.0</ele>
        <time>2018-09-16T06:55:42Z</time>
      </trkpt>
      <trkpt lat="39.3301450" lon="-0.7457670">
        <ele>460.0</ele>
        <time>2018-09-16T06:55:43Z</time>
      </trkpt>
      <trkpt lat="39.3301150" lon="-0.7457820">
        <ele>460.0</ele>
        <time>2018-09-16T06:55:44Z</time>
      </trkpt>
      <trkpt lat="39.3301150" lon="-0.7457820">
        <ele>460.0</ele>
        <time>2018-09-16T06:55:45Z</time>
      </trkpt>
      <trkpt lat="39.3300880" lon="-0.7457970">
        <ele>461.0</ele>
        <time>2018-09-16T06:55:46Z</time>
      </trkpt>
      <trkpt lat="39.3300880" lon="-0.7457970">
        <ele>461.0</ele>
        <time>2018-09-16T06:55:47Z</time>
      </trkpt>
      <trkpt lat="39.3300600" lon="-0.7458100">
        <ele>461.0</ele>
        <time>2018-09-16T06:55:48Z</time>
      </trkpt>
      <trkpt lat="39.3300600" lon="-0.7458100">
        <ele>461.0</ele>
        <time>2018-09-16T06:55:49Z</time>
      </trkpt>
      <trkpt lat="39.3300320" lon="-0.7458250">
        <ele>462.0</ele>
        <time>2018-09-16T06:55:50Z</time>
      </trkpt>
      <trkpt lat="39.3300320" lon="-0.7458250">
        <ele>462.0</ele>
        <time>2018-09-16T06:55:51Z</time>
      </trkpt>
      <trkpt lat="39.3300020" lon="-0.7458470">
        <ele>462.0</ele>
        <time>2018-09-16T06:55:52Z</time>
      </trkpt>
      <trkpt lat="39.3299880" lon="-0.7458530">
        <ele>462.0</ele>
        <time>2018-09-16T06:55:53Z</time>
      </trkpt>
      <trkpt lat="39.3299880" lon="-0.7458530">
        <ele>463.0</ele>
        <time>2018-09-16T06:55:54Z</time>
      </trkpt>
      <trkpt lat="39.3299620" lon="-0.7458720">
        <ele>463.0</ele>
        <time>2018-09-16T06:55:55Z</time>
      </trkpt>
      <trkpt lat="39.3299620" lon="-0.7458720">
        <ele>463.0</ele>
        <time>2018-09-16T06:55:56Z</time>
      </trkpt>
      <trkpt lat="39.3299350" lon="-0.7458900">
        <ele>463.0</ele>
        <time>2018-09-16T06:55:57Z</time>
      </trkpt>
      <trkpt lat="39.3299200" lon="-0.7458970">
        <ele>464.0</ele>
        <time>2018-09-16T06:55:58Z</time>
      </trkpt>
      <trkpt lat="39.3299200" lon="-0.7458970">
        <ele>464.0</ele>
        <time>2018-09-16T06:55:59Z</time>
      </trkpt>
      <trkpt lat="39.3298920" lon="-0.7459100">
        <ele>464.0</ele>
        <time>2018-09-16T06:56:00Z</time>
      </trkpt>
      <trkpt lat="39.3298920" lon="-0.7459100">
        <ele>464.0</ele>
        <time>2018-09-16T06:56:01Z</time>
      </trkpt>
      <trkpt lat="39.3298630" lon="-0.7459270">
        <ele>465.0</ele>
        <time>2018-09-16T06:56:02Z</time>
      </trkpt>
      <trkpt lat="39.3298500" lon="-0.7459350">
        <ele>465.0</ele>
        <time>2018-09-16T06:56:03Z</time>
      </trkpt>
      <trkpt lat="39.3298370" lon="-0.7459420">
        <ele>466.0</ele>
        <time>2018-09-16T06:56:04Z</time>
      </trkpt>
      <trkpt lat="39.3298370" lon="-0.7459420">
        <ele>466.0</ele>
        <time>2018-09-16T06:56:05Z</time>
      </trkpt>
      <trkpt lat="39.3298130" lon="-0.7459530">
        <ele>466.0</ele>
        <time>2018-09-16T06:56:06Z</time>
      </trkpt>
      <trkpt lat="39.3298130" lon="-0.7459530">
        <ele>466.0</ele>
        <time>2018-09-16T06:56:07Z</time>
      </trkpt>
      <trkpt lat="39.3297900" lon="-0.7459720">
        <ele>466.0</ele>
        <time>2018-09-16T06:56:08Z</time>
      </trkpt>
      <trkpt lat="39.3297900" lon="-0.7459720">
        <ele>466.0</ele>
        <time>2018-09-16T06:56:09Z</time>
      </trkpt>
      <trkpt lat="39.3297630" lon="-0.7459920">
        <ele>466.0</ele>
        <time>2018-09-16T06:56:10Z</time>
      </trkpt>
      <trkpt lat="39.3297630" lon="-0.7459920">
        <ele>466.0</ele>
        <time>2018-09-16T06:56:11Z</time>
      </trkpt>
      <trkpt lat="39.3297330" lon="-0.7460130">
        <ele>466.0</ele>
        <time>2018-09-16T06:56:12Z</time>
      </trkpt>
      <trkpt lat="39.3297330" lon="-0.7460130">
        <ele>466.0</ele>
        <time>2018-09-16T06:56:13Z</time>
      </trkpt>
      <trkpt lat="39.3297070" lon="-0.7460280">
        <ele>466.0</ele>
        <time>2018-09-16T06:56:14Z</time>
      </trkpt>
      <trkpt lat="39.3297070" lon="-0.7460280">
        <ele>466.0</ele>
        <time>2018-09-16T06:56:15Z</time>
      </trkpt>
      <trkpt lat="39.3296820" lon="-0.7460470">
        <ele>468.0</ele>
        <time>2018-09-16T06:56:16Z</time>
      </trkpt>
      <trkpt lat="39.3296820" lon="-0.7460470">
        <ele>468.0</ele>
        <time>2018-09-16T06:56:17Z</time>
      </trkpt>
      <trkpt lat="39.3296550" lon="-0.7460750">
        <ele>468.0</ele>
        <time>2018-09-16T06:56:18Z</time>
      </trkpt>
      <trkpt lat="39.3296550" lon="-0.7460750">
        <ele>468.0</ele>
        <time>2018-09-16T06:56:19Z</time>
      </trkpt>
      <trkpt lat="39.3296270" lon="-0.7461080">
        <ele>468.0</ele>
        <time>2018-09-16T06:56:20Z</time>
      </trkpt>
      <trkpt lat="39.3296130" lon="-0.7461270">
        <ele>468.0</ele>
        <time>2018-09-16T06:56:21Z</time>
      </trkpt>
      <trkpt lat="39.3296130" lon="-0.7461270">
        <ele>468.0</ele>
        <time>2018-09-16T06:56:22Z</time>
      </trkpt>
      <trkpt lat="39.3295900" lon="-0.7461630">
        <ele>468.0</ele>
        <time>2018-09-16T06:56:23Z</time>
      </trkpt>
      <trkpt lat="39.3295800" lon="-0.7461820">
        <ele>469.0</ele>
        <time>2018-09-16T06:56:24Z</time>
      </trkpt>
      <trkpt lat="39.3295800" lon="-0.7461820">
        <ele>469.0</ele>
        <time>2018-09-16T06:56:25Z</time>
      </trkpt>
      <trkpt lat="39.3295620" lon="-0.7462130">
        <ele>469.0</ele>
        <time>2018-09-16T06:56:26Z</time>
      </trkpt>
      <trkpt lat="39.3295550" lon="-0.7462320">
        <ele>469.0</ele>
        <time>2018-09-16T06:56:27Z</time>
      </trkpt>
      <trkpt lat="39.3295550" lon="-0.7462320">
        <ele>469.0</ele>
        <time>2018-09-16T06:56:28Z</time>
      </trkpt>
      <trkpt lat="39.3295400" lon="-0.7462750">
        <ele>469.0</ele>
        <time>2018-09-16T06:56:29Z</time>
      </trkpt>
      <trkpt lat="39.3295300" lon="-0.7462970">
        <ele>469.0</ele>
        <time>2018-09-16T06:56:30Z</time>
      </trkpt>
      <trkpt lat="39.3295300" lon="-0.7462970">
        <ele>469.0</ele>
        <time>2018-09-16T06:56:31Z</time>
      </trkpt>
      <trkpt lat="39.3295180" lon="-0.7463530">
        <ele>469.0</ele>
        <time>2018-09-16T06:56:32Z</time>
      </trkpt>
      <trkpt lat="39.3295150" lon="-0.7463820">
        <ele>469.0</ele>
        <time>2018-09-16T06:56:33Z</time>
      </trkpt>
      <trkpt lat="39.3295150" lon="-0.7463820">
        <ele>469.0</ele>
        <time>2018-09-16T06:56:34Z</time>
      </trkpt>
      <trkpt lat="39.3295120" lon="-0.7464470">
        <ele>469.0</ele>
        <time>2018-09-16T06:56:35Z</time>
      </trkpt>
      <trkpt lat="39.3295150" lon="-0.7464780">
        <ele>469.0</ele>
        <time>2018-09-16T06:56:36Z</time>
      </trkpt>
      <trkpt lat="39.3295150" lon="-0.7464780">
        <ele>469.0</ele>
        <time>2018-09-16T06:56:37Z</time>
      </trkpt>
      <trkpt lat="39.3295250" lon="-0.7465500">
        <ele>469.0</ele>
        <time>2018-09-16T06:56:38Z</time>
      </trkpt>
      <trkpt lat="39.3295350" lon="-0.7465830">
        <ele>469.0</ele>
        <time>2018-09-16T06:56:39Z</time>
      </trkpt>
      <trkpt lat="39.3295350" lon="-0.7465830">
        <ele>469.0</ele>
        <time>2018-09-16T06:56:40Z</time>
      </trkpt>
      <trkpt lat="39.3295600" lon="-0.7466430">
        <ele>469.0</ele>
        <time>2018-09-16T06:56:41Z</time>
      </trkpt>
      <trkpt lat="39.3295750" lon="-0.7466680">
        <ele>469.0</ele>
        <time>2018-09-16T06:56:42Z</time>
      </trkpt>
      <trkpt lat="39.3295750" lon="-0.7466680">
        <ele>469.0</ele>
        <time>2018-09-16T06:56:43Z</time>
      </trkpt>
      <trkpt lat="39.3296100" lon="-0.7467120">
        <ele>469.0</ele>
        <time>2018-09-16T06:56:44Z</time>
      </trkpt>
      <trkpt lat="39.3296100" lon="-0.7467120">
        <ele>469.0</ele>
        <time>2018-09-16T06:56:45Z</time>
      </trkpt>
      <trkpt lat="39.3296630" lon="-0.7467450">
        <ele>469.0</ele>
        <time>2018-09-16T06:56:46Z</time>
      </trkpt>
      <trkpt lat="39.3296920" lon="-0.7467620">
        <ele>469.0</ele>
        <time>2018-09-16T06:56:47Z</time>
      </trkpt>
      <trkpt lat="39.3297180" lon="-0.7467750">
        <ele>469.0</ele>
        <time>2018-09-16T06:56:48Z</time>
      </trkpt>
      <trkpt lat="39.3297180" lon="-0.7467750">
        <ele>469.0</ele>
        <time>2018-09-16T06:56:49Z</time>
      </trkpt>
      <trkpt lat="39.3297670" lon="-0.7468050">
        <ele>469.0</ele>
        <time>2018-09-16T06:56:50Z</time>
      </trkpt>
      <trkpt lat="39.3297670" lon="-0.7468050">
        <ele>469.0</ele>
        <time>2018-09-16T06:56:51Z</time>
      </trkpt>
      <trkpt lat="39.3298080" lon="-0.7468280">
        <ele>469.0</ele>
        <time>2018-09-16T06:56:52Z</time>
      </trkpt>
      <trkpt lat="39.3298230" lon="-0.7468370">
        <ele>469.0</ele>
        <time>2018-09-16T06:56:53Z</time>
      </trkpt>
      <trkpt lat="39.3298330" lon="-0.7468450">
        <ele>469.0</ele>
        <time>2018-09-16T06:56:54Z</time>
      </trkpt>
      <trkpt lat="39.3298330" lon="-0.7468450">
        <ele>469.0</ele>
        <time>2018-09-16T06:56:55Z</time>
      </trkpt>
      <trkpt lat="39.3298570" lon="-0.7468520">
        <ele>469.0</ele>
        <time>2018-09-16T06:56:56Z</time>
      </trkpt>
      <trkpt lat="39.3298720" lon="-0.7468580">
        <ele>469.0</ele>
        <time>2018-09-16T06:56:57Z</time>
      </trkpt>
      <trkpt lat="39.3298870" lon="-0.7468690">
        <ele>469.0</ele>
        <time>2018-09-16T06:56:58Z</time>
      </trkpt>
      <trkpt lat="39.3299020" lon="-0.7468800">
        <ele>469.0</ele>
        <time>2018-09-16T06:56:59Z</time>
      </trkpt>
      <trkpt lat="39.3299150" lon="-0.7468930">
        <ele>469.0</ele>
        <time>2018-09-16T06:57:00Z</time>
      </trkpt>
      <trkpt lat="39.3299150" lon="-0.7468930">
        <ele>469.0</ele>
        <time>2018-09-16T06:57:01Z</time>
      </trkpt>
      <trkpt lat="39.3299480" lon="-0.7469150">
        <ele>469.0</ele>
        <time>2018-09-16T06:57:02Z</time>
      </trkpt>
      <trkpt lat="39.3299650" lon="-0.7469270">
        <ele>469.0</ele>
        <time>2018-09-16T06:57:03Z</time>
      </trkpt>
      <trkpt lat="39.3299650" lon="-0.7469270">
        <ele>469.0</ele>
        <time>2018-09-16T06:57:04Z</time>
      </trkpt>
      <trkpt lat="39.3299870" lon="-0.7469430">
        <ele>469.0</ele>
        <time>2018-09-16T06:57:05Z</time>
      </trkpt>
      <trkpt lat="39.3299870" lon="-0.7469430">
        <ele>469.0</ele>
        <time>2018-09-16T06:57:06Z</time>
      </trkpt>
      <trkpt lat="39.3299870" lon="-0.7469430">
        <ele>469.0</ele>
        <time>2018-09-16T06:57:07Z</time>
      </trkpt>
      <trkpt lat="39.3299970" lon="-0.7469530">
        <ele>469.0</ele>
        <time>2018-09-16T06:57:08Z</time>
      </trkpt>
      <trkpt lat="39.3299970" lon="-0.7469530">
        <ele>469.0</ele>
        <time>2018-09-16T06:57:09Z</time>
      </trkpt>
      <trkpt lat="39.3300230" lon="-0.7469720">
        <ele>469.0</ele>
        <time>2018-09-16T06:57:10Z</time>
      </trkpt>
      <trkpt lat="39.3300370" lon="-0.7469830">
        <ele>469.0</ele>
        <time>2018-09-16T06:57:11Z</time>
      </trkpt>
      <trkpt lat="39.3300370" lon="-0.7469830">
        <ele>469.0</ele>
        <time>2018-09-16T06:57:12Z</time>
      </trkpt>
      <trkpt lat="39.3300620" lon="-0.7470080">
        <ele>469.0</ele>
        <time>2018-09-16T06:57:13Z</time>
      </trkpt>
      <trkpt lat="39.3300620" lon="-0.7470080">
        <ele>469.0</ele>
        <time>2018-09-16T06:57:14Z</time>
      </trkpt>
      <trkpt lat="39.3300930" lon="-0.7470330">
        <ele>469.0</ele>
        <time>2018-09-16T06:57:15Z</time>
      </trkpt>
      <trkpt lat="39.3300930" lon="-0.7470330">
        <ele>469.0</ele>
        <time>2018-09-16T06:57:16Z</time>
      </trkpt>
      <trkpt lat="39.3301270" lon="-0.7470580">
        <ele>469.0</ele>
        <time>2018-09-16T06:57:17Z</time>
      </trkpt>
      <trkpt lat="39.3301450" lon="-0.7470700">
        <ele>470.0</ele>
        <time>2018-09-16T06:57:18Z</time>
      </trkpt>
      <trkpt lat="39.3301450" lon="-0.7470700">
        <ele>470.0</ele>
        <time>2018-09-16T06:57:19Z</time>
      </trkpt>
      <trkpt lat="39.3301820" lon="-0.7470930">
        <ele>470.0</ele>
        <time>2018-09-16T06:57:20Z</time>
      </trkpt>
      <trkpt lat="39.3302000" lon="-0.7471080">
        <ele>470.0</ele>
        <time>2018-09-16T06:57:21Z</time>
      </trkpt>
      <trkpt lat="39.3302000" lon="-0.7471080">
        <ele>471.0</ele>
        <time>2018-09-16T06:57:22Z</time>
      </trkpt>
      <trkpt lat="39.3302380" lon="-0.7471420">
        <ele>471.0</ele>
        <time>2018-09-16T06:57:23Z</time>
      </trkpt>
      <trkpt lat="39.3302570" lon="-0.7471620">
        <ele>471.0</ele>
        <time>2018-09-16T06:57:24Z</time>
      </trkpt>
      <trkpt lat="39.3302570" lon="-0.7471620">
        <ele>471.0</ele>
        <time>2018-09-16T06:57:25Z</time>
      </trkpt>
      <trkpt lat="39.3302950" lon="-0.7472020">
        <ele>471.0</ele>
        <time>2018-09-16T06:57:26Z</time>
      </trkpt>
      <trkpt lat="39.3302950" lon="-0.7472020">
        <ele>472.0</ele>
        <time>2018-09-16T06:57:27Z</time>
      </trkpt>
      <trkpt lat="39.3303280" lon="-0.7472470">
        <ele>472.0</ele>
        <time>2018-09-16T06:57:28Z</time>
      </trkpt>
      <trkpt lat="39.3303280" lon="-0.7472470">
        <ele>472.0</ele>
        <time>2018-09-16T06:57:29Z</time>
      </trkpt>
      <trkpt lat="39.3303570" lon="-0.7472920">
        <ele>472.0</ele>
        <time>2018-09-16T06:57:30Z</time>
      </trkpt>
      <trkpt lat="39.3303570" lon="-0.7472920">
        <ele>473.0</ele>
        <time>2018-09-16T06:57:31Z</time>
      </trkpt>
      <trkpt lat="39.3303950" lon="-0.7473400">
        <ele>473.0</ele>
        <time>2018-09-16T06:57:32Z</time>
      </trkpt>
      <trkpt lat="39.3303950" lon="-0.7473400">
        <ele>473.0</ele>
        <time>2018-09-16T06:57:33Z</time>
      </trkpt>
      <trkpt lat="39.3304370" lon="-0.7473770">
        <ele>473.0</ele>
        <time>2018-09-16T06:57:34Z</time>
      </trkpt>
      <trkpt lat="39.3304580" lon="-0.7473930">
        <ele>473.0</ele>
        <time>2018-09-16T06:57:35Z</time>
      </trkpt>
      <trkpt lat="39.3304780" lon="-0.7474080">
        <ele>473.0</ele>
        <time>2018-09-16T06:57:36Z</time>
      </trkpt>
      <trkpt lat="39.3304780" lon="-0.7474080">
        <ele>473.0</ele>
        <time>2018-09-16T06:57:37Z</time>
      </trkpt>
      <trkpt lat="39.3305150" lon="-0.7474400">
        <ele>473.0</ele>
        <time>2018-09-16T06:57:38Z</time>
      </trkpt>
      <trkpt lat="39.3305150" lon="-0.7474400">
        <ele>473.0</ele>
        <time>2018-09-16T06:57:39Z</time>
      </trkpt>
      <trkpt lat="39.3305470" lon="-0.7474750">
        <ele>473.0</ele>
        <time>2018-09-16T06:57:40Z</time>
      </trkpt>
      <trkpt lat="39.3305600" lon="-0.7474950">
        <ele>473.0</ele>
        <time>2018-09-16T06:57:41Z</time>
      </trkpt>
      <trkpt lat="39.3305600" lon="-0.7474950">
        <ele>475.0</ele>
        <time>2018-09-16T06:57:42Z</time>
      </trkpt>
      <trkpt lat="39.3305850" lon="-0.7475400">
        <ele>475.0</ele>
        <time>2018-09-16T06:57:43Z</time>
      </trkpt>
      <trkpt lat="39.3305850" lon="-0.7475400">
        <ele>475.0</ele>
        <time>2018-09-16T06:57:44Z</time>
      </trkpt>
      <trkpt lat="39.3306050" lon="-0.7475820">
        <ele>475.0</ele>
        <time>2018-09-16T06:57:45Z</time>
      </trkpt>
      <trkpt lat="39.3306100" lon="-0.7476020">
        <ele>476.0</ele>
        <time>2018-09-16T06:57:46Z</time>
      </trkpt>
      <trkpt lat="39.3306100" lon="-0.7476020">
        <ele>476.0</ele>
        <time>2018-09-16T06:57:47Z</time>
      </trkpt>
      <trkpt lat="39.3306250" lon="-0.7476420">
        <ele>476.0</ele>
        <time>2018-09-16T06:57:48Z</time>
      </trkpt>
      <trkpt lat="39.3306250" lon="-0.7476420">
        <ele>476.0</ele>
        <time>2018-09-16T06:57:49Z</time>
      </trkpt>
      <trkpt lat="39.3306420" lon="-0.7476830">
        <ele>477.0</ele>
        <time>2018-09-16T06:57:50Z</time>
      </trkpt>
      <trkpt lat="39.3306420" lon="-0.7476830">
        <ele>477.0</ele>
        <time>2018-09-16T06:57:51Z</time>
      </trkpt>
      <trkpt lat="39.3306630" lon="-0.7477220">
        <ele>477.0</ele>
        <time>2018-09-16T06:57:52Z</time>
      </trkpt>
      <trkpt lat="39.3306750" lon="-0.7477380">
        <ele>478.0</ele>
        <time>2018-09-16T06:57:53Z</time>
      </trkpt>
      <trkpt lat="39.3306870" lon="-0.7477580">
        <ele>478.0</ele>
        <time>2018-09-16T06:57:54Z</time>
      </trkpt>
      <trkpt lat="39.3306970" lon="-0.7477780">
        <ele>478.0</ele>
        <time>2018-09-16T06:57:55Z</time>
      </trkpt>
      <trkpt lat="39.3306970" lon="-0.7477780">
        <ele>478.0</ele>
        <time>2018-09-16T06:57:56Z</time>
      </trkpt>
      <trkpt lat="39.3307170" lon="-0.7478200">
        <ele>478.0</ele>
        <time>2018-09-16T06:57:57Z</time>
      </trkpt>
      <trkpt lat="39.3307170" lon="-0.7478200">
        <ele>478.0</ele>
        <time>2018-09-16T06:57:58Z</time>
      </trkpt>
      <trkpt lat="39.3307370" lon="-0.7478620">
        <ele>479.0</ele>
        <time>2018-09-16T06:57:59Z</time>
      </trkpt>
      <trkpt lat="39.3307450" lon="-0.7478820">
        <ele>479.0</ele>
        <time>2018-09-16T06:58:00Z</time>
      </trkpt>
      <trkpt lat="39.3307450" lon="-0.7478820">
        <ele>479.0</ele>
        <time>2018-09-16T06:58:01Z</time>
      </trkpt>
      <trkpt lat="39.3307620" lon="-0.7479220">
        <ele>479.0</ele>
        <time>2018-09-16T06:58:02Z</time>
      </trkpt>
      <trkpt lat="39.3307700" lon="-0.7479430">
        <ele>479.0</ele>
        <time>2018-09-16T06:58:03Z</time>
      </trkpt>
      <trkpt lat="39.3307700" lon="-0.7479430">
        <ele>479.0</ele>
        <time>2018-09-16T06:58:04Z</time>
      </trkpt>
      <trkpt lat="39.3307850" lon="-0.7479830">
        <ele>479.0</ele>
        <time>2018-09-16T06:58:05Z</time>
      </trkpt>
      <trkpt lat="39.3307850" lon="-0.7479830">
        <ele>479.0</ele>
        <time>2018-09-16T06:58:06Z</time>
      </trkpt>
      <trkpt lat="39.3307970" lon="-0.7480270">
        <ele>479.0</ele>
        <time>2018-09-16T06:58:07Z</time>
      </trkpt>
      <trkpt lat="39.3307970" lon="-0.7480270">
        <ele>479.0</ele>
        <time>2018-09-16T06:58:08Z</time>
      </trkpt>
      <trkpt lat="39.3308070" lon="-0.7480720">
        <ele>479.0</ele>
        <time>2018-09-16T06:58:09Z</time>
      </trkpt>
      <trkpt lat="39.3308100" lon="-0.7480930">
        <ele>480.0</ele>
        <time>2018-09-16T06:58:10Z</time>
      </trkpt>
      <trkpt lat="39.3308100" lon="-0.7480930">
        <ele>480.0</ele>
        <time>2018-09-16T06:58:11Z</time>
      </trkpt>
      <trkpt lat="39.3308120" lon="-0.7481380">
        <ele>480.0</ele>
        <time>2018-09-16T06:58:12Z</time>
      </trkpt>
      <trkpt lat="39.3308120" lon="-0.7481620">
        <ele>480.0</ele>
        <time>2018-09-16T06:58:13Z</time>
      </trkpt>
      <trkpt lat="39.3308120" lon="-0.7481620">
        <ele>480.0</ele>
        <time>2018-09-16T06:58:14Z</time>
      </trkpt>
      <trkpt lat="39.3308100" lon="-0.7482120">
        <ele>480.0</ele>
        <time>2018-09-16T06:58:15Z</time>
      </trkpt>
      <trkpt lat="39.3308100" lon="-0.7482120">
        <ele>480.0</ele>
        <time>2018-09-16T06:58:16Z</time>
      </trkpt>
      <trkpt lat="39.3308050" lon="-0.7482600">
        <ele>480.0</ele>
        <time>2018-09-16T06:58:17Z</time>
      </trkpt>
      <trkpt lat="39.3308030" lon="-0.7482850">
        <ele>481.0</ele>
        <time>2018-09-16T06:58:18Z</time>
      </trkpt>
      <trkpt lat="39.3308030" lon="-0.7482850">
        <ele>481.0</ele>
        <time>2018-09-16T06:58:19Z</time>
      </trkpt>
      <trkpt lat="39.3308070" lon="-0.7483320">
        <ele>481.0</ele>
        <time>2018-09-16T06:58:20Z</time>
      </trkpt>
      <trkpt lat="39.3308070" lon="-0.7483320">
        <ele>482.0</ele>
        <time>2018-09-16T06:58:21Z</time>
      </trkpt>
      <trkpt lat="39.3308100" lon="-0.7483720">
        <ele>482.0</ele>
        <time>2018-09-16T06:58:22Z</time>
      </trkpt>
      <trkpt lat="39.3308120" lon="-0.7483900">
        <ele>482.0</ele>
        <time>2018-09-16T06:58:23Z</time>
      </trkpt>
      <trkpt lat="39.3308170" lon="-0.7484100">
        <ele>482.0</ele>
        <time>2018-09-16T06:58:24Z</time>
      </trkpt>
      <trkpt lat="39.3308170" lon="-0.7484100">
        <ele>482.0</ele>
        <time>2018-09-16T06:58:25Z</time>
      </trkpt>
      <trkpt lat="39.3308280" lon="-0.7484550">
        <ele>482.0</ele>
        <time>2018-09-16T06:58:26Z</time>
      </trkpt>
      <trkpt lat="39.3308280" lon="-0.7484550">
        <ele>482.0</ele>
        <time>2018-09-16T06:58:27Z</time>
      </trkpt>
      <trkpt lat="39.3308400" lon="-0.7485030">
        <ele>482.0</ele>
        <time>2018-09-16T06:58:28Z</time>
      </trkpt>
      <trkpt lat="39.3308400" lon="-0.7485030">
        <ele>482.0</ele>
        <time>2018-09-16T06:58:29Z</time>
      </trkpt>
      <trkpt lat="39.3308400" lon="-0.7485520">
        <ele>482.0</ele>
        <time>2018-09-16T06:58:30Z</time>
      </trkpt>
      <trkpt lat="39.3308400" lon="-0.7485520">
        <ele>482.0</ele>
        <time>2018-09-16T06:58:31Z</time>
      </trkpt>
      <trkpt lat="39.3308450" lon="-0.7485870">
        <ele>482.0</ele>
        <time>2018-09-16T06:58:32Z</time>
      </trkpt>
      <trkpt lat="39.3308450" lon="-0.7485870">
        <ele>482.0</ele>
        <time>2018-09-16T06:58:33Z</time>
      </trkpt>
      <trkpt lat="39.3308400" lon="-0.7486320">
        <ele>482.0</ele>
        <time>2018-09-16T06:58:34Z</time>
      </trkpt>
      <trkpt lat="39.3308400" lon="-0.7486320">
        <ele>482.0</ele>
        <time>2018-09-16T06:58:35Z</time>
      </trkpt>
      <trkpt lat="39.3308230" lon="-0.7486730">
        <ele>482.0</ele>
        <time>2018-09-16T06:58:36Z</time>
      </trkpt>
      <trkpt lat="39.3308230" lon="-0.7486730">
        <ele>483.0</ele>
        <time>2018-09-16T06:58:37Z</time>
      </trkpt>
      <trkpt lat="39.3308030" lon="-0.7487100">
        <ele>483.0</ele>
        <time>2018-09-16T06:58:38Z</time>
      </trkpt>
      <trkpt lat="39.3308030" lon="-0.7487100">
        <ele>483.0</ele>
        <time>2018-09-16T06:58:39Z</time>
      </trkpt>
      <trkpt lat="39.3307770" lon="-0.7487420">
        <ele>483.0</ele>
        <time>2018-09-16T06:58:40Z</time>
      </trkpt>
      <trkpt lat="39.3307770" lon="-0.7487420">
        <ele>483.0</ele>
        <time>2018-09-16T06:58:41Z</time>
      </trkpt>
      <trkpt lat="39.3307530" lon="-0.7487720">
        <ele>483.0</ele>
        <time>2018-09-16T06:58:42Z</time>
      </trkpt>
      <trkpt lat="39.3307530" lon="-0.7487720">
        <ele>483.0</ele>
        <time>2018-09-16T06:58:43Z</time>
      </trkpt>
      <trkpt lat="39.3307300" lon="-0.7488020">
        <ele>483.0</ele>
        <time>2018-09-16T06:58:44Z</time>
      </trkpt>
      <trkpt lat="39.3307180" lon="-0.7488170">
        <ele>483.0</ele>
        <time>2018-09-16T06:58:45Z</time>
      </trkpt>
      <trkpt lat="39.3307180" lon="-0.7488170">
        <ele>483.0</ele>
        <time>2018-09-16T06:58:46Z</time>
      </trkpt>
      <trkpt lat="39.3307030" lon="-0.7488420">
        <ele>483.0</ele>
        <time>2018-09-16T06:58:47Z</time>
      </trkpt>
      <trkpt lat="39.3306950" lon="-0.7488520">
        <ele>483.0</ele>
        <time>2018-09-16T06:58:48Z</time>
      </trkpt>
      <trkpt lat="39.3306950" lon="-0.7488520">
        <ele>483.0</ele>
        <time>2018-09-16T06:58:49Z</time>
      </trkpt>
      <trkpt lat="39.3306820" lon="-0.7488680">
        <ele>483.0</ele>
        <time>2018-09-16T06:58:50Z</time>
      </trkpt>
      <trkpt lat="39.3306820" lon="-0.7488680">
        <ele>483.0</ele>
        <time>2018-09-16T06:58:51Z</time>
      </trkpt>
      <trkpt lat="39.3306670" lon="-0.7488830">
        <ele>483.0</ele>
        <time>2018-09-16T06:58:52Z</time>
      </trkpt>
      <trkpt lat="39.3306600" lon="-0.7488920">
        <ele>483.0</ele>
        <time>2018-09-16T06:58:53Z</time>
      </trkpt>
      <trkpt lat="39.3306600" lon="-0.7488920">
        <ele>482.0</ele>
        <time>2018-09-16T06:58:54Z</time>
      </trkpt>
      <trkpt lat="39.3306430" lon="-0.7489070">
        <ele>482.0</ele>
        <time>2018-09-16T06:58:55Z</time>
      </trkpt>
      <trkpt lat="39.3306430" lon="-0.7489070">
        <ele>482.0</ele>
        <time>2018-09-16T06:58:56Z</time>
      </trkpt>
      <trkpt lat="39.3306270" lon="-0.7489250">
        <ele>482.0</ele>
        <time>2018-09-16T06:58:57Z</time>
      </trkpt>
      <trkpt lat="39.3306270" lon="-0.7489250">
        <ele>482.0</ele>
        <time>2018-09-16T06:58:58Z</time>
      </trkpt>
      <trkpt lat="39.3306080" lon="-0.7489430">
        <ele>482.0</ele>
        <time>2018-09-16T06:58:59Z</time>
      </trkpt>
      <trkpt lat="39.3306020" lon="-0.7489530">
        <ele>482.0</ele>
        <time>2018-09-16T06:59:00Z</time>
      </trkpt>
      <trkpt lat="39.3306020" lon="-0.7489530">
        <ele>482.0</ele>
        <time>2018-09-16T06:59:01Z</time>
      </trkpt>
      <trkpt lat="39.3305790" lon="-0.7489860">
        <ele>482.0</ele>
        <time>2018-09-16T06:59:02Z</time>
      </trkpt>
      <trkpt lat="39.3305640" lon="-0.7490100">
        <ele>482.0</ele>
        <time>2018-09-16T07:00:08Z</time>
      </trkpt>
      <trkpt lat="39.3305480" lon="-0.7490330">
        <ele>482.0</ele>
        <time>2018-09-16T07:00:09Z</time>
      </trkpt>
      <trkpt lat="39.3304950" lon="-0.7490950">
        <ele>482.0</ele>
        <time>2018-09-16T07:00:10Z</time>
      </trkpt>
      <trkpt lat="39.3304820" lon="-0.7491100">
        <ele>482.0</ele>
        <time>2018-09-16T07:00:11Z</time>
      </trkpt>
      <trkpt lat="39.3304520" lon="-0.7491470">
        <ele>482.0</ele>
        <time>2018-09-16T07:00:12Z</time>
      </trkpt>
      <trkpt lat="39.3304520" lon="-0.7491470">
        <ele>481.0</ele>
        <time>2018-09-16T07:00:13Z</time>
      </trkpt>
      <trkpt lat="39.3303950" lon="-0.7492400">
        <ele>481.0</ele>
        <time>2018-09-16T07:00:14Z</time>
      </trkpt>
      <trkpt lat="39.3303670" lon="-0.7493020">
        <ele>481.0</ele>
        <time>2018-09-16T07:00:15Z</time>
      </trkpt>
      <trkpt lat="39.3303670" lon="-0.7493020">
        <ele>481.0</ele>
        <time>2018-09-16T07:00:16Z</time>
      </trkpt>
      <trkpt lat="39.3303100" lon="-0.7494500">
        <ele>480.0</ele>
        <time>2018-09-16T07:00:17Z</time>
      </trkpt>
      <trkpt lat="39.3302770" lon="-0.7495350">
        <ele>480.0</ele>
        <time>2018-09-16T07:00:18Z</time>
      </trkpt>
      <trkpt lat="39.3302770" lon="-0.7495350">
        <ele>480.0</ele>
        <time>2018-09-16T07:00:19Z</time>
      </trkpt>
      <trkpt lat="39.3302150" lon="-0.7497170">
        <ele>480.0</ele>
        <time>2018-09-16T07:00:20Z</time>
      </trkpt>
      <trkpt lat="39.3302150" lon="-0.7497170">
        <ele>478.0</ele>
        <time>2018-09-16T07:00:21Z</time>
      </trkpt>
      <trkpt lat="39.3301650" lon="-0.7498670">
        <ele>478.0</ele>
        <time>2018-09-16T07:00:22Z</time>
      </trkpt>
      <trkpt lat="39.3301650" lon="-0.7498670">
        <ele>476.0</ele>
        <time>2018-09-16T07:00:23Z</time>
      </trkpt>
      <trkpt lat="39.3301330" lon="-0.7500170">
        <ele>476.0</ele>
        <time>2018-09-16T07:00:24Z</time>
      </trkpt>
      <trkpt lat="39.3301330" lon="-0.7500170">
        <ele>474.0</ele>
        <time>2018-09-16T07:00:25Z</time>
      </trkpt>
      <trkpt lat="39.3301280" lon="-0.7501980">
        <ele>474.0</ele>
        <time>2018-09-16T07:00:26Z</time>
      </trkpt>
      <trkpt lat="39.3301280" lon="-0.7501980">
        <ele>474.0</ele>
        <time>2018-09-16T07:00:27Z</time>
      </trkpt>
      <trkpt lat="39.3301480" lon="-0.7503930">
        <ele>473.0</ele>
        <time>2018-09-16T07:00:28Z</time>
      </trkpt>
      <trkpt lat="39.3301480" lon="-0.7503930">
        <ele>473.0</ele>
        <time>2018-09-16T07:00:29Z</time>
      </trkpt>
      <trkpt lat="39.3301800" lon="-0.7505980">
        <ele>471.0</ele>
        <time>2018-09-16T07:00:30Z</time>
      </trkpt>
      <trkpt lat="39.3301800" lon="-0.7505980">
        <ele>471.0</ele>
        <time>2018-09-16T07:00:31Z</time>
      </trkpt>
      <trkpt lat="39.3302200" lon="-0.7508070">
        <ele>471.0</ele>
        <time>2018-09-16T07:00:32Z</time>
      </trkpt>
      <trkpt lat="39.3302200" lon="-0.7508070">
        <ele>470.0</ele>
        <time>2018-09-16T07:00:33Z</time>
      </trkpt>
      <trkpt lat="39.3302600" lon="-0.7510070">
        <ele>470.0</ele>
        <time>2018-09-16T07:00:34Z</time>
      </trkpt>
      <trkpt lat="39.3302820" lon="-0.7511080">
        <ele>470.0</ele>
        <time>2018-09-16T07:00:35Z</time>
      </trkpt>
      <trkpt lat="39.3303020" lon="-0.7512120">
        <ele>469.0</ele>
        <time>2018-09-16T07:00:36Z</time>
      </trkpt>
      <trkpt lat="39.3303020" lon="-0.7512120">
        <ele>469.0</ele>
        <time>2018-09-16T07:00:37Z</time>
      </trkpt>
      <trkpt lat="39.3303120" lon="-0.7514220">
        <ele>469.0</ele>
        <time>2018-09-16T07:00:38Z</time>
      </trkpt>
      <trkpt lat="39.3303120" lon="-0.7514220">
        <ele>469.0</ele>
        <time>2018-09-16T07:00:39Z</time>
      </trkpt>
      <trkpt lat="39.3302730" lon="-0.7516220">
        <ele>469.0</ele>
        <time>2018-09-16T07:00:40Z</time>
      </trkpt>
      <trkpt lat="39.3302420" lon="-0.7517080">
        <ele>469.0</ele>
        <time>2018-09-16T07:00:41Z</time>
      </trkpt>
      <trkpt lat="39.3302420" lon="-0.7517080">
        <ele>469.0</ele>
        <time>2018-09-16T07:00:42Z</time>
      </trkpt>
      <trkpt lat="39.3301720" lon="-0.7518670">
        <ele>469.0</ele>
        <time>2018-09-16T07:00:43Z</time>
      </trkpt>
      <trkpt lat="39.3301720" lon="-0.7518670">
        <ele>469.0</ele>
        <time>2018-09-16T07:00:44Z</time>
      </trkpt>
      <trkpt lat="39.3300900" lon="-0.7520020">
        <ele>469.0</ele>
        <time>2018-09-16T07:00:45Z</time>
      </trkpt>
      <trkpt lat="39.3300900" lon="-0.7520020">
        <ele>470.0</ele>
        <time>2018-09-16T07:00:46Z</time>
      </trkpt>
      <trkpt lat="39.3300120" lon="-0.7521120">
        <ele>470.0</ele>
        <time>2018-09-16T07:00:47Z</time>
      </trkpt>
      <trkpt lat="39.3299750" lon="-0.7521550">
        <ele>470.0</ele>
        <time>2018-09-16T07:00:48Z</time>
      </trkpt>
      <trkpt lat="39.3299750" lon="-0.7521550">
        <ele>470.0</ele>
        <time>2018-09-16T07:00:49Z</time>
      </trkpt>
      <trkpt lat="39.3299070" lon="-0.7522370">
        <ele>470.0</ele>
        <time>2018-09-16T07:00:50Z</time>
      </trkpt>
      <trkpt lat="39.3298770" lon="-0.7522820">
        <ele>470.0</ele>
        <time>2018-09-16T07:00:51Z</time>
      </trkpt>
      <trkpt lat="39.3298770" lon="-0.7522820">
        <ele>470.0</ele>
        <time>2018-09-16T07:00:52Z</time>
      </trkpt>
      <trkpt lat="39.3298230" lon="-0.7523800">
        <ele>471.0</ele>
        <time>2018-09-16T07:00:53Z</time>
      </trkpt>
      <trkpt lat="39.3298020" lon="-0.7524280">
        <ele>471.0</ele>
        <time>2018-09-16T07:00:54Z</time>
      </trkpt>
      <trkpt lat="39.3298020" lon="-0.7524280">
        <ele>471.0</ele>
        <time>2018-09-16T07:00:55Z</time>
      </trkpt>
      <trkpt lat="39.3297620" lon="-0.7525120">
        <ele>472.0</ele>
        <time>2018-09-16T07:00:56Z</time>
      </trkpt>
      <trkpt lat="39.3297470" lon="-0.7525500">
        <ele>472.0</ele>
        <time>2018-09-16T07:00:57Z</time>
      </trkpt>
      <trkpt lat="39.3297470" lon="-0.7525500">
        <ele>472.0</ele>
        <time>2018-09-16T07:00:58Z</time>
      </trkpt>
      <trkpt lat="39.3297320" lon="-0.7526370">
        <ele>472.0</ele>
        <time>2018-09-16T07:00:59Z</time>
      </trkpt>
      <trkpt lat="39.3297300" lon="-0.7526820">
        <ele>472.0</ele>
        <time>2018-09-16T07:01:00Z</time>
      </trkpt>
      <trkpt lat="39.3297300" lon="-0.7526820">
        <ele>472.0</ele>
        <time>2018-09-16T07:01:01Z</time>
      </trkpt>
      <trkpt lat="39.3297330" lon="-0.7527750">
        <ele>473.0</ele>
        <time>2018-09-16T07:01:02Z</time>
      </trkpt>
      <trkpt lat="39.3297330" lon="-0.7528200">
        <ele>473.0</ele>
        <time>2018-09-16T07:01:03Z</time>
      </trkpt>
      <trkpt lat="39.3297330" lon="-0.7528200">
        <ele>473.0</ele>
        <time>2018-09-16T07:01:04Z</time>
      </trkpt>
      <trkpt lat="39.3297380" lon="-0.7529080">
        <ele>473.0</ele>
        <time>2018-09-16T07:01:05Z</time>
      </trkpt>
      <trkpt lat="39.3297430" lon="-0.7529500">
        <ele>474.0</ele>
        <time>2018-09-16T07:01:06Z</time>
      </trkpt>
      <trkpt lat="39.3297430" lon="-0.7529500">
        <ele>474.0</ele>
        <time>2018-09-16T07:01:07Z</time>
      </trkpt>
      <trkpt lat="39.3297570" lon="-0.7530250">
        <ele>474.0</ele>
        <time>2018-09-16T07:01:08Z</time>
      </trkpt>
      <trkpt lat="39.3297630" lon="-0.7530600">
        <ele>474.0</ele>
        <time>2018-09-16T07:01:09Z</time>
      </trkpt>
      <trkpt lat="39.3297630" lon="-0.7530600">
        <ele>474.0</ele>
        <time>2018-09-16T07:01:10Z</time>
      </trkpt>
      <trkpt lat="39.3297750" lon="-0.7531300">
        <ele>474.0</ele>
        <time>2018-09-16T07:01:11Z</time>
      </trkpt>
      <trkpt lat="39.3297750" lon="-0.7531300">
        <ele>475.0</ele>
        <time>2018-09-16T07:01:12Z</time>
      </trkpt>
      <trkpt lat="39.3297880" lon="-0.7531970">
        <ele>475.0</ele>
        <time>2018-09-16T07:01:13Z</time>
      </trkpt>
      <trkpt lat="39.3297880" lon="-0.7531970">
        <ele>475.0</ele>
        <time>2018-09-16T07:01:14Z</time>
      </trkpt>
      <trkpt lat="39.3298080" lon="-0.7532670">
        <ele>475.0</ele>
        <time>2018-09-16T07:01:15Z</time>
      </trkpt>
      <trkpt lat="39.3298080" lon="-0.7532670">
        <ele>475.0</ele>
        <time>2018-09-16T07:01:16Z</time>
      </trkpt>
      <trkpt lat="39.3298350" lon="-0.7533350">
        <ele>475.0</ele>
        <time>2018-09-16T07:01:17Z</time>
      </trkpt>
      <trkpt lat="39.3298530" lon="-0.7533670">
        <ele>476.0</ele>
        <time>2018-09-16T07:01:18Z</time>
      </trkpt>
      <trkpt lat="39.3298530" lon="-0.7533670">
        <ele>476.0</ele>
        <time>2018-09-16T07:01:19Z</time>
      </trkpt>
      <trkpt lat="39.3298920" lon="-0.7534230">
        <ele>476.0</ele>
        <time>2018-09-16T07:01:20Z</time>
      </trkpt>
      <trkpt lat="39.3298920" lon="-0.7534230">
        <ele>476.0</ele>
        <time>2018-09-16T07:01:21Z</time>
      </trkpt>
      <trkpt lat="39.3299250" lon="-0.7534780">
        <ele>477.0</ele>
        <time>2018-09-16T07:01:22Z</time>
      </trkpt>
      <trkpt lat="39.3299430" lon="-0.7535030">
        <ele>477.0</ele>
        <time>2018-09-16T07:01:23Z</time>
      </trkpt>
      <trkpt lat="39.3299670" lon="-0.7535230">
        <ele>477.0</ele>
        <time>2018-09-16T07:01:24Z</time>
      </trkpt>
      <trkpt lat="39.3299670" lon="-0.7535230">
        <ele>477.0</ele>
        <time>2018-09-16T07:01:25Z</time>
      </trkpt>
      <trkpt lat="39.3300100" lon="-0.7535570">
        <ele>477.0</ele>
        <time>2018-09-16T07:01:26Z</time>
      </trkpt>
      <trkpt lat="39.3300300" lon="-0.7535720">
        <ele>477.0</ele>
        <time>2018-09-16T07:01:27Z</time>
      </trkpt>
      <trkpt lat="39.3300300" lon="-0.7535720">
        <ele>477.0</ele>
        <time>2018-09-16T07:01:28Z</time>
      </trkpt>
      <trkpt lat="39.3300770" lon="-0.7535970">
        <ele>478.0</ele>
        <time>2018-09-16T07:01:29Z</time>
      </trkpt>
      <trkpt lat="39.3300980" lon="-0.7536070">
        <ele>478.0</ele>
        <time>2018-09-16T07:01:30Z</time>
      </trkpt>
      <trkpt lat="39.3300980" lon="-0.7536070">
        <ele>478.0</ele>
        <time>2018-09-16T07:01:31Z</time>
      </trkpt>
      <trkpt lat="39.3301430" lon="-0.7536230">
        <ele>478.0</ele>
        <time>2018-09-16T07:01:32Z</time>
      </trkpt>
      <trkpt lat="39.3301430" lon="-0.7536230">
        <ele>479.0</ele>
        <time>2018-09-16T07:01:33Z</time>
      </trkpt>
      <trkpt lat="39.3301870" lon="-0.7536380">
        <ele>479.0</ele>
        <time>2018-09-16T07:01:34Z</time>
      </trkpt>
      <trkpt lat="39.3302080" lon="-0.7536480">
        <ele>479.0</ele>
        <time>2018-09-16T07:01:35Z</time>
      </trkpt>
      <trkpt lat="39.3302080" lon="-0.7536480">
        <ele>479.0</ele>
        <time>2018-09-16T07:01:36Z</time>
      </trkpt>
      <trkpt lat="39.3302450" lon="-0.7536720">
        <ele>480.0</ele>
        <time>2018-09-16T07:01:37Z</time>
      </trkpt>
      <trkpt lat="39.3302450" lon="-0.7536720">
        <ele>480.0</ele>
        <time>2018-09-16T07:01:38Z</time>
      </trkpt>
      <trkpt lat="39.3302750" lon="-0.7537050">
        <ele>480.0</ele>
        <time>2018-09-16T07:01:39Z</time>
      </trkpt>
      <trkpt lat="39.3302880" lon="-0.7537250">
        <ele>480.0</ele>
        <time>2018-09-16T07:01:40Z</time>
      </trkpt>
      <trkpt lat="39.3302880" lon="-0.7537250">
        <ele>480.0</ele>
        <time>2018-09-16T07:01:41Z</time>
      </trkpt>
      <trkpt lat="39.3303070" lon="-0.7537580">
        <ele>480.0</ele>
        <time>2018-09-16T07:01:42Z</time>
      </trkpt>
      <trkpt lat="39.3303070" lon="-0.7537580">
        <ele>481.0</ele>
        <time>2018-09-16T07:01:43Z</time>
      </trkpt>
      <trkpt lat="39.3303200" lon="-0.7537950">
        <ele>481.0</ele>
        <time>2018-09-16T07:01:44Z</time>
      </trkpt>
      <trkpt lat="39.3303200" lon="-0.7537950">
        <ele>481.0</ele>
        <time>2018-09-16T07:01:45Z</time>
      </trkpt>
      <trkpt lat="39.3303280" lon="-0.7538330">
        <ele>481.0</ele>
        <time>2018-09-16T07:01:46Z</time>
      </trkpt>
      <trkpt lat="39.3303280" lon="-0.7538330">
        <ele>482.0</ele>
        <time>2018-09-16T07:01:47Z</time>
      </trkpt>
      <trkpt lat="39.3303350" lon="-0.7538720">
        <ele>482.0</ele>
        <time>2018-09-16T07:01:48Z</time>
      </trkpt>
      <trkpt lat="39.3303350" lon="-0.7538720">
        <ele>482.0</ele>
        <time>2018-09-16T07:01:49Z</time>
      </trkpt>
      <trkpt lat="39.3303350" lon="-0.7539120">
        <ele>482.0</ele>
        <time>2018-09-16T07:01:50Z</time>
      </trkpt>
      <trkpt lat="39.3303330" lon="-0.7539330">
        <ele>483.0</ele>
        <time>2018-09-16T07:01:51Z</time>
      </trkpt>
      <trkpt lat="39.3303330" lon="-0.7539330">
        <ele>484.0</ele>
        <time>2018-09-16T07:01:52Z</time>
      </trkpt>
      <trkpt lat="39.3303270" lon="-0.7539730">
        <ele>484.0</ele>
        <time>2018-09-16T07:01:53Z</time>
      </trkpt>
      <trkpt lat="39.3303230" lon="-0.7539950">
        <ele>484.0</ele>
        <time>2018-09-16T07:01:54Z</time>
      </trkpt>
      <trkpt lat="39.3303230" lon="-0.7539950">
        <ele>484.0</ele>
        <time>2018-09-16T07:01:55Z</time>
      </trkpt>
      <trkpt lat="39.3303080" lon="-0.7540330">
        <ele>484.0</ele>
        <time>2018-09-16T07:01:56Z</time>
      </trkpt>
      <trkpt lat="39.3303080" lon="-0.7540330">
        <ele>485.0</ele>
        <time>2018-09-16T07:01:57Z</time>
      </trkpt>
      <trkpt lat="39.3302970" lon="-0.7540730">
        <ele>485.0</ele>
        <time>2018-09-16T07:01:58Z</time>
      </trkpt>
      <trkpt lat="39.3302970" lon="-0.7540730">
        <ele>485.0</ele>
        <time>2018-09-16T07:01:59Z</time>
      </trkpt>
      <trkpt lat="39.3302900" lon="-0.7541200">
        <ele>486.0</ele>
        <time>2018-09-16T07:02:00Z</time>
      </trkpt>
      <trkpt lat="39.3302920" lon="-0.7541380">
        <ele>486.0</ele>
        <time>2018-09-16T07:02:01Z</time>
      </trkpt>
      <trkpt lat="39.3302920" lon="-0.7541380">
        <ele>486.0</ele>
        <time>2018-09-16T07:02:02Z</time>
      </trkpt>
      <trkpt lat="39.3302950" lon="-0.7541800">
        <ele>486.0</ele>
        <time>2018-09-16T07:02:03Z</time>
      </trkpt>
      <trkpt lat="39.3303000" lon="-0.7542020">
        <ele>486.0</ele>
        <time>2018-09-16T07:02:04Z</time>
      </trkpt>
      <trkpt lat="39.3303000" lon="-0.7542020">
        <ele>486.0</ele>
        <time>2018-09-16T07:02:05Z</time>
      </trkpt>
      <trkpt lat="39.3303180" lon="-0.7542480">
        <ele>486.0</ele>
        <time>2018-09-16T07:02:06Z</time>
      </trkpt>
      <trkpt lat="39.3303180" lon="-0.7542480">
        <ele>486.0</ele>
        <time>2018-09-16T07:02:07Z</time>
      </trkpt>
      <trkpt lat="39.3303400" lon="-0.7542950">
        <ele>487.0</ele>
        <time>2018-09-16T07:02:08Z</time>
      </trkpt>
      <trkpt lat="39.3303400" lon="-0.7542950">
        <ele>487.0</ele>
        <time>2018-09-16T07:02:09Z</time>
      </trkpt>
      <trkpt lat="39.3303650" lon="-0.7543350">
        <ele>487.0</ele>
        <time>2018-09-16T07:02:10Z</time>
      </trkpt>
      <trkpt lat="39.3303650" lon="-0.7543350">
        <ele>487.0</ele>
        <time>2018-09-16T07:02:11Z</time>
      </trkpt>
      <trkpt lat="39.3303950" lon="-0.7543700">
        <ele>487.0</ele>
        <time>2018-09-16T07:02:12Z</time>
      </trkpt>
      <trkpt lat="39.3303950" lon="-0.7543700">
        <ele>487.0</ele>
        <time>2018-09-16T07:02:13Z</time>
      </trkpt>
      <trkpt lat="39.3304280" lon="-0.7544050">
        <ele>487.0</ele>
        <time>2018-09-16T07:02:14Z</time>
      </trkpt>
      <trkpt lat="39.3304450" lon="-0.7544200">
        <ele>487.0</ele>
        <time>2018-09-16T07:02:15Z</time>
      </trkpt>
      <trkpt lat="39.3304450" lon="-0.7544200">
        <ele>488.0</ele>
        <time>2018-09-16T07:02:16Z</time>
      </trkpt>
      <trkpt lat="39.3304780" lon="-0.7544500">
        <ele>488.0</ele>
        <time>2018-09-16T07:02:17Z</time>
      </trkpt>
      <trkpt lat="39.3304950" lon="-0.7544630">
        <ele>488.0</ele>
        <time>2018-09-16T07:02:18Z</time>
      </trkpt>
      <trkpt lat="39.3304950" lon="-0.7544630">
        <ele>488.0</ele>
        <time>2018-09-16T07:02:19Z</time>
      </trkpt>
      <trkpt lat="39.3305280" lon="-0.7544900">
        <ele>488.0</ele>
        <time>2018-09-16T07:02:20Z</time>
      </trkpt>
      <trkpt lat="39.3305450" lon="-0.7545050">
        <ele>488.0</ele>
        <time>2018-09-16T07:02:21Z</time>
      </trkpt>
      <trkpt lat="39.3305450" lon="-0.7545050">
        <ele>488.0</ele>
        <time>2018-09-16T07:02:22Z</time>
      </trkpt>
      <trkpt lat="39.3305750" lon="-0.7545380">
        <ele>488.0</ele>
        <time>2018-09-16T07:02:23Z</time>
      </trkpt>
      <trkpt lat="39.3305880" lon="-0.7545580">
        <ele>488.0</ele>
        <time>2018-09-16T07:02:24Z</time>
      </trkpt>
      <trkpt lat="39.3305880" lon="-0.7545580">
        <ele>488.0</ele>
        <time>2018-09-16T07:02:25Z</time>
      </trkpt>
      <trkpt lat="39.3306150" lon="-0.7546050">
        <ele>488.0</ele>
        <time>2018-09-16T07:02:26Z</time>
      </trkpt>
      <trkpt lat="39.3306280" lon="-0.7546300">
        <ele>488.0</ele>
        <time>2018-09-16T07:02:27Z</time>
      </trkpt>
      <trkpt lat="39.3306420" lon="-0.7546530">
        <ele>488.0</ele>
        <time>2018-09-16T07:02:28Z</time>
      </trkpt>
      <trkpt lat="39.3306420" lon="-0.7546530">
        <ele>489.0</ele>
        <time>2018-09-16T07:02:29Z</time>
      </trkpt>
      <trkpt lat="39.3306700" lon="-0.7547030">
        <ele>489.0</ele>
        <time>2018-09-16T07:02:30Z</time>
      </trkpt>
      <trkpt lat="39.3306700" lon="-0.7547030">
        <ele>489.0</ele>
        <time>2018-09-16T07:02:31Z</time>
      </trkpt>
      <trkpt lat="39.3307000" lon="-0.7547500">
        <ele>489.0</ele>
        <time>2018-09-16T07:02:32Z</time>
      </trkpt>
      <trkpt lat="39.3307170" lon="-0.7547700">
        <ele>489.0</ele>
        <time>2018-09-16T07:02:33Z</time>
      </trkpt>
      <trkpt lat="39.3307170" lon="-0.7547700">
        <ele>489.0</ele>
        <time>2018-09-16T07:02:34Z</time>
      </trkpt>
      <trkpt lat="39.3307450" lon="-0.7548080">
        <ele>489.0</ele>
        <time>2018-09-16T07:02:35Z</time>
      </trkpt>
      <trkpt lat="39.3307570" lon="-0.7548250">
        <ele>489.0</ele>
        <time>2018-09-16T07:02:36Z</time>
      </trkpt>
      <trkpt lat="39.3307570" lon="-0.7548250">
        <ele>489.0</ele>
        <time>2018-09-16T07:02:37Z</time>
      </trkpt>
      <trkpt lat="39.3307770" lon="-0.7548580">
        <ele>489.0</ele>
        <time>2018-09-16T07:02:38Z</time>
      </trkpt>
      <trkpt lat="39.3307770" lon="-0.7548580">
        <ele>489.0</ele>
        <time>2018-09-16T07:02:39Z</time>
      </trkpt>
      <trkpt lat="39.3307980" lon="-0.7548970">
        <ele>489.0</ele>
        <time>2018-09-16T07:02:40Z</time>
      </trkpt>
      <trkpt lat="39.3307980" lon="-0.7548970">
        <ele>489.0</ele>
        <time>2018-09-16T07:02:41Z</time>
      </trkpt>
      <trkpt lat="39.3308220" lon="-0.7549420">
        <ele>489.0</ele>
        <time>2018-09-16T07:02:42Z</time>
      </trkpt>
      <trkpt lat="39.3308220" lon="-0.7549420">
        <ele>489.0</ele>
        <time>2018-09-16T07:02:43Z</time>
      </trkpt>
      <trkpt lat="39.3308430" lon="-0.7549950">
        <ele>489.0</ele>
        <time>2018-09-16T07:02:44Z</time>
      </trkpt>
      <trkpt lat="39.3308430" lon="-0.7549950">
        <ele>489.0</ele>
        <time>2018-09-16T07:02:45Z</time>
      </trkpt>
      <trkpt lat="39.3308620" lon="-0.7550550">
        <ele>489.0</ele>
        <time>2018-09-16T07:02:46Z</time>
      </trkpt>
      <trkpt lat="39.3308620" lon="-0.7550550">
        <ele>489.0</ele>
        <time>2018-09-16T07:02:47Z</time>
      </trkpt>
      <trkpt lat="39.3308720" lon="-0.7551200">
        <ele>489.0</ele>
        <time>2018-09-16T07:02:48Z</time>
      </trkpt>
      <trkpt lat="39.3308720" lon="-0.7551200">
        <ele>489.0</ele>
        <time>2018-09-16T07:02:49Z</time>
      </trkpt>
      <trkpt lat="39.3308750" lon="-0.7551850">
        <ele>489.0</ele>
        <time>2018-09-16T07:02:50Z</time>
      </trkpt>
      <trkpt lat="39.3308750" lon="-0.7552200">
        <ele>489.0</ele>
        <time>2018-09-16T07:02:51Z</time>
      </trkpt>
      <trkpt lat="39.3308750" lon="-0.7552200">
        <ele>489.0</ele>
        <time>2018-09-16T07:02:52Z</time>
      </trkpt>
      <trkpt lat="39.3308670" lon="-0.7552880">
        <ele>489.0</ele>
        <time>2018-09-16T07:02:53Z</time>
      </trkpt>
      <trkpt lat="39.3308630" lon="-0.7553230">
        <ele>489.0</ele>
        <time>2018-09-16T07:02:54Z</time>
      </trkpt>
      <trkpt lat="39.3308630" lon="-0.7553230">
        <ele>489.0</ele>
        <time>2018-09-16T07:02:55Z</time>
      </trkpt>
      <trkpt lat="39.3308580" lon="-0.7553920">
        <ele>489.0</ele>
        <time>2018-09-16T07:02:56Z</time>
      </trkpt>
      <trkpt lat="39.3308500" lon="-0.7554250">
        <ele>489.0</ele>
        <time>2018-09-16T07:02:57Z</time>
      </trkpt>
      <trkpt lat="39.3308500" lon="-0.7554250">
        <ele>489.0</ele>
        <time>2018-09-16T07:02:58Z</time>
      </trkpt>
      <trkpt lat="39.3308380" lon="-0.7554930">
        <ele>489.0</ele>
        <time>2018-09-16T07:02:59Z</time>
      </trkpt>
      <trkpt lat="39.3308330" lon="-0.7555270">
        <ele>489.0</ele>
        <time>2018-09-16T07:03:00Z</time>
      </trkpt>
      <trkpt lat="39.3308330" lon="-0.7555270">
        <ele>489.0</ele>
        <time>2018-09-16T07:03:01Z</time>
      </trkpt>
      <trkpt lat="39.3308270" lon="-0.7555930">
        <ele>489.0</ele>
        <time>2018-09-16T07:03:02Z</time>
      </trkpt>
      <trkpt lat="39.3308230" lon="-0.7556250">
        <ele>489.0</ele>
        <time>2018-09-16T07:03:03Z</time>
      </trkpt>
      <trkpt lat="39.3308230" lon="-0.7556250">
        <ele>489.0</ele>
        <time>2018-09-16T07:03:04Z</time>
      </trkpt>
      <trkpt lat="39.3308200" lon="-0.7556850">
        <ele>489.0</ele>
        <time>2018-09-16T07:03:05Z</time>
      </trkpt>
      <trkpt lat="39.3308180" lon="-0.7557180">
        <ele>489.0</ele>
        <time>2018-09-16T07:03:06Z</time>
      </trkpt>
      <trkpt lat="39.3308180" lon="-0.7557180">
        <ele>489.0</ele>
        <time>2018-09-16T07:03:07Z</time>
      </trkpt>
      <trkpt lat="39.3308180" lon="-0.7557830">
        <ele>489.0</ele>
        <time>2018-09-16T07:03:08Z</time>
      </trkpt>
      <trkpt lat="39.3308200" lon="-0.7558180">
        <ele>489.0</ele>
        <time>2018-09-16T07:03:09Z</time>
      </trkpt>
      <trkpt lat="39.3308200" lon="-0.7558180">
        <ele>489.0</ele>
        <time>2018-09-16T07:03:10Z</time>
      </trkpt>
      <trkpt lat="39.3308270" lon="-0.7558880">
        <ele>489.0</ele>
        <time>2018-09-16T07:03:11Z</time>
      </trkpt>
      <trkpt lat="39.3308300" lon="-0.7559230">
        <ele>489.0</ele>
        <time>2018-09-16T07:03:12Z</time>
      </trkpt>
      <trkpt lat="39.3308350" lon="-0.7559550">
        <ele>489.0</ele>
        <time>2018-09-16T07:03:13Z</time>
      </trkpt>
      <trkpt lat="39.3308350" lon="-0.7559550">
        <ele>489.0</ele>
        <time>2018-09-16T07:03:14Z</time>
      </trkpt>
      <trkpt lat="39.3308470" lon="-0.7560170">
        <ele>489.0</ele>
        <time>2018-09-16T07:03:15Z</time>
      </trkpt>
      <trkpt lat="39.3308530" lon="-0.7560480">
        <ele>489.0</ele>
        <time>2018-09-16T07:03:16Z</time>
      </trkpt>
      <trkpt lat="39.3308530" lon="-0.7560480">
        <ele>489.0</ele>
        <time>2018-09-16T07:03:17Z</time>
      </trkpt>
      <trkpt lat="39.3308670" lon="-0.7561230">
        <ele>489.0</ele>
        <time>2018-09-16T07:03:18Z</time>
      </trkpt>
      <trkpt lat="39.3308670" lon="-0.7561230">
        <ele>489.0</ele>
        <time>2018-09-16T07:03:19Z</time>
      </trkpt>
      <trkpt lat="39.3308720" lon="-0.7562080">
        <ele>489.0</ele>
        <time>2018-09-16T07:03:20Z</time>
      </trkpt>
      <trkpt lat="39.3308720" lon="-0.7562080">
        <ele>489.0</ele>
        <time>2018-09-16T07:03:21Z</time>
      </trkpt>
      <trkpt lat="39.3308770" lon="-0.7563070">
        <ele>489.0</ele>
        <time>2018-09-16T07:03:22Z</time>
      </trkpt>
      <trkpt lat="39.3308770" lon="-0.7563070">
        <ele>489.0</ele>
        <time>2018-09-16T07:03:23Z</time>
      </trkpt>
      <trkpt lat="39.3308870" lon="-0.7564080">
        <ele>489.0</ele>
        <time>2018-09-16T07:03:24Z</time>
      </trkpt>
      <trkpt lat="39.3308870" lon="-0.7564080">
        <ele>489.0</ele>
        <time>2018-09-16T07:03:25Z</time>
      </trkpt>
      <trkpt lat="39.3309030" lon="-0.7565020">
        <ele>489.0</ele>
        <time>2018-09-16T07:03:26Z</time>
      </trkpt>
      <trkpt lat="39.3309100" lon="-0.7565470">
        <ele>489.0</ele>
        <time>2018-09-16T07:03:27Z</time>
      </trkpt>
      <trkpt lat="39.3309100" lon="-0.7565470">
        <ele>490.0</ele>
        <time>2018-09-16T07:03:28Z</time>
      </trkpt>
      <trkpt lat="39.3309270" lon="-0.7566300">
        <ele>490.0</ele>
        <time>2018-09-16T07:03:29Z</time>
      </trkpt>
      <trkpt lat="39.3309350" lon="-0.7566730">
        <ele>490.0</ele>
        <time>2018-09-16T07:03:30Z</time>
      </trkpt>
      <trkpt lat="39.3309350" lon="-0.7566730">
        <ele>490.0</ele>
        <time>2018-09-16T07:03:31Z</time>
      </trkpt>
      <trkpt lat="39.3309530" lon="-0.7567570">
        <ele>490.0</ele>
        <time>2018-09-16T07:03:32Z</time>
      </trkpt>
      <trkpt lat="39.3309530" lon="-0.7567570">
        <ele>490.0</ele>
        <time>2018-09-16T07:03:33Z</time>
      </trkpt>
      <trkpt lat="39.3309750" lon="-0.7568370">
        <ele>490.0</ele>
        <time>2018-09-16T07:03:34Z</time>
      </trkpt>
      <trkpt lat="39.3309850" lon="-0.7568770">
        <ele>490.0</ele>
        <time>2018-09-16T07:03:35Z</time>
      </trkpt>
      <trkpt lat="39.3309970" lon="-0.7569150">
        <ele>490.0</ele>
        <time>2018-09-16T07:03:36Z</time>
      </trkpt>
      <trkpt lat="39.3309970" lon="-0.7569150">
        <ele>490.0</ele>
        <time>2018-09-16T07:03:37Z</time>
      </trkpt>
      <trkpt lat="39.3310230" lon="-0.7569930">
        <ele>490.0</ele>
        <time>2018-09-16T07:03:38Z</time>
      </trkpt>
      <trkpt lat="39.3310230" lon="-0.7569930">
        <ele>490.0</ele>
        <time>2018-09-16T07:03:39Z</time>
      </trkpt>
      <trkpt lat="39.3310530" lon="-0.7570700">
        <ele>490.0</ele>
        <time>2018-09-16T07:03:40Z</time>
      </trkpt>
      <trkpt lat="39.3310530" lon="-0.7570700">
        <ele>490.0</ele>
        <time>2018-09-16T07:03:41Z</time>
      </trkpt>
      <trkpt lat="39.3310770" lon="-0.7571500">
        <ele>490.0</ele>
        <time>2018-09-16T07:03:42Z</time>
      </trkpt>
      <trkpt lat="39.3310770" lon="-0.7571500">
        <ele>490.0</ele>
        <time>2018-09-16T07:03:43Z</time>
      </trkpt>
      <trkpt lat="39.3311070" lon="-0.7572300">
        <ele>490.0</ele>
        <time>2018-09-16T07:03:44Z</time>
      </trkpt>
      <trkpt lat="39.3311070" lon="-0.7572300">
        <ele>490.0</ele>
        <time>2018-09-16T07:03:45Z</time>
      </trkpt>
      <trkpt lat="39.3311420" lon="-0.7573170">
        <ele>490.0</ele>
        <time>2018-09-16T07:03:46Z</time>
      </trkpt>
      <trkpt lat="39.3311600" lon="-0.7573600">
        <ele>490.0</ele>
        <time>2018-09-16T07:03:47Z</time>
      </trkpt>
      <trkpt lat="39.3311600" lon="-0.7573600">
        <ele>490.0</ele>
        <time>2018-09-16T07:03:48Z</time>
      </trkpt>
      <trkpt lat="39.3311950" lon="-0.7574500">
        <ele>490.0</ele>
        <time>2018-09-16T07:03:49Z</time>
      </trkpt>
      <trkpt lat="39.3311950" lon="-0.7574500">
        <ele>490.0</ele>
        <time>2018-09-16T07:03:50Z</time>
      </trkpt>
      <trkpt lat="39.3312320" lon="-0.7575420">
        <ele>490.0</ele>
        <time>2018-09-16T07:03:51Z</time>
      </trkpt>
      <trkpt lat="39.3312320" lon="-0.7575420">
        <ele>490.0</ele>
        <time>2018-09-16T07:03:52Z</time>
      </trkpt>
      <trkpt lat="39.3312700" lon="-0.7576330">
        <ele>490.0</ele>
        <time>2018-09-16T07:03:53Z</time>
      </trkpt>
      <trkpt lat="39.3312880" lon="-0.7576780">
        <ele>490.0</ele>
        <time>2018-09-16T07:03:54Z</time>
      </trkpt>
      <trkpt lat="39.3312880" lon="-0.7576780">
        <ele>490.0</ele>
        <time>2018-09-16T07:03:55Z</time>
      </trkpt>
      <trkpt lat="39.3313220" lon="-0.7577720">
        <ele>490.0</ele>
        <time>2018-09-16T07:03:56Z</time>
      </trkpt>
      <trkpt lat="39.3313220" lon="-0.7577720">
        <ele>490.0</ele>
        <time>2018-09-16T07:03:57Z</time>
      </trkpt>
      <trkpt lat="39.3313470" lon="-0.7578700">
        <ele>490.0</ele>
        <time>2018-09-16T07:03:58Z</time>
      </trkpt>
      <trkpt lat="39.3313470" lon="-0.7578700">
        <ele>490.0</ele>
        <time>2018-09-16T07:03:59Z</time>
      </trkpt>
      <trkpt lat="39.3313680" lon="-0.7579700">
        <ele>490.0</ele>
        <time>2018-09-16T07:04:00Z</time>
      </trkpt>
      <trkpt lat="39.3313680" lon="-0.7579700">
        <ele>490.0</ele>
        <time>2018-09-16T07:04:01Z</time>
      </trkpt>
      <trkpt lat="39.3313800" lon="-0.7580750">
        <ele>490.0</ele>
        <time>2018-09-16T07:04:02Z</time>
      </trkpt>
      <trkpt lat="39.3313800" lon="-0.7580750">
        <ele>490.0</ele>
        <time>2018-09-16T07:04:03Z</time>
      </trkpt>
      <trkpt lat="39.3313920" lon="-0.7581770">
        <ele>490.0</ele>
        <time>2018-09-16T07:04:04Z</time>
      </trkpt>
      <trkpt lat="39.3313920" lon="-0.7581770">
        <ele>490.0</ele>
        <time>2018-09-16T07:04:05Z</time>
      </trkpt>
      <trkpt lat="39.3313980" lon="-0.7582750">
        <ele>490.0</ele>
        <time>2018-09-16T07:04:06Z</time>
      </trkpt>
      <trkpt lat="39.3313980" lon="-0.7582750">
        <ele>490.0</ele>
        <time>2018-09-16T07:04:07Z</time>
      </trkpt>
      <trkpt lat="39.3313970" lon="-0.7583770">
        <ele>490.0</ele>
        <time>2018-09-16T07:04:08Z</time>
      </trkpt>
      <trkpt lat="39.3313970" lon="-0.7583770">
        <ele>490.0</ele>
        <time>2018-09-16T07:04:09Z</time>
      </trkpt>
      <trkpt lat="39.3313950" lon="-0.7584780">
        <ele>490.0</ele>
        <time>2018-09-16T07:04:10Z</time>
      </trkpt>
      <trkpt lat="39.3313950" lon="-0.7584780">
        <ele>490.0</ele>
        <time>2018-09-16T07:04:11Z</time>
      </trkpt>
      <trkpt lat="39.3313930" lon="-0.7585750">
        <ele>490.0</ele>
        <time>2018-09-16T07:04:12Z</time>
      </trkpt>
      <trkpt lat="39.3313930" lon="-0.7585750">
        <ele>490.0</ele>
        <time>2018-09-16T07:04:13Z</time>
      </trkpt>
      <trkpt lat="39.3313930" lon="-0.7586700">
        <ele>490.0</ele>
        <time>2018-09-16T07:04:14Z</time>
      </trkpt>
      <trkpt lat="39.3313920" lon="-0.7587170">
        <ele>490.0</ele>
        <time>2018-09-16T07:04:15Z</time>
      </trkpt>
      <trkpt lat="39.3313920" lon="-0.7587170">
        <ele>490.0</ele>
        <time>2018-09-16T07:04:16Z</time>
      </trkpt>
      <trkpt lat="39.3313850" lon="-0.7588120">
        <ele>490.0</ele>
        <time>2018-09-16T07:04:17Z</time>
      </trkpt>
      <trkpt lat="39.3313830" lon="-0.7588580">
        <ele>490.0</ele>
        <time>2018-09-16T07:04:18Z</time>
      </trkpt>
      <trkpt lat="39.3313830" lon="-0.7588580">
        <ele>491.0</ele>
        <time>2018-09-16T07:04:19Z</time>
      </trkpt>
      <trkpt lat="39.3313830" lon="-0.7589450">
        <ele>491.0</ele>
        <time>2018-09-16T07:04:20Z</time>
      </trkpt>
      <trkpt lat="39.3313800" lon="-0.7589880">
        <ele>491.0</ele>
        <time>2018-09-16T07:04:21Z</time>
      </trkpt>
      <trkpt lat="39.3313780" lon="-0.7590320">
        <ele>491.0</ele>
        <time>2018-09-16T07:04:22Z</time>
      </trkpt>
      <trkpt lat="39.3313780" lon="-0.7590320">
        <ele>491.0</ele>
        <time>2018-09-16T07:04:23Z</time>
      </trkpt>
      <trkpt lat="39.3313900" lon="-0.7591200">
        <ele>491.0</ele>
        <time>2018-09-16T07:04:24Z</time>
      </trkpt>
      <trkpt lat="39.3313900" lon="-0.7591200">
        <ele>491.0</ele>
        <time>2018-09-16T07:04:25Z</time>
      </trkpt>
      <trkpt lat="39.3314300" lon="-0.7591980">
        <ele>491.0</ele>
        <time>2018-09-16T07:04:26Z</time>
      </trkpt>
      <trkpt lat="39.3314300" lon="-0.7591980">
        <ele>491.0</ele>
        <time>2018-09-16T07:04:27Z</time>
      </trkpt>
      <trkpt lat="39.3314700" lon="-0.7592850">
        <ele>491.0</ele>
        <time>2018-09-16T07:04:28Z</time>
      </trkpt>
      <trkpt lat="39.3314700" lon="-0.7592850">
        <ele>491.0</ele>
        <time>2018-09-16T07:04:29Z</time>
      </trkpt>
      <trkpt lat="39.3314900" lon="-0.7593830">
        <ele>491.0</ele>
        <time>2018-09-16T07:04:30Z</time>
      </trkpt>
      <trkpt lat="39.3314900" lon="-0.7593830">
        <ele>493.0</ele>
        <time>2018-09-16T07:04:31Z</time>
      </trkpt>
      <trkpt lat="39.3314880" lon="-0.7594770">
        <ele>493.0</ele>
        <time>2018-09-16T07:04:32Z</time>
      </trkpt>
      <trkpt lat="39.3314880" lon="-0.7594770">
        <ele>493.0</ele>
        <time>2018-09-16T07:04:33Z</time>
      </trkpt>
      <trkpt lat="39.3314770" lon="-0.7595620">
        <ele>493.0</ele>
        <time>2018-09-16T07:04:34Z</time>
      </trkpt>
      <trkpt lat="39.3314670" lon="-0.7596020">
        <ele>494.0</ele>
        <time>2018-09-16T07:04:35Z</time>
      </trkpt>
      <trkpt lat="39.3314670" lon="-0.7596020">
        <ele>494.0</ele>
        <time>2018-09-16T07:04:36Z</time>
      </trkpt>
      <trkpt lat="39.3314500" lon="-0.7596800">
        <ele>494.0</ele>
        <time>2018-09-16T07:04:37Z</time>
      </trkpt>
      <trkpt lat="39.3314500" lon="-0.7596800">
        <ele>494.0</ele>
        <time>2018-09-16T07:04:38Z</time>
      </trkpt>
      <trkpt lat="39.3314330" lon="-0.7597570">
        <ele>494.0</ele>
        <time>2018-09-16T07:04:39Z</time>
      </trkpt>
      <trkpt lat="39.3314270" lon="-0.7597980">
        <ele>495.0</ele>
        <time>2018-09-16T07:04:40Z</time>
      </trkpt>
      <trkpt lat="39.3314270" lon="-0.7597980">
        <ele>495.0</ele>
        <time>2018-09-16T07:04:41Z</time>
      </trkpt>
      <trkpt lat="39.3314170" lon="-0.7598830">
        <ele>495.0</ele>
        <time>2018-09-16T07:04:42Z</time>
      </trkpt>
      <trkpt lat="39.3314120" lon="-0.7599270">
        <ele>495.0</ele>
        <time>2018-09-16T07:04:43Z</time>
      </trkpt>
      <trkpt lat="39.3314120" lon="-0.7599270">
        <ele>495.0</ele>
        <time>2018-09-16T07:04:44Z</time>
      </trkpt>
      <trkpt lat="39.3314030" lon="-0.7600120">
        <ele>495.0</ele>
        <time>2018-09-16T07:04:45Z</time>
      </trkpt>
      <trkpt lat="39.3314030" lon="-0.7600120">
        <ele>495.0</ele>
        <time>2018-09-16T07:04:46Z</time>
      </trkpt>
      <trkpt lat="39.3313950" lon="-0.7600930">
        <ele>495.0</ele>
        <time>2018-09-16T07:04:47Z</time>
      </trkpt>
      <trkpt lat="39.3313920" lon="-0.7601350">
        <ele>495.0</ele>
        <time>2018-09-16T07:04:48Z</time>
      </trkpt>
      <trkpt lat="39.3313920" lon="-0.7601350">
        <ele>495.0</ele>
        <time>2018-09-16T07:04:49Z</time>
      </trkpt>
      <trkpt lat="39.3313880" lon="-0.7602170">
        <ele>495.0</ele>
        <time>2018-09-16T07:04:50Z</time>
      </trkpt>
      <trkpt lat="39.3313880" lon="-0.7602170">
        <ele>495.0</ele>
        <time>2018-09-16T07:04:51Z</time>
      </trkpt>
      <trkpt lat="39.3313780" lon="-0.7602920">
        <ele>495.0</ele>
        <time>2018-09-16T07:04:52Z</time>
      </trkpt>
      <trkpt lat="39.3313780" lon="-0.7602920">
        <ele>495.0</ele>
        <time>2018-09-16T07:04:53Z</time>
      </trkpt>
      <trkpt lat="39.3313650" lon="-0.7603600">
        <ele>495.0</ele>
        <time>2018-09-16T07:04:54Z</time>
      </trkpt>
      <trkpt lat="39.3313650" lon="-0.7603600">
        <ele>495.0</ele>
        <time>2018-09-16T07:04:55Z</time>
      </trkpt>
      <trkpt lat="39.3313530" lon="-0.7604270">
        <ele>495.0</ele>
        <time>2018-09-16T07:04:56Z</time>
      </trkpt>
      <trkpt lat="39.3313530" lon="-0.7604270">
        <ele>495.0</ele>
        <time>2018-09-16T07:04:57Z</time>
      </trkpt>
      <trkpt lat="39.3313380" lon="-0.7605020">
        <ele>496.0</ele>
        <time>2018-09-16T07:04:58Z</time>
      </trkpt>
      <trkpt lat="39.3313380" lon="-0.7605020">
        <ele>496.0</ele>
        <time>2018-09-16T07:04:59Z</time>
      </trkpt>
      <trkpt lat="39.3313220" lon="-0.7605770">
        <ele>496.0</ele>
        <time>2018-09-16T07:05:00Z</time>
      </trkpt>
      <trkpt lat="39.3313220" lon="-0.7605770">
        <ele>496.0</ele>
        <time>2018-09-16T07:05:01Z</time>
      </trkpt>
      <trkpt lat="39.3313020" lon="-0.7606480">
        <ele>496.0</ele>
        <time>2018-09-16T07:05:02Z</time>
      </trkpt>
      <trkpt lat="39.3313020" lon="-0.7606480">
        <ele>496.0</ele>
        <time>2018-09-16T07:05:03Z</time>
      </trkpt>
      <trkpt lat="39.3312880" lon="-0.7607270">
        <ele>496.0</ele>
        <time>2018-09-16T07:05:04Z</time>
      </trkpt>
      <trkpt lat="39.3312850" lon="-0.7607700">
        <ele>496.0</ele>
        <time>2018-09-16T07:05:05Z</time>
      </trkpt>
      <trkpt lat="39.3312850" lon="-0.7607700">
        <ele>496.0</ele>
        <time>2018-09-16T07:05:06Z</time>
      </trkpt>
      <trkpt lat="39.3312830" lon="-0.7608550">
        <ele>496.0</ele>
        <time>2018-09-16T07:05:07Z</time>
      </trkpt>
      <trkpt lat="39.3312850" lon="-0.7608970">
        <ele>496.0</ele>
        <time>2018-09-16T07:05:08Z</time>
      </trkpt>
      <trkpt lat="39.3312850" lon="-0.7608970">
        <ele>496.0</ele>
        <time>2018-09-16T07:05:09Z</time>
      </trkpt>
      <trkpt lat="39.3312920" lon="-0.7609780">
        <ele>496.0</ele>
        <time>2018-09-16T07:05:10Z</time>
      </trkpt>
      <trkpt lat="39.3312920" lon="-0.7609780">
        <ele>496.0</ele>
        <time>2018-09-16T07:05:11Z</time>
      </trkpt>
      <trkpt lat="39.3313020" lon="-0.7610550">
        <ele>496.0</ele>
        <time>2018-09-16T07:05:12Z</time>
      </trkpt>
      <trkpt lat="39.3313020" lon="-0.7610550">
        <ele>496.0</ele>
        <time>2018-09-16T07:05:13Z</time>
      </trkpt>
      <trkpt lat="39.3313130" lon="-0.7611380">
        <ele>496.0</ele>
        <time>2018-09-16T07:05:14Z</time>
      </trkpt>
      <trkpt lat="39.3313130" lon="-0.7611380">
        <ele>496.0</ele>
        <time>2018-09-16T07:05:15Z</time>
      </trkpt>
      <trkpt lat="39.3313270" lon="-0.7612230">
        <ele>497.0</ele>
        <time>2018-09-16T07:05:16Z</time>
      </trkpt>
      <trkpt lat="39.3313320" lon="-0.7612670">
        <ele>497.0</ele>
        <time>2018-09-16T07:05:17Z</time>
      </trkpt>
      <trkpt lat="39.3313350" lon="-0.7613100">
        <ele>497.0</ele>
        <time>2018-09-16T07:05:18Z</time>
      </trkpt>
      <trkpt lat="39.3313350" lon="-0.7613100">
        <ele>497.0</ele>
        <time>2018-09-16T07:05:19Z</time>
      </trkpt>
      <trkpt lat="39.3313300" lon="-0.7614050">
        <ele>498.0</ele>
        <time>2018-09-16T07:05:20Z</time>
      </trkpt>
      <trkpt lat="39.3313270" lon="-0.7614530">
        <ele>498.0</ele>
        <time>2018-09-16T07:05:21Z</time>
      </trkpt>
      <trkpt lat="39.3313270" lon="-0.7614530">
        <ele>498.0</ele>
        <time>2018-09-16T07:05:22Z</time>
      </trkpt>
      <trkpt lat="39.3313130" lon="-0.7615670">
        <ele>498.0</ele>
        <time>2018-09-16T07:05:23Z</time>
      </trkpt>
      <trkpt lat="39.3313080" lon="-0.7616300">
        <ele>498.0</ele>
        <time>2018-09-16T07:05:24Z</time>
      </trkpt>
      <trkpt lat="39.3313080" lon="-0.7616300">
        <ele>498.0</ele>
        <time>2018-09-16T07:05:25Z</time>
      </trkpt>
      <trkpt lat="39.3312950" lon="-0.7617570">
        <ele>498.0</ele>
        <time>2018-09-16T07:05:26Z</time>
      </trkpt>
      <trkpt lat="39.3312820" lon="-0.7618170">
        <ele>498.0</ele>
        <time>2018-09-16T07:05:27Z</time>
      </trkpt>
      <trkpt lat="39.3312820" lon="-0.7618170">
        <ele>498.0</ele>
        <time>2018-09-16T07:05:28Z</time>
      </trkpt>
      <trkpt lat="39.3312500" lon="-0.7619280">
        <ele>498.0</ele>
        <time>2018-09-16T07:05:29Z</time>
      </trkpt>
      <trkpt lat="39.3312300" lon="-0.7619830">
        <ele>498.0</ele>
        <time>2018-09-16T07:05:30Z</time>
      </trkpt>
      <trkpt lat="39.3312300" lon="-0.7619830">
        <ele>498.0</ele>
        <time>2018-09-16T07:05:31Z</time>
      </trkpt>
      <trkpt lat="39.3311880" lon="-0.7621020">
        <ele>498.0</ele>
        <time>2018-09-16T07:05:32Z</time>
      </trkpt>
      <trkpt lat="39.3311630" lon="-0.7621630">
        <ele>498.0</ele>
        <time>2018-09-16T07:05:33Z</time>
      </trkpt>
      <trkpt lat="39.3311630" lon="-0.7621630">
        <ele>497.0</ele>
        <time>2018-09-16T07:05:34Z</time>
      </trkpt>
      <trkpt lat="39.3311050" lon="-0.7622900">
        <ele>497.0</ele>
        <time>2018-09-16T07:05:35Z</time>
      </trkpt>
      <trkpt lat="39.3310770" lon="-0.7623580">
        <ele>497.0</ele>
        <time>2018-09-16T07:05:36Z</time>
      </trkpt>
      <trkpt lat="39.3310770" lon="-0.7623580">
        <ele>497.0</ele>
        <time>2018-09-16T07:05:37Z</time>
      </trkpt>
      <trkpt lat="39.3310250" lon="-0.7624950">
        <ele>497.0</ele>
        <time>2018-09-16T07:05:38Z</time>
      </trkpt>
      <trkpt lat="39.3310250" lon="-0.7624950">
        <ele>496.0</ele>
        <time>2018-09-16T07:05:39Z</time>
      </trkpt>
      <trkpt lat="39.3309800" lon="-0.7626320">
        <ele>496.0</ele>
        <time>2018-09-16T07:05:40Z</time>
      </trkpt>
      <trkpt lat="39.3309800" lon="-0.7626320">
        <ele>496.0</ele>
        <time>2018-09-16T07:05:41Z</time>
      </trkpt>
      <trkpt lat="39.3309450" lon="-0.7627670">
        <ele>496.0</ele>
        <time>2018-09-16T07:05:42Z</time>
      </trkpt>
      <trkpt lat="39.3309450" lon="-0.7627670">
        <ele>495.0</ele>
        <time>2018-09-16T07:05:43Z</time>
      </trkpt>
      <trkpt lat="39.3309270" lon="-0.7629170">
        <ele>495.0</ele>
        <time>2018-09-16T07:05:44Z</time>
      </trkpt>
      <trkpt lat="39.3309180" lon="-0.7629930">
        <ele>495.0</ele>
        <time>2018-09-16T07:05:45Z</time>
      </trkpt>
      <trkpt lat="39.3309180" lon="-0.7629930">
        <ele>495.0</ele>
        <time>2018-09-16T07:05:46Z</time>
      </trkpt>
      <trkpt lat="39.3309130" lon="-0.7631480">
        <ele>494.0</ele>
        <time>2018-09-16T07:05:47Z</time>
      </trkpt>
      <trkpt lat="39.3309130" lon="-0.7631480">
        <ele>494.0</ele>
        <time>2018-09-16T07:05:48Z</time>
      </trkpt>
      <trkpt lat="39.3309120" lon="-0.7633100">
        <ele>494.0</ele>
        <time>2018-09-16T07:05:49Z</time>
      </trkpt>
      <trkpt lat="39.3309120" lon="-0.7633100">
        <ele>494.0</ele>
        <time>2018-09-16T07:05:50Z</time>
      </trkpt>
      <trkpt lat="39.3308980" lon="-0.7634800">
        <ele>493.0</ele>
        <time>2018-09-16T07:05:51Z</time>
      </trkpt>
      <trkpt lat="39.3308870" lon="-0.7635630">
        <ele>493.0</ele>
        <time>2018-09-16T07:05:52Z</time>
      </trkpt>
      <trkpt lat="39.3308870" lon="-0.7635630">
        <ele>493.0</ele>
        <time>2018-09-16T07:05:53Z</time>
      </trkpt>
      <trkpt lat="39.3308570" lon="-0.7637300">
        <ele>493.0</ele>
        <time>2018-09-16T07:05:54Z</time>
      </trkpt>
      <trkpt lat="39.3308570" lon="-0.7637300">
        <ele>492.0</ele>
        <time>2018-09-16T07:05:55Z</time>
      </trkpt>
      <trkpt lat="39.3308330" lon="-0.7639000">
        <ele>492.0</ele>
        <time>2018-09-16T07:05:56Z</time>
      </trkpt>
      <trkpt lat="39.3308330" lon="-0.7639000">
        <ele>491.0</ele>
        <time>2018-09-16T07:05:57Z</time>
      </trkpt>
      <trkpt lat="39.3308120" lon="-0.7640800">
        <ele>491.0</ele>
        <time>2018-09-16T07:05:58Z</time>
      </trkpt>
      <trkpt lat="39.3308120" lon="-0.7640800">
        <ele>490.0</ele>
        <time>2018-09-16T07:05:59Z</time>
      </trkpt>
      <trkpt lat="39.3307900" lon="-0.7642630">
        <ele>490.0</ele>
        <time>2018-09-16T07:06:00Z</time>
      </trkpt>
      <trkpt lat="39.3307900" lon="-0.7642630">
        <ele>489.0</ele>
        <time>2018-09-16T07:06:01Z</time>
      </trkpt>
      <trkpt lat="39.3307750" lon="-0.7644180">
        <ele>489.0</ele>
        <time>2018-09-16T07:06:02Z</time>
      </trkpt>
      <trkpt lat="39.3307620" lon="-0.7644930">
        <ele>488.0</ele>
        <time>2018-09-16T07:06:03Z</time>
      </trkpt>
      <trkpt lat="39.3307620" lon="-0.7644930">
        <ele>488.0</ele>
        <time>2018-09-16T07:06:04Z</time>
      </trkpt>
      <trkpt lat="39.3307180" lon="-0.7646330">
        <ele>488.0</ele>
        <time>2018-09-16T07:06:05Z</time>
      </trkpt>
      <trkpt lat="39.3306920" lon="-0.7646980">
        <ele>488.0</ele>
        <time>2018-09-16T07:06:06Z</time>
      </trkpt>
      <trkpt lat="39.3306920" lon="-0.7646980">
        <ele>487.0</ele>
        <time>2018-09-16T07:06:07Z</time>
      </trkpt>
      <trkpt lat="39.3306380" lon="-0.7648270">
        <ele>486.0</ele>
        <time>2018-09-16T07:06:08Z</time>
      </trkpt>
      <trkpt lat="39.3306380" lon="-0.7648270">
        <ele>486.0</ele>
        <time>2018-09-16T07:06:09Z</time>
      </trkpt>
      <trkpt lat="39.3306030" lon="-0.7649480">
        <ele>486.0</ele>
        <time>2018-09-16T07:06:10Z</time>
      </trkpt>
      <trkpt lat="39.3306030" lon="-0.7649480">
        <ele>486.0</ele>
        <time>2018-09-16T07:06:11Z</time>
      </trkpt>
      <trkpt lat="39.3305870" lon="-0.7650420">
        <ele>485.0</ele>
        <time>2018-09-16T07:06:12Z</time>
      </trkpt>
      <trkpt lat="39.3305870" lon="-0.7650420">
        <ele>485.0</ele>
        <time>2018-09-16T07:06:13Z</time>
      </trkpt>
      <trkpt lat="39.3305920" lon="-0.7651220">
        <ele>485.0</ele>
        <time>2018-09-16T07:06:14Z</time>
      </trkpt>
      <trkpt lat="39.3306020" lon="-0.7651620">
        <ele>485.0</ele>
        <time>2018-09-16T07:06:15Z</time>
      </trkpt>
      <trkpt lat="39.3306020" lon="-0.7651620">
        <ele>485.0</ele>
        <time>2018-09-16T07:06:16Z</time>
      </trkpt>
      <trkpt lat="39.3306100" lon="-0.7652420">
        <ele>485.0</ele>
        <time>2018-09-16T07:06:17Z</time>
      </trkpt>
      <trkpt lat="39.3306000" lon="-0.7652870">
        <ele>485.0</ele>
        <time>2018-09-16T07:06:18Z</time>
      </trkpt>
      <trkpt lat="39.3306000" lon="-0.7652870">
        <ele>485.0</ele>
        <time>2018-09-16T07:06:19Z</time>
      </trkpt>
      <trkpt lat="39.3305720" lon="-0.7653730">
        <ele>485.0</ele>
        <time>2018-09-16T07:06:20Z</time>
      </trkpt>
      <trkpt lat="39.3305720" lon="-0.7653730">
        <ele>485.0</ele>
        <time>2018-09-16T07:06:21Z</time>
      </trkpt>
      <trkpt lat="39.3305330" lon="-0.7654480">
        <ele>485.0</ele>
        <time>2018-09-16T07:06:22Z</time>
      </trkpt>
      <trkpt lat="39.3305330" lon="-0.7654480">
        <ele>485.0</ele>
        <time>2018-09-16T07:06:23Z</time>
      </trkpt>
      <trkpt lat="39.3305030" lon="-0.7655320">
        <ele>485.0</ele>
        <time>2018-09-16T07:06:24Z</time>
      </trkpt>
      <trkpt lat="39.3305030" lon="-0.7655320">
        <ele>485.0</ele>
        <time>2018-09-16T07:06:25Z</time>
      </trkpt>
      <trkpt lat="39.3304800" lon="-0.7656180">
        <ele>485.0</ele>
        <time>2018-09-16T07:06:26Z</time>
      </trkpt>
      <trkpt lat="39.3304800" lon="-0.7656180">
        <ele>485.0</ele>
        <time>2018-09-16T07:06:27Z</time>
      </trkpt>
      <trkpt lat="39.3304570" lon="-0.7657100">
        <ele>486.0</ele>
        <time>2018-09-16T07:06:28Z</time>
      </trkpt>
      <trkpt lat="39.3304500" lon="-0.7657580">
        <ele>486.0</ele>
        <time>2018-09-16T07:06:29Z</time>
      </trkpt>
      <trkpt lat="39.3304430" lon="-0.7658070">
        <ele>486.0</ele>
        <time>2018-09-16T07:06:30Z</time>
      </trkpt>
      <trkpt lat="39.3304430" lon="-0.7658070">
        <ele>486.0</ele>
        <time>2018-09-16T07:06:31Z</time>
      </trkpt>
      <trkpt lat="39.3304330" lon="-0.7659050">
        <ele>486.0</ele>
        <time>2018-09-16T07:06:32Z</time>
      </trkpt>
      <trkpt lat="39.3304330" lon="-0.7659050">
        <ele>486.0</ele>
        <time>2018-09-16T07:06:33Z</time>
      </trkpt>
      <trkpt lat="39.3304300" lon="-0.7660020">
        <ele>486.0</ele>
        <time>2018-09-16T07:06:34Z</time>
      </trkpt>
      <trkpt lat="39.3304320" lon="-0.7660520">
        <ele>486.0</ele>
        <time>2018-09-16T07:06:35Z</time>
      </trkpt>
      <trkpt lat="39.3304320" lon="-0.7660520">
        <ele>486.0</ele>
        <time>2018-09-16T07:06:36Z</time>
      </trkpt>
      <trkpt lat="39.3304420" lon="-0.7661520">
        <ele>486.0</ele>
        <time>2018-09-16T07:06:37Z</time>
      </trkpt>
      <trkpt lat="39.3304470" lon="-0.7662020">
        <ele>486.0</ele>
        <time>2018-09-16T07:06:38Z</time>
      </trkpt>
      <trkpt lat="39.3304470" lon="-0.7662020">
        <ele>487.0</ele>
        <time>2018-09-16T07:06:39Z</time>
      </trkpt>
      <trkpt lat="39.3304600" lon="-0.7663030">
        <ele>487.0</ele>
        <time>2018-09-16T07:06:40Z</time>
      </trkpt>
      <trkpt lat="39.3304600" lon="-0.7663030">
        <ele>487.0</ele>
        <time>2018-09-16T07:06:41Z</time>
      </trkpt>
      <trkpt lat="39.3304820" lon="-0.7664020">
        <ele>487.0</ele>
        <time>2018-09-16T07:06:42Z</time>
      </trkpt>
      <trkpt lat="39.3304820" lon="-0.7664020">
        <ele>487.0</ele>
        <time>2018-09-16T07:06:43Z</time>
      </trkpt>
      <trkpt lat="39.3305080" lon="-0.7665000">
        <ele>487.0</ele>
        <time>2018-09-16T07:06:44Z</time>
      </trkpt>
      <trkpt lat="39.3305170" lon="-0.7665500">
        <ele>487.0</ele>
        <time>2018-09-16T07:06:45Z</time>
      </trkpt>
      <trkpt lat="39.3305170" lon="-0.7665500">
        <ele>487.0</ele>
        <time>2018-09-16T07:06:46Z</time>
      </trkpt>
      <trkpt lat="39.3305280" lon="-0.7666480">
        <ele>487.0</ele>
        <time>2018-09-16T07:06:47Z</time>
      </trkpt>
      <trkpt lat="39.3305350" lon="-0.7666970">
        <ele>487.0</ele>
        <time>2018-09-16T07:06:48Z</time>
      </trkpt>
      <trkpt lat="39.3305350" lon="-0.7666970">
        <ele>487.0</ele>
        <time>2018-09-16T07:06:49Z</time>
      </trkpt>
      <trkpt lat="39.3305500" lon="-0.7667870">
        <ele>487.0</ele>
        <time>2018-09-16T07:06:50Z</time>
      </trkpt>
      <trkpt lat="39.3305570" lon="-0.7668320">
        <ele>487.0</ele>
        <time>2018-09-16T07:06:51Z</time>
      </trkpt>
      <trkpt lat="39.3305570" lon="-0.7668320">
        <ele>487.0</ele>
        <time>2018-09-16T07:06:52Z</time>
      </trkpt>
      <trkpt lat="39.3305630" lon="-0.7669180">
        <ele>488.0</ele>
        <time>2018-09-16T07:06:53Z</time>
      </trkpt>
      <trkpt lat="39.3305630" lon="-0.7669180">
        <ele>488.0</ele>
        <time>2018-09-16T07:06:54Z</time>
      </trkpt>
      <trkpt lat="39.3305630" lon="-0.7669920">
        <ele>488.0</ele>
        <time>2018-09-16T07:06:55Z</time>
      </trkpt>
      <trkpt lat="39.3305630" lon="-0.7669920">
        <ele>488.0</ele>
        <time>2018-09-16T07:06:56Z</time>
      </trkpt>
      <trkpt lat="39.3305600" lon="-0.7670650">
        <ele>489.0</ele>
        <time>2018-09-16T07:06:57Z</time>
      </trkpt>
      <trkpt lat="39.3305600" lon="-0.7670650">
        <ele>489.0</ele>
        <time>2018-09-16T07:06:58Z</time>
      </trkpt>
      <trkpt lat="39.3305550" lon="-0.7671400">
        <ele>489.0</ele>
        <time>2018-09-16T07:06:59Z</time>
      </trkpt>
      <trkpt lat="39.3305500" lon="-0.7671780">
        <ele>489.0</ele>
        <time>2018-09-16T07:07:00Z</time>
      </trkpt>
      <trkpt lat="39.3305500" lon="-0.7671780">
        <ele>489.0</ele>
        <time>2018-09-16T07:07:01Z</time>
      </trkpt>
      <trkpt lat="39.3305380" lon="-0.7672500">
        <ele>489.0</ele>
        <time>2018-09-16T07:07:02Z</time>
      </trkpt>
      <trkpt lat="39.3305400" lon="-0.7672830">
        <ele>490.0</ele>
        <time>2018-09-16T07:07:03Z</time>
      </trkpt>
      <trkpt lat="39.3305430" lon="-0.7673180">
        <ele>490.0</ele>
        <time>2018-09-16T07:07:04Z</time>
      </trkpt>
      <trkpt lat="39.3305430" lon="-0.7673180">
        <ele>490.0</ele>
        <time>2018-09-16T07:07:05Z</time>
      </trkpt>
      <trkpt lat="39.3305450" lon="-0.7673920">
        <ele>490.0</ele>
        <time>2018-09-16T07:07:06Z</time>
      </trkpt>
      <trkpt lat="39.3305450" lon="-0.7673920">
        <ele>490.0</ele>
        <time>2018-09-16T07:07:07Z</time>
      </trkpt>
      <trkpt lat="39.3305420" lon="-0.7674650">
        <ele>490.0</ele>
        <time>2018-09-16T07:07:08Z</time>
      </trkpt>
      <trkpt lat="39.3305420" lon="-0.7674650">
        <ele>490.0</ele>
        <time>2018-09-16T07:07:09Z</time>
      </trkpt>
      <trkpt lat="39.3305380" lon="-0.7675380">
        <ele>490.0</ele>
        <time>2018-09-16T07:07:10Z</time>
      </trkpt>
      <trkpt lat="39.3305380" lon="-0.7675380">
        <ele>490.0</ele>
        <time>2018-09-16T07:07:11Z</time>
      </trkpt>
      <trkpt lat="39.3305320" lon="-0.7676130">
        <ele>491.0</ele>
        <time>2018-09-16T07:07:12Z</time>
      </trkpt>
      <trkpt lat="39.3305320" lon="-0.7676130">
        <ele>491.0</ele>
        <time>2018-09-16T07:07:13Z</time>
      </trkpt>
      <trkpt lat="39.3305170" lon="-0.7676850">
        <ele>491.0</ele>
        <time>2018-09-16T07:07:14Z</time>
      </trkpt>
      <trkpt lat="39.3305170" lon="-0.7676850">
        <ele>491.0</ele>
        <time>2018-09-16T07:07:15Z</time>
      </trkpt>
      <trkpt lat="39.3304980" lon="-0.7677520">
        <ele>491.0</ele>
        <time>2018-09-16T07:07:16Z</time>
      </trkpt>
      <trkpt lat="39.3304980" lon="-0.7677520">
        <ele>491.0</ele>
        <time>2018-09-16T07:07:17Z</time>
      </trkpt>
      <trkpt lat="39.3304820" lon="-0.7678200">
        <ele>491.0</ele>
        <time>2018-09-16T07:07:18Z</time>
      </trkpt>
      <trkpt lat="39.3304820" lon="-0.7678200">
        <ele>491.0</ele>
        <time>2018-09-16T07:07:19Z</time>
      </trkpt>
      <trkpt lat="39.3304550" lon="-0.7678850">
        <ele>491.0</ele>
        <time>2018-09-16T07:07:20Z</time>
      </trkpt>
      <trkpt lat="39.3304550" lon="-0.7678850">
        <ele>491.0</ele>
        <time>2018-09-16T07:07:21Z</time>
      </trkpt>
      <trkpt lat="39.3304350" lon="-0.7679400">
        <ele>491.0</ele>
        <time>2018-09-16T07:07:22Z</time>
      </trkpt>
      <trkpt lat="39.3304270" lon="-0.7679650">
        <ele>491.0</ele>
        <time>2018-09-16T07:07:23Z</time>
      </trkpt>
      <trkpt lat="39.3304170" lon="-0.7679880">
        <ele>491.0</ele>
        <time>2018-09-16T07:07:24Z</time>
      </trkpt>
      <trkpt lat="39.3304050" lon="-0.7680130">
        <ele>491.0</ele>
        <time>2018-09-16T07:07:25Z</time>
      </trkpt>
      <trkpt lat="39.3303920" lon="-0.7680380">
        <ele>491.0</ele>
        <time>2018-09-16T07:07:26Z</time>
      </trkpt>
      <trkpt lat="39.3303920" lon="-0.7680380">
        <ele>491.0</ele>
        <time>2018-09-16T07:07:27Z</time>
      </trkpt>
      <trkpt lat="39.3303620" lon="-0.7680900">
        <ele>492.0</ele>
        <time>2018-09-16T07:07:28Z</time>
      </trkpt>
      <trkpt lat="39.3303620" lon="-0.7680900">
        <ele>492.0</ele>
        <time>2018-09-16T07:07:29Z</time>
      </trkpt>
      <trkpt lat="39.3303300" lon="-0.7681380">
        <ele>492.0</ele>
        <time>2018-09-16T07:07:30Z</time>
      </trkpt>
      <trkpt lat="39.3303300" lon="-0.7681380">
        <ele>492.0</ele>
        <time>2018-09-16T07:07:31Z</time>
      </trkpt>
      <trkpt lat="39.3302920" lon="-0.7681800">
        <ele>492.0</ele>
        <time>2018-09-16T07:07:32Z</time>
      </trkpt>
      <trkpt lat="39.3302730" lon="-0.7681980">
        <ele>492.0</ele>
        <time>2018-09-16T07:07:33Z</time>
      </trkpt>
      <trkpt lat="39.3302730" lon="-0.7681980">
        <ele>493.0</ele>
        <time>2018-09-16T07:07:34Z</time>
      </trkpt>
      <trkpt lat="39.3302300" lon="-0.7682180">
        <ele>493.0</ele>
        <time>2018-09-16T07:07:35Z</time>
      </trkpt>
      <trkpt lat="39.3302070" lon="-0.7682320">
        <ele>493.0</ele>
        <time>2018-09-16T07:07:36Z</time>
      </trkpt>
      <trkpt lat="39.3302070" lon="-0.7682320">
        <ele>494.0</ele>
        <time>2018-09-16T07:07:37Z</time>
      </trkpt>
      <trkpt lat="39.3301650" lon="-0.7682720">
        <ele>494.0</ele>
        <time>2018-09-16T07:07:38Z</time>
      </trkpt>
      <trkpt lat="39.3301650" lon="-0.7682720">
        <ele>494.0</ele>
        <time>2018-09-16T07:07:39Z</time>
      </trkpt>
      <trkpt lat="39.3301270" lon="-0.7683170">
        <ele>494.0</ele>
        <time>2018-09-16T07:07:40Z</time>
      </trkpt>
      <trkpt lat="39.3301070" lon="-0.7683370">
        <ele>495.0</ele>
        <time>2018-09-16T07:07:41Z</time>
      </trkpt>
      <trkpt lat="39.3301070" lon="-0.7683370">
        <ele>495.0</ele>
        <time>2018-09-16T07:07:42Z</time>
      </trkpt>
      <trkpt lat="39.3300670" lon="-0.7683800">
        <ele>495.0</ele>
        <time>2018-09-16T07:07:43Z</time>
      </trkpt>
      <trkpt lat="39.3300670" lon="-0.7683800">
        <ele>495.0</ele>
        <time>2018-09-16T07:07:44Z</time>
      </trkpt>
      <trkpt lat="39.3300330" lon="-0.7684270">
        <ele>496.0</ele>
        <time>2018-09-16T07:07:45Z</time>
      </trkpt>
      <trkpt lat="39.3300330" lon="-0.7684270">
        <ele>496.0</ele>
        <time>2018-09-16T07:07:46Z</time>
      </trkpt>
      <trkpt lat="39.3300120" lon="-0.7684820">
        <ele>496.0</ele>
        <time>2018-09-16T07:07:47Z</time>
      </trkpt>
      <trkpt lat="39.3300120" lon="-0.7684820">
        <ele>496.0</ele>
        <time>2018-09-16T07:07:48Z</time>
      </trkpt>
      <trkpt lat="39.3300030" lon="-0.7685520">
        <ele>497.0</ele>
        <time>2018-09-16T07:07:49Z</time>
      </trkpt>
      <trkpt lat="39.3299980" lon="-0.7685870">
        <ele>497.0</ele>
        <time>2018-09-16T07:07:50Z</time>
      </trkpt>
      <trkpt lat="39.3299920" lon="-0.7686180">
        <ele>497.0</ele>
        <time>2018-09-16T07:07:51Z</time>
      </trkpt>
      <trkpt lat="39.3299920" lon="-0.7686180">
        <ele>497.0</ele>
        <time>2018-09-16T07:07:52Z</time>
      </trkpt>
      <trkpt lat="39.3299730" lon="-0.7686750">
        <ele>497.0</ele>
        <time>2018-09-16T07:07:53Z</time>
      </trkpt>
      <trkpt lat="39.3299620" lon="-0.7687030">
        <ele>497.0</ele>
        <time>2018-09-16T07:07:54Z</time>
      </trkpt>
      <trkpt lat="39.3299620" lon="-0.7687030">
        <ele>498.0</ele>
        <time>2018-09-16T07:07:55Z</time>
      </trkpt>
      <trkpt lat="39.3299320" lon="-0.7687580">
        <ele>498.0</ele>
        <time>2018-09-16T07:07:56Z</time>
      </trkpt>
      <trkpt lat="39.3299150" lon="-0.7687820">
        <ele>498.0</ele>
        <time>2018-09-16T07:07:57Z</time>
      </trkpt>
      <trkpt lat="39.3299150" lon="-0.7687820">
        <ele>498.0</ele>
        <time>2018-09-16T07:07:58Z</time>
      </trkpt>
      <trkpt lat="39.3298820" lon="-0.7688220">
        <ele>498.0</ele>
        <time>2018-09-16T07:07:59Z</time>
      </trkpt>
      <trkpt lat="39.3298650" lon="-0.7688380">
        <ele>499.0</ele>
        <time>2018-09-16T07:08:00Z</time>
      </trkpt>
      <trkpt lat="39.3298650" lon="-0.7688380">
        <ele>499.0</ele>
        <time>2018-09-16T07:08:01Z</time>
      </trkpt>
      <trkpt lat="39.3298280" lon="-0.7688700">
        <ele>499.0</ele>
        <time>2018-09-16T07:08:02Z</time>
      </trkpt>
      <trkpt lat="39.3298280" lon="-0.7688700">
        <ele>499.0</ele>
        <time>2018-09-16T07:08:03Z</time>
      </trkpt>
      <trkpt lat="39.3297880" lon="-0.7688920">
        <ele>499.0</ele>
        <time>2018-09-16T07:08:04Z</time>
      </trkpt>
      <trkpt lat="39.3297670" lon="-0.7689020">
        <ele>499.0</ele>
        <time>2018-09-16T07:08:05Z</time>
      </trkpt>
      <trkpt lat="39.3297450" lon="-0.7689080">
        <ele>499.0</ele>
        <time>2018-09-16T07:08:06Z</time>
      </trkpt>
      <trkpt lat="39.3297220" lon="-0.7689130">
        <ele>499.0</ele>
        <time>2018-09-16T07:08:07Z</time>
      </trkpt>
      <trkpt lat="39.3296980" lon="-0.7689150">
        <ele>500.0</ele>
        <time>2018-09-16T07:08:08Z</time>
      </trkpt>
      <trkpt lat="39.3296980" lon="-0.7689150">
        <ele>500.0</ele>
        <time>2018-09-16T07:08:09Z</time>
      </trkpt>
      <trkpt lat="39.3296550" lon="-0.7689170">
        <ele>500.0</ele>
        <time>2018-09-16T07:08:10Z</time>
      </trkpt>
      <trkpt lat="39.3296300" lon="-0.7689180">
        <ele>500.0</ele>
        <time>2018-09-16T07:08:11Z</time>
      </trkpt>
      <trkpt lat="39.3296030" lon="-0.7689180">
        <ele>500.0</ele>
        <time>2018-09-16T07:08:12Z</time>
      </trkpt>
      <trkpt lat="39.3296030" lon="-0.7689180">
        <ele>500.0</ele>
        <time>2018-09-16T07:08:13Z</time>
      </trkpt>
      <trkpt lat="39.3295530" lon="-0.7689170">
        <ele>500.0</ele>
        <time>2018-09-16T07:08:14Z</time>
      </trkpt>
      <trkpt lat="39.3295250" lon="-0.7689130">
        <ele>500.0</ele>
        <time>2018-09-16T07:08:15Z</time>
      </trkpt>
      <trkpt lat="39.3295250" lon="-0.7689130">
        <ele>500.0</ele>
        <time>2018-09-16T07:08:16Z</time>
      </trkpt>
      <trkpt lat="39.3294720" lon="-0.7689100">
        <ele>500.0</ele>
        <time>2018-09-16T07:08:17Z</time>
      </trkpt>
      <trkpt lat="39.3294480" lon="-0.7689180">
        <ele>500.0</ele>
        <time>2018-09-16T07:08:18Z</time>
      </trkpt>
      <trkpt lat="39.3294480" lon="-0.7689180">
        <ele>500.0</ele>
        <time>2018-09-16T07:08:19Z</time>
      </trkpt>
      <trkpt lat="39.3294050" lon="-0.7689480">
        <ele>500.0</ele>
        <time>2018-09-16T07:08:20Z</time>
      </trkpt>
      <trkpt lat="39.3293900" lon="-0.7689700">
        <ele>500.0</ele>
        <time>2018-09-16T07:08:21Z</time>
      </trkpt>
      <trkpt lat="39.3293900" lon="-0.7689700">
        <ele>500.0</ele>
        <time>2018-09-16T07:08:22Z</time>
      </trkpt>
      <trkpt lat="39.3293700" lon="-0.7690230">
        <ele>501.0</ele>
        <time>2018-09-16T07:08:23Z</time>
      </trkpt>
      <trkpt lat="39.3293600" lon="-0.7690480">
        <ele>501.0</ele>
        <time>2018-09-16T07:08:24Z</time>
      </trkpt>
      <trkpt lat="39.3293600" lon="-0.7690480">
        <ele>501.0</ele>
        <time>2018-09-16T07:08:25Z</time>
      </trkpt>
      <trkpt lat="39.3293430" lon="-0.7691050">
        <ele>501.0</ele>
        <time>2018-09-16T07:08:26Z</time>
      </trkpt>
      <trkpt lat="39.3293430" lon="-0.7691050">
        <ele>501.0</ele>
        <time>2018-09-16T07:08:27Z</time>
      </trkpt>
      <trkpt lat="39.3293220" lon="-0.7691580">
        <ele>501.0</ele>
        <time>2018-09-16T07:08:28Z</time>
      </trkpt>
      <trkpt lat="39.3293220" lon="-0.7691580">
        <ele>501.0</ele>
        <time>2018-09-16T07:08:29Z</time>
      </trkpt>
      <trkpt lat="39.3293030" lon="-0.7692130">
        <ele>501.0</ele>
        <time>2018-09-16T07:08:30Z</time>
      </trkpt>
      <trkpt lat="39.3293030" lon="-0.7692130">
        <ele>502.0</ele>
        <time>2018-09-16T07:08:31Z</time>
      </trkpt>
      <trkpt lat="39.3292880" lon="-0.7692720">
        <ele>502.0</ele>
        <time>2018-09-16T07:08:32Z</time>
      </trkpt>
      <trkpt lat="39.3292770" lon="-0.7693000">
        <ele>502.0</ele>
        <time>2018-09-16T07:08:33Z</time>
      </trkpt>
      <trkpt lat="39.3292770" lon="-0.7693000">
        <ele>502.0</ele>
        <time>2018-09-16T07:08:34Z</time>
      </trkpt>
      <trkpt lat="39.3292570" lon="-0.7693600">
        <ele>502.0</ele>
        <time>2018-09-16T07:08:35Z</time>
      </trkpt>
      <trkpt lat="39.3292470" lon="-0.7693880">
        <ele>502.0</ele>
        <time>2018-09-16T07:08:36Z</time>
      </trkpt>
      <trkpt lat="39.3292470" lon="-0.7693880">
        <ele>502.0</ele>
        <time>2018-09-16T07:08:37Z</time>
      </trkpt>
      <trkpt lat="39.3292280" lon="-0.7694470">
        <ele>502.0</ele>
        <time>2018-09-16T07:08:38Z</time>
      </trkpt>
      <trkpt lat="39.3292280" lon="-0.7694470">
        <ele>502.0</ele>
        <time>2018-09-16T07:08:39Z</time>
      </trkpt>
      <trkpt lat="39.3292120" lon="-0.7695070">
        <ele>502.0</ele>
        <time>2018-09-16T07:08:40Z</time>
      </trkpt>
      <trkpt lat="39.3292120" lon="-0.7695070">
        <ele>502.0</ele>
        <time>2018-09-16T07:08:41Z</time>
      </trkpt>
      <trkpt lat="39.3291930" lon="-0.7695600">
        <ele>503.0</ele>
        <time>2018-09-16T07:08:42Z</time>
      </trkpt>
      <trkpt lat="39.3291930" lon="-0.7695600">
        <ele>503.0</ele>
        <time>2018-09-16T07:08:43Z</time>
      </trkpt>
      <trkpt lat="39.3291750" lon="-0.7696150">
        <ele>503.0</ele>
        <time>2018-09-16T07:08:44Z</time>
      </trkpt>
      <trkpt lat="39.3291750" lon="-0.7696150">
        <ele>503.0</ele>
        <time>2018-09-16T07:08:45Z</time>
      </trkpt>
      <trkpt lat="39.3291530" lon="-0.7696780">
        <ele>503.0</ele>
        <time>2018-09-16T07:08:46Z</time>
      </trkpt>
      <trkpt lat="39.3291530" lon="-0.7696780">
        <ele>503.0</ele>
        <time>2018-09-16T07:08:47Z</time>
      </trkpt>
      <trkpt lat="39.3291320" lon="-0.7697450">
        <ele>503.0</ele>
        <time>2018-09-16T07:08:48Z</time>
      </trkpt>
      <trkpt lat="39.3291320" lon="-0.7697450">
        <ele>503.0</ele>
        <time>2018-09-16T07:08:49Z</time>
      </trkpt>
      <trkpt lat="39.3291080" lon="-0.7698100">
        <ele>503.0</ele>
        <time>2018-09-16T07:08:50Z</time>
      </trkpt>
      <trkpt lat="39.3290980" lon="-0.7698420">
        <ele>503.0</ele>
        <time>2018-09-16T07:08:51Z</time>
      </trkpt>
      <trkpt lat="39.3290980" lon="-0.7698420">
        <ele>503.0</ele>
        <time>2018-09-16T07:08:52Z</time>
      </trkpt>
      <trkpt lat="39.3290780" lon="-0.7698980">
        <ele>503.0</ele>
        <time>2018-09-16T07:08:53Z</time>
      </trkpt>
      <trkpt lat="39.3290780" lon="-0.7698980">
        <ele>504.0</ele>
        <time>2018-09-16T07:08:54Z</time>
      </trkpt>
      <trkpt lat="39.3290580" lon="-0.7699470">
        <ele>504.0</ele>
        <time>2018-09-16T07:08:55Z</time>
      </trkpt>
      <trkpt lat="39.3290580" lon="-0.7699470">
        <ele>504.0</ele>
        <time>2018-09-16T07:08:56Z</time>
      </trkpt>
      <trkpt lat="39.3290330" lon="-0.7700020">
        <ele>504.0</ele>
        <time>2018-09-16T07:08:57Z</time>
      </trkpt>
      <trkpt lat="39.3290330" lon="-0.7700020">
        <ele>504.0</ele>
        <time>2018-09-16T07:08:58Z</time>
      </trkpt>
      <trkpt lat="39.3290120" lon="-0.7700600">
        <ele>504.0</ele>
        <time>2018-09-16T07:08:59Z</time>
      </trkpt>
      <trkpt lat="39.3290030" lon="-0.7700880">
        <ele>504.0</ele>
        <time>2018-09-16T07:09:00Z</time>
      </trkpt>
      <trkpt lat="39.3290030" lon="-0.7700880">
        <ele>504.0</ele>
        <time>2018-09-16T07:09:01Z</time>
      </trkpt>
      <trkpt lat="39.3289750" lon="-0.7701330">
        <ele>504.0</ele>
        <time>2018-09-16T07:09:02Z</time>
      </trkpt>
      <trkpt lat="39.3289530" lon="-0.7701530">
        <ele>504.0</ele>
        <time>2018-09-16T07:09:03Z</time>
      </trkpt>
      <trkpt lat="39.3289530" lon="-0.7701530">
        <ele>504.0</ele>
        <time>2018-09-16T07:09:04Z</time>
      </trkpt>
      <trkpt lat="39.3289230" lon="-0.7701820">
        <ele>504.0</ele>
        <time>2018-09-16T07:09:05Z</time>
      </trkpt>
      <trkpt lat="39.3289070" lon="-0.7701880">
        <ele>504.0</ele>
        <time>2018-09-16T07:09:06Z</time>
      </trkpt>
      <trkpt lat="39.3289070" lon="-0.7701880">
        <ele>504.0</ele>
        <time>2018-09-16T07:09:07Z</time>
      </trkpt>
      <trkpt lat="39.3288700" lon="-0.7702020">
        <ele>504.0</ele>
        <time>2018-09-16T07:09:08Z</time>
      </trkpt>
      <trkpt lat="39.3288490" lon="-0.7702110">
        <ele>504.0</ele>
        <time>2018-09-16T07:09:09Z</time>
      </trkpt>
      <trkpt lat="39.3288270" lon="-0.7702200">
        <ele>504.0</ele>
        <time>2018-09-16T07:09:10Z</time>
      </trkpt>
      <trkpt lat="39.3287980" lon="-0.7702350">
        <ele>503.0</ele>
        <time>2018-09-16T07:09:11Z</time>
      </trkpt>
      <trkpt lat="39.3287630" lon="-0.7702520">
        <ele>503.0</ele>
        <time>2018-09-16T07:09:12Z</time>
      </trkpt>
      <trkpt lat="39.3287630" lon="-0.7702520">
        <ele>503.0</ele>
        <time>2018-09-16T07:09:13Z</time>
      </trkpt>
      <trkpt lat="39.3286780" lon="-0.7702870">
        <ele>503.0</ele>
        <time>2018-09-16T07:09:14Z</time>
      </trkpt>
      <trkpt lat="39.3286780" lon="-0.7702870">
        <ele>501.0</ele>
        <time>2018-09-16T07:09:15Z</time>
      </trkpt>
      <trkpt lat="39.3285850" lon="-0.7703170">
        <ele>501.0</ele>
        <time>2018-09-16T07:09:16Z</time>
      </trkpt>
      <trkpt lat="39.3285850" lon="-0.7703170">
        <ele>500.0</ele>
        <time>2018-09-16T07:09:17Z</time>
      </trkpt>
      <trkpt lat="39.3284980" lon="-0.7703570">
        <ele>500.0</ele>
        <time>2018-09-16T07:09:18Z</time>
      </trkpt>
      <trkpt lat="39.3284980" lon="-0.7703570">
        <ele>500.0</ele>
        <time>2018-09-16T07:09:19Z</time>
      </trkpt>
      <trkpt lat="39.3284170" lon="-0.7704070">
        <ele>500.0</ele>
        <time>2018-09-16T07:09:20Z</time>
      </trkpt>
      <trkpt lat="39.3284170" lon="-0.7704070">
        <ele>499.0</ele>
        <time>2018-09-16T07:09:21Z</time>
      </trkpt>
      <trkpt lat="39.3283420" lon="-0.7704580">
        <ele>499.0</ele>
        <time>2018-09-16T07:09:22Z</time>
      </trkpt>
      <trkpt lat="39.3283420" lon="-0.7704580">
        <ele>499.0</ele>
        <time>2018-09-16T07:09:23Z</time>
      </trkpt>
      <trkpt lat="39.3282720" lon="-0.7704950">
        <ele>498.0</ele>
        <time>2018-09-16T07:09:24Z</time>
      </trkpt>
      <trkpt lat="39.3282720" lon="-0.7704950">
        <ele>498.0</ele>
        <time>2018-09-16T07:09:25Z</time>
      </trkpt>
      <trkpt lat="39.3282270" lon="-0.7705320">
        <ele>498.0</ele>
        <time>2018-09-16T07:09:26Z</time>
      </trkpt>
      <trkpt lat="39.3282270" lon="-0.7705320">
        <ele>498.0</ele>
        <time>2018-09-16T07:09:27Z</time>
      </trkpt>
      <trkpt lat="39.3281880" lon="-0.7705680">
        <ele>498.0</ele>
        <time>2018-09-16T07:09:28Z</time>
      </trkpt>
      <trkpt lat="39.3281880" lon="-0.7705680">
        <ele>498.0</ele>
        <time>2018-09-16T07:09:29Z</time>
      </trkpt>
      <trkpt lat="39.3281320" lon="-0.7705900">
        <ele>498.0</ele>
        <time>2018-09-16T07:09:30Z</time>
      </trkpt>
      <trkpt lat="39.3281320" lon="-0.7705900">
        <ele>498.0</ele>
        <time>2018-09-16T07:09:31Z</time>
      </trkpt>
      <trkpt lat="39.3280670" lon="-0.7706120">
        <ele>498.0</ele>
        <time>2018-09-16T07:09:32Z</time>
      </trkpt>
      <trkpt lat="39.3280350" lon="-0.7706120">
        <ele>498.0</ele>
        <time>2018-09-16T07:09:33Z</time>
      </trkpt>
      <trkpt lat="39.3280350" lon="-0.7706120">
        <ele>498.0</ele>
        <time>2018-09-16T07:09:34Z</time>
      </trkpt>
      <trkpt lat="39.3279670" lon="-0.7705950">
        <ele>498.0</ele>
        <time>2018-09-16T07:09:35Z</time>
      </trkpt>
      <trkpt lat="39.3279670" lon="-0.7705950">
        <ele>498.0</ele>
        <time>2018-09-16T07:09:36Z</time>
      </trkpt>
      <trkpt lat="39.3278930" lon="-0.7705750">
        <ele>498.0</ele>
        <time>2018-09-16T07:09:37Z</time>
      </trkpt>
      <trkpt lat="39.3278930" lon="-0.7705750">
        <ele>498.0</ele>
        <time>2018-09-16T07:09:38Z</time>
      </trkpt>
      <trkpt lat="39.3278180" lon="-0.7705520">
        <ele>498.0</ele>
        <time>2018-09-16T07:09:39Z</time>
      </trkpt>
      <trkpt lat="39.3277850" lon="-0.7705420">
        <ele>498.0</ele>
        <time>2018-09-16T07:09:40Z</time>
      </trkpt>
      <trkpt lat="39.3277850" lon="-0.7705420">
        <ele>498.0</ele>
        <time>2018-09-16T07:09:41Z</time>
      </trkpt>
      <trkpt lat="39.3277200" lon="-0.7705200">
        <ele>498.0</ele>
        <time>2018-09-16T07:09:42Z</time>
      </trkpt>
      <trkpt lat="39.3277200" lon="-0.7705200">
        <ele>498.0</ele>
        <time>2018-09-16T07:09:43Z</time>
      </trkpt>
      <trkpt lat="39.3276500" lon="-0.7705000">
        <ele>498.0</ele>
        <time>2018-09-16T07:09:44Z</time>
      </trkpt>
      <trkpt lat="39.3276100" lon="-0.7704930">
        <ele>498.0</ele>
        <time>2018-09-16T07:09:45Z</time>
      </trkpt>
      <trkpt lat="39.3276100" lon="-0.7704930">
        <ele>498.0</ele>
        <time>2018-09-16T07:09:46Z</time>
      </trkpt>
      <trkpt lat="39.3275250" lon="-0.7704900">
        <ele>498.0</ele>
        <time>2018-09-16T07:09:47Z</time>
      </trkpt>
      <trkpt lat="39.3275250" lon="-0.7704900">
        <ele>498.0</ele>
        <time>2018-09-16T07:09:48Z</time>
      </trkpt>
      <trkpt lat="39.3274400" lon="-0.7705030">
        <ele>498.0</ele>
        <time>2018-09-16T07:09:49Z</time>
      </trkpt>
      <trkpt lat="39.3274400" lon="-0.7705030">
        <ele>498.0</ele>
        <time>2018-09-16T07:09:50Z</time>
      </trkpt>
      <trkpt lat="39.3273550" lon="-0.7705170">
        <ele>498.0</ele>
        <time>2018-09-16T07:09:51Z</time>
      </trkpt>
      <trkpt lat="39.3273550" lon="-0.7705170">
        <ele>498.0</ele>
        <time>2018-09-16T07:09:52Z</time>
      </trkpt>
      <trkpt lat="39.3272670" lon="-0.7705300">
        <ele>498.0</ele>
        <time>2018-09-16T07:09:53Z</time>
      </trkpt>
      <trkpt lat="39.3272670" lon="-0.7705300">
        <ele>498.0</ele>
        <time>2018-09-16T07:09:54Z</time>
      </trkpt>
      <trkpt lat="39.3271720" lon="-0.7705450">
        <ele>498.0</ele>
        <time>2018-09-16T07:09:55Z</time>
      </trkpt>
      <trkpt lat="39.3271720" lon="-0.7705450">
        <ele>498.0</ele>
        <time>2018-09-16T07:09:56Z</time>
      </trkpt>
      <trkpt lat="39.3270800" lon="-0.7705630">
        <ele>498.0</ele>
        <time>2018-09-16T07:09:57Z</time>
      </trkpt>
      <trkpt lat="39.3270350" lon="-0.7705720">
        <ele>498.0</ele>
        <time>2018-09-16T07:09:58Z</time>
      </trkpt>
      <trkpt lat="39.3270350" lon="-0.7705720">
        <ele>498.0</ele>
        <time>2018-09-16T07:09:59Z</time>
      </trkpt>
      <trkpt lat="39.3269520" lon="-0.7705820">
        <ele>498.0</ele>
        <time>2018-09-16T07:10:00Z</time>
      </trkpt>
      <trkpt lat="39.3269520" lon="-0.7705820">
        <ele>498.0</ele>
        <time>2018-09-16T07:10:01Z</time>
      </trkpt>
      <trkpt lat="39.3268700" lon="-0.7705900">
        <ele>498.0</ele>
        <time>2018-09-16T07:10:02Z</time>
      </trkpt>
      <trkpt lat="39.3268320" lon="-0.7705950">
        <ele>498.0</ele>
        <time>2018-09-16T07:10:03Z</time>
      </trkpt>
      <trkpt lat="39.3267970" lon="-0.7705980">
        <ele>498.0</ele>
        <time>2018-09-16T07:10:04Z</time>
      </trkpt>
      <trkpt lat="39.3267810" lon="-0.7706000">
        <ele>498.0</ele>
        <time>2018-09-16T07:10:05Z</time>
      </trkpt>
      <trkpt lat="39.3267650" lon="-0.7706010">
        <ele>498.0</ele>
        <time>2018-09-16T07:10:06Z</time>
      </trkpt>
      <trkpt lat="39.3267320" lon="-0.7706030">
        <ele>498.0</ele>
        <time>2018-09-16T07:10:07Z</time>
      </trkpt>
      <trkpt lat="39.3266780" lon="-0.7706030">
        <ele>498.0</ele>
        <time>2018-09-16T07:10:08Z</time>
      </trkpt>
      <trkpt lat="39.3266780" lon="-0.7706030">
        <ele>498.0</ele>
        <time>2018-09-16T07:10:09Z</time>
      </trkpt>
      <trkpt lat="39.3266320" lon="-0.7705980">
        <ele>498.0</ele>
        <time>2018-09-16T07:10:10Z</time>
      </trkpt>
      <trkpt lat="39.3266320" lon="-0.7705980">
        <ele>498.0</ele>
        <time>2018-09-16T07:10:11Z</time>
      </trkpt>
      <trkpt lat="39.3265870" lon="-0.7705830">
        <ele>498.0</ele>
        <time>2018-09-16T07:10:12Z</time>
      </trkpt>
      <trkpt lat="39.3265870" lon="-0.7705830">
        <ele>498.0</ele>
        <time>2018-09-16T07:10:13Z</time>
      </trkpt>
      <trkpt lat="39.3265420" lon="-0.7705750">
        <ele>499.0</ele>
        <time>2018-09-16T07:10:14Z</time>
      </trkpt>
      <trkpt lat="39.3265200" lon="-0.7705720">
        <ele>499.0</ele>
        <time>2018-09-16T07:10:15Z</time>
      </trkpt>
      <trkpt lat="39.3265200" lon="-0.7705720">
        <ele>499.0</ele>
        <time>2018-09-16T07:10:16Z</time>
      </trkpt>
      <trkpt lat="39.3264770" lon="-0.7705720">
        <ele>499.0</ele>
        <time>2018-09-16T07:10:17Z</time>
      </trkpt>
      <trkpt lat="39.3264570" lon="-0.7705750">
        <ele>499.0</ele>
        <time>2018-09-16T07:10:18Z</time>
      </trkpt>
      <trkpt lat="39.3264570" lon="-0.7705750">
        <ele>501.0</ele>
        <time>2018-09-16T07:10:19Z</time>
      </trkpt>
      <trkpt lat="39.3264170" lon="-0.7705820">
        <ele>501.0</ele>
        <time>2018-09-16T07:10:20Z</time>
      </trkpt>
      <trkpt lat="39.3264170" lon="-0.7705820">
        <ele>501.0</ele>
        <time>2018-09-16T07:10:21Z</time>
      </trkpt>
      <trkpt lat="39.3263850" lon="-0.7705900">
        <ele>501.0</ele>
        <time>2018-09-16T07:10:22Z</time>
      </trkpt>
      <trkpt lat="39.3263850" lon="-0.7705900">
        <ele>501.0</ele>
        <time>2018-09-16T07:10:23Z</time>
      </trkpt>
      <trkpt lat="39.3263450" lon="-0.7706000">
        <ele>501.0</ele>
        <time>2018-09-16T07:10:24Z</time>
      </trkpt>
      <trkpt lat="39.3263260" lon="-0.7706080">
        <ele>501.0</ele>
        <time>2018-09-16T07:10:25Z</time>
      </trkpt>
      <trkpt lat="39.3263070" lon="-0.7706150">
        <ele>501.0</ele>
        <time>2018-09-16T07:10:26Z</time>
      </trkpt>
      <trkpt lat="39.3263070" lon="-0.7706150">
        <ele>501.0</ele>
        <time>2018-09-16T07:10:27Z</time>
      </trkpt>
      <trkpt lat="39.3262730" lon="-0.7706200">
        <ele>501.0</ele>
        <time>2018-09-16T07:10:28Z</time>
      </trkpt>
      <trkpt lat="39.3262730" lon="-0.7706200">
        <ele>502.0</ele>
        <time>2018-09-16T07:10:29Z</time>
      </trkpt>
      <trkpt lat="39.3262450" lon="-0.7706220">
        <ele>502.0</ele>
        <time>2018-09-16T07:10:30Z</time>
      </trkpt>
      <trkpt lat="39.3262450" lon="-0.7706220">
        <ele>502.0</ele>
        <time>2018-09-16T07:10:31Z</time>
      </trkpt>
      <trkpt lat="39.3262150" lon="-0.7706330">
        <ele>502.0</ele>
        <time>2018-09-16T07:10:32Z</time>
      </trkpt>
      <trkpt lat="39.3262000" lon="-0.7706380">
        <ele>503.0</ele>
        <time>2018-09-16T07:10:33Z</time>
      </trkpt>
      <trkpt lat="39.3262000" lon="-0.7706380">
        <ele>503.0</ele>
        <time>2018-09-16T07:10:34Z</time>
      </trkpt>
      <trkpt lat="39.3261670" lon="-0.7706400">
        <ele>503.0</ele>
        <time>2018-09-16T07:10:35Z</time>
      </trkpt>
      <trkpt lat="39.3261500" lon="-0.7706420">
        <ele>503.0</ele>
        <time>2018-09-16T07:10:36Z</time>
      </trkpt>
      <trkpt lat="39.3261500" lon="-0.7706420">
        <ele>504.0</ele>
        <time>2018-09-16T07:10:37Z</time>
      </trkpt>
      <trkpt lat="39.3261120" lon="-0.7706470">
        <ele>504.0</ele>
        <time>2018-09-16T07:10:38Z</time>
      </trkpt>
      <trkpt lat="39.3261120" lon="-0.7706470">
        <ele>504.0</ele>
        <time>2018-09-16T07:10:39Z</time>
      </trkpt>
      <trkpt lat="39.3260770" lon="-0.7706580">
        <ele>504.0</ele>
        <time>2018-09-16T07:10:40Z</time>
      </trkpt>
      <trkpt lat="39.3260770" lon="-0.7706580">
        <ele>505.0</ele>
        <time>2018-09-16T07:10:41Z</time>
      </trkpt>
      <trkpt lat="39.3260450" lon="-0.7706700">
        <ele>505.0</ele>
        <time>2018-09-16T07:10:42Z</time>
      </trkpt>
      <trkpt lat="39.3260450" lon="-0.7706700">
        <ele>506.0</ele>
        <time>2018-09-16T07:10:43Z</time>
      </trkpt>
      <trkpt lat="39.3260130" lon="-0.7706820">
        <ele>506.0</ele>
        <time>2018-09-16T07:10:44Z</time>
      </trkpt>
      <trkpt lat="39.3259970" lon="-0.7706870">
        <ele>506.0</ele>
        <time>2018-09-16T07:10:45Z</time>
      </trkpt>
      <trkpt lat="39.3259970" lon="-0.7706870">
        <ele>507.0</ele>
        <time>2018-09-16T07:10:46Z</time>
      </trkpt>
      <trkpt lat="39.3259680" lon="-0.7707020">
        <ele>507.0</ele>
        <time>2018-09-16T07:10:47Z</time>
      </trkpt>
      <trkpt lat="39.3259530" lon="-0.7707100">
        <ele>507.0</ele>
        <time>2018-09-16T07:10:48Z</time>
      </trkpt>
      <trkpt lat="39.3259530" lon="-0.7707100">
        <ele>507.0</ele>
        <time>2018-09-16T07:10:49Z</time>
      </trkpt>
      <trkpt lat="39.3259280" lon="-0.7707200">
        <ele>507.0</ele>
        <time>2018-09-16T07:10:50Z</time>
      </trkpt>
      <trkpt lat="39.3259280" lon="-0.7707200">
        <ele>508.0</ele>
        <time>2018-09-16T07:10:51Z</time>
      </trkpt>
      <trkpt lat="39.3259050" lon="-0.7707350">
        <ele>508.0</ele>
        <time>2018-09-16T07:10:52Z</time>
      </trkpt>
      <trkpt lat="39.3258920" lon="-0.7707400">
        <ele>508.0</ele>
        <time>2018-09-16T07:10:53Z</time>
      </trkpt>
      <trkpt lat="39.3258920" lon="-0.7707400">
        <ele>510.0</ele>
        <time>2018-09-16T07:10:54Z</time>
      </trkpt>
      <trkpt lat="39.3258700" lon="-0.7707520">
        <ele>510.0</ele>
        <time>2018-09-16T07:10:55Z</time>
      </trkpt>
      <trkpt lat="39.3258700" lon="-0.7707520">
        <ele>510.0</ele>
        <time>2018-09-16T07:10:56Z</time>
      </trkpt>
      <trkpt lat="39.3258520" lon="-0.7707680">
        <ele>510.0</ele>
        <time>2018-09-16T07:10:57Z</time>
      </trkpt>
      <trkpt lat="39.3258520" lon="-0.7707680">
        <ele>510.0</ele>
        <time>2018-09-16T07:10:58Z</time>
      </trkpt>
      <trkpt lat="39.3258330" lon="-0.7707800">
        <ele>510.0</ele>
        <time>2018-09-16T07:10:59Z</time>
      </trkpt>
      <trkpt lat="39.3258220" lon="-0.7707850">
        <ele>510.0</ele>
        <time>2018-09-16T07:11:00Z</time>
      </trkpt>
      <trkpt lat="39.3258220" lon="-0.7707850">
        <ele>510.0</ele>
        <time>2018-09-16T07:11:01Z</time>
      </trkpt>
      <trkpt lat="39.3257980" lon="-0.7707970">
        <ele>510.0</ele>
        <time>2018-09-16T07:11:02Z</time>
      </trkpt>
      <trkpt lat="39.3257980" lon="-0.7707970">
        <ele>510.0</ele>
        <time>2018-09-16T07:11:03Z</time>
      </trkpt>
      <trkpt lat="39.3257770" lon="-0.7708150">
        <ele>510.0</ele>
        <time>2018-09-16T07:11:04Z</time>
      </trkpt>
      <trkpt lat="39.3257770" lon="-0.7708150">
        <ele>511.0</ele>
        <time>2018-09-16T07:11:05Z</time>
      </trkpt>
      <trkpt lat="39.3257600" lon="-0.7708350">
        <ele>511.0</ele>
        <time>2018-09-16T07:11:06Z</time>
      </trkpt>
      <trkpt lat="39.3257600" lon="-0.7708350">
        <ele>511.0</ele>
        <time>2018-09-16T07:11:07Z</time>
      </trkpt>
      <trkpt lat="39.3257350" lon="-0.7708520">
        <ele>511.0</ele>
        <time>2018-09-16T07:11:08Z</time>
      </trkpt>
      <trkpt lat="39.3257250" lon="-0.7708580">
        <ele>513.0</ele>
        <time>2018-09-16T07:11:09Z</time>
      </trkpt>
      <trkpt lat="39.3257130" lon="-0.7708630">
        <ele>513.0</ele>
        <time>2018-09-16T07:11:10Z</time>
      </trkpt>
      <trkpt lat="39.3257130" lon="-0.7708630">
        <ele>513.0</ele>
        <time>2018-09-16T07:11:11Z</time>
      </trkpt>
      <trkpt lat="39.3256900" lon="-0.7708600">
        <ele>513.0</ele>
        <time>2018-09-16T07:11:12Z</time>
      </trkpt>
      <trkpt lat="39.3256900" lon="-0.7708600">
        <ele>513.0</ele>
        <time>2018-09-16T07:11:13Z</time>
      </trkpt>
      <trkpt lat="39.3256650" lon="-0.7708600">
        <ele>513.0</ele>
        <time>2018-09-16T07:11:14Z</time>
      </trkpt>
      <trkpt lat="39.3256650" lon="-0.7708600">
        <ele>513.0</ele>
        <time>2018-09-16T07:11:15Z</time>
      </trkpt>
      <trkpt lat="39.3256400" lon="-0.7708670">
        <ele>513.0</ele>
        <time>2018-09-16T07:11:16Z</time>
      </trkpt>
      <trkpt lat="39.3256400" lon="-0.7708670">
        <ele>513.0</ele>
        <time>2018-09-16T07:11:17Z</time>
      </trkpt>
      <trkpt lat="39.3256180" lon="-0.7708820">
        <ele>513.0</ele>
        <time>2018-09-16T07:11:18Z</time>
      </trkpt>
      <trkpt lat="39.3256180" lon="-0.7708820">
        <ele>513.0</ele>
        <time>2018-09-16T07:11:19Z</time>
      </trkpt>
      <trkpt lat="39.3256020" lon="-0.7708850">
        <ele>514.0</ele>
        <time>2018-09-16T07:11:20Z</time>
      </trkpt>
      <trkpt lat="39.3256020" lon="-0.7708850">
        <ele>514.0</ele>
        <time>2018-09-16T07:11:21Z</time>
      </trkpt>
      <trkpt lat="39.3255720" lon="-0.7708870">
        <ele>514.0</ele>
        <time>2018-09-16T07:11:22Z</time>
      </trkpt>
      <trkpt lat="39.3255720" lon="-0.7708870">
        <ele>514.0</ele>
        <time>2018-09-16T07:11:23Z</time>
      </trkpt>
      <trkpt lat="39.3255430" lon="-0.7708900">
        <ele>514.0</ele>
        <time>2018-09-16T07:11:24Z</time>
      </trkpt>
      <trkpt lat="39.3255430" lon="-0.7708900">
        <ele>514.0</ele>
        <time>2018-09-16T07:11:25Z</time>
      </trkpt>
      <trkpt lat="39.3255120" lon="-0.7708980">
        <ele>515.0</ele>
        <time>2018-09-16T07:11:26Z</time>
      </trkpt>
      <trkpt lat="39.3255120" lon="-0.7708980">
        <ele>515.0</ele>
        <time>2018-09-16T07:11:27Z</time>
      </trkpt>
      <trkpt lat="39.3254830" lon="-0.7709100">
        <ele>515.0</ele>
        <time>2018-09-16T07:11:28Z</time>
      </trkpt>
      <trkpt lat="39.3254830" lon="-0.7709100">
        <ele>515.0</ele>
        <time>2018-09-16T07:11:29Z</time>
      </trkpt>
      <trkpt lat="39.3254530" lon="-0.7709230">
        <ele>515.0</ele>
        <time>2018-09-16T07:11:30Z</time>
      </trkpt>
      <trkpt lat="39.3254530" lon="-0.7709230">
        <ele>515.0</ele>
        <time>2018-09-16T07:11:31Z</time>
      </trkpt>
      <trkpt lat="39.3254270" lon="-0.7709370">
        <ele>515.0</ele>
        <time>2018-09-16T07:11:32Z</time>
      </trkpt>
      <trkpt lat="39.3254130" lon="-0.7709450">
        <ele>515.0</ele>
        <time>2018-09-16T07:11:33Z</time>
      </trkpt>
      <trkpt lat="39.3254130" lon="-0.7709450">
        <ele>515.0</ele>
        <time>2018-09-16T07:11:34Z</time>
      </trkpt>
      <trkpt lat="39.3253900" lon="-0.7709600">
        <ele>515.0</ele>
        <time>2018-09-16T07:11:35Z</time>
      </trkpt>
      <trkpt lat="39.3253900" lon="-0.7709600">
        <ele>516.0</ele>
        <time>2018-09-16T07:11:36Z</time>
      </trkpt>
      <trkpt lat="39.3253720" lon="-0.7709670">
        <ele>516.0</ele>
        <time>2018-09-16T07:11:37Z</time>
      </trkpt>
      <trkpt lat="39.3253700" lon="-0.7709680">
        <ele>516.0</ele>
        <time>2018-09-16T07:11:38Z</time>
      </trkpt>
      <trkpt lat="39.3253700" lon="-0.7709680">
        <ele>514.0</ele>
        <time>2018-09-16T07:14:23Z</time>
      </trkpt>
      <trkpt lat="39.3253700" lon="-0.7709680">
        <ele>514.0</ele>
        <time>2018-09-16T07:14:24Z</time>
      </trkpt>
      <trkpt lat="39.3253720" lon="-0.7709670">
        <ele>514.0</ele>
        <time>2018-09-16T07:14:25Z</time>
      </trkpt>
      <trkpt lat="39.3253720" lon="-0.7709670">
        <ele>514.0</ele>
        <time>2018-09-16T07:14:26Z</time>
      </trkpt>
      <trkpt lat="39.3253470" lon="-0.7709930">
        <ele>514.0</ele>
        <time>2018-09-16T07:14:27Z</time>
      </trkpt>
      <trkpt lat="39.3253250" lon="-0.7710040">
        <ele>514.0</ele>
        <time>2018-09-16T07:14:28Z</time>
      </trkpt>
      <trkpt lat="39.3253030" lon="-0.7710150">
        <ele>514.0</ele>
        <time>2018-09-16T07:14:29Z</time>
      </trkpt>
      <trkpt lat="39.3253030" lon="-0.7710150">
        <ele>514.0</ele>
        <time>2018-09-16T07:14:30Z</time>
      </trkpt>
      <trkpt lat="39.3252580" lon="-0.7710420">
        <ele>514.0</ele>
        <time>2018-09-16T07:14:31Z</time>
      </trkpt>
      <trkpt lat="39.3252580" lon="-0.7710420">
        <ele>514.0</ele>
        <time>2018-09-16T07:14:32Z</time>
      </trkpt>
      <trkpt lat="39.3252270" lon="-0.7710570">
        <ele>516.0</ele>
        <time>2018-09-16T07:14:33Z</time>
      </trkpt>
      <trkpt lat="39.3252080" lon="-0.7710670">
        <ele>516.0</ele>
        <time>2018-09-16T07:14:34Z</time>
      </trkpt>
      <trkpt lat="39.3251880" lon="-0.7710800">
        <ele>516.0</ele>
        <time>2018-09-16T07:14:35Z</time>
      </trkpt>
      <trkpt lat="39.3251670" lon="-0.7710930">
        <ele>516.0</ele>
        <time>2018-09-16T07:14:36Z</time>
      </trkpt>
      <trkpt lat="39.3251430" lon="-0.7711070">
        <ele>516.0</ele>
        <time>2018-09-16T07:14:37Z</time>
      </trkpt>
      <trkpt lat="39.3251430" lon="-0.7711070">
        <ele>516.0</ele>
        <time>2018-09-16T07:14:38Z</time>
      </trkpt>
      <trkpt lat="39.3250980" lon="-0.7711270">
        <ele>516.0</ele>
        <time>2018-09-16T07:14:39Z</time>
      </trkpt>
      <trkpt lat="39.3250980" lon="-0.7711270">
        <ele>516.0</ele>
        <time>2018-09-16T07:14:40Z</time>
      </trkpt>
      <trkpt lat="39.3250520" lon="-0.7711430">
        <ele>516.0</ele>
        <time>2018-09-16T07:14:41Z</time>
      </trkpt>
      <trkpt lat="39.3250520" lon="-0.7711430">
        <ele>516.0</ele>
        <time>2018-09-16T07:14:42Z</time>
      </trkpt>
      <trkpt lat="39.3250070" lon="-0.7711620">
        <ele>516.0</ele>
        <time>2018-09-16T07:14:43Z</time>
      </trkpt>
      <trkpt lat="39.3250070" lon="-0.7711620">
        <ele>516.0</ele>
        <time>2018-09-16T07:14:44Z</time>
      </trkpt>
      <trkpt lat="39.3249600" lon="-0.7711780">
        <ele>516.0</ele>
        <time>2018-09-16T07:14:45Z</time>
      </trkpt>
      <trkpt lat="39.3249380" lon="-0.7711850">
        <ele>516.0</ele>
        <time>2018-09-16T07:14:46Z</time>
      </trkpt>
      <trkpt lat="39.3249380" lon="-0.7711850">
        <ele>516.0</ele>
        <time>2018-09-16T07:14:47Z</time>
      </trkpt>
      <trkpt lat="39.3248980" lon="-0.7712050">
        <ele>516.0</ele>
        <time>2018-09-16T07:14:48Z</time>
      </trkpt>
      <trkpt lat="39.3248780" lon="-0.7712150">
        <ele>516.0</ele>
        <time>2018-09-16T07:14:49Z</time>
      </trkpt>
      <trkpt lat="39.3248780" lon="-0.7712150">
        <ele>516.0</ele>
        <time>2018-09-16T07:14:50Z</time>
      </trkpt>
      <trkpt lat="39.3248370" lon="-0.7712280">
        <ele>516.0</ele>
        <time>2018-09-16T07:14:51Z</time>
      </trkpt>
      <trkpt lat="39.3248370" lon="-0.7712280">
        <ele>516.0</ele>
        <time>2018-09-16T07:14:52Z</time>
      </trkpt>
      <trkpt lat="39.3248000" lon="-0.7712400">
        <ele>516.0</ele>
        <time>2018-09-16T07:14:53Z</time>
      </trkpt>
      <trkpt lat="39.3248000" lon="-0.7712400">
        <ele>516.0</ele>
        <time>2018-09-16T07:14:54Z</time>
      </trkpt>
      <trkpt lat="39.3247620" lon="-0.7712480">
        <ele>516.0</ele>
        <time>2018-09-16T07:14:55Z</time>
      </trkpt>
      <trkpt lat="39.3247620" lon="-0.7712480">
        <ele>516.0</ele>
        <time>2018-09-16T07:14:56Z</time>
      </trkpt>
      <trkpt lat="39.3247200" lon="-0.7712600">
        <ele>516.0</ele>
        <time>2018-09-16T07:14:57Z</time>
      </trkpt>
      <trkpt lat="39.3246980" lon="-0.7712680">
        <ele>516.0</ele>
        <time>2018-09-16T07:14:58Z</time>
      </trkpt>
      <trkpt lat="39.3246980" lon="-0.7712680">
        <ele>516.0</ele>
        <time>2018-09-16T07:14:59Z</time>
      </trkpt>
      <trkpt lat="39.3246520" lon="-0.7712850">
        <ele>516.0</ele>
        <time>2018-09-16T07:15:00Z</time>
      </trkpt>
      <trkpt lat="39.3246320" lon="-0.7712950">
        <ele>516.0</ele>
        <time>2018-09-16T07:15:01Z</time>
      </trkpt>
      <trkpt lat="39.3246320" lon="-0.7712950">
        <ele>516.0</ele>
        <time>2018-09-16T07:15:02Z</time>
      </trkpt>
      <trkpt lat="39.3245920" lon="-0.7713170">
        <ele>516.0</ele>
        <time>2018-09-16T07:15:03Z</time>
      </trkpt>
      <trkpt lat="39.3245920" lon="-0.7713170">
        <ele>516.0</ele>
        <time>2018-09-16T07:15:04Z</time>
      </trkpt>
      <trkpt lat="39.3245530" lon="-0.7713450">
        <ele>516.0</ele>
        <time>2018-09-16T07:15:05Z</time>
      </trkpt>
      <trkpt lat="39.3245530" lon="-0.7713450">
        <ele>516.0</ele>
        <time>2018-09-16T07:15:06Z</time>
      </trkpt>
      <trkpt lat="39.3245130" lon="-0.7713770">
        <ele>516.0</ele>
        <time>2018-09-16T07:15:07Z</time>
      </trkpt>
      <trkpt lat="39.3245130" lon="-0.7713770">
        <ele>516.0</ele>
        <time>2018-09-16T07:15:08Z</time>
      </trkpt>
      <trkpt lat="39.3244750" lon="-0.7714100">
        <ele>516.0</ele>
        <time>2018-09-16T07:15:09Z</time>
      </trkpt>
      <trkpt lat="39.3244750" lon="-0.7714100">
        <ele>516.0</ele>
        <time>2018-09-16T07:15:10Z</time>
      </trkpt>
      <trkpt lat="39.3244300" lon="-0.7714320">
        <ele>516.0</ele>
        <time>2018-09-16T07:15:11Z</time>
      </trkpt>
      <trkpt lat="39.3244300" lon="-0.7714320">
        <ele>516.0</ele>
        <time>2018-09-16T07:15:12Z</time>
      </trkpt>
      <trkpt lat="39.3243850" lon="-0.7714450">
        <ele>516.0</ele>
        <time>2018-09-16T07:15:13Z</time>
      </trkpt>
      <trkpt lat="39.3243850" lon="-0.7714450">
        <ele>516.0</ele>
        <time>2018-09-16T07:15:14Z</time>
      </trkpt>
      <trkpt lat="39.3243370" lon="-0.7714600">
        <ele>516.0</ele>
        <time>2018-09-16T07:15:15Z</time>
      </trkpt>
      <trkpt lat="39.3243120" lon="-0.7714680">
        <ele>516.0</ele>
        <time>2018-09-16T07:15:16Z</time>
      </trkpt>
      <trkpt lat="39.3243120" lon="-0.7714680">
        <ele>516.0</ele>
        <time>2018-09-16T07:15:17Z</time>
      </trkpt>
      <trkpt lat="39.3242600" lon="-0.7714820">
        <ele>516.0</ele>
        <time>2018-09-16T07:15:18Z</time>
      </trkpt>
      <trkpt lat="39.3242330" lon="-0.7714870">
        <ele>516.0</ele>
        <time>2018-09-16T07:15:19Z</time>
      </trkpt>
      <trkpt lat="39.3242330" lon="-0.7714870">
        <ele>516.0</ele>
        <time>2018-09-16T07:15:20Z</time>
      </trkpt>
      <trkpt lat="39.3241750" lon="-0.7714870">
        <ele>516.0</ele>
        <time>2018-09-16T07:15:21Z</time>
      </trkpt>
      <trkpt lat="39.3241500" lon="-0.7714830">
        <ele>516.0</ele>
        <time>2018-09-16T07:15:22Z</time>
      </trkpt>
      <trkpt lat="39.3241500" lon="-0.7714830">
        <ele>516.0</ele>
        <time>2018-09-16T07:15:23Z</time>
      </trkpt>
      <trkpt lat="39.3240900" lon="-0.7714620">
        <ele>516.0</ele>
        <time>2018-09-16T07:15:24Z</time>
      </trkpt>
      <trkpt lat="39.3240770" lon="-0.7714570">
        <ele>516.0</ele>
        <time>2018-09-16T07:15:25Z</time>
      </trkpt>
      <trkpt lat="39.3240770" lon="-0.7714570">
        <ele>516.0</ele>
        <time>2018-09-16T07:15:26Z</time>
      </trkpt>
      <trkpt lat="39.3240280" lon="-0.7714250">
        <ele>516.0</ele>
        <time>2018-09-16T07:15:27Z</time>
      </trkpt>
      <trkpt lat="39.3240070" lon="-0.7714070">
        <ele>516.0</ele>
        <time>2018-09-16T07:15:28Z</time>
      </trkpt>
      <trkpt lat="39.3240070" lon="-0.7714070">
        <ele>516.0</ele>
        <time>2018-09-16T07:15:29Z</time>
      </trkpt>
      <trkpt lat="39.3239620" lon="-0.7713660">
        <ele>516.0</ele>
        <time>2018-09-16T07:15:30Z</time>
      </trkpt>
      <trkpt lat="39.3239530" lon="-0.7713540">
        <ele>516.0</ele>
        <time>2018-09-16T07:15:31Z</time>
      </trkpt>
      <trkpt lat="39.3239430" lon="-0.7713420">
        <ele>516.0</ele>
        <time>2018-09-16T07:15:32Z</time>
      </trkpt>
      <trkpt lat="39.3239430" lon="-0.7713420">
        <ele>516.0</ele>
        <time>2018-09-16T07:15:33Z</time>
      </trkpt>
      <trkpt lat="39.3239180" lon="-0.7712900">
        <ele>516.0</ele>
        <time>2018-09-16T07:15:34Z</time>
      </trkpt>
      <trkpt lat="39.3239180" lon="-0.7712900">
        <ele>516.0</ele>
        <time>2018-09-16T07:15:35Z</time>
      </trkpt>
      <trkpt lat="39.3239000" lon="-0.7712320">
        <ele>516.0</ele>
        <time>2018-09-16T07:15:36Z</time>
      </trkpt>
      <trkpt lat="39.3238920" lon="-0.7712020">
        <ele>516.0</ele>
        <time>2018-09-16T07:15:37Z</time>
      </trkpt>
      <trkpt lat="39.3238920" lon="-0.7712020">
        <ele>516.0</ele>
        <time>2018-09-16T07:15:38Z</time>
      </trkpt>
      <trkpt lat="39.3238730" lon="-0.7711330">
        <ele>516.0</ele>
        <time>2018-09-16T07:15:39Z</time>
      </trkpt>
      <trkpt lat="39.3238730" lon="-0.7711330">
        <ele>516.0</ele>
        <time>2018-09-16T07:15:40Z</time>
      </trkpt>
      <trkpt lat="39.3238570" lon="-0.7710700">
        <ele>516.0</ele>
        <time>2018-09-16T07:15:41Z</time>
      </trkpt>
      <trkpt lat="39.3238570" lon="-0.7710700">
        <ele>516.0</ele>
        <time>2018-09-16T07:15:42Z</time>
      </trkpt>
      <trkpt lat="39.3238400" lon="-0.7710130">
        <ele>516.0</ele>
        <time>2018-09-16T07:15:43Z</time>
      </trkpt>
      <trkpt lat="39.3238400" lon="-0.7710130">
        <ele>516.0</ele>
        <time>2018-09-16T07:15:44Z</time>
      </trkpt>
      <trkpt lat="39.3238270" lon="-0.7709630">
        <ele>516.0</ele>
        <time>2018-09-16T07:15:45Z</time>
      </trkpt>
      <trkpt lat="39.3238270" lon="-0.7709630">
        <ele>516.0</ele>
        <time>2018-09-16T07:15:46Z</time>
      </trkpt>
      <trkpt lat="39.3238150" lon="-0.7709200">
        <ele>516.0</ele>
        <time>2018-09-16T07:15:47Z</time>
      </trkpt>
      <trkpt lat="39.3238150" lon="-0.7709200">
        <ele>516.0</ele>
        <time>2018-09-16T07:15:48Z</time>
      </trkpt>
      <trkpt lat="39.3238070" lon="-0.7708970">
        <ele>516.0</ele>
        <time>2018-09-16T07:15:49Z</time>
      </trkpt>
      <trkpt lat="39.3238070" lon="-0.7708970">
        <ele>516.0</ele>
        <time>2018-09-16T07:15:50Z</time>
      </trkpt>
      <trkpt lat="39.3238030" lon="-0.7708900">
        <ele>516.0</ele>
        <time>2018-09-16T07:15:51Z</time>
      </trkpt>
      <trkpt lat="39.3238030" lon="-0.7708900">
        <ele>516.0</ele>
        <time>2018-09-16T07:15:52Z</time>
      </trkpt>
      <trkpt lat="39.3238030" lon="-0.7708900">
        <ele>516.0</ele>
        <time>2018-09-16T07:15:53Z</time>
      </trkpt>
      <trkpt lat="39.3238030" lon="-0.7708900">
        <ele>516.0</ele>
        <time>2018-09-16T07:15:54Z</time>
      </trkpt>
      <trkpt lat="39.3237980" lon="-0.7708770">
        <ele>516.0</ele>
        <time>2018-09-16T07:15:55Z</time>
      </trkpt>
      <trkpt lat="39.3237980" lon="-0.7708770">
        <ele>516.0</ele>
        <time>2018-09-16T07:15:56Z</time>
      </trkpt>
      <trkpt lat="39.3237950" lon="-0.7708620">
        <ele>516.0</ele>
        <time>2018-09-16T07:15:57Z</time>
      </trkpt>
      <trkpt lat="39.3237950" lon="-0.7708620">
        <ele>516.0</ele>
        <time>2018-09-16T07:15:58Z</time>
      </trkpt>
      <trkpt lat="39.3237930" lon="-0.7708580">
        <ele>516.0</ele>
        <time>2018-09-16T07:15:59Z</time>
      </trkpt>
      <trkpt lat="39.3237930" lon="-0.7708580">
        <ele>517.0</ele>
        <time>2018-09-16T07:16:00Z</time>
      </trkpt>
      <trkpt lat="39.3237930" lon="-0.7708580">
        <ele>517.0</ele>
        <time>2018-09-16T07:16:01Z</time>
      </trkpt>
      <trkpt lat="39.3237930" lon="-0.7708480">
        <ele>517.0</ele>
        <time>2018-09-16T07:16:02Z</time>
      </trkpt>
      <trkpt lat="39.3237930" lon="-0.7708480">
        <ele>517.0</ele>
        <time>2018-09-16T07:16:03Z</time>
      </trkpt>
      <trkpt lat="39.3237920" lon="-0.7708370">
        <ele>517.0</ele>
        <time>2018-09-16T07:16:04Z</time>
      </trkpt>
      <trkpt lat="39.3237920" lon="-0.7708370">
        <ele>517.0</ele>
        <time>2018-09-16T07:16:05Z</time>
      </trkpt>
      <trkpt lat="39.3237880" lon="-0.7708220">
        <ele>517.0</ele>
        <time>2018-09-16T07:16:06Z</time>
      </trkpt>
      <trkpt lat="39.3237880" lon="-0.7708150">
        <ele>517.0</ele>
        <time>2018-09-16T07:16:07Z</time>
      </trkpt>
      <trkpt lat="39.3237880" lon="-0.7708150">
        <ele>517.0</ele>
        <time>2018-09-16T07:16:08Z</time>
      </trkpt>
      <trkpt lat="39.3237870" lon="-0.7707970">
        <ele>517.0</ele>
        <time>2018-09-16T07:16:09Z</time>
      </trkpt>
      <trkpt lat="39.3237870" lon="-0.7707970">
        <ele>517.0</ele>
        <time>2018-09-16T07:16:10Z</time>
      </trkpt>
      <trkpt lat="39.3237820" lon="-0.7707750">
        <ele>517.0</ele>
        <time>2018-09-16T07:16:11Z</time>
      </trkpt>
      <trkpt lat="39.3237820" lon="-0.7707670">
        <ele>517.0</ele>
        <time>2018-09-16T07:16:12Z</time>
      </trkpt>
      <trkpt lat="39.3237820" lon="-0.7707670">
        <ele>517.0</ele>
        <time>2018-09-16T07:16:13Z</time>
      </trkpt>
      <trkpt lat="39.3237800" lon="-0.7707530">
        <ele>517.0</ele>
        <time>2018-09-16T07:16:14Z</time>
      </trkpt>
      <trkpt lat="39.3237800" lon="-0.7707530">
        <ele>517.0</ele>
        <time>2018-09-16T07:16:15Z</time>
      </trkpt>
      <trkpt lat="39.3237730" lon="-0.7707280">
        <ele>517.0</ele>
        <time>2018-09-16T07:16:16Z</time>
      </trkpt>
      <trkpt lat="39.3237730" lon="-0.7707280">
        <ele>517.0</ele>
        <time>2018-09-16T07:16:17Z</time>
      </trkpt>
      <trkpt lat="39.3237650" lon="-0.7707220">
        <ele>517.0</ele>
        <time>2018-09-16T07:16:18Z</time>
      </trkpt>
      <trkpt lat="39.3237630" lon="-0.7707170">
        <ele>517.0</ele>
        <time>2018-09-16T07:16:19Z</time>
      </trkpt>
      <trkpt lat="39.3237630" lon="-0.7707170">
        <ele>517.0</ele>
        <time>2018-09-16T07:16:20Z</time>
      </trkpt>
      <trkpt lat="39.3237630" lon="-0.7707130">
        <ele>517.0</ele>
        <time>2018-09-16T07:16:21Z</time>
      </trkpt>
      <trkpt lat="39.3237630" lon="-0.7707130">
        <ele>517.0</ele>
        <time>2018-09-16T07:16:22Z</time>
      </trkpt>
      <trkpt lat="39.3237630" lon="-0.7707130">
        <ele>517.0</ele>
        <time>2018-09-16T07:16:23Z</time>
      </trkpt>
      <trkpt lat="39.3237630" lon="-0.7707130">
        <ele>517.0</ele>
        <time>2018-09-16T07:16:24Z</time>
      </trkpt>
      <trkpt lat="39.3237630" lon="-0.7707130">
        <ele>517.0</ele>
        <time>2018-09-16T07:16:25Z</time>
      </trkpt>
      <trkpt lat="39.3237630" lon="-0.7707130">
        <ele>517.0</ele>
        <time>2018-09-16T07:16:26Z</time>
      </trkpt>
      <trkpt lat="39.3237630" lon="-0.7707130">
        <ele>517.0</ele>
        <time>2018-09-16T07:16:27Z</time>
      </trkpt>
      <trkpt lat="39.3237630" lon="-0.7707130">
        <ele>517.0</ele>
        <time>2018-09-16T07:16:28Z</time>
      </trkpt>
      <trkpt lat="39.3237630" lon="-0.7707130">
        <ele>517.0</ele>
        <time>2018-09-16T07:16:29Z</time>
      </trkpt>
      <trkpt lat="39.3237630" lon="-0.7707130">
        <ele>517.0</ele>
        <time>2018-09-16T07:16:30Z</time>
      </trkpt>
      <trkpt lat="39.3237630" lon="-0.7707130">
        <ele>517.0</ele>
        <time>2018-09-16T07:16:31Z</time>
      </trkpt>
      <trkpt lat="39.3237680" lon="-0.7706800">
        <ele>517.0</ele>
        <time>2018-09-16T07:16:32Z</time>
      </trkpt>
      <trkpt lat="39.3237680" lon="-0.7706800">
        <ele>517.0</ele>
        <time>2018-09-16T07:16:33Z</time>
      </trkpt>
      <trkpt lat="39.3237630" lon="-0.7706380">
        <ele>517.0</ele>
        <time>2018-09-16T07:16:34Z</time>
      </trkpt>
      <trkpt lat="39.3237630" lon="-0.7706380">
        <ele>517.0</ele>
        <time>2018-09-16T07:16:35Z</time>
      </trkpt>
      <trkpt lat="39.3237550" lon="-0.7705930">
        <ele>517.0</ele>
        <time>2018-09-16T07:16:36Z</time>
      </trkpt>
      <trkpt lat="39.3237510" lon="-0.7705600">
        <ele>517.0</ele>
        <time>2018-09-16T07:16:37Z</time>
      </trkpt>
      <trkpt lat="39.3237490" lon="-0.7705460">
        <ele>517.0</ele>
        <time>2018-09-16T07:16:38Z</time>
      </trkpt>
      <trkpt lat="39.3237470" lon="-0.7705330">
        <ele>517.0</ele>
        <time>2018-09-16T07:16:39Z</time>
      </trkpt>
      <trkpt lat="39.3237470" lon="-0.7705330">
        <ele>517.0</ele>
        <time>2018-09-16T07:16:40Z</time>
      </trkpt>
      <trkpt lat="39.3237420" lon="-0.7704720">
        <ele>517.0</ele>
        <time>2018-09-16T07:16:41Z</time>
      </trkpt>
      <trkpt lat="39.3237330" lon="-0.7704440">
        <ele>517.0</ele>
        <time>2018-09-16T07:16:42Z</time>
      </trkpt>
      <trkpt lat="39.3237320" lon="-0.7704420">
        <ele>517.0</ele>
        <time>2018-09-16T07:16:43Z</time>
      </trkpt>
      <trkpt lat="39.3237300" lon="-0.7704390">
        <ele>517.0</ele>
        <time>2018-09-16T07:16:44Z</time>
      </trkpt>
      <trkpt lat="39.3237280" lon="-0.7704370">
        <ele>517.0</ele>
        <time>2018-09-16T07:16:45Z</time>
      </trkpt>
      <trkpt lat="39.3237260" lon="-0.7704340">
        <ele>517.0</ele>
        <time>2018-09-16T07:16:46Z</time>
      </trkpt>
      <trkpt lat="39.3237250" lon="-0.7704320">
        <ele>517.0</ele>
        <time>2018-09-16T07:16:47Z</time>
      </trkpt>
      <trkpt lat="39.3237230" lon="-0.7704290">
        <ele>517.0</ele>
        <time>2018-09-16T07:16:48Z</time>
      </trkpt>
      <trkpt lat="39.3237210" lon="-0.7704260">
        <ele>517.0</ele>
        <time>2018-09-16T07:16:49Z</time>
      </trkpt>
      <trkpt lat="39.3237190" lon="-0.7704240">
        <ele>517.0</ele>
        <time>2018-09-16T07:16:50Z</time>
      </trkpt>
      <trkpt lat="39.3237180" lon="-0.7704210">
        <ele>517.0</ele>
        <time>2018-09-16T07:16:51Z</time>
      </trkpt>
      <trkpt lat="39.3237160" lon="-0.7704190">
        <ele>517.0</ele>
        <time>2018-09-16T07:16:52Z</time>
      </trkpt>
      <trkpt lat="39.3237140" lon="-0.7704160">
        <ele>517.0</ele>
        <time>2018-09-16T07:16:53Z</time>
      </trkpt>
      <trkpt lat="39.3237120" lon="-0.7704140">
        <ele>517.0</ele>
        <time>2018-09-16T07:16:54Z</time>
      </trkpt>
      <trkpt lat="39.3237110" lon="-0.7704110">
        <ele>517.0</ele>
        <time>2018-09-16T07:16:55Z</time>
      </trkpt>
      <trkpt lat="39.3237090" lon="-0.7704090">
        <ele>518.0</ele>
        <time>2018-09-16T07:16:56Z</time>
      </trkpt>
      <trkpt lat="39.3237070" lon="-0.7704060">
        <ele>518.0</ele>
        <time>2018-09-16T07:16:57Z</time>
      </trkpt>
      <trkpt lat="39.3237050" lon="-0.7704030">
        <ele>518.0</ele>
        <time>2018-09-16T07:16:58Z</time>
      </trkpt>
      <trkpt lat="39.3237040" lon="-0.7704010">
        <ele>518.0</ele>
        <time>2018-09-16T07:16:59Z</time>
      </trkpt>
      <trkpt lat="39.3237020" lon="-0.7703980">
        <ele>518.0</ele>
        <time>2018-09-16T07:17:00Z</time>
      </trkpt>
      <trkpt lat="39.3237000" lon="-0.7703960">
        <ele>518.0</ele>
        <time>2018-09-16T07:17:01Z</time>
      </trkpt>
      <trkpt lat="39.3236980" lon="-0.7703930">
        <ele>518.0</ele>
        <time>2018-09-16T07:17:02Z</time>
      </trkpt>
      <trkpt lat="39.3236970" lon="-0.7703910">
        <ele>518.0</ele>
        <time>2018-09-16T07:17:03Z</time>
      </trkpt>
      <trkpt lat="39.3236950" lon="-0.7703880">
        <ele>518.0</ele>
        <time>2018-09-16T07:17:04Z</time>
      </trkpt>
      <trkpt lat="39.3236930" lon="-0.7703850">
        <ele>518.0</ele>
        <time>2018-09-16T07:17:05Z</time>
      </trkpt>
      <trkpt lat="39.3236910" lon="-0.7703830">
        <ele>518.0</ele>
        <time>2018-09-16T07:17:06Z</time>
      </trkpt>
      <trkpt lat="39.3236900" lon="-0.7703800">
        <ele>518.0</ele>
        <time>2018-09-16T07:17:07Z</time>
      </trkpt>
      <trkpt lat="39.3236880" lon="-0.7703780">
        <ele>518.0</ele>
        <time>2018-09-16T07:17:08Z</time>
      </trkpt>
      <trkpt lat="39.3236860" lon="-0.7703750">
        <ele>518.0</ele>
        <time>2018-09-16T07:17:09Z</time>
      </trkpt>
      <trkpt lat="39.3236840" lon="-0.7703730">
        <ele>518.0</ele>
        <time>2018-09-16T07:17:10Z</time>
      </trkpt>
      <trkpt lat="39.3236830" lon="-0.7703700">
        <ele>518.0</ele>
        <time>2018-09-16T07:17:11Z</time>
      </trkpt>
      <trkpt lat="39.3236810" lon="-0.7703680">
        <ele>518.0</ele>
        <time>2018-09-16T07:17:12Z</time>
      </trkpt>
      <trkpt lat="39.3236790" lon="-0.7703650">
        <ele>518.0</ele>
        <time>2018-09-16T07:17:13Z</time>
      </trkpt>
      <trkpt lat="39.3236770" lon="-0.7703620">
        <ele>518.0</ele>
        <time>2018-09-16T07:17:14Z</time>
      </trkpt>
      <trkpt lat="39.3236760" lon="-0.7703600">
        <ele>518.0</ele>
        <time>2018-09-16T07:17:15Z</time>
      </trkpt>
      <trkpt lat="39.3236740" lon="-0.7703570">
        <ele>518.0</ele>
        <time>2018-09-16T07:17:44Z</time>
      </trkpt>
      <trkpt lat="39.3236720" lon="-0.7703550">
        <ele>517.0</ele>
        <time>2018-09-16T07:17:45Z</time>
      </trkpt>
      <trkpt lat="39.3236700" lon="-0.7703520">
        <ele>517.0</ele>
        <time>2018-09-16T07:17:46Z</time>
      </trkpt>
      <trkpt lat="39.3236690" lon="-0.7703500">
        <ele>517.0</ele>
        <time>2018-09-16T07:17:47Z</time>
      </trkpt>
      <trkpt lat="39.3236670" lon="-0.7703470">
        <ele>517.0</ele>
        <time>2018-09-16T07:17:48Z</time>
      </trkpt>
      <trkpt lat="39.3236530" lon="-0.7703300">
        <ele>517.0</ele>
        <time>2018-09-16T07:17:49Z</time>
      </trkpt>
      <trkpt lat="39.3236530" lon="-0.7703300">
        <ele>517.0</ele>
        <time>2018-09-16T07:17:50Z</time>
      </trkpt>
      <trkpt lat="39.3236250" lon="-0.7703120">
        <ele>517.0</ele>
        <time>2018-09-16T07:17:51Z</time>
      </trkpt>
      <trkpt lat="39.3236250" lon="-0.7703120">
        <ele>517.0</ele>
        <time>2018-09-16T07:17:52Z</time>
      </trkpt>
      <trkpt lat="39.3235970" lon="-0.7703120">
        <ele>518.0</ele>
        <time>2018-09-16T07:17:53Z</time>
      </trkpt>
      <trkpt lat="39.3235970" lon="-0.7703120">
        <ele>518.0</ele>
        <time>2018-09-16T07:17:54Z</time>
      </trkpt>
      <trkpt lat="39.3235680" lon="-0.7703050">
        <ele>518.0</ele>
        <time>2018-09-16T07:17:55Z</time>
      </trkpt>
      <trkpt lat="39.3235680" lon="-0.7703050">
        <ele>518.0</ele>
        <time>2018-09-16T07:17:56Z</time>
      </trkpt>
      <trkpt lat="39.3235420" lon="-0.7702880">
        <ele>518.0</ele>
        <time>2018-09-16T07:17:57Z</time>
      </trkpt>
      <trkpt lat="39.3235320" lon="-0.7702800">
        <ele>518.0</ele>
        <time>2018-09-16T07:17:58Z</time>
      </trkpt>
      <trkpt lat="39.3235320" lon="-0.7702800">
        <ele>519.0</ele>
        <time>2018-09-16T07:17:59Z</time>
      </trkpt>
      <trkpt lat="39.3235080" lon="-0.7702700">
        <ele>519.0</ele>
        <time>2018-09-16T07:18:00Z</time>
      </trkpt>
      <trkpt lat="39.3234970" lon="-0.7702720">
        <ele>519.0</ele>
        <time>2018-09-16T07:18:01Z</time>
      </trkpt>
      <trkpt lat="39.3234850" lon="-0.7702750">
        <ele>519.0</ele>
        <time>2018-09-16T07:18:02Z</time>
      </trkpt>
      <trkpt lat="39.3234850" lon="-0.7702750">
        <ele>519.0</ele>
        <time>2018-09-16T07:18:03Z</time>
      </trkpt>
      <trkpt lat="39.3234770" lon="-0.7702770">
        <ele>519.0</ele>
        <time>2018-09-16T07:18:04Z</time>
      </trkpt>
      <trkpt lat="39.3234770" lon="-0.7702770">
        <ele>519.0</ele>
        <time>2018-09-16T07:18:05Z</time>
      </trkpt>
      <trkpt lat="39.3234770" lon="-0.7702770">
        <ele>519.0</ele>
        <time>2018-09-16T07:18:06Z</time>
      </trkpt>
      <trkpt lat="39.3234780" lon="-0.7702770">
        <ele>519.0</ele>
        <time>2018-09-16T07:18:07Z</time>
      </trkpt>
      <trkpt lat="39.3234780" lon="-0.7702770">
        <ele>519.0</ele>
        <time>2018-09-16T07:18:08Z</time>
      </trkpt>
      <trkpt lat="39.3234780" lon="-0.7702770">
        <ele>519.0</ele>
        <time>2018-09-16T07:18:09Z</time>
      </trkpt>
      <trkpt lat="39.3234780" lon="-0.7702770">
        <ele>519.0</ele>
        <time>2018-09-16T07:18:10Z</time>
      </trkpt>
      <trkpt lat="39.3234780" lon="-0.7702770">
        <ele>519.0</ele>
        <time>2018-09-16T07:18:11Z</time>
      </trkpt>
      <trkpt lat="39.3234780" lon="-0.7702770">
        <ele>519.0</ele>
        <time>2018-09-16T07:18:12Z</time>
      </trkpt>
      <trkpt lat="39.3234780" lon="-0.7702770">
        <ele>519.0</ele>
        <time>2018-09-16T07:18:13Z</time>
      </trkpt>
      <trkpt lat="39.3234780" lon="-0.7702770">
        <ele>519.0</ele>
        <time>2018-09-16T07:18:14Z</time>
      </trkpt>
      <trkpt lat="39.3234780" lon="-0.7702770">
        <ele>519.0</ele>
        <time>2018-09-16T07:18:15Z</time>
      </trkpt>
      <trkpt lat="39.3234780" lon="-0.7702770">
        <ele>519.0</ele>
        <time>2018-09-16T07:18:16Z</time>
      </trkpt>
      <trkpt lat="39.3234780" lon="-0.7702770">
        <ele>519.0</ele>
        <time>2018-09-16T07:18:17Z</time>
      </trkpt>
      <trkpt lat="39.3234780" lon="-0.7702770">
        <ele>519.0</ele>
        <time>2018-09-16T07:18:18Z</time>
      </trkpt>
      <trkpt lat="39.3234780" lon="-0.7702770">
        <ele>519.0</ele>
        <time>2018-09-16T07:18:19Z</time>
      </trkpt>
      <trkpt lat="39.3234780" lon="-0.7702770">
        <ele>519.0</ele>
        <time>2018-09-16T07:18:20Z</time>
      </trkpt>
      <trkpt lat="39.3234780" lon="-0.7702770">
        <ele>519.0</ele>
        <time>2018-09-16T07:18:21Z</time>
      </trkpt>
      <trkpt lat="39.3234780" lon="-0.7702770">
        <ele>519.0</ele>
        <time>2018-09-16T07:18:22Z</time>
      </trkpt>
      <trkpt lat="39.3234780" lon="-0.7702770">
        <ele>519.0</ele>
        <time>2018-09-16T07:18:23Z</time>
      </trkpt>
      <trkpt lat="39.3234780" lon="-0.7702770">
        <ele>519.0</ele>
        <time>2018-09-16T07:18:24Z</time>
      </trkpt>
      <trkpt lat="39.3234780" lon="-0.7702770">
        <ele>519.0</ele>
        <time>2018-09-16T07:18:25Z</time>
      </trkpt>
      <trkpt lat="39.3234780" lon="-0.7702770">
        <ele>519.0</ele>
        <time>2018-09-16T07:18:26Z</time>
      </trkpt>
      <trkpt lat="39.3234780" lon="-0.7702770">
        <ele>519.0</ele>
        <time>2018-09-16T07:18:27Z</time>
      </trkpt>
      <trkpt lat="39.3234780" lon="-0.7702770">
        <ele>519.0</ele>
        <time>2018-09-16T07:18:28Z</time>
      </trkpt>
      <trkpt lat="39.3234780" lon="-0.7702770">
        <ele>519.0</ele>
        <time>2018-09-16T07:18:29Z</time>
      </trkpt>
      <trkpt lat="39.3234780" lon="-0.7702770">
        <ele>519.0</ele>
        <time>2018-09-16T07:18:30Z</time>
      </trkpt>
      <trkpt lat="39.3234780" lon="-0.7702770">
        <ele>519.0</ele>
        <time>2018-09-16T07:18:31Z</time>
      </trkpt>
      <trkpt lat="39.3234780" lon="-0.7702770">
        <ele>519.0</ele>
        <time>2018-09-16T07:18:32Z</time>
      </trkpt>
      <trkpt lat="39.3234780" lon="-0.7702770">
        <ele>519.0</ele>
        <time>2018-09-16T07:18:33Z</time>
      </trkpt>
      <trkpt lat="39.3234780" lon="-0.7702770">
        <ele>519.0</ele>
        <time>2018-09-16T07:18:34Z</time>
      </trkpt>
      <trkpt lat="39.3234780" lon="-0.7702770">
        <ele>519.0</ele>
        <time>2018-09-16T07:18:35Z</time>
      </trkpt>
      <trkpt lat="39.3234780" lon="-0.7702770">
        <ele>519.0</ele>
        <time>2018-09-16T07:18:36Z</time>
      </trkpt>
      <trkpt lat="39.3234780" lon="-0.7702770">
        <ele>519.0</ele>
        <time>2018-09-16T07:18:37Z</time>
      </trkpt>
      <trkpt lat="39.3234780" lon="-0.7702770">
        <ele>519.0</ele>
        <time>2018-09-16T07:18:38Z</time>
      </trkpt>
      <trkpt lat="39.3234780" lon="-0.7702770">
        <ele>519.0</ele>
        <time>2018-09-16T07:18:39Z</time>
      </trkpt>
      <trkpt lat="39.3234780" lon="-0.7702770">
        <ele>519.0</ele>
        <time>2018-09-16T07:18:40Z</time>
      </trkpt>
      <trkpt lat="39.3234780" lon="-0.7702770">
        <ele>519.0</ele>
        <time>2018-09-16T07:18:41Z</time>
      </trkpt>
      <trkpt lat="39.3234780" lon="-0.7702770">
        <ele>519.0</ele>
        <time>2018-09-16T07:18:42Z</time>
      </trkpt>
      <trkpt lat="39.3234780" lon="-0.7702770">
        <ele>519.0</ele>
        <time>2018-09-16T07:18:43Z</time>
      </trkpt>
      <trkpt lat="39.3234780" lon="-0.7702770">
        <ele>519.0</ele>
        <time>2018-09-16T07:18:44Z</time>
      </trkpt>
      <trkpt lat="39.3234780" lon="-0.7702770">
        <ele>519.0</ele>
        <time>2018-09-16T07:18:45Z</time>
      </trkpt>
      <trkpt lat="39.3234780" lon="-0.7702770">
        <ele>519.0</ele>
        <time>2018-09-16T07:18:46Z</time>
      </trkpt>
      <trkpt lat="39.3234780" lon="-0.7702770">
        <ele>519.0</ele>
        <time>2018-09-16T07:18:47Z</time>
      </trkpt>
      <trkpt lat="39.3234780" lon="-0.7702770">
        <ele>519.0</ele>
        <time>2018-09-16T07:18:48Z</time>
      </trkpt>
      <trkpt lat="39.3234780" lon="-0.7702770">
        <ele>519.0</ele>
        <time>2018-09-16T07:18:49Z</time>
      </trkpt>
      <trkpt lat="39.3234780" lon="-0.7702770">
        <ele>519.0</ele>
        <time>2018-09-16T07:18:50Z</time>
      </trkpt>
      <trkpt lat="39.3234780" lon="-0.7702770">
        <ele>519.0</ele>
        <time>2018-09-16T07:18:51Z</time>
      </trkpt>
      <trkpt lat="39.3234780" lon="-0.7702770">
        <ele>519.0</ele>
        <time>2018-09-16T07:18:52Z</time>
      </trkpt>
      <trkpt lat="39.3234780" lon="-0.7702770">
        <ele>519.0</ele>
        <time>2018-09-16T07:18:53Z</time>
      </trkpt>
      <trkpt lat="39.3234780" lon="-0.7702770">
        <ele>519.0</ele>
        <time>2018-09-16T07:18:54Z</time>
      </trkpt>
      <trkpt lat="39.3234780" lon="-0.7702770">
        <ele>519.0</ele>
        <time>2018-09-16T07:18:55Z</time>
      </trkpt>
      <trkpt lat="39.3234780" lon="-0.7702770">
        <ele>519.0</ele>
        <time>2018-09-16T07:18:56Z</time>
      </trkpt>
      <trkpt lat="39.3234780" lon="-0.7702770">
        <ele>519.0</ele>
        <time>2018-09-16T07:18:57Z</time>
      </trkpt>
      <trkpt lat="39.3234780" lon="-0.7702770">
        <ele>519.0</ele>
        <time>2018-09-16T07:18:58Z</time>
      </trkpt>
      <trkpt lat="39.3234780" lon="-0.7702770">
        <ele>519.0</ele>
        <time>2018-09-16T07:18:59Z</time>
      </trkpt>
      <trkpt lat="39.3234780" lon="-0.7702770">
        <ele>519.0</ele>
        <time>2018-09-16T07:19:00Z</time>
      </trkpt>
      <trkpt lat="39.3234780" lon="-0.7702770">
        <ele>519.0</ele>
        <time>2018-09-16T07:19:01Z</time>
      </trkpt>
      <trkpt lat="39.3234780" lon="-0.7702770">
        <ele>519.0</ele>
        <time>2018-09-16T07:19:02Z</time>
      </trkpt>
      <trkpt lat="39.3234780" lon="-0.7702770">
        <ele>519.0</ele>
        <time>2018-09-16T07:19:03Z</time>
      </trkpt>
      <trkpt lat="39.3234780" lon="-0.7702770">
        <ele>519.0</ele>
        <time>2018-09-16T07:19:04Z</time>
      </trkpt>
      <trkpt lat="39.3235080" lon="-0.7702830">
        <ele>519.0</ele>
        <time>2018-09-16T07:19:05Z</time>
      </trkpt>
      <trkpt lat="39.3235080" lon="-0.7702830">
        <ele>519.0</ele>
        <time>2018-09-16T07:19:06Z</time>
      </trkpt>
      <trkpt lat="39.3235430" lon="-0.7702950">
        <ele>519.0</ele>
        <time>2018-09-16T07:19:07Z</time>
      </trkpt>
      <trkpt lat="39.3235430" lon="-0.7702950">
        <ele>520.0</ele>
        <time>2018-09-16T07:19:08Z</time>
      </trkpt>
      <trkpt lat="39.3235850" lon="-0.7703150">
        <ele>520.0</ele>
        <time>2018-09-16T07:19:09Z</time>
      </trkpt>
      <trkpt lat="39.3236020" lon="-0.7703230">
        <ele>520.0</ele>
        <time>2018-09-16T07:19:10Z</time>
      </trkpt>
      <trkpt lat="39.3236020" lon="-0.7703230">
        <ele>520.0</ele>
        <time>2018-09-16T07:19:11Z</time>
      </trkpt>
      <trkpt lat="39.3236380" lon="-0.7703400">
        <ele>520.0</ele>
        <time>2018-09-16T07:19:12Z</time>
      </trkpt>
      <trkpt lat="39.3236380" lon="-0.7703400">
        <ele>520.0</ele>
        <time>2018-09-16T07:19:13Z</time>
      </trkpt>
      <trkpt lat="39.3236770" lon="-0.7703670">
        <ele>519.0</ele>
        <time>2018-09-16T07:19:14Z</time>
      </trkpt>
      <trkpt lat="39.3236770" lon="-0.7703670">
        <ele>519.0</ele>
        <time>2018-09-16T07:19:15Z</time>
      </trkpt>
      <trkpt lat="39.3237050" lon="-0.7703730">
        <ele>519.0</ele>
        <time>2018-09-16T07:19:16Z</time>
      </trkpt>
      <trkpt lat="39.3237050" lon="-0.7703730">
        <ele>519.0</ele>
        <time>2018-09-16T07:19:17Z</time>
      </trkpt>
      <trkpt lat="39.3237080" lon="-0.7703750">
        <ele>519.0</ele>
        <time>2018-09-16T07:19:18Z</time>
      </trkpt>
      <trkpt lat="39.3237080" lon="-0.7703750">
        <ele>519.0</ele>
        <time>2018-09-16T07:19:40Z</time>
      </trkpt>
      <trkpt lat="39.3237080" lon="-0.7703750">
        <ele>518.0</ele>
        <time>2018-09-16T07:19:41Z</time>
      </trkpt>
      <trkpt lat="39.3237080" lon="-0.7703750">
        <ele>518.0</ele>
        <time>2018-09-16T07:19:42Z</time>
      </trkpt>
      <trkpt lat="39.3237080" lon="-0.7703750">
        <ele>518.0</ele>
        <time>2018-09-16T07:19:43Z</time>
      </trkpt>
      <trkpt lat="39.3237080" lon="-0.7703750">
        <ele>518.0</ele>
        <time>2018-09-16T07:19:44Z</time>
      </trkpt>
      <trkpt lat="39.3237080" lon="-0.7703750">
        <ele>518.0</ele>
        <time>2018-09-16T07:19:45Z</time>
      </trkpt>
      <trkpt lat="39.3237080" lon="-0.7703750">
        <ele>518.0</ele>
        <time>2018-09-16T07:19:46Z</time>
      </trkpt>
      <trkpt lat="39.3237280" lon="-0.7703350">
        <ele>518.0</ele>
        <time>2018-09-16T07:19:47Z</time>
      </trkpt>
      <trkpt lat="39.3237280" lon="-0.7703350">
        <ele>518.0</ele>
        <time>2018-09-16T07:19:48Z</time>
      </trkpt>
      <trkpt lat="39.3237480" lon="-0.7702980">
        <ele>518.0</ele>
        <time>2018-09-16T07:19:49Z</time>
      </trkpt>
      <trkpt lat="39.3237480" lon="-0.7702980">
        <ele>518.0</ele>
        <time>2018-09-16T07:19:50Z</time>
      </trkpt>
      <trkpt lat="39.3237670" lon="-0.7702650">
        <ele>518.0</ele>
        <time>2018-09-16T07:19:51Z</time>
      </trkpt>
      <trkpt lat="39.3237670" lon="-0.7702650">
        <ele>518.0</ele>
        <time>2018-09-16T07:19:52Z</time>
      </trkpt>
      <trkpt lat="39.3237950" lon="-0.7702350">
        <ele>518.0</ele>
        <time>2018-09-16T07:19:53Z</time>
      </trkpt>
      <trkpt lat="39.3238170" lon="-0.7702180">
        <ele>518.0</ele>
        <time>2018-09-16T07:19:54Z</time>
      </trkpt>
      <trkpt lat="39.3238400" lon="-0.7702030">
        <ele>518.0</ele>
        <time>2018-09-16T07:19:55Z</time>
      </trkpt>
      <trkpt lat="39.3238400" lon="-0.7702030">
        <ele>518.0</ele>
        <time>2018-09-16T07:19:56Z</time>
      </trkpt>
      <trkpt lat="39.3238950" lon="-0.7701730">
        <ele>518.0</ele>
        <time>2018-09-16T07:19:57Z</time>
      </trkpt>
      <trkpt lat="39.3238950" lon="-0.7701730">
        <ele>518.0</ele>
        <time>2018-09-16T07:19:58Z</time>
      </trkpt>
      <trkpt lat="39.3239520" lon="-0.7701380">
        <ele>518.0</ele>
        <time>2018-09-16T07:19:59Z</time>
      </trkpt>
      <trkpt lat="39.3239520" lon="-0.7701380">
        <ele>518.0</ele>
        <time>2018-09-16T07:20:00Z</time>
      </trkpt>
      <trkpt lat="39.3240020" lon="-0.7700930">
        <ele>518.0</ele>
        <time>2018-09-16T07:20:01Z</time>
      </trkpt>
      <trkpt lat="39.3240020" lon="-0.7700930">
        <ele>516.0</ele>
        <time>2018-09-16T07:20:02Z</time>
      </trkpt>
      <trkpt lat="39.3240380" lon="-0.7700320">
        <ele>516.0</ele>
        <time>2018-09-16T07:20:03Z</time>
      </trkpt>
      <trkpt lat="39.3240480" lon="-0.7699980">
        <ele>516.0</ele>
        <time>2018-09-16T07:20:04Z</time>
      </trkpt>
      <trkpt lat="39.3240480" lon="-0.7699980">
        <ele>516.0</ele>
        <time>2018-09-16T07:20:05Z</time>
      </trkpt>
      <trkpt lat="39.3240570" lon="-0.7699220">
        <ele>516.0</ele>
        <time>2018-09-16T07:20:06Z</time>
      </trkpt>
      <trkpt lat="39.3240580" lon="-0.7698780">
        <ele>516.0</ele>
        <time>2018-09-16T07:20:07Z</time>
      </trkpt>
      <trkpt lat="39.3240580" lon="-0.7698780">
        <ele>516.0</ele>
        <time>2018-09-16T07:20:08Z</time>
      </trkpt>
      <trkpt lat="39.3240530" lon="-0.7697880">
        <ele>516.0</ele>
        <time>2018-09-16T07:20:09Z</time>
      </trkpt>
      <trkpt lat="39.3240530" lon="-0.7697880">
        <ele>516.0</ele>
        <time>2018-09-16T07:20:10Z</time>
      </trkpt>
      <trkpt lat="39.3240420" lon="-0.7697070">
        <ele>516.0</ele>
        <time>2018-09-16T07:20:11Z</time>
      </trkpt>
      <trkpt lat="39.3240420" lon="-0.7697070">
        <ele>516.0</ele>
        <time>2018-09-16T07:20:12Z</time>
      </trkpt>
      <trkpt lat="39.3240370" lon="-0.7696350">
        <ele>516.0</ele>
        <time>2018-09-16T07:20:13Z</time>
      </trkpt>
      <trkpt lat="39.3240370" lon="-0.7696350">
        <ele>515.0</ele>
        <time>2018-09-16T07:20:14Z</time>
      </trkpt>
      <trkpt lat="39.3240270" lon="-0.7695480">
        <ele>514.0</ele>
        <time>2018-09-16T07:20:15Z</time>
      </trkpt>
      <trkpt lat="39.3240270" lon="-0.7695480">
        <ele>514.0</ele>
        <time>2018-09-16T07:20:16Z</time>
      </trkpt>
      <trkpt lat="39.3240220" lon="-0.7694580">
        <ele>514.0</ele>
        <time>2018-09-16T07:20:17Z</time>
      </trkpt>
      <trkpt lat="39.3240220" lon="-0.7694580">
        <ele>514.0</ele>
        <time>2018-09-16T07:20:18Z</time>
      </trkpt>
      <trkpt lat="39.3240250" lon="-0.7693550">
        <ele>514.0</ele>
        <time>2018-09-16T07:20:19Z</time>
      </trkpt>
      <trkpt lat="39.3240250" lon="-0.7693550">
        <ele>514.0</ele>
        <time>2018-09-16T07:20:20Z</time>
      </trkpt>
      <trkpt lat="39.3240280" lon="-0.7692480">
        <ele>514.0</ele>
        <time>2018-09-16T07:20:21Z</time>
      </trkpt>
      <trkpt lat="39.3240270" lon="-0.7692020">
        <ele>514.0</ele>
        <time>2018-09-16T07:20:22Z</time>
      </trkpt>
      <trkpt lat="39.3240270" lon="-0.7691570">
        <ele>514.0</ele>
        <time>2018-09-16T07:20:23Z</time>
      </trkpt>
      <trkpt lat="39.3240270" lon="-0.7691570">
        <ele>514.0</ele>
        <time>2018-09-16T07:20:24Z</time>
      </trkpt>
      <trkpt lat="39.3240230" lon="-0.7690830">
        <ele>513.0</ele>
        <time>2018-09-16T07:20:25Z</time>
      </trkpt>
      <trkpt lat="39.3240230" lon="-0.7690830">
        <ele>513.0</ele>
        <time>2018-09-16T07:20:26Z</time>
      </trkpt>
      <trkpt lat="39.3240120" lon="-0.7690170">
        <ele>513.0</ele>
        <time>2018-09-16T07:20:27Z</time>
      </trkpt>
      <trkpt lat="39.3240120" lon="-0.7690170">
        <ele>513.0</ele>
        <time>2018-09-16T07:20:28Z</time>
      </trkpt>
      <trkpt lat="39.3239880" lon="-0.7689580">
        <ele>513.0</ele>
        <time>2018-09-16T07:20:29Z</time>
      </trkpt>
      <trkpt lat="39.3239780" lon="-0.7689320">
        <ele>513.0</ele>
        <time>2018-09-16T07:20:30Z</time>
      </trkpt>
      <trkpt lat="39.3239780" lon="-0.7689320">
        <ele>513.0</ele>
        <time>2018-09-16T07:20:31Z</time>
      </trkpt>
      <trkpt lat="39.3239500" lon="-0.7688720">
        <ele>513.0</ele>
        <time>2018-09-16T07:20:32Z</time>
      </trkpt>
      <trkpt lat="39.3239500" lon="-0.7688720">
        <ele>512.0</ele>
        <time>2018-09-16T07:20:33Z</time>
      </trkpt>
      <trkpt lat="39.3239200" lon="-0.7688200">
        <ele>512.0</ele>
        <time>2018-09-16T07:20:34Z</time>
      </trkpt>
      <trkpt lat="39.3239200" lon="-0.7688200">
        <ele>512.0</ele>
        <time>2018-09-16T07:20:35Z</time>
      </trkpt>
      <trkpt lat="39.3238780" lon="-0.7687320">
        <ele>512.0</ele>
        <time>2018-09-16T07:20:36Z</time>
      </trkpt>
      <trkpt lat="39.3238680" lon="-0.7687120">
        <ele>512.0</ele>
        <time>2018-09-16T07:20:37Z</time>
      </trkpt>
      <trkpt lat="39.3238680" lon="-0.7687120">
        <ele>512.0</ele>
        <time>2018-09-16T07:20:38Z</time>
      </trkpt>
      <trkpt lat="39.3238230" lon="-0.7686230">
        <ele>512.0</ele>
        <time>2018-09-16T07:20:39Z</time>
      </trkpt>
      <trkpt lat="39.3238050" lon="-0.7685750">
        <ele>512.0</ele>
        <time>2018-09-16T07:20:40Z</time>
      </trkpt>
      <trkpt lat="39.3238050" lon="-0.7685750">
        <ele>512.0</ele>
        <time>2018-09-16T07:20:41Z</time>
      </trkpt>
      <trkpt lat="39.3237720" lon="-0.7684980">
        <ele>512.0</ele>
        <time>2018-09-16T07:20:42Z</time>
      </trkpt>
      <trkpt lat="39.3237720" lon="-0.7684980">
        <ele>512.0</ele>
        <time>2018-09-16T07:20:43Z</time>
      </trkpt>
      <trkpt lat="39.3237550" lon="-0.7684330">
        <ele>512.0</ele>
        <time>2018-09-16T07:20:44Z</time>
      </trkpt>
      <trkpt lat="39.3237550" lon="-0.7684330">
        <ele>512.0</ele>
        <time>2018-09-16T07:20:45Z</time>
      </trkpt>
      <trkpt lat="39.3237550" lon="-0.7683730">
        <ele>511.0</ele>
        <time>2018-09-16T07:20:46Z</time>
      </trkpt>
      <trkpt lat="39.3237570" lon="-0.7683330">
        <ele>511.0</ele>
        <time>2018-09-16T07:20:47Z</time>
      </trkpt>
      <trkpt lat="39.3237580" lon="-0.7682930">
        <ele>511.0</ele>
        <time>2018-09-16T07:20:48Z</time>
      </trkpt>
      <trkpt lat="39.3237580" lon="-0.7682930">
        <ele>511.0</ele>
        <time>2018-09-16T07:20:49Z</time>
      </trkpt>
      <trkpt lat="39.3237600" lon="-0.7682150">
        <ele>511.0</ele>
        <time>2018-09-16T07:20:50Z</time>
      </trkpt>
      <trkpt lat="39.3237630" lon="-0.7681750">
        <ele>511.0</ele>
        <time>2018-09-16T07:20:51Z</time>
      </trkpt>
      <trkpt lat="39.3237630" lon="-0.7681750">
        <ele>511.0</ele>
        <time>2018-09-16T07:20:52Z</time>
      </trkpt>
      <trkpt lat="39.3237720" lon="-0.7680820">
        <ele>511.0</ele>
        <time>2018-09-16T07:20:53Z</time>
      </trkpt>
      <trkpt lat="39.3237720" lon="-0.7680820">
        <ele>511.0</ele>
        <time>2018-09-16T07:20:54Z</time>
      </trkpt>
      <trkpt lat="39.3237650" lon="-0.7679780">
        <ele>510.0</ele>
        <time>2018-09-16T07:20:55Z</time>
      </trkpt>
      <trkpt lat="39.3237650" lon="-0.7679780">
        <ele>510.0</ele>
        <time>2018-09-16T07:20:56Z</time>
      </trkpt>
      <trkpt lat="39.3237420" lon="-0.7678830">
        <ele>510.0</ele>
        <time>2018-09-16T07:20:57Z</time>
      </trkpt>
      <trkpt lat="39.3237280" lon="-0.7678380">
        <ele>510.0</ele>
        <time>2018-09-16T07:20:58Z</time>
      </trkpt>
      <trkpt lat="39.3237170" lon="-0.7677920">
        <ele>510.0</ele>
        <time>2018-09-16T07:20:59Z</time>
      </trkpt>
      <trkpt lat="39.3237170" lon="-0.7677920">
        <ele>510.0</ele>
        <time>2018-09-16T07:21:00Z</time>
      </trkpt>
      <trkpt lat="39.3236900" lon="-0.7676930">
        <ele>509.0</ele>
        <time>2018-09-16T07:21:01Z</time>
      </trkpt>
      <trkpt lat="39.3236900" lon="-0.7676930">
        <ele>509.0</ele>
        <time>2018-09-16T07:21:02Z</time>
      </trkpt>
      <trkpt lat="39.3236600" lon="-0.7675930">
        <ele>509.0</ele>
        <time>2018-09-16T07:21:03Z</time>
      </trkpt>
      <trkpt lat="39.3236470" lon="-0.7675530">
        <ele>509.0</ele>
        <time>2018-09-16T07:21:04Z</time>
      </trkpt>
      <trkpt lat="39.3236350" lon="-0.7675170">
        <ele>509.0</ele>
        <time>2018-09-16T07:21:05Z</time>
      </trkpt>
      <trkpt lat="39.3236350" lon="-0.7675170">
        <ele>509.0</ele>
        <time>2018-09-16T07:21:06Z</time>
      </trkpt>
      <trkpt lat="39.3236130" lon="-0.7674500">
        <ele>509.0</ele>
        <time>2018-09-16T07:21:07Z</time>
      </trkpt>
      <trkpt lat="39.3236130" lon="-0.7674500">
        <ele>509.0</ele>
        <time>2018-09-16T07:21:08Z</time>
      </trkpt>
      <trkpt lat="39.3235930" lon="-0.7673670">
        <ele>509.0</ele>
        <time>2018-09-16T07:21:09Z</time>
      </trkpt>
      <trkpt lat="39.3235930" lon="-0.7673670">
        <ele>509.0</ele>
        <time>2018-09-16T07:21:10Z</time>
      </trkpt>
      <trkpt lat="39.3235700" lon="-0.7672620">
        <ele>509.0</ele>
        <time>2018-09-16T07:21:11Z</time>
      </trkpt>
      <trkpt lat="39.3235700" lon="-0.7672620">
        <ele>509.0</ele>
        <time>2018-09-16T07:21:12Z</time>
      </trkpt>
      <trkpt lat="39.3235450" lon="-0.7671480">
        <ele>509.0</ele>
        <time>2018-09-16T07:21:13Z</time>
      </trkpt>
      <trkpt lat="39.3235450" lon="-0.7671480">
        <ele>509.0</ele>
        <time>2018-09-16T07:21:14Z</time>
      </trkpt>
      <trkpt lat="39.3235200" lon="-0.7670280">
        <ele>509.0</ele>
        <time>2018-09-16T07:21:15Z</time>
      </trkpt>
      <trkpt lat="39.3235100" lon="-0.7669680">
        <ele>508.0</ele>
        <time>2018-09-16T07:21:16Z</time>
      </trkpt>
      <trkpt lat="39.3235100" lon="-0.7669680">
        <ele>508.0</ele>
        <time>2018-09-16T07:21:17Z</time>
      </trkpt>
      <trkpt lat="39.3234900" lon="-0.7668750">
        <ele>508.0</ele>
        <time>2018-09-16T07:21:18Z</time>
      </trkpt>
      <trkpt lat="39.3234730" lon="-0.7668370">
        <ele>508.0</ele>
        <time>2018-09-16T07:21:19Z</time>
      </trkpt>
      <trkpt lat="39.3234730" lon="-0.7668370">
        <ele>508.0</ele>
        <time>2018-09-16T07:21:20Z</time>
      </trkpt>
      <trkpt lat="39.3234430" lon="-0.7667650">
        <ele>508.0</ele>
        <time>2018-09-16T07:21:21Z</time>
      </trkpt>
      <trkpt lat="39.3234430" lon="-0.7667650">
        <ele>508.0</ele>
        <time>2018-09-16T07:21:22Z</time>
      </trkpt>
      <trkpt lat="39.3234120" lon="-0.7666920">
        <ele>508.0</ele>
        <time>2018-09-16T07:21:23Z</time>
      </trkpt>
      <trkpt lat="39.3233930" lon="-0.7666580">
        <ele>508.0</ele>
        <time>2018-09-16T07:21:24Z</time>
      </trkpt>
      <trkpt lat="39.3233930" lon="-0.7666580">
        <ele>508.0</ele>
        <time>2018-09-16T07:21:25Z</time>
      </trkpt>
      <trkpt lat="39.3233570" lon="-0.7666020">
        <ele>508.0</ele>
        <time>2018-09-16T07:21:26Z</time>
      </trkpt>
      <trkpt lat="39.3233420" lon="-0.7665750">
        <ele>508.0</ele>
        <time>2018-09-16T07:21:27Z</time>
      </trkpt>
      <trkpt lat="39.3233420" lon="-0.7665750">
        <ele>508.0</ele>
        <time>2018-09-16T07:21:28Z</time>
      </trkpt>
      <trkpt lat="39.3233220" lon="-0.7665270">
        <ele>508.0</ele>
        <time>2018-09-16T07:21:29Z</time>
      </trkpt>
      <trkpt lat="39.3233130" lon="-0.7665050">
        <ele>508.0</ele>
        <time>2018-09-16T07:21:30Z</time>
      </trkpt>
      <trkpt lat="39.3233030" lon="-0.7664830">
        <ele>508.0</ele>
        <time>2018-09-16T07:21:31Z</time>
      </trkpt>
      <trkpt lat="39.3232880" lon="-0.7664630">
        <ele>508.0</ele>
        <time>2018-09-16T07:21:32Z</time>
      </trkpt>
      <trkpt lat="39.3232880" lon="-0.7664630">
        <ele>508.0</ele>
        <time>2018-09-16T07:21:33Z</time>
      </trkpt>
      <trkpt lat="39.3232630" lon="-0.7664280">
        <ele>508.0</ele>
        <time>2018-09-16T07:21:34Z</time>
      </trkpt>
      <trkpt lat="39.3232630" lon="-0.7664280">
        <ele>508.0</ele>
        <time>2018-09-16T07:21:35Z</time>
      </trkpt>
      <trkpt lat="39.3232350" lon="-0.7663920">
        <ele>508.0</ele>
        <time>2018-09-16T07:21:36Z</time>
      </trkpt>
      <trkpt lat="39.3232200" lon="-0.7663750">
        <ele>508.0</ele>
        <time>2018-09-16T07:21:37Z</time>
      </trkpt>
      <trkpt lat="39.3232200" lon="-0.7663750">
        <ele>508.0</ele>
        <time>2018-09-16T07:21:38Z</time>
      </trkpt>
      <trkpt lat="39.3231930" lon="-0.7663420">
        <ele>508.0</ele>
        <time>2018-09-16T07:21:39Z</time>
      </trkpt>
      <trkpt lat="39.3231800" lon="-0.7663230">
        <ele>509.0</ele>
        <time>2018-09-16T07:21:40Z</time>
      </trkpt>
      <trkpt lat="39.3231800" lon="-0.7663230">
        <ele>509.0</ele>
        <time>2018-09-16T07:21:41Z</time>
      </trkpt>
      <trkpt lat="39.3231390" lon="-0.7662930">
        <ele>510.0</ele>
        <time>2018-09-16T07:21:42Z</time>
      </trkpt>
      <trkpt lat="39.3231280" lon="-0.7662870">
        <ele>510.0</ele>
        <time>2018-09-16T07:21:43Z</time>
      </trkpt>
      <trkpt lat="39.3231170" lon="-0.7662800">
        <ele>510.0</ele>
        <time>2018-09-16T07:21:44Z</time>
      </trkpt>
      <trkpt lat="39.3230980" lon="-0.7662730">
        <ele>510.0</ele>
        <time>2018-09-16T07:21:45Z</time>
      </trkpt>
      <trkpt lat="39.3230980" lon="-0.7662730">
        <ele>510.0</ele>
        <time>2018-09-16T07:21:46Z</time>
      </trkpt>
      <trkpt lat="39.3230550" lon="-0.7662650">
        <ele>510.0</ele>
        <time>2018-09-16T07:21:47Z</time>
      </trkpt>
      <trkpt lat="39.3230370" lon="-0.7662670">
        <ele>510.0</ele>
        <time>2018-09-16T07:21:48Z</time>
      </trkpt>
      <trkpt lat="39.3230370" lon="-0.7662670">
        <ele>510.0</ele>
        <time>2018-09-16T07:21:49Z</time>
      </trkpt>
      <trkpt lat="39.3229930" lon="-0.7662720">
        <ele>510.0</ele>
        <time>2018-09-16T07:21:50Z</time>
      </trkpt>
      <trkpt lat="39.3229660" lon="-0.7662720">
        <ele>510.0</ele>
        <time>2018-09-16T07:21:51Z</time>
      </trkpt>
      <trkpt lat="39.3229380" lon="-0.7662720">
        <ele>510.0</ele>
        <time>2018-09-16T07:21:52Z</time>
      </trkpt>
      <trkpt lat="39.3229120" lon="-0.7662700">
        <ele>510.0</ele>
        <time>2018-09-16T07:21:53Z</time>
      </trkpt>
      <trkpt lat="39.3229120" lon="-0.7662700">
        <ele>510.0</ele>
        <time>2018-09-16T07:21:54Z</time>
      </trkpt>
      <trkpt lat="39.3228650" lon="-0.7662680">
        <ele>510.0</ele>
        <time>2018-09-16T07:21:55Z</time>
      </trkpt>
      <trkpt lat="39.3228650" lon="-0.7662680">
        <ele>510.0</ele>
        <time>2018-09-16T07:21:56Z</time>
      </trkpt>
      <trkpt lat="39.3228280" lon="-0.7662530">
        <ele>510.0</ele>
        <time>2018-09-16T07:21:57Z</time>
      </trkpt>
      <trkpt lat="39.3228080" lon="-0.7662400">
        <ele>510.0</ele>
        <time>2018-09-16T07:21:58Z</time>
      </trkpt>
      <trkpt lat="39.3227880" lon="-0.7662360">
        <ele>510.0</ele>
        <time>2018-09-16T07:21:59Z</time>
      </trkpt>
      <trkpt lat="39.3227670" lon="-0.7662330">
        <ele>510.0</ele>
        <time>2018-09-16T07:22:00Z</time>
      </trkpt>
      <trkpt lat="39.3227450" lon="-0.7662420">
        <ele>510.0</ele>
        <time>2018-09-16T07:22:01Z</time>
      </trkpt>
      <trkpt lat="39.3227450" lon="-0.7662420">
        <ele>510.0</ele>
        <time>2018-09-16T07:22:02Z</time>
      </trkpt>
      <trkpt lat="39.3226970" lon="-0.7662630">
        <ele>510.0</ele>
        <time>2018-09-16T07:22:03Z</time>
      </trkpt>
      <trkpt lat="39.3226670" lon="-0.7662770">
        <ele>510.0</ele>
        <time>2018-09-16T07:22:04Z</time>
      </trkpt>
      <trkpt lat="39.3226370" lon="-0.7662870">
        <ele>510.0</ele>
        <time>2018-09-16T07:22:05Z</time>
      </trkpt>
      <trkpt lat="39.3226070" lon="-0.7662970">
        <ele>510.0</ele>
        <time>2018-09-16T07:22:06Z</time>
      </trkpt>
      <trkpt lat="39.3226070" lon="-0.7662970">
        <ele>510.0</ele>
        <time>2018-09-16T07:22:07Z</time>
      </trkpt>
      <trkpt lat="39.3225500" lon="-0.7663120">
        <ele>510.0</ele>
        <time>2018-09-16T07:22:08Z</time>
      </trkpt>
      <trkpt lat="39.3225500" lon="-0.7663120">
        <ele>510.0</ele>
        <time>2018-09-16T07:22:09Z</time>
      </trkpt>
      <trkpt lat="39.3224800" lon="-0.7663250">
        <ele>510.0</ele>
        <time>2018-09-16T07:22:10Z</time>
      </trkpt>
      <trkpt lat="39.3224800" lon="-0.7663250">
        <ele>510.0</ele>
        <time>2018-09-16T07:22:11Z</time>
      </trkpt>
      <trkpt lat="39.3223970" lon="-0.7663500">
        <ele>509.0</ele>
        <time>2018-09-16T07:22:12Z</time>
      </trkpt>
      <trkpt lat="39.3223620" lon="-0.7663630">
        <ele>509.0</ele>
        <time>2018-09-16T07:22:13Z</time>
      </trkpt>
      <trkpt lat="39.3223340" lon="-0.7663720">
        <ele>509.0</ele>
        <time>2018-09-16T07:22:14Z</time>
      </trkpt>
      <trkpt lat="39.3223050" lon="-0.7663800">
        <ele>509.0</ele>
        <time>2018-09-16T07:22:15Z</time>
      </trkpt>
      <trkpt lat="39.3223050" lon="-0.7663800">
        <ele>509.0</ele>
        <time>2018-09-16T07:22:16Z</time>
      </trkpt>
      <trkpt lat="39.3222530" lon="-0.7663870">
        <ele>509.0</ele>
        <time>2018-09-16T07:22:17Z</time>
      </trkpt>
      <trkpt lat="39.3222530" lon="-0.7663870">
        <ele>509.0</ele>
        <time>2018-09-16T07:22:18Z</time>
      </trkpt>
      <trkpt lat="39.3222100" lon="-0.7663930">
        <ele>509.0</ele>
        <time>2018-09-16T07:22:19Z</time>
      </trkpt>
      <trkpt lat="39.3222100" lon="-0.7663930">
        <ele>509.0</ele>
        <time>2018-09-16T07:22:20Z</time>
      </trkpt>
      <trkpt lat="39.3221730" lon="-0.7664000">
        <ele>509.0</ele>
        <time>2018-09-16T07:22:21Z</time>
      </trkpt>
      <trkpt lat="39.3221730" lon="-0.7664000">
        <ele>509.0</ele>
        <time>2018-09-16T07:22:22Z</time>
      </trkpt>
      <trkpt lat="39.3221450" lon="-0.7664120">
        <ele>509.0</ele>
        <time>2018-09-16T07:22:23Z</time>
      </trkpt>
      <trkpt lat="39.3221450" lon="-0.7664120">
        <ele>509.0</ele>
        <time>2018-09-16T07:22:24Z</time>
      </trkpt>
      <trkpt lat="39.3221330" lon="-0.7664220">
        <ele>509.0</ele>
        <time>2018-09-16T07:22:25Z</time>
      </trkpt>
      <trkpt lat="39.3221330" lon="-0.7664220">
        <ele>509.0</ele>
        <time>2018-09-16T07:22:26Z</time>
      </trkpt>
      <trkpt lat="39.3221230" lon="-0.7664280">
        <ele>509.0</ele>
        <time>2018-09-16T07:22:27Z</time>
      </trkpt>
      <trkpt lat="39.3221230" lon="-0.7664280">
        <ele>509.0</ele>
        <time>2018-09-16T07:22:28Z</time>
      </trkpt>
      <trkpt lat="39.3221200" lon="-0.7664320">
        <ele>509.0</ele>
        <time>2018-09-16T07:22:29Z</time>
      </trkpt>
      <trkpt lat="39.3221200" lon="-0.7664330">
        <ele>509.0</ele>
        <time>2018-09-16T07:22:30Z</time>
      </trkpt>
      <trkpt lat="39.3221200" lon="-0.7664330">
        <ele>509.0</ele>
        <time>2018-09-16T07:22:31Z</time>
      </trkpt>
      <trkpt lat="39.3221200" lon="-0.7664330">
        <ele>509.0</ele>
        <time>2018-09-16T07:22:32Z</time>
      </trkpt>
      <trkpt lat="39.3221200" lon="-0.7664330">
        <ele>509.0</ele>
        <time>2018-09-16T07:22:33Z</time>
      </trkpt>
      <trkpt lat="39.3221200" lon="-0.7664330">
        <ele>509.0</ele>
        <time>2018-09-16T07:22:34Z</time>
      </trkpt>
      <trkpt lat="39.3221200" lon="-0.7664330">
        <ele>509.0</ele>
        <time>2018-09-16T07:22:35Z</time>
      </trkpt>
      <trkpt lat="39.3221030" lon="-0.7664420">
        <ele>509.0</ele>
        <time>2018-09-16T07:22:36Z</time>
      </trkpt>
      <trkpt lat="39.3221030" lon="-0.7664420">
        <ele>509.0</ele>
        <time>2018-09-16T07:22:37Z</time>
      </trkpt>
      <trkpt lat="39.3220930" lon="-0.7664470">
        <ele>509.0</ele>
        <time>2018-09-16T07:22:38Z</time>
      </trkpt>
      <trkpt lat="39.3220930" lon="-0.7664470">
        <ele>509.0</ele>
        <time>2018-09-16T07:22:39Z</time>
      </trkpt>
      <trkpt lat="39.3220900" lon="-0.7664500">
        <ele>509.0</ele>
        <time>2018-09-16T07:22:40Z</time>
      </trkpt>
      <trkpt lat="39.3220830" lon="-0.7664550">
        <ele>509.0</ele>
        <time>2018-09-16T07:22:41Z</time>
      </trkpt>
      <trkpt lat="39.3220830" lon="-0.7664550">
        <ele>509.0</ele>
        <time>2018-09-16T07:22:42Z</time>
      </trkpt>
      <trkpt lat="39.3220600" lon="-0.7664830">
        <ele>509.0</ele>
        <time>2018-09-16T07:22:43Z</time>
      </trkpt>
      <trkpt lat="39.3220490" lon="-0.7665020">
        <ele>509.0</ele>
        <time>2018-09-16T07:22:44Z</time>
      </trkpt>
      <trkpt lat="39.3220380" lon="-0.7665200">
        <ele>509.0</ele>
        <time>2018-09-16T07:22:45Z</time>
      </trkpt>
      <trkpt lat="39.3220380" lon="-0.7665200">
        <ele>509.0</ele>
        <time>2018-09-16T07:22:46Z</time>
      </trkpt>
      <trkpt lat="39.3220250" lon="-0.7665480">
        <ele>509.0</ele>
        <time>2018-09-16T07:22:47Z</time>
      </trkpt>
      <trkpt lat="39.3220250" lon="-0.7665480">
        <ele>509.0</ele>
        <time>2018-09-16T07:22:48Z</time>
      </trkpt>
      <trkpt lat="39.3220200" lon="-0.7665570">
        <ele>509.0</ele>
        <time>2018-09-16T07:22:49Z</time>
      </trkpt>
      <trkpt lat="39.3220200" lon="-0.7665550">
        <ele>509.0</ele>
        <time>2018-09-16T07:22:50Z</time>
      </trkpt>
      <trkpt lat="39.3220200" lon="-0.7665550">
        <ele>510.0</ele>
        <time>2018-09-16T07:22:51Z</time>
      </trkpt>
      <trkpt lat="39.3220200" lon="-0.7665550">
        <ele>510.0</ele>
        <time>2018-09-16T07:22:52Z</time>
      </trkpt>
      <trkpt lat="39.3220200" lon="-0.7665550">
        <ele>510.0</ele>
        <time>2018-09-16T07:22:53Z</time>
      </trkpt>
      <trkpt lat="39.3220200" lon="-0.7665550">
        <ele>510.0</ele>
        <time>2018-09-16T07:22:54Z</time>
      </trkpt>
      <trkpt lat="39.3220200" lon="-0.7665550">
        <ele>510.0</ele>
        <time>2018-09-16T07:22:55Z</time>
      </trkpt>
      <trkpt lat="39.3220200" lon="-0.7665550">
        <ele>510.0</ele>
        <time>2018-09-16T07:22:56Z</time>
      </trkpt>
      <trkpt lat="39.3220200" lon="-0.7665550">
        <ele>510.0</ele>
        <time>2018-09-16T07:22:57Z</time>
      </trkpt>
      <trkpt lat="39.3220200" lon="-0.7665550">
        <ele>510.0</ele>
        <time>2018-09-16T07:22:58Z</time>
      </trkpt>
      <trkpt lat="39.3220200" lon="-0.7665550">
        <ele>510.0</ele>
        <time>2018-09-16T07:22:59Z</time>
      </trkpt>
      <trkpt lat="39.3220050" lon="-0.7665750">
        <ele>510.0</ele>
        <time>2018-09-16T07:23:00Z</time>
      </trkpt>
      <trkpt lat="39.3220050" lon="-0.7665800">
        <ele>510.0</ele>
        <time>2018-09-16T07:23:01Z</time>
      </trkpt>
      <trkpt lat="39.3220050" lon="-0.7665800">
        <ele>510.0</ele>
        <time>2018-09-16T07:23:02Z</time>
      </trkpt>
      <trkpt lat="39.3220070" lon="-0.7665950">
        <ele>510.0</ele>
        <time>2018-09-16T07:23:03Z</time>
      </trkpt>
      <trkpt lat="39.3220070" lon="-0.7665950">
        <ele>510.0</ele>
        <time>2018-09-16T07:23:04Z</time>
      </trkpt>
      <trkpt lat="39.3220050" lon="-0.7665950">
        <ele>510.0</ele>
        <time>2018-09-16T07:23:05Z</time>
      </trkpt>
      <trkpt lat="39.3220050" lon="-0.7665950">
        <ele>510.0</ele>
        <time>2018-09-16T07:23:06Z</time>
      </trkpt>
      <trkpt lat="39.3220050" lon="-0.7665930">
        <ele>510.0</ele>
        <time>2018-09-16T07:23:07Z</time>
      </trkpt>
      <trkpt lat="39.3220050" lon="-0.7665930">
        <ele>510.0</ele>
        <time>2018-09-16T07:23:08Z</time>
      </trkpt>
      <trkpt lat="39.3220080" lon="-0.7666180">
        <ele>510.0</ele>
        <time>2018-09-16T07:23:09Z</time>
      </trkpt>
      <trkpt lat="39.3220080" lon="-0.7666180">
        <ele>510.0</ele>
        <time>2018-09-16T07:23:10Z</time>
      </trkpt>
      <trkpt lat="39.3220130" lon="-0.7666630">
        <ele>510.0</ele>
        <time>2018-09-16T07:23:11Z</time>
      </trkpt>
      <trkpt lat="39.3220130" lon="-0.7666630">
        <ele>510.0</ele>
        <time>2018-09-16T07:23:12Z</time>
      </trkpt>
      <trkpt lat="39.3220350" lon="-0.7667020">
        <ele>510.0</ele>
        <time>2018-09-16T07:23:13Z</time>
      </trkpt>
      <trkpt lat="39.3220350" lon="-0.7667020">
        <ele>510.0</ele>
        <time>2018-09-16T07:23:14Z</time>
      </trkpt>
      <trkpt lat="39.3220500" lon="-0.7667470">
        <ele>510.0</ele>
        <time>2018-09-16T07:23:15Z</time>
      </trkpt>
      <trkpt lat="39.3220500" lon="-0.7667470">
        <ele>510.0</ele>
        <time>2018-09-16T07:23:16Z</time>
      </trkpt>
      <trkpt lat="39.3220370" lon="-0.7667880">
        <ele>510.0</ele>
        <time>2018-09-16T07:23:17Z</time>
      </trkpt>
      <trkpt lat="39.3220370" lon="-0.7667880">
        <ele>510.0</ele>
        <time>2018-09-16T07:23:18Z</time>
      </trkpt>
      <trkpt lat="39.3220230" lon="-0.7668070">
        <ele>510.0</ele>
        <time>2018-09-16T07:23:19Z</time>
      </trkpt>
      <trkpt lat="39.3220230" lon="-0.7668070">
        <ele>510.0</ele>
        <time>2018-09-16T07:23:20Z</time>
      </trkpt>
      <trkpt lat="39.3220270" lon="-0.7668050">
        <ele>510.0</ele>
        <time>2018-09-16T07:23:21Z</time>
      </trkpt>
      <trkpt lat="39.3220270" lon="-0.7668050">
        <ele>510.0</ele>
        <time>2018-09-16T07:23:22Z</time>
      </trkpt>
      <trkpt lat="39.3220270" lon="-0.7668050">
        <ele>510.0</ele>
        <time>2018-09-16T07:23:23Z</time>
      </trkpt>
      <trkpt lat="39.3220200" lon="-0.7667930">
        <ele>510.0</ele>
        <time>2018-09-16T07:23:24Z</time>
      </trkpt>
      <trkpt lat="39.3220130" lon="-0.7667880">
        <ele>510.0</ele>
        <time>2018-09-16T07:23:25Z</time>
      </trkpt>
      <trkpt lat="39.3220130" lon="-0.7667880">
        <ele>510.0</ele>
        <time>2018-09-16T07:23:26Z</time>
      </trkpt>
      <trkpt lat="39.3219950" lon="-0.7667770">
        <ele>510.0</ele>
        <time>2018-09-16T07:23:27Z</time>
      </trkpt>
      <trkpt lat="39.3219880" lon="-0.7667820">
        <ele>510.0</ele>
        <time>2018-09-16T07:23:28Z</time>
      </trkpt>
      <trkpt lat="39.3219880" lon="-0.7667820">
        <ele>510.0</ele>
        <time>2018-09-16T07:23:29Z</time>
      </trkpt>
      <trkpt lat="39.3219720" lon="-0.7668000">
        <ele>510.0</ele>
        <time>2018-09-16T07:23:30Z</time>
      </trkpt>
      <trkpt lat="39.3219630" lon="-0.7668170">
        <ele>510.0</ele>
        <time>2018-09-16T07:23:31Z</time>
      </trkpt>
      <trkpt lat="39.3219570" lon="-0.7668370">
        <ele>510.0</ele>
        <time>2018-09-16T07:23:32Z</time>
      </trkpt>
      <trkpt lat="39.3219500" lon="-0.7668570">
        <ele>511.0</ele>
        <time>2018-09-16T07:23:33Z</time>
      </trkpt>
      <trkpt lat="39.3219380" lon="-0.7668780">
        <ele>511.0</ele>
        <time>2018-09-16T07:23:34Z</time>
      </trkpt>
      <trkpt lat="39.3219380" lon="-0.7668780">
        <ele>511.0</ele>
        <time>2018-09-16T07:23:35Z</time>
      </trkpt>
      <trkpt lat="39.3219070" lon="-0.7668880">
        <ele>511.0</ele>
        <time>2018-09-16T07:23:36Z</time>
      </trkpt>
      <trkpt lat="39.3218920" lon="-0.7668750">
        <ele>511.0</ele>
        <time>2018-09-16T07:23:37Z</time>
      </trkpt>
      <trkpt lat="39.3218920" lon="-0.7668750">
        <ele>511.0</ele>
        <time>2018-09-16T07:23:38Z</time>
      </trkpt>
      <trkpt lat="39.3218720" lon="-0.7668330">
        <ele>511.0</ele>
        <time>2018-09-16T07:23:39Z</time>
      </trkpt>
      <trkpt lat="39.3218720" lon="-0.7668330">
        <ele>511.0</ele>
        <time>2018-09-16T07:23:40Z</time>
      </trkpt>
      <trkpt lat="39.3218670" lon="-0.7667730">
        <ele>511.0</ele>
        <time>2018-09-16T07:23:41Z</time>
      </trkpt>
      <trkpt lat="39.3218680" lon="-0.7667420">
        <ele>511.0</ele>
        <time>2018-09-16T07:23:42Z</time>
      </trkpt>
      <trkpt lat="39.3218700" lon="-0.7667100">
        <ele>511.0</ele>
        <time>2018-09-16T07:23:43Z</time>
      </trkpt>
      <trkpt lat="39.3218700" lon="-0.7667100">
        <ele>511.0</ele>
        <time>2018-09-16T07:23:44Z</time>
      </trkpt>
      <trkpt lat="39.3218730" lon="-0.7666530">
        <ele>511.0</ele>
        <time>2018-09-16T07:23:45Z</time>
      </trkpt>
      <trkpt lat="39.3218730" lon="-0.7666530">
        <ele>512.0</ele>
        <time>2018-09-16T07:23:46Z</time>
      </trkpt>
      <trkpt lat="39.3218820" lon="-0.7665830">
        <ele>512.0</ele>
        <time>2018-09-16T07:23:47Z</time>
      </trkpt>
      <trkpt lat="39.3218820" lon="-0.7665830">
        <ele>512.0</ele>
        <time>2018-09-16T07:23:48Z</time>
      </trkpt>
      <trkpt lat="39.3218930" lon="-0.7665080">
        <ele>512.0</ele>
        <time>2018-09-16T07:23:49Z</time>
      </trkpt>
      <trkpt lat="39.3218930" lon="-0.7665080">
        <ele>513.0</ele>
        <time>2018-09-16T07:23:50Z</time>
      </trkpt>
      <trkpt lat="39.3219170" lon="-0.7664300">
        <ele>513.0</ele>
        <time>2018-09-16T07:23:51Z</time>
      </trkpt>
      <trkpt lat="39.3219280" lon="-0.7663930">
        <ele>513.0</ele>
        <time>2018-09-16T07:23:52Z</time>
      </trkpt>
      <trkpt lat="39.3219280" lon="-0.7663930">
        <ele>513.0</ele>
        <time>2018-09-16T07:23:53Z</time>
      </trkpt>
      <trkpt lat="39.3219450" lon="-0.7663320">
        <ele>513.0</ele>
        <time>2018-09-16T07:23:54Z</time>
      </trkpt>
      <trkpt lat="39.3219500" lon="-0.7663030">
        <ele>513.0</ele>
        <time>2018-09-16T07:23:55Z</time>
      </trkpt>
      <trkpt lat="39.3219500" lon="-0.7663030">
        <ele>513.0</ele>
        <time>2018-09-16T07:23:56Z</time>
      </trkpt>
      <trkpt lat="39.3219580" lon="-0.7662520">
        <ele>514.0</ele>
        <time>2018-09-16T07:23:57Z</time>
      </trkpt>
      <trkpt lat="39.3219630" lon="-0.7662280">
        <ele>514.0</ele>
        <time>2018-09-16T07:23:58Z</time>
      </trkpt>
      <trkpt lat="39.3219730" lon="-0.7662080">
        <ele>514.0</ele>
        <time>2018-09-16T07:23:59Z</time>
      </trkpt>
      <trkpt lat="39.3219730" lon="-0.7662080">
        <ele>514.0</ele>
        <time>2018-09-16T07:24:00Z</time>
      </trkpt>
      <trkpt lat="39.3219880" lon="-0.7661780">
        <ele>514.0</ele>
        <time>2018-09-16T07:24:01Z</time>
      </trkpt>
      <trkpt lat="39.3219880" lon="-0.7661780">
        <ele>514.0</ele>
        <time>2018-09-16T07:24:02Z</time>
      </trkpt>
      <trkpt lat="39.3220030" lon="-0.7661280">
        <ele>514.0</ele>
        <time>2018-09-16T07:24:03Z</time>
      </trkpt>
      <trkpt lat="39.3220120" lon="-0.7661030">
        <ele>514.0</ele>
        <time>2018-09-16T07:24:04Z</time>
      </trkpt>
      <trkpt lat="39.3220120" lon="-0.7661030">
        <ele>514.0</ele>
        <time>2018-09-16T07:24:05Z</time>
      </trkpt>
      <trkpt lat="39.3220330" lon="-0.7660600">
        <ele>514.0</ele>
        <time>2018-09-16T07:24:06Z</time>
      </trkpt>
      <trkpt lat="39.3220430" lon="-0.7660370">
        <ele>514.0</ele>
        <time>2018-09-16T07:24:07Z</time>
      </trkpt>
      <trkpt lat="39.3220570" lon="-0.7660100">
        <ele>514.0</ele>
        <time>2018-09-16T07:24:08Z</time>
      </trkpt>
      <trkpt lat="39.3220570" lon="-0.7660100">
        <ele>514.0</ele>
        <time>2018-09-16T07:24:09Z</time>
      </trkpt>
      <trkpt lat="39.3220800" lon="-0.7659520">
        <ele>514.0</ele>
        <time>2018-09-16T07:24:10Z</time>
      </trkpt>
      <trkpt lat="39.3220800" lon="-0.7659520">
        <ele>514.0</ele>
        <time>2018-09-16T07:24:11Z</time>
      </trkpt>
      <trkpt lat="39.3221030" lon="-0.7659030">
        <ele>514.0</ele>
        <time>2018-09-16T07:24:12Z</time>
      </trkpt>
      <trkpt lat="39.3221030" lon="-0.7659030">
        <ele>514.0</ele>
        <time>2018-09-16T07:24:13Z</time>
      </trkpt>
      <trkpt lat="39.3221270" lon="-0.7658470">
        <ele>515.0</ele>
        <time>2018-09-16T07:24:14Z</time>
      </trkpt>
      <trkpt lat="39.3221270" lon="-0.7658470">
        <ele>515.0</ele>
        <time>2018-09-16T07:24:15Z</time>
      </trkpt>
      <trkpt lat="39.3221380" lon="-0.7658100">
        <ele>515.0</ele>
        <time>2018-09-16T07:24:16Z</time>
      </trkpt>
      <trkpt lat="39.3221420" lon="-0.7657920">
        <ele>515.0</ele>
        <time>2018-09-16T07:24:17Z</time>
      </trkpt>
      <trkpt lat="39.3221420" lon="-0.7657920">
        <ele>515.0</ele>
        <time>2018-09-16T07:24:18Z</time>
      </trkpt>
      <trkpt lat="39.3221470" lon="-0.7657520">
        <ele>515.0</ele>
        <time>2018-09-16T07:24:19Z</time>
      </trkpt>
      <trkpt lat="39.3221470" lon="-0.7657520">
        <ele>516.0</ele>
        <time>2018-09-16T07:24:20Z</time>
      </trkpt>
      <trkpt lat="39.3221450" lon="-0.7657100">
        <ele>516.0</ele>
        <time>2018-09-16T07:24:21Z</time>
      </trkpt>
      <trkpt lat="39.3221450" lon="-0.7657100">
        <ele>516.0</ele>
        <time>2018-09-16T07:24:22Z</time>
      </trkpt>
      <trkpt lat="39.3221450" lon="-0.7656800">
        <ele>516.0</ele>
        <time>2018-09-16T07:24:23Z</time>
      </trkpt>
      <trkpt lat="39.3221450" lon="-0.7656800">
        <ele>516.0</ele>
        <time>2018-09-16T07:24:24Z</time>
      </trkpt>
      <trkpt lat="39.3221450" lon="-0.7656520">
        <ele>516.0</ele>
        <time>2018-09-16T07:24:25Z</time>
      </trkpt>
      <trkpt lat="39.3221450" lon="-0.7656520">
        <ele>516.0</ele>
        <time>2018-09-16T07:24:26Z</time>
      </trkpt>
      <trkpt lat="39.3221580" lon="-0.7656300">
        <ele>516.0</ele>
        <time>2018-09-16T07:24:27Z</time>
      </trkpt>
      <trkpt lat="39.3221580" lon="-0.7656300">
        <ele>516.0</ele>
        <time>2018-09-16T07:24:28Z</time>
      </trkpt>
      <trkpt lat="39.3221520" lon="-0.7656250">
        <ele>516.0</ele>
        <time>2018-09-16T07:24:29Z</time>
      </trkpt>
      <trkpt lat="39.3221520" lon="-0.7656170">
        <ele>516.0</ele>
        <time>2018-09-16T07:24:30Z</time>
      </trkpt>
      <trkpt lat="39.3221520" lon="-0.7656170">
        <ele>516.0</ele>
        <time>2018-09-16T07:24:31Z</time>
      </trkpt>
      <trkpt lat="39.3221480" lon="-0.7655800">
        <ele>516.0</ele>
        <time>2018-09-16T07:24:32Z</time>
      </trkpt>
      <trkpt lat="39.3221500" lon="-0.7655600">
        <ele>516.0</ele>
        <time>2018-09-16T07:24:33Z</time>
      </trkpt>
      <trkpt lat="39.3221500" lon="-0.7655600">
        <ele>516.0</ele>
        <time>2018-09-16T07:24:34Z</time>
      </trkpt>
      <trkpt lat="39.3221550" lon="-0.7655300">
        <ele>516.0</ele>
        <time>2018-09-16T07:24:35Z</time>
      </trkpt>
      <trkpt lat="39.3221550" lon="-0.7655300">
        <ele>516.0</ele>
        <time>2018-09-16T07:24:36Z</time>
      </trkpt>
      <trkpt lat="39.3221520" lon="-0.7654980">
        <ele>516.0</ele>
        <time>2018-09-16T07:24:37Z</time>
      </trkpt>
      <trkpt lat="39.3221480" lon="-0.7654730">
        <ele>516.0</ele>
        <time>2018-09-16T07:24:38Z</time>
      </trkpt>
      <trkpt lat="39.3221480" lon="-0.7654730">
        <ele>517.0</ele>
        <time>2018-09-16T07:24:39Z</time>
      </trkpt>
      <trkpt lat="39.3221420" lon="-0.7654300">
        <ele>517.0</ele>
        <time>2018-09-16T07:24:40Z</time>
      </trkpt>
      <trkpt lat="39.3221420" lon="-0.7654300">
        <ele>517.0</ele>
        <time>2018-09-16T07:24:41Z</time>
      </trkpt>
      <trkpt lat="39.3221350" lon="-0.7653800">
        <ele>517.0</ele>
        <time>2018-09-16T07:24:42Z</time>
      </trkpt>
      <trkpt lat="39.3221300" lon="-0.7653600">
        <ele>517.0</ele>
        <time>2018-09-16T07:24:43Z</time>
      </trkpt>
      <trkpt lat="39.3221300" lon="-0.7653600">
        <ele>517.0</ele>
        <time>2018-09-16T07:24:44Z</time>
      </trkpt>
      <trkpt lat="39.3221250" lon="-0.7653130">
        <ele>518.0</ele>
        <time>2018-09-16T07:24:45Z</time>
      </trkpt>
      <trkpt lat="39.3221250" lon="-0.7653130">
        <ele>518.0</ele>
        <time>2018-09-16T07:24:46Z</time>
      </trkpt>
      <trkpt lat="39.3221230" lon="-0.7652700">
        <ele>518.0</ele>
        <time>2018-09-16T07:24:47Z</time>
      </trkpt>
      <trkpt lat="39.3221230" lon="-0.7652700">
        <ele>518.0</ele>
        <time>2018-09-16T07:24:48Z</time>
      </trkpt>
      <trkpt lat="39.3221180" lon="-0.7652350">
        <ele>518.0</ele>
        <time>2018-09-16T07:24:49Z</time>
      </trkpt>
      <trkpt lat="39.3221180" lon="-0.7652350">
        <ele>518.0</ele>
        <time>2018-09-16T07:24:50Z</time>
      </trkpt>
      <trkpt lat="39.3221200" lon="-0.7652330">
        <ele>518.0</ele>
        <time>2018-09-16T07:24:51Z</time>
      </trkpt>
      <trkpt lat="39.3221200" lon="-0.7652330">
        <ele>519.0</ele>
        <time>2018-09-16T07:24:52Z</time>
      </trkpt>
      <trkpt lat="39.3221220" lon="-0.7652320">
        <ele>519.0</ele>
        <time>2018-09-16T07:24:53Z</time>
      </trkpt>
      <trkpt lat="39.3221220" lon="-0.7652320">
        <ele>519.0</ele>
        <time>2018-09-16T07:24:54Z</time>
      </trkpt>
      <trkpt lat="39.3221220" lon="-0.7652320">
        <ele>519.0</ele>
        <time>2018-09-16T07:24:55Z</time>
      </trkpt>
      <trkpt lat="39.3221220" lon="-0.7652320">
        <ele>519.0</ele>
        <time>2018-09-16T07:24:56Z</time>
      </trkpt>
      <trkpt lat="39.3221220" lon="-0.7652320">
        <ele>519.0</ele>
        <time>2018-09-16T07:24:57Z</time>
      </trkpt>
      <trkpt lat="39.3221220" lon="-0.7652320">
        <ele>519.0</ele>
        <time>2018-09-16T07:24:58Z</time>
      </trkpt>
      <trkpt lat="39.3221220" lon="-0.7652320">
        <ele>519.0</ele>
        <time>2018-09-16T07:24:59Z</time>
      </trkpt>
      <trkpt lat="39.3221220" lon="-0.7652320">
        <ele>519.0</ele>
        <time>2018-09-16T07:25:00Z</time>
      </trkpt>
      <trkpt lat="39.3221220" lon="-0.7652320">
        <ele>519.0</ele>
        <time>2018-09-16T07:25:01Z</time>
      </trkpt>
      <trkpt lat="39.3221220" lon="-0.7652320">
        <ele>519.0</ele>
        <time>2018-09-16T07:25:02Z</time>
      </trkpt>
      <trkpt lat="39.3221100" lon="-0.7652100">
        <ele>519.0</ele>
        <time>2018-09-16T07:25:03Z</time>
      </trkpt>
      <trkpt lat="39.3221100" lon="-0.7652100">
        <ele>520.0</ele>
        <time>2018-09-16T07:25:04Z</time>
      </trkpt>
      <trkpt lat="39.3221050" lon="-0.7651970">
        <ele>520.0</ele>
        <time>2018-09-16T07:25:05Z</time>
      </trkpt>
      <trkpt lat="39.3221020" lon="-0.7651920">
        <ele>520.0</ele>
        <time>2018-09-16T07:25:06Z</time>
      </trkpt>
      <trkpt lat="39.3221020" lon="-0.7651920">
        <ele>520.0</ele>
        <time>2018-09-16T07:25:07Z</time>
      </trkpt>
      <trkpt lat="39.3220970" lon="-0.7651720">
        <ele>520.0</ele>
        <time>2018-09-16T07:25:08Z</time>
      </trkpt>
      <trkpt lat="39.3220920" lon="-0.7651620">
        <ele>520.0</ele>
        <time>2018-09-16T07:25:09Z</time>
      </trkpt>
      <trkpt lat="39.3220920" lon="-0.7651620">
        <ele>520.0</ele>
        <time>2018-09-16T07:25:10Z</time>
      </trkpt>
      <trkpt lat="39.3220900" lon="-0.7651450">
        <ele>520.0</ele>
        <time>2018-09-16T07:25:11Z</time>
      </trkpt>
      <trkpt lat="39.3220900" lon="-0.7651380">
        <ele>520.0</ele>
        <time>2018-09-16T07:25:12Z</time>
      </trkpt>
      <trkpt lat="39.3220900" lon="-0.7651380">
        <ele>520.0</ele>
        <time>2018-09-16T07:25:13Z</time>
      </trkpt>
      <trkpt lat="39.3220920" lon="-0.7651230">
        <ele>520.0</ele>
        <time>2018-09-16T07:25:14Z</time>
      </trkpt>
      <trkpt lat="39.3220920" lon="-0.7651230">
        <ele>520.0</ele>
        <time>2018-09-16T07:25:15Z</time>
      </trkpt>
      <trkpt lat="39.3220920" lon="-0.7651050">
        <ele>520.0</ele>
        <time>2018-09-16T07:25:16Z</time>
      </trkpt>
      <trkpt lat="39.3220920" lon="-0.7651050">
        <ele>520.0</ele>
        <time>2018-09-16T07:25:17Z</time>
      </trkpt>
      <trkpt lat="39.3220930" lon="-0.7650930">
        <ele>520.0</ele>
        <time>2018-09-16T07:25:18Z</time>
      </trkpt>
      <trkpt lat="39.3220950" lon="-0.7650920">
        <ele>520.0</ele>
        <time>2018-09-16T07:25:19Z</time>
      </trkpt>
      <trkpt lat="39.3220950" lon="-0.7650920">
        <ele>520.0</ele>
        <time>2018-09-16T07:25:20Z</time>
      </trkpt>
      <trkpt lat="39.3220900" lon="-0.7650820">
        <ele>520.0</ele>
        <time>2018-09-16T07:25:21Z</time>
      </trkpt>
      <trkpt lat="39.3220880" lon="-0.7650750">
        <ele>520.0</ele>
        <time>2018-09-16T07:25:22Z</time>
      </trkpt>
      <trkpt lat="39.3220880" lon="-0.7650750">
        <ele>520.0</ele>
        <time>2018-09-16T07:25:23Z</time>
      </trkpt>
      <trkpt lat="39.3220880" lon="-0.7650630">
        <ele>520.0</ele>
        <time>2018-09-16T07:25:24Z</time>
      </trkpt>
      <trkpt lat="39.3220880" lon="-0.7650630">
        <ele>520.0</ele>
        <time>2018-09-16T07:25:25Z</time>
      </trkpt>
      <trkpt lat="39.3220880" lon="-0.7650480">
        <ele>520.0</ele>
        <time>2018-09-16T07:25:26Z</time>
      </trkpt>
      <trkpt lat="39.3220880" lon="-0.7650480">
        <ele>520.0</ele>
        <time>2018-09-16T07:25:27Z</time>
      </trkpt>
      <trkpt lat="39.3220920" lon="-0.7650270">
        <ele>520.0</ele>
        <time>2018-09-16T07:25:28Z</time>
      </trkpt>
      <trkpt lat="39.3220920" lon="-0.7650270">
        <ele>520.0</ele>
        <time>2018-09-16T07:25:29Z</time>
      </trkpt>
      <trkpt lat="39.3220900" lon="-0.7650230">
        <ele>520.0</ele>
        <time>2018-09-16T07:25:30Z</time>
      </trkpt>
      <trkpt lat="39.3220900" lon="-0.7650230">
        <ele>520.0</ele>
        <time>2018-09-16T07:25:31Z</time>
      </trkpt>
      <trkpt lat="39.3220900" lon="-0.7650230">
        <ele>520.0</ele>
        <time>2018-09-16T07:25:32Z</time>
      </trkpt>
      <trkpt lat="39.3220900" lon="-0.7650230">
        <ele>520.0</ele>
        <time>2018-09-16T07:25:33Z</time>
      </trkpt>
      <trkpt lat="39.3220900" lon="-0.7650230">
        <ele>520.0</ele>
        <time>2018-09-16T07:25:34Z</time>
      </trkpt>
      <trkpt lat="39.3220900" lon="-0.7650230">
        <ele>520.0</ele>
        <time>2018-09-16T07:25:35Z</time>
      </trkpt>
      <trkpt lat="39.3220930" lon="-0.7650050">
        <ele>520.0</ele>
        <time>2018-09-16T07:25:36Z</time>
      </trkpt>
      <trkpt lat="39.3220900" lon="-0.7649880">
        <ele>520.0</ele>
        <time>2018-09-16T07:25:37Z</time>
      </trkpt>
      <trkpt lat="39.3220900" lon="-0.7649880">
        <ele>520.0</ele>
        <time>2018-09-16T07:25:38Z</time>
      </trkpt>
      <trkpt lat="39.3220820" lon="-0.7649530">
        <ele>520.0</ele>
        <time>2018-09-16T07:25:39Z</time>
      </trkpt>
      <trkpt lat="39.3220820" lon="-0.7649530">
        <ele>520.0</ele>
        <time>2018-09-16T07:25:40Z</time>
      </trkpt>
      <trkpt lat="39.3220720" lon="-0.7649170">
        <ele>520.0</ele>
        <time>2018-09-16T07:25:41Z</time>
      </trkpt>
      <trkpt lat="39.3220720" lon="-0.7649170">
        <ele>520.0</ele>
        <time>2018-09-16T07:25:42Z</time>
      </trkpt>
      <trkpt lat="39.3220650" lon="-0.7648800">
        <ele>520.0</ele>
        <time>2018-09-16T07:25:43Z</time>
      </trkpt>
      <trkpt lat="39.3220650" lon="-0.7648800">
        <ele>520.0</ele>
        <time>2018-09-16T07:25:44Z</time>
      </trkpt>
      <trkpt lat="39.3220550" lon="-0.7648380">
        <ele>520.0</ele>
        <time>2018-09-16T07:25:45Z</time>
      </trkpt>
      <trkpt lat="39.3220520" lon="-0.7648180">
        <ele>520.0</ele>
        <time>2018-09-16T07:25:46Z</time>
      </trkpt>
      <trkpt lat="39.3220520" lon="-0.7648180">
        <ele>520.0</ele>
        <time>2018-09-16T07:25:47Z</time>
      </trkpt>
      <trkpt lat="39.3220420" lon="-0.7647830">
        <ele>520.0</ele>
        <time>2018-09-16T07:25:48Z</time>
      </trkpt>
      <trkpt lat="39.3220330" lon="-0.7647680">
        <ele>520.0</ele>
        <time>2018-09-16T07:25:49Z</time>
      </trkpt>
      <trkpt lat="39.3220330" lon="-0.7647680">
        <ele>520.0</ele>
        <time>2018-09-16T07:25:50Z</time>
      </trkpt>
      <trkpt lat="39.3220250" lon="-0.7647380">
        <ele>520.0</ele>
        <time>2018-09-16T07:25:51Z</time>
      </trkpt>
      <trkpt lat="39.3220170" lon="-0.7647280">
        <ele>520.0</ele>
        <time>2018-09-16T07:25:52Z</time>
      </trkpt>
      <trkpt lat="39.3220170" lon="-0.7647280">
        <ele>520.0</ele>
        <time>2018-09-16T07:25:53Z</time>
      </trkpt>
      <trkpt lat="39.3219870" lon="-0.7647200">
        <ele>520.0</ele>
        <time>2018-09-16T07:25:54Z</time>
      </trkpt>
      <trkpt lat="39.3219720" lon="-0.7647150">
        <ele>520.0</ele>
        <time>2018-09-16T07:25:55Z</time>
      </trkpt>
      <trkpt lat="39.3219720" lon="-0.7647150">
        <ele>520.0</ele>
        <time>2018-09-16T07:25:56Z</time>
      </trkpt>
      <trkpt lat="39.3219480" lon="-0.7646930">
        <ele>520.0</ele>
        <time>2018-09-16T07:25:57Z</time>
      </trkpt>
      <trkpt lat="39.3219480" lon="-0.7646930">
        <ele>520.0</ele>
        <time>2018-09-16T07:25:58Z</time>
      </trkpt>
      <trkpt lat="39.3219380" lon="-0.7646570">
        <ele>520.0</ele>
        <time>2018-09-16T07:25:59Z</time>
      </trkpt>
      <trkpt lat="39.3219310" lon="-0.7646250">
        <ele>520.0</ele>
        <time>2018-09-16T07:26:00Z</time>
      </trkpt>
      <trkpt lat="39.3219240" lon="-0.7645920">
        <ele>520.0</ele>
        <time>2018-09-16T07:26:01Z</time>
      </trkpt>
      <trkpt lat="39.3219170" lon="-0.7645600">
        <ele>520.0</ele>
        <time>2018-09-16T07:26:02Z</time>
      </trkpt>
      <trkpt lat="39.3219100" lon="-0.7645280">
        <ele>520.0</ele>
        <time>2018-09-16T07:26:03Z</time>
      </trkpt>
      <trkpt lat="39.3219100" lon="-0.7645280">
        <ele>520.0</ele>
        <time>2018-09-16T07:26:04Z</time>
      </trkpt>
      <trkpt lat="39.3218770" lon="-0.7644600">
        <ele>520.0</ele>
        <time>2018-09-16T07:26:05Z</time>
      </trkpt>
      <trkpt lat="39.3218770" lon="-0.7644600">
        <ele>520.0</ele>
        <time>2018-09-16T07:26:06Z</time>
      </trkpt>
      <trkpt lat="39.3218450" lon="-0.7643980">
        <ele>520.0</ele>
        <time>2018-09-16T07:26:07Z</time>
      </trkpt>
      <trkpt lat="39.3218450" lon="-0.7643980">
        <ele>520.0</ele>
        <time>2018-09-16T07:26:08Z</time>
      </trkpt>
      <trkpt lat="39.3218030" lon="-0.7643480">
        <ele>520.0</ele>
        <time>2018-09-16T07:26:09Z</time>
      </trkpt>
      <trkpt lat="39.3218030" lon="-0.7643480">
        <ele>520.0</ele>
        <time>2018-09-16T07:26:10Z</time>
      </trkpt>
      <trkpt lat="39.3217630" lon="-0.7643020">
        <ele>520.0</ele>
        <time>2018-09-16T07:26:11Z</time>
      </trkpt>
      <trkpt lat="39.3217630" lon="-0.7643020">
        <ele>519.0</ele>
        <time>2018-09-16T07:26:12Z</time>
      </trkpt>
      <trkpt lat="39.3217300" lon="-0.7642580">
        <ele>519.0</ele>
        <time>2018-09-16T07:26:13Z</time>
      </trkpt>
      <trkpt lat="39.3217300" lon="-0.7642580">
        <ele>519.0</ele>
        <time>2018-09-16T07:26:14Z</time>
      </trkpt>
      <trkpt lat="39.3217150" lon="-0.7642430">
        <ele>519.0</ele>
        <time>2018-09-16T07:26:15Z</time>
      </trkpt>
      <trkpt lat="39.3217150" lon="-0.7642430">
        <ele>519.0</ele>
        <time>2018-09-16T07:26:32Z</time>
      </trkpt>
      <trkpt lat="39.3217150" lon="-0.7642430">
        <ele>519.0</ele>
        <time>2018-09-16T07:26:33Z</time>
      </trkpt>
      <trkpt lat="39.3217150" lon="-0.7642430">
        <ele>519.0</ele>
        <time>2018-09-16T07:26:34Z</time>
      </trkpt>
      <trkpt lat="39.3217150" lon="-0.7642430">
        <ele>519.0</ele>
        <time>2018-09-16T07:26:35Z</time>
      </trkpt>
      <trkpt lat="39.3216980" lon="-0.7642380">
        <ele>519.0</ele>
        <time>2018-09-16T07:26:36Z</time>
      </trkpt>
      <trkpt lat="39.3216900" lon="-0.7642250">
        <ele>519.0</ele>
        <time>2018-09-16T07:26:37Z</time>
      </trkpt>
      <trkpt lat="39.3216900" lon="-0.7642250">
        <ele>519.0</ele>
        <time>2018-09-16T07:26:38Z</time>
      </trkpt>
      <trkpt lat="39.3216630" lon="-0.7641880">
        <ele>519.0</ele>
        <time>2018-09-16T07:26:39Z</time>
      </trkpt>
      <trkpt lat="39.3216630" lon="-0.7641880">
        <ele>519.0</ele>
        <time>2018-09-16T07:26:40Z</time>
      </trkpt>
      <trkpt lat="39.3216300" lon="-0.7641420">
        <ele>519.0</ele>
        <time>2018-09-16T07:26:41Z</time>
      </trkpt>
      <trkpt lat="39.3216120" lon="-0.7641200">
        <ele>519.0</ele>
        <time>2018-09-16T07:26:42Z</time>
      </trkpt>
      <trkpt lat="39.3215670" lon="-0.7640720">
        <ele>519.0</ele>
        <time>2018-09-16T07:26:43Z</time>
      </trkpt>
      <trkpt lat="39.3215670" lon="-0.7640720">
        <ele>519.0</ele>
        <time>2018-09-16T07:26:44Z</time>
      </trkpt>
      <trkpt lat="39.3215400" lon="-0.7640470">
        <ele>519.0</ele>
        <time>2018-09-16T07:26:45Z</time>
      </trkpt>
      <trkpt lat="39.3215400" lon="-0.7640470">
        <ele>518.0</ele>
        <time>2018-09-16T07:26:46Z</time>
      </trkpt>
      <trkpt lat="39.3214850" lon="-0.7639950">
        <ele>518.0</ele>
        <time>2018-09-16T07:26:47Z</time>
      </trkpt>
      <trkpt lat="39.3214570" lon="-0.7639730">
        <ele>518.0</ele>
        <time>2018-09-16T07:26:48Z</time>
      </trkpt>
      <trkpt lat="39.3214570" lon="-0.7639730">
        <ele>518.0</ele>
        <time>2018-09-16T07:26:49Z</time>
      </trkpt>
      <trkpt lat="39.3214100" lon="-0.7639350">
        <ele>518.0</ele>
        <time>2018-09-16T07:26:50Z</time>
      </trkpt>
      <trkpt lat="39.3213900" lon="-0.7639200">
        <ele>518.0</ele>
        <time>2018-09-16T07:26:51Z</time>
      </trkpt>
      <trkpt lat="39.3213900" lon="-0.7639200">
        <ele>518.0</ele>
        <time>2018-09-16T07:26:52Z</time>
      </trkpt>
      <trkpt lat="39.3213500" lon="-0.7638930">
        <ele>518.0</ele>
        <time>2018-09-16T07:26:53Z</time>
      </trkpt>
      <trkpt lat="39.3213320" lon="-0.7638780">
        <ele>518.0</ele>
        <time>2018-09-16T07:26:54Z</time>
      </trkpt>
      <trkpt lat="39.3213120" lon="-0.7638630">
        <ele>518.0</ele>
        <time>2018-09-16T07:26:55Z</time>
      </trkpt>
      <trkpt lat="39.3213120" lon="-0.7638630">
        <ele>518.0</ele>
        <time>2018-09-16T07:26:56Z</time>
      </trkpt>
      <trkpt lat="39.3212720" lon="-0.7638300">
        <ele>518.0</ele>
        <time>2018-09-16T07:26:57Z</time>
      </trkpt>
      <trkpt lat="39.3212530" lon="-0.7638130">
        <ele>518.0</ele>
        <time>2018-09-16T07:26:58Z</time>
      </trkpt>
      <trkpt lat="39.3212530" lon="-0.7638130">
        <ele>518.0</ele>
        <time>2018-09-16T07:26:59Z</time>
      </trkpt>
      <trkpt lat="39.3211970" lon="-0.7637600">
        <ele>518.0</ele>
        <time>2018-09-16T07:27:00Z</time>
      </trkpt>
      <trkpt lat="39.3211970" lon="-0.7637600">
        <ele>518.0</ele>
        <time>2018-09-16T07:27:01Z</time>
      </trkpt>
      <trkpt lat="39.3211970" lon="-0.7637600">
        <ele>518.0</ele>
        <time>2018-09-16T07:27:02Z</time>
      </trkpt>
      <trkpt lat="39.3211600" lon="-0.7637220">
        <ele>518.0</ele>
        <time>2018-09-16T07:27:03Z</time>
      </trkpt>
      <trkpt lat="39.3211600" lon="-0.7637220">
        <ele>519.0</ele>
        <time>2018-09-16T07:27:04Z</time>
      </trkpt>
      <trkpt lat="39.3211120" lon="-0.7636750">
        <ele>519.0</ele>
        <time>2018-09-16T07:27:05Z</time>
      </trkpt>
      <trkpt lat="39.3211120" lon="-0.7636750">
        <ele>519.0</ele>
        <time>2018-09-16T07:27:06Z</time>
      </trkpt>
      <trkpt lat="39.3211120" lon="-0.7636750">
        <ele>519.0</ele>
        <time>2018-09-16T07:27:07Z</time>
      </trkpt>
      <trkpt lat="39.3210750" lon="-0.7636530">
        <ele>519.0</ele>
        <time>2018-09-16T07:27:08Z</time>
      </trkpt>
      <trkpt lat="39.3210750" lon="-0.7636530">
        <ele>519.0</ele>
        <time>2018-09-16T07:27:09Z</time>
      </trkpt>
      <trkpt lat="39.3210370" lon="-0.7636280">
        <ele>520.0</ele>
        <time>2018-09-16T07:27:10Z</time>
      </trkpt>
      <trkpt lat="39.3210180" lon="-0.7636080">
        <ele>520.0</ele>
        <time>2018-09-16T07:27:11Z</time>
      </trkpt>
      <trkpt lat="39.3210180" lon="-0.7636080">
        <ele>520.0</ele>
        <time>2018-09-16T07:27:12Z</time>
      </trkpt>
      <trkpt lat="39.3209900" lon="-0.7635450">
        <ele>520.0</ele>
        <time>2018-09-16T07:27:13Z</time>
      </trkpt>
      <trkpt lat="39.3209650" lon="-0.7634720">
        <ele>520.0</ele>
        <time>2018-09-16T07:27:14Z</time>
      </trkpt>
      <trkpt lat="39.3209650" lon="-0.7634720">
        <ele>520.0</ele>
        <time>2018-09-16T07:27:15Z</time>
      </trkpt>
      <trkpt lat="39.3209650" lon="-0.7634720">
        <ele>520.0</ele>
        <time>2018-09-16T07:27:16Z</time>
      </trkpt>
      <trkpt lat="39.3209370" lon="-0.7633880">
        <ele>518.0</ele>
        <time>2018-09-16T07:27:17Z</time>
      </trkpt>
      <trkpt lat="39.3209370" lon="-0.7633880">
        <ele>518.0</ele>
        <time>2018-09-16T07:27:18Z</time>
      </trkpt>
      <trkpt lat="39.3209030" lon="-0.7632920">
        <ele>518.0</ele>
        <time>2018-09-16T07:27:19Z</time>
      </trkpt>
      <trkpt lat="39.3208890" lon="-0.7632500">
        <ele>518.0</ele>
        <time>2018-09-16T07:27:20Z</time>
      </trkpt>
      <trkpt lat="39.3208750" lon="-0.7632080">
        <ele>517.0</ele>
        <time>2018-09-16T07:27:21Z</time>
      </trkpt>
      <trkpt lat="39.3208690" lon="-0.7631720">
        <ele>517.0</ele>
        <time>2018-09-16T07:27:22Z</time>
      </trkpt>
      <trkpt lat="39.3208630" lon="-0.7631370">
        <ele>516.0</ele>
        <time>2018-09-16T07:27:23Z</time>
      </trkpt>
      <trkpt lat="39.3208640" lon="-0.7631040">
        <ele>516.0</ele>
        <time>2018-09-16T07:27:24Z</time>
      </trkpt>
      <trkpt lat="39.3208650" lon="-0.7630700">
        <ele>516.0</ele>
        <time>2018-09-16T07:27:25Z</time>
      </trkpt>
      <trkpt lat="39.3208650" lon="-0.7630700">
        <ele>516.0</ele>
        <time>2018-09-16T07:27:26Z</time>
      </trkpt>
      <trkpt lat="39.3208520" lon="-0.7629950">
        <ele>515.0</ele>
        <time>2018-09-16T07:27:27Z</time>
      </trkpt>
      <trkpt lat="39.3208520" lon="-0.7629950">
        <ele>515.0</ele>
        <time>2018-09-16T07:27:28Z</time>
      </trkpt>
      <trkpt lat="39.3208230" lon="-0.7628830">
        <ele>514.0</ele>
        <time>2018-09-16T07:27:29Z</time>
      </trkpt>
      <trkpt lat="39.3208230" lon="-0.7628830">
        <ele>514.0</ele>
        <time>2018-09-16T07:27:30Z</time>
      </trkpt>
      <trkpt lat="39.3208230" lon="-0.7628830">
        <ele>513.0</ele>
        <time>2018-09-16T07:27:31Z</time>
      </trkpt>
      <trkpt lat="39.3207980" lon="-0.7628080">
        <ele>513.0</ele>
        <time>2018-09-16T07:27:32Z</time>
      </trkpt>
      <trkpt lat="39.3207980" lon="-0.7628080">
        <ele>513.0</ele>
        <time>2018-09-16T07:27:33Z</time>
      </trkpt>
      <trkpt lat="39.3207670" lon="-0.7627380">
        <ele>513.0</ele>
        <time>2018-09-16T07:27:34Z</time>
      </trkpt>
      <trkpt lat="39.3207450" lon="-0.7626980">
        <ele>512.0</ele>
        <time>2018-09-16T07:27:35Z</time>
      </trkpt>
      <trkpt lat="39.3207450" lon="-0.7626980">
        <ele>512.0</ele>
        <time>2018-09-16T07:27:36Z</time>
      </trkpt>
      <trkpt lat="39.3207130" lon="-0.7626180">
        <ele>512.0</ele>
        <time>2018-09-16T07:27:37Z</time>
      </trkpt>
      <trkpt lat="39.3207130" lon="-0.7626180">
        <ele>510.0</ele>
        <time>2018-09-16T07:27:38Z</time>
      </trkpt>
      <trkpt lat="39.3207050" lon="-0.7625330">
        <ele>510.0</ele>
        <time>2018-09-16T07:27:39Z</time>
      </trkpt>
      <trkpt lat="39.3207050" lon="-0.7625330">
        <ele>509.0</ele>
        <time>2018-09-16T07:27:40Z</time>
      </trkpt>
      <trkpt lat="39.3207200" lon="-0.7624620">
        <ele>509.0</ele>
        <time>2018-09-16T07:27:41Z</time>
      </trkpt>
      <trkpt lat="39.3207450" lon="-0.7623820">
        <ele>509.0</ele>
        <time>2018-09-16T07:27:42Z</time>
      </trkpt>
      <trkpt lat="39.3207450" lon="-0.7623820">
        <ele>509.0</ele>
        <time>2018-09-16T07:27:43Z</time>
      </trkpt>
      <trkpt lat="39.3207580" lon="-0.7623530">
        <ele>509.0</ele>
        <time>2018-09-16T07:27:44Z</time>
      </trkpt>
      <trkpt lat="39.3207700" lon="-0.7623230">
        <ele>509.0</ele>
        <time>2018-09-16T07:27:45Z</time>
      </trkpt>
      <trkpt lat="39.3207700" lon="-0.7623230">
        <ele>507.0</ele>
        <time>2018-09-16T07:27:46Z</time>
      </trkpt>
      <trkpt lat="39.3207930" lon="-0.7622450">
        <ele>507.0</ele>
        <time>2018-09-16T07:27:47Z</time>
      </trkpt>
      <trkpt lat="39.3208270" lon="-0.7621600">
        <ele>507.0</ele>
        <time>2018-09-16T07:27:48Z</time>
      </trkpt>
      <trkpt lat="39.3208270" lon="-0.7621600">
        <ele>507.0</ele>
        <time>2018-09-16T07:27:49Z</time>
      </trkpt>
      <trkpt lat="39.3208270" lon="-0.7621600">
        <ele>507.0</ele>
        <time>2018-09-16T07:27:50Z</time>
      </trkpt>
      <trkpt lat="39.3208550" lon="-0.7620630">
        <ele>507.0</ele>
        <time>2018-09-16T07:27:51Z</time>
      </trkpt>
      <trkpt lat="39.3208550" lon="-0.7620630">
        <ele>507.0</ele>
        <time>2018-09-16T07:27:52Z</time>
      </trkpt>
      <trkpt lat="39.3208770" lon="-0.7619530">
        <ele>507.0</ele>
        <time>2018-09-16T07:27:53Z</time>
      </trkpt>
      <trkpt lat="39.3208870" lon="-0.7618980">
        <ele>507.0</ele>
        <time>2018-09-16T07:27:54Z</time>
      </trkpt>
      <trkpt lat="39.3208870" lon="-0.7618980">
        <ele>507.0</ele>
        <time>2018-09-16T07:27:55Z</time>
      </trkpt>
      <trkpt lat="39.3209000" lon="-0.7617900">
        <ele>504.0</ele>
        <time>2018-09-16T07:27:56Z</time>
      </trkpt>
      <trkpt lat="39.3209000" lon="-0.7617900">
        <ele>504.0</ele>
        <time>2018-09-16T07:27:57Z</time>
      </trkpt>
      <trkpt lat="39.3208920" lon="-0.7616680">
        <ele>503.0</ele>
        <time>2018-09-16T07:27:58Z</time>
      </trkpt>
      <trkpt lat="39.3208920" lon="-0.7616680">
        <ele>503.0</ele>
        <time>2018-09-16T07:27:59Z</time>
      </trkpt>
      <trkpt lat="39.3208780" lon="-0.7615470">
        <ele>502.0</ele>
        <time>2018-09-16T07:28:00Z</time>
      </trkpt>
      <trkpt lat="39.3208720" lon="-0.7614900">
        <ele>502.0</ele>
        <time>2018-09-16T07:28:01Z</time>
      </trkpt>
      <trkpt lat="39.3208650" lon="-0.7613850">
        <ele>502.0</ele>
        <time>2018-09-16T07:28:02Z</time>
      </trkpt>
      <trkpt lat="39.3208650" lon="-0.7613850">
        <ele>502.0</ele>
        <time>2018-09-16T07:28:03Z</time>
      </trkpt>
      <trkpt lat="39.3208650" lon="-0.7613850">
        <ele>500.0</ele>
        <time>2018-09-16T07:28:04Z</time>
      </trkpt>
      <trkpt lat="39.3208650" lon="-0.7612850">
        <ele>500.0</ele>
        <time>2018-09-16T07:28:05Z</time>
      </trkpt>
      <trkpt lat="39.3208650" lon="-0.7612850">
        <ele>499.0</ele>
        <time>2018-09-16T07:28:06Z</time>
      </trkpt>
      <trkpt lat="39.3208630" lon="-0.7612020">
        <ele>498.0</ele>
        <time>2018-09-16T07:28:07Z</time>
      </trkpt>
      <trkpt lat="39.3208680" lon="-0.7611320">
        <ele>498.0</ele>
        <time>2018-09-16T07:28:08Z</time>
      </trkpt>
      <trkpt lat="39.3208680" lon="-0.7611320">
        <ele>498.0</ele>
        <time>2018-09-16T07:28:09Z</time>
      </trkpt>
      <trkpt lat="39.3208680" lon="-0.7611320">
        <ele>498.0</ele>
        <time>2018-09-16T07:28:10Z</time>
      </trkpt>
      <trkpt lat="39.3208720" lon="-0.7611100">
        <ele>497.0</ele>
        <time>2018-09-16T07:28:11Z</time>
      </trkpt>
      <trkpt lat="39.3208730" lon="-0.7611080">
        <ele>497.0</ele>
        <time>2018-09-16T07:28:12Z</time>
      </trkpt>
      <trkpt lat="39.3208730" lon="-0.7611080">
        <ele>497.0</ele>
        <time>2018-09-16T07:28:13Z</time>
      </trkpt>
      <trkpt lat="39.3208730" lon="-0.7611080">
        <ele>497.0</ele>
        <time>2018-09-16T07:28:14Z</time>
      </trkpt>
      <trkpt lat="39.3208730" lon="-0.7611080">
        <ele>497.0</ele>
        <time>2018-09-16T07:28:15Z</time>
      </trkpt>
      <trkpt lat="39.3208730" lon="-0.7611080">
        <ele>497.0</ele>
        <time>2018-09-16T07:28:16Z</time>
      </trkpt>
      <trkpt lat="39.3208730" lon="-0.7611080">
        <ele>497.0</ele>
        <time>2018-09-16T07:28:17Z</time>
      </trkpt>
      <trkpt lat="39.3208730" lon="-0.7611080">
        <ele>497.0</ele>
        <time>2018-09-16T07:28:18Z</time>
      </trkpt>
      <trkpt lat="39.3208730" lon="-0.7611080">
        <ele>497.0</ele>
        <time>2018-09-16T07:28:19Z</time>
      </trkpt>
      <trkpt lat="39.3208730" lon="-0.7611080">
        <ele>497.0</ele>
        <time>2018-09-16T07:28:20Z</time>
      </trkpt>
      <trkpt lat="39.3208730" lon="-0.7611080">
        <ele>497.0</ele>
        <time>2018-09-16T07:28:21Z</time>
      </trkpt>
      <trkpt lat="39.3208730" lon="-0.7611080">
        <ele>497.0</ele>
        <time>2018-09-16T07:28:22Z</time>
      </trkpt>
      <trkpt lat="39.3208730" lon="-0.7611080">
        <ele>497.0</ele>
        <time>2018-09-16T07:28:23Z</time>
      </trkpt>
      <trkpt lat="39.3208730" lon="-0.7611080">
        <ele>497.0</ele>
        <time>2018-09-16T07:28:24Z</time>
      </trkpt>
      <trkpt lat="39.3208730" lon="-0.7611080">
        <ele>497.0</ele>
        <time>2018-09-16T07:28:25Z</time>
      </trkpt>
      <trkpt lat="39.3208730" lon="-0.7611080">
        <ele>497.0</ele>
        <time>2018-09-16T07:28:26Z</time>
      </trkpt>
      <trkpt lat="39.3208730" lon="-0.7611080">
        <ele>497.0</ele>
        <time>2018-09-16T07:28:27Z</time>
      </trkpt>
      <trkpt lat="39.3208730" lon="-0.7611080">
        <ele>497.0</ele>
        <time>2018-09-16T07:28:28Z</time>
      </trkpt>
      <trkpt lat="39.3208730" lon="-0.7611080">
        <ele>497.0</ele>
        <time>2018-09-16T07:28:29Z</time>
      </trkpt>
      <trkpt lat="39.3208730" lon="-0.7611080">
        <ele>497.0</ele>
        <time>2018-09-16T07:28:30Z</time>
      </trkpt>
      <trkpt lat="39.3208730" lon="-0.7611080">
        <ele>497.0</ele>
        <time>2018-09-16T07:28:31Z</time>
      </trkpt>
      <trkpt lat="39.3208730" lon="-0.7611080">
        <ele>497.0</ele>
        <time>2018-09-16T07:28:32Z</time>
      </trkpt>
      <trkpt lat="39.3208730" lon="-0.7611080">
        <ele>497.0</ele>
        <time>2018-09-16T07:28:33Z</time>
      </trkpt>
      <trkpt lat="39.3208730" lon="-0.7611080">
        <ele>497.0</ele>
        <time>2018-09-16T07:28:34Z</time>
      </trkpt>
      <trkpt lat="39.3208730" lon="-0.7611080">
        <ele>497.0</ele>
        <time>2018-09-16T07:28:35Z</time>
      </trkpt>
      <trkpt lat="39.3208730" lon="-0.7611080">
        <ele>497.0</ele>
        <time>2018-09-16T07:28:36Z</time>
      </trkpt>
      <trkpt lat="39.3208730" lon="-0.7611080">
        <ele>497.0</ele>
        <time>2018-09-16T07:28:37Z</time>
      </trkpt>
      <trkpt lat="39.3208730" lon="-0.7611080">
        <ele>497.0</ele>
        <time>2018-09-16T07:28:38Z</time>
      </trkpt>
      <trkpt lat="39.3208730" lon="-0.7611080">
        <ele>497.0</ele>
        <time>2018-09-16T07:28:39Z</time>
      </trkpt>
      <trkpt lat="39.3208730" lon="-0.7611080">
        <ele>497.0</ele>
        <time>2018-09-16T07:28:40Z</time>
      </trkpt>
      <trkpt lat="39.3208730" lon="-0.7611080">
        <ele>497.0</ele>
        <time>2018-09-16T07:28:41Z</time>
      </trkpt>
      <trkpt lat="39.3208730" lon="-0.7611080">
        <ele>497.0</ele>
        <time>2018-09-16T07:28:42Z</time>
      </trkpt>
      <trkpt lat="39.3208730" lon="-0.7611080">
        <ele>497.0</ele>
        <time>2018-09-16T07:28:43Z</time>
      </trkpt>
      <trkpt lat="39.3208730" lon="-0.7611080">
        <ele>497.0</ele>
        <time>2018-09-16T07:28:44Z</time>
      </trkpt>
      <trkpt lat="39.3208730" lon="-0.7611080">
        <ele>497.0</ele>
        <time>2018-09-16T07:28:45Z</time>
      </trkpt>
      <trkpt lat="39.3208730" lon="-0.7611080">
        <ele>497.0</ele>
        <time>2018-09-16T07:28:46Z</time>
      </trkpt>
      <trkpt lat="39.3208950" lon="-0.7610870">
        <ele>497.0</ele>
        <time>2018-09-16T07:28:47Z</time>
      </trkpt>
      <trkpt lat="39.3208950" lon="-0.7610870">
        <ele>497.0</ele>
        <time>2018-09-16T07:28:48Z</time>
      </trkpt>
      <trkpt lat="39.3209030" lon="-0.7610420">
        <ele>497.0</ele>
        <time>2018-09-16T07:28:49Z</time>
      </trkpt>
      <trkpt lat="39.3209110" lon="-0.7610100">
        <ele>496.0</ele>
        <time>2018-09-16T07:28:50Z</time>
      </trkpt>
      <trkpt lat="39.3209180" lon="-0.7609780">
        <ele>496.0</ele>
        <time>2018-09-16T07:28:51Z</time>
      </trkpt>
      <trkpt lat="39.3209180" lon="-0.7609780">
        <ele>496.0</ele>
        <time>2018-09-16T07:28:52Z</time>
      </trkpt>
      <trkpt lat="39.3209430" lon="-0.7609120">
        <ele>496.0</ele>
        <time>2018-09-16T07:28:53Z</time>
      </trkpt>
      <trkpt lat="39.3209430" lon="-0.7609120">
        <ele>495.0</ele>
        <time>2018-09-16T07:28:54Z</time>
      </trkpt>
      <trkpt lat="39.3209620" lon="-0.7608300">
        <ele>495.0</ele>
        <time>2018-09-16T07:28:55Z</time>
      </trkpt>
      <trkpt lat="39.3209730" lon="-0.7607420">
        <ele>495.0</ele>
        <time>2018-09-16T07:28:56Z</time>
      </trkpt>
      <trkpt lat="39.3209730" lon="-0.7607420">
        <ele>495.0</ele>
        <time>2018-09-16T07:28:57Z</time>
      </trkpt>
      <trkpt lat="39.3209970" lon="-0.7606470">
        <ele>494.0</ele>
        <time>2018-09-16T07:28:58Z</time>
      </trkpt>
      <trkpt lat="39.3209970" lon="-0.7606470">
        <ele>494.0</ele>
        <time>2018-09-16T07:28:59Z</time>
      </trkpt>
      <trkpt lat="39.3210200" lon="-0.7605470">
        <ele>494.0</ele>
        <time>2018-09-16T07:29:00Z</time>
      </trkpt>
      <trkpt lat="39.3210200" lon="-0.7605470">
        <ele>494.0</ele>
        <time>2018-09-16T07:29:01Z</time>
      </trkpt>
      <trkpt lat="39.3210200" lon="-0.7605470">
        <ele>493.0</ele>
        <time>2018-09-16T07:29:02Z</time>
      </trkpt>
      <trkpt lat="39.3210480" lon="-0.7604480">
        <ele>493.0</ele>
        <time>2018-09-16T07:29:03Z</time>
      </trkpt>
      <trkpt lat="39.3210650" lon="-0.7603970">
        <ele>492.0</ele>
        <time>2018-09-16T07:29:04Z</time>
      </trkpt>
      <trkpt lat="39.3210920" lon="-0.7602800">
        <ele>492.0</ele>
        <time>2018-09-16T07:29:05Z</time>
      </trkpt>
      <trkpt lat="39.3210920" lon="-0.7602800">
        <ele>491.0</ele>
        <time>2018-09-16T07:29:06Z</time>
      </trkpt>
      <trkpt lat="39.3211100" lon="-0.7602230">
        <ele>491.0</ele>
        <time>2018-09-16T07:29:07Z</time>
      </trkpt>
      <trkpt lat="39.3211100" lon="-0.7602230">
        <ele>491.0</ele>
        <time>2018-09-16T07:29:08Z</time>
      </trkpt>
      <trkpt lat="39.3211480" lon="-0.7601180">
        <ele>491.0</ele>
        <time>2018-09-16T07:29:09Z</time>
      </trkpt>
      <trkpt lat="39.3211480" lon="-0.7601180">
        <ele>490.0</ele>
        <time>2018-09-16T07:29:10Z</time>
      </trkpt>
      <trkpt lat="39.3211720" lon="-0.7600130">
        <ele>490.0</ele>
        <time>2018-09-16T07:29:11Z</time>
      </trkpt>
      <trkpt lat="39.3211880" lon="-0.7599250">
        <ele>489.0</ele>
        <time>2018-09-16T07:29:12Z</time>
      </trkpt>
      <trkpt lat="39.3211880" lon="-0.7599250">
        <ele>489.0</ele>
        <time>2018-09-16T07:29:13Z</time>
      </trkpt>
      <trkpt lat="39.3211920" lon="-0.7598950">
        <ele>488.0</ele>
        <time>2018-09-16T07:29:14Z</time>
      </trkpt>
      <trkpt lat="39.3211900" lon="-0.7598740">
        <ele>488.0</ele>
        <time>2018-09-16T07:29:15Z</time>
      </trkpt>
      <trkpt lat="39.3211880" lon="-0.7598530">
        <ele>487.0</ele>
        <time>2018-09-16T07:29:16Z</time>
      </trkpt>
      <trkpt lat="39.3211880" lon="-0.7598500">
        <ele>487.0</ele>
        <time>2018-09-16T07:29:17Z</time>
      </trkpt>
      <trkpt lat="39.3211880" lon="-0.7598480">
        <ele>487.0</ele>
        <time>2018-09-16T07:29:18Z</time>
      </trkpt>
      <trkpt lat="39.3211880" lon="-0.7598470">
        <ele>487.0</ele>
        <time>2018-09-16T07:29:19Z</time>
      </trkpt>
      <trkpt lat="39.3211890" lon="-0.7598450">
        <ele>486.0</ele>
        <time>2018-09-16T07:29:20Z</time>
      </trkpt>
      <trkpt lat="39.3211890" lon="-0.7598430">
        <ele>486.0</ele>
        <time>2018-09-16T07:29:21Z</time>
      </trkpt>
      <trkpt lat="39.3211890" lon="-0.7598410">
        <ele>486.0</ele>
        <time>2018-09-16T07:29:22Z</time>
      </trkpt>
      <trkpt lat="39.3211890" lon="-0.7598390">
        <ele>486.0</ele>
        <time>2018-09-16T07:29:23Z</time>
      </trkpt>
      <trkpt lat="39.3211890" lon="-0.7598370">
        <ele>485.0</ele>
        <time>2018-09-16T07:29:24Z</time>
      </trkpt>
      <trkpt lat="39.3211890" lon="-0.7598360">
        <ele>485.0</ele>
        <time>2018-09-16T07:29:25Z</time>
      </trkpt>
      <trkpt lat="39.3211890" lon="-0.7598340">
        <ele>485.0</ele>
        <time>2018-09-16T07:29:26Z</time>
      </trkpt>
      <trkpt lat="39.3211890" lon="-0.7598320">
        <ele>485.0</ele>
        <time>2018-09-16T07:29:27Z</time>
      </trkpt>
      <trkpt lat="39.3211900" lon="-0.7598300">
        <ele>485.0</ele>
        <time>2018-09-16T07:29:28Z</time>
      </trkpt>
      <trkpt lat="39.3211900" lon="-0.7598280">
        <ele>485.0</ele>
        <time>2018-09-16T07:29:29Z</time>
      </trkpt>
      <trkpt lat="39.3211900" lon="-0.7598270">
        <ele>485.0</ele>
        <time>2018-09-16T07:29:30Z</time>
      </trkpt>
      <trkpt lat="39.3211900" lon="-0.7598250">
        <ele>486.0</ele>
        <time>2018-09-16T07:29:31Z</time>
      </trkpt>
      <trkpt lat="39.3211900" lon="-0.7598230">
        <ele>486.0</ele>
        <time>2018-09-16T07:29:32Z</time>
      </trkpt>
      <trkpt lat="39.3211900" lon="-0.7598210">
        <ele>486.0</ele>
        <time>2018-09-16T07:29:33Z</time>
      </trkpt>
      <trkpt lat="39.3211900" lon="-0.7598190">
        <ele>486.0</ele>
        <time>2018-09-16T07:29:34Z</time>
      </trkpt>
      <trkpt lat="39.3211910" lon="-0.7598180">
        <ele>486.0</ele>
        <time>2018-09-16T07:29:35Z</time>
      </trkpt>
      <trkpt lat="39.3211910" lon="-0.7598160">
        <ele>486.0</ele>
        <time>2018-09-16T07:29:36Z</time>
      </trkpt>
      <trkpt lat="39.3211910" lon="-0.7598140">
        <ele>486.0</ele>
        <time>2018-09-16T07:29:37Z</time>
      </trkpt>
      <trkpt lat="39.3211910" lon="-0.7598120">
        <ele>486.0</ele>
        <time>2018-09-16T07:29:38Z</time>
      </trkpt>
      <trkpt lat="39.3211910" lon="-0.7598100">
        <ele>486.0</ele>
        <time>2018-09-16T07:29:39Z</time>
      </trkpt>
      <trkpt lat="39.3211910" lon="-0.7598080">
        <ele>486.0</ele>
        <time>2018-09-16T07:29:40Z</time>
      </trkpt>
      <trkpt lat="39.3211910" lon="-0.7598070">
        <ele>486.0</ele>
        <time>2018-09-16T07:29:41Z</time>
      </trkpt>
      <trkpt lat="39.3211910" lon="-0.7598050">
        <ele>486.0</ele>
        <time>2018-09-16T07:29:42Z</time>
      </trkpt>
      <trkpt lat="39.3211920" lon="-0.7598030">
        <ele>486.0</ele>
        <time>2018-09-16T07:29:43Z</time>
      </trkpt>
      <trkpt lat="39.3211920" lon="-0.7598010">
        <ele>486.0</ele>
        <time>2018-09-16T07:29:44Z</time>
      </trkpt>
      <trkpt lat="39.3211920" lon="-0.7597990">
        <ele>486.0</ele>
        <time>2018-09-16T07:29:45Z</time>
      </trkpt>
      <trkpt lat="39.3211920" lon="-0.7597980">
        <ele>486.0</ele>
        <time>2018-09-16T07:30:37Z</time>
      </trkpt>
      <trkpt lat="39.3211920" lon="-0.7597960">
        <ele>486.0</ele>
        <time>2018-09-16T07:30:38Z</time>
      </trkpt>
      <trkpt lat="39.3211920" lon="-0.7597940">
        <ele>484.0</ele>
        <time>2018-09-16T07:30:39Z</time>
      </trkpt>
      <trkpt lat="39.3211920" lon="-0.7597920">
        <ele>484.0</ele>
        <time>2018-09-16T07:30:40Z</time>
      </trkpt>
      <trkpt lat="39.3211920" lon="-0.7597900">
        <ele>485.0</ele>
        <time>2018-09-16T07:30:41Z</time>
      </trkpt>
      <trkpt lat="39.3211930" lon="-0.7597880">
        <ele>485.0</ele>
        <time>2018-09-16T07:30:42Z</time>
      </trkpt>
      <trkpt lat="39.3211930" lon="-0.7597870">
        <ele>485.0</ele>
        <time>2018-09-16T07:30:43Z</time>
      </trkpt>
      <trkpt lat="39.3211930" lon="-0.7597850">
        <ele>485.0</ele>
        <time>2018-09-16T07:30:44Z</time>
      </trkpt>
      <trkpt lat="39.3211930" lon="-0.7597830">
        <ele>485.0</ele>
        <time>2018-09-16T07:30:45Z</time>
      </trkpt>
      <trkpt lat="39.3211930" lon="-0.7597550">
        <ele>485.0</ele>
        <time>2018-09-16T07:30:46Z</time>
      </trkpt>
      <trkpt lat="39.3211930" lon="-0.7597250">
        <ele>485.0</ele>
        <time>2018-09-16T07:30:47Z</time>
      </trkpt>
      <trkpt lat="39.3211930" lon="-0.7597250">
        <ele>485.0</ele>
        <time>2018-09-16T07:30:48Z</time>
      </trkpt>
      <trkpt lat="39.3212020" lon="-0.7596720">
        <ele>485.0</ele>
        <time>2018-09-16T07:30:49Z</time>
      </trkpt>
      <trkpt lat="39.3212050" lon="-0.7596450">
        <ele>485.0</ele>
        <time>2018-09-16T07:30:50Z</time>
      </trkpt>
      <trkpt lat="39.3212070" lon="-0.7596180">
        <ele>485.0</ele>
        <time>2018-09-16T07:30:51Z</time>
      </trkpt>
      <trkpt lat="39.3212120" lon="-0.7595900">
        <ele>484.0</ele>
        <time>2018-09-16T07:30:52Z</time>
      </trkpt>
      <trkpt lat="39.3212120" lon="-0.7595900">
        <ele>484.0</ele>
        <time>2018-09-16T07:30:53Z</time>
      </trkpt>
      <trkpt lat="39.3212150" lon="-0.7595370">
        <ele>484.0</ele>
        <time>2018-09-16T07:30:54Z</time>
      </trkpt>
      <trkpt lat="39.3212150" lon="-0.7595080">
        <ele>484.0</ele>
        <time>2018-09-16T07:30:55Z</time>
      </trkpt>
      <trkpt lat="39.3212150" lon="-0.7595080">
        <ele>484.0</ele>
        <time>2018-09-16T07:30:56Z</time>
      </trkpt>
      <trkpt lat="39.3212170" lon="-0.7594520">
        <ele>484.0</ele>
        <time>2018-09-16T07:30:57Z</time>
      </trkpt>
      <trkpt lat="39.3212170" lon="-0.7594520">
        <ele>483.0</ele>
        <time>2018-09-16T07:30:58Z</time>
      </trkpt>
      <trkpt lat="39.3212230" lon="-0.7593920">
        <ele>483.0</ele>
        <time>2018-09-16T07:30:59Z</time>
      </trkpt>
      <trkpt lat="39.3212280" lon="-0.7593620">
        <ele>483.0</ele>
        <time>2018-09-16T07:31:00Z</time>
      </trkpt>
      <trkpt lat="39.3212300" lon="-0.7593320">
        <ele>483.0</ele>
        <time>2018-09-16T07:31:01Z</time>
      </trkpt>
      <trkpt lat="39.3212280" lon="-0.7593070">
        <ele>482.0</ele>
        <time>2018-09-16T07:31:02Z</time>
      </trkpt>
      <trkpt lat="39.3212250" lon="-0.7592830">
        <ele>482.0</ele>
        <time>2018-09-16T07:31:03Z</time>
      </trkpt>
      <trkpt lat="39.3212200" lon="-0.7592600">
        <ele>482.0</ele>
        <time>2018-09-16T07:31:04Z</time>
      </trkpt>
      <trkpt lat="39.3212200" lon="-0.7592600">
        <ele>482.0</ele>
        <time>2018-09-16T07:31:05Z</time>
      </trkpt>
      <trkpt lat="39.3212130" lon="-0.7592070">
        <ele>481.0</ele>
        <time>2018-09-16T07:31:06Z</time>
      </trkpt>
      <trkpt lat="39.3212120" lon="-0.7591880">
        <ele>481.0</ele>
        <time>2018-09-16T07:31:07Z</time>
      </trkpt>
      <trkpt lat="39.3212120" lon="-0.7591880">
        <ele>481.0</ele>
        <time>2018-09-16T07:31:08Z</time>
      </trkpt>
      <trkpt lat="39.3212100" lon="-0.7591550">
        <ele>481.0</ele>
        <time>2018-09-16T07:31:09Z</time>
      </trkpt>
      <trkpt lat="39.3212080" lon="-0.7591320">
        <ele>481.0</ele>
        <time>2018-09-16T07:31:10Z</time>
      </trkpt>
      <trkpt lat="39.3212070" lon="-0.7591020">
        <ele>481.0</ele>
        <time>2018-09-16T07:31:11Z</time>
      </trkpt>
      <trkpt lat="39.3212050" lon="-0.7590720">
        <ele>481.0</ele>
        <time>2018-09-16T07:31:12Z</time>
      </trkpt>
      <trkpt lat="39.3212050" lon="-0.7590720">
        <ele>481.0</ele>
        <time>2018-09-16T07:31:13Z</time>
      </trkpt>
      <trkpt lat="39.3212080" lon="-0.7590050">
        <ele>481.0</ele>
        <time>2018-09-16T07:31:14Z</time>
      </trkpt>
      <trkpt lat="39.3212080" lon="-0.7590050">
        <ele>481.0</ele>
        <time>2018-09-16T07:31:15Z</time>
      </trkpt>
      <trkpt lat="39.3212050" lon="-0.7589380">
        <ele>479.0</ele>
        <time>2018-09-16T07:31:16Z</time>
      </trkpt>
      <trkpt lat="39.3212050" lon="-0.7589000">
        <ele>479.0</ele>
        <time>2018-09-16T07:31:17Z</time>
      </trkpt>
      <trkpt lat="39.3212080" lon="-0.7588630">
        <ele>478.0</ele>
        <time>2018-09-16T07:31:18Z</time>
      </trkpt>
      <trkpt lat="39.3212080" lon="-0.7588630">
        <ele>478.0</ele>
        <time>2018-09-16T07:31:19Z</time>
      </trkpt>
      <trkpt lat="39.3212130" lon="-0.7588070">
        <ele>478.0</ele>
        <time>2018-09-16T07:31:20Z</time>
      </trkpt>
      <trkpt lat="39.3212130" lon="-0.7588070">
        <ele>478.0</ele>
        <time>2018-09-16T07:31:21Z</time>
      </trkpt>
      <trkpt lat="39.3212200" lon="-0.7587600">
        <ele>478.0</ele>
        <time>2018-09-16T07:31:22Z</time>
      </trkpt>
      <trkpt lat="39.3212200" lon="-0.7587380">
        <ele>477.0</ele>
        <time>2018-09-16T07:31:23Z</time>
      </trkpt>
      <trkpt lat="39.3212200" lon="-0.7587380">
        <ele>477.0</ele>
        <time>2018-09-16T07:31:24Z</time>
      </trkpt>
      <trkpt lat="39.3212200" lon="-0.7587250">
        <ele>477.0</ele>
        <time>2018-09-16T07:31:25Z</time>
      </trkpt>
      <trkpt lat="39.3212200" lon="-0.7587250">
        <ele>477.0</ele>
        <time>2018-09-16T07:31:26Z</time>
      </trkpt>
      <trkpt lat="39.3212150" lon="-0.7587080">
        <ele>477.0</ele>
        <time>2018-09-16T07:31:27Z</time>
      </trkpt>
      <trkpt lat="39.3212170" lon="-0.7586980">
        <ele>477.0</ele>
        <time>2018-09-16T07:31:28Z</time>
      </trkpt>
      <trkpt lat="39.3212170" lon="-0.7586980">
        <ele>476.0</ele>
        <time>2018-09-16T07:31:29Z</time>
      </trkpt>
      <trkpt lat="39.3212230" lon="-0.7586620">
        <ele>476.0</ele>
        <time>2018-09-16T07:31:30Z</time>
      </trkpt>
      <trkpt lat="39.3212270" lon="-0.7586420">
        <ele>476.0</ele>
        <time>2018-09-16T07:31:31Z</time>
      </trkpt>
      <trkpt lat="39.3212270" lon="-0.7586420">
        <ele>476.0</ele>
        <time>2018-09-16T07:31:32Z</time>
      </trkpt>
      <trkpt lat="39.3212370" lon="-0.7586120">
        <ele>476.0</ele>
        <time>2018-09-16T07:31:33Z</time>
      </trkpt>
      <trkpt lat="39.3212420" lon="-0.7585970">
        <ele>476.0</ele>
        <time>2018-09-16T07:31:34Z</time>
      </trkpt>
      <trkpt lat="39.3212420" lon="-0.7585970">
        <ele>476.0</ele>
        <time>2018-09-16T07:31:35Z</time>
      </trkpt>
      <trkpt lat="39.3212520" lon="-0.7585570">
        <ele>476.0</ele>
        <time>2018-09-16T07:31:36Z</time>
      </trkpt>
      <trkpt lat="39.3212520" lon="-0.7585570">
        <ele>475.0</ele>
        <time>2018-09-16T07:31:37Z</time>
      </trkpt>
      <trkpt lat="39.3212600" lon="-0.7585130">
        <ele>475.0</ele>
        <time>2018-09-16T07:31:38Z</time>
      </trkpt>
      <trkpt lat="39.3212600" lon="-0.7585130">
        <ele>475.0</ele>
        <time>2018-09-16T07:31:39Z</time>
      </trkpt>
      <trkpt lat="39.3212650" lon="-0.7584530">
        <ele>475.0</ele>
        <time>2018-09-16T07:31:40Z</time>
      </trkpt>
      <trkpt lat="39.3212700" lon="-0.7584200">
        <ele>475.0</ele>
        <time>2018-09-16T07:31:41Z</time>
      </trkpt>
      <trkpt lat="39.3212730" lon="-0.7583880">
        <ele>475.0</ele>
        <time>2018-09-16T07:31:42Z</time>
      </trkpt>
      <trkpt lat="39.3212770" lon="-0.7583500">
        <ele>474.0</ele>
        <time>2018-09-16T07:31:43Z</time>
      </trkpt>
      <trkpt lat="39.3212770" lon="-0.7583500">
        <ele>474.0</ele>
        <time>2018-09-16T07:31:44Z</time>
      </trkpt>
      <trkpt lat="39.3212780" lon="-0.7582700">
        <ele>474.0</ele>
        <time>2018-09-16T07:31:45Z</time>
      </trkpt>
      <trkpt lat="39.3212780" lon="-0.7582700">
        <ele>474.0</ele>
        <time>2018-09-16T07:31:46Z</time>
      </trkpt>
      <trkpt lat="39.3212530" lon="-0.7581800">
        <ele>473.0</ele>
        <time>2018-09-16T07:31:47Z</time>
      </trkpt>
      <trkpt lat="39.3212530" lon="-0.7581800">
        <ele>473.0</ele>
        <time>2018-09-16T07:31:48Z</time>
      </trkpt>
      <trkpt lat="39.3212320" lon="-0.7580980">
        <ele>473.0</ele>
        <time>2018-09-16T07:31:49Z</time>
      </trkpt>
      <trkpt lat="39.3212320" lon="-0.7580980">
        <ele>472.0</ele>
        <time>2018-09-16T07:31:50Z</time>
      </trkpt>
      <trkpt lat="39.3212150" lon="-0.7580280">
        <ele>472.0</ele>
        <time>2018-09-16T07:31:51Z</time>
      </trkpt>
      <trkpt lat="39.3212080" lon="-0.7580100">
        <ele>471.0</ele>
        <time>2018-09-16T07:31:52Z</time>
      </trkpt>
      <trkpt lat="39.3212070" lon="-0.7580030">
        <ele>471.0</ele>
        <time>2018-09-16T07:31:53Z</time>
      </trkpt>
      <trkpt lat="39.3212070" lon="-0.7580030">
        <ele>471.0</ele>
        <time>2018-09-16T07:31:54Z</time>
      </trkpt>
      <trkpt lat="39.3212050" lon="-0.7580000">
        <ele>471.0</ele>
        <time>2018-09-16T07:31:55Z</time>
      </trkpt>
      <trkpt lat="39.3212050" lon="-0.7580000">
        <ele>471.0</ele>
        <time>2018-09-16T07:31:56Z</time>
      </trkpt>
      <trkpt lat="39.3212050" lon="-0.7580000">
        <ele>471.0</ele>
        <time>2018-09-16T07:31:57Z</time>
      </trkpt>
      <trkpt lat="39.3212050" lon="-0.7580000">
        <ele>470.0</ele>
        <time>2018-09-16T07:31:58Z</time>
      </trkpt>
      <trkpt lat="39.3212050" lon="-0.7580000">
        <ele>470.0</ele>
        <time>2018-09-16T07:31:59Z</time>
      </trkpt>
      <trkpt lat="39.3212050" lon="-0.7580000">
        <ele>470.0</ele>
        <time>2018-09-16T07:32:00Z</time>
      </trkpt>
      <trkpt lat="39.3212050" lon="-0.7580000">
        <ele>470.0</ele>
        <time>2018-09-16T07:32:01Z</time>
      </trkpt>
      <trkpt lat="39.3212050" lon="-0.7580000">
        <ele>470.0</ele>
        <time>2018-09-16T07:32:02Z</time>
      </trkpt>
      <trkpt lat="39.3212050" lon="-0.7580000">
        <ele>470.0</ele>
        <time>2018-09-16T07:32:03Z</time>
      </trkpt>
      <trkpt lat="39.3212050" lon="-0.7580000">
        <ele>470.0</ele>
        <time>2018-09-16T07:32:04Z</time>
      </trkpt>
      <trkpt lat="39.3212050" lon="-0.7580000">
        <ele>470.0</ele>
        <time>2018-09-16T07:32:05Z</time>
      </trkpt>
      <trkpt lat="39.3212050" lon="-0.7580000">
        <ele>470.0</ele>
        <time>2018-09-16T07:32:06Z</time>
      </trkpt>
      <trkpt lat="39.3212050" lon="-0.7580000">
        <ele>470.0</ele>
        <time>2018-09-16T07:32:07Z</time>
      </trkpt>
      <trkpt lat="39.3212050" lon="-0.7580000">
        <ele>470.0</ele>
        <time>2018-09-16T07:32:08Z</time>
      </trkpt>
      <trkpt lat="39.3212050" lon="-0.7580000">
        <ele>470.0</ele>
        <time>2018-09-16T07:32:09Z</time>
      </trkpt>
      <trkpt lat="39.3212050" lon="-0.7580000">
        <ele>470.0</ele>
        <time>2018-09-16T07:32:10Z</time>
      </trkpt>
      <trkpt lat="39.3212050" lon="-0.7580000">
        <ele>470.0</ele>
        <time>2018-09-16T07:32:11Z</time>
      </trkpt>
      <trkpt lat="39.3212050" lon="-0.7580000">
        <ele>470.0</ele>
        <time>2018-09-16T07:32:12Z</time>
      </trkpt>
      <trkpt lat="39.3212050" lon="-0.7580000">
        <ele>470.0</ele>
        <time>2018-09-16T07:32:13Z</time>
      </trkpt>
      <trkpt lat="39.3212050" lon="-0.7580000">
        <ele>470.0</ele>
        <time>2018-09-16T07:32:14Z</time>
      </trkpt>
      <trkpt lat="39.3212050" lon="-0.7580000">
        <ele>470.0</ele>
        <time>2018-09-16T07:32:15Z</time>
      </trkpt>
      <trkpt lat="39.3212050" lon="-0.7580000">
        <ele>470.0</ele>
        <time>2018-09-16T07:32:16Z</time>
      </trkpt>
      <trkpt lat="39.3212050" lon="-0.7580000">
        <ele>470.0</ele>
        <time>2018-09-16T07:32:17Z</time>
      </trkpt>
      <trkpt lat="39.3212000" lon="-0.7579530">
        <ele>470.0</ele>
        <time>2018-09-16T07:32:18Z</time>
      </trkpt>
      <trkpt lat="39.3211950" lon="-0.7579280">
        <ele>470.0</ele>
        <time>2018-09-16T07:32:19Z</time>
      </trkpt>
      <trkpt lat="39.3211890" lon="-0.7579030">
        <ele>470.0</ele>
        <time>2018-09-16T07:32:20Z</time>
      </trkpt>
      <trkpt lat="39.3211780" lon="-0.7578530">
        <ele>469.0</ele>
        <time>2018-09-16T07:32:21Z</time>
      </trkpt>
      <trkpt lat="39.3211530" lon="-0.7577600">
        <ele>469.0</ele>
        <time>2018-09-16T07:32:22Z</time>
      </trkpt>
      <trkpt lat="39.3211500" lon="-0.7577330">
        <ele>469.0</ele>
        <time>2018-09-16T07:32:23Z</time>
      </trkpt>
      <trkpt lat="39.3211500" lon="-0.7577330">
        <ele>469.0</ele>
        <time>2018-09-16T07:32:24Z</time>
      </trkpt>
      <trkpt lat="39.3211500" lon="-0.7577120">
        <ele>468.0</ele>
        <time>2018-09-16T07:32:25Z</time>
      </trkpt>
      <trkpt lat="39.3211500" lon="-0.7577080">
        <ele>468.0</ele>
        <time>2018-09-16T07:32:26Z</time>
      </trkpt>
      <trkpt lat="39.3211490" lon="-0.7577030">
        <ele>468.0</ele>
        <time>2018-09-16T07:32:27Z</time>
      </trkpt>
      <trkpt lat="39.3211490" lon="-0.7576990">
        <ele>468.0</ele>
        <time>2018-09-16T07:32:28Z</time>
      </trkpt>
      <trkpt lat="39.3211480" lon="-0.7576940">
        <ele>468.0</ele>
        <time>2018-09-16T07:32:29Z</time>
      </trkpt>
      <trkpt lat="39.3211480" lon="-0.7576900">
        <ele>468.0</ele>
        <time>2018-09-16T07:32:30Z</time>
      </trkpt>
      <trkpt lat="39.3211480" lon="-0.7576860">
        <ele>468.0</ele>
        <time>2018-09-16T07:32:31Z</time>
      </trkpt>
      <trkpt lat="39.3211470" lon="-0.7576810">
        <ele>468.0</ele>
        <time>2018-09-16T07:32:32Z</time>
      </trkpt>
      <trkpt lat="39.3211470" lon="-0.7576770">
        <ele>468.0</ele>
        <time>2018-09-16T07:32:33Z</time>
      </trkpt>
      <trkpt lat="39.3211460" lon="-0.7576720">
        <ele>468.0</ele>
        <time>2018-09-16T07:32:34Z</time>
      </trkpt>
      <trkpt lat="39.3211460" lon="-0.7576680">
        <ele>468.0</ele>
        <time>2018-09-16T07:32:35Z</time>
      </trkpt>
      <trkpt lat="39.3211450" lon="-0.7576630">
        <ele>468.0</ele>
        <time>2018-09-16T07:32:36Z</time>
      </trkpt>
      <trkpt lat="39.3211450" lon="-0.7576590">
        <ele>468.0</ele>
        <time>2018-09-16T07:32:37Z</time>
      </trkpt>
      <trkpt lat="39.3211450" lon="-0.7576550">
        <ele>466.0</ele>
        <time>2018-09-16T07:33:05Z</time>
      </trkpt>
      <trkpt lat="39.3211440" lon="-0.7576500">
        <ele>466.0</ele>
        <time>2018-09-16T07:33:06Z</time>
      </trkpt>
      <trkpt lat="39.3211440" lon="-0.7576460">
        <ele>466.0</ele>
        <time>2018-09-16T07:33:07Z</time>
      </trkpt>
      <trkpt lat="39.3211430" lon="-0.7576410">
        <ele>466.0</ele>
        <time>2018-09-16T07:33:08Z</time>
      </trkpt>
      <trkpt lat="39.3211430" lon="-0.7576370">
        <ele>466.0</ele>
        <time>2018-09-16T07:33:09Z</time>
      </trkpt>
      <trkpt lat="39.3211430" lon="-0.7576370">
        <ele>466.0</ele>
        <time>2018-09-16T07:33:10Z</time>
      </trkpt>
      <trkpt lat="39.3211400" lon="-0.7576200">
        <ele>466.0</ele>
        <time>2018-09-16T07:33:11Z</time>
      </trkpt>
      <trkpt lat="39.3211400" lon="-0.7576200">
        <ele>466.0</ele>
        <time>2018-09-16T07:33:12Z</time>
      </trkpt>
      <trkpt lat="39.3211370" lon="-0.7575880">
        <ele>466.0</ele>
        <time>2018-09-16T07:33:13Z</time>
      </trkpt>
      <trkpt lat="39.3211370" lon="-0.7575880">
        <ele>466.0</ele>
        <time>2018-09-16T07:33:14Z</time>
      </trkpt>
      <trkpt lat="39.3211370" lon="-0.7575500">
        <ele>466.0</ele>
        <time>2018-09-16T07:33:15Z</time>
      </trkpt>
      <trkpt lat="39.3211420" lon="-0.7575230">
        <ele>466.0</ele>
        <time>2018-09-16T07:33:16Z</time>
      </trkpt>
      <trkpt lat="39.3211420" lon="-0.7575230">
        <ele>466.0</ele>
        <time>2018-09-16T07:33:17Z</time>
      </trkpt>
      <trkpt lat="39.3211680" lon="-0.7574450">
        <ele>466.0</ele>
        <time>2018-09-16T07:33:18Z</time>
      </trkpt>
      <trkpt lat="39.3211830" lon="-0.7574070">
        <ele>465.0</ele>
        <time>2018-09-16T07:33:19Z</time>
      </trkpt>
      <trkpt lat="39.3211830" lon="-0.7574070">
        <ele>465.0</ele>
        <time>2018-09-16T07:33:20Z</time>
      </trkpt>
      <trkpt lat="39.3212130" lon="-0.7573230">
        <ele>465.0</ele>
        <time>2018-09-16T07:33:21Z</time>
      </trkpt>
      <trkpt lat="39.3212320" lon="-0.7572880">
        <ele>464.0</ele>
        <time>2018-09-16T07:33:22Z</time>
      </trkpt>
      <trkpt lat="39.3212500" lon="-0.7572530">
        <ele>464.0</ele>
        <time>2018-09-16T07:33:23Z</time>
      </trkpt>
      <trkpt lat="39.3212500" lon="-0.7572530">
        <ele>463.0</ele>
        <time>2018-09-16T07:33:24Z</time>
      </trkpt>
      <trkpt lat="39.3212750" lon="-0.7572080">
        <ele>463.0</ele>
        <time>2018-09-16T07:33:25Z</time>
      </trkpt>
      <trkpt lat="39.3212750" lon="-0.7572080">
        <ele>463.0</ele>
        <time>2018-09-16T07:33:26Z</time>
      </trkpt>
      <trkpt lat="39.3212750" lon="-0.7572100">
        <ele>463.0</ele>
        <time>2018-09-16T07:33:27Z</time>
      </trkpt>
      <trkpt lat="39.3212780" lon="-0.7572100">
        <ele>462.0</ele>
        <time>2018-09-16T07:33:28Z</time>
      </trkpt>
      <trkpt lat="39.3212780" lon="-0.7572100">
        <ele>462.0</ele>
        <time>2018-09-16T07:33:29Z</time>
      </trkpt>
      <trkpt lat="39.3212780" lon="-0.7572250">
        <ele>462.0</ele>
        <time>2018-09-16T07:33:30Z</time>
      </trkpt>
      <trkpt lat="39.3212770" lon="-0.7572250">
        <ele>462.0</ele>
        <time>2018-09-16T07:33:31Z</time>
      </trkpt>
      <trkpt lat="39.3212770" lon="-0.7572250">
        <ele>462.0</ele>
        <time>2018-09-16T07:33:32Z</time>
      </trkpt>
      <trkpt lat="39.3212780" lon="-0.7572270">
        <ele>462.0</ele>
        <time>2018-09-16T07:33:33Z</time>
      </trkpt>
      <trkpt lat="39.3212780" lon="-0.7572270">
        <ele>462.0</ele>
        <time>2018-09-16T07:33:34Z</time>
      </trkpt>
      <trkpt lat="39.3212780" lon="-0.7572270">
        <ele>462.0</ele>
        <time>2018-09-16T07:33:35Z</time>
      </trkpt>
      <trkpt lat="39.3212780" lon="-0.7572270">
        <ele>462.0</ele>
        <time>2018-09-16T07:33:36Z</time>
      </trkpt>
      <trkpt lat="39.3212780" lon="-0.7572270">
        <ele>462.0</ele>
        <time>2018-09-16T07:33:37Z</time>
      </trkpt>
      <trkpt lat="39.3212780" lon="-0.7572270">
        <ele>462.0</ele>
        <time>2018-09-16T07:33:38Z</time>
      </trkpt>
      <trkpt lat="39.3212780" lon="-0.7572270">
        <ele>462.0</ele>
        <time>2018-09-16T07:33:39Z</time>
      </trkpt>
      <trkpt lat="39.3212780" lon="-0.7572270">
        <ele>462.0</ele>
        <time>2018-09-16T07:33:40Z</time>
      </trkpt>
      <trkpt lat="39.3212780" lon="-0.7572270">
        <ele>462.0</ele>
        <time>2018-09-16T07:33:41Z</time>
      </trkpt>
      <trkpt lat="39.3212780" lon="-0.7572270">
        <ele>462.0</ele>
        <time>2018-09-16T07:33:42Z</time>
      </trkpt>
      <trkpt lat="39.3212780" lon="-0.7572270">
        <ele>462.0</ele>
        <time>2018-09-16T07:33:43Z</time>
      </trkpt>
      <trkpt lat="39.3212780" lon="-0.7572270">
        <ele>462.0</ele>
        <time>2018-09-16T07:33:44Z</time>
      </trkpt>
      <trkpt lat="39.3212780" lon="-0.7572270">
        <ele>462.0</ele>
        <time>2018-09-16T07:33:45Z</time>
      </trkpt>
      <trkpt lat="39.3212780" lon="-0.7572270">
        <ele>462.0</ele>
        <time>2018-09-16T07:33:46Z</time>
      </trkpt>
      <trkpt lat="39.3212780" lon="-0.7572270">
        <ele>462.0</ele>
        <time>2018-09-16T07:33:47Z</time>
      </trkpt>
      <trkpt lat="39.3212780" lon="-0.7572270">
        <ele>462.0</ele>
        <time>2018-09-16T07:33:48Z</time>
      </trkpt>
      <trkpt lat="39.3212780" lon="-0.7572270">
        <ele>462.0</ele>
        <time>2018-09-16T07:33:49Z</time>
      </trkpt>
      <trkpt lat="39.3212900" lon="-0.7572050">
        <ele>462.0</ele>
        <time>2018-09-16T07:33:50Z</time>
      </trkpt>
      <trkpt lat="39.3212900" lon="-0.7572050">
        <ele>462.0</ele>
        <time>2018-09-16T07:33:51Z</time>
      </trkpt>
      <trkpt lat="39.3213050" lon="-0.7571820">
        <ele>462.0</ele>
        <time>2018-09-16T07:33:52Z</time>
      </trkpt>
      <trkpt lat="39.3213150" lon="-0.7571650">
        <ele>462.0</ele>
        <time>2018-09-16T07:33:53Z</time>
      </trkpt>
      <trkpt lat="39.3213250" lon="-0.7571430">
        <ele>462.0</ele>
        <time>2018-09-16T07:33:54Z</time>
      </trkpt>
      <trkpt lat="39.3213360" lon="-0.7571240">
        <ele>461.0</ele>
        <time>2018-09-16T07:33:55Z</time>
      </trkpt>
      <trkpt lat="39.3213470" lon="-0.7571050">
        <ele>461.0</ele>
        <time>2018-09-16T07:33:56Z</time>
      </trkpt>
      <trkpt lat="39.3213470" lon="-0.7571050">
        <ele>461.0</ele>
        <time>2018-09-16T07:33:57Z</time>
      </trkpt>
      <trkpt lat="39.3213670" lon="-0.7570780">
        <ele>461.0</ele>
        <time>2018-09-16T07:33:58Z</time>
      </trkpt>
      <trkpt lat="39.3213750" lon="-0.7570700">
        <ele>460.0</ele>
        <time>2018-09-16T07:33:59Z</time>
      </trkpt>
      <trkpt lat="39.3213750" lon="-0.7570700">
        <ele>460.0</ele>
        <time>2018-09-16T07:34:00Z</time>
      </trkpt>
      <trkpt lat="39.3214000" lon="-0.7570480">
        <ele>460.0</ele>
        <time>2018-09-16T07:34:01Z</time>
      </trkpt>
      <trkpt lat="39.3214000" lon="-0.7570480">
        <ele>460.0</ele>
        <time>2018-09-16T07:34:02Z</time>
      </trkpt>
      <trkpt lat="39.3214220" lon="-0.7570130">
        <ele>459.0</ele>
        <time>2018-09-16T07:34:03Z</time>
      </trkpt>
      <trkpt lat="39.3214220" lon="-0.7570130">
        <ele>459.0</ele>
        <time>2018-09-16T07:34:04Z</time>
      </trkpt>
      <trkpt lat="39.3214180" lon="-0.7569650">
        <ele>459.0</ele>
        <time>2018-09-16T07:34:05Z</time>
      </trkpt>
      <trkpt lat="39.3214180" lon="-0.7569650">
        <ele>459.0</ele>
        <time>2018-09-16T07:34:06Z</time>
      </trkpt>
      <trkpt lat="39.3214120" lon="-0.7569400">
        <ele>458.0</ele>
        <time>2018-09-16T07:34:07Z</time>
      </trkpt>
      <trkpt lat="39.3214120" lon="-0.7569400">
        <ele>458.0</ele>
        <time>2018-09-16T07:34:08Z</time>
      </trkpt>
      <trkpt lat="39.3214070" lon="-0.7569270">
        <ele>458.0</ele>
        <time>2018-09-16T07:34:09Z</time>
      </trkpt>
      <trkpt lat="39.3214070" lon="-0.7569270">
        <ele>458.0</ele>
        <time>2018-09-16T07:34:10Z</time>
      </trkpt>
      <trkpt lat="39.3214030" lon="-0.7569050">
        <ele>458.0</ele>
        <time>2018-09-16T07:34:11Z</time>
      </trkpt>
      <trkpt lat="39.3214020" lon="-0.7568970">
        <ele>458.0</ele>
        <time>2018-09-16T07:34:12Z</time>
      </trkpt>
      <trkpt lat="39.3214020" lon="-0.7568970">
        <ele>458.0</ele>
        <time>2018-09-16T07:34:13Z</time>
      </trkpt>
      <trkpt lat="39.3214050" lon="-0.7568800">
        <ele>458.0</ele>
        <time>2018-09-16T07:34:14Z</time>
      </trkpt>
      <trkpt lat="39.3214050" lon="-0.7568800">
        <ele>459.0</ele>
        <time>2018-09-16T07:34:15Z</time>
      </trkpt>
      <trkpt lat="39.3214070" lon="-0.7568630">
        <ele>459.0</ele>
        <time>2018-09-16T07:34:16Z</time>
      </trkpt>
      <trkpt lat="39.3214100" lon="-0.7568600">
        <ele>459.0</ele>
        <time>2018-09-16T07:34:17Z</time>
      </trkpt>
      <trkpt lat="39.3214100" lon="-0.7568600">
        <ele>459.0</ele>
        <time>2018-09-16T07:34:18Z</time>
      </trkpt>
      <trkpt lat="39.3214150" lon="-0.7568600">
        <ele>459.0</ele>
        <time>2018-09-16T07:34:19Z</time>
      </trkpt>
      <trkpt lat="39.3214150" lon="-0.7568600">
        <ele>459.0</ele>
        <time>2018-09-16T07:34:20Z</time>
      </trkpt>
      <trkpt lat="39.3214280" lon="-0.7568500">
        <ele>459.0</ele>
        <time>2018-09-16T07:34:21Z</time>
      </trkpt>
      <trkpt lat="39.3214280" lon="-0.7568500">
        <ele>459.0</ele>
        <time>2018-09-16T07:34:22Z</time>
      </trkpt>
      <trkpt lat="39.3214480" lon="-0.7568170">
        <ele>459.0</ele>
        <time>2018-09-16T07:34:23Z</time>
      </trkpt>
      <trkpt lat="39.3214550" lon="-0.7567950">
        <ele>459.0</ele>
        <time>2018-09-16T07:34:24Z</time>
      </trkpt>
      <trkpt lat="39.3214550" lon="-0.7567950">
        <ele>460.0</ele>
        <time>2018-09-16T07:34:25Z</time>
      </trkpt>
      <trkpt lat="39.3214640" lon="-0.7567490">
        <ele>460.0</ele>
        <time>2018-09-16T07:34:26Z</time>
      </trkpt>
      <trkpt lat="39.3214650" lon="-0.7567460">
        <ele>460.0</ele>
        <time>2018-09-16T07:34:27Z</time>
      </trkpt>
      <trkpt lat="39.3214660" lon="-0.7567420">
        <ele>460.0</ele>
        <time>2018-09-16T07:34:28Z</time>
      </trkpt>
      <trkpt lat="39.3214660" lon="-0.7567390">
        <ele>460.0</ele>
        <time>2018-09-16T07:34:29Z</time>
      </trkpt>
      <trkpt lat="39.3214670" lon="-0.7567350">
        <ele>460.0</ele>
        <time>2018-09-16T07:34:30Z</time>
      </trkpt>
      <trkpt lat="39.3214680" lon="-0.7567320">
        <ele>460.0</ele>
        <time>2018-09-16T07:34:31Z</time>
      </trkpt>
      <trkpt lat="39.3214690" lon="-0.7567280">
        <ele>460.0</ele>
        <time>2018-09-16T07:34:32Z</time>
      </trkpt>
      <trkpt lat="39.3214700" lon="-0.7567240">
        <ele>460.0</ele>
        <time>2018-09-16T07:34:33Z</time>
      </trkpt>
      <trkpt lat="39.3214710" lon="-0.7567210">
        <ele>460.0</ele>
        <time>2018-09-16T07:34:34Z</time>
      </trkpt>
      <trkpt lat="39.3214720" lon="-0.7567170">
        <ele>460.0</ele>
        <time>2018-09-16T07:34:35Z</time>
      </trkpt>
      <trkpt lat="39.3214720" lon="-0.7567140">
        <ele>460.0</ele>
        <time>2018-09-16T07:34:36Z</time>
      </trkpt>
      <trkpt lat="39.3214730" lon="-0.7567100">
        <ele>460.0</ele>
        <time>2018-09-16T07:34:37Z</time>
      </trkpt>
      <trkpt lat="39.3214740" lon="-0.7567070">
        <ele>460.0</ele>
        <time>2018-09-16T07:34:38Z</time>
      </trkpt>
      <trkpt lat="39.3214750" lon="-0.7567030">
        <ele>460.0</ele>
        <time>2018-09-16T07:34:39Z</time>
      </trkpt>
      <trkpt lat="39.3214750" lon="-0.7567030">
        <ele>460.0</ele>
        <time>2018-09-16T07:34:40Z</time>
      </trkpt>
      <trkpt lat="39.3214930" lon="-0.7566530">
        <ele>460.0</ele>
        <time>2018-09-16T07:34:41Z</time>
      </trkpt>
      <trkpt lat="39.3214980" lon="-0.7566240">
        <ele>460.0</ele>
        <time>2018-09-16T07:34:42Z</time>
      </trkpt>
      <trkpt lat="39.3215020" lon="-0.7565950">
        <ele>460.0</ele>
        <time>2018-09-16T07:34:43Z</time>
      </trkpt>
      <trkpt lat="39.3215020" lon="-0.7565950">
        <ele>461.0</ele>
        <time>2018-09-16T07:34:44Z</time>
      </trkpt>
      <trkpt lat="39.3215120" lon="-0.7565300">
        <ele>461.0</ele>
        <time>2018-09-16T07:34:45Z</time>
      </trkpt>
      <trkpt lat="39.3215200" lon="-0.7565020">
        <ele>461.0</ele>
        <time>2018-09-16T07:34:46Z</time>
      </trkpt>
      <trkpt lat="39.3215200" lon="-0.7565020">
        <ele>461.0</ele>
        <time>2018-09-16T07:34:47Z</time>
      </trkpt>
      <trkpt lat="39.3215370" lon="-0.7564420">
        <ele>461.0</ele>
        <time>2018-09-16T07:34:48Z</time>
      </trkpt>
      <trkpt lat="39.3215400" lon="-0.7564130">
        <ele>461.0</ele>
        <time>2018-09-16T07:34:49Z</time>
      </trkpt>
      <trkpt lat="39.3215400" lon="-0.7564130">
        <ele>461.0</ele>
        <time>2018-09-16T07:34:50Z</time>
      </trkpt>
      <trkpt lat="39.3215570" lon="-0.7563720">
        <ele>461.0</ele>
        <time>2018-09-16T07:34:51Z</time>
      </trkpt>
      <trkpt lat="39.3215590" lon="-0.7563450">
        <ele>461.0</ele>
        <time>2018-09-16T07:34:52Z</time>
      </trkpt>
      <trkpt lat="39.3215600" lon="-0.7563170">
        <ele>462.0</ele>
        <time>2018-09-16T07:34:53Z</time>
      </trkpt>
      <trkpt lat="39.3215590" lon="-0.7562810">
        <ele>462.0</ele>
        <time>2018-09-16T07:34:54Z</time>
      </trkpt>
      <trkpt lat="39.3215570" lon="-0.7562450">
        <ele>462.0</ele>
        <time>2018-09-16T07:34:55Z</time>
      </trkpt>
      <trkpt lat="39.3215570" lon="-0.7562450">
        <ele>462.0</ele>
        <time>2018-09-16T07:34:56Z</time>
      </trkpt>
      <trkpt lat="39.3215520" lon="-0.7561670">
        <ele>462.0</ele>
        <time>2018-09-16T07:34:57Z</time>
      </trkpt>
      <trkpt lat="39.3215480" lon="-0.7561280">
        <ele>462.0</ele>
        <time>2018-09-16T07:34:58Z</time>
      </trkpt>
      <trkpt lat="39.3215480" lon="-0.7561280">
        <ele>462.0</ele>
        <time>2018-09-16T07:34:59Z</time>
      </trkpt>
      <trkpt lat="39.3215550" lon="-0.7560530">
        <ele>462.0</ele>
        <time>2018-09-16T07:35:00Z</time>
      </trkpt>
      <trkpt lat="39.3215620" lon="-0.7560120">
        <ele>462.0</ele>
        <time>2018-09-16T07:35:01Z</time>
      </trkpt>
      <trkpt lat="39.3215620" lon="-0.7560120">
        <ele>462.0</ele>
        <time>2018-09-16T07:35:02Z</time>
      </trkpt>
      <trkpt lat="39.3215620" lon="-0.7559270">
        <ele>462.0</ele>
        <time>2018-09-16T07:35:03Z</time>
      </trkpt>
      <trkpt lat="39.3215620" lon="-0.7559270">
        <ele>462.0</ele>
        <time>2018-09-16T07:35:04Z</time>
      </trkpt>
      <trkpt lat="39.3215520" lon="-0.7558370">
        <ele>462.0</ele>
        <time>2018-09-16T07:35:05Z</time>
      </trkpt>
      <trkpt lat="39.3215520" lon="-0.7558370">
        <ele>462.0</ele>
        <time>2018-09-16T07:35:06Z</time>
      </trkpt>
      <trkpt lat="39.3215420" lon="-0.7557430">
        <ele>462.0</ele>
        <time>2018-09-16T07:35:07Z</time>
      </trkpt>
      <trkpt lat="39.3215420" lon="-0.7557430">
        <ele>462.0</ele>
        <time>2018-09-16T07:35:08Z</time>
      </trkpt>
      <trkpt lat="39.3215380" lon="-0.7556530">
        <ele>462.0</ele>
        <time>2018-09-16T07:35:09Z</time>
      </trkpt>
      <trkpt lat="39.3215380" lon="-0.7556530">
        <ele>462.0</ele>
        <time>2018-09-16T07:35:10Z</time>
      </trkpt>
      <trkpt lat="39.3215220" lon="-0.7555720">
        <ele>462.0</ele>
        <time>2018-09-16T07:35:11Z</time>
      </trkpt>
      <trkpt lat="39.3215220" lon="-0.7555720">
        <ele>461.0</ele>
        <time>2018-09-16T07:35:12Z</time>
      </trkpt>
      <trkpt lat="39.3215070" lon="-0.7554920">
        <ele>461.0</ele>
        <time>2018-09-16T07:35:13Z</time>
      </trkpt>
      <trkpt lat="39.3215070" lon="-0.7554920">
        <ele>461.0</ele>
        <time>2018-09-16T07:35:14Z</time>
      </trkpt>
      <trkpt lat="39.3214920" lon="-0.7554150">
        <ele>461.0</ele>
        <time>2018-09-16T07:35:15Z</time>
      </trkpt>
      <trkpt lat="39.3214830" lon="-0.7553820">
        <ele>461.0</ele>
        <time>2018-09-16T07:35:16Z</time>
      </trkpt>
      <trkpt lat="39.3214830" lon="-0.7553820">
        <ele>461.0</ele>
        <time>2018-09-16T07:35:17Z</time>
      </trkpt>
      <trkpt lat="39.3214750" lon="-0.7553270">
        <ele>461.0</ele>
        <time>2018-09-16T07:35:18Z</time>
      </trkpt>
      <trkpt lat="39.3214680" lon="-0.7552970">
        <ele>461.0</ele>
        <time>2018-09-16T07:35:19Z</time>
      </trkpt>
      <trkpt lat="39.3214680" lon="-0.7552970">
        <ele>461.0</ele>
        <time>2018-09-16T07:35:20Z</time>
      </trkpt>
      <trkpt lat="39.3214470" lon="-0.7552350">
        <ele>461.0</ele>
        <time>2018-09-16T07:35:21Z</time>
      </trkpt>
      <trkpt lat="39.3214470" lon="-0.7552350">
        <ele>461.0</ele>
        <time>2018-09-16T07:35:22Z</time>
      </trkpt>
      <trkpt lat="39.3214270" lon="-0.7551770">
        <ele>461.0</ele>
        <time>2018-09-16T07:35:23Z</time>
      </trkpt>
      <trkpt lat="39.3214150" lon="-0.7551500">
        <ele>461.0</ele>
        <time>2018-09-16T07:35:24Z</time>
      </trkpt>
      <trkpt lat="39.3214020" lon="-0.7551280">
        <ele>461.0</ele>
        <time>2018-09-16T07:35:25Z</time>
      </trkpt>
      <trkpt lat="39.3214020" lon="-0.7551280">
        <ele>461.0</ele>
        <time>2018-09-16T07:35:26Z</time>
      </trkpt>
      <trkpt lat="39.3213820" lon="-0.7550970">
        <ele>461.0</ele>
        <time>2018-09-16T07:35:27Z</time>
      </trkpt>
      <trkpt lat="39.3213820" lon="-0.7550970">
        <ele>461.0</ele>
        <time>2018-09-16T07:35:28Z</time>
      </trkpt>
      <trkpt lat="39.3213680" lon="-0.7550530">
        <ele>461.0</ele>
        <time>2018-09-16T07:35:29Z</time>
      </trkpt>
      <trkpt lat="39.3213680" lon="-0.7550530">
        <ele>461.0</ele>
        <time>2018-09-16T07:35:30Z</time>
      </trkpt>
      <trkpt lat="39.3213610" lon="-0.7550050">
        <ele>461.0</ele>
        <time>2018-09-16T07:35:31Z</time>
      </trkpt>
      <trkpt lat="39.3213590" lon="-0.7549940">
        <ele>461.0</ele>
        <time>2018-09-16T07:35:32Z</time>
      </trkpt>
      <trkpt lat="39.3213580" lon="-0.7549820">
        <ele>461.0</ele>
        <time>2018-09-16T07:35:33Z</time>
      </trkpt>
      <trkpt lat="39.3213580" lon="-0.7549820">
        <ele>461.0</ele>
        <time>2018-09-16T07:35:34Z</time>
      </trkpt>
      <trkpt lat="39.3213370" lon="-0.7549500">
        <ele>461.0</ele>
        <time>2018-09-16T07:35:35Z</time>
      </trkpt>
      <trkpt lat="39.3213370" lon="-0.7549500">
        <ele>461.0</ele>
        <time>2018-09-16T07:35:36Z</time>
      </trkpt>
      <trkpt lat="39.3213150" lon="-0.7549050">
        <ele>461.0</ele>
        <time>2018-09-16T07:35:37Z</time>
      </trkpt>
      <trkpt lat="39.3213150" lon="-0.7549050">
        <ele>461.0</ele>
        <time>2018-09-16T07:35:38Z</time>
      </trkpt>
      <trkpt lat="39.3213020" lon="-0.7548580">
        <ele>461.0</ele>
        <time>2018-09-16T07:35:39Z</time>
      </trkpt>
      <trkpt lat="39.3212970" lon="-0.7548370">
        <ele>461.0</ele>
        <time>2018-09-16T07:35:40Z</time>
      </trkpt>
      <trkpt lat="39.3212910" lon="-0.7548170">
        <ele>461.0</ele>
        <time>2018-09-16T07:35:41Z</time>
      </trkpt>
      <trkpt lat="39.3212860" lon="-0.7547960">
        <ele>461.0</ele>
        <time>2018-09-16T07:35:42Z</time>
      </trkpt>
      <trkpt lat="39.3212810" lon="-0.7547760">
        <ele>461.0</ele>
        <time>2018-09-16T07:35:43Z</time>
      </trkpt>
      <trkpt lat="39.3212750" lon="-0.7547550">
        <ele>461.0</ele>
        <time>2018-09-16T07:35:44Z</time>
      </trkpt>
      <trkpt lat="39.3212700" lon="-0.7547350">
        <ele>461.0</ele>
        <time>2018-09-16T07:35:45Z</time>
      </trkpt>
      <trkpt lat="39.3212700" lon="-0.7547350">
        <ele>461.0</ele>
        <time>2018-09-16T07:35:46Z</time>
      </trkpt>
      <trkpt lat="39.3212520" lon="-0.7546920">
        <ele>462.0</ele>
        <time>2018-09-16T07:35:47Z</time>
      </trkpt>
      <trkpt lat="39.3212520" lon="-0.7546920">
        <ele>462.0</ele>
        <time>2018-09-16T07:35:48Z</time>
      </trkpt>
      <trkpt lat="39.3212350" lon="-0.7546500">
        <ele>462.0</ele>
        <time>2018-09-16T07:35:49Z</time>
      </trkpt>
      <trkpt lat="39.3212350" lon="-0.7546500">
        <ele>462.0</ele>
        <time>2018-09-16T07:35:50Z</time>
      </trkpt>
      <trkpt lat="39.3212130" lon="-0.7546050">
        <ele>462.0</ele>
        <time>2018-09-16T07:35:51Z</time>
      </trkpt>
      <trkpt lat="39.3212050" lon="-0.7545820">
        <ele>462.0</ele>
        <time>2018-09-16T07:35:52Z</time>
      </trkpt>
      <trkpt lat="39.3212050" lon="-0.7545820">
        <ele>462.0</ele>
        <time>2018-09-16T07:35:53Z</time>
      </trkpt>
      <trkpt lat="39.3211850" lon="-0.7545350">
        <ele>462.0</ele>
        <time>2018-09-16T07:35:54Z</time>
      </trkpt>
      <trkpt lat="39.3211730" lon="-0.7545120">
        <ele>462.0</ele>
        <time>2018-09-16T07:35:55Z</time>
      </trkpt>
      <trkpt lat="39.3211730" lon="-0.7545120">
        <ele>462.0</ele>
        <time>2018-09-16T07:35:56Z</time>
      </trkpt>
      <trkpt lat="39.3211530" lon="-0.7544750">
        <ele>462.0</ele>
        <time>2018-09-16T07:35:57Z</time>
      </trkpt>
      <trkpt lat="39.3211530" lon="-0.7544750">
        <ele>462.0</ele>
        <time>2018-09-16T07:35:58Z</time>
      </trkpt>
      <trkpt lat="39.3211330" lon="-0.7544320">
        <ele>463.0</ele>
        <time>2018-09-16T07:35:59Z</time>
      </trkpt>
      <trkpt lat="39.3211330" lon="-0.7544320">
        <ele>463.0</ele>
        <time>2018-09-16T07:36:00Z</time>
      </trkpt>
      <trkpt lat="39.3211080" lon="-0.7544000">
        <ele>463.0</ele>
        <time>2018-09-16T07:36:01Z</time>
      </trkpt>
      <trkpt lat="39.3210980" lon="-0.7543830">
        <ele>463.0</ele>
        <time>2018-09-16T07:36:02Z</time>
      </trkpt>
      <trkpt lat="39.3210980" lon="-0.7543830">
        <ele>463.0</ele>
        <time>2018-09-16T07:36:03Z</time>
      </trkpt>
      <trkpt lat="39.3210800" lon="-0.7543430">
        <ele>463.0</ele>
        <time>2018-09-16T07:36:04Z</time>
      </trkpt>
      <trkpt lat="39.3210740" lon="-0.7543200">
        <ele>464.0</ele>
        <time>2018-09-16T07:36:05Z</time>
      </trkpt>
      <trkpt lat="39.3210670" lon="-0.7542980">
        <ele>464.0</ele>
        <time>2018-09-16T07:36:06Z</time>
      </trkpt>
      <trkpt lat="39.3210670" lon="-0.7542980">
        <ele>464.0</ele>
        <time>2018-09-16T07:36:07Z</time>
      </trkpt>
      <trkpt lat="39.3210440" lon="-0.7542570">
        <ele>464.0</ele>
        <time>2018-09-16T07:36:08Z</time>
      </trkpt>
      <trkpt lat="39.3210370" lon="-0.7542470">
        <ele>464.0</ele>
        <time>2018-09-16T07:36:09Z</time>
      </trkpt>
      <trkpt lat="39.3210370" lon="-0.7542470">
        <ele>464.0</ele>
        <time>2018-09-16T07:36:10Z</time>
      </trkpt>
      <trkpt lat="39.3210020" lon="-0.7542100">
        <ele>464.0</ele>
        <time>2018-09-16T07:36:11Z</time>
      </trkpt>
      <trkpt lat="39.3210020" lon="-0.7542100">
        <ele>465.0</ele>
        <time>2018-09-16T07:36:12Z</time>
      </trkpt>
      <trkpt lat="39.3209820" lon="-0.7541770">
        <ele>465.0</ele>
        <time>2018-09-16T07:36:13Z</time>
      </trkpt>
      <trkpt lat="39.3209820" lon="-0.7541770">
        <ele>465.0</ele>
        <time>2018-09-16T07:36:14Z</time>
      </trkpt>
      <trkpt lat="39.3209600" lon="-0.7541470">
        <ele>465.0</ele>
        <time>2018-09-16T07:36:15Z</time>
      </trkpt>
      <trkpt lat="39.3209480" lon="-0.7541350">
        <ele>465.0</ele>
        <time>2018-09-16T07:36:16Z</time>
      </trkpt>
      <trkpt lat="39.3209480" lon="-0.7541350">
        <ele>465.0</ele>
        <time>2018-09-16T07:36:17Z</time>
      </trkpt>
      <trkpt lat="39.3209270" lon="-0.7541120">
        <ele>465.0</ele>
        <time>2018-09-16T07:36:18Z</time>
      </trkpt>
      <trkpt lat="39.3209150" lon="-0.7540970">
        <ele>465.0</ele>
        <time>2018-09-16T07:36:19Z</time>
      </trkpt>
      <trkpt lat="39.3209150" lon="-0.7540970">
        <ele>466.0</ele>
        <time>2018-09-16T07:36:20Z</time>
      </trkpt>
      <trkpt lat="39.3208950" lon="-0.7540600">
        <ele>466.0</ele>
        <time>2018-09-16T07:36:21Z</time>
      </trkpt>
      <trkpt lat="39.3208850" lon="-0.7540520">
        <ele>466.0</ele>
        <time>2018-09-16T07:36:22Z</time>
      </trkpt>
      <trkpt lat="39.3208850" lon="-0.7540520">
        <ele>466.0</ele>
        <time>2018-09-16T07:36:23Z</time>
      </trkpt>
      <trkpt lat="39.3208700" lon="-0.7540280">
        <ele>467.0</ele>
        <time>2018-09-16T07:36:24Z</time>
      </trkpt>
      <trkpt lat="39.3208620" lon="-0.7540100">
        <ele>467.0</ele>
        <time>2018-09-16T07:36:25Z</time>
      </trkpt>
      <trkpt lat="39.3208620" lon="-0.7540100">
        <ele>467.0</ele>
        <time>2018-09-16T07:36:26Z</time>
      </trkpt>
      <trkpt lat="39.3208420" lon="-0.7539720">
        <ele>467.0</ele>
        <time>2018-09-16T07:36:27Z</time>
      </trkpt>
      <trkpt lat="39.3208320" lon="-0.7539550">
        <ele>467.0</ele>
        <time>2018-09-16T07:36:28Z</time>
      </trkpt>
      <trkpt lat="39.3208320" lon="-0.7539550">
        <ele>467.0</ele>
        <time>2018-09-16T07:36:29Z</time>
      </trkpt>
      <trkpt lat="39.3208080" lon="-0.7539170">
        <ele>467.0</ele>
        <time>2018-09-16T07:36:30Z</time>
      </trkpt>
      <trkpt lat="39.3208000" lon="-0.7538980">
        <ele>467.0</ele>
        <time>2018-09-16T07:36:31Z</time>
      </trkpt>
      <trkpt lat="39.3208000" lon="-0.7538980">
        <ele>468.0</ele>
        <time>2018-09-16T07:36:32Z</time>
      </trkpt>
      <trkpt lat="39.3207870" lon="-0.7538630">
        <ele>468.0</ele>
        <time>2018-09-16T07:36:33Z</time>
      </trkpt>
      <trkpt lat="39.3207770" lon="-0.7538470">
        <ele>468.0</ele>
        <time>2018-09-16T07:36:34Z</time>
      </trkpt>
      <trkpt lat="39.3207770" lon="-0.7538470">
        <ele>468.0</ele>
        <time>2018-09-16T07:36:35Z</time>
      </trkpt>
      <trkpt lat="39.3207580" lon="-0.7538150">
        <ele>468.0</ele>
        <time>2018-09-16T07:36:36Z</time>
      </trkpt>
      <trkpt lat="39.3207500" lon="-0.7537980">
        <ele>468.0</ele>
        <time>2018-09-16T07:36:37Z</time>
      </trkpt>
      <trkpt lat="39.3207500" lon="-0.7537980">
        <ele>468.0</ele>
        <time>2018-09-16T07:36:38Z</time>
      </trkpt>
      <trkpt lat="39.3207300" lon="-0.7537730">
        <ele>468.0</ele>
        <time>2018-09-16T07:36:39Z</time>
      </trkpt>
      <trkpt lat="39.3207200" lon="-0.7537580">
        <ele>468.0</ele>
        <time>2018-09-16T07:36:40Z</time>
      </trkpt>
      <trkpt lat="39.3207200" lon="-0.7537580">
        <ele>468.0</ele>
        <time>2018-09-16T07:36:41Z</time>
      </trkpt>
      <trkpt lat="39.3206980" lon="-0.7537330">
        <ele>468.0</ele>
        <time>2018-09-16T07:36:42Z</time>
      </trkpt>
      <trkpt lat="39.3206870" lon="-0.7537220">
        <ele>469.0</ele>
        <time>2018-09-16T07:36:43Z</time>
      </trkpt>
      <trkpt lat="39.3206730" lon="-0.7537120">
        <ele>469.0</ele>
        <time>2018-09-16T07:36:44Z</time>
      </trkpt>
      <trkpt lat="39.3206730" lon="-0.7537120">
        <ele>469.0</ele>
        <time>2018-09-16T07:36:45Z</time>
      </trkpt>
      <trkpt lat="39.3206520" lon="-0.7536900">
        <ele>469.0</ele>
        <time>2018-09-16T07:36:46Z</time>
      </trkpt>
      <trkpt lat="39.3206520" lon="-0.7536900">
        <ele>469.0</ele>
        <time>2018-09-16T07:36:47Z</time>
      </trkpt>
      <trkpt lat="39.3206250" lon="-0.7536680">
        <ele>469.0</ele>
        <time>2018-09-16T07:36:48Z</time>
      </trkpt>
      <trkpt lat="39.3206080" lon="-0.7536620">
        <ele>470.0</ele>
        <time>2018-09-16T07:36:49Z</time>
      </trkpt>
      <trkpt lat="39.3206080" lon="-0.7536620">
        <ele>470.0</ele>
        <time>2018-09-16T07:36:50Z</time>
      </trkpt>
      <trkpt lat="39.3205800" lon="-0.7536520">
        <ele>470.0</ele>
        <time>2018-09-16T07:36:51Z</time>
      </trkpt>
      <trkpt lat="39.3205650" lon="-0.7536450">
        <ele>470.0</ele>
        <time>2018-09-16T07:36:52Z</time>
      </trkpt>
      <trkpt lat="39.3205650" lon="-0.7536450">
        <ele>470.0</ele>
        <time>2018-09-16T07:36:53Z</time>
      </trkpt>
      <trkpt lat="39.3205330" lon="-0.7536420">
        <ele>470.0</ele>
        <time>2018-09-16T07:36:54Z</time>
      </trkpt>
      <trkpt lat="39.3205170" lon="-0.7536420">
        <ele>470.0</ele>
        <time>2018-09-16T07:36:55Z</time>
      </trkpt>
      <trkpt lat="39.3205170" lon="-0.7536420">
        <ele>470.0</ele>
        <time>2018-09-16T07:36:56Z</time>
      </trkpt>
      <trkpt lat="39.3204780" lon="-0.7536480">
        <ele>470.0</ele>
        <time>2018-09-16T07:36:57Z</time>
      </trkpt>
      <trkpt lat="39.3204780" lon="-0.7536480">
        <ele>470.0</ele>
        <time>2018-09-16T07:36:58Z</time>
      </trkpt>
      <trkpt lat="39.3204380" lon="-0.7536650">
        <ele>470.0</ele>
        <time>2018-09-16T07:36:59Z</time>
      </trkpt>
      <trkpt lat="39.3204170" lon="-0.7536770">
        <ele>470.0</ele>
        <time>2018-09-16T07:37:00Z</time>
      </trkpt>
      <trkpt lat="39.3203930" lon="-0.7536850">
        <ele>470.0</ele>
        <time>2018-09-16T07:37:01Z</time>
      </trkpt>
      <trkpt lat="39.3203930" lon="-0.7536850">
        <ele>470.0</ele>
        <time>2018-09-16T07:37:02Z</time>
      </trkpt>
      <trkpt lat="39.3203500" lon="-0.7537150">
        <ele>470.0</ele>
        <time>2018-09-16T07:37:03Z</time>
      </trkpt>
      <trkpt lat="39.3203500" lon="-0.7537150">
        <ele>470.0</ele>
        <time>2018-09-16T07:37:04Z</time>
      </trkpt>
      <trkpt lat="39.3203200" lon="-0.7537720">
        <ele>470.0</ele>
        <time>2018-09-16T07:37:05Z</time>
      </trkpt>
      <trkpt lat="39.3203000" lon="-0.7537980">
        <ele>470.0</ele>
        <time>2018-09-16T07:37:06Z</time>
      </trkpt>
      <trkpt lat="39.3203000" lon="-0.7537980">
        <ele>470.0</ele>
        <time>2018-09-16T07:37:07Z</time>
      </trkpt>
      <trkpt lat="39.3202650" lon="-0.7538430">
        <ele>470.0</ele>
        <time>2018-09-16T07:37:08Z</time>
      </trkpt>
      <trkpt lat="39.3202650" lon="-0.7538430">
        <ele>470.0</ele>
        <time>2018-09-16T07:37:09Z</time>
      </trkpt>
      <trkpt lat="39.3202380" lon="-0.7538950">
        <ele>470.0</ele>
        <time>2018-09-16T07:37:10Z</time>
      </trkpt>
      <trkpt lat="39.3202280" lon="-0.7539200">
        <ele>470.0</ele>
        <time>2018-09-16T07:37:11Z</time>
      </trkpt>
      <trkpt lat="39.3202180" lon="-0.7539430">
        <ele>470.0</ele>
        <time>2018-09-16T07:37:12Z</time>
      </trkpt>
      <trkpt lat="39.3202180" lon="-0.7539430">
        <ele>470.0</ele>
        <time>2018-09-16T07:37:13Z</time>
      </trkpt>
      <trkpt lat="39.3201920" lon="-0.7539950">
        <ele>470.0</ele>
        <time>2018-09-16T07:37:14Z</time>
      </trkpt>
      <trkpt lat="39.3201920" lon="-0.7539950">
        <ele>470.0</ele>
        <time>2018-09-16T07:37:15Z</time>
      </trkpt>
      <trkpt lat="39.3201570" lon="-0.7540550">
        <ele>470.0</ele>
        <time>2018-09-16T07:37:16Z</time>
      </trkpt>
      <trkpt lat="39.3201570" lon="-0.7540550">
        <ele>468.0</ele>
        <time>2018-09-16T07:37:17Z</time>
      </trkpt>
      <trkpt lat="39.3201080" lon="-0.7541250">
        <ele>468.0</ele>
        <time>2018-09-16T07:37:18Z</time>
      </trkpt>
      <trkpt lat="39.3200800" lon="-0.7541580">
        <ele>468.0</ele>
        <time>2018-09-16T07:37:19Z</time>
      </trkpt>
      <trkpt lat="39.3200800" lon="-0.7541580">
        <ele>468.0</ele>
        <time>2018-09-16T07:37:20Z</time>
      </trkpt>
      <trkpt lat="39.3200200" lon="-0.7542130">
        <ele>468.0</ele>
        <time>2018-09-16T07:37:21Z</time>
      </trkpt>
      <trkpt lat="39.3200200" lon="-0.7542130">
        <ele>468.0</ele>
        <time>2018-09-16T07:37:22Z</time>
      </trkpt>
      <trkpt lat="39.3199700" lon="-0.7542700">
        <ele>468.0</ele>
        <time>2018-09-16T07:37:23Z</time>
      </trkpt>
      <trkpt lat="39.3199700" lon="-0.7542700">
        <ele>468.0</ele>
        <time>2018-09-16T07:37:24Z</time>
      </trkpt>
      <trkpt lat="39.3199480" lon="-0.7543250">
        <ele>467.0</ele>
        <time>2018-09-16T07:37:25Z</time>
      </trkpt>
      <trkpt lat="39.3199480" lon="-0.7543250">
        <ele>467.0</ele>
        <time>2018-09-16T07:37:26Z</time>
      </trkpt>
      <trkpt lat="39.3199280" lon="-0.7543580">
        <ele>467.0</ele>
        <time>2018-09-16T07:37:27Z</time>
      </trkpt>
      <trkpt lat="39.3199280" lon="-0.7543580">
        <ele>467.0</ele>
        <time>2018-09-16T07:37:28Z</time>
      </trkpt>
      <trkpt lat="39.3198980" lon="-0.7543970">
        <ele>467.0</ele>
        <time>2018-09-16T07:37:29Z</time>
      </trkpt>
      <trkpt lat="39.3198980" lon="-0.7543970">
        <ele>467.0</ele>
        <time>2018-09-16T07:37:30Z</time>
      </trkpt>
      <trkpt lat="39.3198730" lon="-0.7544480">
        <ele>467.0</ele>
        <time>2018-09-16T07:37:31Z</time>
      </trkpt>
      <trkpt lat="39.3198550" lon="-0.7544700">
        <ele>467.0</ele>
        <time>2018-09-16T07:37:32Z</time>
      </trkpt>
      <trkpt lat="39.3198550" lon="-0.7544700">
        <ele>467.0</ele>
        <time>2018-09-16T07:37:33Z</time>
      </trkpt>
      <trkpt lat="39.3198180" lon="-0.7545220">
        <ele>467.0</ele>
        <time>2018-09-16T07:37:34Z</time>
      </trkpt>
      <trkpt lat="39.3197980" lon="-0.7545520">
        <ele>467.0</ele>
        <time>2018-09-16T07:37:35Z</time>
      </trkpt>
      <trkpt lat="39.3197770" lon="-0.7545820">
        <ele>467.0</ele>
        <time>2018-09-16T07:37:36Z</time>
      </trkpt>
      <trkpt lat="39.3197770" lon="-0.7545820">
        <ele>467.0</ele>
        <time>2018-09-16T07:37:37Z</time>
      </trkpt>
      <trkpt lat="39.3197250" lon="-0.7546130">
        <ele>467.0</ele>
        <time>2018-09-16T07:37:38Z</time>
      </trkpt>
      <trkpt lat="39.3197000" lon="-0.7546140">
        <ele>466.0</ele>
        <time>2018-09-16T07:37:39Z</time>
      </trkpt>
      <trkpt lat="39.3196750" lon="-0.7546150">
        <ele>466.0</ele>
        <time>2018-09-16T07:37:40Z</time>
      </trkpt>
      <trkpt lat="39.3196570" lon="-0.7546080">
        <ele>466.0</ele>
        <time>2018-09-16T07:37:41Z</time>
      </trkpt>
      <trkpt lat="39.3196570" lon="-0.7546080">
        <ele>466.0</ele>
        <time>2018-09-16T07:37:42Z</time>
      </trkpt>
      <trkpt lat="39.3196180" lon="-0.7545700">
        <ele>466.0</ele>
        <time>2018-09-16T07:37:43Z</time>
      </trkpt>
      <trkpt lat="39.3196180" lon="-0.7545700">
        <ele>466.0</ele>
        <time>2018-09-16T07:37:44Z</time>
      </trkpt>
      <trkpt lat="39.3195950" lon="-0.7545180">
        <ele>466.0</ele>
        <time>2018-09-16T07:37:45Z</time>
      </trkpt>
      <trkpt lat="39.3195950" lon="-0.7545180">
        <ele>466.0</ele>
        <time>2018-09-16T07:37:46Z</time>
      </trkpt>
      <trkpt lat="39.3195960" lon="-0.7544200">
        <ele>466.0</ele>
        <time>2018-09-16T07:37:47Z</time>
      </trkpt>
      <trkpt lat="39.3195950" lon="-0.7544030">
        <ele>466.0</ele>
        <time>2018-09-16T07:37:48Z</time>
      </trkpt>
      <trkpt lat="39.3195950" lon="-0.7544030">
        <ele>467.0</ele>
        <time>2018-09-16T07:37:49Z</time>
      </trkpt>
      <trkpt lat="39.3195950" lon="-0.7543380">
        <ele>467.0</ele>
        <time>2018-09-16T07:37:50Z</time>
      </trkpt>
      <trkpt lat="39.3195950" lon="-0.7543100">
        <ele>467.0</ele>
        <time>2018-09-16T07:37:51Z</time>
      </trkpt>
      <trkpt lat="39.3195970" lon="-0.7542870">
        <ele>467.0</ele>
        <time>2018-09-16T07:37:52Z</time>
      </trkpt>
      <trkpt lat="39.3195970" lon="-0.7542870">
        <ele>468.0</ele>
        <time>2018-09-16T07:37:53Z</time>
      </trkpt>
      <trkpt lat="39.3195880" lon="-0.7542450">
        <ele>468.0</ele>
        <time>2018-09-16T07:37:54Z</time>
      </trkpt>
      <trkpt lat="39.3195880" lon="-0.7542250">
        <ele>468.0</ele>
        <time>2018-09-16T07:37:55Z</time>
      </trkpt>
      <trkpt lat="39.3195890" lon="-0.7542060">
        <ele>468.0</ele>
        <time>2018-09-16T07:37:56Z</time>
      </trkpt>
      <trkpt lat="39.3195900" lon="-0.7541870">
        <ele>468.0</ele>
        <time>2018-09-16T07:37:57Z</time>
      </trkpt>
      <trkpt lat="39.3195920" lon="-0.7541650">
        <ele>468.0</ele>
        <time>2018-09-16T07:37:58Z</time>
      </trkpt>
      <trkpt lat="39.3195920" lon="-0.7541650">
        <ele>468.0</ele>
        <time>2018-09-16T07:37:59Z</time>
      </trkpt>
      <trkpt lat="39.3195950" lon="-0.7541170">
        <ele>469.0</ele>
        <time>2018-09-16T07:38:00Z</time>
      </trkpt>
      <trkpt lat="39.3195950" lon="-0.7541050">
        <ele>469.0</ele>
        <time>2018-09-16T07:38:01Z</time>
      </trkpt>
      <trkpt lat="39.3195950" lon="-0.7541050">
        <ele>470.0</ele>
        <time>2018-09-16T07:38:02Z</time>
      </trkpt>
      <trkpt lat="39.3195970" lon="-0.7540620">
        <ele>470.0</ele>
        <time>2018-09-16T07:38:03Z</time>
      </trkpt>
      <trkpt lat="39.3195970" lon="-0.7540620">
        <ele>470.0</ele>
        <time>2018-09-16T07:38:04Z</time>
      </trkpt>
      <trkpt lat="39.3196030" lon="-0.7540130">
        <ele>470.0</ele>
        <time>2018-09-16T07:38:05Z</time>
      </trkpt>
      <trkpt lat="39.3196080" lon="-0.7539900">
        <ele>471.0</ele>
        <time>2018-09-16T07:38:06Z</time>
      </trkpt>
      <trkpt lat="39.3196070" lon="-0.7539670">
        <ele>471.0</ele>
        <time>2018-09-16T07:38:07Z</time>
      </trkpt>
      <trkpt lat="39.3196070" lon="-0.7539470">
        <ele>471.0</ele>
        <time>2018-09-16T07:38:08Z</time>
      </trkpt>
      <trkpt lat="39.3196070" lon="-0.7539470">
        <ele>471.0</ele>
        <time>2018-09-16T07:38:09Z</time>
      </trkpt>
      <trkpt lat="39.3196200" lon="-0.7539000">
        <ele>471.0</ele>
        <time>2018-09-16T07:38:10Z</time>
      </trkpt>
      <trkpt lat="39.3196250" lon="-0.7538750">
        <ele>471.0</ele>
        <time>2018-09-16T07:38:11Z</time>
      </trkpt>
      <trkpt lat="39.3196300" lon="-0.7538520">
        <ele>471.0</ele>
        <time>2018-09-16T07:38:12Z</time>
      </trkpt>
      <trkpt lat="39.3196330" lon="-0.7538280">
        <ele>472.0</ele>
        <time>2018-09-16T07:38:13Z</time>
      </trkpt>
      <trkpt lat="39.3196330" lon="-0.7538280">
        <ele>472.0</ele>
        <time>2018-09-16T07:38:14Z</time>
      </trkpt>
      <trkpt lat="39.3196400" lon="-0.7537870">
        <ele>472.0</ele>
        <time>2018-09-16T07:38:15Z</time>
      </trkpt>
      <trkpt lat="39.3196400" lon="-0.7537870">
        <ele>472.0</ele>
        <time>2018-09-16T07:38:16Z</time>
      </trkpt>
      <trkpt lat="39.3196430" lon="-0.7537500">
        <ele>472.0</ele>
        <time>2018-09-16T07:38:17Z</time>
      </trkpt>
      <trkpt lat="39.3196400" lon="-0.7537350">
        <ele>472.0</ele>
        <time>2018-09-16T07:38:18Z</time>
      </trkpt>
      <trkpt lat="39.3196370" lon="-0.7537170">
        <ele>473.0</ele>
        <time>2018-09-16T07:38:19Z</time>
      </trkpt>
      <trkpt lat="39.3196370" lon="-0.7537170">
        <ele>473.0</ele>
        <time>2018-09-16T07:38:20Z</time>
      </trkpt>
      <trkpt lat="39.3196270" lon="-0.7536700">
        <ele>473.0</ele>
        <time>2018-09-16T07:38:21Z</time>
      </trkpt>
      <trkpt lat="39.3196270" lon="-0.7536700">
        <ele>473.0</ele>
        <time>2018-09-16T07:38:22Z</time>
      </trkpt>
      <trkpt lat="39.3196180" lon="-0.7536250">
        <ele>474.0</ele>
        <time>2018-09-16T07:38:23Z</time>
      </trkpt>
      <trkpt lat="39.3196180" lon="-0.7536030">
        <ele>474.0</ele>
        <time>2018-09-16T07:38:24Z</time>
      </trkpt>
      <trkpt lat="39.3196220" lon="-0.7535820">
        <ele>474.0</ele>
        <time>2018-09-16T07:38:25Z</time>
      </trkpt>
      <trkpt lat="39.3196220" lon="-0.7535820">
        <ele>474.0</ele>
        <time>2018-09-16T07:38:26Z</time>
      </trkpt>
      <trkpt lat="39.3196200" lon="-0.7535370">
        <ele>474.0</ele>
        <time>2018-09-16T07:38:27Z</time>
      </trkpt>
      <trkpt lat="39.3196220" lon="-0.7535180">
        <ele>475.0</ele>
        <time>2018-09-16T07:38:28Z</time>
      </trkpt>
      <trkpt lat="39.3196220" lon="-0.7535180">
        <ele>475.0</ele>
        <time>2018-09-16T07:38:29Z</time>
      </trkpt>
      <trkpt lat="39.3196230" lon="-0.7534780">
        <ele>475.0</ele>
        <time>2018-09-16T07:38:30Z</time>
      </trkpt>
      <trkpt lat="39.3196250" lon="-0.7534630">
        <ele>475.0</ele>
        <time>2018-09-16T07:38:31Z</time>
      </trkpt>
      <trkpt lat="39.3196250" lon="-0.7534630">
        <ele>476.0</ele>
        <time>2018-09-16T07:38:32Z</time>
      </trkpt>
      <trkpt lat="39.3196250" lon="-0.7534250">
        <ele>476.0</ele>
        <time>2018-09-16T07:38:33Z</time>
      </trkpt>
      <trkpt lat="39.3196220" lon="-0.7534030">
        <ele>476.0</ele>
        <time>2018-09-16T07:38:34Z</time>
      </trkpt>
      <trkpt lat="39.3196220" lon="-0.7534030">
        <ele>476.0</ele>
        <time>2018-09-16T07:38:35Z</time>
      </trkpt>
      <trkpt lat="39.3196070" lon="-0.7533730">
        <ele>476.0</ele>
        <time>2018-09-16T07:38:36Z</time>
      </trkpt>
      <trkpt lat="39.3196030" lon="-0.7533570">
        <ele>476.0</ele>
        <time>2018-09-16T07:38:37Z</time>
      </trkpt>
      <trkpt lat="39.3196030" lon="-0.7533570">
        <ele>477.0</ele>
        <time>2018-09-16T07:38:38Z</time>
      </trkpt>
      <trkpt lat="39.3196020" lon="-0.7533180">
        <ele>477.0</ele>
        <time>2018-09-16T07:38:39Z</time>
      </trkpt>
      <trkpt lat="39.3196020" lon="-0.7533180">
        <ele>477.0</ele>
        <time>2018-09-16T07:38:40Z</time>
      </trkpt>
      <trkpt lat="39.3195970" lon="-0.7532800">
        <ele>477.0</ele>
        <time>2018-09-16T07:38:41Z</time>
      </trkpt>
      <trkpt lat="39.3195950" lon="-0.7532580">
        <ele>477.0</ele>
        <time>2018-09-16T07:38:42Z</time>
      </trkpt>
      <trkpt lat="39.3195950" lon="-0.7532580">
        <ele>477.0</ele>
        <time>2018-09-16T07:38:43Z</time>
      </trkpt>
      <trkpt lat="39.3195800" lon="-0.7532320">
        <ele>478.0</ele>
        <time>2018-09-16T07:38:44Z</time>
      </trkpt>
      <trkpt lat="39.3195700" lon="-0.7532230">
        <ele>478.0</ele>
        <time>2018-09-16T07:38:45Z</time>
      </trkpt>
      <trkpt lat="39.3195700" lon="-0.7532230">
        <ele>479.0</ele>
        <time>2018-09-16T07:38:46Z</time>
      </trkpt>
      <trkpt lat="39.3195600" lon="-0.7531980">
        <ele>479.0</ele>
        <time>2018-09-16T07:38:47Z</time>
      </trkpt>
      <trkpt lat="39.3195600" lon="-0.7531980">
        <ele>479.0</ele>
        <time>2018-09-16T07:38:48Z</time>
      </trkpt>
      <trkpt lat="39.3195420" lon="-0.7531800">
        <ele>479.0</ele>
        <time>2018-09-16T07:38:49Z</time>
      </trkpt>
      <trkpt lat="39.3195420" lon="-0.7531800">
        <ele>479.0</ele>
        <time>2018-09-16T07:38:50Z</time>
      </trkpt>
      <trkpt lat="39.3195400" lon="-0.7531520">
        <ele>479.0</ele>
        <time>2018-09-16T07:38:51Z</time>
      </trkpt>
      <trkpt lat="39.3195400" lon="-0.7531520">
        <ele>479.0</ele>
        <time>2018-09-16T07:38:52Z</time>
      </trkpt>
      <trkpt lat="39.3195370" lon="-0.7531230">
        <ele>479.0</ele>
        <time>2018-09-16T07:38:53Z</time>
      </trkpt>
      <trkpt lat="39.3195370" lon="-0.7531230">
        <ele>479.0</ele>
        <time>2018-09-16T07:38:54Z</time>
      </trkpt>
      <trkpt lat="39.3195300" lon="-0.7530950">
        <ele>479.0</ele>
        <time>2018-09-16T07:38:55Z</time>
      </trkpt>
      <trkpt lat="39.3195300" lon="-0.7530950">
        <ele>479.0</ele>
        <time>2018-09-16T07:38:56Z</time>
      </trkpt>
      <trkpt lat="39.3195230" lon="-0.7530600">
        <ele>479.0</ele>
        <time>2018-09-16T07:38:57Z</time>
      </trkpt>
      <trkpt lat="39.3195110" lon="-0.7530610">
        <ele>479.0</ele>
        <time>2018-09-16T07:38:58Z</time>
      </trkpt>
      <trkpt lat="39.3194990" lon="-0.7530610">
        <ele>479.0</ele>
        <time>2018-09-16T07:38:59Z</time>
      </trkpt>
      <trkpt lat="39.3194880" lon="-0.7530620">
        <ele>479.0</ele>
        <time>2018-09-16T07:39:00Z</time>
      </trkpt>
      <trkpt lat="39.3194760" lon="-0.7530620">
        <ele>479.0</ele>
        <time>2018-09-16T07:39:01Z</time>
      </trkpt>
      <trkpt lat="39.3194640" lon="-0.7530630">
        <ele>479.0</ele>
        <time>2018-09-16T07:39:02Z</time>
      </trkpt>
      <trkpt lat="39.3194520" lon="-0.7530630">
        <ele>479.0</ele>
        <time>2018-09-16T07:39:03Z</time>
      </trkpt>
      <trkpt lat="39.3194380" lon="-0.7530650">
        <ele>479.0</ele>
        <time>2018-09-16T07:39:04Z</time>
      </trkpt>
      <trkpt lat="39.3194380" lon="-0.7530650">
        <ele>479.0</ele>
        <time>2018-09-16T07:39:05Z</time>
      </trkpt>
      <trkpt lat="39.3194180" lon="-0.7530750">
        <ele>479.0</ele>
        <time>2018-09-16T07:39:06Z</time>
      </trkpt>
      <trkpt lat="39.3194180" lon="-0.7530750">
        <ele>479.0</ele>
        <time>2018-09-16T07:39:07Z</time>
      </trkpt>
      <trkpt lat="39.3194180" lon="-0.7530750">
        <ele>479.0</ele>
        <time>2018-09-16T07:42:29Z</time>
      </trkpt>
      <trkpt lat="39.3194180" lon="-0.7530750">
        <ele>479.0</ele>
        <time>2018-09-16T07:42:30Z</time>
      </trkpt>
      <trkpt lat="39.3194180" lon="-0.7530750">
        <ele>477.0</ele>
        <time>2018-09-16T07:42:31Z</time>
      </trkpt>
      <trkpt lat="39.3193800" lon="-0.7530870">
        <ele>477.0</ele>
        <time>2018-09-16T07:42:32Z</time>
      </trkpt>
      <trkpt lat="39.3193560" lon="-0.7530880">
        <ele>477.0</ele>
        <time>2018-09-16T07:42:33Z</time>
      </trkpt>
      <trkpt lat="39.3193460" lon="-0.7530920">
        <ele>477.0</ele>
        <time>2018-09-16T07:42:34Z</time>
      </trkpt>
      <trkpt lat="39.3193350" lon="-0.7530950">
        <ele>477.0</ele>
        <time>2018-09-16T07:42:35Z</time>
      </trkpt>
      <trkpt lat="39.3193180" lon="-0.7531070">
        <ele>477.0</ele>
        <time>2018-09-16T07:42:36Z</time>
      </trkpt>
      <trkpt lat="39.3193180" lon="-0.7531070">
        <ele>477.0</ele>
        <time>2018-09-16T07:42:37Z</time>
      </trkpt>
      <trkpt lat="39.3192730" lon="-0.7531270">
        <ele>477.0</ele>
        <time>2018-09-16T07:42:38Z</time>
      </trkpt>
      <trkpt lat="39.3192730" lon="-0.7531270">
        <ele>477.0</ele>
        <time>2018-09-16T07:42:39Z</time>
      </trkpt>
      <trkpt lat="39.3192230" lon="-0.7531700">
        <ele>477.0</ele>
        <time>2018-09-16T07:42:40Z</time>
      </trkpt>
      <trkpt lat="39.3192050" lon="-0.7531970">
        <ele>477.0</ele>
        <time>2018-09-16T07:42:41Z</time>
      </trkpt>
      <trkpt lat="39.3192050" lon="-0.7531970">
        <ele>477.0</ele>
        <time>2018-09-16T07:42:42Z</time>
      </trkpt>
      <trkpt lat="39.3191580" lon="-0.7532450">
        <ele>477.0</ele>
        <time>2018-09-16T07:42:43Z</time>
      </trkpt>
      <trkpt lat="39.3191580" lon="-0.7532450">
        <ele>476.0</ele>
        <time>2018-09-16T07:42:44Z</time>
      </trkpt>
      <trkpt lat="39.3190970" lon="-0.7532670">
        <ele>476.0</ele>
        <time>2018-09-16T07:42:45Z</time>
      </trkpt>
      <trkpt lat="39.3190970" lon="-0.7532670">
        <ele>476.0</ele>
        <time>2018-09-16T07:42:46Z</time>
      </trkpt>
      <trkpt lat="39.3190320" lon="-0.7532470">
        <ele>476.0</ele>
        <time>2018-09-16T07:42:47Z</time>
      </trkpt>
      <trkpt lat="39.3190050" lon="-0.7532230">
        <ele>476.0</ele>
        <time>2018-09-16T07:42:48Z</time>
      </trkpt>
      <trkpt lat="39.3190050" lon="-0.7532230">
        <ele>476.0</ele>
        <time>2018-09-16T07:42:49Z</time>
      </trkpt>
      <trkpt lat="39.3189730" lon="-0.7531730">
        <ele>476.0</ele>
        <time>2018-09-16T07:42:50Z</time>
      </trkpt>
      <trkpt lat="39.3189670" lon="-0.7531470">
        <ele>476.0</ele>
        <time>2018-09-16T07:42:51Z</time>
      </trkpt>
      <trkpt lat="39.3189600" lon="-0.7531220">
        <ele>476.0</ele>
        <time>2018-09-16T07:42:52Z</time>
      </trkpt>
      <trkpt lat="39.3189580" lon="-0.7530930">
        <ele>476.0</ele>
        <time>2018-09-16T07:42:53Z</time>
      </trkpt>
      <trkpt lat="39.3189550" lon="-0.7530670">
        <ele>476.0</ele>
        <time>2018-09-16T07:42:54Z</time>
      </trkpt>
      <trkpt lat="39.3189550" lon="-0.7530670">
        <ele>476.0</ele>
        <time>2018-09-16T07:42:55Z</time>
      </trkpt>
      <trkpt lat="39.3189480" lon="-0.7530150">
        <ele>476.0</ele>
        <time>2018-09-16T07:42:56Z</time>
      </trkpt>
      <trkpt lat="39.3189470" lon="-0.7529900">
        <ele>476.0</ele>
        <time>2018-09-16T07:42:57Z</time>
      </trkpt>
      <trkpt lat="39.3189470" lon="-0.7529900">
        <ele>476.0</ele>
        <time>2018-09-16T07:42:58Z</time>
      </trkpt>
      <trkpt lat="39.3189480" lon="-0.7529480">
        <ele>476.0</ele>
        <time>2018-09-16T07:42:59Z</time>
      </trkpt>
      <trkpt lat="39.3189500" lon="-0.7529280">
        <ele>477.0</ele>
        <time>2018-09-16T07:43:00Z</time>
      </trkpt>
      <trkpt lat="39.3189500" lon="-0.7529280">
        <ele>477.0</ele>
        <time>2018-09-16T07:43:01Z</time>
      </trkpt>
      <trkpt lat="39.3189400" lon="-0.7528780">
        <ele>477.0</ele>
        <time>2018-09-16T07:43:02Z</time>
      </trkpt>
      <trkpt lat="39.3189300" lon="-0.7528530">
        <ele>477.0</ele>
        <time>2018-09-16T07:43:03Z</time>
      </trkpt>
      <trkpt lat="39.3189200" lon="-0.7528320">
        <ele>477.0</ele>
        <time>2018-09-16T07:43:04Z</time>
      </trkpt>
      <trkpt lat="39.3189200" lon="-0.7528320">
        <ele>477.0</ele>
        <time>2018-09-16T07:43:05Z</time>
      </trkpt>
      <trkpt lat="39.3189000" lon="-0.7527900">
        <ele>477.0</ele>
        <time>2018-09-16T07:43:06Z</time>
      </trkpt>
      <trkpt lat="39.3188920" lon="-0.7527720">
        <ele>478.0</ele>
        <time>2018-09-16T07:43:07Z</time>
      </trkpt>
      <trkpt lat="39.3188920" lon="-0.7527720">
        <ele>478.0</ele>
        <time>2018-09-16T07:43:08Z</time>
      </trkpt>
      <trkpt lat="39.3188770" lon="-0.7527400">
        <ele>478.0</ele>
        <time>2018-09-16T07:43:09Z</time>
      </trkpt>
      <trkpt lat="39.3188770" lon="-0.7527400">
        <ele>478.0</ele>
        <time>2018-09-16T07:43:10Z</time>
      </trkpt>
      <trkpt lat="39.3188600" lon="-0.7527180">
        <ele>478.0</ele>
        <time>2018-09-16T07:43:11Z</time>
      </trkpt>
      <trkpt lat="39.3188600" lon="-0.7527180">
        <ele>478.0</ele>
        <time>2018-09-16T07:43:12Z</time>
      </trkpt>
      <trkpt lat="39.3188370" lon="-0.7527000">
        <ele>478.0</ele>
        <time>2018-09-16T07:43:13Z</time>
      </trkpt>
      <trkpt lat="39.3188370" lon="-0.7527000">
        <ele>478.0</ele>
        <time>2018-09-16T07:43:14Z</time>
      </trkpt>
      <trkpt lat="39.3188100" lon="-0.7526780">
        <ele>478.0</ele>
        <time>2018-09-16T07:43:15Z</time>
      </trkpt>
      <trkpt lat="39.3188100" lon="-0.7526780">
        <ele>478.0</ele>
        <time>2018-09-16T07:43:16Z</time>
      </trkpt>
      <trkpt lat="39.3187830" lon="-0.7526700">
        <ele>478.0</ele>
        <time>2018-09-16T07:43:17Z</time>
      </trkpt>
      <trkpt lat="39.3187720" lon="-0.7526670">
        <ele>478.0</ele>
        <time>2018-09-16T07:43:18Z</time>
      </trkpt>
      <trkpt lat="39.3187720" lon="-0.7526670">
        <ele>478.0</ele>
        <time>2018-09-16T07:43:19Z</time>
      </trkpt>
      <trkpt lat="39.3187420" lon="-0.7526520">
        <ele>478.0</ele>
        <time>2018-09-16T07:43:20Z</time>
      </trkpt>
      <trkpt lat="39.3187420" lon="-0.7526520">
        <ele>478.0</ele>
        <time>2018-09-16T07:43:21Z</time>
      </trkpt>
      <trkpt lat="39.3187070" lon="-0.7526430">
        <ele>478.0</ele>
        <time>2018-09-16T07:43:22Z</time>
      </trkpt>
      <trkpt lat="39.3187070" lon="-0.7526430">
        <ele>479.0</ele>
        <time>2018-09-16T07:43:23Z</time>
      </trkpt>
      <trkpt lat="39.3186680" lon="-0.7526400">
        <ele>479.0</ele>
        <time>2018-09-16T07:43:24Z</time>
      </trkpt>
      <trkpt lat="39.3186680" lon="-0.7526400">
        <ele>479.0</ele>
        <time>2018-09-16T07:43:25Z</time>
      </trkpt>
      <trkpt lat="39.3186400" lon="-0.7526380">
        <ele>479.0</ele>
        <time>2018-09-16T07:43:26Z</time>
      </trkpt>
      <trkpt lat="39.3186400" lon="-0.7526380">
        <ele>479.0</ele>
        <time>2018-09-16T07:43:27Z</time>
      </trkpt>
      <trkpt lat="39.3186130" lon="-0.7526370">
        <ele>479.0</ele>
        <time>2018-09-16T07:43:28Z</time>
      </trkpt>
      <trkpt lat="39.3186130" lon="-0.7526370">
        <ele>479.0</ele>
        <time>2018-09-16T07:43:29Z</time>
      </trkpt>
      <trkpt lat="39.3185830" lon="-0.7526270">
        <ele>479.0</ele>
        <time>2018-09-16T07:43:30Z</time>
      </trkpt>
      <trkpt lat="39.3185830" lon="-0.7526270">
        <ele>479.0</ele>
        <time>2018-09-16T07:43:31Z</time>
      </trkpt>
      <trkpt lat="39.3185480" lon="-0.7526220">
        <ele>480.0</ele>
        <time>2018-09-16T07:43:32Z</time>
      </trkpt>
      <trkpt lat="39.3185300" lon="-0.7526200">
        <ele>480.0</ele>
        <time>2018-09-16T07:43:33Z</time>
      </trkpt>
      <trkpt lat="39.3185300" lon="-0.7526200">
        <ele>480.0</ele>
        <time>2018-09-16T07:43:34Z</time>
      </trkpt>
      <trkpt lat="39.3184930" lon="-0.7526120">
        <ele>480.0</ele>
        <time>2018-09-16T07:43:35Z</time>
      </trkpt>
      <trkpt lat="39.3184730" lon="-0.7526030">
        <ele>480.0</ele>
        <time>2018-09-16T07:43:36Z</time>
      </trkpt>
      <trkpt lat="39.3184730" lon="-0.7526030">
        <ele>481.0</ele>
        <time>2018-09-16T07:43:37Z</time>
      </trkpt>
      <trkpt lat="39.3184370" lon="-0.7525650">
        <ele>481.0</ele>
        <time>2018-09-16T07:43:38Z</time>
      </trkpt>
      <trkpt lat="39.3184370" lon="-0.7525650">
        <ele>481.0</ele>
        <time>2018-09-16T07:43:39Z</time>
      </trkpt>
      <trkpt lat="39.3184080" lon="-0.7525230">
        <ele>481.0</ele>
        <time>2018-09-16T07:43:40Z</time>
      </trkpt>
      <trkpt lat="39.3184080" lon="-0.7525230">
        <ele>481.0</ele>
        <time>2018-09-16T07:43:41Z</time>
      </trkpt>
      <trkpt lat="39.3183970" lon="-0.7524770">
        <ele>481.0</ele>
        <time>2018-09-16T07:43:42Z</time>
      </trkpt>
      <trkpt lat="39.3183970" lon="-0.7524520">
        <ele>481.0</ele>
        <time>2018-09-16T07:43:43Z</time>
      </trkpt>
      <trkpt lat="39.3183970" lon="-0.7524520">
        <ele>481.0</ele>
        <time>2018-09-16T07:43:44Z</time>
      </trkpt>
      <trkpt lat="39.3184030" lon="-0.7524120">
        <ele>481.0</ele>
        <time>2018-09-16T07:43:45Z</time>
      </trkpt>
      <trkpt lat="39.3184030" lon="-0.7524120">
        <ele>482.0</ele>
        <time>2018-09-16T07:43:46Z</time>
      </trkpt>
      <trkpt lat="39.3184070" lon="-0.7523730">
        <ele>482.0</ele>
        <time>2018-09-16T07:43:47Z</time>
      </trkpt>
      <trkpt lat="39.3184100" lon="-0.7523530">
        <ele>482.0</ele>
        <time>2018-09-16T07:43:48Z</time>
      </trkpt>
      <trkpt lat="39.3184100" lon="-0.7523530">
        <ele>482.0</ele>
        <time>2018-09-16T07:43:49Z</time>
      </trkpt>
      <trkpt lat="39.3184280" lon="-0.7523150">
        <ele>482.0</ele>
        <time>2018-09-16T07:43:50Z</time>
      </trkpt>
      <trkpt lat="39.3184380" lon="-0.7522950">
        <ele>482.0</ele>
        <time>2018-09-16T07:43:51Z</time>
      </trkpt>
      <trkpt lat="39.3184520" lon="-0.7522730">
        <ele>482.0</ele>
        <time>2018-09-16T07:43:52Z</time>
      </trkpt>
      <trkpt lat="39.3184520" lon="-0.7522730">
        <ele>482.0</ele>
        <time>2018-09-16T07:43:53Z</time>
      </trkpt>
      <trkpt lat="39.3184750" lon="-0.7522370">
        <ele>483.0</ele>
        <time>2018-09-16T07:43:54Z</time>
      </trkpt>
      <trkpt lat="39.3184750" lon="-0.7522370">
        <ele>483.0</ele>
        <time>2018-09-16T07:43:55Z</time>
      </trkpt>
      <trkpt lat="39.3185020" lon="-0.7522080">
        <ele>483.0</ele>
        <time>2018-09-16T07:43:56Z</time>
      </trkpt>
      <trkpt lat="39.3185020" lon="-0.7522080">
        <ele>483.0</ele>
        <time>2018-09-16T07:43:57Z</time>
      </trkpt>
      <trkpt lat="39.3185350" lon="-0.7521730">
        <ele>484.0</ele>
        <time>2018-09-16T07:43:58Z</time>
      </trkpt>
      <trkpt lat="39.3185350" lon="-0.7521730">
        <ele>484.0</ele>
        <time>2018-09-16T07:43:59Z</time>
      </trkpt>
      <trkpt lat="39.3185630" lon="-0.7521270">
        <ele>484.0</ele>
        <time>2018-09-16T07:44:00Z</time>
      </trkpt>
      <trkpt lat="39.3185630" lon="-0.7521270">
        <ele>484.0</ele>
        <time>2018-09-16T07:44:01Z</time>
      </trkpt>
      <trkpt lat="39.3185930" lon="-0.7520930">
        <ele>484.0</ele>
        <time>2018-09-16T07:44:02Z</time>
      </trkpt>
      <trkpt lat="39.3186080" lon="-0.7520700">
        <ele>484.0</ele>
        <time>2018-09-16T07:44:03Z</time>
      </trkpt>
      <trkpt lat="39.3186220" lon="-0.7520530">
        <ele>484.0</ele>
        <time>2018-09-16T07:44:04Z</time>
      </trkpt>
      <trkpt lat="39.3186220" lon="-0.7520530">
        <ele>485.0</ele>
        <time>2018-09-16T07:44:05Z</time>
      </trkpt>
      <trkpt lat="39.3186530" lon="-0.7520220">
        <ele>485.0</ele>
        <time>2018-09-16T07:44:06Z</time>
      </trkpt>
      <trkpt lat="39.3186530" lon="-0.7520220">
        <ele>485.0</ele>
        <time>2018-09-16T07:44:07Z</time>
      </trkpt>
      <trkpt lat="39.3186880" lon="-0.7519850">
        <ele>485.0</ele>
        <time>2018-09-16T07:44:08Z</time>
      </trkpt>
      <trkpt lat="39.3187030" lon="-0.7519630">
        <ele>486.0</ele>
        <time>2018-09-16T07:44:09Z</time>
      </trkpt>
      <trkpt lat="39.3187030" lon="-0.7519630">
        <ele>486.0</ele>
        <time>2018-09-16T07:44:10Z</time>
      </trkpt>
      <trkpt lat="39.3187280" lon="-0.7519220">
        <ele>486.0</ele>
        <time>2018-09-16T07:44:11Z</time>
      </trkpt>
      <trkpt lat="39.3187380" lon="-0.7519020">
        <ele>486.0</ele>
        <time>2018-09-16T07:44:12Z</time>
      </trkpt>
      <trkpt lat="39.3187380" lon="-0.7519020">
        <ele>486.0</ele>
        <time>2018-09-16T07:44:13Z</time>
      </trkpt>
      <trkpt lat="39.3187530" lon="-0.7518620">
        <ele>486.0</ele>
        <time>2018-09-16T07:44:14Z</time>
      </trkpt>
      <trkpt lat="39.3187530" lon="-0.7518620">
        <ele>486.0</ele>
        <time>2018-09-16T07:44:15Z</time>
      </trkpt>
      <trkpt lat="39.3187680" lon="-0.7518220">
        <ele>486.0</ele>
        <time>2018-09-16T07:44:16Z</time>
      </trkpt>
      <trkpt lat="39.3187680" lon="-0.7518220">
        <ele>486.0</ele>
        <time>2018-09-16T07:44:17Z</time>
      </trkpt>
      <trkpt lat="39.3187850" lon="-0.7517770">
        <ele>487.0</ele>
        <time>2018-09-16T07:44:18Z</time>
      </trkpt>
      <trkpt lat="39.3187850" lon="-0.7517770">
        <ele>487.0</ele>
        <time>2018-09-16T07:44:19Z</time>
      </trkpt>
      <trkpt lat="39.3187920" lon="-0.7517370">
        <ele>487.0</ele>
        <time>2018-09-16T07:44:20Z</time>
      </trkpt>
      <trkpt lat="39.3187920" lon="-0.7517370">
        <ele>487.0</ele>
        <time>2018-09-16T07:44:21Z</time>
      </trkpt>
      <trkpt lat="39.3188030" lon="-0.7516920">
        <ele>487.0</ele>
        <time>2018-09-16T07:44:22Z</time>
      </trkpt>
      <trkpt lat="39.3188030" lon="-0.7516920">
        <ele>487.0</ele>
        <time>2018-09-16T07:44:23Z</time>
      </trkpt>
      <trkpt lat="39.3188070" lon="-0.7516450">
        <ele>487.0</ele>
        <time>2018-09-16T07:44:24Z</time>
      </trkpt>
      <trkpt lat="39.3188070" lon="-0.7516450">
        <ele>487.0</ele>
        <time>2018-09-16T07:44:25Z</time>
      </trkpt>
      <trkpt lat="39.3188120" lon="-0.7515880">
        <ele>488.0</ele>
        <time>2018-09-16T07:44:26Z</time>
      </trkpt>
      <trkpt lat="39.3188120" lon="-0.7515620">
        <ele>488.0</ele>
        <time>2018-09-16T07:44:27Z</time>
      </trkpt>
      <trkpt lat="39.3188080" lon="-0.7515400">
        <ele>488.0</ele>
        <time>2018-09-16T07:44:28Z</time>
      </trkpt>
      <trkpt lat="39.3188080" lon="-0.7515400">
        <ele>488.0</ele>
        <time>2018-09-16T07:44:29Z</time>
      </trkpt>
      <trkpt lat="39.3188080" lon="-0.7514880">
        <ele>488.0</ele>
        <time>2018-09-16T07:44:30Z</time>
      </trkpt>
      <trkpt lat="39.3188080" lon="-0.7514880">
        <ele>489.0</ele>
        <time>2018-09-16T07:44:31Z</time>
      </trkpt>
      <trkpt lat="39.3188020" lon="-0.7514400">
        <ele>489.0</ele>
        <time>2018-09-16T07:44:32Z</time>
      </trkpt>
      <trkpt lat="39.3188020" lon="-0.7514400">
        <ele>489.0</ele>
        <time>2018-09-16T07:44:33Z</time>
      </trkpt>
      <trkpt lat="39.3187970" lon="-0.7513970">
        <ele>489.0</ele>
        <time>2018-09-16T07:44:34Z</time>
      </trkpt>
      <trkpt lat="39.3187970" lon="-0.7513970">
        <ele>489.0</ele>
        <time>2018-09-16T07:44:35Z</time>
      </trkpt>
      <trkpt lat="39.3187950" lon="-0.7513570">
        <ele>489.0</ele>
        <time>2018-09-16T07:44:36Z</time>
      </trkpt>
      <trkpt lat="39.3187950" lon="-0.7513570">
        <ele>490.0</ele>
        <time>2018-09-16T07:44:37Z</time>
      </trkpt>
      <trkpt lat="39.3187930" lon="-0.7513270">
        <ele>490.0</ele>
        <time>2018-09-16T07:44:38Z</time>
      </trkpt>
      <trkpt lat="39.3187930" lon="-0.7513270">
        <ele>490.0</ele>
        <time>2018-09-16T07:44:39Z</time>
      </trkpt>
      <trkpt lat="39.3187980" lon="-0.7512830">
        <ele>490.0</ele>
        <time>2018-09-16T07:44:40Z</time>
      </trkpt>
      <trkpt lat="39.3187980" lon="-0.7512830">
        <ele>490.0</ele>
        <time>2018-09-16T07:44:41Z</time>
      </trkpt>
      <trkpt lat="39.3187950" lon="-0.7512380">
        <ele>490.0</ele>
        <time>2018-09-16T07:44:42Z</time>
      </trkpt>
      <trkpt lat="39.3187920" lon="-0.7512180">
        <ele>491.0</ele>
        <time>2018-09-16T07:44:43Z</time>
      </trkpt>
      <trkpt lat="39.3187920" lon="-0.7512180">
        <ele>491.0</ele>
        <time>2018-09-16T07:44:44Z</time>
      </trkpt>
      <trkpt lat="39.3187880" lon="-0.7511800">
        <ele>491.0</ele>
        <time>2018-09-16T07:44:45Z</time>
      </trkpt>
      <trkpt lat="39.3187870" lon="-0.7511620">
        <ele>491.0</ele>
        <time>2018-09-16T07:44:46Z</time>
      </trkpt>
      <trkpt lat="39.3187870" lon="-0.7511620">
        <ele>491.0</ele>
        <time>2018-09-16T07:44:47Z</time>
      </trkpt>
      <trkpt lat="39.3187830" lon="-0.7511220">
        <ele>491.0</ele>
        <time>2018-09-16T07:44:48Z</time>
      </trkpt>
      <trkpt lat="39.3187850" lon="-0.7511030">
        <ele>491.0</ele>
        <time>2018-09-16T07:44:49Z</time>
      </trkpt>
      <trkpt lat="39.3187850" lon="-0.7511030">
        <ele>491.0</ele>
        <time>2018-09-16T07:44:50Z</time>
      </trkpt>
      <trkpt lat="39.3187820" lon="-0.7510670">
        <ele>492.0</ele>
        <time>2018-09-16T07:44:51Z</time>
      </trkpt>
      <trkpt lat="39.3187820" lon="-0.7510670">
        <ele>492.0</ele>
        <time>2018-09-16T07:44:52Z</time>
      </trkpt>
      <trkpt lat="39.3187770" lon="-0.7510270">
        <ele>492.0</ele>
        <time>2018-09-16T07:44:53Z</time>
      </trkpt>
      <trkpt lat="39.3187730" lon="-0.7510080">
        <ele>492.0</ele>
        <time>2018-09-16T07:44:54Z</time>
      </trkpt>
      <trkpt lat="39.3187730" lon="-0.7510080">
        <ele>492.0</ele>
        <time>2018-09-16T07:44:55Z</time>
      </trkpt>
      <trkpt lat="39.3187680" lon="-0.7509730">
        <ele>492.0</ele>
        <time>2018-09-16T07:44:56Z</time>
      </trkpt>
      <trkpt lat="39.3187680" lon="-0.7509730">
        <ele>492.0</ele>
        <time>2018-09-16T07:44:57Z</time>
      </trkpt>
      <trkpt lat="39.3187630" lon="-0.7509370">
        <ele>493.0</ele>
        <time>2018-09-16T07:44:58Z</time>
      </trkpt>
      <trkpt lat="39.3187600" lon="-0.7509200">
        <ele>493.0</ele>
        <time>2018-09-16T07:44:59Z</time>
      </trkpt>
      <trkpt lat="39.3187570" lon="-0.7509030">
        <ele>493.0</ele>
        <time>2018-09-16T07:45:00Z</time>
      </trkpt>
      <trkpt lat="39.3187570" lon="-0.7509030">
        <ele>493.0</ele>
        <time>2018-09-16T07:45:01Z</time>
      </trkpt>
      <trkpt lat="39.3187500" lon="-0.7508680">
        <ele>493.0</ele>
        <time>2018-09-16T07:45:02Z</time>
      </trkpt>
      <trkpt lat="39.3187500" lon="-0.7508480">
        <ele>493.0</ele>
        <time>2018-09-16T07:45:03Z</time>
      </trkpt>
      <trkpt lat="39.3187500" lon="-0.7508480">
        <ele>494.0</ele>
        <time>2018-09-16T07:45:04Z</time>
      </trkpt>
      <trkpt lat="39.3187470" lon="-0.7508130">
        <ele>494.0</ele>
        <time>2018-09-16T07:45:05Z</time>
      </trkpt>
      <trkpt lat="39.3187430" lon="-0.7507950">
        <ele>494.0</ele>
        <time>2018-09-16T07:45:06Z</time>
      </trkpt>
      <trkpt lat="39.3187430" lon="-0.7507950">
        <ele>494.0</ele>
        <time>2018-09-16T07:45:07Z</time>
      </trkpt>
      <trkpt lat="39.3187400" lon="-0.7507630">
        <ele>494.0</ele>
        <time>2018-09-16T07:45:08Z</time>
      </trkpt>
      <trkpt lat="39.3187400" lon="-0.7507630">
        <ele>494.0</ele>
        <time>2018-09-16T07:45:09Z</time>
      </trkpt>
      <trkpt lat="39.3187350" lon="-0.7507430">
        <ele>494.0</ele>
        <time>2018-09-16T07:45:10Z</time>
      </trkpt>
      <trkpt lat="39.3187320" lon="-0.7507280">
        <ele>494.0</ele>
        <time>2018-09-16T07:45:11Z</time>
      </trkpt>
      <trkpt lat="39.3187300" lon="-0.7507100">
        <ele>495.0</ele>
        <time>2018-09-16T07:45:12Z</time>
      </trkpt>
      <trkpt lat="39.3187280" lon="-0.7506900">
        <ele>495.0</ele>
        <time>2018-09-16T07:45:13Z</time>
      </trkpt>
      <trkpt lat="39.3187270" lon="-0.7506730">
        <ele>495.0</ele>
        <time>2018-09-16T07:45:14Z</time>
      </trkpt>
      <trkpt lat="39.3187270" lon="-0.7506730">
        <ele>495.0</ele>
        <time>2018-09-16T07:45:15Z</time>
      </trkpt>
      <trkpt lat="39.3187250" lon="-0.7506370">
        <ele>495.0</ele>
        <time>2018-09-16T07:45:16Z</time>
      </trkpt>
      <trkpt lat="39.3187250" lon="-0.7506370">
        <ele>495.0</ele>
        <time>2018-09-16T07:45:17Z</time>
      </trkpt>
      <trkpt lat="39.3187250" lon="-0.7505970">
        <ele>495.0</ele>
        <time>2018-09-16T07:45:18Z</time>
      </trkpt>
      <trkpt lat="39.3187250" lon="-0.7505970">
        <ele>495.0</ele>
        <time>2018-09-16T07:45:19Z</time>
      </trkpt>
      <trkpt lat="39.3187270" lon="-0.7505530">
        <ele>496.0</ele>
        <time>2018-09-16T07:45:20Z</time>
      </trkpt>
      <trkpt lat="39.3187270" lon="-0.7505530">
        <ele>496.0</ele>
        <time>2018-09-16T07:45:21Z</time>
      </trkpt>
      <trkpt lat="39.3187230" lon="-0.7505100">
        <ele>496.0</ele>
        <time>2018-09-16T07:45:22Z</time>
      </trkpt>
      <trkpt lat="39.3187220" lon="-0.7504870">
        <ele>496.0</ele>
        <time>2018-09-16T07:45:23Z</time>
      </trkpt>
      <trkpt lat="39.3187220" lon="-0.7504870">
        <ele>496.0</ele>
        <time>2018-09-16T07:45:24Z</time>
      </trkpt>
      <trkpt lat="39.3187120" lon="-0.7504530">
        <ele>496.0</ele>
        <time>2018-09-16T07:45:25Z</time>
      </trkpt>
      <trkpt lat="39.3187120" lon="-0.7504530">
        <ele>496.0</ele>
        <time>2018-09-16T07:45:26Z</time>
      </trkpt>
      <trkpt lat="39.3187020" lon="-0.7504130">
        <ele>497.0</ele>
        <time>2018-09-16T07:45:27Z</time>
      </trkpt>
      <trkpt lat="39.3186950" lon="-0.7503980">
        <ele>497.0</ele>
        <time>2018-09-16T07:45:28Z</time>
      </trkpt>
      <trkpt lat="39.3186950" lon="-0.7503980">
        <ele>497.0</ele>
        <time>2018-09-16T07:45:29Z</time>
      </trkpt>
      <trkpt lat="39.3186750" lon="-0.7503720">
        <ele>497.0</ele>
        <time>2018-09-16T07:45:30Z</time>
      </trkpt>
      <trkpt lat="39.3186750" lon="-0.7503720">
        <ele>498.0</ele>
        <time>2018-09-16T07:45:31Z</time>
      </trkpt>
      <trkpt lat="39.3186500" lon="-0.7503570">
        <ele>498.0</ele>
        <time>2018-09-16T07:45:32Z</time>
      </trkpt>
      <trkpt lat="39.3186500" lon="-0.7503570">
        <ele>498.0</ele>
        <time>2018-09-16T07:45:33Z</time>
      </trkpt>
      <trkpt lat="39.3186230" lon="-0.7503500">
        <ele>498.0</ele>
        <time>2018-09-16T07:45:34Z</time>
      </trkpt>
      <trkpt lat="39.3186230" lon="-0.7503500">
        <ele>498.0</ele>
        <time>2018-09-16T07:45:35Z</time>
      </trkpt>
      <trkpt lat="39.3185970" lon="-0.7503580">
        <ele>498.0</ele>
        <time>2018-09-16T07:45:36Z</time>
      </trkpt>
      <trkpt lat="39.3185970" lon="-0.7503580">
        <ele>498.0</ele>
        <time>2018-09-16T07:45:37Z</time>
      </trkpt>
      <trkpt lat="39.3185670" lon="-0.7503550">
        <ele>498.0</ele>
        <time>2018-09-16T07:45:38Z</time>
      </trkpt>
      <trkpt lat="39.3185670" lon="-0.7503550">
        <ele>498.0</ele>
        <time>2018-09-16T07:45:39Z</time>
      </trkpt>
      <trkpt lat="39.3185420" lon="-0.7503570">
        <ele>498.0</ele>
        <time>2018-09-16T07:45:40Z</time>
      </trkpt>
      <trkpt lat="39.3185420" lon="-0.7503570">
        <ele>498.0</ele>
        <time>2018-09-16T07:45:41Z</time>
      </trkpt>
      <trkpt lat="39.3185170" lon="-0.7503580">
        <ele>498.0</ele>
        <time>2018-09-16T07:45:42Z</time>
      </trkpt>
      <trkpt lat="39.3185170" lon="-0.7503580">
        <ele>498.0</ele>
        <time>2018-09-16T07:45:43Z</time>
      </trkpt>
      <trkpt lat="39.3185080" lon="-0.7503600">
        <ele>498.0</ele>
        <time>2018-09-16T07:45:44Z</time>
      </trkpt>
      <trkpt lat="39.3185080" lon="-0.7503600">
        <ele>498.0</ele>
        <time>2018-09-16T07:45:45Z</time>
      </trkpt>
      <trkpt lat="39.3185080" lon="-0.7503620">
        <ele>498.0</ele>
        <time>2018-09-16T07:45:46Z</time>
      </trkpt>
      <trkpt lat="39.3185080" lon="-0.7503620">
        <ele>498.0</ele>
        <time>2018-09-16T07:45:47Z</time>
      </trkpt>
      <trkpt lat="39.3185080" lon="-0.7503620">
        <ele>498.0</ele>
        <time>2018-09-16T07:45:48Z</time>
      </trkpt>
      <trkpt lat="39.3185080" lon="-0.7503620">
        <ele>498.0</ele>
        <time>2018-09-16T07:45:49Z</time>
      </trkpt>
      <trkpt lat="39.3185080" lon="-0.7503620">
        <ele>498.0</ele>
        <time>2018-09-16T07:45:50Z</time>
      </trkpt>
      <trkpt lat="39.3185000" lon="-0.7503730">
        <ele>498.0</ele>
        <time>2018-09-16T07:45:51Z</time>
      </trkpt>
      <trkpt lat="39.3185000" lon="-0.7503730">
        <ele>498.0</ele>
        <time>2018-09-16T07:45:52Z</time>
      </trkpt>
      <trkpt lat="39.3184770" lon="-0.7503820">
        <ele>498.0</ele>
        <time>2018-09-16T07:45:53Z</time>
      </trkpt>
      <trkpt lat="39.3184560" lon="-0.7503910">
        <ele>499.0</ele>
        <time>2018-09-16T07:45:54Z</time>
      </trkpt>
      <trkpt lat="39.3184350" lon="-0.7504000">
        <ele>499.0</ele>
        <time>2018-09-16T07:45:55Z</time>
      </trkpt>
      <trkpt lat="39.3184350" lon="-0.7504000">
        <ele>499.0</ele>
        <time>2018-09-16T07:45:56Z</time>
      </trkpt>
      <trkpt lat="39.3183900" lon="-0.7504230">
        <ele>499.0</ele>
        <time>2018-09-16T07:45:57Z</time>
      </trkpt>
      <trkpt lat="39.3183900" lon="-0.7504230">
        <ele>499.0</ele>
        <time>2018-09-16T07:45:58Z</time>
      </trkpt>
      <trkpt lat="39.3183380" lon="-0.7504480">
        <ele>499.0</ele>
        <time>2018-09-16T07:45:59Z</time>
      </trkpt>
      <trkpt lat="39.3183150" lon="-0.7504620">
        <ele>498.0</ele>
        <time>2018-09-16T07:46:00Z</time>
      </trkpt>
      <trkpt lat="39.3183150" lon="-0.7504620">
        <ele>498.0</ele>
        <time>2018-09-16T07:46:01Z</time>
      </trkpt>
      <trkpt lat="39.3182730" lon="-0.7504830">
        <ele>498.0</ele>
        <time>2018-09-16T07:46:02Z</time>
      </trkpt>
      <trkpt lat="39.3182530" lon="-0.7504930">
        <ele>498.0</ele>
        <time>2018-09-16T07:46:03Z</time>
      </trkpt>
      <trkpt lat="39.3182530" lon="-0.7504930">
        <ele>497.0</ele>
        <time>2018-09-16T07:46:04Z</time>
      </trkpt>
      <trkpt lat="39.3182100" lon="-0.7505150">
        <ele>497.0</ele>
        <time>2018-09-16T07:46:05Z</time>
      </trkpt>
      <trkpt lat="39.3182100" lon="-0.7505150">
        <ele>497.0</ele>
        <time>2018-09-16T07:46:06Z</time>
      </trkpt>
      <trkpt lat="39.3181570" lon="-0.7505320">
        <ele>497.0</ele>
        <time>2018-09-16T07:46:07Z</time>
      </trkpt>
      <trkpt lat="39.3181570" lon="-0.7505320">
        <ele>497.0</ele>
        <time>2018-09-16T07:46:08Z</time>
      </trkpt>
      <trkpt lat="39.3180970" lon="-0.7505420">
        <ele>497.0</ele>
        <time>2018-09-16T07:46:09Z</time>
      </trkpt>
      <trkpt lat="39.3180650" lon="-0.7505430">
        <ele>497.0</ele>
        <time>2018-09-16T07:46:10Z</time>
      </trkpt>
      <trkpt lat="39.3180330" lon="-0.7505420">
        <ele>497.0</ele>
        <time>2018-09-16T07:46:11Z</time>
      </trkpt>
      <trkpt lat="39.3180330" lon="-0.7505420">
        <ele>497.0</ele>
        <time>2018-09-16T07:46:12Z</time>
      </trkpt>
      <trkpt lat="39.3179680" lon="-0.7505200">
        <ele>497.0</ele>
        <time>2018-09-16T07:46:13Z</time>
      </trkpt>
      <trkpt lat="39.3179680" lon="-0.7505200">
        <ele>497.0</ele>
        <time>2018-09-16T07:46:14Z</time>
      </trkpt>
      <trkpt lat="39.3179070" lon="-0.7504880">
        <ele>497.0</ele>
        <time>2018-09-16T07:46:15Z</time>
      </trkpt>
      <trkpt lat="39.3179070" lon="-0.7504880">
        <ele>497.0</ele>
        <time>2018-09-16T07:46:16Z</time>
      </trkpt>
      <trkpt lat="39.3178530" lon="-0.7504330">
        <ele>496.0</ele>
        <time>2018-09-16T07:46:17Z</time>
      </trkpt>
      <trkpt lat="39.3178530" lon="-0.7504330">
        <ele>496.0</ele>
        <time>2018-09-16T07:46:18Z</time>
      </trkpt>
      <trkpt lat="39.3178100" lon="-0.7503620">
        <ele>496.0</ele>
        <time>2018-09-16T07:46:19Z</time>
      </trkpt>
      <trkpt lat="39.3178100" lon="-0.7503620">
        <ele>496.0</ele>
        <time>2018-09-16T07:46:20Z</time>
      </trkpt>
      <trkpt lat="39.3177730" lon="-0.7502870">
        <ele>496.0</ele>
        <time>2018-09-16T07:46:21Z</time>
      </trkpt>
      <trkpt lat="39.3177730" lon="-0.7502870">
        <ele>496.0</ele>
        <time>2018-09-16T07:46:22Z</time>
      </trkpt>
      <trkpt lat="39.3177380" lon="-0.7501970">
        <ele>495.0</ele>
        <time>2018-09-16T07:46:23Z</time>
      </trkpt>
      <trkpt lat="39.3177200" lon="-0.7501470">
        <ele>495.0</ele>
        <time>2018-09-16T07:46:24Z</time>
      </trkpt>
      <trkpt lat="39.3177200" lon="-0.7501470">
        <ele>495.0</ele>
        <time>2018-09-16T07:46:25Z</time>
      </trkpt>
      <trkpt lat="39.3176800" lon="-0.7500320">
        <ele>495.0</ele>
        <time>2018-09-16T07:46:26Z</time>
      </trkpt>
      <trkpt lat="39.3176800" lon="-0.7500320">
        <ele>493.0</ele>
        <time>2018-09-16T07:46:27Z</time>
      </trkpt>
      <trkpt lat="39.3176350" lon="-0.7499050">
        <ele>493.0</ele>
        <time>2018-09-16T07:46:28Z</time>
      </trkpt>
      <trkpt lat="39.3176350" lon="-0.7499050">
        <ele>493.0</ele>
        <time>2018-09-16T07:46:29Z</time>
      </trkpt>
      <trkpt lat="39.3175970" lon="-0.7497720">
        <ele>493.0</ele>
        <time>2018-09-16T07:46:30Z</time>
      </trkpt>
      <trkpt lat="39.3175970" lon="-0.7497720">
        <ele>492.0</ele>
        <time>2018-09-16T07:46:31Z</time>
      </trkpt>
      <trkpt lat="39.3175580" lon="-0.7496280">
        <ele>492.0</ele>
        <time>2018-09-16T07:46:32Z</time>
      </trkpt>
      <trkpt lat="39.3175420" lon="-0.7495570">
        <ele>492.0</ele>
        <time>2018-09-16T07:46:33Z</time>
      </trkpt>
      <trkpt lat="39.3175420" lon="-0.7495570">
        <ele>492.0</ele>
        <time>2018-09-16T07:46:34Z</time>
      </trkpt>
      <trkpt lat="39.3175320" lon="-0.7493970">
        <ele>491.0</ele>
        <time>2018-09-16T07:46:35Z</time>
      </trkpt>
      <trkpt lat="39.3175300" lon="-0.7493170">
        <ele>491.0</ele>
        <time>2018-09-16T07:46:36Z</time>
      </trkpt>
      <trkpt lat="39.3175300" lon="-0.7493170">
        <ele>491.0</ele>
        <time>2018-09-16T07:46:37Z</time>
      </trkpt>
      <trkpt lat="39.3175350" lon="-0.7491570">
        <ele>490.0</ele>
        <time>2018-09-16T07:46:38Z</time>
      </trkpt>
      <trkpt lat="39.3175380" lon="-0.7490800">
        <ele>490.0</ele>
        <time>2018-09-16T07:46:39Z</time>
      </trkpt>
      <trkpt lat="39.3175380" lon="-0.7490800">
        <ele>488.0</ele>
        <time>2018-09-16T07:46:40Z</time>
      </trkpt>
      <trkpt lat="39.3175450" lon="-0.7489230">
        <ele>488.0</ele>
        <time>2018-09-16T07:46:41Z</time>
      </trkpt>
      <trkpt lat="39.3175430" lon="-0.7488430">
        <ele>488.0</ele>
        <time>2018-09-16T07:46:42Z</time>
      </trkpt>
      <trkpt lat="39.3175430" lon="-0.7488430">
        <ele>488.0</ele>
        <time>2018-09-16T07:46:43Z</time>
      </trkpt>
      <trkpt lat="39.3175580" lon="-0.7486780">
        <ele>486.0</ele>
        <time>2018-09-16T07:46:44Z</time>
      </trkpt>
      <trkpt lat="39.3175580" lon="-0.7486780">
        <ele>485.0</ele>
        <time>2018-09-16T07:46:45Z</time>
      </trkpt>
      <trkpt lat="39.3175620" lon="-0.7485030">
        <ele>485.0</ele>
        <time>2018-09-16T07:46:46Z</time>
      </trkpt>
      <trkpt lat="39.3175620" lon="-0.7485030">
        <ele>484.0</ele>
        <time>2018-09-16T07:46:47Z</time>
      </trkpt>
      <trkpt lat="39.3175480" lon="-0.7483270">
        <ele>484.0</ele>
        <time>2018-09-16T07:46:48Z</time>
      </trkpt>
      <trkpt lat="39.3175480" lon="-0.7483270">
        <ele>483.0</ele>
        <time>2018-09-16T07:46:49Z</time>
      </trkpt>
      <trkpt lat="39.3175180" lon="-0.7481600">
        <ele>483.0</ele>
        <time>2018-09-16T07:46:50Z</time>
      </trkpt>
      <trkpt lat="39.3175050" lon="-0.7480770">
        <ele>481.0</ele>
        <time>2018-09-16T07:46:51Z</time>
      </trkpt>
      <trkpt lat="39.3175050" lon="-0.7480770">
        <ele>481.0</ele>
        <time>2018-09-16T07:46:52Z</time>
      </trkpt>
      <trkpt lat="39.3174800" lon="-0.7479200">
        <ele>481.0</ele>
        <time>2018-09-16T07:46:53Z</time>
      </trkpt>
      <trkpt lat="39.3174670" lon="-0.7478520">
        <ele>481.0</ele>
        <time>2018-09-16T07:46:54Z</time>
      </trkpt>
      <trkpt lat="39.3174670" lon="-0.7478520">
        <ele>480.0</ele>
        <time>2018-09-16T07:46:55Z</time>
      </trkpt>
      <trkpt lat="39.3174130" lon="-0.7477600">
        <ele>480.0</ele>
        <time>2018-09-16T07:46:56Z</time>
      </trkpt>
      <trkpt lat="39.3174130" lon="-0.7477600">
        <ele>479.0</ele>
        <time>2018-09-16T07:46:57Z</time>
      </trkpt>
      <trkpt lat="39.3173370" lon="-0.7477200">
        <ele>479.0</ele>
        <time>2018-09-16T07:46:58Z</time>
      </trkpt>
      <trkpt lat="39.3172970" lon="-0.7477220">
        <ele>477.0</ele>
        <time>2018-09-16T07:46:59Z</time>
      </trkpt>
      <trkpt lat="39.3172520" lon="-0.7477330">
        <ele>477.0</ele>
        <time>2018-09-16T07:47:00Z</time>
      </trkpt>
      <trkpt lat="39.3172520" lon="-0.7477330">
        <ele>476.0</ele>
        <time>2018-09-16T07:47:01Z</time>
      </trkpt>
      <trkpt lat="39.3171530" lon="-0.7477650">
        <ele>476.0</ele>
        <time>2018-09-16T07:47:02Z</time>
      </trkpt>
      <trkpt lat="39.3171000" lon="-0.7477800">
        <ele>476.0</ele>
        <time>2018-09-16T07:47:03Z</time>
      </trkpt>
      <trkpt lat="39.3170470" lon="-0.7477900">
        <ele>476.0</ele>
        <time>2018-09-16T07:47:04Z</time>
      </trkpt>
      <trkpt lat="39.3170470" lon="-0.7477900">
        <ele>475.0</ele>
        <time>2018-09-16T07:47:05Z</time>
      </trkpt>
      <trkpt lat="39.3169330" lon="-0.7477930">
        <ele>475.0</ele>
        <time>2018-09-16T07:47:06Z</time>
      </trkpt>
      <trkpt lat="39.3169330" lon="-0.7477930">
        <ele>475.0</ele>
        <time>2018-09-16T07:47:07Z</time>
      </trkpt>
      <trkpt lat="39.3168130" lon="-0.7477800">
        <ele>475.0</ele>
        <time>2018-09-16T07:47:08Z</time>
      </trkpt>
      <trkpt lat="39.3167580" lon="-0.7477820">
        <ele>475.0</ele>
        <time>2018-09-16T07:47:09Z</time>
      </trkpt>
      <trkpt lat="39.3167580" lon="-0.7477820">
        <ele>475.0</ele>
        <time>2018-09-16T07:47:10Z</time>
      </trkpt>
      <trkpt lat="39.3166570" lon="-0.7478280">
        <ele>473.0</ele>
        <time>2018-09-16T07:47:11Z</time>
      </trkpt>
      <trkpt lat="39.3166570" lon="-0.7478280">
        <ele>473.0</ele>
        <time>2018-09-16T07:47:12Z</time>
      </trkpt>
      <trkpt lat="39.3165630" lon="-0.7479230">
        <ele>473.0</ele>
        <time>2018-09-16T07:47:13Z</time>
      </trkpt>
      <trkpt lat="39.3165630" lon="-0.7479230">
        <ele>471.0</ele>
        <time>2018-09-16T07:47:14Z</time>
      </trkpt>
      <trkpt lat="39.3164680" lon="-0.7479970">
        <ele>471.0</ele>
        <time>2018-09-16T07:47:15Z</time>
      </trkpt>
      <trkpt lat="39.3164680" lon="-0.7479970">
        <ele>470.0</ele>
        <time>2018-09-16T07:47:16Z</time>
      </trkpt>
      <trkpt lat="39.3163650" lon="-0.7479770">
        <ele>470.0</ele>
        <time>2018-09-16T07:47:17Z</time>
      </trkpt>
      <trkpt lat="39.3163220" lon="-0.7479380">
        <ele>469.0</ele>
        <time>2018-09-16T07:47:18Z</time>
      </trkpt>
      <trkpt lat="39.3163220" lon="-0.7479380">
        <ele>469.0</ele>
        <time>2018-09-16T07:47:19Z</time>
      </trkpt>
      <trkpt lat="39.3162450" lon="-0.7478450">
        <ele>468.0</ele>
        <time>2018-09-16T07:47:20Z</time>
      </trkpt>
      <trkpt lat="39.3162080" lon="-0.7477920">
        <ele>468.0</ele>
        <time>2018-09-16T07:47:21Z</time>
      </trkpt>
      <trkpt lat="39.3162080" lon="-0.7477920">
        <ele>468.0</ele>
        <time>2018-09-16T07:47:22Z</time>
      </trkpt>
      <trkpt lat="39.3161430" lon="-0.7476670">
        <ele>468.0</ele>
        <time>2018-09-16T07:47:23Z</time>
      </trkpt>
      <trkpt lat="39.3161430" lon="-0.7476670">
        <ele>466.0</ele>
        <time>2018-09-16T07:47:24Z</time>
      </trkpt>
      <trkpt lat="39.3160700" lon="-0.7475380">
        <ele>466.0</ele>
        <time>2018-09-16T07:47:25Z</time>
      </trkpt>
      <trkpt lat="39.3160700" lon="-0.7475380">
        <ele>466.0</ele>
        <time>2018-09-16T07:47:26Z</time>
      </trkpt>
      <trkpt lat="39.3159750" lon="-0.7474250">
        <ele>466.0</ele>
        <time>2018-09-16T07:47:27Z</time>
      </trkpt>
      <trkpt lat="39.3159230" lon="-0.7473680">
        <ele>465.0</ele>
        <time>2018-09-16T07:47:28Z</time>
      </trkpt>
      <trkpt lat="39.3159230" lon="-0.7473680">
        <ele>465.0</ele>
        <time>2018-09-16T07:47:29Z</time>
      </trkpt>
      <trkpt lat="39.3158120" lon="-0.7472670">
        <ele>464.0</ele>
        <time>2018-09-16T07:47:30Z</time>
      </trkpt>
      <trkpt lat="39.3158120" lon="-0.7472670">
        <ele>464.0</ele>
        <time>2018-09-16T07:47:31Z</time>
      </trkpt>
      <trkpt lat="39.3156950" lon="-0.7471820">
        <ele>464.0</ele>
        <time>2018-09-16T07:47:32Z</time>
      </trkpt>
      <trkpt lat="39.3156950" lon="-0.7471820">
        <ele>464.0</ele>
        <time>2018-09-16T07:47:33Z</time>
      </trkpt>
      <trkpt lat="39.3155700" lon="-0.7471030">
        <ele>463.0</ele>
        <time>2018-09-16T07:47:34Z</time>
      </trkpt>
      <trkpt lat="39.3155700" lon="-0.7471030">
        <ele>463.0</ele>
        <time>2018-09-16T07:47:35Z</time>
      </trkpt>
      <trkpt lat="39.3154580" lon="-0.7470180">
        <ele>462.0</ele>
        <time>2018-09-16T07:47:36Z</time>
      </trkpt>
      <trkpt lat="39.3154580" lon="-0.7470180">
        <ele>462.0</ele>
        <time>2018-09-16T07:47:37Z</time>
      </trkpt>
      <trkpt lat="39.3153720" lon="-0.7469220">
        <ele>460.0</ele>
        <time>2018-09-16T07:47:38Z</time>
      </trkpt>
      <trkpt lat="39.3153720" lon="-0.7469220">
        <ele>459.0</ele>
        <time>2018-09-16T07:47:39Z</time>
      </trkpt>
      <trkpt lat="39.3152970" lon="-0.7468020">
        <ele>459.0</ele>
        <time>2018-09-16T07:47:40Z</time>
      </trkpt>
      <trkpt lat="39.3152970" lon="-0.7468020">
        <ele>458.0</ele>
        <time>2018-09-16T07:47:41Z</time>
      </trkpt>
      <trkpt lat="39.3152230" lon="-0.7466700">
        <ele>458.0</ele>
        <time>2018-09-16T07:47:42Z</time>
      </trkpt>
      <trkpt lat="39.3152230" lon="-0.7466700">
        <ele>458.0</ele>
        <time>2018-09-16T07:47:43Z</time>
      </trkpt>
      <trkpt lat="39.3151480" lon="-0.7465470">
        <ele>458.0</ele>
        <time>2018-09-16T07:47:44Z</time>
      </trkpt>
      <trkpt lat="39.3151480" lon="-0.7465470">
        <ele>458.0</ele>
        <time>2018-09-16T07:47:45Z</time>
      </trkpt>
      <trkpt lat="39.3150650" lon="-0.7464320">
        <ele>458.0</ele>
        <time>2018-09-16T07:47:46Z</time>
      </trkpt>
      <trkpt lat="39.3150150" lon="-0.7463830">
        <ele>456.0</ele>
        <time>2018-09-16T07:47:47Z</time>
      </trkpt>
      <trkpt lat="39.3149600" lon="-0.7463500">
        <ele>456.0</ele>
        <time>2018-09-16T07:47:48Z</time>
      </trkpt>
      <trkpt lat="39.3149600" lon="-0.7463500">
        <ele>455.0</ele>
        <time>2018-09-16T07:47:49Z</time>
      </trkpt>
      <trkpt lat="39.3148420" lon="-0.7463080">
        <ele>455.0</ele>
        <time>2018-09-16T07:47:50Z</time>
      </trkpt>
      <trkpt lat="39.3148420" lon="-0.7463080">
        <ele>454.0</ele>
        <time>2018-09-16T07:47:51Z</time>
      </trkpt>
      <trkpt lat="39.3147220" lon="-0.7462600">
        <ele>454.0</ele>
        <time>2018-09-16T07:47:52Z</time>
      </trkpt>
      <trkpt lat="39.3147220" lon="-0.7462600">
        <ele>453.0</ele>
        <time>2018-09-16T07:47:53Z</time>
      </trkpt>
      <trkpt lat="39.3146120" lon="-0.7461920">
        <ele>453.0</ele>
        <time>2018-09-16T07:47:54Z</time>
      </trkpt>
      <trkpt lat="39.3146120" lon="-0.7461920">
        <ele>453.0</ele>
        <time>2018-09-16T07:47:55Z</time>
      </trkpt>
      <trkpt lat="39.3145130" lon="-0.7460950">
        <ele>453.0</ele>
        <time>2018-09-16T07:47:56Z</time>
      </trkpt>
      <trkpt lat="39.3144650" lon="-0.7460450">
        <ele>452.0</ele>
        <time>2018-09-16T07:47:57Z</time>
      </trkpt>
      <trkpt lat="39.3144180" lon="-0.7459930">
        <ele>452.0</ele>
        <time>2018-09-16T07:47:58Z</time>
      </trkpt>
      <trkpt lat="39.3144180" lon="-0.7459930">
        <ele>452.0</ele>
        <time>2018-09-16T07:47:59Z</time>
      </trkpt>
      <trkpt lat="39.3143180" lon="-0.7458920">
        <ele>452.0</ele>
        <time>2018-09-16T07:48:00Z</time>
      </trkpt>
      <trkpt lat="39.3143180" lon="-0.7458920">
        <ele>451.0</ele>
        <time>2018-09-16T07:48:01Z</time>
      </trkpt>
      <trkpt lat="39.3142130" lon="-0.7457930">
        <ele>451.0</ele>
        <time>2018-09-16T07:48:02Z</time>
      </trkpt>
      <trkpt lat="39.3142130" lon="-0.7457930">
        <ele>451.0</ele>
        <time>2018-09-16T07:48:03Z</time>
      </trkpt>
      <trkpt lat="39.3141100" lon="-0.7456930">
        <ele>451.0</ele>
        <time>2018-09-16T07:48:04Z</time>
      </trkpt>
      <trkpt lat="39.3141100" lon="-0.7456930">
        <ele>450.0</ele>
        <time>2018-09-16T07:48:05Z</time>
      </trkpt>
      <trkpt lat="39.3140020" lon="-0.7456370">
        <ele>449.0</ele>
        <time>2018-09-16T07:48:06Z</time>
      </trkpt>
      <trkpt lat="39.3140020" lon="-0.7456370">
        <ele>449.0</ele>
        <time>2018-09-16T07:48:07Z</time>
      </trkpt>
      <trkpt lat="39.3138880" lon="-0.7456300">
        <ele>448.0</ele>
        <time>2018-09-16T07:48:08Z</time>
      </trkpt>
      <trkpt lat="39.3138880" lon="-0.7456300">
        <ele>448.0</ele>
        <time>2018-09-16T07:48:09Z</time>
      </trkpt>
      <trkpt lat="39.3137700" lon="-0.7456720">
        <ele>447.0</ele>
        <time>2018-09-16T07:48:10Z</time>
      </trkpt>
      <trkpt lat="39.3137130" lon="-0.7457070">
        <ele>447.0</ele>
        <time>2018-09-16T07:48:11Z</time>
      </trkpt>
      <trkpt lat="39.3136580" lon="-0.7457500">
        <ele>447.0</ele>
        <time>2018-09-16T07:48:12Z</time>
      </trkpt>
      <trkpt lat="39.3136580" lon="-0.7457500">
        <ele>447.0</ele>
        <time>2018-09-16T07:48:13Z</time>
      </trkpt>
      <trkpt lat="39.3135720" lon="-0.7458680">
        <ele>446.0</ele>
        <time>2018-09-16T07:48:14Z</time>
      </trkpt>
      <trkpt lat="39.3135720" lon="-0.7458680">
        <ele>446.0</ele>
        <time>2018-09-16T07:48:15Z</time>
      </trkpt>
      <trkpt lat="39.3134950" lon="-0.7460070">
        <ele>445.0</ele>
        <time>2018-09-16T07:48:16Z</time>
      </trkpt>
      <trkpt lat="39.3134950" lon="-0.7460070">
        <ele>445.0</ele>
        <time>2018-09-16T07:48:17Z</time>
      </trkpt>
      <trkpt lat="39.3134300" lon="-0.7461480">
        <ele>444.0</ele>
        <time>2018-09-16T07:48:18Z</time>
      </trkpt>
      <trkpt lat="39.3134300" lon="-0.7461480">
        <ele>444.0</ele>
        <time>2018-09-16T07:48:19Z</time>
      </trkpt>
      <trkpt lat="39.3133850" lon="-0.7462920">
        <ele>444.0</ele>
        <time>2018-09-16T07:48:20Z</time>
      </trkpt>
      <trkpt lat="39.3133850" lon="-0.7462920">
        <ele>444.0</ele>
        <time>2018-09-16T07:48:21Z</time>
      </trkpt>
      <trkpt lat="39.3133500" lon="-0.7464430">
        <ele>444.0</ele>
        <time>2018-09-16T07:48:22Z</time>
      </trkpt>
      <trkpt lat="39.3133500" lon="-0.7464430">
        <ele>444.0</ele>
        <time>2018-09-16T07:48:23Z</time>
      </trkpt>
      <trkpt lat="39.3133330" lon="-0.7465870">
        <ele>443.0</ele>
        <time>2018-09-16T07:48:24Z</time>
      </trkpt>
      <trkpt lat="39.3133330" lon="-0.7465870">
        <ele>443.0</ele>
        <time>2018-09-16T07:48:25Z</time>
      </trkpt>
      <trkpt lat="39.3133220" lon="-0.7467270">
        <ele>443.0</ele>
        <time>2018-09-16T07:48:26Z</time>
      </trkpt>
      <trkpt lat="39.3133200" lon="-0.7467930">
        <ele>443.0</ele>
        <time>2018-09-16T07:48:27Z</time>
      </trkpt>
      <trkpt lat="39.3133200" lon="-0.7467930">
        <ele>443.0</ele>
        <time>2018-09-16T07:48:28Z</time>
      </trkpt>
      <trkpt lat="39.3133270" lon="-0.7469170">
        <ele>443.0</ele>
        <time>2018-09-16T07:48:29Z</time>
      </trkpt>
      <trkpt lat="39.3133270" lon="-0.7469170">
        <ele>442.0</ele>
        <time>2018-09-16T07:48:30Z</time>
      </trkpt>
      <trkpt lat="39.3133350" lon="-0.7470350">
        <ele>442.0</ele>
        <time>2018-09-16T07:48:31Z</time>
      </trkpt>
      <trkpt lat="39.3133350" lon="-0.7470350">
        <ele>442.0</ele>
        <time>2018-09-16T07:48:32Z</time>
      </trkpt>
      <trkpt lat="39.3133450" lon="-0.7471550">
        <ele>442.0</ele>
        <time>2018-09-16T07:48:33Z</time>
      </trkpt>
      <trkpt lat="39.3133450" lon="-0.7471550">
        <ele>442.0</ele>
        <time>2018-09-16T07:48:34Z</time>
      </trkpt>
      <trkpt lat="39.3133530" lon="-0.7472770">
        <ele>442.0</ele>
        <time>2018-09-16T07:48:35Z</time>
      </trkpt>
      <trkpt lat="39.3133550" lon="-0.7473380">
        <ele>442.0</ele>
        <time>2018-09-16T07:48:36Z</time>
      </trkpt>
      <trkpt lat="39.3133520" lon="-0.7474000">
        <ele>442.0</ele>
        <time>2018-09-16T07:48:37Z</time>
      </trkpt>
      <trkpt lat="39.3133520" lon="-0.7474000">
        <ele>442.0</ele>
        <time>2018-09-16T07:48:38Z</time>
      </trkpt>
      <trkpt lat="39.3133350" lon="-0.7475250">
        <ele>442.0</ele>
        <time>2018-09-16T07:48:39Z</time>
      </trkpt>
      <trkpt lat="39.3133230" lon="-0.7475880">
        <ele>442.0</ele>
        <time>2018-09-16T07:48:40Z</time>
      </trkpt>
      <trkpt lat="39.3133230" lon="-0.7475880">
        <ele>442.0</ele>
        <time>2018-09-16T07:48:41Z</time>
      </trkpt>
      <trkpt lat="39.3133070" lon="-0.7477180">
        <ele>442.0</ele>
        <time>2018-09-16T07:48:42Z</time>
      </trkpt>
      <trkpt lat="39.3133070" lon="-0.7477180">
        <ele>443.0</ele>
        <time>2018-09-16T07:48:43Z</time>
      </trkpt>
      <trkpt lat="39.3132930" lon="-0.7478480">
        <ele>443.0</ele>
        <time>2018-09-16T07:48:44Z</time>
      </trkpt>
      <trkpt lat="39.3132880" lon="-0.7479150">
        <ele>443.0</ele>
        <time>2018-09-16T07:48:45Z</time>
      </trkpt>
      <trkpt lat="39.3132880" lon="-0.7479150">
        <ele>443.0</ele>
        <time>2018-09-16T07:48:46Z</time>
      </trkpt>
      <trkpt lat="39.3132800" lon="-0.7480520">
        <ele>443.0</ele>
        <time>2018-09-16T07:48:47Z</time>
      </trkpt>
      <trkpt lat="39.3132770" lon="-0.7481220">
        <ele>443.0</ele>
        <time>2018-09-16T07:48:48Z</time>
      </trkpt>
      <trkpt lat="39.3132770" lon="-0.7481220">
        <ele>443.0</ele>
        <time>2018-09-16T07:48:49Z</time>
      </trkpt>
      <trkpt lat="39.3132700" lon="-0.7482630">
        <ele>443.0</ele>
        <time>2018-09-16T07:48:50Z</time>
      </trkpt>
      <trkpt lat="39.3132700" lon="-0.7482630">
        <ele>443.0</ele>
        <time>2018-09-16T07:48:51Z</time>
      </trkpt>
      <trkpt lat="39.3132570" lon="-0.7484050">
        <ele>443.0</ele>
        <time>2018-09-16T07:48:52Z</time>
      </trkpt>
      <trkpt lat="39.3132570" lon="-0.7484050">
        <ele>443.0</ele>
        <time>2018-09-16T07:48:53Z</time>
      </trkpt>
      <trkpt lat="39.3132420" lon="-0.7485480">
        <ele>443.0</ele>
        <time>2018-09-16T07:48:54Z</time>
      </trkpt>
      <trkpt lat="39.3132420" lon="-0.7485480">
        <ele>443.0</ele>
        <time>2018-09-16T07:48:55Z</time>
      </trkpt>
      <trkpt lat="39.3132330" lon="-0.7486970">
        <ele>443.0</ele>
        <time>2018-09-16T07:48:56Z</time>
      </trkpt>
      <trkpt lat="39.3132280" lon="-0.7487730">
        <ele>443.0</ele>
        <time>2018-09-16T07:48:57Z</time>
      </trkpt>
      <trkpt lat="39.3132270" lon="-0.7488520">
        <ele>443.0</ele>
        <time>2018-09-16T07:48:58Z</time>
      </trkpt>
      <trkpt lat="39.3132270" lon="-0.7488520">
        <ele>443.0</ele>
        <time>2018-09-16T07:48:59Z</time>
      </trkpt>
      <trkpt lat="39.3132280" lon="-0.7490150">
        <ele>443.0</ele>
        <time>2018-09-16T07:49:00Z</time>
      </trkpt>
      <trkpt lat="39.3132280" lon="-0.7490150">
        <ele>443.0</ele>
        <time>2018-09-16T07:49:01Z</time>
      </trkpt>
      <trkpt lat="39.3132430" lon="-0.7491820">
        <ele>443.0</ele>
        <time>2018-09-16T07:49:02Z</time>
      </trkpt>
      <trkpt lat="39.3132430" lon="-0.7491820">
        <ele>443.0</ele>
        <time>2018-09-16T07:49:03Z</time>
      </trkpt>
      <trkpt lat="39.3132430" lon="-0.7493500">
        <ele>443.0</ele>
        <time>2018-09-16T07:49:04Z</time>
      </trkpt>
      <trkpt lat="39.3132430" lon="-0.7493500">
        <ele>443.0</ele>
        <time>2018-09-16T07:49:05Z</time>
      </trkpt>
      <trkpt lat="39.3132200" lon="-0.7495170">
        <ele>442.0</ele>
        <time>2018-09-16T07:49:06Z</time>
      </trkpt>
      <trkpt lat="39.3132200" lon="-0.7495170">
        <ele>442.0</ele>
        <time>2018-09-16T07:49:07Z</time>
      </trkpt>
      <trkpt lat="39.3131780" lon="-0.7496770">
        <ele>442.0</ele>
        <time>2018-09-16T07:49:08Z</time>
      </trkpt>
      <trkpt lat="39.3131780" lon="-0.7496770">
        <ele>442.0</ele>
        <time>2018-09-16T07:49:09Z</time>
      </trkpt>
      <trkpt lat="39.3131220" lon="-0.7498180">
        <ele>441.0</ele>
        <time>2018-09-16T07:49:10Z</time>
      </trkpt>
      <trkpt lat="39.3131220" lon="-0.7498180">
        <ele>441.0</ele>
        <time>2018-09-16T07:49:11Z</time>
      </trkpt>
      <trkpt lat="39.3131020" lon="-0.7499570">
        <ele>441.0</ele>
        <time>2018-09-16T07:49:12Z</time>
      </trkpt>
      <trkpt lat="39.3131020" lon="-0.7499570">
        <ele>441.0</ele>
        <time>2018-09-16T07:49:13Z</time>
      </trkpt>
      <trkpt lat="39.3131270" lon="-0.7500870">
        <ele>441.0</ele>
        <time>2018-09-16T07:49:14Z</time>
      </trkpt>
      <trkpt lat="39.3131270" lon="-0.7500870">
        <ele>441.0</ele>
        <time>2018-09-16T07:49:15Z</time>
      </trkpt>
      <trkpt lat="39.3131420" lon="-0.7502270">
        <ele>441.0</ele>
        <time>2018-09-16T07:49:16Z</time>
      </trkpt>
      <trkpt lat="39.3131400" lon="-0.7503000">
        <ele>441.0</ele>
        <time>2018-09-16T07:49:17Z</time>
      </trkpt>
      <trkpt lat="39.3131320" lon="-0.7503680">
        <ele>441.0</ele>
        <time>2018-09-16T07:49:18Z</time>
      </trkpt>
      <trkpt lat="39.3131320" lon="-0.7503680">
        <ele>441.0</ele>
        <time>2018-09-16T07:49:19Z</time>
      </trkpt>
      <trkpt lat="39.3130920" lon="-0.7504880">
        <ele>441.0</ele>
        <time>2018-09-16T07:49:20Z</time>
      </trkpt>
      <trkpt lat="39.3130920" lon="-0.7504880">
        <ele>441.0</ele>
        <time>2018-09-16T07:49:21Z</time>
      </trkpt>
      <trkpt lat="39.3130380" lon="-0.7506050">
        <ele>440.0</ele>
        <time>2018-09-16T07:49:22Z</time>
      </trkpt>
      <trkpt lat="39.3130380" lon="-0.7506050">
        <ele>440.0</ele>
        <time>2018-09-16T07:49:23Z</time>
      </trkpt>
      <trkpt lat="39.3129770" lon="-0.7507220">
        <ele>440.0</ele>
        <time>2018-09-16T07:49:24Z</time>
      </trkpt>
      <trkpt lat="39.3129770" lon="-0.7507220">
        <ele>440.0</ele>
        <time>2018-09-16T07:49:25Z</time>
      </trkpt>
      <trkpt lat="39.3129420" lon="-0.7508530">
        <ele>440.0</ele>
        <time>2018-09-16T07:49:26Z</time>
      </trkpt>
      <trkpt lat="39.3129420" lon="-0.7508530">
        <ele>440.0</ele>
        <time>2018-09-16T07:49:27Z</time>
      </trkpt>
      <trkpt lat="39.3129220" lon="-0.7509880">
        <ele>440.0</ele>
        <time>2018-09-16T07:49:28Z</time>
      </trkpt>
      <trkpt lat="39.3129220" lon="-0.7509880">
        <ele>440.0</ele>
        <time>2018-09-16T07:49:29Z</time>
      </trkpt>
      <trkpt lat="39.3128880" lon="-0.7511100">
        <ele>440.0</ele>
        <time>2018-09-16T07:49:30Z</time>
      </trkpt>
      <trkpt lat="39.3128880" lon="-0.7511100">
        <ele>440.0</ele>
        <time>2018-09-16T07:49:31Z</time>
      </trkpt>
      <trkpt lat="39.3128370" lon="-0.7512230">
        <ele>440.0</ele>
        <time>2018-09-16T07:49:32Z</time>
      </trkpt>
      <trkpt lat="39.3128100" lon="-0.7512800">
        <ele>439.0</ele>
        <time>2018-09-16T07:49:33Z</time>
      </trkpt>
      <trkpt lat="39.3128100" lon="-0.7512800">
        <ele>439.0</ele>
        <time>2018-09-16T07:49:34Z</time>
      </trkpt>
      <trkpt lat="39.3127380" lon="-0.7513930">
        <ele>439.0</ele>
        <time>2018-09-16T07:49:35Z</time>
      </trkpt>
      <trkpt lat="39.3126930" lon="-0.7514450">
        <ele>439.0</ele>
        <time>2018-09-16T07:49:36Z</time>
      </trkpt>
      <trkpt lat="39.3126930" lon="-0.7514450">
        <ele>439.0</ele>
        <time>2018-09-16T07:49:37Z</time>
      </trkpt>
      <trkpt lat="39.3125930" lon="-0.7515320">
        <ele>439.0</ele>
        <time>2018-09-16T07:49:38Z</time>
      </trkpt>
      <trkpt lat="39.3125930" lon="-0.7515320">
        <ele>439.0</ele>
        <time>2018-09-16T07:49:39Z</time>
      </trkpt>
      <trkpt lat="39.3125070" lon="-0.7516200">
        <ele>439.0</ele>
        <time>2018-09-16T07:49:40Z</time>
      </trkpt>
      <trkpt lat="39.3125070" lon="-0.7516200">
        <ele>439.0</ele>
        <time>2018-09-16T07:49:41Z</time>
      </trkpt>
      <trkpt lat="39.3124280" lon="-0.7517270">
        <ele>439.0</ele>
        <time>2018-09-16T07:49:42Z</time>
      </trkpt>
      <trkpt lat="39.3124280" lon="-0.7517270">
        <ele>438.0</ele>
        <time>2018-09-16T07:49:43Z</time>
      </trkpt>
      <trkpt lat="39.3123580" lon="-0.7518380">
        <ele>438.0</ele>
        <time>2018-09-16T07:49:44Z</time>
      </trkpt>
      <trkpt lat="39.3123270" lon="-0.7518950">
        <ele>438.0</ele>
        <time>2018-09-16T07:49:45Z</time>
      </trkpt>
      <trkpt lat="39.3123270" lon="-0.7518950">
        <ele>438.0</ele>
        <time>2018-09-16T07:49:46Z</time>
      </trkpt>
      <trkpt lat="39.3122750" lon="-0.7520150">
        <ele>438.0</ele>
        <time>2018-09-16T07:49:47Z</time>
      </trkpt>
      <trkpt lat="39.3122750" lon="-0.7520150">
        <ele>438.0</ele>
        <time>2018-09-16T07:49:48Z</time>
      </trkpt>
      <trkpt lat="39.3122280" lon="-0.7521320">
        <ele>437.0</ele>
        <time>2018-09-16T07:49:49Z</time>
      </trkpt>
      <trkpt lat="39.3122280" lon="-0.7521320">
        <ele>437.0</ele>
        <time>2018-09-16T07:49:50Z</time>
      </trkpt>
      <trkpt lat="39.3121880" lon="-0.7522470">
        <ele>437.0</ele>
        <time>2018-09-16T07:49:51Z</time>
      </trkpt>
      <trkpt lat="39.3121880" lon="-0.7522470">
        <ele>437.0</ele>
        <time>2018-09-16T07:49:52Z</time>
      </trkpt>
      <trkpt lat="39.3121670" lon="-0.7523670">
        <ele>437.0</ele>
        <time>2018-09-16T07:49:53Z</time>
      </trkpt>
      <trkpt lat="39.3121550" lon="-0.7524270">
        <ele>437.0</ele>
        <time>2018-09-16T07:49:54Z</time>
      </trkpt>
      <trkpt lat="39.3121550" lon="-0.7524270">
        <ele>437.0</ele>
        <time>2018-09-16T07:49:55Z</time>
      </trkpt>
      <trkpt lat="39.3121300" lon="-0.7525420">
        <ele>436.0</ele>
        <time>2018-09-16T07:49:56Z</time>
      </trkpt>
      <trkpt lat="39.3121300" lon="-0.7525420">
        <ele>436.0</ele>
        <time>2018-09-16T07:49:57Z</time>
      </trkpt>
      <trkpt lat="39.3120800" lon="-0.7526230">
        <ele>436.0</ele>
        <time>2018-09-16T07:49:58Z</time>
      </trkpt>
      <trkpt lat="39.3120800" lon="-0.7526230">
        <ele>436.0</ele>
        <time>2018-09-16T07:49:59Z</time>
      </trkpt>
      <trkpt lat="39.3120070" lon="-0.7526270">
        <ele>434.0</ele>
        <time>2018-09-16T07:50:00Z</time>
      </trkpt>
      <trkpt lat="39.3120070" lon="-0.7526270">
        <ele>434.0</ele>
        <time>2018-09-16T07:50:01Z</time>
      </trkpt>
      <trkpt lat="39.3119370" lon="-0.7525700">
        <ele>434.0</ele>
        <time>2018-09-16T07:50:02Z</time>
      </trkpt>
      <trkpt lat="39.3119080" lon="-0.7525270">
        <ele>434.0</ele>
        <time>2018-09-16T07:50:03Z</time>
      </trkpt>
      <trkpt lat="39.3119080" lon="-0.7525270">
        <ele>434.0</ele>
        <time>2018-09-16T07:50:04Z</time>
      </trkpt>
      <trkpt lat="39.3118550" lon="-0.7524220">
        <ele>434.0</ele>
        <time>2018-09-16T07:50:05Z</time>
      </trkpt>
      <trkpt lat="39.3118200" lon="-0.7523720">
        <ele>434.0</ele>
        <time>2018-09-16T07:50:06Z</time>
      </trkpt>
      <trkpt lat="39.3118200" lon="-0.7523720">
        <ele>434.0</ele>
        <time>2018-09-16T07:50:07Z</time>
      </trkpt>
      <trkpt lat="39.3117400" lon="-0.7523030">
        <ele>434.0</ele>
        <time>2018-09-16T07:50:08Z</time>
      </trkpt>
      <trkpt lat="39.3117400" lon="-0.7523030">
        <ele>434.0</ele>
        <time>2018-09-16T07:50:09Z</time>
      </trkpt>
      <trkpt lat="39.3116580" lon="-0.7522870">
        <ele>434.0</ele>
        <time>2018-09-16T07:50:10Z</time>
      </trkpt>
      <trkpt lat="39.3116180" lon="-0.7522980">
        <ele>434.0</ele>
        <time>2018-09-16T07:50:11Z</time>
      </trkpt>
      <trkpt lat="39.3115820" lon="-0.7523120">
        <ele>435.0</ele>
        <time>2018-09-16T07:50:12Z</time>
      </trkpt>
      <trkpt lat="39.3115820" lon="-0.7523120">
        <ele>435.0</ele>
        <time>2018-09-16T07:50:13Z</time>
      </trkpt>
      <trkpt lat="39.3115070" lon="-0.7523400">
        <ele>435.0</ele>
        <time>2018-09-16T07:50:14Z</time>
      </trkpt>
      <trkpt lat="39.3115070" lon="-0.7523400">
        <ele>435.0</ele>
        <time>2018-09-16T07:50:15Z</time>
      </trkpt>
      <trkpt lat="39.3114370" lon="-0.7523730">
        <ele>435.0</ele>
        <time>2018-09-16T07:50:16Z</time>
      </trkpt>
      <trkpt lat="39.3114370" lon="-0.7523730">
        <ele>435.0</ele>
        <time>2018-09-16T07:50:17Z</time>
      </trkpt>
      <trkpt lat="39.3113750" lon="-0.7524200">
        <ele>435.0</ele>
        <time>2018-09-16T07:50:18Z</time>
      </trkpt>
      <trkpt lat="39.3113750" lon="-0.7524200">
        <ele>435.0</ele>
        <time>2018-09-16T07:50:19Z</time>
      </trkpt>
      <trkpt lat="39.3113220" lon="-0.7524670">
        <ele>436.0</ele>
        <time>2018-09-16T07:50:20Z</time>
      </trkpt>
      <trkpt lat="39.3112930" lon="-0.7524900">
        <ele>436.0</ele>
        <time>2018-09-16T07:50:21Z</time>
      </trkpt>
      <trkpt lat="39.3112670" lon="-0.7525150">
        <ele>436.0</ele>
        <time>2018-09-16T07:50:22Z</time>
      </trkpt>
      <trkpt lat="39.3112400" lon="-0.7525420">
        <ele>437.0</ele>
        <time>2018-09-16T07:50:23Z</time>
      </trkpt>
      <trkpt lat="39.3112400" lon="-0.7525420">
        <ele>437.0</ele>
        <time>2018-09-16T07:50:24Z</time>
      </trkpt>
      <trkpt lat="39.3111800" lon="-0.7525830">
        <ele>437.0</ele>
        <time>2018-09-16T07:50:25Z</time>
      </trkpt>
      <trkpt lat="39.3111800" lon="-0.7525830">
        <ele>437.0</ele>
        <time>2018-09-16T07:50:26Z</time>
      </trkpt>
      <trkpt lat="39.3111170" lon="-0.7526050">
        <ele>438.0</ele>
        <time>2018-09-16T07:50:27Z</time>
      </trkpt>
      <trkpt lat="39.3111170" lon="-0.7526050">
        <ele>438.0</ele>
        <time>2018-09-16T07:50:28Z</time>
      </trkpt>
      <trkpt lat="39.3110570" lon="-0.7526030">
        <ele>438.0</ele>
        <time>2018-09-16T07:50:29Z</time>
      </trkpt>
      <trkpt lat="39.3110320" lon="-0.7525930">
        <ele>438.0</ele>
        <time>2018-09-16T07:50:30Z</time>
      </trkpt>
      <trkpt lat="39.3110320" lon="-0.7525930">
        <ele>439.0</ele>
        <time>2018-09-16T07:50:31Z</time>
      </trkpt>
      <trkpt lat="39.3109850" lon="-0.7525570">
        <ele>439.0</ele>
        <time>2018-09-16T07:50:32Z</time>
      </trkpt>
      <trkpt lat="39.3109570" lon="-0.7525330">
        <ele>439.0</ele>
        <time>2018-09-16T07:50:33Z</time>
      </trkpt>
      <trkpt lat="39.3109570" lon="-0.7525330">
        <ele>439.0</ele>
        <time>2018-09-16T07:50:34Z</time>
      </trkpt>
      <trkpt lat="39.3109070" lon="-0.7524850">
        <ele>439.0</ele>
        <time>2018-09-16T07:50:35Z</time>
      </trkpt>
      <trkpt lat="39.3108830" lon="-0.7524520">
        <ele>439.0</ele>
        <time>2018-09-16T07:50:36Z</time>
      </trkpt>
      <trkpt lat="39.3108830" lon="-0.7524520">
        <ele>439.0</ele>
        <time>2018-09-16T07:50:37Z</time>
      </trkpt>
      <trkpt lat="39.3108330" lon="-0.7523730">
        <ele>439.0</ele>
        <time>2018-09-16T07:50:38Z</time>
      </trkpt>
      <trkpt lat="39.3108330" lon="-0.7523730">
        <ele>440.0</ele>
        <time>2018-09-16T07:50:39Z</time>
      </trkpt>
      <trkpt lat="39.3107970" lon="-0.7522920">
        <ele>440.0</ele>
        <time>2018-09-16T07:50:40Z</time>
      </trkpt>
      <trkpt lat="39.3107780" lon="-0.7522500">
        <ele>440.0</ele>
        <time>2018-09-16T07:50:41Z</time>
      </trkpt>
      <trkpt lat="39.3107550" lon="-0.7522120">
        <ele>440.0</ele>
        <time>2018-09-16T07:50:42Z</time>
      </trkpt>
      <trkpt lat="39.3107550" lon="-0.7522120">
        <ele>440.0</ele>
        <time>2018-09-16T07:50:43Z</time>
      </trkpt>
      <trkpt lat="39.3107020" lon="-0.7521380">
        <ele>440.0</ele>
        <time>2018-09-16T07:50:44Z</time>
      </trkpt>
      <trkpt lat="39.3107020" lon="-0.7521380">
        <ele>440.0</ele>
        <time>2018-09-16T07:50:45Z</time>
      </trkpt>
      <trkpt lat="39.3106470" lon="-0.7520730">
        <ele>440.0</ele>
        <time>2018-09-16T07:50:46Z</time>
      </trkpt>
      <trkpt lat="39.3106470" lon="-0.7520730">
        <ele>440.0</ele>
        <time>2018-09-16T07:50:47Z</time>
      </trkpt>
      <trkpt lat="39.3106050" lon="-0.7520100">
        <ele>440.0</ele>
        <time>2018-09-16T07:50:48Z</time>
      </trkpt>
      <trkpt lat="39.3106050" lon="-0.7520100">
        <ele>440.0</ele>
        <time>2018-09-16T07:50:49Z</time>
      </trkpt>
      <trkpt lat="39.3105720" lon="-0.7519450">
        <ele>440.0</ele>
        <time>2018-09-16T07:50:50Z</time>
      </trkpt>
      <trkpt lat="39.3105580" lon="-0.7519150">
        <ele>440.0</ele>
        <time>2018-09-16T07:50:51Z</time>
      </trkpt>
      <trkpt lat="39.3105580" lon="-0.7519150">
        <ele>440.0</ele>
        <time>2018-09-16T07:50:52Z</time>
      </trkpt>
      <trkpt lat="39.3105270" lon="-0.7518580">
        <ele>440.0</ele>
        <time>2018-09-16T07:50:53Z</time>
      </trkpt>
      <trkpt lat="39.3105100" lon="-0.7518300">
        <ele>441.0</ele>
        <time>2018-09-16T07:50:54Z</time>
      </trkpt>
      <trkpt lat="39.3105100" lon="-0.7518300">
        <ele>441.0</ele>
        <time>2018-09-16T07:50:55Z</time>
      </trkpt>
      <trkpt lat="39.3104750" lon="-0.7517730">
        <ele>441.0</ele>
        <time>2018-09-16T07:50:56Z</time>
      </trkpt>
      <trkpt lat="39.3104750" lon="-0.7517730">
        <ele>441.0</ele>
        <time>2018-09-16T07:50:57Z</time>
      </trkpt>
      <trkpt lat="39.3104480" lon="-0.7517220">
        <ele>442.0</ele>
        <time>2018-09-16T07:50:58Z</time>
      </trkpt>
      <trkpt lat="39.3104480" lon="-0.7517220">
        <ele>442.0</ele>
        <time>2018-09-16T07:50:59Z</time>
      </trkpt>
      <trkpt lat="39.3104220" lon="-0.7516630">
        <ele>442.0</ele>
        <time>2018-09-16T07:51:00Z</time>
      </trkpt>
      <trkpt lat="39.3104220" lon="-0.7516630">
        <ele>442.0</ele>
        <time>2018-09-16T07:51:01Z</time>
      </trkpt>
      <trkpt lat="39.3103920" lon="-0.7516020">
        <ele>443.0</ele>
        <time>2018-09-16T07:51:02Z</time>
      </trkpt>
      <trkpt lat="39.3103920" lon="-0.7516020">
        <ele>443.0</ele>
        <time>2018-09-16T07:51:03Z</time>
      </trkpt>
      <trkpt lat="39.3103670" lon="-0.7515380">
        <ele>443.0</ele>
        <time>2018-09-16T07:51:04Z</time>
      </trkpt>
      <trkpt lat="39.3103670" lon="-0.7515380">
        <ele>443.0</ele>
        <time>2018-09-16T07:51:05Z</time>
      </trkpt>
      <trkpt lat="39.3103400" lon="-0.7514720">
        <ele>443.0</ele>
        <time>2018-09-16T07:51:06Z</time>
      </trkpt>
      <trkpt lat="39.3103400" lon="-0.7514720">
        <ele>443.0</ele>
        <time>2018-09-16T07:51:07Z</time>
      </trkpt>
      <trkpt lat="39.3103130" lon="-0.7514020">
        <ele>443.0</ele>
        <time>2018-09-16T07:51:08Z</time>
      </trkpt>
      <trkpt lat="39.3103130" lon="-0.7514020">
        <ele>443.0</ele>
        <time>2018-09-16T07:51:09Z</time>
      </trkpt>
      <trkpt lat="39.3102830" lon="-0.7513420">
        <ele>443.0</ele>
        <time>2018-09-16T07:51:10Z</time>
      </trkpt>
      <trkpt lat="39.3102650" lon="-0.7513120">
        <ele>443.0</ele>
        <time>2018-09-16T07:51:11Z</time>
      </trkpt>
      <trkpt lat="39.3102650" lon="-0.7513120">
        <ele>443.0</ele>
        <time>2018-09-16T07:51:12Z</time>
      </trkpt>
      <trkpt lat="39.3102280" lon="-0.7512520">
        <ele>443.0</ele>
        <time>2018-09-16T07:51:13Z</time>
      </trkpt>
      <trkpt lat="39.3102080" lon="-0.7512250">
        <ele>443.0</ele>
        <time>2018-09-16T07:51:14Z</time>
      </trkpt>
      <trkpt lat="39.3102080" lon="-0.7512250">
        <ele>443.0</ele>
        <time>2018-09-16T07:51:15Z</time>
      </trkpt>
      <trkpt lat="39.3101670" lon="-0.7511620">
        <ele>443.0</ele>
        <time>2018-09-16T07:51:16Z</time>
      </trkpt>
      <trkpt lat="39.3101670" lon="-0.7511620">
        <ele>444.0</ele>
        <time>2018-09-16T07:51:17Z</time>
      </trkpt>
      <trkpt lat="39.3101230" lon="-0.7510950">
        <ele>444.0</ele>
        <time>2018-09-16T07:51:18Z</time>
      </trkpt>
      <trkpt lat="39.3101230" lon="-0.7510950">
        <ele>444.0</ele>
        <time>2018-09-16T07:51:19Z</time>
      </trkpt>
      <trkpt lat="39.3100920" lon="-0.7510380">
        <ele>444.0</ele>
        <time>2018-09-16T07:51:20Z</time>
      </trkpt>
      <trkpt lat="39.3100820" lon="-0.7510150">
        <ele>444.0</ele>
        <time>2018-09-16T07:51:21Z</time>
      </trkpt>
      <trkpt lat="39.3100820" lon="-0.7510150">
        <ele>444.0</ele>
        <time>2018-09-16T07:51:22Z</time>
      </trkpt>
      <trkpt lat="39.3100600" lon="-0.7509670">
        <ele>444.0</ele>
        <time>2018-09-16T07:51:23Z</time>
      </trkpt>
      <trkpt lat="39.3100500" lon="-0.7509430">
        <ele>444.0</ele>
        <time>2018-09-16T07:51:24Z</time>
      </trkpt>
      <trkpt lat="39.3100500" lon="-0.7509430">
        <ele>444.0</ele>
        <time>2018-09-16T07:51:25Z</time>
      </trkpt>
      <trkpt lat="39.3100410" lon="-0.7509240">
        <ele>444.0</ele>
        <time>2018-09-16T07:51:26Z</time>
      </trkpt>
      <trkpt lat="39.3100400" lon="-0.7509200">
        <ele>444.0</ele>
        <time>2018-09-16T07:51:27Z</time>
      </trkpt>
      <trkpt lat="39.3100390" lon="-0.7509170">
        <ele>444.0</ele>
        <time>2018-09-16T07:51:28Z</time>
      </trkpt>
      <trkpt lat="39.3100380" lon="-0.7509140">
        <ele>443.0</ele>
        <time>2018-09-16T07:51:29Z</time>
      </trkpt>
      <trkpt lat="39.3100370" lon="-0.7509110">
        <ele>443.0</ele>
        <time>2018-09-16T07:51:30Z</time>
      </trkpt>
      <trkpt lat="39.3100360" lon="-0.7509070">
        <ele>443.0</ele>
        <time>2018-09-16T07:51:31Z</time>
      </trkpt>
      <trkpt lat="39.3100350" lon="-0.7509040">
        <ele>443.0</ele>
        <time>2018-09-16T07:51:32Z</time>
      </trkpt>
      <trkpt lat="39.3100340" lon="-0.7509010">
        <ele>443.0</ele>
        <time>2018-09-16T07:51:33Z</time>
      </trkpt>
      <trkpt lat="39.3100330" lon="-0.7508970">
        <ele>443.0</ele>
        <time>2018-09-16T07:51:34Z</time>
      </trkpt>
      <trkpt lat="39.3100310" lon="-0.7508940">
        <ele>443.0</ele>
        <time>2018-09-16T07:51:35Z</time>
      </trkpt>
      <trkpt lat="39.3100300" lon="-0.7508910">
        <ele>443.0</ele>
        <time>2018-09-16T07:51:36Z</time>
      </trkpt>
      <trkpt lat="39.3100290" lon="-0.7508880">
        <ele>443.0</ele>
        <time>2018-09-16T07:51:37Z</time>
      </trkpt>
      <trkpt lat="39.3100280" lon="-0.7508840">
        <ele>442.0</ele>
        <time>2018-09-16T07:52:12Z</time>
      </trkpt>
      <trkpt lat="39.3100270" lon="-0.7508810">
        <ele>442.0</ele>
        <time>2018-09-16T07:52:13Z</time>
      </trkpt>
      <trkpt lat="39.3100260" lon="-0.7508780">
        <ele>442.0</ele>
        <time>2018-09-16T07:52:14Z</time>
      </trkpt>
      <trkpt lat="39.3100250" lon="-0.7508750">
        <ele>442.0</ele>
        <time>2018-09-16T07:52:15Z</time>
      </trkpt>
      <trkpt lat="39.3100240" lon="-0.7508710">
        <ele>442.0</ele>
        <time>2018-09-16T07:52:16Z</time>
      </trkpt>
      <trkpt lat="39.3100230" lon="-0.7508680">
        <ele>443.0</ele>
        <time>2018-09-16T07:52:17Z</time>
      </trkpt>
      <trkpt lat="39.3100150" lon="-0.7508300">
        <ele>443.0</ele>
        <time>2018-09-16T07:52:18Z</time>
      </trkpt>
      <trkpt lat="39.3100070" lon="-0.7507930">
        <ele>443.0</ele>
        <time>2018-09-16T07:52:19Z</time>
      </trkpt>
      <trkpt lat="39.3100050" lon="-0.7507650">
        <ele>443.0</ele>
        <time>2018-09-16T07:52:20Z</time>
      </trkpt>
      <trkpt lat="39.3100020" lon="-0.7507370">
        <ele>443.0</ele>
        <time>2018-09-16T07:52:21Z</time>
      </trkpt>
      <trkpt lat="39.3099970" lon="-0.7506820">
        <ele>443.0</ele>
        <time>2018-09-16T07:52:22Z</time>
      </trkpt>
      <trkpt lat="39.3099720" lon="-0.7505470">
        <ele>442.0</ele>
        <time>2018-09-16T07:52:23Z</time>
      </trkpt>
      <trkpt lat="39.3099570" lon="-0.7504770">
        <ele>442.0</ele>
        <time>2018-09-16T07:52:24Z</time>
      </trkpt>
      <trkpt lat="39.3099470" lon="-0.7504020">
        <ele>442.0</ele>
        <time>2018-09-16T07:52:25Z</time>
      </trkpt>
      <trkpt lat="39.3099270" lon="-0.7502530">
        <ele>442.0</ele>
        <time>2018-09-16T07:52:26Z</time>
      </trkpt>
      <trkpt lat="39.3099270" lon="-0.7502530">
        <ele>441.0</ele>
        <time>2018-09-16T07:52:27Z</time>
      </trkpt>
      <trkpt lat="39.3099270" lon="-0.7502530">
        <ele>441.0</ele>
        <time>2018-09-16T07:52:28Z</time>
      </trkpt>
      <trkpt lat="39.3098830" lon="-0.7501080">
        <ele>440.0</ele>
        <time>2018-09-16T07:52:29Z</time>
      </trkpt>
      <trkpt lat="39.3098830" lon="-0.7501080">
        <ele>440.0</ele>
        <time>2018-09-16T07:52:30Z</time>
      </trkpt>
      <trkpt lat="39.3098120" lon="-0.7499830">
        <ele>439.0</ele>
        <time>2018-09-16T07:52:31Z</time>
      </trkpt>
      <trkpt lat="39.3098120" lon="-0.7499830">
        <ele>439.0</ele>
        <time>2018-09-16T07:52:32Z</time>
      </trkpt>
      <trkpt lat="39.3097320" lon="-0.7498980">
        <ele>438.0</ele>
        <time>2018-09-16T07:52:33Z</time>
      </trkpt>
      <trkpt lat="39.3097320" lon="-0.7498980">
        <ele>438.0</ele>
        <time>2018-09-16T07:52:34Z</time>
      </trkpt>
      <trkpt lat="39.3096000" lon="-0.7497580">
        <ele>437.0</ele>
        <time>2018-09-16T07:52:35Z</time>
      </trkpt>
      <trkpt lat="39.3096000" lon="-0.7497580">
        <ele>437.0</ele>
        <time>2018-09-16T07:52:36Z</time>
      </trkpt>
      <trkpt lat="39.3096000" lon="-0.7497580">
        <ele>436.0</ele>
        <time>2018-09-16T07:52:37Z</time>
      </trkpt>
      <trkpt lat="39.3095320" lon="-0.7496280">
        <ele>436.0</ele>
        <time>2018-09-16T07:52:38Z</time>
      </trkpt>
      <trkpt lat="39.3094720" lon="-0.7494780">
        <ele>435.0</ele>
        <time>2018-09-16T07:52:39Z</time>
      </trkpt>
      <trkpt lat="39.3094450" lon="-0.7493980">
        <ele>435.0</ele>
        <time>2018-09-16T07:52:40Z</time>
      </trkpt>
      <trkpt lat="39.3094450" lon="-0.7493980">
        <ele>434.0</ele>
        <time>2018-09-16T07:52:41Z</time>
      </trkpt>
      <trkpt lat="39.3094450" lon="-0.7493980">
        <ele>434.0</ele>
        <time>2018-09-16T07:52:42Z</time>
      </trkpt>
      <trkpt lat="39.3093770" lon="-0.7492380">
        <ele>432.0</ele>
        <time>2018-09-16T07:52:43Z</time>
      </trkpt>
      <trkpt lat="39.3093770" lon="-0.7492380">
        <ele>432.0</ele>
        <time>2018-09-16T07:52:44Z</time>
      </trkpt>
      <trkpt lat="39.3092820" lon="-0.7490920">
        <ele>432.0</ele>
        <time>2018-09-16T07:52:45Z</time>
      </trkpt>
      <trkpt lat="39.3092820" lon="-0.7490920">
        <ele>430.0</ele>
        <time>2018-09-16T07:52:46Z</time>
      </trkpt>
      <trkpt lat="39.3091730" lon="-0.7489600">
        <ele>430.0</ele>
        <time>2018-09-16T07:52:47Z</time>
      </trkpt>
      <trkpt lat="39.3091730" lon="-0.7489600">
        <ele>430.0</ele>
        <time>2018-09-16T07:52:48Z</time>
      </trkpt>
      <trkpt lat="39.3091020" lon="-0.7488150">
        <ele>430.0</ele>
        <time>2018-09-16T07:52:49Z</time>
      </trkpt>
      <trkpt lat="39.3090830" lon="-0.7487450">
        <ele>428.0</ele>
        <time>2018-09-16T07:52:50Z</time>
      </trkpt>
      <trkpt lat="39.3090830" lon="-0.7487450">
        <ele>428.0</ele>
        <time>2018-09-16T07:52:51Z</time>
      </trkpt>
      <trkpt lat="39.3090580" lon="-0.7485900">
        <ele>427.0</ele>
        <time>2018-09-16T07:52:52Z</time>
      </trkpt>
      <trkpt lat="39.3090580" lon="-0.7485900">
        <ele>427.0</ele>
        <time>2018-09-16T07:52:53Z</time>
      </trkpt>
      <trkpt lat="39.3090270" lon="-0.7484230">
        <ele>425.0</ele>
        <time>2018-09-16T07:52:54Z</time>
      </trkpt>
      <trkpt lat="39.3090270" lon="-0.7484230">
        <ele>425.0</ele>
        <time>2018-09-16T07:52:55Z</time>
      </trkpt>
      <trkpt lat="39.3089700" lon="-0.7482650">
        <ele>424.0</ele>
        <time>2018-09-16T07:52:56Z</time>
      </trkpt>
      <trkpt lat="39.3089700" lon="-0.7482650">
        <ele>424.0</ele>
        <time>2018-09-16T07:52:57Z</time>
      </trkpt>
      <trkpt lat="39.3088780" lon="-0.7481370">
        <ele>423.0</ele>
        <time>2018-09-16T07:52:58Z</time>
      </trkpt>
      <trkpt lat="39.3088380" lon="-0.7480680">
        <ele>423.0</ele>
        <time>2018-09-16T07:52:59Z</time>
      </trkpt>
      <trkpt lat="39.3088380" lon="-0.7480680">
        <ele>423.0</ele>
        <time>2018-09-16T07:53:00Z</time>
      </trkpt>
      <trkpt lat="39.3088030" lon="-0.7479000">
        <ele>423.0</ele>
        <time>2018-09-16T07:53:01Z</time>
      </trkpt>
      <trkpt lat="39.3088030" lon="-0.7479000">
        <ele>421.0</ele>
        <time>2018-09-16T07:53:02Z</time>
      </trkpt>
      <trkpt lat="39.3087600" lon="-0.7476380">
        <ele>421.0</ele>
        <time>2018-09-16T07:53:03Z</time>
      </trkpt>
      <trkpt lat="39.3087600" lon="-0.7476380">
        <ele>420.0</ele>
        <time>2018-09-16T07:53:04Z</time>
      </trkpt>
      <trkpt lat="39.3087480" lon="-0.7474580">
        <ele>420.0</ele>
        <time>2018-09-16T07:53:05Z</time>
      </trkpt>
      <trkpt lat="39.3087480" lon="-0.7473670">
        <ele>419.0</ele>
        <time>2018-09-16T07:53:06Z</time>
      </trkpt>
      <trkpt lat="39.3087480" lon="-0.7473670">
        <ele>419.0</ele>
        <time>2018-09-16T07:53:07Z</time>
      </trkpt>
      <trkpt lat="39.3087480" lon="-0.7473670">
        <ele>419.0</ele>
        <time>2018-09-16T07:53:08Z</time>
      </trkpt>
      <trkpt lat="39.3087530" lon="-0.7471800">
        <ele>419.0</ele>
        <time>2018-09-16T07:53:09Z</time>
      </trkpt>
      <trkpt lat="39.3087470" lon="-0.7469930">
        <ele>418.0</ele>
        <time>2018-09-16T07:53:10Z</time>
      </trkpt>
      <trkpt lat="39.3087470" lon="-0.7469930">
        <ele>416.0</ele>
        <time>2018-09-16T07:53:11Z</time>
      </trkpt>
      <trkpt lat="39.3087250" lon="-0.7468030">
        <ele>416.0</ele>
        <time>2018-09-16T07:53:12Z</time>
      </trkpt>
      <trkpt lat="39.3087250" lon="-0.7468030">
        <ele>416.0</ele>
        <time>2018-09-16T07:53:13Z</time>
      </trkpt>
      <trkpt lat="39.3087600" lon="-0.7466370">
        <ele>416.0</ele>
        <time>2018-09-16T07:53:14Z</time>
      </trkpt>
      <trkpt lat="39.3087600" lon="-0.7466370">
        <ele>416.0</ele>
        <time>2018-09-16T07:53:15Z</time>
      </trkpt>
      <trkpt lat="39.3087600" lon="-0.7466370">
        <ele>416.0</ele>
        <time>2018-09-16T07:53:16Z</time>
      </trkpt>
      <trkpt lat="39.3088430" lon="-0.7464730">
        <ele>416.0</ele>
        <time>2018-09-16T07:53:17Z</time>
      </trkpt>
      <trkpt lat="39.3088880" lon="-0.7463950">
        <ele>416.0</ele>
        <time>2018-09-16T07:53:18Z</time>
      </trkpt>
      <trkpt lat="39.3089800" lon="-0.7462370">
        <ele>414.0</ele>
        <time>2018-09-16T07:53:19Z</time>
      </trkpt>
      <trkpt lat="39.3089800" lon="-0.7462370">
        <ele>414.0</ele>
        <time>2018-09-16T07:53:20Z</time>
      </trkpt>
      <trkpt lat="39.3090580" lon="-0.7460500">
        <ele>413.0</ele>
        <time>2018-09-16T07:53:21Z</time>
      </trkpt>
      <trkpt lat="39.3090580" lon="-0.7460500">
        <ele>413.0</ele>
        <time>2018-09-16T07:53:22Z</time>
      </trkpt>
      <trkpt lat="39.3090580" lon="-0.7460500">
        <ele>413.0</ele>
        <time>2018-09-16T07:53:23Z</time>
      </trkpt>
      <trkpt lat="39.3092030" lon="-0.7457720">
        <ele>413.0</ele>
        <time>2018-09-16T07:53:24Z</time>
      </trkpt>
      <trkpt lat="39.3092030" lon="-0.7457720">
        <ele>410.0</ele>
        <time>2018-09-16T07:53:25Z</time>
      </trkpt>
      <trkpt lat="39.3092030" lon="-0.7457720">
        <ele>410.0</ele>
        <time>2018-09-16T07:53:26Z</time>
      </trkpt>
      <trkpt lat="39.3092770" lon="-0.7455750">
        <ele>409.0</ele>
        <time>2018-09-16T07:53:27Z</time>
      </trkpt>
      <trkpt lat="39.3092770" lon="-0.7455750">
        <ele>409.0</ele>
        <time>2018-09-16T07:53:28Z</time>
      </trkpt>
      <trkpt lat="39.3093380" lon="-0.7454170">
        <ele>408.0</ele>
        <time>2018-09-16T07:53:29Z</time>
      </trkpt>
      <trkpt lat="39.3093380" lon="-0.7454170">
        <ele>408.0</ele>
        <time>2018-09-16T07:53:30Z</time>
      </trkpt>
      <trkpt lat="39.3094150" lon="-0.7452900">
        <ele>406.0</ele>
        <time>2018-09-16T07:53:31Z</time>
      </trkpt>
      <trkpt lat="39.3095150" lon="-0.7451700">
        <ele>406.0</ele>
        <time>2018-09-16T07:53:32Z</time>
      </trkpt>
      <trkpt lat="39.3095770" lon="-0.7451270">
        <ele>404.0</ele>
        <time>2018-09-16T07:53:33Z</time>
      </trkpt>
      <trkpt lat="39.3095770" lon="-0.7451270">
        <ele>404.0</ele>
        <time>2018-09-16T07:53:34Z</time>
      </trkpt>
      <trkpt lat="39.3095770" lon="-0.7451270">
        <ele>402.0</ele>
        <time>2018-09-16T07:53:35Z</time>
      </trkpt>
      <trkpt lat="39.3097230" lon="-0.7450770">
        <ele>402.0</ele>
        <time>2018-09-16T07:53:36Z</time>
      </trkpt>
      <trkpt lat="39.3098030" lon="-0.7450630">
        <ele>400.0</ele>
        <time>2018-09-16T07:53:37Z</time>
      </trkpt>
      <trkpt lat="39.3098030" lon="-0.7450630">
        <ele>398.0</ele>
        <time>2018-09-16T07:53:38Z</time>
      </trkpt>
      <trkpt lat="39.3099520" lon="-0.7450200">
        <ele>398.0</ele>
        <time>2018-09-16T07:53:39Z</time>
      </trkpt>
      <trkpt lat="39.3100730" lon="-0.7449170">
        <ele>397.0</ele>
        <time>2018-09-16T07:53:40Z</time>
      </trkpt>
      <trkpt lat="39.3100730" lon="-0.7449170">
        <ele>397.0</ele>
        <time>2018-09-16T07:53:41Z</time>
      </trkpt>
      <trkpt lat="39.3100730" lon="-0.7449170">
        <ele>397.0</ele>
        <time>2018-09-16T07:53:42Z</time>
      </trkpt>
      <trkpt lat="39.3101750" lon="-0.7448470">
        <ele>397.0</ele>
        <time>2018-09-16T07:53:43Z</time>
      </trkpt>
      <trkpt lat="39.3101750" lon="-0.7448470">
        <ele>397.0</ele>
        <time>2018-09-16T07:53:44Z</time>
      </trkpt>
      <trkpt lat="39.3102570" lon="-0.7447950">
        <ele>397.0</ele>
        <time>2018-09-16T07:53:45Z</time>
      </trkpt>
      <trkpt lat="39.3102870" lon="-0.7447700">
        <ele>397.0</ele>
        <time>2018-09-16T07:53:46Z</time>
      </trkpt>
      <trkpt lat="39.3103350" lon="-0.7447020">
        <ele>397.0</ele>
        <time>2018-09-16T07:53:47Z</time>
      </trkpt>
      <trkpt lat="39.3103350" lon="-0.7447020">
        <ele>397.0</ele>
        <time>2018-09-16T07:53:48Z</time>
      </trkpt>
      <trkpt lat="39.3103470" lon="-0.7446530">
        <ele>397.0</ele>
        <time>2018-09-16T07:53:49Z</time>
      </trkpt>
      <trkpt lat="39.3103470" lon="-0.7446530">
        <ele>398.0</ele>
        <time>2018-09-16T07:53:50Z</time>
      </trkpt>
      <trkpt lat="39.3103430" lon="-0.7445330">
        <ele>398.0</ele>
        <time>2018-09-16T07:53:51Z</time>
      </trkpt>
      <trkpt lat="39.3103430" lon="-0.7445330">
        <ele>398.0</ele>
        <time>2018-09-16T07:53:52Z</time>
      </trkpt>
      <trkpt lat="39.3103270" lon="-0.7443630">
        <ele>398.0</ele>
        <time>2018-09-16T07:53:53Z</time>
      </trkpt>
      <trkpt lat="39.3103270" lon="-0.7443630">
        <ele>398.0</ele>
        <time>2018-09-16T07:53:54Z</time>
      </trkpt>
      <trkpt lat="39.3103170" lon="-0.7443000">
        <ele>398.0</ele>
        <time>2018-09-16T07:53:55Z</time>
      </trkpt>
      <trkpt lat="39.3103170" lon="-0.7443000">
        <ele>398.0</ele>
        <time>2018-09-16T07:53:56Z</time>
      </trkpt>
      <trkpt lat="39.3102820" lon="-0.7441630">
        <ele>397.0</ele>
        <time>2018-09-16T07:53:57Z</time>
      </trkpt>
      <trkpt lat="39.3102820" lon="-0.7441630">
        <ele>397.0</ele>
        <time>2018-09-16T07:53:58Z</time>
      </trkpt>
      <trkpt lat="39.3102420" lon="-0.7440150">
        <ele>396.0</ele>
        <time>2018-09-16T07:53:59Z</time>
      </trkpt>
      <trkpt lat="39.3102420" lon="-0.7440150">
        <ele>396.0</ele>
        <time>2018-09-16T07:54:00Z</time>
      </trkpt>
      <trkpt lat="39.3102120" lon="-0.7438630">
        <ele>396.0</ele>
        <time>2018-09-16T07:54:01Z</time>
      </trkpt>
      <trkpt lat="39.3102120" lon="-0.7438630">
        <ele>396.0</ele>
        <time>2018-09-16T07:54:02Z</time>
      </trkpt>
      <trkpt lat="39.3101920" lon="-0.7437070">
        <ele>396.0</ele>
        <time>2018-09-16T07:54:03Z</time>
      </trkpt>
      <trkpt lat="39.3101920" lon="-0.7437070">
        <ele>395.0</ele>
        <time>2018-09-16T07:54:04Z</time>
      </trkpt>
      <trkpt lat="39.3102080" lon="-0.7435330">
        <ele>395.0</ele>
        <time>2018-09-16T07:54:05Z</time>
      </trkpt>
      <trkpt lat="39.3102470" lon="-0.7433630">
        <ele>393.0</ele>
        <time>2018-09-16T07:54:06Z</time>
      </trkpt>
      <trkpt lat="39.3102470" lon="-0.7433630">
        <ele>393.0</ele>
        <time>2018-09-16T07:54:07Z</time>
      </trkpt>
      <trkpt lat="39.3103200" lon="-0.7432150">
        <ele>392.0</ele>
        <time>2018-09-16T07:54:08Z</time>
      </trkpt>
      <trkpt lat="39.3103760" lon="-0.7431500">
        <ele>392.0</ele>
        <time>2018-09-16T07:54:09Z</time>
      </trkpt>
      <trkpt lat="39.3104320" lon="-0.7430850">
        <ele>391.0</ele>
        <time>2018-09-16T07:54:10Z</time>
      </trkpt>
      <trkpt lat="39.3104320" lon="-0.7430850">
        <ele>391.0</ele>
        <time>2018-09-16T07:54:11Z</time>
      </trkpt>
      <trkpt lat="39.3105620" lon="-0.7429520">
        <ele>390.0</ele>
        <time>2018-09-16T07:54:12Z</time>
      </trkpt>
      <trkpt lat="39.3105620" lon="-0.7429520">
        <ele>390.0</ele>
        <time>2018-09-16T07:54:13Z</time>
      </trkpt>
      <trkpt lat="39.3105620" lon="-0.7429520">
        <ele>389.0</ele>
        <time>2018-09-16T07:54:14Z</time>
      </trkpt>
      <trkpt lat="39.3106880" lon="-0.7428200">
        <ele>389.0</ele>
        <time>2018-09-16T07:54:15Z</time>
      </trkpt>
      <trkpt lat="39.3107980" lon="-0.7426700">
        <ele>389.0</ele>
        <time>2018-09-16T07:54:16Z</time>
      </trkpt>
      <trkpt lat="39.3107980" lon="-0.7426700">
        <ele>389.0</ele>
        <time>2018-09-16T07:54:17Z</time>
      </trkpt>
      <trkpt lat="39.3109120" lon="-0.7425300">
        <ele>388.0</ele>
        <time>2018-09-16T07:54:18Z</time>
      </trkpt>
      <trkpt lat="39.3109120" lon="-0.7425300">
        <ele>388.0</ele>
        <time>2018-09-16T07:54:19Z</time>
      </trkpt>
      <trkpt lat="39.3110400" lon="-0.7424130">
        <ele>387.0</ele>
        <time>2018-09-16T07:54:20Z</time>
      </trkpt>
      <trkpt lat="39.3110400" lon="-0.7424130">
        <ele>387.0</ele>
        <time>2018-09-16T07:54:21Z</time>
      </trkpt>
      <trkpt lat="39.3110400" lon="-0.7424130">
        <ele>386.0</ele>
        <time>2018-09-16T07:54:22Z</time>
      </trkpt>
      <trkpt lat="39.3111800" lon="-0.7423050">
        <ele>386.0</ele>
        <time>2018-09-16T07:54:23Z</time>
      </trkpt>
      <trkpt lat="39.3112500" lon="-0.7422550">
        <ele>386.0</ele>
        <time>2018-09-16T07:54:24Z</time>
      </trkpt>
      <trkpt lat="39.3113120" lon="-0.7422070">
        <ele>386.0</ele>
        <time>2018-09-16T07:54:25Z</time>
      </trkpt>
      <trkpt lat="39.3113120" lon="-0.7422070">
        <ele>386.0</ele>
        <time>2018-09-16T07:54:26Z</time>
      </trkpt>
      <trkpt lat="39.3113800" lon="-0.7420970">
        <ele>385.0</ele>
        <time>2018-09-16T07:54:27Z</time>
      </trkpt>
      <trkpt lat="39.3113670" lon="-0.7419670">
        <ele>385.0</ele>
        <time>2018-09-16T07:54:28Z</time>
      </trkpt>
      <trkpt lat="39.3113670" lon="-0.7419670">
        <ele>383.0</ele>
        <time>2018-09-16T07:54:29Z</time>
      </trkpt>
      <trkpt lat="39.3113670" lon="-0.7419670">
        <ele>383.0</ele>
        <time>2018-09-16T07:54:30Z</time>
      </trkpt>
      <trkpt lat="39.3113170" lon="-0.7418270">
        <ele>383.0</ele>
        <time>2018-09-16T07:54:31Z</time>
      </trkpt>
      <trkpt lat="39.3113170" lon="-0.7418270">
        <ele>383.0</ele>
        <time>2018-09-16T07:54:32Z</time>
      </trkpt>
      <trkpt lat="39.3112680" lon="-0.7416650">
        <ele>383.0</ele>
        <time>2018-09-16T07:54:33Z</time>
      </trkpt>
      <trkpt lat="39.3112070" lon="-0.7415170">
        <ele>383.0</ele>
        <time>2018-09-16T07:54:34Z</time>
      </trkpt>
      <trkpt lat="39.3112070" lon="-0.7415170">
        <ele>383.0</ele>
        <time>2018-09-16T07:54:35Z</time>
      </trkpt>
      <trkpt lat="39.3111730" lon="-0.7414470">
        <ele>383.0</ele>
        <time>2018-09-16T07:54:36Z</time>
      </trkpt>
      <trkpt lat="39.3111730" lon="-0.7414470">
        <ele>383.0</ele>
        <time>2018-09-16T07:54:37Z</time>
      </trkpt>
      <trkpt lat="39.3111180" lon="-0.7412920">
        <ele>383.0</ele>
        <time>2018-09-16T07:54:38Z</time>
      </trkpt>
      <trkpt lat="39.3110950" lon="-0.7412030">
        <ele>383.0</ele>
        <time>2018-09-16T07:54:39Z</time>
      </trkpt>
      <trkpt lat="39.3110950" lon="-0.7412030">
        <ele>381.0</ele>
        <time>2018-09-16T07:54:40Z</time>
      </trkpt>
      <trkpt lat="39.3110370" lon="-0.7410220">
        <ele>381.0</ele>
        <time>2018-09-16T07:54:41Z</time>
      </trkpt>
      <trkpt lat="39.3109770" lon="-0.7408370">
        <ele>381.0</ele>
        <time>2018-09-16T07:54:42Z</time>
      </trkpt>
      <trkpt lat="39.3109770" lon="-0.7408370">
        <ele>381.0</ele>
        <time>2018-09-16T07:54:43Z</time>
      </trkpt>
      <trkpt lat="39.3109500" lon="-0.7406470">
        <ele>381.0</ele>
        <time>2018-09-16T07:54:44Z</time>
      </trkpt>
      <trkpt lat="39.3109500" lon="-0.7406470">
        <ele>381.0</ele>
        <time>2018-09-16T07:54:45Z</time>
      </trkpt>
      <trkpt lat="39.3109500" lon="-0.7406470">
        <ele>381.0</ele>
        <time>2018-09-16T07:54:46Z</time>
      </trkpt>
      <trkpt lat="39.3109700" lon="-0.7404630">
        <ele>381.0</ele>
        <time>2018-09-16T07:54:47Z</time>
      </trkpt>
      <trkpt lat="39.3109700" lon="-0.7404630">
        <ele>379.0</ele>
        <time>2018-09-16T07:54:48Z</time>
      </trkpt>
      <trkpt lat="39.3110200" lon="-0.7402730">
        <ele>379.0</ele>
        <time>2018-09-16T07:54:49Z</time>
      </trkpt>
      <trkpt lat="39.3110200" lon="-0.7402730">
        <ele>378.0</ele>
        <time>2018-09-16T07:54:50Z</time>
      </trkpt>
      <trkpt lat="39.3110680" lon="-0.7400820">
        <ele>378.0</ele>
        <time>2018-09-16T07:54:51Z</time>
      </trkpt>
      <trkpt lat="39.3110680" lon="-0.7400820">
        <ele>378.0</ele>
        <time>2018-09-16T07:54:52Z</time>
      </trkpt>
      <trkpt lat="39.3110600" lon="-0.7399170">
        <ele>378.0</ele>
        <time>2018-09-16T07:54:53Z</time>
      </trkpt>
      <trkpt lat="39.3110280" lon="-0.7398370">
        <ele>377.0</ele>
        <time>2018-09-16T07:54:54Z</time>
      </trkpt>
      <trkpt lat="39.3110280" lon="-0.7398370">
        <ele>377.0</ele>
        <time>2018-09-16T07:54:55Z</time>
      </trkpt>
      <trkpt lat="39.3109630" lon="-0.7396630">
        <ele>377.0</ele>
        <time>2018-09-16T07:54:56Z</time>
      </trkpt>
      <trkpt lat="39.3109250" lon="-0.7395800">
        <ele>377.0</ele>
        <time>2018-09-16T07:54:57Z</time>
      </trkpt>
      <trkpt lat="39.3108300" lon="-0.7394670">
        <ele>376.0</ele>
        <time>2018-09-16T07:54:58Z</time>
      </trkpt>
      <trkpt lat="39.3108300" lon="-0.7394670">
        <ele>375.0</ele>
        <time>2018-09-16T07:54:59Z</time>
      </trkpt>
      <trkpt lat="39.3108300" lon="-0.7394670">
        <ele>375.0</ele>
        <time>2018-09-16T07:55:00Z</time>
      </trkpt>
      <trkpt lat="39.3107080" lon="-0.7394080">
        <ele>374.0</ele>
        <time>2018-09-16T07:55:01Z</time>
      </trkpt>
      <trkpt lat="39.3107080" lon="-0.7394080">
        <ele>374.0</ele>
        <time>2018-09-16T07:55:02Z</time>
      </trkpt>
      <trkpt lat="39.3105730" lon="-0.7393650">
        <ele>373.0</ele>
        <time>2018-09-16T07:55:03Z</time>
      </trkpt>
      <trkpt lat="39.3104400" lon="-0.7393500">
        <ele>373.0</ele>
        <time>2018-09-16T07:55:04Z</time>
      </trkpt>
      <trkpt lat="39.3104400" lon="-0.7393500">
        <ele>373.0</ele>
        <time>2018-09-16T07:55:05Z</time>
      </trkpt>
      <trkpt lat="39.3103800" lon="-0.7393600">
        <ele>373.0</ele>
        <time>2018-09-16T07:55:06Z</time>
      </trkpt>
      <trkpt lat="39.3103230" lon="-0.7393780">
        <ele>373.0</ele>
        <time>2018-09-16T07:55:07Z</time>
      </trkpt>
      <trkpt lat="39.3103230" lon="-0.7393780">
        <ele>373.0</ele>
        <time>2018-09-16T07:55:08Z</time>
      </trkpt>
      <trkpt lat="39.3102150" lon="-0.7394150">
        <ele>373.0</ele>
        <time>2018-09-16T07:55:09Z</time>
      </trkpt>
      <trkpt lat="39.3102150" lon="-0.7394150">
        <ele>373.0</ele>
        <time>2018-09-16T07:55:10Z</time>
      </trkpt>
      <trkpt lat="39.3101200" lon="-0.7394570">
        <ele>373.0</ele>
        <time>2018-09-16T07:55:11Z</time>
      </trkpt>
      <trkpt lat="39.3101200" lon="-0.7394570">
        <ele>373.0</ele>
        <time>2018-09-16T07:55:12Z</time>
      </trkpt>
      <trkpt lat="39.3100200" lon="-0.7394930">
        <ele>373.0</ele>
        <time>2018-09-16T07:55:13Z</time>
      </trkpt>
      <trkpt lat="39.3100200" lon="-0.7394930">
        <ele>373.0</ele>
        <time>2018-09-16T07:55:14Z</time>
      </trkpt>
      <trkpt lat="39.3098750" lon="-0.7395050">
        <ele>373.0</ele>
        <time>2018-09-16T07:55:15Z</time>
      </trkpt>
      <trkpt lat="39.3098750" lon="-0.7395050">
        <ele>373.0</ele>
        <time>2018-09-16T07:55:16Z</time>
      </trkpt>
      <trkpt lat="39.3098750" lon="-0.7395050">
        <ele>373.0</ele>
        <time>2018-09-16T07:55:17Z</time>
      </trkpt>
      <trkpt lat="39.3097930" lon="-0.7394600">
        <ele>373.0</ele>
        <time>2018-09-16T07:55:18Z</time>
      </trkpt>
      <trkpt lat="39.3097600" lon="-0.7394270">
        <ele>373.0</ele>
        <time>2018-09-16T07:55:19Z</time>
      </trkpt>
      <trkpt lat="39.3097080" lon="-0.7393530">
        <ele>373.0</ele>
        <time>2018-09-16T07:55:20Z</time>
      </trkpt>
      <trkpt lat="39.3097080" lon="-0.7393530">
        <ele>373.0</ele>
        <time>2018-09-16T07:55:21Z</time>
      </trkpt>
      <trkpt lat="39.3097080" lon="-0.7393530">
        <ele>373.0</ele>
        <time>2018-09-16T07:55:22Z</time>
      </trkpt>
      <trkpt lat="39.3096570" lon="-0.7392930">
        <ele>373.0</ele>
        <time>2018-09-16T07:55:23Z</time>
      </trkpt>
      <trkpt lat="39.3096570" lon="-0.7392930">
        <ele>373.0</ele>
        <time>2018-09-16T07:55:24Z</time>
      </trkpt>
      <trkpt lat="39.3096080" lon="-0.7392280">
        <ele>373.0</ele>
        <time>2018-09-16T07:55:25Z</time>
      </trkpt>
      <trkpt lat="39.3096080" lon="-0.7392280">
        <ele>373.0</ele>
        <time>2018-09-16T07:55:26Z</time>
      </trkpt>
      <trkpt lat="39.3095420" lon="-0.7391550">
        <ele>372.0</ele>
        <time>2018-09-16T07:55:27Z</time>
      </trkpt>
      <trkpt lat="39.3094780" lon="-0.7390570">
        <ele>372.0</ele>
        <time>2018-09-16T07:55:28Z</time>
      </trkpt>
      <trkpt lat="39.3094780" lon="-0.7390570">
        <ele>372.0</ele>
        <time>2018-09-16T07:55:29Z</time>
      </trkpt>
      <trkpt lat="39.3094480" lon="-0.7390020">
        <ele>372.0</ele>
        <time>2018-09-16T07:55:30Z</time>
      </trkpt>
      <trkpt lat="39.3094180" lon="-0.7389380">
        <ele>372.0</ele>
        <time>2018-09-16T07:55:31Z</time>
      </trkpt>
      <trkpt lat="39.3093620" lon="-0.7387950">
        <ele>372.0</ele>
        <time>2018-09-16T07:55:32Z</time>
      </trkpt>
      <trkpt lat="39.3093620" lon="-0.7387950">
        <ele>370.0</ele>
        <time>2018-09-16T07:55:33Z</time>
      </trkpt>
      <trkpt lat="39.3093050" lon="-0.7386430">
        <ele>370.0</ele>
        <time>2018-09-16T07:55:34Z</time>
      </trkpt>
      <trkpt lat="39.3093050" lon="-0.7386430">
        <ele>369.0</ele>
        <time>2018-09-16T07:55:35Z</time>
      </trkpt>
      <trkpt lat="39.3092380" lon="-0.7384880">
        <ele>369.0</ele>
        <time>2018-09-16T07:55:36Z</time>
      </trkpt>
      <trkpt lat="39.3092380" lon="-0.7384880">
        <ele>369.0</ele>
        <time>2018-09-16T07:55:37Z</time>
      </trkpt>
      <trkpt lat="39.3092380" lon="-0.7384880">
        <ele>369.0</ele>
        <time>2018-09-16T07:55:38Z</time>
      </trkpt>
      <trkpt lat="39.3091620" lon="-0.7383370">
        <ele>368.0</ele>
        <time>2018-09-16T07:55:39Z</time>
      </trkpt>
      <trkpt lat="39.3091620" lon="-0.7383370">
        <ele>368.0</ele>
        <time>2018-09-16T07:55:40Z</time>
      </trkpt>
      <trkpt lat="39.3090800" lon="-0.7381870">
        <ele>368.0</ele>
        <time>2018-09-16T07:55:41Z</time>
      </trkpt>
      <trkpt lat="39.3090800" lon="-0.7381870">
        <ele>368.0</ele>
        <time>2018-09-16T07:55:42Z</time>
      </trkpt>
      <trkpt lat="39.3089950" lon="-0.7380380">
        <ele>367.0</ele>
        <time>2018-09-16T07:55:43Z</time>
      </trkpt>
      <trkpt lat="39.3089520" lon="-0.7379600">
        <ele>367.0</ele>
        <time>2018-09-16T07:55:44Z</time>
      </trkpt>
      <trkpt lat="39.3089520" lon="-0.7379600">
        <ele>365.0</ele>
        <time>2018-09-16T07:55:45Z</time>
      </trkpt>
      <trkpt lat="39.3088630" lon="-0.7378000">
        <ele>365.0</ele>
        <time>2018-09-16T07:55:46Z</time>
      </trkpt>
      <trkpt lat="39.3087770" lon="-0.7376320">
        <ele>365.0</ele>
        <time>2018-09-16T07:55:47Z</time>
      </trkpt>
      <trkpt lat="39.3087320" lon="-0.7375450">
        <ele>365.0</ele>
        <time>2018-09-16T07:55:48Z</time>
      </trkpt>
      <trkpt lat="39.3087320" lon="-0.7375450">
        <ele>364.0</ele>
        <time>2018-09-16T07:55:49Z</time>
      </trkpt>
      <trkpt lat="39.3086330" lon="-0.7373650">
        <ele>364.0</ele>
        <time>2018-09-16T07:55:50Z</time>
      </trkpt>
      <trkpt lat="39.3086330" lon="-0.7373650">
        <ele>364.0</ele>
        <time>2018-09-16T07:55:51Z</time>
      </trkpt>
      <trkpt lat="39.3086330" lon="-0.7373650">
        <ele>364.0</ele>
        <time>2018-09-16T07:55:52Z</time>
      </trkpt>
      <trkpt lat="39.3085430" lon="-0.7371750">
        <ele>364.0</ele>
        <time>2018-09-16T07:55:53Z</time>
      </trkpt>
      <trkpt lat="39.3084970" lon="-0.7370720">
        <ele>362.0</ele>
        <time>2018-09-16T07:55:54Z</time>
      </trkpt>
      <trkpt lat="39.3084530" lon="-0.7369670">
        <ele>362.0</ele>
        <time>2018-09-16T07:55:55Z</time>
      </trkpt>
      <trkpt lat="39.3084530" lon="-0.7369670">
        <ele>362.0</ele>
        <time>2018-09-16T07:55:56Z</time>
      </trkpt>
      <trkpt lat="39.3083800" lon="-0.7367620">
        <ele>362.0</ele>
        <time>2018-09-16T07:55:57Z</time>
      </trkpt>
      <trkpt lat="39.3083120" lon="-0.7365720">
        <ele>362.0</ele>
        <time>2018-09-16T07:55:58Z</time>
      </trkpt>
      <trkpt lat="39.3082780" lon="-0.7364770">
        <ele>362.0</ele>
        <time>2018-09-16T07:55:59Z</time>
      </trkpt>
      <trkpt lat="39.3082430" lon="-0.7363830">
        <ele>361.0</ele>
        <time>2018-09-16T07:56:00Z</time>
      </trkpt>
      <trkpt lat="39.3082430" lon="-0.7363830">
        <ele>361.0</ele>
        <time>2018-09-16T07:56:01Z</time>
      </trkpt>
      <trkpt lat="39.3082430" lon="-0.7363830">
        <ele>360.0</ele>
        <time>2018-09-16T07:56:02Z</time>
      </trkpt>
      <trkpt lat="39.3081920" lon="-0.7361830">
        <ele>360.0</ele>
        <time>2018-09-16T07:56:03Z</time>
      </trkpt>
      <trkpt lat="39.3081920" lon="-0.7361830">
        <ele>360.0</ele>
        <time>2018-09-16T07:56:04Z</time>
      </trkpt>
      <trkpt lat="39.3081450" lon="-0.7359830">
        <ele>360.0</ele>
        <time>2018-09-16T07:56:05Z</time>
      </trkpt>
      <trkpt lat="39.3081180" lon="-0.7358900">
        <ele>359.0</ele>
        <time>2018-09-16T07:56:06Z</time>
      </trkpt>
      <trkpt lat="39.3080970" lon="-0.7357930">
        <ele>359.0</ele>
        <time>2018-09-16T07:56:07Z</time>
      </trkpt>
      <trkpt lat="39.3080970" lon="-0.7357930">
        <ele>359.0</ele>
        <time>2018-09-16T07:56:08Z</time>
      </trkpt>
      <trkpt lat="39.3080580" lon="-0.7356050">
        <ele>359.0</ele>
        <time>2018-09-16T07:56:09Z</time>
      </trkpt>
      <trkpt lat="39.3080150" lon="-0.7354320">
        <ele>359.0</ele>
        <time>2018-09-16T07:56:10Z</time>
      </trkpt>
      <trkpt lat="39.3080150" lon="-0.7354320">
        <ele>359.0</ele>
        <time>2018-09-16T07:56:11Z</time>
      </trkpt>
      <trkpt lat="39.3079300" lon="-0.7353020">
        <ele>358.0</ele>
        <time>2018-09-16T07:56:12Z</time>
      </trkpt>
      <trkpt lat="39.3079300" lon="-0.7353020">
        <ele>358.0</ele>
        <time>2018-09-16T07:56:13Z</time>
      </trkpt>
      <trkpt lat="39.3079300" lon="-0.7353020">
        <ele>358.0</ele>
        <time>2018-09-16T07:56:14Z</time>
      </trkpt>
      <trkpt lat="39.3078300" lon="-0.7351900">
        <ele>358.0</ele>
        <time>2018-09-16T07:56:15Z</time>
      </trkpt>
      <trkpt lat="39.3078300" lon="-0.7351900">
        <ele>358.0</ele>
        <time>2018-09-16T07:56:16Z</time>
      </trkpt>
      <trkpt lat="39.3077280" lon="-0.7350780">
        <ele>358.0</ele>
        <time>2018-09-16T07:56:17Z</time>
      </trkpt>
      <trkpt lat="39.3077280" lon="-0.7350780">
        <ele>356.0</ele>
        <time>2018-09-16T07:56:18Z</time>
      </trkpt>
      <trkpt lat="39.3076270" lon="-0.7349620">
        <ele>356.0</ele>
        <time>2018-09-16T07:56:19Z</time>
      </trkpt>
      <trkpt lat="39.3076270" lon="-0.7349620">
        <ele>356.0</ele>
        <time>2018-09-16T07:56:20Z</time>
      </trkpt>
      <trkpt lat="39.3075470" lon="-0.7348150">
        <ele>354.0</ele>
        <time>2018-09-16T07:56:21Z</time>
      </trkpt>
      <trkpt lat="39.3075320" lon="-0.7346420">
        <ele>354.0</ele>
        <time>2018-09-16T07:56:22Z</time>
      </trkpt>
      <trkpt lat="39.3075320" lon="-0.7346420">
        <ele>353.0</ele>
        <time>2018-09-16T07:56:23Z</time>
      </trkpt>
      <trkpt lat="39.3075400" lon="-0.7344700">
        <ele>353.0</ele>
        <time>2018-09-16T07:56:24Z</time>
      </trkpt>
      <trkpt lat="39.3075400" lon="-0.7344700">
        <ele>353.0</ele>
        <time>2018-09-16T07:56:25Z</time>
      </trkpt>
      <trkpt lat="39.3075730" lon="-0.7342950">
        <ele>353.0</ele>
        <time>2018-09-16T07:56:26Z</time>
      </trkpt>
      <trkpt lat="39.3075730" lon="-0.7342950">
        <ele>352.0</ele>
        <time>2018-09-16T07:56:27Z</time>
      </trkpt>
      <trkpt lat="39.3075730" lon="-0.7342950">
        <ele>352.0</ele>
        <time>2018-09-16T07:56:28Z</time>
      </trkpt>
      <trkpt lat="39.3075630" lon="-0.7341130">
        <ele>352.0</ele>
        <time>2018-09-16T07:56:29Z</time>
      </trkpt>
      <trkpt lat="39.3075050" lon="-0.7339570">
        <ele>352.0</ele>
        <time>2018-09-16T07:56:30Z</time>
      </trkpt>
      <trkpt lat="39.3075050" lon="-0.7339570">
        <ele>352.0</ele>
        <time>2018-09-16T07:56:31Z</time>
      </trkpt>
      <trkpt lat="39.3075050" lon="-0.7339570">
        <ele>352.0</ele>
        <time>2018-09-16T07:56:32Z</time>
      </trkpt>
      <trkpt lat="39.3074030" lon="-0.7338600">
        <ele>352.0</ele>
        <time>2018-09-16T07:56:33Z</time>
      </trkpt>
      <trkpt lat="39.3074030" lon="-0.7338600">
        <ele>352.0</ele>
        <time>2018-09-16T07:56:34Z</time>
      </trkpt>
      <trkpt lat="39.3072950" lon="-0.7337730">
        <ele>351.0</ele>
        <time>2018-09-16T07:56:35Z</time>
      </trkpt>
      <trkpt lat="39.3072430" lon="-0.7337270">
        <ele>351.0</ele>
        <time>2018-09-16T07:56:36Z</time>
      </trkpt>
      <trkpt lat="39.3072430" lon="-0.7337270">
        <ele>351.0</ele>
        <time>2018-09-16T07:56:37Z</time>
      </trkpt>
      <trkpt lat="39.3071650" lon="-0.7336120">
        <ele>351.0</ele>
        <time>2018-09-16T07:56:38Z</time>
      </trkpt>
      <trkpt lat="39.3070970" lon="-0.7334720">
        <ele>351.0</ele>
        <time>2018-09-16T07:56:39Z</time>
      </trkpt>
      <trkpt lat="39.3070970" lon="-0.7334720">
        <ele>351.0</ele>
        <time>2018-09-16T07:56:40Z</time>
      </trkpt>
      <trkpt lat="39.3070970" lon="-0.7334720">
        <ele>351.0</ele>
        <time>2018-09-16T07:56:41Z</time>
      </trkpt>
      <trkpt lat="39.3070230" lon="-0.7333350">
        <ele>351.0</ele>
        <time>2018-09-16T07:56:42Z</time>
      </trkpt>
      <trkpt lat="39.3069830" lon="-0.7332750">
        <ele>349.0</ele>
        <time>2018-09-16T07:56:43Z</time>
      </trkpt>
      <trkpt lat="39.3069830" lon="-0.7332750">
        <ele>349.0</ele>
        <time>2018-09-16T07:56:44Z</time>
      </trkpt>
      <trkpt lat="39.3069230" lon="-0.7331830">
        <ele>349.0</ele>
        <time>2018-09-16T07:56:45Z</time>
      </trkpt>
      <trkpt lat="39.3068720" lon="-0.7331080">
        <ele>349.0</ele>
        <time>2018-09-16T07:56:46Z</time>
      </trkpt>
      <trkpt lat="39.3068720" lon="-0.7331080">
        <ele>349.0</ele>
        <time>2018-09-16T07:56:47Z</time>
      </trkpt>
      <trkpt lat="39.3068400" lon="-0.7330630">
        <ele>349.0</ele>
        <time>2018-09-16T07:56:48Z</time>
      </trkpt>
      <trkpt lat="39.3067720" lon="-0.7329600">
        <ele>349.0</ele>
        <time>2018-09-16T07:56:49Z</time>
      </trkpt>
      <trkpt lat="39.3067720" lon="-0.7329600">
        <ele>349.0</ele>
        <time>2018-09-16T07:56:50Z</time>
      </trkpt>
      <trkpt lat="39.3067720" lon="-0.7329600">
        <ele>349.0</ele>
        <time>2018-09-16T07:56:51Z</time>
      </trkpt>
      <trkpt lat="39.3066970" lon="-0.7328520">
        <ele>349.0</ele>
        <time>2018-09-16T07:56:52Z</time>
      </trkpt>
      <trkpt lat="39.3066970" lon="-0.7328520">
        <ele>349.0</ele>
        <time>2018-09-16T07:56:53Z</time>
      </trkpt>
      <trkpt lat="39.3066230" lon="-0.7327450">
        <ele>349.0</ele>
        <time>2018-09-16T07:56:54Z</time>
      </trkpt>
      <trkpt lat="39.3065880" lon="-0.7326880">
        <ele>349.0</ele>
        <time>2018-09-16T07:56:55Z</time>
      </trkpt>
      <trkpt lat="39.3065230" lon="-0.7325770">
        <ele>350.0</ele>
        <time>2018-09-16T07:56:56Z</time>
      </trkpt>
      <trkpt lat="39.3065230" lon="-0.7325770">
        <ele>350.0</ele>
        <time>2018-09-16T07:56:57Z</time>
      </trkpt>
      <trkpt lat="39.3064720" lon="-0.7324630">
        <ele>350.0</ele>
        <time>2018-09-16T07:56:58Z</time>
      </trkpt>
      <trkpt lat="39.3064720" lon="-0.7324630">
        <ele>350.0</ele>
        <time>2018-09-16T07:56:59Z</time>
      </trkpt>
      <trkpt lat="39.3064120" lon="-0.7323500">
        <ele>350.0</ele>
        <time>2018-09-16T07:57:00Z</time>
      </trkpt>
      <trkpt lat="39.3064120" lon="-0.7323500">
        <ele>350.0</ele>
        <time>2018-09-16T07:57:01Z</time>
      </trkpt>
      <trkpt lat="39.3064120" lon="-0.7323500">
        <ele>350.0</ele>
        <time>2018-09-16T07:57:02Z</time>
      </trkpt>
      <trkpt lat="39.3063400" lon="-0.7322470">
        <ele>350.0</ele>
        <time>2018-09-16T07:57:03Z</time>
      </trkpt>
      <trkpt lat="39.3062650" lon="-0.7322080">
        <ele>350.0</ele>
        <time>2018-09-16T07:57:04Z</time>
      </trkpt>
      <trkpt lat="39.3062650" lon="-0.7322080">
        <ele>350.0</ele>
        <time>2018-09-16T07:57:05Z</time>
      </trkpt>
      <trkpt lat="39.3062320" lon="-0.7322070">
        <ele>350.0</ele>
        <time>2018-09-16T07:57:06Z</time>
      </trkpt>
      <trkpt lat="39.3061720" lon="-0.7322380">
        <ele>350.0</ele>
        <time>2018-09-16T07:57:07Z</time>
      </trkpt>
      <trkpt lat="39.3061720" lon="-0.7322380">
        <ele>350.0</ele>
        <time>2018-09-16T07:57:08Z</time>
      </trkpt>
      <trkpt lat="39.3061450" lon="-0.7322680">
        <ele>350.0</ele>
        <time>2018-09-16T07:57:09Z</time>
      </trkpt>
      <trkpt lat="39.3060880" lon="-0.7323320">
        <ele>350.0</ele>
        <time>2018-09-16T07:57:10Z</time>
      </trkpt>
      <trkpt lat="39.3060880" lon="-0.7323320">
        <ele>350.0</ele>
        <time>2018-09-16T07:57:11Z</time>
      </trkpt>
      <trkpt lat="39.3060880" lon="-0.7323320">
        <ele>350.0</ele>
        <time>2018-09-16T07:57:12Z</time>
      </trkpt>
      <trkpt lat="39.3060270" lon="-0.7323970">
        <ele>350.0</ele>
        <time>2018-09-16T07:57:13Z</time>
      </trkpt>
      <trkpt lat="39.3060270" lon="-0.7323970">
        <ele>350.0</ele>
        <time>2018-09-16T07:57:14Z</time>
      </trkpt>
      <trkpt lat="39.3059650" lon="-0.7324550">
        <ele>350.0</ele>
        <time>2018-09-16T07:57:15Z</time>
      </trkpt>
      <trkpt lat="39.3059650" lon="-0.7324550">
        <ele>350.0</ele>
        <time>2018-09-16T07:57:16Z</time>
      </trkpt>
      <trkpt lat="39.3059020" lon="-0.7325030">
        <ele>350.0</ele>
        <time>2018-09-16T07:57:17Z</time>
      </trkpt>
      <trkpt lat="39.3058670" lon="-0.7325180">
        <ele>350.0</ele>
        <time>2018-09-16T07:57:18Z</time>
      </trkpt>
      <trkpt lat="39.3058320" lon="-0.7325250">
        <ele>350.0</ele>
        <time>2018-09-16T07:57:19Z</time>
      </trkpt>
      <trkpt lat="39.3058320" lon="-0.7325250">
        <ele>350.0</ele>
        <time>2018-09-16T07:57:20Z</time>
      </trkpt>
      <trkpt lat="39.3057650" lon="-0.7325100">
        <ele>350.0</ele>
        <time>2018-09-16T07:57:21Z</time>
      </trkpt>
      <trkpt lat="39.3057320" lon="-0.7324900">
        <ele>350.0</ele>
        <time>2018-09-16T07:57:22Z</time>
      </trkpt>
      <trkpt lat="39.3057320" lon="-0.7324900">
        <ele>351.0</ele>
        <time>2018-09-16T07:57:23Z</time>
      </trkpt>
      <trkpt lat="39.3056720" lon="-0.7324380">
        <ele>351.0</ele>
        <time>2018-09-16T07:57:24Z</time>
      </trkpt>
      <trkpt lat="39.3056720" lon="-0.7324380">
        <ele>351.0</ele>
        <time>2018-09-16T07:57:25Z</time>
      </trkpt>
      <trkpt lat="39.3056130" lon="-0.7323730">
        <ele>351.0</ele>
        <time>2018-09-16T07:57:26Z</time>
      </trkpt>
      <trkpt lat="39.3056130" lon="-0.7323730">
        <ele>352.0</ele>
        <time>2018-09-16T07:57:27Z</time>
      </trkpt>
      <trkpt lat="39.3055480" lon="-0.7323230">
        <ele>352.0</ele>
        <time>2018-09-16T07:57:28Z</time>
      </trkpt>
      <trkpt lat="39.3055480" lon="-0.7323230">
        <ele>352.0</ele>
        <time>2018-09-16T07:57:29Z</time>
      </trkpt>
      <trkpt lat="39.3054850" lon="-0.7322730">
        <ele>352.0</ele>
        <time>2018-09-16T07:57:30Z</time>
      </trkpt>
      <trkpt lat="39.3054550" lon="-0.7322420">
        <ele>352.0</ele>
        <time>2018-09-16T07:57:31Z</time>
      </trkpt>
      <trkpt lat="39.3054550" lon="-0.7322420">
        <ele>352.0</ele>
        <time>2018-09-16T07:57:32Z</time>
      </trkpt>
      <trkpt lat="39.3054030" lon="-0.7321770">
        <ele>352.0</ele>
        <time>2018-09-16T07:57:33Z</time>
      </trkpt>
      <trkpt lat="39.3054030" lon="-0.7321770">
        <ele>352.0</ele>
        <time>2018-09-16T07:57:34Z</time>
      </trkpt>
      <trkpt lat="39.3053350" lon="-0.7320620">
        <ele>352.0</ele>
        <time>2018-09-16T07:57:35Z</time>
      </trkpt>
      <trkpt lat="39.3053100" lon="-0.7320230">
        <ele>352.0</ele>
        <time>2018-09-16T07:57:36Z</time>
      </trkpt>
      <trkpt lat="39.3053100" lon="-0.7320230">
        <ele>352.0</ele>
        <time>2018-09-16T07:57:37Z</time>
      </trkpt>
      <trkpt lat="39.3053100" lon="-0.7320230">
        <ele>352.0</ele>
        <time>2018-09-16T07:57:38Z</time>
      </trkpt>
      <trkpt lat="39.3052730" lon="-0.7319370">
        <ele>352.0</ele>
        <time>2018-09-16T07:57:39Z</time>
      </trkpt>
      <trkpt lat="39.3052620" lon="-0.7318450">
        <ele>352.0</ele>
        <time>2018-09-16T07:57:40Z</time>
      </trkpt>
      <trkpt lat="39.3052620" lon="-0.7318450">
        <ele>353.0</ele>
        <time>2018-09-16T07:57:41Z</time>
      </trkpt>
      <trkpt lat="39.3052620" lon="-0.7318450">
        <ele>353.0</ele>
        <time>2018-09-16T07:57:42Z</time>
      </trkpt>
      <trkpt lat="39.3052730" lon="-0.7317650">
        <ele>353.0</ele>
        <time>2018-09-16T07:57:43Z</time>
      </trkpt>
      <trkpt lat="39.3052730" lon="-0.7317650">
        <ele>353.0</ele>
        <time>2018-09-16T07:57:44Z</time>
      </trkpt>
      <trkpt lat="39.3052930" lon="-0.7316930">
        <ele>353.0</ele>
        <time>2018-09-16T07:57:45Z</time>
      </trkpt>
      <trkpt lat="39.3053050" lon="-0.7316580">
        <ele>353.0</ele>
        <time>2018-09-16T07:57:46Z</time>
      </trkpt>
      <trkpt lat="39.3053050" lon="-0.7316580">
        <ele>353.0</ele>
        <time>2018-09-16T07:57:47Z</time>
      </trkpt>
      <trkpt lat="39.3053350" lon="-0.7315870">
        <ele>353.0</ele>
        <time>2018-09-16T07:57:48Z</time>
      </trkpt>
      <trkpt lat="39.3053530" lon="-0.7315520">
        <ele>353.0</ele>
        <time>2018-09-16T07:57:49Z</time>
      </trkpt>
      <trkpt lat="39.3053530" lon="-0.7315520">
        <ele>353.0</ele>
        <time>2018-09-16T07:57:50Z</time>
      </trkpt>
      <trkpt lat="39.3053730" lon="-0.7314830">
        <ele>353.0</ele>
        <time>2018-09-16T07:57:51Z</time>
      </trkpt>
      <trkpt lat="39.3053800" lon="-0.7314520">
        <ele>353.0</ele>
        <time>2018-09-16T07:57:52Z</time>
      </trkpt>
      <trkpt lat="39.3053800" lon="-0.7314520">
        <ele>353.0</ele>
        <time>2018-09-16T07:57:53Z</time>
      </trkpt>
      <trkpt lat="39.3053800" lon="-0.7313970">
        <ele>354.0</ele>
        <time>2018-09-16T07:57:54Z</time>
      </trkpt>
      <trkpt lat="39.3053670" lon="-0.7313770">
        <ele>354.0</ele>
        <time>2018-09-16T07:57:55Z</time>
      </trkpt>
      <trkpt lat="39.3053670" lon="-0.7313770">
        <ele>354.0</ele>
        <time>2018-09-16T07:57:56Z</time>
      </trkpt>
      <trkpt lat="39.3053180" lon="-0.7313550">
        <ele>354.0</ele>
        <time>2018-09-16T07:57:57Z</time>
      </trkpt>
      <trkpt lat="39.3052930" lon="-0.7313470">
        <ele>355.0</ele>
        <time>2018-09-16T07:57:58Z</time>
      </trkpt>
      <trkpt lat="39.3052420" lon="-0.7313130">
        <ele>355.0</ele>
        <time>2018-09-16T07:57:59Z</time>
      </trkpt>
      <trkpt lat="39.3052420" lon="-0.7313130">
        <ele>355.0</ele>
        <time>2018-09-16T07:58:00Z</time>
      </trkpt>
      <trkpt lat="39.3052170" lon="-0.7312970">
        <ele>355.0</ele>
        <time>2018-09-16T07:58:01Z</time>
      </trkpt>
      <trkpt lat="39.3051930" lon="-0.7312750">
        <ele>356.0</ele>
        <time>2018-09-16T07:58:02Z</time>
      </trkpt>
      <trkpt lat="39.3051930" lon="-0.7312750">
        <ele>356.0</ele>
        <time>2018-09-16T07:58:03Z</time>
      </trkpt>
      <trkpt lat="39.3051450" lon="-0.7312430">
        <ele>356.0</ele>
        <time>2018-09-16T07:58:04Z</time>
      </trkpt>
      <trkpt lat="39.3051450" lon="-0.7312430">
        <ele>356.0</ele>
        <time>2018-09-16T07:58:05Z</time>
      </trkpt>
      <trkpt lat="39.3051000" lon="-0.7312150">
        <ele>356.0</ele>
        <time>2018-09-16T07:58:06Z</time>
      </trkpt>
      <trkpt lat="39.3051000" lon="-0.7312150">
        <ele>356.0</ele>
        <time>2018-09-16T07:58:07Z</time>
      </trkpt>
      <trkpt lat="39.3050580" lon="-0.7311770">
        <ele>358.0</ele>
        <time>2018-09-16T07:58:08Z</time>
      </trkpt>
      <trkpt lat="39.3050270" lon="-0.7311280">
        <ele>358.0</ele>
        <time>2018-09-16T07:58:09Z</time>
      </trkpt>
      <trkpt lat="39.3050270" lon="-0.7311280">
        <ele>358.0</ele>
        <time>2018-09-16T07:58:10Z</time>
      </trkpt>
      <trkpt lat="39.3050270" lon="-0.7311280">
        <ele>358.0</ele>
        <time>2018-09-16T07:58:11Z</time>
      </trkpt>
      <trkpt lat="39.3049830" lon="-0.7310820">
        <ele>358.0</ele>
        <time>2018-09-16T07:58:12Z</time>
      </trkpt>
      <trkpt lat="39.3049830" lon="-0.7310820">
        <ele>358.0</ele>
        <time>2018-09-16T07:58:13Z</time>
      </trkpt>
      <trkpt lat="39.3049330" lon="-0.7310150">
        <ele>358.0</ele>
        <time>2018-09-16T07:58:14Z</time>
      </trkpt>
      <trkpt lat="39.3048630" lon="-0.7309370">
        <ele>357.0</ele>
        <time>2018-09-16T07:58:15Z</time>
      </trkpt>
      <trkpt lat="39.3048630" lon="-0.7309370">
        <ele>357.0</ele>
        <time>2018-09-16T07:58:16Z</time>
      </trkpt>
      <trkpt lat="39.3047930" lon="-0.7308530">
        <ele>357.0</ele>
        <time>2018-09-16T07:58:17Z</time>
      </trkpt>
      <trkpt lat="39.3047630" lon="-0.7308100">
        <ele>357.0</ele>
        <time>2018-09-16T07:58:18Z</time>
      </trkpt>
      <trkpt lat="39.3047630" lon="-0.7308100">
        <ele>357.0</ele>
        <time>2018-09-16T07:58:19Z</time>
      </trkpt>
      <trkpt lat="39.3047630" lon="-0.7308100">
        <ele>357.0</ele>
        <time>2018-09-16T07:58:20Z</time>
      </trkpt>
      <trkpt lat="39.3047070" lon="-0.7307250">
        <ele>357.0</ele>
        <time>2018-09-16T07:58:21Z</time>
      </trkpt>
      <trkpt lat="39.3046450" lon="-0.7306330">
        <ele>357.0</ele>
        <time>2018-09-16T07:58:22Z</time>
      </trkpt>
      <trkpt lat="39.3046150" lon="-0.7305870">
        <ele>357.0</ele>
        <time>2018-09-16T07:58:23Z</time>
      </trkpt>
      <trkpt lat="39.3046150" lon="-0.7305870">
        <ele>357.0</ele>
        <time>2018-09-16T07:58:24Z</time>
      </trkpt>
      <trkpt lat="39.3046150" lon="-0.7305870">
        <ele>356.0</ele>
        <time>2018-09-16T07:58:25Z</time>
      </trkpt>
      <trkpt lat="39.3045500" lon="-0.7304930">
        <ele>356.0</ele>
        <time>2018-09-16T07:58:26Z</time>
      </trkpt>
      <trkpt lat="39.3045500" lon="-0.7304930">
        <ele>356.0</ele>
        <time>2018-09-16T07:58:27Z</time>
      </trkpt>
      <trkpt lat="39.3044570" lon="-0.7303520">
        <ele>356.0</ele>
        <time>2018-09-16T07:58:28Z</time>
      </trkpt>
      <trkpt lat="39.3044570" lon="-0.7303520">
        <ele>356.0</ele>
        <time>2018-09-16T07:58:29Z</time>
      </trkpt>
      <trkpt lat="39.3044570" lon="-0.7303520">
        <ele>356.0</ele>
        <time>2018-09-16T07:58:30Z</time>
      </trkpt>
      <trkpt lat="39.3044030" lon="-0.7302630">
        <ele>356.0</ele>
        <time>2018-09-16T07:58:31Z</time>
      </trkpt>
      <trkpt lat="39.3044030" lon="-0.7302630">
        <ele>356.0</ele>
        <time>2018-09-16T07:58:32Z</time>
      </trkpt>
      <trkpt lat="39.3043600" lon="-0.7301820">
        <ele>356.0</ele>
        <time>2018-09-16T07:58:33Z</time>
      </trkpt>
      <trkpt lat="39.3043600" lon="-0.7301820">
        <ele>356.0</ele>
        <time>2018-09-16T07:58:34Z</time>
      </trkpt>
      <trkpt lat="39.3043330" lon="-0.7300880">
        <ele>356.0</ele>
        <time>2018-09-16T07:58:35Z</time>
      </trkpt>
      <trkpt lat="39.3043320" lon="-0.7300400">
        <ele>356.0</ele>
        <time>2018-09-16T07:58:36Z</time>
      </trkpt>
      <trkpt lat="39.3043530" lon="-0.7299950">
        <ele>355.0</ele>
        <time>2018-09-16T07:58:37Z</time>
      </trkpt>
      <trkpt lat="39.3043530" lon="-0.7299950">
        <ele>355.0</ele>
        <time>2018-09-16T07:58:38Z</time>
      </trkpt>
      <trkpt lat="39.3044270" lon="-0.7299320">
        <ele>355.0</ele>
        <time>2018-09-16T07:58:39Z</time>
      </trkpt>
      <trkpt lat="39.3044270" lon="-0.7299320">
        <ele>355.0</ele>
        <time>2018-09-16T07:58:40Z</time>
      </trkpt>
      <trkpt lat="39.3045220" lon="-0.7299080">
        <ele>355.0</ele>
        <time>2018-09-16T07:58:41Z</time>
      </trkpt>
      <trkpt lat="39.3045220" lon="-0.7299080">
        <ele>355.0</ele>
        <time>2018-09-16T07:58:42Z</time>
      </trkpt>
      <trkpt lat="39.3046150" lon="-0.7299200">
        <ele>355.0</ele>
        <time>2018-09-16T07:58:43Z</time>
      </trkpt>
      <trkpt lat="39.3046150" lon="-0.7299200">
        <ele>355.0</ele>
        <time>2018-09-16T07:58:44Z</time>
      </trkpt>
      <trkpt lat="39.3046970" lon="-0.7299180">
        <ele>356.0</ele>
        <time>2018-09-16T07:58:45Z</time>
      </trkpt>
      <trkpt lat="39.3047430" lon="-0.7298600">
        <ele>356.0</ele>
        <time>2018-09-16T07:58:46Z</time>
      </trkpt>
      <trkpt lat="39.3047430" lon="-0.7298600">
        <ele>356.0</ele>
        <time>2018-09-16T07:58:47Z</time>
      </trkpt>
      <trkpt lat="39.3047430" lon="-0.7298600">
        <ele>356.0</ele>
        <time>2018-09-16T07:58:48Z</time>
      </trkpt>
      <trkpt lat="39.3047500" lon="-0.7297720">
        <ele>357.0</ele>
        <time>2018-09-16T07:58:49Z</time>
      </trkpt>
      <trkpt lat="39.3047430" lon="-0.7296800">
        <ele>357.0</ele>
        <time>2018-09-16T07:58:50Z</time>
      </trkpt>
      <trkpt lat="39.3047430" lon="-0.7296800">
        <ele>358.0</ele>
        <time>2018-09-16T07:58:51Z</time>
      </trkpt>
      <trkpt lat="39.3047400" lon="-0.7296350">
        <ele>358.0</ele>
        <time>2018-09-16T07:58:52Z</time>
      </trkpt>
      <trkpt lat="39.3047400" lon="-0.7296350">
        <ele>358.0</ele>
        <time>2018-09-16T07:58:53Z</time>
      </trkpt>
      <trkpt lat="39.3047400" lon="-0.7295450">
        <ele>358.0</ele>
        <time>2018-09-16T07:58:54Z</time>
      </trkpt>
      <trkpt lat="39.3047420" lon="-0.7294970">
        <ele>358.0</ele>
        <time>2018-09-16T07:58:55Z</time>
      </trkpt>
      <trkpt lat="39.3047420" lon="-0.7294970">
        <ele>358.0</ele>
        <time>2018-09-16T07:58:56Z</time>
      </trkpt>
      <trkpt lat="39.3047500" lon="-0.7294020">
        <ele>358.0</ele>
        <time>2018-09-16T07:58:57Z</time>
      </trkpt>
      <trkpt lat="39.3047500" lon="-0.7294020">
        <ele>358.0</ele>
        <time>2018-09-16T07:58:58Z</time>
      </trkpt>
      <trkpt lat="39.3047570" lon="-0.7293130">
        <ele>358.0</ele>
        <time>2018-09-16T07:58:59Z</time>
      </trkpt>
      <trkpt lat="39.3047530" lon="-0.7292730">
        <ele>358.0</ele>
        <time>2018-09-16T07:59:00Z</time>
      </trkpt>
      <trkpt lat="39.3047530" lon="-0.7292730">
        <ele>359.0</ele>
        <time>2018-09-16T07:59:01Z</time>
      </trkpt>
      <trkpt lat="39.3047300" lon="-0.7292070">
        <ele>359.0</ele>
        <time>2018-09-16T07:59:02Z</time>
      </trkpt>
      <trkpt lat="39.3047300" lon="-0.7292070">
        <ele>359.0</ele>
        <time>2018-09-16T07:59:03Z</time>
      </trkpt>
      <trkpt lat="39.3046850" lon="-0.7291670">
        <ele>359.0</ele>
        <time>2018-09-16T07:59:04Z</time>
      </trkpt>
      <trkpt lat="39.3046850" lon="-0.7291670">
        <ele>359.0</ele>
        <time>2018-09-16T07:59:05Z</time>
      </trkpt>
      <trkpt lat="39.3046170" lon="-0.7291250">
        <ele>360.0</ele>
        <time>2018-09-16T07:59:06Z</time>
      </trkpt>
      <trkpt lat="39.3046170" lon="-0.7291250">
        <ele>360.0</ele>
        <time>2018-09-16T07:59:07Z</time>
      </trkpt>
      <trkpt lat="39.3045630" lon="-0.7290950">
        <ele>360.0</ele>
        <time>2018-09-16T07:59:08Z</time>
      </trkpt>
      <trkpt lat="39.3045630" lon="-0.7290950">
        <ele>360.0</ele>
        <time>2018-09-16T07:59:09Z</time>
      </trkpt>
      <trkpt lat="39.3045630" lon="-0.7290950">
        <ele>360.0</ele>
        <time>2018-09-16T07:59:10Z</time>
      </trkpt>
      <trkpt lat="39.3044920" lon="-0.7290530">
        <ele>360.0</ele>
        <time>2018-09-16T07:59:11Z</time>
      </trkpt>
      <trkpt lat="39.3044920" lon="-0.7290530">
        <ele>361.0</ele>
        <time>2018-09-16T07:59:12Z</time>
      </trkpt>
      <trkpt lat="39.3044920" lon="-0.7290530">
        <ele>361.0</ele>
        <time>2018-09-16T07:59:13Z</time>
      </trkpt>
      <trkpt lat="39.3044470" lon="-0.7290250">
        <ele>361.0</ele>
        <time>2018-09-16T07:59:14Z</time>
      </trkpt>
      <trkpt lat="39.3044050" lon="-0.7289970">
        <ele>361.0</ele>
        <time>2018-09-16T07:59:15Z</time>
      </trkpt>
      <trkpt lat="39.3043820" lon="-0.7289870">
        <ele>361.0</ele>
        <time>2018-09-16T07:59:16Z</time>
      </trkpt>
      <trkpt lat="39.3043820" lon="-0.7289870">
        <ele>361.0</ele>
        <time>2018-09-16T07:59:17Z</time>
      </trkpt>
      <trkpt lat="39.3043820" lon="-0.7289870">
        <ele>362.0</ele>
        <time>2018-09-16T07:59:18Z</time>
      </trkpt>
      <trkpt lat="39.3043330" lon="-0.7289650">
        <ele>362.0</ele>
        <time>2018-09-16T07:59:19Z</time>
      </trkpt>
      <trkpt lat="39.3043330" lon="-0.7289650">
        <ele>362.0</ele>
        <time>2018-09-16T07:59:20Z</time>
      </trkpt>
      <trkpt lat="39.3042850" lon="-0.7289480">
        <ele>362.0</ele>
        <time>2018-09-16T07:59:21Z</time>
      </trkpt>
      <trkpt lat="39.3042380" lon="-0.7289380">
        <ele>362.0</ele>
        <time>2018-09-16T07:59:22Z</time>
      </trkpt>
      <trkpt lat="39.3042380" lon="-0.7289380">
        <ele>362.0</ele>
        <time>2018-09-16T07:59:23Z</time>
      </trkpt>
      <trkpt lat="39.3042120" lon="-0.7289300">
        <ele>362.0</ele>
        <time>2018-09-16T07:59:24Z</time>
      </trkpt>
      <trkpt lat="39.3041850" lon="-0.7289250">
        <ele>362.0</ele>
        <time>2018-09-16T07:59:25Z</time>
      </trkpt>
      <trkpt lat="39.3041370" lon="-0.7289170">
        <ele>363.0</ele>
        <time>2018-09-16T07:59:26Z</time>
      </trkpt>
      <trkpt lat="39.3041370" lon="-0.7289170">
        <ele>363.0</ele>
        <time>2018-09-16T07:59:27Z</time>
      </trkpt>
      <trkpt lat="39.3040880" lon="-0.7289000">
        <ele>363.0</ele>
        <time>2018-09-16T07:59:28Z</time>
      </trkpt>
      <trkpt lat="39.3040880" lon="-0.7289000">
        <ele>363.0</ele>
        <time>2018-09-16T07:59:29Z</time>
      </trkpt>
      <trkpt lat="39.3040370" lon="-0.7288770">
        <ele>363.0</ele>
        <time>2018-09-16T07:59:30Z</time>
      </trkpt>
      <trkpt lat="39.3040370" lon="-0.7288770">
        <ele>363.0</ele>
        <time>2018-09-16T07:59:31Z</time>
      </trkpt>
      <trkpt lat="39.3040370" lon="-0.7288770">
        <ele>363.0</ele>
        <time>2018-09-16T07:59:32Z</time>
      </trkpt>
      <trkpt lat="39.3039670" lon="-0.7288180">
        <ele>363.0</ele>
        <time>2018-09-16T07:59:33Z</time>
      </trkpt>
      <trkpt lat="39.3039670" lon="-0.7288180">
        <ele>363.0</ele>
        <time>2018-09-16T07:59:34Z</time>
      </trkpt>
      <trkpt lat="39.3039670" lon="-0.7288180">
        <ele>363.0</ele>
        <time>2018-09-16T07:59:35Z</time>
      </trkpt>
      <trkpt lat="39.3039180" lon="-0.7287770">
        <ele>363.0</ele>
        <time>2018-09-16T07:59:36Z</time>
      </trkpt>
      <trkpt lat="39.3039180" lon="-0.7287770">
        <ele>363.0</ele>
        <time>2018-09-16T07:59:37Z</time>
      </trkpt>
      <trkpt lat="39.3038720" lon="-0.7287380">
        <ele>363.0</ele>
        <time>2018-09-16T07:59:38Z</time>
      </trkpt>
      <trkpt lat="39.3038720" lon="-0.7287380">
        <ele>363.0</ele>
        <time>2018-09-16T07:59:39Z</time>
      </trkpt>
      <trkpt lat="39.3038230" lon="-0.7286980">
        <ele>363.0</ele>
        <time>2018-09-16T07:59:40Z</time>
      </trkpt>
      <trkpt lat="39.3037980" lon="-0.7286820">
        <ele>363.0</ele>
        <time>2018-09-16T07:59:41Z</time>
      </trkpt>
      <trkpt lat="39.3037980" lon="-0.7286820">
        <ele>363.0</ele>
        <time>2018-09-16T07:59:42Z</time>
      </trkpt>
      <trkpt lat="39.3037430" lon="-0.7286570">
        <ele>363.0</ele>
        <time>2018-09-16T07:59:43Z</time>
      </trkpt>
      <trkpt lat="39.3037430" lon="-0.7286570">
        <ele>363.0</ele>
        <time>2018-09-16T07:59:44Z</time>
      </trkpt>
      <trkpt lat="39.3036820" lon="-0.7286280">
        <ele>363.0</ele>
        <time>2018-09-16T07:59:45Z</time>
      </trkpt>
      <trkpt lat="39.3036820" lon="-0.7286280">
        <ele>363.0</ele>
        <time>2018-09-16T07:59:46Z</time>
      </trkpt>
      <trkpt lat="39.3036130" lon="-0.7285950">
        <ele>363.0</ele>
        <time>2018-09-16T07:59:47Z</time>
      </trkpt>
      <trkpt lat="39.3035370" lon="-0.7285670">
        <ele>363.0</ele>
        <time>2018-09-16T07:59:48Z</time>
      </trkpt>
      <trkpt lat="39.3035370" lon="-0.7285670">
        <ele>363.0</ele>
        <time>2018-09-16T07:59:49Z</time>
      </trkpt>
      <trkpt lat="39.3035370" lon="-0.7285670">
        <ele>363.0</ele>
        <time>2018-09-16T07:59:50Z</time>
      </trkpt>
      <trkpt lat="39.3034370" lon="-0.7284800">
        <ele>363.0</ele>
        <time>2018-09-16T07:59:51Z</time>
      </trkpt>
      <trkpt lat="39.3034370" lon="-0.7284800">
        <ele>363.0</ele>
        <time>2018-09-16T07:59:52Z</time>
      </trkpt>
      <trkpt lat="39.3034370" lon="-0.7284800">
        <ele>363.0</ele>
        <time>2018-09-16T07:59:53Z</time>
      </trkpt>
      <trkpt lat="39.3034380" lon="-0.7283350">
        <ele>363.0</ele>
        <time>2018-09-16T07:59:54Z</time>
      </trkpt>
      <trkpt lat="39.3034380" lon="-0.7283350">
        <ele>363.0</ele>
        <time>2018-09-16T07:59:55Z</time>
      </trkpt>
      <trkpt lat="39.3034700" lon="-0.7282420">
        <ele>363.0</ele>
        <time>2018-09-16T07:59:56Z</time>
      </trkpt>
      <trkpt lat="39.3034700" lon="-0.7282420">
        <ele>363.0</ele>
        <time>2018-09-16T07:59:57Z</time>
      </trkpt>
      <trkpt lat="39.3034700" lon="-0.7282420">
        <ele>363.0</ele>
        <time>2018-09-16T07:59:58Z</time>
      </trkpt>
      <trkpt lat="39.3035000" lon="-0.7281500">
        <ele>363.0</ele>
        <time>2018-09-16T07:59:59Z</time>
      </trkpt>
      <trkpt lat="39.3035170" lon="-0.7281050">
        <ele>363.0</ele>
        <time>2018-09-16T08:00:00Z</time>
      </trkpt>
      <trkpt lat="39.3035520" lon="-0.7280170">
        <ele>363.0</ele>
        <time>2018-09-16T08:00:01Z</time>
      </trkpt>
      <trkpt lat="39.3035520" lon="-0.7280170">
        <ele>363.0</ele>
        <time>2018-09-16T08:00:02Z</time>
      </trkpt>
      <trkpt lat="39.3035520" lon="-0.7280170">
        <ele>363.0</ele>
        <time>2018-09-16T08:00:03Z</time>
      </trkpt>
      <trkpt lat="39.3035820" lon="-0.7279250">
        <ele>363.0</ele>
        <time>2018-09-16T08:00:04Z</time>
      </trkpt>
      <trkpt lat="39.3036050" lon="-0.7278380">
        <ele>363.0</ele>
        <time>2018-09-16T08:00:05Z</time>
      </trkpt>
      <trkpt lat="39.3036050" lon="-0.7278380">
        <ele>363.0</ele>
        <time>2018-09-16T08:00:06Z</time>
      </trkpt>
      <trkpt lat="39.3036120" lon="-0.7277930">
        <ele>363.0</ele>
        <time>2018-09-16T08:00:07Z</time>
      </trkpt>
      <trkpt lat="39.3036150" lon="-0.7277480">
        <ele>363.0</ele>
        <time>2018-09-16T08:00:08Z</time>
      </trkpt>
      <trkpt lat="39.3036150" lon="-0.7277480">
        <ele>363.0</ele>
        <time>2018-09-16T08:00:09Z</time>
      </trkpt>
      <trkpt lat="39.3036170" lon="-0.7276570">
        <ele>363.0</ele>
        <time>2018-09-16T08:00:10Z</time>
      </trkpt>
      <trkpt lat="39.3036170" lon="-0.7276570">
        <ele>363.0</ele>
        <time>2018-09-16T08:00:11Z</time>
      </trkpt>
      <trkpt lat="39.3036120" lon="-0.7275620">
        <ele>363.0</ele>
        <time>2018-09-16T08:00:12Z</time>
      </trkpt>
      <trkpt lat="39.3036120" lon="-0.7275620">
        <ele>363.0</ele>
        <time>2018-09-16T08:00:13Z</time>
      </trkpt>
      <trkpt lat="39.3036070" lon="-0.7274620">
        <ele>364.0</ele>
        <time>2018-09-16T08:00:14Z</time>
      </trkpt>
      <trkpt lat="39.3036120" lon="-0.7274150">
        <ele>364.0</ele>
        <time>2018-09-16T08:00:15Z</time>
      </trkpt>
      <trkpt lat="39.3036250" lon="-0.7273670">
        <ele>364.0</ele>
        <time>2018-09-16T08:00:16Z</time>
      </trkpt>
      <trkpt lat="39.3036250" lon="-0.7273670">
        <ele>364.0</ele>
        <time>2018-09-16T08:00:17Z</time>
      </trkpt>
      <trkpt lat="39.3036620" lon="-0.7272820">
        <ele>364.0</ele>
        <time>2018-09-16T08:00:18Z</time>
      </trkpt>
      <trkpt lat="39.3036870" lon="-0.7272470">
        <ele>364.0</ele>
        <time>2018-09-16T08:00:19Z</time>
      </trkpt>
      <trkpt lat="39.3037370" lon="-0.7271850">
        <ele>364.0</ele>
        <time>2018-09-16T08:00:20Z</time>
      </trkpt>
      <trkpt lat="39.3037370" lon="-0.7271850">
        <ele>365.0</ele>
        <time>2018-09-16T08:00:21Z</time>
      </trkpt>
      <trkpt lat="39.3037870" lon="-0.7271180">
        <ele>365.0</ele>
        <time>2018-09-16T08:00:22Z</time>
      </trkpt>
      <trkpt lat="39.3037870" lon="-0.7271180">
        <ele>365.0</ele>
        <time>2018-09-16T08:00:23Z</time>
      </trkpt>
      <trkpt lat="39.3037870" lon="-0.7271180">
        <ele>365.0</ele>
        <time>2018-09-16T08:00:24Z</time>
      </trkpt>
      <trkpt lat="39.3038370" lon="-0.7270520">
        <ele>365.0</ele>
        <time>2018-09-16T08:00:25Z</time>
      </trkpt>
      <trkpt lat="39.3038370" lon="-0.7270520">
        <ele>365.0</ele>
        <time>2018-09-16T08:00:26Z</time>
      </trkpt>
      <trkpt lat="39.3038800" lon="-0.7269680">
        <ele>365.0</ele>
        <time>2018-09-16T08:00:27Z</time>
      </trkpt>
      <trkpt lat="39.3038980" lon="-0.7269230">
        <ele>366.0</ele>
        <time>2018-09-16T08:00:28Z</time>
      </trkpt>
      <trkpt lat="39.3039270" lon="-0.7268320">
        <ele>366.0</ele>
        <time>2018-09-16T08:00:29Z</time>
      </trkpt>
      <trkpt lat="39.3039270" lon="-0.7268320">
        <ele>366.0</ele>
        <time>2018-09-16T08:00:30Z</time>
      </trkpt>
      <trkpt lat="39.3039420" lon="-0.7267830">
        <ele>366.0</ele>
        <time>2018-09-16T08:00:31Z</time>
      </trkpt>
      <trkpt lat="39.3039420" lon="-0.7267830">
        <ele>366.0</ele>
        <time>2018-09-16T08:00:32Z</time>
      </trkpt>
      <trkpt lat="39.3039880" lon="-0.7266400">
        <ele>366.0</ele>
        <time>2018-09-16T08:00:33Z</time>
      </trkpt>
      <trkpt lat="39.3039880" lon="-0.7266400">
        <ele>366.0</ele>
        <time>2018-09-16T08:00:34Z</time>
      </trkpt>
      <trkpt lat="39.3040070" lon="-0.7265950">
        <ele>366.0</ele>
        <time>2018-09-16T08:00:35Z</time>
      </trkpt>
      <trkpt lat="39.3040070" lon="-0.7265950">
        <ele>366.0</ele>
        <time>2018-09-16T08:00:36Z</time>
      </trkpt>
      <trkpt lat="39.3040300" lon="-0.7265120">
        <ele>366.0</ele>
        <time>2018-09-16T08:00:37Z</time>
      </trkpt>
      <trkpt lat="39.3040300" lon="-0.7265120">
        <ele>366.0</ele>
        <time>2018-09-16T08:00:38Z</time>
      </trkpt>
      <trkpt lat="39.3040520" lon="-0.7264220">
        <ele>366.0</ele>
        <time>2018-09-16T08:00:39Z</time>
      </trkpt>
      <trkpt lat="39.3040520" lon="-0.7264220">
        <ele>366.0</ele>
        <time>2018-09-16T08:00:40Z</time>
      </trkpt>
      <trkpt lat="39.3040720" lon="-0.7263200">
        <ele>366.0</ele>
        <time>2018-09-16T08:00:41Z</time>
      </trkpt>
      <trkpt lat="39.3040720" lon="-0.7262000">
        <ele>366.0</ele>
        <time>2018-09-16T08:00:42Z</time>
      </trkpt>
      <trkpt lat="39.3040670" lon="-0.7261380">
        <ele>366.0</ele>
        <time>2018-09-16T08:00:43Z</time>
      </trkpt>
      <trkpt lat="39.3040670" lon="-0.7261380">
        <ele>366.0</ele>
        <time>2018-09-16T08:00:44Z</time>
      </trkpt>
      <trkpt lat="39.3040380" lon="-0.7260180">
        <ele>366.0</ele>
        <time>2018-09-16T08:00:45Z</time>
      </trkpt>
      <trkpt lat="39.3040380" lon="-0.7260180">
        <ele>366.0</ele>
        <time>2018-09-16T08:00:46Z</time>
      </trkpt>
      <trkpt lat="39.3040000" lon="-0.7259050">
        <ele>366.0</ele>
        <time>2018-09-16T08:00:47Z</time>
      </trkpt>
      <trkpt lat="39.3039770" lon="-0.7258500">
        <ele>366.0</ele>
        <time>2018-09-16T08:00:48Z</time>
      </trkpt>
      <trkpt lat="39.3039770" lon="-0.7258500">
        <ele>366.0</ele>
        <time>2018-09-16T08:00:49Z</time>
      </trkpt>
      <trkpt lat="39.3039770" lon="-0.7258500">
        <ele>366.0</ele>
        <time>2018-09-16T08:00:50Z</time>
      </trkpt>
      <trkpt lat="39.3039080" lon="-0.7257730">
        <ele>366.0</ele>
        <time>2018-09-16T08:00:51Z</time>
      </trkpt>
      <trkpt lat="39.3038270" lon="-0.7257670">
        <ele>366.0</ele>
        <time>2018-09-16T08:00:52Z</time>
      </trkpt>
      <trkpt lat="39.3038270" lon="-0.7257670">
        <ele>366.0</ele>
        <time>2018-09-16T08:00:53Z</time>
      </trkpt>
      <trkpt lat="39.3038270" lon="-0.7257670">
        <ele>366.0</ele>
        <time>2018-09-16T08:00:54Z</time>
      </trkpt>
      <trkpt lat="39.3037550" lon="-0.7258270">
        <ele>365.0</ele>
        <time>2018-09-16T08:00:55Z</time>
      </trkpt>
      <trkpt lat="39.3037200" lon="-0.7258620">
        <ele>365.0</ele>
        <time>2018-09-16T08:00:56Z</time>
      </trkpt>
      <trkpt lat="39.3036820" lon="-0.7258950">
        <ele>365.0</ele>
        <time>2018-09-16T08:00:57Z</time>
      </trkpt>
      <trkpt lat="39.3036820" lon="-0.7258950">
        <ele>365.0</ele>
        <time>2018-09-16T08:00:58Z</time>
      </trkpt>
      <trkpt lat="39.3035950" lon="-0.7259620">
        <ele>365.0</ele>
        <time>2018-09-16T08:00:59Z</time>
      </trkpt>
      <trkpt lat="39.3035520" lon="-0.7259900">
        <ele>365.0</ele>
        <time>2018-09-16T08:01:00Z</time>
      </trkpt>
      <trkpt lat="39.3035070" lon="-0.7260180">
        <ele>365.0</ele>
        <time>2018-09-16T08:01:01Z</time>
      </trkpt>
      <trkpt lat="39.3035070" lon="-0.7260180">
        <ele>365.0</ele>
        <time>2018-09-16T08:01:02Z</time>
      </trkpt>
      <trkpt lat="39.3034070" lon="-0.7260830">
        <ele>364.0</ele>
        <time>2018-09-16T08:01:03Z</time>
      </trkpt>
      <trkpt lat="39.3034070" lon="-0.7260830">
        <ele>364.0</ele>
        <time>2018-09-16T08:01:04Z</time>
      </trkpt>
      <trkpt lat="39.3032980" lon="-0.7261550">
        <ele>364.0</ele>
        <time>2018-09-16T08:01:05Z</time>
      </trkpt>
      <trkpt lat="39.3032420" lon="-0.7261970">
        <ele>364.0</ele>
        <time>2018-09-16T08:01:06Z</time>
      </trkpt>
      <trkpt lat="39.3031180" lon="-0.7262830">
        <ele>363.0</ele>
        <time>2018-09-16T08:01:07Z</time>
      </trkpt>
      <trkpt lat="39.3030530" lon="-0.7263230">
        <ele>363.0</ele>
        <time>2018-09-16T08:01:08Z</time>
      </trkpt>
      <trkpt lat="39.3030530" lon="-0.7263230">
        <ele>362.0</ele>
        <time>2018-09-16T08:01:09Z</time>
      </trkpt>
      <trkpt lat="39.3029120" lon="-0.7263780">
        <ele>362.0</ele>
        <time>2018-09-16T08:01:10Z</time>
      </trkpt>
      <trkpt lat="39.3029120" lon="-0.7263780">
        <ele>362.0</ele>
        <time>2018-09-16T08:01:11Z</time>
      </trkpt>
      <trkpt lat="39.3029120" lon="-0.7263780">
        <ele>362.0</ele>
        <time>2018-09-16T08:01:12Z</time>
      </trkpt>
      <trkpt lat="39.3027550" lon="-0.7263920">
        <ele>361.0</ele>
        <time>2018-09-16T08:01:13Z</time>
      </trkpt>
      <trkpt lat="39.3027550" lon="-0.7263920">
        <ele>361.0</ele>
        <time>2018-09-16T08:01:14Z</time>
      </trkpt>
      <trkpt lat="39.3026120" lon="-0.7263850">
        <ele>361.0</ele>
        <time>2018-09-16T08:01:15Z</time>
      </trkpt>
      <trkpt lat="39.3025480" lon="-0.7263920">
        <ele>361.0</ele>
        <time>2018-09-16T08:01:16Z</time>
      </trkpt>
      <trkpt lat="39.3025480" lon="-0.7263920">
        <ele>359.0</ele>
        <time>2018-09-16T08:01:17Z</time>
      </trkpt>
      <trkpt lat="39.3024420" lon="-0.7264280">
        <ele>359.0</ele>
        <time>2018-09-16T08:01:18Z</time>
      </trkpt>
      <trkpt lat="39.3024420" lon="-0.7264280">
        <ele>358.0</ele>
        <time>2018-09-16T08:01:19Z</time>
      </trkpt>
      <trkpt lat="39.3023370" lon="-0.7265530">
        <ele>358.0</ele>
        <time>2018-09-16T08:01:20Z</time>
      </trkpt>
      <trkpt lat="39.3023370" lon="-0.7265530">
        <ele>356.0</ele>
        <time>2018-09-16T08:01:21Z</time>
      </trkpt>
      <trkpt lat="39.3022970" lon="-0.7265970">
        <ele>355.0</ele>
        <time>2018-09-16T08:01:22Z</time>
      </trkpt>
      <trkpt lat="39.3022280" lon="-0.7266120">
        <ele>355.0</ele>
        <time>2018-09-16T08:01:23Z</time>
      </trkpt>
      <trkpt lat="39.3022130" lon="-0.7265890">
        <ele>353.0</ele>
        <time>2018-09-16T08:01:24Z</time>
      </trkpt>
      <trkpt lat="39.3021980" lon="-0.7265670">
        <ele>353.0</ele>
        <time>2018-09-16T08:01:25Z</time>
      </trkpt>
      <trkpt lat="39.3021850" lon="-0.7264350">
        <ele>352.0</ele>
        <time>2018-09-16T08:01:26Z</time>
      </trkpt>
      <trkpt lat="39.3021850" lon="-0.7264350">
        <ele>352.0</ele>
        <time>2018-09-16T08:01:27Z</time>
      </trkpt>
      <trkpt lat="39.3022200" lon="-0.7262770">
        <ele>351.0</ele>
        <time>2018-09-16T08:01:28Z</time>
      </trkpt>
      <trkpt lat="39.3022200" lon="-0.7262770">
        <ele>351.0</ele>
        <time>2018-09-16T08:01:29Z</time>
      </trkpt>
      <trkpt lat="39.3022200" lon="-0.7262770">
        <ele>349.0</ele>
        <time>2018-09-16T08:01:30Z</time>
      </trkpt>
      <trkpt lat="39.3022670" lon="-0.7260930">
        <ele>349.0</ele>
        <time>2018-09-16T08:01:31Z</time>
      </trkpt>
      <trkpt lat="39.3022670" lon="-0.7260930">
        <ele>349.0</ele>
        <time>2018-09-16T08:01:32Z</time>
      </trkpt>
      <trkpt lat="39.3022650" lon="-0.7258880">
        <ele>349.0</ele>
        <time>2018-09-16T08:01:33Z</time>
      </trkpt>
      <trkpt lat="39.3022650" lon="-0.7258880">
        <ele>348.0</ele>
        <time>2018-09-16T08:01:34Z</time>
      </trkpt>
      <trkpt lat="39.3022300" lon="-0.7256900">
        <ele>348.0</ele>
        <time>2018-09-16T08:01:35Z</time>
      </trkpt>
      <trkpt lat="39.3022300" lon="-0.7256900">
        <ele>348.0</ele>
        <time>2018-09-16T08:01:36Z</time>
      </trkpt>
      <trkpt lat="39.3021630" lon="-0.7255230">
        <ele>348.0</ele>
        <time>2018-09-16T08:01:37Z</time>
      </trkpt>
      <trkpt lat="39.3020830" lon="-0.7253750">
        <ele>349.0</ele>
        <time>2018-09-16T08:01:38Z</time>
      </trkpt>
      <trkpt lat="39.3020830" lon="-0.7253750">
        <ele>349.0</ele>
        <time>2018-09-16T08:01:39Z</time>
      </trkpt>
      <trkpt lat="39.3020830" lon="-0.7253750">
        <ele>350.0</ele>
        <time>2018-09-16T08:01:40Z</time>
      </trkpt>
      <trkpt lat="39.3020150" lon="-0.7252550">
        <ele>350.0</ele>
        <time>2018-09-16T08:01:41Z</time>
      </trkpt>
      <trkpt lat="39.3019550" lon="-0.7251380">
        <ele>350.0</ele>
        <time>2018-09-16T08:01:42Z</time>
      </trkpt>
      <trkpt lat="39.3019250" lon="-0.7250830">
        <ele>350.0</ele>
        <time>2018-09-16T08:01:43Z</time>
      </trkpt>
      <trkpt lat="39.3019250" lon="-0.7250830">
        <ele>351.0</ele>
        <time>2018-09-16T08:01:44Z</time>
      </trkpt>
      <trkpt lat="39.3018650" lon="-0.7249800">
        <ele>351.0</ele>
        <time>2018-09-16T08:01:45Z</time>
      </trkpt>
      <trkpt lat="39.3018650" lon="-0.7249800">
        <ele>352.0</ele>
        <time>2018-09-16T08:01:46Z</time>
      </trkpt>
      <trkpt lat="39.3018070" lon="-0.7248770">
        <ele>352.0</ele>
        <time>2018-09-16T08:01:47Z</time>
      </trkpt>
      <trkpt lat="39.3017820" lon="-0.7248270">
        <ele>352.0</ele>
        <time>2018-09-16T08:01:48Z</time>
      </trkpt>
      <trkpt lat="39.3017820" lon="-0.7248270">
        <ele>352.0</ele>
        <time>2018-09-16T08:01:49Z</time>
      </trkpt>
      <trkpt lat="39.3017820" lon="-0.7248270">
        <ele>352.0</ele>
        <time>2018-09-16T08:01:50Z</time>
      </trkpt>
      <trkpt lat="39.3017450" lon="-0.7247320">
        <ele>353.0</ele>
        <time>2018-09-16T08:01:51Z</time>
      </trkpt>
      <trkpt lat="39.3017280" lon="-0.7246880">
        <ele>353.0</ele>
        <time>2018-09-16T08:01:52Z</time>
      </trkpt>
      <trkpt lat="39.3017280" lon="-0.7246880">
        <ele>353.0</ele>
        <time>2018-09-16T08:01:53Z</time>
      </trkpt>
      <trkpt lat="39.3017120" lon="-0.7246080">
        <ele>353.0</ele>
        <time>2018-09-16T08:01:54Z</time>
      </trkpt>
      <trkpt lat="39.3017030" lon="-0.7245650">
        <ele>353.0</ele>
        <time>2018-09-16T08:01:55Z</time>
      </trkpt>
      <trkpt lat="39.3016820" lon="-0.7244730">
        <ele>353.0</ele>
        <time>2018-09-16T08:01:56Z</time>
      </trkpt>
      <trkpt lat="39.3016820" lon="-0.7244730">
        <ele>353.0</ele>
        <time>2018-09-16T08:01:57Z</time>
      </trkpt>
      <trkpt lat="39.3016520" lon="-0.7243700">
        <ele>353.0</ele>
        <time>2018-09-16T08:01:58Z</time>
      </trkpt>
      <trkpt lat="39.3016520" lon="-0.7243700">
        <ele>353.0</ele>
        <time>2018-09-16T08:01:59Z</time>
      </trkpt>
      <trkpt lat="39.3016150" lon="-0.7242620">
        <ele>353.0</ele>
        <time>2018-09-16T08:02:00Z</time>
      </trkpt>
      <trkpt lat="39.3016150" lon="-0.7242620">
        <ele>353.0</ele>
        <time>2018-09-16T08:02:01Z</time>
      </trkpt>
      <trkpt lat="39.3015950" lon="-0.7242050">
        <ele>353.0</ele>
        <time>2018-09-16T08:02:02Z</time>
      </trkpt>
      <trkpt lat="39.3015550" lon="-0.7240780">
        <ele>353.0</ele>
        <time>2018-09-16T08:02:03Z</time>
      </trkpt>
      <trkpt lat="39.3015550" lon="-0.7240780">
        <ele>353.0</ele>
        <time>2018-09-16T08:02:04Z</time>
      </trkpt>
      <trkpt lat="39.3015380" lon="-0.7240070">
        <ele>352.0</ele>
        <time>2018-09-16T08:02:05Z</time>
      </trkpt>
      <trkpt lat="39.3015380" lon="-0.7240070">
        <ele>352.0</ele>
        <time>2018-09-16T08:02:06Z</time>
      </trkpt>
      <trkpt lat="39.3015530" lon="-0.7238530">
        <ele>352.0</ele>
        <time>2018-09-16T08:02:07Z</time>
      </trkpt>
      <trkpt lat="39.3015530" lon="-0.7238530">
        <ele>352.0</ele>
        <time>2018-09-16T08:02:08Z</time>
      </trkpt>
      <trkpt lat="39.3016030" lon="-0.7237080">
        <ele>351.0</ele>
        <time>2018-09-16T08:02:09Z</time>
      </trkpt>
      <trkpt lat="39.3016030" lon="-0.7237080">
        <ele>351.0</ele>
        <time>2018-09-16T08:02:10Z</time>
      </trkpt>
      <trkpt lat="39.3016450" lon="-0.7235680">
        <ele>351.0</ele>
        <time>2018-09-16T08:02:11Z</time>
      </trkpt>
      <trkpt lat="39.3016450" lon="-0.7235680">
        <ele>351.0</ele>
        <time>2018-09-16T08:02:12Z</time>
      </trkpt>
      <trkpt lat="39.3016680" lon="-0.7234250">
        <ele>351.0</ele>
        <time>2018-09-16T08:02:13Z</time>
      </trkpt>
      <trkpt lat="39.3016420" lon="-0.7233050">
        <ele>351.0</ele>
        <time>2018-09-16T08:02:14Z</time>
      </trkpt>
      <trkpt lat="39.3016420" lon="-0.7233050">
        <ele>350.0</ele>
        <time>2018-09-16T08:02:15Z</time>
      </trkpt>
      <trkpt lat="39.3016420" lon="-0.7233050">
        <ele>350.0</ele>
        <time>2018-09-16T08:02:16Z</time>
      </trkpt>
      <trkpt lat="39.3016050" lon="-0.7232020">
        <ele>350.0</ele>
        <time>2018-09-16T08:02:17Z</time>
      </trkpt>
      <trkpt lat="39.3016050" lon="-0.7232020">
        <ele>350.0</ele>
        <time>2018-09-16T08:02:18Z</time>
      </trkpt>
      <trkpt lat="39.3015700" lon="-0.7230930">
        <ele>350.0</ele>
        <time>2018-09-16T08:02:19Z</time>
      </trkpt>
      <trkpt lat="39.3015350" lon="-0.7229870">
        <ele>350.0</ele>
        <time>2018-09-16T08:02:20Z</time>
      </trkpt>
      <trkpt lat="39.3015350" lon="-0.7229870">
        <ele>350.0</ele>
        <time>2018-09-16T08:02:21Z</time>
      </trkpt>
      <trkpt lat="39.3015350" lon="-0.7229870">
        <ele>351.0</ele>
        <time>2018-09-16T08:02:22Z</time>
      </trkpt>
      <trkpt lat="39.3015120" lon="-0.7228770">
        <ele>351.0</ele>
        <time>2018-09-16T08:02:23Z</time>
      </trkpt>
      <trkpt lat="39.3015120" lon="-0.7228770">
        <ele>351.0</ele>
        <time>2018-09-16T08:02:24Z</time>
      </trkpt>
      <trkpt lat="39.3014920" lon="-0.7227550">
        <ele>351.0</ele>
        <time>2018-09-16T08:02:25Z</time>
      </trkpt>
      <trkpt lat="39.3014920" lon="-0.7227550">
        <ele>351.0</ele>
        <time>2018-09-16T08:02:26Z</time>
      </trkpt>
      <trkpt lat="39.3014630" lon="-0.7226300">
        <ele>351.0</ele>
        <time>2018-09-16T08:02:27Z</time>
      </trkpt>
      <trkpt lat="39.3014630" lon="-0.7226300">
        <ele>351.0</ele>
        <time>2018-09-16T08:02:28Z</time>
      </trkpt>
      <trkpt lat="39.3014070" lon="-0.7225170">
        <ele>351.0</ele>
        <time>2018-09-16T08:02:29Z</time>
      </trkpt>
      <trkpt lat="39.3013720" lon="-0.7224680">
        <ele>351.0</ele>
        <time>2018-09-16T08:02:30Z</time>
      </trkpt>
      <trkpt lat="39.3013720" lon="-0.7224680">
        <ele>351.0</ele>
        <time>2018-09-16T08:02:31Z</time>
      </trkpt>
      <trkpt lat="39.3012930" lon="-0.7223800">
        <ele>351.0</ele>
        <time>2018-09-16T08:02:32Z</time>
      </trkpt>
      <trkpt lat="39.3012930" lon="-0.7223800">
        <ele>351.0</ele>
        <time>2018-09-16T08:02:33Z</time>
      </trkpt>
      <trkpt lat="39.3012030" lon="-0.7223120">
        <ele>351.0</ele>
        <time>2018-09-16T08:02:34Z</time>
      </trkpt>
      <trkpt lat="39.3012030" lon="-0.7223120">
        <ele>351.0</ele>
        <time>2018-09-16T08:02:35Z</time>
      </trkpt>
      <trkpt lat="39.3011170" lon="-0.7222320">
        <ele>351.0</ele>
        <time>2018-09-16T08:02:36Z</time>
      </trkpt>
      <trkpt lat="39.3010720" lon="-0.7221930">
        <ele>351.0</ele>
        <time>2018-09-16T08:02:37Z</time>
      </trkpt>
      <trkpt lat="39.3009920" lon="-0.7221150">
        <ele>351.0</ele>
        <time>2018-09-16T08:02:38Z</time>
      </trkpt>
      <trkpt lat="39.3009550" lon="-0.7220780">
        <ele>351.0</ele>
        <time>2018-09-16T08:02:39Z</time>
      </trkpt>
      <trkpt lat="39.3009180" lon="-0.7220420">
        <ele>351.0</ele>
        <time>2018-09-16T08:02:40Z</time>
      </trkpt>
      <trkpt lat="39.3009180" lon="-0.7220420">
        <ele>351.0</ele>
        <time>2018-09-16T08:02:41Z</time>
      </trkpt>
      <trkpt lat="39.3009180" lon="-0.7220420">
        <ele>352.0</ele>
        <time>2018-09-16T08:02:42Z</time>
      </trkpt>
      <trkpt lat="39.3008430" lon="-0.7219680">
        <ele>352.0</ele>
        <time>2018-09-16T08:02:43Z</time>
      </trkpt>
      <trkpt lat="39.3008430" lon="-0.7219680">
        <ele>352.0</ele>
        <time>2018-09-16T08:02:44Z</time>
      </trkpt>
      <trkpt lat="39.3007670" lon="-0.7218970">
        <ele>352.0</ele>
        <time>2018-09-16T08:02:45Z</time>
      </trkpt>
      <trkpt lat="39.3007270" lon="-0.7218630">
        <ele>352.0</ele>
        <time>2018-09-16T08:02:46Z</time>
      </trkpt>
      <trkpt lat="39.3006480" lon="-0.7217930">
        <ele>352.0</ele>
        <time>2018-09-16T08:02:47Z</time>
      </trkpt>
      <trkpt lat="39.3006480" lon="-0.7217930">
        <ele>352.0</ele>
        <time>2018-09-16T08:02:48Z</time>
      </trkpt>
      <trkpt lat="39.3006120" lon="-0.7217570">
        <ele>353.0</ele>
        <time>2018-09-16T08:02:49Z</time>
      </trkpt>
      <trkpt lat="39.3005400" lon="-0.7216750">
        <ele>353.0</ele>
        <time>2018-09-16T08:02:50Z</time>
      </trkpt>
      <trkpt lat="39.3005400" lon="-0.7216750">
        <ele>353.0</ele>
        <time>2018-09-16T08:02:51Z</time>
      </trkpt>
      <trkpt lat="39.3004820" lon="-0.7215830">
        <ele>353.0</ele>
        <time>2018-09-16T08:02:52Z</time>
      </trkpt>
      <trkpt lat="39.3004820" lon="-0.7215830">
        <ele>353.0</ele>
        <time>2018-09-16T08:02:53Z</time>
      </trkpt>
      <trkpt lat="39.3004820" lon="-0.7215830">
        <ele>353.0</ele>
        <time>2018-09-16T08:02:54Z</time>
      </trkpt>
      <trkpt lat="39.3004300" lon="-0.7214830">
        <ele>353.0</ele>
        <time>2018-09-16T08:02:55Z</time>
      </trkpt>
      <trkpt lat="39.3004300" lon="-0.7214830">
        <ele>353.0</ele>
        <time>2018-09-16T08:02:56Z</time>
      </trkpt>
      <trkpt lat="39.3003900" lon="-0.7213720">
        <ele>353.0</ele>
        <time>2018-09-16T08:02:57Z</time>
      </trkpt>
      <trkpt lat="39.3003730" lon="-0.7213130">
        <ele>353.0</ele>
        <time>2018-09-16T08:02:58Z</time>
      </trkpt>
      <trkpt lat="39.3003730" lon="-0.7213130">
        <ele>353.0</ele>
        <time>2018-09-16T08:02:59Z</time>
      </trkpt>
      <trkpt lat="39.3003430" lon="-0.7211930">
        <ele>353.0</ele>
        <time>2018-09-16T08:03:00Z</time>
      </trkpt>
      <trkpt lat="39.3003320" lon="-0.7211320">
        <ele>353.0</ele>
        <time>2018-09-16T08:03:01Z</time>
      </trkpt>
      <trkpt lat="39.3003100" lon="-0.7210070">
        <ele>353.0</ele>
        <time>2018-09-16T08:03:02Z</time>
      </trkpt>
      <trkpt lat="39.3003100" lon="-0.7210070">
        <ele>353.0</ele>
        <time>2018-09-16T08:03:03Z</time>
      </trkpt>
      <trkpt lat="39.3002930" lon="-0.7208800">
        <ele>353.0</ele>
        <time>2018-09-16T08:03:04Z</time>
      </trkpt>
      <trkpt lat="39.3002930" lon="-0.7208800">
        <ele>353.0</ele>
        <time>2018-09-16T08:03:05Z</time>
      </trkpt>
      <trkpt lat="39.3002930" lon="-0.7208800">
        <ele>353.0</ele>
        <time>2018-09-16T08:03:06Z</time>
      </trkpt>
      <trkpt lat="39.3002950" lon="-0.7207470">
        <ele>354.0</ele>
        <time>2018-09-16T08:03:07Z</time>
      </trkpt>
      <trkpt lat="39.3002930" lon="-0.7206150">
        <ele>354.0</ele>
        <time>2018-09-16T08:03:08Z</time>
      </trkpt>
      <trkpt lat="39.3002930" lon="-0.7206150">
        <ele>354.0</ele>
        <time>2018-09-16T08:03:09Z</time>
      </trkpt>
      <trkpt lat="39.3002930" lon="-0.7206150">
        <ele>354.0</ele>
        <time>2018-09-16T08:03:10Z</time>
      </trkpt>
      <trkpt lat="39.3002800" lon="-0.7204830">
        <ele>354.0</ele>
        <time>2018-09-16T08:03:11Z</time>
      </trkpt>
      <trkpt lat="39.3002700" lon="-0.7203500">
        <ele>354.0</ele>
        <time>2018-09-16T08:03:12Z</time>
      </trkpt>
      <trkpt lat="39.3002700" lon="-0.7203500">
        <ele>354.0</ele>
        <time>2018-09-16T08:03:13Z</time>
      </trkpt>
      <trkpt lat="39.3002630" lon="-0.7202850">
        <ele>354.0</ele>
        <time>2018-09-16T08:03:14Z</time>
      </trkpt>
      <trkpt lat="39.3002630" lon="-0.7202850">
        <ele>354.0</ele>
        <time>2018-09-16T08:03:15Z</time>
      </trkpt>
      <trkpt lat="39.3002530" lon="-0.7201600">
        <ele>354.0</ele>
        <time>2018-09-16T08:03:16Z</time>
      </trkpt>
      <trkpt lat="39.3002530" lon="-0.7201600">
        <ele>354.0</ele>
        <time>2018-09-16T08:03:17Z</time>
      </trkpt>
      <trkpt lat="39.3002450" lon="-0.7200300">
        <ele>354.0</ele>
        <time>2018-09-16T08:03:18Z</time>
      </trkpt>
      <trkpt lat="39.3002370" lon="-0.7199630">
        <ele>354.0</ele>
        <time>2018-09-16T08:03:19Z</time>
      </trkpt>
      <trkpt lat="39.3002150" lon="-0.7198350">
        <ele>354.0</ele>
        <time>2018-09-16T08:03:20Z</time>
      </trkpt>
      <trkpt lat="39.3002150" lon="-0.7198350">
        <ele>354.0</ele>
        <time>2018-09-16T08:03:21Z</time>
      </trkpt>
      <trkpt lat="39.3001850" lon="-0.7197120">
        <ele>354.0</ele>
        <time>2018-09-16T08:03:22Z</time>
      </trkpt>
      <trkpt lat="39.3001850" lon="-0.7197120">
        <ele>354.0</ele>
        <time>2018-09-16T08:03:23Z</time>
      </trkpt>
      <trkpt lat="39.3001850" lon="-0.7197120">
        <ele>354.0</ele>
        <time>2018-09-16T08:03:24Z</time>
      </trkpt>
      <trkpt lat="39.3001470" lon="-0.7195900">
        <ele>354.0</ele>
        <time>2018-09-16T08:03:25Z</time>
      </trkpt>
      <trkpt lat="39.3001470" lon="-0.7195900">
        <ele>355.0</ele>
        <time>2018-09-16T08:03:26Z</time>
      </trkpt>
      <trkpt lat="39.3000920" lon="-0.7194150">
        <ele>355.0</ele>
        <time>2018-09-16T08:03:27Z</time>
      </trkpt>
      <trkpt lat="39.3000920" lon="-0.7194150">
        <ele>355.0</ele>
        <time>2018-09-16T08:03:28Z</time>
      </trkpt>
      <trkpt lat="39.3000530" lon="-0.7193050">
        <ele>355.0</ele>
        <time>2018-09-16T08:03:29Z</time>
      </trkpt>
      <trkpt lat="39.3000530" lon="-0.7193050">
        <ele>355.0</ele>
        <time>2018-09-16T08:03:30Z</time>
      </trkpt>
      <trkpt lat="39.3000330" lon="-0.7192500">
        <ele>355.0</ele>
        <time>2018-09-16T08:03:31Z</time>
      </trkpt>
      <trkpt lat="39.2999950" lon="-0.7191430">
        <ele>356.0</ele>
        <time>2018-09-16T08:03:32Z</time>
      </trkpt>
      <trkpt lat="39.2999750" lon="-0.7190920">
        <ele>356.0</ele>
        <time>2018-09-16T08:03:33Z</time>
      </trkpt>
      <trkpt lat="39.2999570" lon="-0.7190330">
        <ele>356.0</ele>
        <time>2018-09-16T08:03:34Z</time>
      </trkpt>
      <trkpt lat="39.2999570" lon="-0.7190330">
        <ele>356.0</ele>
        <time>2018-09-16T08:03:35Z</time>
      </trkpt>
      <trkpt lat="39.2999570" lon="-0.7190330">
        <ele>357.0</ele>
        <time>2018-09-16T08:03:36Z</time>
      </trkpt>
      <trkpt lat="39.2999250" lon="-0.7189130">
        <ele>357.0</ele>
        <time>2018-09-16T08:03:37Z</time>
      </trkpt>
      <trkpt lat="39.2999250" lon="-0.7189130">
        <ele>357.0</ele>
        <time>2018-09-16T08:03:38Z</time>
      </trkpt>
      <trkpt lat="39.2998970" lon="-0.7188050">
        <ele>358.0</ele>
        <time>2018-09-16T08:03:39Z</time>
      </trkpt>
      <trkpt lat="39.2998970" lon="-0.7188050">
        <ele>358.0</ele>
        <time>2018-09-16T08:03:40Z</time>
      </trkpt>
      <trkpt lat="39.2998670" lon="-0.7187070">
        <ele>358.0</ele>
        <time>2018-09-16T08:03:41Z</time>
      </trkpt>
      <trkpt lat="39.2998670" lon="-0.7187070">
        <ele>358.0</ele>
        <time>2018-09-16T08:03:42Z</time>
      </trkpt>
      <trkpt lat="39.2998330" lon="-0.7186080">
        <ele>359.0</ele>
        <time>2018-09-16T08:03:43Z</time>
      </trkpt>
      <trkpt lat="39.2998330" lon="-0.7186080">
        <ele>359.0</ele>
        <time>2018-09-16T08:03:44Z</time>
      </trkpt>
      <trkpt lat="39.2997950" lon="-0.7185000">
        <ele>359.0</ele>
        <time>2018-09-16T08:03:45Z</time>
      </trkpt>
      <trkpt lat="39.2997950" lon="-0.7185000">
        <ele>359.0</ele>
        <time>2018-09-16T08:03:46Z</time>
      </trkpt>
      <trkpt lat="39.2997370" lon="-0.7184020">
        <ele>359.0</ele>
        <time>2018-09-16T08:03:47Z</time>
      </trkpt>
      <trkpt lat="39.2997370" lon="-0.7184020">
        <ele>359.0</ele>
        <time>2018-09-16T08:03:48Z</time>
      </trkpt>
      <trkpt lat="39.2996670" lon="-0.7183130">
        <ele>359.0</ele>
        <time>2018-09-16T08:03:49Z</time>
      </trkpt>
      <trkpt lat="39.2996670" lon="-0.7183130">
        <ele>359.0</ele>
        <time>2018-09-16T08:03:50Z</time>
      </trkpt>
      <trkpt lat="39.2996080" lon="-0.7182080">
        <ele>358.0</ele>
        <time>2018-09-16T08:03:51Z</time>
      </trkpt>
      <trkpt lat="39.2995930" lon="-0.7181480">
        <ele>358.0</ele>
        <time>2018-09-16T08:03:52Z</time>
      </trkpt>
      <trkpt lat="39.2995930" lon="-0.7181480">
        <ele>358.0</ele>
        <time>2018-09-16T08:03:53Z</time>
      </trkpt>
      <trkpt lat="39.2995670" lon="-0.7180480">
        <ele>358.0</ele>
        <time>2018-09-16T08:03:54Z</time>
      </trkpt>
      <trkpt lat="39.2995470" lon="-0.7180120">
        <ele>358.0</ele>
        <time>2018-09-16T08:03:55Z</time>
      </trkpt>
      <trkpt lat="39.2995470" lon="-0.7180120">
        <ele>358.0</ele>
        <time>2018-09-16T08:03:56Z</time>
      </trkpt>
      <trkpt lat="39.2994780" lon="-0.7179780">
        <ele>359.0</ele>
        <time>2018-09-16T08:03:57Z</time>
      </trkpt>
      <trkpt lat="39.2994780" lon="-0.7179780">
        <ele>359.0</ele>
        <time>2018-09-16T08:03:58Z</time>
      </trkpt>
      <trkpt lat="39.2993980" lon="-0.7179800">
        <ele>359.0</ele>
        <time>2018-09-16T08:03:59Z</time>
      </trkpt>
      <trkpt lat="39.2993220" lon="-0.7179850">
        <ele>359.0</ele>
        <time>2018-09-16T08:04:00Z</time>
      </trkpt>
      <trkpt lat="39.2993220" lon="-0.7179850">
        <ele>359.0</ele>
        <time>2018-09-16T08:04:01Z</time>
      </trkpt>
      <trkpt lat="39.2992520" lon="-0.7179750">
        <ele>359.0</ele>
        <time>2018-09-16T08:04:02Z</time>
      </trkpt>
      <trkpt lat="39.2992520" lon="-0.7179750">
        <ele>360.0</ele>
        <time>2018-09-16T08:04:03Z</time>
      </trkpt>
      <trkpt lat="39.2992520" lon="-0.7179750">
        <ele>360.0</ele>
        <time>2018-09-16T08:04:04Z</time>
      </trkpt>
      <trkpt lat="39.2991850" lon="-0.7179480">
        <ele>360.0</ele>
        <time>2018-09-16T08:04:05Z</time>
      </trkpt>
      <trkpt lat="39.2991850" lon="-0.7179480">
        <ele>360.0</ele>
        <time>2018-09-16T08:04:06Z</time>
      </trkpt>
      <trkpt lat="39.2991180" lon="-0.7179130">
        <ele>360.0</ele>
        <time>2018-09-16T08:04:07Z</time>
      </trkpt>
      <trkpt lat="39.2990470" lon="-0.7178870">
        <ele>360.0</ele>
        <time>2018-09-16T08:04:08Z</time>
      </trkpt>
      <trkpt lat="39.2990470" lon="-0.7178870">
        <ele>360.0</ele>
        <time>2018-09-16T08:04:09Z</time>
      </trkpt>
      <trkpt lat="39.2990470" lon="-0.7178870">
        <ele>360.0</ele>
        <time>2018-09-16T08:04:10Z</time>
      </trkpt>
      <trkpt lat="39.2989770" lon="-0.7178800">
        <ele>360.0</ele>
        <time>2018-09-16T08:04:11Z</time>
      </trkpt>
      <trkpt lat="39.2989200" lon="-0.7178870">
        <ele>360.0</ele>
        <time>2018-09-16T08:04:12Z</time>
      </trkpt>
      <trkpt lat="39.2989200" lon="-0.7178870">
        <ele>360.0</ele>
        <time>2018-09-16T08:04:13Z</time>
      </trkpt>
      <trkpt lat="39.2988650" lon="-0.7178970">
        <ele>360.0</ele>
        <time>2018-09-16T08:04:14Z</time>
      </trkpt>
      <trkpt lat="39.2988650" lon="-0.7178970">
        <ele>360.0</ele>
        <time>2018-09-16T08:04:15Z</time>
      </trkpt>
      <trkpt lat="39.2988350" lon="-0.7178980">
        <ele>360.0</ele>
        <time>2018-09-16T08:04:16Z</time>
      </trkpt>
      <trkpt lat="39.2988350" lon="-0.7178980">
        <ele>360.0</ele>
        <time>2018-09-16T08:04:17Z</time>
      </trkpt>
      <trkpt lat="39.2987670" lon="-0.7178970">
        <ele>360.0</ele>
        <time>2018-09-16T08:04:18Z</time>
      </trkpt>
      <trkpt lat="39.2987320" lon="-0.7178880">
        <ele>360.0</ele>
        <time>2018-09-16T08:04:19Z</time>
      </trkpt>
      <trkpt lat="39.2986670" lon="-0.7178570">
        <ele>361.0</ele>
        <time>2018-09-16T08:04:20Z</time>
      </trkpt>
      <trkpt lat="39.2986670" lon="-0.7178570">
        <ele>361.0</ele>
        <time>2018-09-16T08:04:21Z</time>
      </trkpt>
      <trkpt lat="39.2986020" lon="-0.7178220">
        <ele>361.0</ele>
        <time>2018-09-16T08:04:22Z</time>
      </trkpt>
      <trkpt lat="39.2986020" lon="-0.7178220">
        <ele>361.0</ele>
        <time>2018-09-16T08:04:23Z</time>
      </trkpt>
      <trkpt lat="39.2986020" lon="-0.7178220">
        <ele>361.0</ele>
        <time>2018-09-16T08:04:24Z</time>
      </trkpt>
      <trkpt lat="39.2985450" lon="-0.7177850">
        <ele>361.0</ele>
        <time>2018-09-16T08:04:25Z</time>
      </trkpt>
      <trkpt lat="39.2985450" lon="-0.7177850">
        <ele>362.0</ele>
        <time>2018-09-16T08:04:26Z</time>
      </trkpt>
      <trkpt lat="39.2984850" lon="-0.7177420">
        <ele>362.0</ele>
        <time>2018-09-16T08:04:27Z</time>
      </trkpt>
      <trkpt lat="39.2984200" lon="-0.7176950">
        <ele>362.0</ele>
        <time>2018-09-16T08:04:28Z</time>
      </trkpt>
      <trkpt lat="39.2984200" lon="-0.7176950">
        <ele>362.0</ele>
        <time>2018-09-16T08:04:29Z</time>
      </trkpt>
      <trkpt lat="39.2984200" lon="-0.7176950">
        <ele>362.0</ele>
        <time>2018-09-16T08:04:30Z</time>
      </trkpt>
      <trkpt lat="39.2983570" lon="-0.7176380">
        <ele>362.0</ele>
        <time>2018-09-16T08:04:31Z</time>
      </trkpt>
      <trkpt lat="39.2983300" lon="-0.7176080">
        <ele>362.0</ele>
        <time>2018-09-16T08:04:32Z</time>
      </trkpt>
      <trkpt lat="39.2983300" lon="-0.7176080">
        <ele>362.0</ele>
        <time>2018-09-16T08:04:33Z</time>
      </trkpt>
      <trkpt lat="39.2982800" lon="-0.7175470">
        <ele>362.0</ele>
        <time>2018-09-16T08:04:34Z</time>
      </trkpt>
      <trkpt lat="39.2982800" lon="-0.7175470">
        <ele>363.0</ele>
        <time>2018-09-16T08:04:35Z</time>
      </trkpt>
      <trkpt lat="39.2982370" lon="-0.7174800">
        <ele>363.0</ele>
        <time>2018-09-16T08:04:36Z</time>
      </trkpt>
      <trkpt lat="39.2982370" lon="-0.7174800">
        <ele>363.0</ele>
        <time>2018-09-16T08:04:37Z</time>
      </trkpt>
      <trkpt lat="39.2981980" lon="-0.7174030">
        <ele>363.0</ele>
        <time>2018-09-16T08:04:38Z</time>
      </trkpt>
      <trkpt lat="39.2981980" lon="-0.7174030">
        <ele>363.0</ele>
        <time>2018-09-16T08:04:39Z</time>
      </trkpt>
      <trkpt lat="39.2981580" lon="-0.7173250">
        <ele>363.0</ele>
        <time>2018-09-16T08:04:40Z</time>
      </trkpt>
      <trkpt lat="39.2981250" lon="-0.7172370">
        <ele>363.0</ele>
        <time>2018-09-16T08:04:41Z</time>
      </trkpt>
      <trkpt lat="39.2981250" lon="-0.7172370">
        <ele>363.0</ele>
        <time>2018-09-16T08:04:42Z</time>
      </trkpt>
      <trkpt lat="39.2981250" lon="-0.7172370">
        <ele>363.0</ele>
        <time>2018-09-16T08:04:43Z</time>
      </trkpt>
      <trkpt lat="39.2980830" lon="-0.7171570">
        <ele>363.0</ele>
        <time>2018-09-16T08:04:44Z</time>
      </trkpt>
      <trkpt lat="39.2980670" lon="-0.7171200">
        <ele>364.0</ele>
        <time>2018-09-16T08:04:45Z</time>
      </trkpt>
      <trkpt lat="39.2980670" lon="-0.7171200">
        <ele>364.0</ele>
        <time>2018-09-16T08:04:46Z</time>
      </trkpt>
      <trkpt lat="39.2980330" lon="-0.7170470">
        <ele>364.0</ele>
        <time>2018-09-16T08:04:47Z</time>
      </trkpt>
      <trkpt lat="39.2980330" lon="-0.7170470">
        <ele>364.0</ele>
        <time>2018-09-16T08:04:48Z</time>
      </trkpt>
      <trkpt lat="39.2980020" lon="-0.7169700">
        <ele>364.0</ele>
        <time>2018-09-16T08:04:49Z</time>
      </trkpt>
      <trkpt lat="39.2979800" lon="-0.7168850">
        <ele>364.0</ele>
        <time>2018-09-16T08:04:50Z</time>
      </trkpt>
      <trkpt lat="39.2979800" lon="-0.7168850">
        <ele>364.0</ele>
        <time>2018-09-16T08:04:51Z</time>
      </trkpt>
      <trkpt lat="39.2979800" lon="-0.7168850">
        <ele>364.0</ele>
        <time>2018-09-16T08:04:52Z</time>
      </trkpt>
      <trkpt lat="39.2979620" lon="-0.7167980">
        <ele>365.0</ele>
        <time>2018-09-16T08:04:53Z</time>
      </trkpt>
      <trkpt lat="39.2979520" lon="-0.7167570">
        <ele>365.0</ele>
        <time>2018-09-16T08:04:54Z</time>
      </trkpt>
      <trkpt lat="39.2979420" lon="-0.7167130">
        <ele>365.0</ele>
        <time>2018-09-16T08:04:55Z</time>
      </trkpt>
      <trkpt lat="39.2979250" lon="-0.7166250">
        <ele>365.0</ele>
        <time>2018-09-16T08:04:56Z</time>
      </trkpt>
      <trkpt lat="39.2979220" lon="-0.7165780">
        <ele>365.0</ele>
        <time>2018-09-16T08:04:57Z</time>
      </trkpt>
      <trkpt lat="39.2979220" lon="-0.7165780">
        <ele>365.0</ele>
        <time>2018-09-16T08:04:58Z</time>
      </trkpt>
      <trkpt lat="39.2979220" lon="-0.7165780">
        <ele>365.0</ele>
        <time>2018-09-16T08:04:59Z</time>
      </trkpt>
      <trkpt lat="39.2979100" lon="-0.7164500">
        <ele>366.0</ele>
        <time>2018-09-16T08:05:00Z</time>
      </trkpt>
      <trkpt lat="39.2979100" lon="-0.7164500">
        <ele>366.0</ele>
        <time>2018-09-16T08:05:01Z</time>
      </trkpt>
      <trkpt lat="39.2979100" lon="-0.7164500">
        <ele>366.0</ele>
        <time>2018-09-16T08:05:02Z</time>
      </trkpt>
      <trkpt lat="39.2978950" lon="-0.7163950">
        <ele>366.0</ele>
        <time>2018-09-16T08:05:03Z</time>
      </trkpt>
      <trkpt lat="39.2978920" lon="-0.7163650">
        <ele>366.0</ele>
        <time>2018-09-16T08:05:04Z</time>
      </trkpt>
      <trkpt lat="39.2978920" lon="-0.7163650">
        <ele>366.0</ele>
        <time>2018-09-16T08:05:05Z</time>
      </trkpt>
      <trkpt lat="39.2978950" lon="-0.7163000">
        <ele>366.0</ele>
        <time>2018-09-16T08:05:06Z</time>
      </trkpt>
      <trkpt lat="39.2978980" lon="-0.7162620">
        <ele>366.0</ele>
        <time>2018-09-16T08:05:07Z</time>
      </trkpt>
      <trkpt lat="39.2978980" lon="-0.7162620">
        <ele>366.0</ele>
        <time>2018-09-16T08:05:08Z</time>
      </trkpt>
      <trkpt lat="39.2979070" lon="-0.7161870">
        <ele>366.0</ele>
        <time>2018-09-16T08:05:09Z</time>
      </trkpt>
      <trkpt lat="39.2979220" lon="-0.7161070">
        <ele>366.0</ele>
        <time>2018-09-16T08:05:10Z</time>
      </trkpt>
      <trkpt lat="39.2979220" lon="-0.7161070">
        <ele>366.0</ele>
        <time>2018-09-16T08:05:11Z</time>
      </trkpt>
      <trkpt lat="39.2979300" lon="-0.7160680">
        <ele>366.0</ele>
        <time>2018-09-16T08:05:12Z</time>
      </trkpt>
      <trkpt lat="39.2979580" lon="-0.7159870">
        <ele>366.0</ele>
        <time>2018-09-16T08:05:13Z</time>
      </trkpt>
      <trkpt lat="39.2979580" lon="-0.7159870">
        <ele>367.0</ele>
        <time>2018-09-16T08:05:14Z</time>
      </trkpt>
      <trkpt lat="39.2979580" lon="-0.7159870">
        <ele>367.0</ele>
        <time>2018-09-16T08:05:15Z</time>
      </trkpt>
      <trkpt lat="39.2979700" lon="-0.7159270">
        <ele>367.0</ele>
        <time>2018-09-16T08:05:16Z</time>
      </trkpt>
      <trkpt lat="39.2979700" lon="-0.7159270">
        <ele>367.0</ele>
        <time>2018-09-16T08:05:17Z</time>
      </trkpt>
      <trkpt lat="39.2979750" lon="-0.7158850">
        <ele>367.0</ele>
        <time>2018-09-16T08:05:18Z</time>
      </trkpt>
      <trkpt lat="39.2979820" lon="-0.7158580">
        <ele>367.0</ele>
        <time>2018-09-16T08:05:19Z</time>
      </trkpt>
      <trkpt lat="39.2979820" lon="-0.7158580">
        <ele>367.0</ele>
        <time>2018-09-16T08:05:20Z</time>
      </trkpt>
      <trkpt lat="39.2979970" lon="-0.7158030">
        <ele>367.0</ele>
        <time>2018-09-16T08:05:21Z</time>
      </trkpt>
      <trkpt lat="39.2980070" lon="-0.7157800">
        <ele>367.0</ele>
        <time>2018-09-16T08:05:22Z</time>
      </trkpt>
      <trkpt lat="39.2980070" lon="-0.7157800">
        <ele>367.0</ele>
        <time>2018-09-16T08:05:23Z</time>
      </trkpt>
      <trkpt lat="39.2980150" lon="-0.7157370">
        <ele>367.0</ele>
        <time>2018-09-16T08:07:40Z</time>
      </trkpt>
      <trkpt lat="39.2980150" lon="-0.7157370">
        <ele>367.0</ele>
        <time>2018-09-16T08:07:41Z</time>
      </trkpt>
      <trkpt lat="39.2979950" lon="-0.7157470">
        <ele>367.0</ele>
        <time>2018-09-16T08:07:42Z</time>
      </trkpt>
      <trkpt lat="39.2979950" lon="-0.7157470">
        <ele>367.0</ele>
        <time>2018-09-16T08:07:43Z</time>
      </trkpt>
      <trkpt lat="39.2979880" lon="-0.7157450">
        <ele>367.0</ele>
        <time>2018-09-16T08:07:44Z</time>
      </trkpt>
      <trkpt lat="39.2979880" lon="-0.7157450">
        <ele>367.0</ele>
        <time>2018-09-16T08:07:45Z</time>
      </trkpt>
      <trkpt lat="39.2979650" lon="-0.7157700">
        <ele>368.0</ele>
        <time>2018-09-16T08:07:46Z</time>
      </trkpt>
      <trkpt lat="39.2979520" lon="-0.7157870">
        <ele>368.0</ele>
        <time>2018-09-16T08:07:47Z</time>
      </trkpt>
      <trkpt lat="39.2979370" lon="-0.7158070">
        <ele>368.0</ele>
        <time>2018-09-16T08:07:48Z</time>
      </trkpt>
      <trkpt lat="39.2979370" lon="-0.7158070">
        <ele>368.0</ele>
        <time>2018-09-16T08:07:49Z</time>
      </trkpt>
      <trkpt lat="39.2979170" lon="-0.7158530">
        <ele>368.0</ele>
        <time>2018-09-16T08:07:50Z</time>
      </trkpt>
      <trkpt lat="39.2979070" lon="-0.7158820">
        <ele>368.0</ele>
        <time>2018-09-16T08:07:51Z</time>
      </trkpt>
      <trkpt lat="39.2979070" lon="-0.7158820">
        <ele>369.0</ele>
        <time>2018-09-16T08:07:52Z</time>
      </trkpt>
      <trkpt lat="39.2978830" lon="-0.7159500">
        <ele>369.0</ele>
        <time>2018-09-16T08:07:53Z</time>
      </trkpt>
      <trkpt lat="39.2978720" lon="-0.7159880">
        <ele>369.0</ele>
        <time>2018-09-16T08:07:54Z</time>
      </trkpt>
      <trkpt lat="39.2978720" lon="-0.7159880">
        <ele>369.0</ele>
        <time>2018-09-16T08:07:55Z</time>
      </trkpt>
      <trkpt lat="39.2978530" lon="-0.7160580">
        <ele>369.0</ele>
        <time>2018-09-16T08:07:56Z</time>
      </trkpt>
      <trkpt lat="39.2978530" lon="-0.7160580">
        <ele>369.0</ele>
        <time>2018-09-16T08:07:57Z</time>
      </trkpt>
      <trkpt lat="39.2978380" lon="-0.7161250">
        <ele>369.0</ele>
        <time>2018-09-16T08:07:58Z</time>
      </trkpt>
      <trkpt lat="39.2978380" lon="-0.7161250">
        <ele>369.0</ele>
        <time>2018-09-16T08:07:59Z</time>
      </trkpt>
      <trkpt lat="39.2978280" lon="-0.7161930">
        <ele>369.0</ele>
        <time>2018-09-16T08:08:00Z</time>
      </trkpt>
      <trkpt lat="39.2978280" lon="-0.7161930">
        <ele>369.0</ele>
        <time>2018-09-16T08:08:01Z</time>
      </trkpt>
      <trkpt lat="39.2978180" lon="-0.7162650">
        <ele>369.0</ele>
        <time>2018-09-16T08:08:02Z</time>
      </trkpt>
      <trkpt lat="39.2978150" lon="-0.7163020">
        <ele>369.0</ele>
        <time>2018-09-16T08:08:03Z</time>
      </trkpt>
      <trkpt lat="39.2978150" lon="-0.7163020">
        <ele>370.0</ele>
        <time>2018-09-16T08:08:04Z</time>
      </trkpt>
      <trkpt lat="39.2978070" lon="-0.7163750">
        <ele>370.0</ele>
        <time>2018-09-16T08:08:05Z</time>
      </trkpt>
      <trkpt lat="39.2978030" lon="-0.7164150">
        <ele>370.0</ele>
        <time>2018-09-16T08:08:06Z</time>
      </trkpt>
      <trkpt lat="39.2978000" lon="-0.7164630">
        <ele>371.0</ele>
        <time>2018-09-16T08:08:07Z</time>
      </trkpt>
      <trkpt lat="39.2978000" lon="-0.7164630">
        <ele>371.0</ele>
        <time>2018-09-16T08:08:08Z</time>
      </trkpt>
      <trkpt lat="39.2977970" lon="-0.7165670">
        <ele>372.0</ele>
        <time>2018-09-16T08:08:09Z</time>
      </trkpt>
      <trkpt lat="39.2977980" lon="-0.7166170">
        <ele>372.0</ele>
        <time>2018-09-16T08:08:10Z</time>
      </trkpt>
      <trkpt lat="39.2977980" lon="-0.7166170">
        <ele>373.0</ele>
        <time>2018-09-16T08:08:11Z</time>
      </trkpt>
      <trkpt lat="39.2978070" lon="-0.7167100">
        <ele>373.0</ele>
        <time>2018-09-16T08:08:12Z</time>
      </trkpt>
      <trkpt lat="39.2978070" lon="-0.7167100">
        <ele>373.0</ele>
        <time>2018-09-16T08:08:13Z</time>
      </trkpt>
      <trkpt lat="39.2978150" lon="-0.7168030">
        <ele>373.0</ele>
        <time>2018-09-16T08:08:14Z</time>
      </trkpt>
      <trkpt lat="39.2978150" lon="-0.7168030">
        <ele>374.0</ele>
        <time>2018-09-16T08:08:15Z</time>
      </trkpt>
      <trkpt lat="39.2978220" lon="-0.7168920">
        <ele>374.0</ele>
        <time>2018-09-16T08:08:16Z</time>
      </trkpt>
      <trkpt lat="39.2978230" lon="-0.7169350">
        <ele>374.0</ele>
        <time>2018-09-16T08:08:17Z</time>
      </trkpt>
      <trkpt lat="39.2978280" lon="-0.7169780">
        <ele>374.0</ele>
        <time>2018-09-16T08:08:18Z</time>
      </trkpt>
      <trkpt lat="39.2978280" lon="-0.7169780">
        <ele>375.0</ele>
        <time>2018-09-16T08:08:19Z</time>
      </trkpt>
      <trkpt lat="39.2978380" lon="-0.7170630">
        <ele>375.0</ele>
        <time>2018-09-16T08:08:20Z</time>
      </trkpt>
      <trkpt lat="39.2978380" lon="-0.7170630">
        <ele>375.0</ele>
        <time>2018-09-16T08:08:21Z</time>
      </trkpt>
      <trkpt lat="39.2978450" lon="-0.7171470">
        <ele>375.0</ele>
        <time>2018-09-16T08:08:22Z</time>
      </trkpt>
      <trkpt lat="39.2978450" lon="-0.7171470">
        <ele>376.0</ele>
        <time>2018-09-16T08:08:23Z</time>
      </trkpt>
      <trkpt lat="39.2978520" lon="-0.7172180">
        <ele>376.0</ele>
        <time>2018-09-16T08:08:24Z</time>
      </trkpt>
      <trkpt lat="39.2978520" lon="-0.7172460">
        <ele>376.0</ele>
        <time>2018-09-16T08:08:25Z</time>
      </trkpt>
      <trkpt lat="39.2978520" lon="-0.7172750">
        <ele>376.0</ele>
        <time>2018-09-16T08:08:26Z</time>
      </trkpt>
      <trkpt lat="39.2978520" lon="-0.7172750">
        <ele>376.0</ele>
        <time>2018-09-16T08:08:27Z</time>
      </trkpt>
      <trkpt lat="39.2978500" lon="-0.7173300">
        <ele>376.0</ele>
        <time>2018-09-16T08:08:28Z</time>
      </trkpt>
      <trkpt lat="39.2978470" lon="-0.7173570">
        <ele>377.0</ele>
        <time>2018-09-16T08:08:29Z</time>
      </trkpt>
      <trkpt lat="39.2978480" lon="-0.7173830">
        <ele>377.0</ele>
        <time>2018-09-16T08:08:30Z</time>
      </trkpt>
      <trkpt lat="39.2978480" lon="-0.7173830">
        <ele>377.0</ele>
        <time>2018-09-16T08:08:31Z</time>
      </trkpt>
      <trkpt lat="39.2978600" lon="-0.7174380">
        <ele>377.0</ele>
        <time>2018-09-16T08:08:32Z</time>
      </trkpt>
      <trkpt lat="39.2978600" lon="-0.7174380">
        <ele>377.0</ele>
        <time>2018-09-16T08:08:33Z</time>
      </trkpt>
      <trkpt lat="39.2978720" lon="-0.7175000">
        <ele>378.0</ele>
        <time>2018-09-16T08:08:34Z</time>
      </trkpt>
      <trkpt lat="39.2978720" lon="-0.7175000">
        <ele>378.0</ele>
        <time>2018-09-16T08:08:35Z</time>
      </trkpt>
      <trkpt lat="39.2978820" lon="-0.7175630">
        <ele>378.0</ele>
        <time>2018-09-16T08:08:36Z</time>
      </trkpt>
      <trkpt lat="39.2978820" lon="-0.7175630">
        <ele>378.0</ele>
        <time>2018-09-16T08:08:37Z</time>
      </trkpt>
      <trkpt lat="39.2978970" lon="-0.7176180">
        <ele>378.0</ele>
        <time>2018-09-16T08:08:38Z</time>
      </trkpt>
      <trkpt lat="39.2978970" lon="-0.7176180">
        <ele>378.0</ele>
        <time>2018-09-16T08:08:39Z</time>
      </trkpt>
      <trkpt lat="39.2979170" lon="-0.7176770">
        <ele>379.0</ele>
        <time>2018-09-16T08:08:40Z</time>
      </trkpt>
      <trkpt lat="39.2979280" lon="-0.7177070">
        <ele>379.0</ele>
        <time>2018-09-16T08:08:41Z</time>
      </trkpt>
      <trkpt lat="39.2979280" lon="-0.7177070">
        <ele>379.0</ele>
        <time>2018-09-16T08:08:42Z</time>
      </trkpt>
      <trkpt lat="39.2979620" lon="-0.7177650">
        <ele>379.0</ele>
        <time>2018-09-16T08:08:43Z</time>
      </trkpt>
      <trkpt lat="39.2979620" lon="-0.7177650">
        <ele>379.0</ele>
        <time>2018-09-16T08:08:44Z</time>
      </trkpt>
      <trkpt lat="39.2979920" lon="-0.7178220">
        <ele>379.0</ele>
        <time>2018-09-16T08:08:45Z</time>
      </trkpt>
      <trkpt lat="39.2979920" lon="-0.7178220">
        <ele>381.0</ele>
        <time>2018-09-16T08:08:46Z</time>
      </trkpt>
      <trkpt lat="39.2980280" lon="-0.7178680">
        <ele>381.0</ele>
        <time>2018-09-16T08:08:47Z</time>
      </trkpt>
      <trkpt lat="39.2980480" lon="-0.7178920">
        <ele>381.0</ele>
        <time>2018-09-16T08:08:48Z</time>
      </trkpt>
      <trkpt lat="39.2980480" lon="-0.7178920">
        <ele>381.0</ele>
        <time>2018-09-16T08:08:49Z</time>
      </trkpt>
      <trkpt lat="39.2980930" lon="-0.7179320">
        <ele>381.0</ele>
        <time>2018-09-16T08:08:50Z</time>
      </trkpt>
      <trkpt lat="39.2981180" lon="-0.7179480">
        <ele>381.0</ele>
        <time>2018-09-16T08:08:51Z</time>
      </trkpt>
      <trkpt lat="39.2981180" lon="-0.7179480">
        <ele>381.0</ele>
        <time>2018-09-16T08:08:52Z</time>
      </trkpt>
      <trkpt lat="39.2981670" lon="-0.7179850">
        <ele>381.0</ele>
        <time>2018-09-16T08:08:53Z</time>
      </trkpt>
      <trkpt lat="39.2981920" lon="-0.7180050">
        <ele>381.0</ele>
        <time>2018-09-16T08:08:54Z</time>
      </trkpt>
      <trkpt lat="39.2981920" lon="-0.7180050">
        <ele>381.0</ele>
        <time>2018-09-16T08:08:55Z</time>
      </trkpt>
      <trkpt lat="39.2982430" lon="-0.7180420">
        <ele>383.0</ele>
        <time>2018-09-16T08:08:56Z</time>
      </trkpt>
      <trkpt lat="39.2982430" lon="-0.7180420">
        <ele>383.0</ele>
        <time>2018-09-16T08:08:57Z</time>
      </trkpt>
      <trkpt lat="39.2982930" lon="-0.7180880">
        <ele>383.0</ele>
        <time>2018-09-16T08:08:58Z</time>
      </trkpt>
      <trkpt lat="39.2982930" lon="-0.7180880">
        <ele>383.0</ele>
        <time>2018-09-16T08:08:59Z</time>
      </trkpt>
      <trkpt lat="39.2983370" lon="-0.7181450">
        <ele>384.0</ele>
        <time>2018-09-16T08:09:00Z</time>
      </trkpt>
      <trkpt lat="39.2983370" lon="-0.7181450">
        <ele>384.0</ele>
        <time>2018-09-16T08:09:01Z</time>
      </trkpt>
      <trkpt lat="39.2983700" lon="-0.7182100">
        <ele>384.0</ele>
        <time>2018-09-16T08:09:02Z</time>
      </trkpt>
      <trkpt lat="39.2983850" lon="-0.7182430">
        <ele>385.0</ele>
        <time>2018-09-16T08:09:03Z</time>
      </trkpt>
      <trkpt lat="39.2983850" lon="-0.7182430">
        <ele>385.0</ele>
        <time>2018-09-16T08:09:04Z</time>
      </trkpt>
      <trkpt lat="39.2984030" lon="-0.7183170">
        <ele>385.0</ele>
        <time>2018-09-16T08:09:05Z</time>
      </trkpt>
      <trkpt lat="39.2984100" lon="-0.7183600">
        <ele>385.0</ele>
        <time>2018-09-16T08:09:06Z</time>
      </trkpt>
      <trkpt lat="39.2984100" lon="-0.7183600">
        <ele>386.0</ele>
        <time>2018-09-16T08:09:07Z</time>
      </trkpt>
      <trkpt lat="39.2984170" lon="-0.7184420">
        <ele>386.0</ele>
        <time>2018-09-16T08:09:08Z</time>
      </trkpt>
      <trkpt lat="39.2984170" lon="-0.7184420">
        <ele>386.0</ele>
        <time>2018-09-16T08:09:09Z</time>
      </trkpt>
      <trkpt lat="39.2984130" lon="-0.7185230">
        <ele>386.0</ele>
        <time>2018-09-16T08:09:10Z</time>
      </trkpt>
      <trkpt lat="39.2984130" lon="-0.7185230">
        <ele>387.0</ele>
        <time>2018-09-16T08:09:11Z</time>
      </trkpt>
      <trkpt lat="39.2984000" lon="-0.7186050">
        <ele>387.0</ele>
        <time>2018-09-16T08:09:12Z</time>
      </trkpt>
      <trkpt lat="39.2984000" lon="-0.7186050">
        <ele>387.0</ele>
        <time>2018-09-16T08:09:13Z</time>
      </trkpt>
      <trkpt lat="39.2983750" lon="-0.7186830">
        <ele>387.0</ele>
        <time>2018-09-16T08:09:14Z</time>
      </trkpt>
      <trkpt lat="39.2983580" lon="-0.7187220">
        <ele>387.0</ele>
        <time>2018-09-16T08:09:15Z</time>
      </trkpt>
      <trkpt lat="39.2983580" lon="-0.7187220">
        <ele>387.0</ele>
        <time>2018-09-16T08:09:16Z</time>
      </trkpt>
      <trkpt lat="39.2983200" lon="-0.7187900">
        <ele>388.0</ele>
        <time>2018-09-16T08:09:17Z</time>
      </trkpt>
      <trkpt lat="39.2982980" lon="-0.7188220">
        <ele>388.0</ele>
        <time>2018-09-16T08:09:18Z</time>
      </trkpt>
      <trkpt lat="39.2982980" lon="-0.7188220">
        <ele>388.0</ele>
        <time>2018-09-16T08:09:19Z</time>
      </trkpt>
      <trkpt lat="39.2982450" lon="-0.7188750">
        <ele>388.0</ele>
        <time>2018-09-16T08:09:20Z</time>
      </trkpt>
      <trkpt lat="39.2982450" lon="-0.7188750">
        <ele>389.0</ele>
        <time>2018-09-16T08:09:21Z</time>
      </trkpt>
      <trkpt lat="39.2981880" lon="-0.7189220">
        <ele>389.0</ele>
        <time>2018-09-16T08:09:22Z</time>
      </trkpt>
      <trkpt lat="39.2981880" lon="-0.7189220">
        <ele>389.0</ele>
        <time>2018-09-16T08:09:23Z</time>
      </trkpt>
      <trkpt lat="39.2981280" lon="-0.7189630">
        <ele>389.0</ele>
        <time>2018-09-16T08:09:24Z</time>
      </trkpt>
      <trkpt lat="39.2981280" lon="-0.7189630">
        <ele>390.0</ele>
        <time>2018-09-16T08:09:25Z</time>
      </trkpt>
      <trkpt lat="39.2980700" lon="-0.7190050">
        <ele>390.0</ele>
        <time>2018-09-16T08:09:26Z</time>
      </trkpt>
      <trkpt lat="39.2980700" lon="-0.7190050">
        <ele>390.0</ele>
        <time>2018-09-16T08:09:27Z</time>
      </trkpt>
      <trkpt lat="39.2980120" lon="-0.7190430">
        <ele>390.0</ele>
        <time>2018-09-16T08:09:28Z</time>
      </trkpt>
      <trkpt lat="39.2980120" lon="-0.7190430">
        <ele>390.0</ele>
        <time>2018-09-16T08:09:29Z</time>
      </trkpt>
      <trkpt lat="39.2979550" lon="-0.7190820">
        <ele>390.0</ele>
        <time>2018-09-16T08:09:30Z</time>
      </trkpt>
      <trkpt lat="39.2979550" lon="-0.7190820">
        <ele>390.0</ele>
        <time>2018-09-16T08:09:31Z</time>
      </trkpt>
      <trkpt lat="39.2978980" lon="-0.7191170">
        <ele>390.0</ele>
        <time>2018-09-16T08:09:32Z</time>
      </trkpt>
      <trkpt lat="39.2978980" lon="-0.7191170">
        <ele>390.0</ele>
        <time>2018-09-16T08:09:33Z</time>
      </trkpt>
      <trkpt lat="39.2978420" lon="-0.7191520">
        <ele>390.0</ele>
        <time>2018-09-16T08:09:34Z</time>
      </trkpt>
      <trkpt lat="39.2978150" lon="-0.7191680">
        <ele>390.0</ele>
        <time>2018-09-16T08:09:35Z</time>
      </trkpt>
      <trkpt lat="39.2977870" lon="-0.7191870">
        <ele>391.0</ele>
        <time>2018-09-16T08:09:36Z</time>
      </trkpt>
      <trkpt lat="39.2977870" lon="-0.7191870">
        <ele>391.0</ele>
        <time>2018-09-16T08:09:37Z</time>
      </trkpt>
      <trkpt lat="39.2977280" lon="-0.7192220">
        <ele>391.0</ele>
        <time>2018-09-16T08:09:38Z</time>
      </trkpt>
      <trkpt lat="39.2977280" lon="-0.7192220">
        <ele>391.0</ele>
        <time>2018-09-16T08:09:39Z</time>
      </trkpt>
      <trkpt lat="39.2976720" lon="-0.7192580">
        <ele>392.0</ele>
        <time>2018-09-16T08:09:40Z</time>
      </trkpt>
      <trkpt lat="39.2976720" lon="-0.7192580">
        <ele>392.0</ele>
        <time>2018-09-16T08:09:41Z</time>
      </trkpt>
      <trkpt lat="39.2976150" lon="-0.7192920">
        <ele>392.0</ele>
        <time>2018-09-16T08:09:42Z</time>
      </trkpt>
      <trkpt lat="39.2976150" lon="-0.7192920">
        <ele>392.0</ele>
        <time>2018-09-16T08:09:43Z</time>
      </trkpt>
      <trkpt lat="39.2975530" lon="-0.7193180">
        <ele>393.0</ele>
        <time>2018-09-16T08:09:44Z</time>
      </trkpt>
      <trkpt lat="39.2975220" lon="-0.7193270">
        <ele>393.0</ele>
        <time>2018-09-16T08:09:45Z</time>
      </trkpt>
      <trkpt lat="39.2975220" lon="-0.7193270">
        <ele>393.0</ele>
        <time>2018-09-16T08:09:46Z</time>
      </trkpt>
      <trkpt lat="39.2974570" lon="-0.7193400">
        <ele>393.0</ele>
        <time>2018-09-16T08:09:47Z</time>
      </trkpt>
      <trkpt lat="39.2974220" lon="-0.7193380">
        <ele>394.0</ele>
        <time>2018-09-16T08:09:48Z</time>
      </trkpt>
      <trkpt lat="39.2973900" lon="-0.7193350">
        <ele>394.0</ele>
        <time>2018-09-16T08:09:49Z</time>
      </trkpt>
      <trkpt lat="39.2973900" lon="-0.7193350">
        <ele>394.0</ele>
        <time>2018-09-16T08:09:50Z</time>
      </trkpt>
      <trkpt lat="39.2973250" lon="-0.7193180">
        <ele>394.0</ele>
        <time>2018-09-16T08:09:51Z</time>
      </trkpt>
      <trkpt lat="39.2973250" lon="-0.7193180">
        <ele>395.0</ele>
        <time>2018-09-16T08:09:52Z</time>
      </trkpt>
      <trkpt lat="39.2972600" lon="-0.7193000">
        <ele>395.0</ele>
        <time>2018-09-16T08:09:53Z</time>
      </trkpt>
      <trkpt lat="39.2972270" lon="-0.7192920">
        <ele>396.0</ele>
        <time>2018-09-16T08:09:54Z</time>
      </trkpt>
      <trkpt lat="39.2972270" lon="-0.7192920">
        <ele>396.0</ele>
        <time>2018-09-16T08:09:55Z</time>
      </trkpt>
      <trkpt lat="39.2971620" lon="-0.7192800">
        <ele>396.0</ele>
        <time>2018-09-16T08:09:56Z</time>
      </trkpt>
      <trkpt lat="39.2971620" lon="-0.7192800">
        <ele>396.0</ele>
        <time>2018-09-16T08:09:57Z</time>
      </trkpt>
      <trkpt lat="39.2971020" lon="-0.7192900">
        <ele>396.0</ele>
        <time>2018-09-16T08:09:58Z</time>
      </trkpt>
      <trkpt lat="39.2971020" lon="-0.7192900">
        <ele>396.0</ele>
        <time>2018-09-16T08:09:59Z</time>
      </trkpt>
      <trkpt lat="39.2970420" lon="-0.7193130">
        <ele>396.0</ele>
        <time>2018-09-16T08:10:00Z</time>
      </trkpt>
      <trkpt lat="39.2970130" lon="-0.7193330">
        <ele>397.0</ele>
        <time>2018-09-16T08:10:01Z</time>
      </trkpt>
      <trkpt lat="39.2970130" lon="-0.7193330">
        <ele>397.0</ele>
        <time>2018-09-16T08:10:02Z</time>
      </trkpt>
      <trkpt lat="39.2969620" lon="-0.7193820">
        <ele>397.0</ele>
        <time>2018-09-16T08:10:03Z</time>
      </trkpt>
      <trkpt lat="39.2969400" lon="-0.7194120">
        <ele>397.0</ele>
        <time>2018-09-16T08:10:04Z</time>
      </trkpt>
      <trkpt lat="39.2969400" lon="-0.7194120">
        <ele>397.0</ele>
        <time>2018-09-16T08:10:05Z</time>
      </trkpt>
      <trkpt lat="39.2969020" lon="-0.7194750">
        <ele>397.0</ele>
        <time>2018-09-16T08:10:06Z</time>
      </trkpt>
      <trkpt lat="39.2969020" lon="-0.7194750">
        <ele>398.0</ele>
        <time>2018-09-16T08:10:07Z</time>
      </trkpt>
      <trkpt lat="39.2968670" lon="-0.7195420">
        <ele>398.0</ele>
        <time>2018-09-16T08:10:08Z</time>
      </trkpt>
      <trkpt lat="39.2968670" lon="-0.7195420">
        <ele>398.0</ele>
        <time>2018-09-16T08:10:09Z</time>
      </trkpt>
      <trkpt lat="39.2968300" lon="-0.7196030">
        <ele>398.0</ele>
        <time>2018-09-16T08:10:10Z</time>
      </trkpt>
      <trkpt lat="39.2968300" lon="-0.7196030">
        <ele>399.0</ele>
        <time>2018-09-16T08:10:11Z</time>
      </trkpt>
      <trkpt lat="39.2967900" lon="-0.7196600">
        <ele>399.0</ele>
        <time>2018-09-16T08:10:12Z</time>
      </trkpt>
      <trkpt lat="39.2967900" lon="-0.7196600">
        <ele>399.0</ele>
        <time>2018-09-16T08:10:13Z</time>
      </trkpt>
      <trkpt lat="39.2967450" lon="-0.7197080">
        <ele>399.0</ele>
        <time>2018-09-16T08:10:14Z</time>
      </trkpt>
      <trkpt lat="39.2967220" lon="-0.7197330">
        <ele>399.0</ele>
        <time>2018-09-16T08:10:15Z</time>
      </trkpt>
      <trkpt lat="39.2967220" lon="-0.7197330">
        <ele>399.0</ele>
        <time>2018-09-16T08:10:16Z</time>
      </trkpt>
      <trkpt lat="39.2966750" lon="-0.7197730">
        <ele>399.0</ele>
        <time>2018-09-16T08:10:17Z</time>
      </trkpt>
      <trkpt lat="39.2966500" lon="-0.7197920">
        <ele>400.0</ele>
        <time>2018-09-16T08:10:18Z</time>
      </trkpt>
      <trkpt lat="39.2966500" lon="-0.7197920">
        <ele>400.0</ele>
        <time>2018-09-16T08:10:19Z</time>
      </trkpt>
      <trkpt lat="39.2965980" lon="-0.7198220">
        <ele>400.0</ele>
        <time>2018-09-16T08:10:20Z</time>
      </trkpt>
      <trkpt lat="39.2965980" lon="-0.7198220">
        <ele>400.0</ele>
        <time>2018-09-16T08:10:21Z</time>
      </trkpt>
      <trkpt lat="39.2965450" lon="-0.7198430">
        <ele>401.0</ele>
        <time>2018-09-16T08:10:22Z</time>
      </trkpt>
      <trkpt lat="39.2965450" lon="-0.7198430">
        <ele>401.0</ele>
        <time>2018-09-16T08:10:23Z</time>
      </trkpt>
      <trkpt lat="39.2964920" lon="-0.7198580">
        <ele>401.0</ele>
        <time>2018-09-16T08:10:24Z</time>
      </trkpt>
      <trkpt lat="39.2964920" lon="-0.7198580">
        <ele>402.0</ele>
        <time>2018-09-16T08:10:25Z</time>
      </trkpt>
      <trkpt lat="39.2964330" lon="-0.7198630">
        <ele>402.0</ele>
        <time>2018-09-16T08:10:26Z</time>
      </trkpt>
      <trkpt lat="39.2964330" lon="-0.7198630">
        <ele>402.0</ele>
        <time>2018-09-16T08:10:27Z</time>
      </trkpt>
      <trkpt lat="39.2963780" lon="-0.7198570">
        <ele>402.0</ele>
        <time>2018-09-16T08:10:28Z</time>
      </trkpt>
      <trkpt lat="39.2963780" lon="-0.7198570">
        <ele>402.0</ele>
        <time>2018-09-16T08:10:29Z</time>
      </trkpt>
      <trkpt lat="39.2963220" lon="-0.7198520">
        <ele>403.0</ele>
        <time>2018-09-16T08:10:30Z</time>
      </trkpt>
      <trkpt lat="39.2963220" lon="-0.7198520">
        <ele>403.0</ele>
        <time>2018-09-16T08:10:31Z</time>
      </trkpt>
      <trkpt lat="39.2962650" lon="-0.7198380">
        <ele>403.0</ele>
        <time>2018-09-16T08:10:32Z</time>
      </trkpt>
      <trkpt lat="39.2962370" lon="-0.7198280">
        <ele>403.0</ele>
        <time>2018-09-16T08:10:33Z</time>
      </trkpt>
      <trkpt lat="39.2962370" lon="-0.7198280">
        <ele>404.0</ele>
        <time>2018-09-16T08:10:34Z</time>
      </trkpt>
      <trkpt lat="39.2961820" lon="-0.7198030">
        <ele>404.0</ele>
        <time>2018-09-16T08:10:35Z</time>
      </trkpt>
      <trkpt lat="39.2961550" lon="-0.7197880">
        <ele>404.0</ele>
        <time>2018-09-16T08:10:36Z</time>
      </trkpt>
      <trkpt lat="39.2961550" lon="-0.7197880">
        <ele>404.0</ele>
        <time>2018-09-16T08:10:37Z</time>
      </trkpt>
      <trkpt lat="39.2960980" lon="-0.7197550">
        <ele>405.0</ele>
        <time>2018-09-16T08:10:38Z</time>
      </trkpt>
      <trkpt lat="39.2960980" lon="-0.7197550">
        <ele>405.0</ele>
        <time>2018-09-16T08:10:39Z</time>
      </trkpt>
      <trkpt lat="39.2960420" lon="-0.7197220">
        <ele>405.0</ele>
        <time>2018-09-16T08:10:40Z</time>
      </trkpt>
      <trkpt lat="39.2960130" lon="-0.7197070">
        <ele>405.0</ele>
        <time>2018-09-16T08:10:41Z</time>
      </trkpt>
      <trkpt lat="39.2960130" lon="-0.7197070">
        <ele>405.0</ele>
        <time>2018-09-16T08:10:42Z</time>
      </trkpt>
      <trkpt lat="39.2959570" lon="-0.7196730">
        <ele>405.0</ele>
        <time>2018-09-16T08:10:43Z</time>
      </trkpt>
      <trkpt lat="39.2959300" lon="-0.7196570">
        <ele>405.0</ele>
        <time>2018-09-16T08:10:44Z</time>
      </trkpt>
      <trkpt lat="39.2959300" lon="-0.7196570">
        <ele>405.0</ele>
        <time>2018-09-16T08:10:45Z</time>
      </trkpt>
      <trkpt lat="39.2958770" lon="-0.7196270">
        <ele>405.0</ele>
        <time>2018-09-16T08:10:46Z</time>
      </trkpt>
      <trkpt lat="39.2958770" lon="-0.7196270">
        <ele>407.0</ele>
        <time>2018-09-16T08:10:47Z</time>
      </trkpt>
      <trkpt lat="39.2958250" lon="-0.7195950">
        <ele>407.0</ele>
        <time>2018-09-16T08:10:48Z</time>
      </trkpt>
      <trkpt lat="39.2958250" lon="-0.7195950">
        <ele>407.0</ele>
        <time>2018-09-16T08:10:49Z</time>
      </trkpt>
      <trkpt lat="39.2957720" lon="-0.7195680">
        <ele>408.0</ele>
        <time>2018-09-16T08:10:50Z</time>
      </trkpt>
      <trkpt lat="39.2957470" lon="-0.7195520">
        <ele>408.0</ele>
        <time>2018-09-16T08:10:51Z</time>
      </trkpt>
      <trkpt lat="39.2957470" lon="-0.7195520">
        <ele>408.0</ele>
        <time>2018-09-16T08:10:52Z</time>
      </trkpt>
      <trkpt lat="39.2957000" lon="-0.7195200">
        <ele>408.0</ele>
        <time>2018-09-16T08:10:53Z</time>
      </trkpt>
      <trkpt lat="39.2956770" lon="-0.7195080">
        <ele>409.0</ele>
        <time>2018-09-16T08:10:54Z</time>
      </trkpt>
      <trkpt lat="39.2956770" lon="-0.7195080">
        <ele>409.0</ele>
        <time>2018-09-16T08:10:55Z</time>
      </trkpt>
      <trkpt lat="39.2956300" lon="-0.7194830">
        <ele>409.0</ele>
        <time>2018-09-16T08:10:56Z</time>
      </trkpt>
      <trkpt lat="39.2956080" lon="-0.7194700">
        <ele>409.0</ele>
        <time>2018-09-16T08:10:57Z</time>
      </trkpt>
      <trkpt lat="39.2956080" lon="-0.7194700">
        <ele>409.0</ele>
        <time>2018-09-16T08:10:58Z</time>
      </trkpt>
      <trkpt lat="39.2955600" lon="-0.7194430">
        <ele>409.0</ele>
        <time>2018-09-16T08:10:59Z</time>
      </trkpt>
      <trkpt lat="39.2955350" lon="-0.7194330">
        <ele>410.0</ele>
        <time>2018-09-16T08:11:00Z</time>
      </trkpt>
      <trkpt lat="39.2955350" lon="-0.7194330">
        <ele>410.0</ele>
        <time>2018-09-16T08:11:01Z</time>
      </trkpt>
      <trkpt lat="39.2954800" lon="-0.7194200">
        <ele>410.0</ele>
        <time>2018-09-16T08:11:02Z</time>
      </trkpt>
      <trkpt lat="39.2954520" lon="-0.7194170">
        <ele>410.0</ele>
        <time>2018-09-16T08:11:03Z</time>
      </trkpt>
      <trkpt lat="39.2954520" lon="-0.7194170">
        <ele>410.0</ele>
        <time>2018-09-16T08:11:04Z</time>
      </trkpt>
      <trkpt lat="39.2953980" lon="-0.7194220">
        <ele>410.0</ele>
        <time>2018-09-16T08:11:05Z</time>
      </trkpt>
      <trkpt lat="39.2953730" lon="-0.7194280">
        <ele>410.0</ele>
        <time>2018-09-16T08:11:06Z</time>
      </trkpt>
      <trkpt lat="39.2953730" lon="-0.7194280">
        <ele>410.0</ele>
        <time>2018-09-16T08:11:07Z</time>
      </trkpt>
      <trkpt lat="39.2953230" lon="-0.7194430">
        <ele>410.0</ele>
        <time>2018-09-16T08:11:08Z</time>
      </trkpt>
      <trkpt lat="39.2953020" lon="-0.7194530">
        <ele>410.0</ele>
        <time>2018-09-16T08:11:09Z</time>
      </trkpt>
      <trkpt lat="39.2953020" lon="-0.7194530">
        <ele>411.0</ele>
        <time>2018-09-16T08:11:10Z</time>
      </trkpt>
      <trkpt lat="39.2952750" lon="-0.7194750">
        <ele>411.0</ele>
        <time>2018-09-16T08:11:11Z</time>
      </trkpt>
      <trkpt lat="39.2952720" lon="-0.7194750">
        <ele>411.0</ele>
        <time>2018-09-16T08:11:12Z</time>
      </trkpt>
      <trkpt lat="39.2952720" lon="-0.7194750">
        <ele>411.0</ele>
        <time>2018-09-16T08:11:13Z</time>
      </trkpt>
      <trkpt lat="39.2952730" lon="-0.7194800">
        <ele>411.0</ele>
        <time>2018-09-16T08:11:14Z</time>
      </trkpt>
      <trkpt lat="39.2952730" lon="-0.7194800">
        <ele>411.0</ele>
        <time>2018-09-16T08:11:15Z</time>
      </trkpt>
      <trkpt lat="39.2952730" lon="-0.7194800">
        <ele>411.0</ele>
        <time>2018-09-16T08:11:16Z</time>
      </trkpt>
      <trkpt lat="39.2952730" lon="-0.7194800">
        <ele>411.0</ele>
        <time>2018-09-16T08:11:17Z</time>
      </trkpt>
      <trkpt lat="39.2952730" lon="-0.7194800">
        <ele>411.0</ele>
        <time>2018-09-16T08:11:18Z</time>
      </trkpt>
      <trkpt lat="39.2952730" lon="-0.7194800">
        <ele>411.0</ele>
        <time>2018-09-16T08:11:19Z</time>
      </trkpt>
      <trkpt lat="39.2952730" lon="-0.7194800">
        <ele>411.0</ele>
        <time>2018-09-16T08:11:20Z</time>
      </trkpt>
      <trkpt lat="39.2952730" lon="-0.7194800">
        <ele>411.0</ele>
        <time>2018-09-16T08:11:21Z</time>
      </trkpt>
      <trkpt lat="39.2952730" lon="-0.7194800">
        <ele>411.0</ele>
        <time>2018-09-16T08:11:22Z</time>
      </trkpt>
      <trkpt lat="39.2952730" lon="-0.7194800">
        <ele>411.0</ele>
        <time>2018-09-16T08:11:23Z</time>
      </trkpt>
      <trkpt lat="39.2952730" lon="-0.7194800">
        <ele>411.0</ele>
        <time>2018-09-16T08:11:24Z</time>
      </trkpt>
      <trkpt lat="39.2952730" lon="-0.7194800">
        <ele>411.0</ele>
        <time>2018-09-16T08:11:25Z</time>
      </trkpt>
      <trkpt lat="39.2952730" lon="-0.7194800">
        <ele>411.0</ele>
        <time>2018-09-16T08:11:26Z</time>
      </trkpt>
      <trkpt lat="39.2952730" lon="-0.7194800">
        <ele>411.0</ele>
        <time>2018-09-16T08:11:27Z</time>
      </trkpt>
      <trkpt lat="39.2952730" lon="-0.7194800">
        <ele>411.0</ele>
        <time>2018-09-16T08:11:28Z</time>
      </trkpt>
      <trkpt lat="39.2952470" lon="-0.7194900">
        <ele>411.0</ele>
        <time>2018-09-16T08:11:29Z</time>
      </trkpt>
      <trkpt lat="39.2952280" lon="-0.7195030">
        <ele>411.0</ele>
        <time>2018-09-16T08:11:30Z</time>
      </trkpt>
      <trkpt lat="39.2952280" lon="-0.7195030">
        <ele>412.0</ele>
        <time>2018-09-16T08:11:31Z</time>
      </trkpt>
      <trkpt lat="39.2951880" lon="-0.7195320">
        <ele>412.0</ele>
        <time>2018-09-16T08:11:32Z</time>
      </trkpt>
      <trkpt lat="39.2951630" lon="-0.7195500">
        <ele>412.0</ele>
        <time>2018-09-16T08:11:33Z</time>
      </trkpt>
      <trkpt lat="39.2951380" lon="-0.7195680">
        <ele>412.0</ele>
        <time>2018-09-16T08:11:34Z</time>
      </trkpt>
      <trkpt lat="39.2951130" lon="-0.7195920">
        <ele>412.0</ele>
        <time>2018-09-16T08:11:35Z</time>
      </trkpt>
      <trkpt lat="39.2951130" lon="-0.7195920">
        <ele>412.0</ele>
        <time>2018-09-16T08:11:36Z</time>
      </trkpt>
      <trkpt lat="39.2950630" lon="-0.7196430">
        <ele>412.0</ele>
        <time>2018-09-16T08:11:37Z</time>
      </trkpt>
      <trkpt lat="39.2950630" lon="-0.7196430">
        <ele>413.0</ele>
        <time>2018-09-16T08:11:38Z</time>
      </trkpt>
      <trkpt lat="39.2950180" lon="-0.7197020">
        <ele>413.0</ele>
        <time>2018-09-16T08:11:39Z</time>
      </trkpt>
      <trkpt lat="39.2949970" lon="-0.7197300">
        <ele>414.0</ele>
        <time>2018-09-16T08:11:40Z</time>
      </trkpt>
      <trkpt lat="39.2949970" lon="-0.7197300">
        <ele>414.0</ele>
        <time>2018-09-16T08:11:41Z</time>
      </trkpt>
      <trkpt lat="39.2949600" lon="-0.7197900">
        <ele>414.0</ele>
        <time>2018-09-16T08:11:42Z</time>
      </trkpt>
      <trkpt lat="39.2949600" lon="-0.7197900">
        <ele>414.0</ele>
        <time>2018-09-16T08:11:43Z</time>
      </trkpt>
      <trkpt lat="39.2949300" lon="-0.7198470">
        <ele>415.0</ele>
        <time>2018-09-16T08:11:44Z</time>
      </trkpt>
      <trkpt lat="39.2949300" lon="-0.7198470">
        <ele>415.0</ele>
        <time>2018-09-16T08:11:45Z</time>
      </trkpt>
      <trkpt lat="39.2949030" lon="-0.7199030">
        <ele>415.0</ele>
        <time>2018-09-16T08:11:46Z</time>
      </trkpt>
      <trkpt lat="39.2948900" lon="-0.7199330">
        <ele>416.0</ele>
        <time>2018-09-16T08:11:47Z</time>
      </trkpt>
      <trkpt lat="39.2948780" lon="-0.7199630">
        <ele>416.0</ele>
        <time>2018-09-16T08:11:48Z</time>
      </trkpt>
      <trkpt lat="39.2948780" lon="-0.7199630">
        <ele>416.0</ele>
        <time>2018-09-16T08:11:49Z</time>
      </trkpt>
      <trkpt lat="39.2948600" lon="-0.7200220">
        <ele>416.0</ele>
        <time>2018-09-16T08:11:50Z</time>
      </trkpt>
      <trkpt lat="39.2948600" lon="-0.7200220">
        <ele>417.0</ele>
        <time>2018-09-16T08:11:51Z</time>
      </trkpt>
      <trkpt lat="39.2948420" lon="-0.7200820">
        <ele>417.0</ele>
        <time>2018-09-16T08:11:52Z</time>
      </trkpt>
      <trkpt lat="39.2948420" lon="-0.7200820">
        <ele>417.0</ele>
        <time>2018-09-16T08:11:53Z</time>
      </trkpt>
      <trkpt lat="39.2948250" lon="-0.7201520">
        <ele>417.0</ele>
        <time>2018-09-16T08:11:54Z</time>
      </trkpt>
      <trkpt lat="39.2948250" lon="-0.7201520">
        <ele>418.0</ele>
        <time>2018-09-16T08:11:55Z</time>
      </trkpt>
      <trkpt lat="39.2948020" lon="-0.7202250">
        <ele>418.0</ele>
        <time>2018-09-16T08:11:56Z</time>
      </trkpt>
      <trkpt lat="39.2948020" lon="-0.7202250">
        <ele>419.0</ele>
        <time>2018-09-16T08:11:57Z</time>
      </trkpt>
      <trkpt lat="39.2947720" lon="-0.7202930">
        <ele>419.0</ele>
        <time>2018-09-16T08:11:58Z</time>
      </trkpt>
      <trkpt lat="39.2947720" lon="-0.7202930">
        <ele>419.0</ele>
        <time>2018-09-16T08:11:59Z</time>
      </trkpt>
      <trkpt lat="39.2947350" lon="-0.7203580">
        <ele>419.0</ele>
        <time>2018-09-16T08:12:00Z</time>
      </trkpt>
      <trkpt lat="39.2947350" lon="-0.7203580">
        <ele>420.0</ele>
        <time>2018-09-16T08:12:01Z</time>
      </trkpt>
      <trkpt lat="39.2946870" lon="-0.7204150">
        <ele>420.0</ele>
        <time>2018-09-16T08:12:02Z</time>
      </trkpt>
      <trkpt lat="39.2946620" lon="-0.7204400">
        <ele>420.0</ele>
        <time>2018-09-16T08:12:03Z</time>
      </trkpt>
      <trkpt lat="39.2946620" lon="-0.7204400">
        <ele>420.0</ele>
        <time>2018-09-16T08:12:04Z</time>
      </trkpt>
      <trkpt lat="39.2946050" lon="-0.7204800">
        <ele>420.0</ele>
        <time>2018-09-16T08:12:05Z</time>
      </trkpt>
      <trkpt lat="39.2945770" lon="-0.7204950">
        <ele>422.0</ele>
        <time>2018-09-16T08:12:06Z</time>
      </trkpt>
      <trkpt lat="39.2945770" lon="-0.7204950">
        <ele>422.0</ele>
        <time>2018-09-16T08:12:07Z</time>
      </trkpt>
      <trkpt lat="39.2945170" lon="-0.7205170">
        <ele>422.0</ele>
        <time>2018-09-16T08:12:08Z</time>
      </trkpt>
      <trkpt lat="39.2945170" lon="-0.7205170">
        <ele>422.0</ele>
        <time>2018-09-16T08:12:09Z</time>
      </trkpt>
      <trkpt lat="39.2944580" lon="-0.7205380">
        <ele>422.0</ele>
        <time>2018-09-16T08:12:10Z</time>
      </trkpt>
      <trkpt lat="39.2944580" lon="-0.7205380">
        <ele>423.0</ele>
        <time>2018-09-16T08:12:11Z</time>
      </trkpt>
      <trkpt lat="39.2944030" lon="-0.7205600">
        <ele>423.0</ele>
        <time>2018-09-16T08:12:12Z</time>
      </trkpt>
      <trkpt lat="39.2944030" lon="-0.7205600">
        <ele>423.0</ele>
        <time>2018-09-16T08:12:13Z</time>
      </trkpt>
      <trkpt lat="39.2943520" lon="-0.7205850">
        <ele>424.0</ele>
        <time>2018-09-16T08:12:14Z</time>
      </trkpt>
      <trkpt lat="39.2943270" lon="-0.7206000">
        <ele>424.0</ele>
        <time>2018-09-16T08:12:15Z</time>
      </trkpt>
      <trkpt lat="39.2943020" lon="-0.7206170">
        <ele>424.0</ele>
        <time>2018-09-16T08:12:16Z</time>
      </trkpt>
      <trkpt lat="39.2942770" lon="-0.7206320">
        <ele>424.0</ele>
        <time>2018-09-16T08:12:17Z</time>
      </trkpt>
      <trkpt lat="39.2942770" lon="-0.7206320">
        <ele>425.0</ele>
        <time>2018-09-16T08:12:18Z</time>
      </trkpt>
      <trkpt lat="39.2942320" lon="-0.7206670">
        <ele>425.0</ele>
        <time>2018-09-16T08:12:19Z</time>
      </trkpt>
      <trkpt lat="39.2942320" lon="-0.7206670">
        <ele>425.0</ele>
        <time>2018-09-16T08:12:20Z</time>
      </trkpt>
      <trkpt lat="39.2941900" lon="-0.7207070">
        <ele>425.0</ele>
        <time>2018-09-16T08:12:21Z</time>
      </trkpt>
      <trkpt lat="39.2941900" lon="-0.7207070">
        <ele>425.0</ele>
        <time>2018-09-16T08:12:22Z</time>
      </trkpt>
      <trkpt lat="39.2941480" lon="-0.7207550">
        <ele>425.0</ele>
        <time>2018-09-16T08:12:23Z</time>
      </trkpt>
      <trkpt lat="39.2941280" lon="-0.7207780">
        <ele>425.0</ele>
        <time>2018-09-16T08:12:24Z</time>
      </trkpt>
      <trkpt lat="39.2941280" lon="-0.7207780">
        <ele>425.0</ele>
        <time>2018-09-16T08:12:25Z</time>
      </trkpt>
      <trkpt lat="39.2940870" lon="-0.7208280">
        <ele>426.0</ele>
        <time>2018-09-16T08:12:26Z</time>
      </trkpt>
      <trkpt lat="39.2940870" lon="-0.7208280">
        <ele>426.0</ele>
        <time>2018-09-16T08:12:27Z</time>
      </trkpt>
      <trkpt lat="39.2940470" lon="-0.7208700">
        <ele>426.0</ele>
        <time>2018-09-16T08:12:28Z</time>
      </trkpt>
      <trkpt lat="39.2940470" lon="-0.7208700">
        <ele>426.0</ele>
        <time>2018-09-16T08:12:29Z</time>
      </trkpt>
      <trkpt lat="39.2940050" lon="-0.7209100">
        <ele>427.0</ele>
        <time>2018-09-16T08:12:30Z</time>
      </trkpt>
      <trkpt lat="39.2940050" lon="-0.7209100">
        <ele>427.0</ele>
        <time>2018-09-16T08:12:31Z</time>
      </trkpt>
      <trkpt lat="39.2939650" lon="-0.7209420">
        <ele>427.0</ele>
        <time>2018-09-16T08:12:32Z</time>
      </trkpt>
      <trkpt lat="39.2939650" lon="-0.7209420">
        <ele>427.0</ele>
        <time>2018-09-16T08:12:33Z</time>
      </trkpt>
      <trkpt lat="39.2939170" lon="-0.7209650">
        <ele>428.0</ele>
        <time>2018-09-16T08:12:34Z</time>
      </trkpt>
      <trkpt lat="39.2939170" lon="-0.7209650">
        <ele>428.0</ele>
        <time>2018-09-16T08:12:35Z</time>
      </trkpt>
      <trkpt lat="39.2938650" lon="-0.7209850">
        <ele>428.0</ele>
        <time>2018-09-16T08:12:36Z</time>
      </trkpt>
      <trkpt lat="39.2938650" lon="-0.7209850">
        <ele>428.0</ele>
        <time>2018-09-16T08:12:37Z</time>
      </trkpt>
      <trkpt lat="39.2938130" lon="-0.7209900">
        <ele>429.0</ele>
        <time>2018-09-16T08:12:38Z</time>
      </trkpt>
      <trkpt lat="39.2938130" lon="-0.7209900">
        <ele>429.0</ele>
        <time>2018-09-16T08:12:39Z</time>
      </trkpt>
      <trkpt lat="39.2937630" lon="-0.7209800">
        <ele>429.0</ele>
        <time>2018-09-16T08:12:40Z</time>
      </trkpt>
      <trkpt lat="39.2937380" lon="-0.7209720">
        <ele>429.0</ele>
        <time>2018-09-16T08:12:41Z</time>
      </trkpt>
      <trkpt lat="39.2937380" lon="-0.7209720">
        <ele>430.0</ele>
        <time>2018-09-16T08:12:42Z</time>
      </trkpt>
      <trkpt lat="39.2936870" lon="-0.7209530">
        <ele>430.0</ele>
        <time>2018-09-16T08:12:43Z</time>
      </trkpt>
      <trkpt lat="39.2936870" lon="-0.7209530">
        <ele>430.0</ele>
        <time>2018-09-16T08:12:44Z</time>
      </trkpt>
      <trkpt lat="39.2936320" lon="-0.7209380">
        <ele>430.0</ele>
        <time>2018-09-16T08:12:45Z</time>
      </trkpt>
      <trkpt lat="39.2936030" lon="-0.7209300">
        <ele>431.0</ele>
        <time>2018-09-16T08:12:46Z</time>
      </trkpt>
      <trkpt lat="39.2936030" lon="-0.7209300">
        <ele>431.0</ele>
        <time>2018-09-16T08:12:47Z</time>
      </trkpt>
      <trkpt lat="39.2935500" lon="-0.7209120">
        <ele>431.0</ele>
        <time>2018-09-16T08:12:48Z</time>
      </trkpt>
      <trkpt lat="39.2935500" lon="-0.7209120">
        <ele>431.0</ele>
        <time>2018-09-16T08:12:49Z</time>
      </trkpt>
      <trkpt lat="39.2934930" lon="-0.7208970">
        <ele>432.0</ele>
        <time>2018-09-16T08:12:50Z</time>
      </trkpt>
      <trkpt lat="39.2934630" lon="-0.7208900">
        <ele>432.0</ele>
        <time>2018-09-16T08:12:51Z</time>
      </trkpt>
      <trkpt lat="39.2934330" lon="-0.7208870">
        <ele>432.0</ele>
        <time>2018-09-16T08:12:52Z</time>
      </trkpt>
      <trkpt lat="39.2934330" lon="-0.7208870">
        <ele>432.0</ele>
        <time>2018-09-16T08:12:53Z</time>
      </trkpt>
      <trkpt lat="39.2933750" lon="-0.7208850">
        <ele>432.0</ele>
        <time>2018-09-16T08:12:54Z</time>
      </trkpt>
      <trkpt lat="39.2933470" lon="-0.7208820">
        <ele>432.0</ele>
        <time>2018-09-16T08:12:55Z</time>
      </trkpt>
      <trkpt lat="39.2933470" lon="-0.7208820">
        <ele>432.0</ele>
        <time>2018-09-16T08:12:56Z</time>
      </trkpt>
      <trkpt lat="39.2932900" lon="-0.7208800">
        <ele>432.0</ele>
        <time>2018-09-16T08:12:57Z</time>
      </trkpt>
      <trkpt lat="39.2932620" lon="-0.7208800">
        <ele>433.0</ele>
        <time>2018-09-16T08:12:58Z</time>
      </trkpt>
      <trkpt lat="39.2932620" lon="-0.7208800">
        <ele>433.0</ele>
        <time>2018-09-16T08:12:59Z</time>
      </trkpt>
      <trkpt lat="39.2932070" lon="-0.7208800">
        <ele>433.0</ele>
        <time>2018-09-16T08:13:00Z</time>
      </trkpt>
      <trkpt lat="39.2931820" lon="-0.7208820">
        <ele>433.0</ele>
        <time>2018-09-16T08:13:01Z</time>
      </trkpt>
      <trkpt lat="39.2931570" lon="-0.7208870">
        <ele>433.0</ele>
        <time>2018-09-16T08:13:02Z</time>
      </trkpt>
      <trkpt lat="39.2931570" lon="-0.7208870">
        <ele>433.0</ele>
        <time>2018-09-16T08:13:03Z</time>
      </trkpt>
      <trkpt lat="39.2931050" lon="-0.7209000">
        <ele>433.0</ele>
        <time>2018-09-16T08:13:04Z</time>
      </trkpt>
      <trkpt lat="39.2931050" lon="-0.7209000">
        <ele>433.0</ele>
        <time>2018-09-16T08:13:05Z</time>
      </trkpt>
      <trkpt lat="39.2930550" lon="-0.7209230">
        <ele>434.0</ele>
        <time>2018-09-16T08:13:06Z</time>
      </trkpt>
      <trkpt lat="39.2930300" lon="-0.7209370">
        <ele>434.0</ele>
        <time>2018-09-16T08:13:07Z</time>
      </trkpt>
      <trkpt lat="39.2930300" lon="-0.7209370">
        <ele>434.0</ele>
        <time>2018-09-16T08:13:08Z</time>
      </trkpt>
      <trkpt lat="39.2929880" lon="-0.7209670">
        <ele>434.0</ele>
        <time>2018-09-16T08:13:09Z</time>
      </trkpt>
      <trkpt lat="39.2929670" lon="-0.7209850">
        <ele>434.0</ele>
        <time>2018-09-16T08:13:10Z</time>
      </trkpt>
      <trkpt lat="39.2929670" lon="-0.7209850">
        <ele>434.0</ele>
        <time>2018-09-16T08:13:11Z</time>
      </trkpt>
      <trkpt lat="39.2929200" lon="-0.7210170">
        <ele>434.0</ele>
        <time>2018-09-16T08:13:12Z</time>
      </trkpt>
      <trkpt lat="39.2928970" lon="-0.7210300">
        <ele>436.0</ele>
        <time>2018-09-16T08:13:13Z</time>
      </trkpt>
      <trkpt lat="39.2928970" lon="-0.7210300">
        <ele>436.0</ele>
        <time>2018-09-16T08:13:14Z</time>
      </trkpt>
      <trkpt lat="39.2928450" lon="-0.7210550">
        <ele>436.0</ele>
        <time>2018-09-16T08:13:15Z</time>
      </trkpt>
      <trkpt lat="39.2928180" lon="-0.7210680">
        <ele>436.0</ele>
        <time>2018-09-16T08:13:16Z</time>
      </trkpt>
      <trkpt lat="39.2927920" lon="-0.7210780">
        <ele>436.0</ele>
        <time>2018-09-16T08:13:17Z</time>
      </trkpt>
      <trkpt lat="39.2927920" lon="-0.7210780">
        <ele>436.0</ele>
        <time>2018-09-16T08:13:18Z</time>
      </trkpt>
      <trkpt lat="39.2927380" lon="-0.7211000">
        <ele>437.0</ele>
        <time>2018-09-16T08:13:19Z</time>
      </trkpt>
      <trkpt lat="39.2927380" lon="-0.7211000">
        <ele>437.0</ele>
        <time>2018-09-16T08:13:20Z</time>
      </trkpt>
      <trkpt lat="39.2926820" lon="-0.7211100">
        <ele>437.0</ele>
        <time>2018-09-16T08:13:21Z</time>
      </trkpt>
      <trkpt lat="39.2926820" lon="-0.7211100">
        <ele>437.0</ele>
        <time>2018-09-16T08:13:22Z</time>
      </trkpt>
      <trkpt lat="39.2926250" lon="-0.7211130">
        <ele>438.0</ele>
        <time>2018-09-16T08:13:23Z</time>
      </trkpt>
      <trkpt lat="39.2925950" lon="-0.7211130">
        <ele>438.0</ele>
        <time>2018-09-16T08:13:24Z</time>
      </trkpt>
      <trkpt lat="39.2925950" lon="-0.7211130">
        <ele>438.0</ele>
        <time>2018-09-16T08:13:25Z</time>
      </trkpt>
      <trkpt lat="39.2925350" lon="-0.7211070">
        <ele>438.0</ele>
        <time>2018-09-16T08:13:26Z</time>
      </trkpt>
      <trkpt lat="39.2925350" lon="-0.7211070">
        <ele>438.0</ele>
        <time>2018-09-16T08:13:27Z</time>
      </trkpt>
      <trkpt lat="39.2924770" lon="-0.7211030">
        <ele>438.0</ele>
        <time>2018-09-16T08:13:28Z</time>
      </trkpt>
      <trkpt lat="39.2924770" lon="-0.7211030">
        <ele>438.0</ele>
        <time>2018-09-16T08:13:29Z</time>
      </trkpt>
      <trkpt lat="39.2924170" lon="-0.7210950">
        <ele>438.0</ele>
        <time>2018-09-16T08:13:30Z</time>
      </trkpt>
      <trkpt lat="39.2924170" lon="-0.7210950">
        <ele>438.0</ele>
        <time>2018-09-16T08:13:31Z</time>
      </trkpt>
      <trkpt lat="39.2923600" lon="-0.7210900">
        <ele>438.0</ele>
        <time>2018-09-16T08:13:32Z</time>
      </trkpt>
      <trkpt lat="39.2923320" lon="-0.7210870">
        <ele>438.0</ele>
        <time>2018-09-16T08:13:33Z</time>
      </trkpt>
      <trkpt lat="39.2923020" lon="-0.7210830">
        <ele>438.0</ele>
        <time>2018-09-16T08:13:34Z</time>
      </trkpt>
      <trkpt lat="39.2923020" lon="-0.7210830">
        <ele>438.0</ele>
        <time>2018-09-16T08:13:35Z</time>
      </trkpt>
      <trkpt lat="39.2922470" lon="-0.7210780">
        <ele>439.0</ele>
        <time>2018-09-16T08:13:36Z</time>
      </trkpt>
      <trkpt lat="39.2922470" lon="-0.7210780">
        <ele>439.0</ele>
        <time>2018-09-16T08:13:37Z</time>
      </trkpt>
      <trkpt lat="39.2921920" lon="-0.7210870">
        <ele>439.0</ele>
        <time>2018-09-16T08:13:38Z</time>
      </trkpt>
      <trkpt lat="39.2921920" lon="-0.7210870">
        <ele>439.0</ele>
        <time>2018-09-16T08:13:39Z</time>
      </trkpt>
      <trkpt lat="39.2921420" lon="-0.7211000">
        <ele>440.0</ele>
        <time>2018-09-16T08:13:40Z</time>
      </trkpt>
      <trkpt lat="39.2921180" lon="-0.7211120">
        <ele>440.0</ele>
        <time>2018-09-16T08:13:41Z</time>
      </trkpt>
      <trkpt lat="39.2921180" lon="-0.7211120">
        <ele>441.0</ele>
        <time>2018-09-16T08:13:42Z</time>
      </trkpt>
      <trkpt lat="39.2920800" lon="-0.7211500">
        <ele>441.0</ele>
        <time>2018-09-16T08:13:43Z</time>
      </trkpt>
      <trkpt lat="39.2920800" lon="-0.7211500">
        <ele>441.0</ele>
        <time>2018-09-16T08:13:44Z</time>
      </trkpt>
      <trkpt lat="39.2920450" lon="-0.7211920">
        <ele>441.0</ele>
        <time>2018-09-16T08:13:45Z</time>
      </trkpt>
      <trkpt lat="39.2920280" lon="-0.7212180">
        <ele>442.0</ele>
        <time>2018-09-16T08:13:46Z</time>
      </trkpt>
      <trkpt lat="39.2920280" lon="-0.7212180">
        <ele>442.0</ele>
        <time>2018-09-16T08:13:47Z</time>
      </trkpt>
      <trkpt lat="39.2919920" lon="-0.7212650">
        <ele>442.0</ele>
        <time>2018-09-16T08:13:48Z</time>
      </trkpt>
      <trkpt lat="39.2919750" lon="-0.7212900">
        <ele>442.0</ele>
        <time>2018-09-16T08:13:49Z</time>
      </trkpt>
      <trkpt lat="39.2919750" lon="-0.7212900">
        <ele>443.0</ele>
        <time>2018-09-16T08:13:50Z</time>
      </trkpt>
      <trkpt lat="39.2919400" lon="-0.7213400">
        <ele>443.0</ele>
        <time>2018-09-16T08:13:51Z</time>
      </trkpt>
      <trkpt lat="39.2919210" lon="-0.7213660">
        <ele>443.0</ele>
        <time>2018-09-16T08:13:52Z</time>
      </trkpt>
      <trkpt lat="39.2919020" lon="-0.7213920">
        <ele>443.0</ele>
        <time>2018-09-16T08:13:53Z</time>
      </trkpt>
      <trkpt lat="39.2918830" lon="-0.7214170">
        <ele>443.0</ele>
        <time>2018-09-16T08:13:54Z</time>
      </trkpt>
      <trkpt lat="39.2918830" lon="-0.7214170">
        <ele>443.0</ele>
        <time>2018-09-16T08:13:55Z</time>
      </trkpt>
      <trkpt lat="39.2918480" lon="-0.7214730">
        <ele>443.0</ele>
        <time>2018-09-16T08:13:56Z</time>
      </trkpt>
      <trkpt lat="39.2918320" lon="-0.7215020">
        <ele>445.0</ele>
        <time>2018-09-16T08:13:57Z</time>
      </trkpt>
      <trkpt lat="39.2918320" lon="-0.7215020">
        <ele>445.0</ele>
        <time>2018-09-16T08:13:58Z</time>
      </trkpt>
      <trkpt lat="39.2917970" lon="-0.7215570">
        <ele>445.0</ele>
        <time>2018-09-16T08:13:59Z</time>
      </trkpt>
      <trkpt lat="39.2917800" lon="-0.7215850">
        <ele>445.0</ele>
        <time>2018-09-16T08:14:00Z</time>
      </trkpt>
      <trkpt lat="39.2917800" lon="-0.7215850">
        <ele>446.0</ele>
        <time>2018-09-16T08:14:01Z</time>
      </trkpt>
      <trkpt lat="39.2917480" lon="-0.7216420">
        <ele>446.0</ele>
        <time>2018-09-16T08:14:02Z</time>
      </trkpt>
      <trkpt lat="39.2917320" lon="-0.7216680">
        <ele>446.0</ele>
        <time>2018-09-16T08:14:03Z</time>
      </trkpt>
      <trkpt lat="39.2917320" lon="-0.7216680">
        <ele>446.0</ele>
        <time>2018-09-16T08:14:04Z</time>
      </trkpt>
      <trkpt lat="39.2917050" lon="-0.7217200">
        <ele>446.0</ele>
        <time>2018-09-16T08:14:05Z</time>
      </trkpt>
      <trkpt lat="39.2916930" lon="-0.7217470">
        <ele>446.0</ele>
        <time>2018-09-16T08:14:06Z</time>
      </trkpt>
      <trkpt lat="39.2916930" lon="-0.7217470">
        <ele>446.0</ele>
        <time>2018-09-16T08:14:07Z</time>
      </trkpt>
      <trkpt lat="39.2916680" lon="-0.7218000">
        <ele>446.0</ele>
        <time>2018-09-16T08:14:08Z</time>
      </trkpt>
      <trkpt lat="39.2916680" lon="-0.7218000">
        <ele>446.0</ele>
        <time>2018-09-16T08:14:09Z</time>
      </trkpt>
      <trkpt lat="39.2916450" lon="-0.7218550">
        <ele>447.0</ele>
        <time>2018-09-16T08:14:10Z</time>
      </trkpt>
      <trkpt lat="39.2916450" lon="-0.7218550">
        <ele>447.0</ele>
        <time>2018-09-16T08:14:11Z</time>
      </trkpt>
      <trkpt lat="39.2916230" lon="-0.7219100">
        <ele>447.0</ele>
        <time>2018-09-16T08:14:12Z</time>
      </trkpt>
      <trkpt lat="39.2916120" lon="-0.7219370">
        <ele>447.0</ele>
        <time>2018-09-16T08:14:13Z</time>
      </trkpt>
      <trkpt lat="39.2916120" lon="-0.7219370">
        <ele>448.0</ele>
        <time>2018-09-16T08:14:14Z</time>
      </trkpt>
      <trkpt lat="39.2915880" lon="-0.7219900">
        <ele>448.0</ele>
        <time>2018-09-16T08:14:15Z</time>
      </trkpt>
      <trkpt lat="39.2915880" lon="-0.7219900">
        <ele>448.0</ele>
        <time>2018-09-16T08:14:16Z</time>
      </trkpt>
      <trkpt lat="39.2915650" lon="-0.7220430">
        <ele>448.0</ele>
        <time>2018-09-16T08:14:17Z</time>
      </trkpt>
      <trkpt lat="39.2915650" lon="-0.7220430">
        <ele>449.0</ele>
        <time>2018-09-16T08:14:18Z</time>
      </trkpt>
      <trkpt lat="39.2915420" lon="-0.7221000">
        <ele>449.0</ele>
        <time>2018-09-16T08:14:19Z</time>
      </trkpt>
      <trkpt lat="39.2915300" lon="-0.7221280">
        <ele>449.0</ele>
        <time>2018-09-16T08:14:20Z</time>
      </trkpt>
      <trkpt lat="39.2915300" lon="-0.7221280">
        <ele>449.0</ele>
        <time>2018-09-16T08:14:21Z</time>
      </trkpt>
      <trkpt lat="39.2915050" lon="-0.7221870">
        <ele>450.0</ele>
        <time>2018-09-16T08:14:22Z</time>
      </trkpt>
      <trkpt lat="39.2914920" lon="-0.7222150">
        <ele>450.0</ele>
        <time>2018-09-16T08:14:23Z</time>
      </trkpt>
      <trkpt lat="39.2914780" lon="-0.7222430">
        <ele>450.0</ele>
        <time>2018-09-16T08:14:24Z</time>
      </trkpt>
      <trkpt lat="39.2914780" lon="-0.7222430">
        <ele>450.0</ele>
        <time>2018-09-16T08:14:25Z</time>
      </trkpt>
      <trkpt lat="39.2914530" lon="-0.7222950">
        <ele>452.0</ele>
        <time>2018-09-16T08:14:26Z</time>
      </trkpt>
      <trkpt lat="39.2914380" lon="-0.7223200">
        <ele>452.0</ele>
        <time>2018-09-16T08:14:27Z</time>
      </trkpt>
      <trkpt lat="39.2914380" lon="-0.7223200">
        <ele>452.0</ele>
        <time>2018-09-16T08:14:28Z</time>
      </trkpt>
      <trkpt lat="39.2914050" lon="-0.7223650">
        <ele>452.0</ele>
        <time>2018-09-16T08:14:29Z</time>
      </trkpt>
      <trkpt lat="39.2914050" lon="-0.7223650">
        <ele>452.0</ele>
        <time>2018-09-16T08:14:30Z</time>
      </trkpt>
      <trkpt lat="39.2913700" lon="-0.7224070">
        <ele>453.0</ele>
        <time>2018-09-16T08:14:31Z</time>
      </trkpt>
      <trkpt lat="39.2913700" lon="-0.7224070">
        <ele>453.0</ele>
        <time>2018-09-16T08:14:32Z</time>
      </trkpt>
      <trkpt lat="39.2913300" lon="-0.7224400">
        <ele>453.0</ele>
        <time>2018-09-16T08:14:33Z</time>
      </trkpt>
      <trkpt lat="39.2913300" lon="-0.7224400">
        <ele>453.0</ele>
        <time>2018-09-16T08:14:34Z</time>
      </trkpt>
      <trkpt lat="39.2912870" lon="-0.7224700">
        <ele>453.0</ele>
        <time>2018-09-16T08:14:35Z</time>
      </trkpt>
      <trkpt lat="39.2912670" lon="-0.7224830">
        <ele>453.0</ele>
        <time>2018-09-16T08:14:36Z</time>
      </trkpt>
      <trkpt lat="39.2912670" lon="-0.7224830">
        <ele>453.0</ele>
        <time>2018-09-16T08:14:37Z</time>
      </trkpt>
      <trkpt lat="39.2912250" lon="-0.7225100">
        <ele>453.0</ele>
        <time>2018-09-16T08:14:38Z</time>
      </trkpt>
      <trkpt lat="39.2912250" lon="-0.7225100">
        <ele>453.0</ele>
        <time>2018-09-16T08:14:39Z</time>
      </trkpt>
      <trkpt lat="39.2911870" lon="-0.7225380">
        <ele>453.0</ele>
        <time>2018-09-16T08:14:40Z</time>
      </trkpt>
      <trkpt lat="39.2911870" lon="-0.7225380">
        <ele>453.0</ele>
        <time>2018-09-16T08:14:41Z</time>
      </trkpt>
      <trkpt lat="39.2911430" lon="-0.7225670">
        <ele>453.0</ele>
        <time>2018-09-16T08:14:42Z</time>
      </trkpt>
      <trkpt lat="39.2911430" lon="-0.7225670">
        <ele>453.0</ele>
        <time>2018-09-16T08:14:43Z</time>
      </trkpt>
      <trkpt lat="39.2911020" lon="-0.7225970">
        <ele>453.0</ele>
        <time>2018-09-16T08:14:44Z</time>
      </trkpt>
      <trkpt lat="39.2911020" lon="-0.7225970">
        <ele>454.0</ele>
        <time>2018-09-16T08:14:45Z</time>
      </trkpt>
      <trkpt lat="39.2910620" lon="-0.7226330">
        <ele>454.0</ele>
        <time>2018-09-16T08:14:46Z</time>
      </trkpt>
      <trkpt lat="39.2910620" lon="-0.7226330">
        <ele>454.0</ele>
        <time>2018-09-16T08:14:47Z</time>
      </trkpt>
      <trkpt lat="39.2910220" lon="-0.7226700">
        <ele>454.0</ele>
        <time>2018-09-16T08:14:48Z</time>
      </trkpt>
      <trkpt lat="39.2910220" lon="-0.7226700">
        <ele>454.0</ele>
        <time>2018-09-16T08:14:49Z</time>
      </trkpt>
      <trkpt lat="39.2909880" lon="-0.7227120">
        <ele>454.0</ele>
        <time>2018-09-16T08:14:50Z</time>
      </trkpt>
      <trkpt lat="39.2909880" lon="-0.7227120">
        <ele>454.0</ele>
        <time>2018-09-16T08:14:51Z</time>
      </trkpt>
      <trkpt lat="39.2909550" lon="-0.7227570">
        <ele>454.0</ele>
        <time>2018-09-16T08:14:52Z</time>
      </trkpt>
      <trkpt lat="39.2909550" lon="-0.7227570">
        <ele>455.0</ele>
        <time>2018-09-16T08:14:53Z</time>
      </trkpt>
      <trkpt lat="39.2909230" lon="-0.7228030">
        <ele>455.0</ele>
        <time>2018-09-16T08:14:54Z</time>
      </trkpt>
      <trkpt lat="39.2909230" lon="-0.7228030">
        <ele>455.0</ele>
        <time>2018-09-16T08:14:55Z</time>
      </trkpt>
      <trkpt lat="39.2908930" lon="-0.7228500">
        <ele>455.0</ele>
        <time>2018-09-16T08:14:56Z</time>
      </trkpt>
      <trkpt lat="39.2908930" lon="-0.7228500">
        <ele>455.0</ele>
        <time>2018-09-16T08:14:57Z</time>
      </trkpt>
      <trkpt lat="39.2908600" lon="-0.7228970">
        <ele>456.0</ele>
        <time>2018-09-16T08:14:58Z</time>
      </trkpt>
      <trkpt lat="39.2908600" lon="-0.7228970">
        <ele>456.0</ele>
        <time>2018-09-16T08:14:59Z</time>
      </trkpt>
      <trkpt lat="39.2908300" lon="-0.7229430">
        <ele>456.0</ele>
        <time>2018-09-16T08:15:00Z</time>
      </trkpt>
      <trkpt lat="39.2908300" lon="-0.7229430">
        <ele>456.0</ele>
        <time>2018-09-16T08:15:01Z</time>
      </trkpt>
      <trkpt lat="39.2907980" lon="-0.7229900">
        <ele>456.0</ele>
        <time>2018-09-16T08:15:02Z</time>
      </trkpt>
      <trkpt lat="39.2907980" lon="-0.7229900">
        <ele>456.0</ele>
        <time>2018-09-16T08:15:03Z</time>
      </trkpt>
      <trkpt lat="39.2907700" lon="-0.7230370">
        <ele>457.0</ele>
        <time>2018-09-16T08:15:04Z</time>
      </trkpt>
      <trkpt lat="39.2907700" lon="-0.7230370">
        <ele>457.0</ele>
        <time>2018-09-16T08:15:05Z</time>
      </trkpt>
      <trkpt lat="39.2907570" lon="-0.7230800">
        <ele>457.0</ele>
        <time>2018-09-16T08:15:06Z</time>
      </trkpt>
      <trkpt lat="39.2907570" lon="-0.7230800">
        <ele>457.0</ele>
        <time>2018-09-16T08:15:07Z</time>
      </trkpt>
      <trkpt lat="39.2907450" lon="-0.7231030">
        <ele>457.0</ele>
        <time>2018-09-16T08:15:08Z</time>
      </trkpt>
      <trkpt lat="39.2907430" lon="-0.7231050">
        <ele>457.0</ele>
        <time>2018-09-16T08:15:09Z</time>
      </trkpt>
      <trkpt lat="39.2907420" lon="-0.7231030">
        <ele>456.0</ele>
        <time>2018-09-16T08:17:02Z</time>
      </trkpt>
      <trkpt lat="39.2907420" lon="-0.7231030">
        <ele>456.0</ele>
        <time>2018-09-16T08:17:03Z</time>
      </trkpt>
      <trkpt lat="39.2907420" lon="-0.7231030">
        <ele>457.0</ele>
        <time>2018-09-16T08:17:04Z</time>
      </trkpt>
      <trkpt lat="39.2907420" lon="-0.7231030">
        <ele>457.0</ele>
        <time>2018-09-16T08:17:05Z</time>
      </trkpt>
      <trkpt lat="39.2907420" lon="-0.7231030">
        <ele>457.0</ele>
        <time>2018-09-16T08:17:06Z</time>
      </trkpt>
      <trkpt lat="39.2907420" lon="-0.7231030">
        <ele>457.0</ele>
        <time>2018-09-16T08:17:07Z</time>
      </trkpt>
      <trkpt lat="39.2907420" lon="-0.7231030">
        <ele>457.0</ele>
        <time>2018-09-16T08:17:08Z</time>
      </trkpt>
      <trkpt lat="39.2907420" lon="-0.7231030">
        <ele>457.0</ele>
        <time>2018-09-16T08:17:09Z</time>
      </trkpt>
      <trkpt lat="39.2907420" lon="-0.7231030">
        <ele>457.0</ele>
        <time>2018-09-16T08:17:10Z</time>
      </trkpt>
      <trkpt lat="39.2907270" lon="-0.7231080">
        <ele>457.0</ele>
        <time>2018-09-16T08:17:11Z</time>
      </trkpt>
      <trkpt lat="39.2907270" lon="-0.7231080">
        <ele>457.0</ele>
        <time>2018-09-16T08:17:12Z</time>
      </trkpt>
      <trkpt lat="39.2907020" lon="-0.7231370">
        <ele>457.0</ele>
        <time>2018-09-16T08:17:13Z</time>
      </trkpt>
      <trkpt lat="39.2907020" lon="-0.7231370">
        <ele>457.0</ele>
        <time>2018-09-16T08:17:14Z</time>
      </trkpt>
      <trkpt lat="39.2906630" lon="-0.7231830">
        <ele>457.0</ele>
        <time>2018-09-16T08:17:15Z</time>
      </trkpt>
      <trkpt lat="39.2906430" lon="-0.7232080">
        <ele>459.0</ele>
        <time>2018-09-16T08:17:16Z</time>
      </trkpt>
      <trkpt lat="39.2906430" lon="-0.7232080">
        <ele>459.0</ele>
        <time>2018-09-16T08:17:17Z</time>
      </trkpt>
      <trkpt lat="39.2906070" lon="-0.7232600">
        <ele>459.0</ele>
        <time>2018-09-16T08:17:18Z</time>
      </trkpt>
      <trkpt lat="39.2906070" lon="-0.7232600">
        <ele>460.0</ele>
        <time>2018-09-16T08:17:19Z</time>
      </trkpt>
      <trkpt lat="39.2905670" lon="-0.7233130">
        <ele>460.0</ele>
        <time>2018-09-16T08:17:20Z</time>
      </trkpt>
      <trkpt lat="39.2905470" lon="-0.7233400">
        <ele>460.0</ele>
        <time>2018-09-16T08:17:21Z</time>
      </trkpt>
      <trkpt lat="39.2905470" lon="-0.7233400">
        <ele>460.0</ele>
        <time>2018-09-16T08:17:22Z</time>
      </trkpt>
      <trkpt lat="39.2905130" lon="-0.7233920">
        <ele>461.0</ele>
        <time>2018-09-16T08:17:23Z</time>
      </trkpt>
      <trkpt lat="39.2904980" lon="-0.7234130">
        <ele>461.0</ele>
        <time>2018-09-16T08:17:24Z</time>
      </trkpt>
      <trkpt lat="39.2904820" lon="-0.7234330">
        <ele>461.0</ele>
        <time>2018-09-16T08:17:25Z</time>
      </trkpt>
      <trkpt lat="39.2904820" lon="-0.7234330">
        <ele>461.0</ele>
        <time>2018-09-16T08:17:26Z</time>
      </trkpt>
      <trkpt lat="39.2904480" lon="-0.7234920">
        <ele>462.0</ele>
        <time>2018-09-16T08:17:27Z</time>
      </trkpt>
      <trkpt lat="39.2904480" lon="-0.7234920">
        <ele>462.0</ele>
        <time>2018-09-16T08:17:28Z</time>
      </trkpt>
      <trkpt lat="39.2904180" lon="-0.7235570">
        <ele>462.0</ele>
        <time>2018-09-16T08:17:29Z</time>
      </trkpt>
      <trkpt lat="39.2904030" lon="-0.7235880">
        <ele>462.0</ele>
        <time>2018-09-16T08:17:30Z</time>
      </trkpt>
      <trkpt lat="39.2904030" lon="-0.7235880">
        <ele>464.0</ele>
        <time>2018-09-16T08:17:31Z</time>
      </trkpt>
      <trkpt lat="39.2903800" lon="-0.7236530">
        <ele>464.0</ele>
        <time>2018-09-16T08:17:32Z</time>
      </trkpt>
      <trkpt lat="39.2903720" lon="-0.7236870">
        <ele>464.0</ele>
        <time>2018-09-16T08:17:33Z</time>
      </trkpt>
      <trkpt lat="39.2903720" lon="-0.7236870">
        <ele>464.0</ele>
        <time>2018-09-16T08:17:34Z</time>
      </trkpt>
      <trkpt lat="39.2903570" lon="-0.7237500">
        <ele>464.0</ele>
        <time>2018-09-16T08:17:35Z</time>
      </trkpt>
      <trkpt lat="39.2903570" lon="-0.7237500">
        <ele>465.0</ele>
        <time>2018-09-16T08:17:36Z</time>
      </trkpt>
      <trkpt lat="39.2903420" lon="-0.7238180">
        <ele>465.0</ele>
        <time>2018-09-16T08:17:37Z</time>
      </trkpt>
      <trkpt lat="39.2903380" lon="-0.7238550">
        <ele>466.0</ele>
        <time>2018-09-16T08:17:38Z</time>
      </trkpt>
      <trkpt lat="39.2903380" lon="-0.7238550">
        <ele>466.0</ele>
        <time>2018-09-16T08:17:39Z</time>
      </trkpt>
      <trkpt lat="39.2903350" lon="-0.7239280">
        <ele>466.0</ele>
        <time>2018-09-16T08:17:40Z</time>
      </trkpt>
      <trkpt lat="39.2903350" lon="-0.7239650">
        <ele>466.0</ele>
        <time>2018-09-16T08:17:41Z</time>
      </trkpt>
      <trkpt lat="39.2903350" lon="-0.7239650">
        <ele>466.0</ele>
        <time>2018-09-16T08:17:42Z</time>
      </trkpt>
      <trkpt lat="39.2903350" lon="-0.7240380">
        <ele>468.0</ele>
        <time>2018-09-16T08:17:43Z</time>
      </trkpt>
      <trkpt lat="39.2903350" lon="-0.7240380">
        <ele>468.0</ele>
        <time>2018-09-16T08:17:44Z</time>
      </trkpt>
      <trkpt lat="39.2903300" lon="-0.7241070">
        <ele>468.0</ele>
        <time>2018-09-16T08:17:45Z</time>
      </trkpt>
      <trkpt lat="39.2903300" lon="-0.7241070">
        <ele>469.0</ele>
        <time>2018-09-16T08:17:46Z</time>
      </trkpt>
      <trkpt lat="39.2903280" lon="-0.7241670">
        <ele>469.0</ele>
        <time>2018-09-16T08:17:47Z</time>
      </trkpt>
      <trkpt lat="39.2903270" lon="-0.7241970">
        <ele>469.0</ele>
        <time>2018-09-16T08:17:48Z</time>
      </trkpt>
      <trkpt lat="39.2903270" lon="-0.7241970">
        <ele>469.0</ele>
        <time>2018-09-16T08:17:49Z</time>
      </trkpt>
      <trkpt lat="39.2903220" lon="-0.7242600">
        <ele>470.0</ele>
        <time>2018-09-16T08:17:50Z</time>
      </trkpt>
      <trkpt lat="39.2903220" lon="-0.7242600">
        <ele>470.0</ele>
        <time>2018-09-16T08:17:51Z</time>
      </trkpt>
      <trkpt lat="39.2903200" lon="-0.7243220">
        <ele>470.0</ele>
        <time>2018-09-16T08:17:52Z</time>
      </trkpt>
      <trkpt lat="39.2903180" lon="-0.7243520">
        <ele>470.0</ele>
        <time>2018-09-16T08:17:53Z</time>
      </trkpt>
      <trkpt lat="39.2903150" lon="-0.7243820">
        <ele>471.0</ele>
        <time>2018-09-16T08:17:54Z</time>
      </trkpt>
      <trkpt lat="39.2903150" lon="-0.7243820">
        <ele>471.0</ele>
        <time>2018-09-16T08:17:55Z</time>
      </trkpt>
      <trkpt lat="39.2903120" lon="-0.7244420">
        <ele>471.0</ele>
        <time>2018-09-16T08:17:56Z</time>
      </trkpt>
      <trkpt lat="39.2903120" lon="-0.7244420">
        <ele>471.0</ele>
        <time>2018-09-16T08:17:57Z</time>
      </trkpt>
      <trkpt lat="39.2903100" lon="-0.7244740">
        <ele>471.0</ele>
        <time>2018-09-16T08:17:58Z</time>
      </trkpt>
      <trkpt lat="39.2903070" lon="-0.7245050">
        <ele>471.0</ele>
        <time>2018-09-16T08:17:59Z</time>
      </trkpt>
      <trkpt lat="39.2903000" lon="-0.7245670">
        <ele>471.0</ele>
        <time>2018-09-16T08:18:00Z</time>
      </trkpt>
      <trkpt lat="39.2903000" lon="-0.7245670">
        <ele>471.0</ele>
        <time>2018-09-16T08:18:01Z</time>
      </trkpt>
      <trkpt lat="39.2902970" lon="-0.7246320">
        <ele>472.0</ele>
        <time>2018-09-16T08:18:02Z</time>
      </trkpt>
      <trkpt lat="39.2902970" lon="-0.7246630">
        <ele>472.0</ele>
        <time>2018-09-16T08:18:03Z</time>
      </trkpt>
      <trkpt lat="39.2902970" lon="-0.7246630">
        <ele>472.0</ele>
        <time>2018-09-16T08:18:04Z</time>
      </trkpt>
      <trkpt lat="39.2902930" lon="-0.7247300">
        <ele>472.0</ele>
        <time>2018-09-16T08:18:05Z</time>
      </trkpt>
      <trkpt lat="39.2902930" lon="-0.7247300">
        <ele>473.0</ele>
        <time>2018-09-16T08:18:06Z</time>
      </trkpt>
      <trkpt lat="39.2902920" lon="-0.7247930">
        <ele>473.0</ele>
        <time>2018-09-16T08:18:07Z</time>
      </trkpt>
      <trkpt lat="39.2902920" lon="-0.7247930">
        <ele>473.0</ele>
        <time>2018-09-16T08:18:08Z</time>
      </trkpt>
      <trkpt lat="39.2902920" lon="-0.7248570">
        <ele>473.0</ele>
        <time>2018-09-16T08:18:09Z</time>
      </trkpt>
      <trkpt lat="39.2902920" lon="-0.7248570">
        <ele>474.0</ele>
        <time>2018-09-16T08:18:10Z</time>
      </trkpt>
      <trkpt lat="39.2902950" lon="-0.7249130">
        <ele>474.0</ele>
        <time>2018-09-16T08:18:11Z</time>
      </trkpt>
      <trkpt lat="39.2902950" lon="-0.7249130">
        <ele>474.0</ele>
        <time>2018-09-16T08:18:12Z</time>
      </trkpt>
      <trkpt lat="39.2903050" lon="-0.7249680">
        <ele>474.0</ele>
        <time>2018-09-16T08:18:13Z</time>
      </trkpt>
      <trkpt lat="39.2903050" lon="-0.7249680">
        <ele>474.0</ele>
        <time>2018-09-16T08:18:14Z</time>
      </trkpt>
      <trkpt lat="39.2903130" lon="-0.7250230">
        <ele>475.0</ele>
        <time>2018-09-16T08:18:15Z</time>
      </trkpt>
      <trkpt lat="39.2903180" lon="-0.7250470">
        <ele>475.0</ele>
        <time>2018-09-16T08:18:16Z</time>
      </trkpt>
      <trkpt lat="39.2903180" lon="-0.7250470">
        <ele>475.0</ele>
        <time>2018-09-16T08:18:17Z</time>
      </trkpt>
      <trkpt lat="39.2903270" lon="-0.7250980">
        <ele>475.0</ele>
        <time>2018-09-16T08:18:18Z</time>
      </trkpt>
      <trkpt lat="39.2903270" lon="-0.7250980">
        <ele>476.0</ele>
        <time>2018-09-16T08:18:19Z</time>
      </trkpt>
      <trkpt lat="39.2903370" lon="-0.7251530">
        <ele>476.0</ele>
        <time>2018-09-16T08:18:20Z</time>
      </trkpt>
      <trkpt lat="39.2903370" lon="-0.7251530">
        <ele>476.0</ele>
        <time>2018-09-16T08:18:21Z</time>
      </trkpt>
      <trkpt lat="39.2903480" lon="-0.7252070">
        <ele>476.0</ele>
        <time>2018-09-16T08:18:22Z</time>
      </trkpt>
      <trkpt lat="39.2903550" lon="-0.7252320">
        <ele>476.0</ele>
        <time>2018-09-16T08:18:23Z</time>
      </trkpt>
      <trkpt lat="39.2903600" lon="-0.7252600">
        <ele>476.0</ele>
        <time>2018-09-16T08:18:24Z</time>
      </trkpt>
      <trkpt lat="39.2903600" lon="-0.7252600">
        <ele>477.0</ele>
        <time>2018-09-16T08:18:25Z</time>
      </trkpt>
      <trkpt lat="39.2903750" lon="-0.7253130">
        <ele>477.0</ele>
        <time>2018-09-16T08:18:26Z</time>
      </trkpt>
      <trkpt lat="39.2903820" lon="-0.7253420">
        <ele>477.0</ele>
        <time>2018-09-16T08:18:27Z</time>
      </trkpt>
      <trkpt lat="39.2903820" lon="-0.7253420">
        <ele>477.0</ele>
        <time>2018-09-16T08:18:28Z</time>
      </trkpt>
      <trkpt lat="39.2903880" lon="-0.7254030">
        <ele>477.0</ele>
        <time>2018-09-16T08:18:29Z</time>
      </trkpt>
      <trkpt lat="39.2903920" lon="-0.7254330">
        <ele>477.0</ele>
        <time>2018-09-16T08:18:30Z</time>
      </trkpt>
      <trkpt lat="39.2903920" lon="-0.7254330">
        <ele>477.0</ele>
        <time>2018-09-16T08:18:31Z</time>
      </trkpt>
      <trkpt lat="39.2903980" lon="-0.7254980">
        <ele>478.0</ele>
        <time>2018-09-16T08:18:32Z</time>
      </trkpt>
      <trkpt lat="39.2904070" lon="-0.7255370">
        <ele>478.0</ele>
        <time>2018-09-16T08:18:33Z</time>
      </trkpt>
      <trkpt lat="39.2904070" lon="-0.7255370">
        <ele>478.0</ele>
        <time>2018-09-16T08:18:34Z</time>
      </trkpt>
      <trkpt lat="39.2904120" lon="-0.7256000">
        <ele>478.0</ele>
        <time>2018-09-16T08:18:35Z</time>
      </trkpt>
      <trkpt lat="39.2904130" lon="-0.7256300">
        <ele>479.0</ele>
        <time>2018-09-16T08:18:36Z</time>
      </trkpt>
      <trkpt lat="39.2904130" lon="-0.7256300">
        <ele>479.0</ele>
        <time>2018-09-16T08:18:37Z</time>
      </trkpt>
      <trkpt lat="39.2904120" lon="-0.7256920">
        <ele>479.0</ele>
        <time>2018-09-16T08:18:38Z</time>
      </trkpt>
      <trkpt lat="39.2904100" lon="-0.7257220">
        <ele>479.0</ele>
        <time>2018-09-16T08:18:39Z</time>
      </trkpt>
      <trkpt lat="39.2904100" lon="-0.7257220">
        <ele>479.0</ele>
        <time>2018-09-16T08:18:40Z</time>
      </trkpt>
      <trkpt lat="39.2904070" lon="-0.7257720">
        <ele>479.0</ele>
        <time>2018-09-16T08:18:41Z</time>
      </trkpt>
      <trkpt lat="39.2904070" lon="-0.7257720">
        <ele>479.0</ele>
        <time>2018-09-16T08:18:42Z</time>
      </trkpt>
      <trkpt lat="39.2904000" lon="-0.7258270">
        <ele>480.0</ele>
        <time>2018-09-16T08:18:43Z</time>
      </trkpt>
      <trkpt lat="39.2904000" lon="-0.7258270">
        <ele>480.0</ele>
        <time>2018-09-16T08:18:44Z</time>
      </trkpt>
      <trkpt lat="39.2903880" lon="-0.7258820">
        <ele>480.0</ele>
        <time>2018-09-16T08:18:45Z</time>
      </trkpt>
      <trkpt lat="39.2903820" lon="-0.7259080">
        <ele>480.0</ele>
        <time>2018-09-16T08:18:46Z</time>
      </trkpt>
      <trkpt lat="39.2903820" lon="-0.7259080">
        <ele>481.0</ele>
        <time>2018-09-16T08:18:47Z</time>
      </trkpt>
      <trkpt lat="39.2903670" lon="-0.7259620">
        <ele>481.0</ele>
        <time>2018-09-16T08:18:48Z</time>
      </trkpt>
      <trkpt lat="39.2903670" lon="-0.7259620">
        <ele>481.0</ele>
        <time>2018-09-16T08:18:49Z</time>
      </trkpt>
      <trkpt lat="39.2903470" lon="-0.7260100">
        <ele>481.0</ele>
        <time>2018-09-16T08:18:50Z</time>
      </trkpt>
      <trkpt lat="39.2903470" lon="-0.7260100">
        <ele>481.0</ele>
        <time>2018-09-16T08:18:51Z</time>
      </trkpt>
      <trkpt lat="39.2903270" lon="-0.7260600">
        <ele>481.0</ele>
        <time>2018-09-16T08:18:52Z</time>
      </trkpt>
      <trkpt lat="39.2903270" lon="-0.7260600">
        <ele>482.0</ele>
        <time>2018-09-16T08:18:53Z</time>
      </trkpt>
      <trkpt lat="39.2903030" lon="-0.7261070">
        <ele>482.0</ele>
        <time>2018-09-16T08:18:54Z</time>
      </trkpt>
      <trkpt lat="39.2903030" lon="-0.7261070">
        <ele>482.0</ele>
        <time>2018-09-16T08:18:55Z</time>
      </trkpt>
      <trkpt lat="39.2902820" lon="-0.7261580">
        <ele>482.0</ele>
        <time>2018-09-16T08:18:56Z</time>
      </trkpt>
      <trkpt lat="39.2902820" lon="-0.7261580">
        <ele>482.0</ele>
        <time>2018-09-16T08:18:57Z</time>
      </trkpt>
      <trkpt lat="39.2902580" lon="-0.7262080">
        <ele>482.0</ele>
        <time>2018-09-16T08:18:58Z</time>
      </trkpt>
      <trkpt lat="39.2902580" lon="-0.7262080">
        <ele>483.0</ele>
        <time>2018-09-16T08:18:59Z</time>
      </trkpt>
      <trkpt lat="39.2902350" lon="-0.7262580">
        <ele>483.0</ele>
        <time>2018-09-16T08:19:00Z</time>
      </trkpt>
      <trkpt lat="39.2902350" lon="-0.7262580">
        <ele>483.0</ele>
        <time>2018-09-16T08:19:01Z</time>
      </trkpt>
      <trkpt lat="39.2902120" lon="-0.7263080">
        <ele>483.0</ele>
        <time>2018-09-16T08:19:02Z</time>
      </trkpt>
      <trkpt lat="39.2902000" lon="-0.7263320">
        <ele>483.0</ele>
        <time>2018-09-16T08:19:03Z</time>
      </trkpt>
      <trkpt lat="39.2902000" lon="-0.7263320">
        <ele>483.0</ele>
        <time>2018-09-16T08:19:04Z</time>
      </trkpt>
      <trkpt lat="39.2901780" lon="-0.7263820">
        <ele>484.0</ele>
        <time>2018-09-16T08:19:05Z</time>
      </trkpt>
      <trkpt lat="39.2901670" lon="-0.7264070">
        <ele>484.0</ele>
        <time>2018-09-16T08:19:06Z</time>
      </trkpt>
      <trkpt lat="39.2901670" lon="-0.7264070">
        <ele>484.0</ele>
        <time>2018-09-16T08:19:07Z</time>
      </trkpt>
      <trkpt lat="39.2901430" lon="-0.7264530">
        <ele>485.0</ele>
        <time>2018-09-16T08:19:08Z</time>
      </trkpt>
      <trkpt lat="39.2901430" lon="-0.7264530">
        <ele>485.0</ele>
        <time>2018-09-16T08:19:09Z</time>
      </trkpt>
      <trkpt lat="39.2901200" lon="-0.7265000">
        <ele>485.0</ele>
        <time>2018-09-16T08:19:10Z</time>
      </trkpt>
      <trkpt lat="39.2901080" lon="-0.7265250">
        <ele>485.0</ele>
        <time>2018-09-16T08:19:11Z</time>
      </trkpt>
      <trkpt lat="39.2901080" lon="-0.7265250">
        <ele>486.0</ele>
        <time>2018-09-16T08:19:12Z</time>
      </trkpt>
      <trkpt lat="39.2900800" lon="-0.7265750">
        <ele>486.0</ele>
        <time>2018-09-16T08:19:13Z</time>
      </trkpt>
      <trkpt lat="39.2900650" lon="-0.7266000">
        <ele>486.0</ele>
        <time>2018-09-16T08:19:14Z</time>
      </trkpt>
      <trkpt lat="39.2900650" lon="-0.7266000">
        <ele>486.0</ele>
        <time>2018-09-16T08:19:15Z</time>
      </trkpt>
      <trkpt lat="39.2900320" lon="-0.7266430">
        <ele>486.0</ele>
        <time>2018-09-16T08:19:16Z</time>
      </trkpt>
      <trkpt lat="39.2900320" lon="-0.7266430">
        <ele>486.0</ele>
        <time>2018-09-16T08:19:17Z</time>
      </trkpt>
      <trkpt lat="39.2899930" lon="-0.7266820">
        <ele>487.0</ele>
        <time>2018-09-16T08:19:18Z</time>
      </trkpt>
      <trkpt lat="39.2899930" lon="-0.7266820">
        <ele>487.0</ele>
        <time>2018-09-16T08:19:19Z</time>
      </trkpt>
      <trkpt lat="39.2899530" lon="-0.7267170">
        <ele>487.0</ele>
        <time>2018-09-16T08:19:20Z</time>
      </trkpt>
      <trkpt lat="39.2899300" lon="-0.7267280">
        <ele>487.0</ele>
        <time>2018-09-16T08:19:21Z</time>
      </trkpt>
      <trkpt lat="39.2899070" lon="-0.7267370">
        <ele>488.0</ele>
        <time>2018-09-16T08:19:22Z</time>
      </trkpt>
      <trkpt lat="39.2899070" lon="-0.7267370">
        <ele>488.0</ele>
        <time>2018-09-16T08:19:23Z</time>
      </trkpt>
      <trkpt lat="39.2898600" lon="-0.7267430">
        <ele>488.0</ele>
        <time>2018-09-16T08:19:24Z</time>
      </trkpt>
      <trkpt lat="39.2898600" lon="-0.7267430">
        <ele>488.0</ele>
        <time>2018-09-16T08:19:25Z</time>
      </trkpt>
      <trkpt lat="39.2898100" lon="-0.7267350">
        <ele>488.0</ele>
        <time>2018-09-16T08:19:26Z</time>
      </trkpt>
      <trkpt lat="39.2898100" lon="-0.7267350">
        <ele>488.0</ele>
        <time>2018-09-16T08:19:27Z</time>
      </trkpt>
      <trkpt lat="39.2897630" lon="-0.7267200">
        <ele>488.0</ele>
        <time>2018-09-16T08:19:28Z</time>
      </trkpt>
      <trkpt lat="39.2897630" lon="-0.7267200">
        <ele>488.0</ele>
        <time>2018-09-16T08:19:29Z</time>
      </trkpt>
      <trkpt lat="39.2897200" lon="-0.7266870">
        <ele>489.0</ele>
        <time>2018-09-16T08:19:30Z</time>
      </trkpt>
      <trkpt lat="39.2897200" lon="-0.7266870">
        <ele>489.0</ele>
        <time>2018-09-16T08:19:31Z</time>
      </trkpt>
      <trkpt lat="39.2896830" lon="-0.7266430">
        <ele>489.0</ele>
        <time>2018-09-16T08:19:32Z</time>
      </trkpt>
      <trkpt lat="39.2896690" lon="-0.7266170">
        <ele>489.0</ele>
        <time>2018-09-16T08:19:33Z</time>
      </trkpt>
      <trkpt lat="39.2896550" lon="-0.7265920">
        <ele>490.0</ele>
        <time>2018-09-16T08:19:34Z</time>
      </trkpt>
      <trkpt lat="39.2896550" lon="-0.7265920">
        <ele>490.0</ele>
        <time>2018-09-16T08:19:35Z</time>
      </trkpt>
      <trkpt lat="39.2896320" lon="-0.7265380">
        <ele>490.0</ele>
        <time>2018-09-16T08:19:36Z</time>
      </trkpt>
      <trkpt lat="39.2896320" lon="-0.7265380">
        <ele>490.0</ele>
        <time>2018-09-16T08:19:37Z</time>
      </trkpt>
      <trkpt lat="39.2896120" lon="-0.7264830">
        <ele>490.0</ele>
        <time>2018-09-16T08:19:38Z</time>
      </trkpt>
      <trkpt lat="39.2896120" lon="-0.7264830">
        <ele>490.0</ele>
        <time>2018-09-16T08:19:39Z</time>
      </trkpt>
      <trkpt lat="39.2895930" lon="-0.7264270">
        <ele>491.0</ele>
        <time>2018-09-16T08:19:40Z</time>
      </trkpt>
      <trkpt lat="39.2895930" lon="-0.7264270">
        <ele>491.0</ele>
        <time>2018-09-16T08:19:41Z</time>
      </trkpt>
      <trkpt lat="39.2895820" lon="-0.7263670">
        <ele>491.0</ele>
        <time>2018-09-16T08:19:42Z</time>
      </trkpt>
      <trkpt lat="39.2895820" lon="-0.7263670">
        <ele>491.0</ele>
        <time>2018-09-16T08:19:43Z</time>
      </trkpt>
      <trkpt lat="39.2895700" lon="-0.7263100">
        <ele>492.0</ele>
        <time>2018-09-16T08:19:44Z</time>
      </trkpt>
      <trkpt lat="39.2895650" lon="-0.7262820">
        <ele>492.0</ele>
        <time>2018-09-16T08:19:45Z</time>
      </trkpt>
      <trkpt lat="39.2895570" lon="-0.7262550">
        <ele>492.0</ele>
        <time>2018-09-16T08:19:46Z</time>
      </trkpt>
      <trkpt lat="39.2895570" lon="-0.7262550">
        <ele>492.0</ele>
        <time>2018-09-16T08:19:47Z</time>
      </trkpt>
      <trkpt lat="39.2895380" lon="-0.7262000">
        <ele>493.0</ele>
        <time>2018-09-16T08:19:48Z</time>
      </trkpt>
      <trkpt lat="39.2895380" lon="-0.7262000">
        <ele>493.0</ele>
        <time>2018-09-16T08:19:49Z</time>
      </trkpt>
      <trkpt lat="39.2895120" lon="-0.7261520">
        <ele>493.0</ele>
        <time>2018-09-16T08:19:50Z</time>
      </trkpt>
      <trkpt lat="39.2894930" lon="-0.7261330">
        <ele>493.0</ele>
        <time>2018-09-16T08:19:51Z</time>
      </trkpt>
      <trkpt lat="39.2894930" lon="-0.7261330">
        <ele>493.0</ele>
        <time>2018-09-16T08:19:52Z</time>
      </trkpt>
      <trkpt lat="39.2894550" lon="-0.7261000">
        <ele>493.0</ele>
        <time>2018-09-16T08:19:53Z</time>
      </trkpt>
      <trkpt lat="39.2894550" lon="-0.7261000">
        <ele>494.0</ele>
        <time>2018-09-16T08:19:54Z</time>
      </trkpt>
      <trkpt lat="39.2894100" lon="-0.7260800">
        <ele>494.0</ele>
        <time>2018-09-16T08:19:55Z</time>
      </trkpt>
      <trkpt lat="39.2894100" lon="-0.7260800">
        <ele>494.0</ele>
        <time>2018-09-16T08:19:56Z</time>
      </trkpt>
      <trkpt lat="39.2893650" lon="-0.7260720">
        <ele>494.0</ele>
        <time>2018-09-16T08:19:57Z</time>
      </trkpt>
      <trkpt lat="39.2893450" lon="-0.7260720">
        <ele>494.0</ele>
        <time>2018-09-16T08:19:58Z</time>
      </trkpt>
      <trkpt lat="39.2893450" lon="-0.7260720">
        <ele>494.0</ele>
        <time>2018-09-16T08:19:59Z</time>
      </trkpt>
      <trkpt lat="39.2893120" lon="-0.7260800">
        <ele>495.0</ele>
        <time>2018-09-16T08:20:00Z</time>
      </trkpt>
      <trkpt lat="39.2892950" lon="-0.7260920">
        <ele>495.0</ele>
        <time>2018-09-16T08:20:01Z</time>
      </trkpt>
      <trkpt lat="39.2892780" lon="-0.7261030">
        <ele>495.0</ele>
        <time>2018-09-16T08:20:02Z</time>
      </trkpt>
      <trkpt lat="39.2892780" lon="-0.7261030">
        <ele>496.0</ele>
        <time>2018-09-16T08:20:03Z</time>
      </trkpt>
      <trkpt lat="39.2892450" lon="-0.7261370">
        <ele>496.0</ele>
        <time>2018-09-16T08:20:04Z</time>
      </trkpt>
      <trkpt lat="39.2892450" lon="-0.7261370">
        <ele>496.0</ele>
        <time>2018-09-16T08:20:05Z</time>
      </trkpt>
      <trkpt lat="39.2892130" lon="-0.7261680">
        <ele>496.0</ele>
        <time>2018-09-16T08:20:06Z</time>
      </trkpt>
      <trkpt lat="39.2892130" lon="-0.7261680">
        <ele>497.0</ele>
        <time>2018-09-16T08:20:07Z</time>
      </trkpt>
      <trkpt lat="39.2891830" lon="-0.7262050">
        <ele>497.0</ele>
        <time>2018-09-16T08:20:08Z</time>
      </trkpt>
      <trkpt lat="39.2891700" lon="-0.7262250">
        <ele>497.0</ele>
        <time>2018-09-16T08:20:09Z</time>
      </trkpt>
      <trkpt lat="39.2891700" lon="-0.7262250">
        <ele>497.0</ele>
        <time>2018-09-16T08:20:10Z</time>
      </trkpt>
      <trkpt lat="39.2891420" lon="-0.7262720">
        <ele>498.0</ele>
        <time>2018-09-16T08:20:11Z</time>
      </trkpt>
      <trkpt lat="39.2891420" lon="-0.7262720">
        <ele>498.0</ele>
        <time>2018-09-16T08:20:12Z</time>
      </trkpt>
      <trkpt lat="39.2891180" lon="-0.7263180">
        <ele>498.0</ele>
        <time>2018-09-16T08:20:13Z</time>
      </trkpt>
      <trkpt lat="39.2891180" lon="-0.7263180">
        <ele>498.0</ele>
        <time>2018-09-16T08:20:14Z</time>
      </trkpt>
      <trkpt lat="39.2890950" lon="-0.7263700">
        <ele>498.0</ele>
        <time>2018-09-16T08:20:15Z</time>
      </trkpt>
      <trkpt lat="39.2890950" lon="-0.7263700">
        <ele>498.0</ele>
        <time>2018-09-16T08:20:16Z</time>
      </trkpt>
      <trkpt lat="39.2890750" lon="-0.7264220">
        <ele>499.0</ele>
        <time>2018-09-16T08:20:17Z</time>
      </trkpt>
      <trkpt lat="39.2890630" lon="-0.7264500">
        <ele>499.0</ele>
        <time>2018-09-16T08:20:18Z</time>
      </trkpt>
      <trkpt lat="39.2890630" lon="-0.7264500">
        <ele>499.0</ele>
        <time>2018-09-16T08:20:19Z</time>
      </trkpt>
      <trkpt lat="39.2890450" lon="-0.7265050">
        <ele>499.0</ele>
        <time>2018-09-16T08:20:20Z</time>
      </trkpt>
      <trkpt lat="39.2890450" lon="-0.7265050">
        <ele>500.0</ele>
        <time>2018-09-16T08:20:21Z</time>
      </trkpt>
      <trkpt lat="39.2890300" lon="-0.7265630">
        <ele>500.0</ele>
        <time>2018-09-16T08:20:22Z</time>
      </trkpt>
      <trkpt lat="39.2890300" lon="-0.7265630">
        <ele>500.0</ele>
        <time>2018-09-16T08:20:23Z</time>
      </trkpt>
      <trkpt lat="39.2890220" lon="-0.7266200">
        <ele>500.0</ele>
        <time>2018-09-16T08:20:24Z</time>
      </trkpt>
      <trkpt lat="39.2890220" lon="-0.7266200">
        <ele>500.0</ele>
        <time>2018-09-16T08:20:25Z</time>
      </trkpt>
      <trkpt lat="39.2890150" lon="-0.7266780">
        <ele>500.0</ele>
        <time>2018-09-16T08:20:26Z</time>
      </trkpt>
      <trkpt lat="39.2890130" lon="-0.7267080">
        <ele>500.0</ele>
        <time>2018-09-16T08:20:27Z</time>
      </trkpt>
      <trkpt lat="39.2890130" lon="-0.7267080">
        <ele>500.0</ele>
        <time>2018-09-16T08:20:28Z</time>
      </trkpt>
      <trkpt lat="39.2890120" lon="-0.7267680">
        <ele>500.0</ele>
        <time>2018-09-16T08:20:29Z</time>
      </trkpt>
      <trkpt lat="39.2890120" lon="-0.7267980">
        <ele>500.0</ele>
        <time>2018-09-16T08:20:30Z</time>
      </trkpt>
      <trkpt lat="39.2890150" lon="-0.7268270">
        <ele>500.0</ele>
        <time>2018-09-16T08:20:31Z</time>
      </trkpt>
      <trkpt lat="39.2890150" lon="-0.7268270">
        <ele>501.0</ele>
        <time>2018-09-16T08:20:32Z</time>
      </trkpt>
      <trkpt lat="39.2890200" lon="-0.7268830">
        <ele>501.0</ele>
        <time>2018-09-16T08:20:33Z</time>
      </trkpt>
      <trkpt lat="39.2890200" lon="-0.7268830">
        <ele>501.0</ele>
        <time>2018-09-16T08:20:34Z</time>
      </trkpt>
      <trkpt lat="39.2890250" lon="-0.7269430">
        <ele>501.0</ele>
        <time>2018-09-16T08:20:35Z</time>
      </trkpt>
      <trkpt lat="39.2890250" lon="-0.7269430">
        <ele>501.0</ele>
        <time>2018-09-16T08:20:36Z</time>
      </trkpt>
      <trkpt lat="39.2890270" lon="-0.7270030">
        <ele>501.0</ele>
        <time>2018-09-16T08:20:37Z</time>
      </trkpt>
      <trkpt lat="39.2890270" lon="-0.7270030">
        <ele>502.0</ele>
        <time>2018-09-16T08:20:38Z</time>
      </trkpt>
      <trkpt lat="39.2890320" lon="-0.7270620">
        <ele>502.0</ele>
        <time>2018-09-16T08:20:39Z</time>
      </trkpt>
      <trkpt lat="39.2890320" lon="-0.7270620">
        <ele>502.0</ele>
        <time>2018-09-16T08:20:40Z</time>
      </trkpt>
      <trkpt lat="39.2890350" lon="-0.7271200">
        <ele>502.0</ele>
        <time>2018-09-16T08:20:41Z</time>
      </trkpt>
      <trkpt lat="39.2890350" lon="-0.7271200">
        <ele>503.0</ele>
        <time>2018-09-16T08:20:42Z</time>
      </trkpt>
      <trkpt lat="39.2890370" lon="-0.7271780">
        <ele>503.0</ele>
        <time>2018-09-16T08:20:43Z</time>
      </trkpt>
      <trkpt lat="39.2890380" lon="-0.7272080">
        <ele>503.0</ele>
        <time>2018-09-16T08:20:44Z</time>
      </trkpt>
      <trkpt lat="39.2890380" lon="-0.7272080">
        <ele>503.0</ele>
        <time>2018-09-16T08:20:45Z</time>
      </trkpt>
      <trkpt lat="39.2890350" lon="-0.7272670">
        <ele>503.0</ele>
        <time>2018-09-16T08:20:46Z</time>
      </trkpt>
      <trkpt lat="39.2890320" lon="-0.7272930">
        <ele>503.0</ele>
        <time>2018-09-16T08:20:47Z</time>
      </trkpt>
      <trkpt lat="39.2890320" lon="-0.7272930">
        <ele>504.0</ele>
        <time>2018-09-16T08:20:48Z</time>
      </trkpt>
      <trkpt lat="39.2890200" lon="-0.7273500">
        <ele>504.0</ele>
        <time>2018-09-16T08:20:49Z</time>
      </trkpt>
      <trkpt lat="39.2890200" lon="-0.7273500">
        <ele>504.0</ele>
        <time>2018-09-16T08:20:50Z</time>
      </trkpt>
      <trkpt lat="39.2890100" lon="-0.7274050">
        <ele>504.0</ele>
        <time>2018-09-16T08:20:51Z</time>
      </trkpt>
      <trkpt lat="39.2890100" lon="-0.7274050">
        <ele>505.0</ele>
        <time>2018-09-16T08:20:52Z</time>
      </trkpt>
      <trkpt lat="39.2889970" lon="-0.7274620">
        <ele>505.0</ele>
        <time>2018-09-16T08:20:53Z</time>
      </trkpt>
      <trkpt lat="39.2889920" lon="-0.7274920">
        <ele>505.0</ele>
        <time>2018-09-16T08:20:54Z</time>
      </trkpt>
      <trkpt lat="39.2889850" lon="-0.7275220">
        <ele>505.0</ele>
        <time>2018-09-16T08:20:55Z</time>
      </trkpt>
      <trkpt lat="39.2889850" lon="-0.7275220">
        <ele>505.0</ele>
        <time>2018-09-16T08:20:56Z</time>
      </trkpt>
      <trkpt lat="39.2889730" lon="-0.7275820">
        <ele>505.0</ele>
        <time>2018-09-16T08:20:57Z</time>
      </trkpt>
      <trkpt lat="39.2889670" lon="-0.7276100">
        <ele>506.0</ele>
        <time>2018-09-16T08:20:58Z</time>
      </trkpt>
      <trkpt lat="39.2889620" lon="-0.7276380">
        <ele>506.0</ele>
        <time>2018-09-16T08:20:59Z</time>
      </trkpt>
      <trkpt lat="39.2889620" lon="-0.7276380">
        <ele>506.0</ele>
        <time>2018-09-16T08:21:00Z</time>
      </trkpt>
      <trkpt lat="39.2889530" lon="-0.7276980">
        <ele>506.0</ele>
        <time>2018-09-16T08:21:01Z</time>
      </trkpt>
      <trkpt lat="39.2889530" lon="-0.7276980">
        <ele>506.0</ele>
        <time>2018-09-16T08:21:02Z</time>
      </trkpt>
      <trkpt lat="39.2889470" lon="-0.7277580">
        <ele>507.0</ele>
        <time>2018-09-16T08:21:03Z</time>
      </trkpt>
      <trkpt lat="39.2889470" lon="-0.7277580">
        <ele>507.0</ele>
        <time>2018-09-16T08:21:04Z</time>
      </trkpt>
      <trkpt lat="39.2889430" lon="-0.7278180">
        <ele>507.0</ele>
        <time>2018-09-16T08:21:05Z</time>
      </trkpt>
      <trkpt lat="39.2889430" lon="-0.7278480">
        <ele>507.0</ele>
        <time>2018-09-16T08:21:06Z</time>
      </trkpt>
      <trkpt lat="39.2889430" lon="-0.7278480">
        <ele>507.0</ele>
        <time>2018-09-16T08:21:07Z</time>
      </trkpt>
      <trkpt lat="39.2889420" lon="-0.7279070">
        <ele>507.0</ele>
        <time>2018-09-16T08:21:08Z</time>
      </trkpt>
      <trkpt lat="39.2889420" lon="-0.7279070">
        <ele>508.0</ele>
        <time>2018-09-16T08:21:09Z</time>
      </trkpt>
      <trkpt lat="39.2889430" lon="-0.7279670">
        <ele>508.0</ele>
        <time>2018-09-16T08:21:10Z</time>
      </trkpt>
      <trkpt lat="39.2889430" lon="-0.7279670">
        <ele>508.0</ele>
        <time>2018-09-16T08:21:11Z</time>
      </trkpt>
      <trkpt lat="39.2889480" lon="-0.7280250">
        <ele>508.0</ele>
        <time>2018-09-16T08:21:12Z</time>
      </trkpt>
      <trkpt lat="39.2889480" lon="-0.7280250">
        <ele>508.0</ele>
        <time>2018-09-16T08:21:13Z</time>
      </trkpt>
      <trkpt lat="39.2889530" lon="-0.7280850">
        <ele>508.0</ele>
        <time>2018-09-16T08:21:14Z</time>
      </trkpt>
      <trkpt lat="39.2889530" lon="-0.7280850">
        <ele>508.0</ele>
        <time>2018-09-16T08:21:15Z</time>
      </trkpt>
      <trkpt lat="39.2889580" lon="-0.7281450">
        <ele>508.0</ele>
        <time>2018-09-16T08:21:16Z</time>
      </trkpt>
      <trkpt lat="39.2889600" lon="-0.7281770">
        <ele>509.0</ele>
        <time>2018-09-16T08:21:17Z</time>
      </trkpt>
      <trkpt lat="39.2889620" lon="-0.7282080">
        <ele>509.0</ele>
        <time>2018-09-16T08:21:18Z</time>
      </trkpt>
      <trkpt lat="39.2889620" lon="-0.7282080">
        <ele>509.0</ele>
        <time>2018-09-16T08:21:19Z</time>
      </trkpt>
      <trkpt lat="39.2889620" lon="-0.7282750">
        <ele>509.0</ele>
        <time>2018-09-16T08:21:20Z</time>
      </trkpt>
      <trkpt lat="39.2889620" lon="-0.7282750">
        <ele>510.0</ele>
        <time>2018-09-16T08:21:21Z</time>
      </trkpt>
      <trkpt lat="39.2889570" lon="-0.7283400">
        <ele>510.0</ele>
        <time>2018-09-16T08:21:22Z</time>
      </trkpt>
      <trkpt lat="39.2889520" lon="-0.7283720">
        <ele>510.0</ele>
        <time>2018-09-16T08:21:23Z</time>
      </trkpt>
      <trkpt lat="39.2889450" lon="-0.7284020">
        <ele>510.0</ele>
        <time>2018-09-16T08:21:24Z</time>
      </trkpt>
      <trkpt lat="39.2889450" lon="-0.7284020">
        <ele>510.0</ele>
        <time>2018-09-16T08:21:25Z</time>
      </trkpt>
      <trkpt lat="39.2889280" lon="-0.7284630">
        <ele>511.0</ele>
        <time>2018-09-16T08:21:26Z</time>
      </trkpt>
      <trkpt lat="39.2889280" lon="-0.7284630">
        <ele>511.0</ele>
        <time>2018-09-16T08:21:27Z</time>
      </trkpt>
      <trkpt lat="39.2889070" lon="-0.7285270">
        <ele>511.0</ele>
        <time>2018-09-16T08:21:28Z</time>
      </trkpt>
      <trkpt lat="39.2889070" lon="-0.7285270">
        <ele>511.0</ele>
        <time>2018-09-16T08:21:29Z</time>
      </trkpt>
      <trkpt lat="39.2888900" lon="-0.7285900">
        <ele>511.0</ele>
        <time>2018-09-16T08:21:30Z</time>
      </trkpt>
      <trkpt lat="39.2888900" lon="-0.7285900">
        <ele>511.0</ele>
        <time>2018-09-16T08:21:31Z</time>
      </trkpt>
      <trkpt lat="39.2888770" lon="-0.7286570">
        <ele>512.0</ele>
        <time>2018-09-16T08:21:32Z</time>
      </trkpt>
      <trkpt lat="39.2888770" lon="-0.7286570">
        <ele>512.0</ele>
        <time>2018-09-16T08:21:33Z</time>
      </trkpt>
      <trkpt lat="39.2888700" lon="-0.7287230">
        <ele>512.0</ele>
        <time>2018-09-16T08:21:34Z</time>
      </trkpt>
      <trkpt lat="39.2888700" lon="-0.7287230">
        <ele>512.0</ele>
        <time>2018-09-16T08:21:35Z</time>
      </trkpt>
      <trkpt lat="39.2888720" lon="-0.7287930">
        <ele>512.0</ele>
        <time>2018-09-16T08:21:36Z</time>
      </trkpt>
      <trkpt lat="39.2888770" lon="-0.7288270">
        <ele>512.0</ele>
        <time>2018-09-16T08:21:37Z</time>
      </trkpt>
      <trkpt lat="39.2888770" lon="-0.7288270">
        <ele>512.0</ele>
        <time>2018-09-16T08:21:38Z</time>
      </trkpt>
      <trkpt lat="39.2888930" lon="-0.7288920">
        <ele>512.0</ele>
        <time>2018-09-16T08:21:39Z</time>
      </trkpt>
      <trkpt lat="39.2889050" lon="-0.7289230">
        <ele>512.0</ele>
        <time>2018-09-16T08:21:40Z</time>
      </trkpt>
      <trkpt lat="39.2889050" lon="-0.7289230">
        <ele>512.0</ele>
        <time>2018-09-16T08:21:41Z</time>
      </trkpt>
      <trkpt lat="39.2889250" lon="-0.7289850">
        <ele>512.0</ele>
        <time>2018-09-16T08:21:42Z</time>
      </trkpt>
      <trkpt lat="39.2889250" lon="-0.7289850">
        <ele>512.0</ele>
        <time>2018-09-16T08:21:43Z</time>
      </trkpt>
      <trkpt lat="39.2889530" lon="-0.7290420">
        <ele>512.0</ele>
        <time>2018-09-16T08:21:44Z</time>
      </trkpt>
      <trkpt lat="39.2889670" lon="-0.7290700">
        <ele>512.0</ele>
        <time>2018-09-16T08:21:45Z</time>
      </trkpt>
      <trkpt lat="39.2889670" lon="-0.7290700">
        <ele>512.0</ele>
        <time>2018-09-16T08:21:46Z</time>
      </trkpt>
      <trkpt lat="39.2889880" lon="-0.7291320">
        <ele>512.0</ele>
        <time>2018-09-16T08:21:47Z</time>
      </trkpt>
      <trkpt lat="39.2889970" lon="-0.7291630">
        <ele>512.0</ele>
        <time>2018-09-16T08:21:48Z</time>
      </trkpt>
      <trkpt lat="39.2889970" lon="-0.7291630">
        <ele>513.0</ele>
        <time>2018-09-16T08:21:49Z</time>
      </trkpt>
      <trkpt lat="39.2890230" lon="-0.7292230">
        <ele>513.0</ele>
        <time>2018-09-16T08:21:50Z</time>
      </trkpt>
      <trkpt lat="39.2890380" lon="-0.7292530">
        <ele>513.0</ele>
        <time>2018-09-16T08:21:51Z</time>
      </trkpt>
      <trkpt lat="39.2890380" lon="-0.7292530">
        <ele>513.0</ele>
        <time>2018-09-16T08:21:52Z</time>
      </trkpt>
      <trkpt lat="39.2890630" lon="-0.7293130">
        <ele>513.0</ele>
        <time>2018-09-16T08:21:53Z</time>
      </trkpt>
      <trkpt lat="39.2890770" lon="-0.7293430">
        <ele>513.0</ele>
        <time>2018-09-16T08:21:54Z</time>
      </trkpt>
      <trkpt lat="39.2890770" lon="-0.7293430">
        <ele>513.0</ele>
        <time>2018-09-16T08:21:55Z</time>
      </trkpt>
      <trkpt lat="39.2891020" lon="-0.7294050">
        <ele>514.0</ele>
        <time>2018-09-16T08:21:56Z</time>
      </trkpt>
      <trkpt lat="39.2891020" lon="-0.7294050">
        <ele>514.0</ele>
        <time>2018-09-16T08:21:57Z</time>
      </trkpt>
      <trkpt lat="39.2891280" lon="-0.7294670">
        <ele>514.0</ele>
        <time>2018-09-16T08:21:58Z</time>
      </trkpt>
      <trkpt lat="39.2891280" lon="-0.7294670">
        <ele>514.0</ele>
        <time>2018-09-16T08:21:59Z</time>
      </trkpt>
      <trkpt lat="39.2891570" lon="-0.7295250">
        <ele>514.0</ele>
        <time>2018-09-16T08:22:00Z</time>
      </trkpt>
      <trkpt lat="39.2891570" lon="-0.7295250">
        <ele>514.0</ele>
        <time>2018-09-16T08:22:01Z</time>
      </trkpt>
      <trkpt lat="39.2891880" lon="-0.7295780">
        <ele>515.0</ele>
        <time>2018-09-16T08:22:02Z</time>
      </trkpt>
      <trkpt lat="39.2892070" lon="-0.7296050">
        <ele>515.0</ele>
        <time>2018-09-16T08:22:03Z</time>
      </trkpt>
      <trkpt lat="39.2892070" lon="-0.7296050">
        <ele>515.0</ele>
        <time>2018-09-16T08:22:04Z</time>
      </trkpt>
      <trkpt lat="39.2892430" lon="-0.7296550">
        <ele>515.0</ele>
        <time>2018-09-16T08:22:05Z</time>
      </trkpt>
      <trkpt lat="39.2892620" lon="-0.7296780">
        <ele>515.0</ele>
        <time>2018-09-16T08:22:06Z</time>
      </trkpt>
      <trkpt lat="39.2892620" lon="-0.7296780">
        <ele>515.0</ele>
        <time>2018-09-16T08:22:07Z</time>
      </trkpt>
      <trkpt lat="39.2893000" lon="-0.7297270">
        <ele>515.0</ele>
        <time>2018-09-16T08:22:08Z</time>
      </trkpt>
      <trkpt lat="39.2893000" lon="-0.7297270">
        <ele>516.0</ele>
        <time>2018-09-16T08:22:09Z</time>
      </trkpt>
      <trkpt lat="39.2893420" lon="-0.7297650">
        <ele>516.0</ele>
        <time>2018-09-16T08:22:10Z</time>
      </trkpt>
      <trkpt lat="39.2893420" lon="-0.7297650">
        <ele>516.0</ele>
        <time>2018-09-16T08:22:11Z</time>
      </trkpt>
      <trkpt lat="39.2893880" lon="-0.7298030">
        <ele>516.0</ele>
        <time>2018-09-16T08:22:12Z</time>
      </trkpt>
      <trkpt lat="39.2893880" lon="-0.7298030">
        <ele>516.0</ele>
        <time>2018-09-16T08:22:13Z</time>
      </trkpt>
      <trkpt lat="39.2894350" lon="-0.7298420">
        <ele>516.0</ele>
        <time>2018-09-16T08:22:14Z</time>
      </trkpt>
      <trkpt lat="39.2894350" lon="-0.7298420">
        <ele>516.0</ele>
        <time>2018-09-16T08:22:15Z</time>
      </trkpt>
      <trkpt lat="39.2894800" lon="-0.7298820">
        <ele>516.0</ele>
        <time>2018-09-16T08:22:16Z</time>
      </trkpt>
      <trkpt lat="39.2894800" lon="-0.7298820">
        <ele>517.0</ele>
        <time>2018-09-16T08:22:17Z</time>
      </trkpt>
      <trkpt lat="39.2895220" lon="-0.7299250">
        <ele>517.0</ele>
        <time>2018-09-16T08:22:18Z</time>
      </trkpt>
      <trkpt lat="39.2895220" lon="-0.7299250">
        <ele>517.0</ele>
        <time>2018-09-16T08:22:19Z</time>
      </trkpt>
      <trkpt lat="39.2895670" lon="-0.7299650">
        <ele>517.0</ele>
        <time>2018-09-16T08:22:20Z</time>
      </trkpt>
      <trkpt lat="39.2895670" lon="-0.7299650">
        <ele>517.0</ele>
        <time>2018-09-16T08:22:21Z</time>
      </trkpt>
      <trkpt lat="39.2896120" lon="-0.7300100">
        <ele>518.0</ele>
        <time>2018-09-16T08:22:22Z</time>
      </trkpt>
      <trkpt lat="39.2896120" lon="-0.7300100">
        <ele>518.0</ele>
        <time>2018-09-16T08:22:23Z</time>
      </trkpt>
      <trkpt lat="39.2896500" lon="-0.7300580">
        <ele>518.0</ele>
        <time>2018-09-16T08:22:24Z</time>
      </trkpt>
      <trkpt lat="39.2896500" lon="-0.7300580">
        <ele>518.0</ele>
        <time>2018-09-16T08:22:25Z</time>
      </trkpt>
      <trkpt lat="39.2896830" lon="-0.7301150">
        <ele>519.0</ele>
        <time>2018-09-16T08:22:26Z</time>
      </trkpt>
      <trkpt lat="39.2896830" lon="-0.7301150">
        <ele>519.0</ele>
        <time>2018-09-16T08:22:27Z</time>
      </trkpt>
      <trkpt lat="39.2897130" lon="-0.7301700">
        <ele>519.0</ele>
        <time>2018-09-16T08:22:28Z</time>
      </trkpt>
      <trkpt lat="39.2897130" lon="-0.7301700">
        <ele>519.0</ele>
        <time>2018-09-16T08:22:29Z</time>
      </trkpt>
      <trkpt lat="39.2897420" lon="-0.7302270">
        <ele>520.0</ele>
        <time>2018-09-16T08:22:30Z</time>
      </trkpt>
      <trkpt lat="39.2897420" lon="-0.7302270">
        <ele>520.0</ele>
        <time>2018-09-16T08:22:31Z</time>
      </trkpt>
      <trkpt lat="39.2897700" lon="-0.7302870">
        <ele>520.0</ele>
        <time>2018-09-16T08:22:32Z</time>
      </trkpt>
      <trkpt lat="39.2897700" lon="-0.7302870">
        <ele>520.0</ele>
        <time>2018-09-16T08:22:33Z</time>
      </trkpt>
      <trkpt lat="39.2897900" lon="-0.7303550">
        <ele>520.0</ele>
        <time>2018-09-16T08:22:34Z</time>
      </trkpt>
      <trkpt lat="39.2897900" lon="-0.7303550">
        <ele>520.0</ele>
        <time>2018-09-16T08:22:35Z</time>
      </trkpt>
      <trkpt lat="39.2898050" lon="-0.7304270">
        <ele>521.0</ele>
        <time>2018-09-16T08:22:36Z</time>
      </trkpt>
      <trkpt lat="39.2898050" lon="-0.7304270">
        <ele>521.0</ele>
        <time>2018-09-16T08:22:37Z</time>
      </trkpt>
      <trkpt lat="39.2898200" lon="-0.7304970">
        <ele>521.0</ele>
        <time>2018-09-16T08:22:38Z</time>
      </trkpt>
      <trkpt lat="39.2898250" lon="-0.7305320">
        <ele>521.0</ele>
        <time>2018-09-16T08:22:39Z</time>
      </trkpt>
      <trkpt lat="39.2898270" lon="-0.7305720">
        <ele>522.0</ele>
        <time>2018-09-16T08:22:40Z</time>
      </trkpt>
      <trkpt lat="39.2898270" lon="-0.7305720">
        <ele>522.0</ele>
        <time>2018-09-16T08:22:41Z</time>
      </trkpt>
      <trkpt lat="39.2898270" lon="-0.7306470">
        <ele>522.0</ele>
        <time>2018-09-16T08:22:42Z</time>
      </trkpt>
      <trkpt lat="39.2898270" lon="-0.7306470">
        <ele>522.0</ele>
        <time>2018-09-16T08:22:43Z</time>
      </trkpt>
      <trkpt lat="39.2898200" lon="-0.7307100">
        <ele>522.0</ele>
        <time>2018-09-16T08:22:44Z</time>
      </trkpt>
      <trkpt lat="39.2898180" lon="-0.7307400">
        <ele>522.0</ele>
        <time>2018-09-16T08:22:45Z</time>
      </trkpt>
      <trkpt lat="39.2898180" lon="-0.7307400">
        <ele>523.0</ele>
        <time>2018-09-16T08:22:46Z</time>
      </trkpt>
      <trkpt lat="39.2898080" lon="-0.7308050">
        <ele>523.0</ele>
        <time>2018-09-16T08:22:47Z</time>
      </trkpt>
      <trkpt lat="39.2897980" lon="-0.7308370">
        <ele>523.0</ele>
        <time>2018-09-16T08:22:48Z</time>
      </trkpt>
      <trkpt lat="39.2897980" lon="-0.7308370">
        <ele>523.0</ele>
        <time>2018-09-16T08:22:49Z</time>
      </trkpt>
      <trkpt lat="39.2897830" lon="-0.7309050">
        <ele>523.0</ele>
        <time>2018-09-16T08:22:50Z</time>
      </trkpt>
      <trkpt lat="39.2897750" lon="-0.7309380">
        <ele>523.0</ele>
        <time>2018-09-16T08:22:51Z</time>
      </trkpt>
      <trkpt lat="39.2897750" lon="-0.7309380">
        <ele>523.0</ele>
        <time>2018-09-16T08:22:52Z</time>
      </trkpt>
      <trkpt lat="39.2897520" lon="-0.7310050">
        <ele>523.0</ele>
        <time>2018-09-16T08:22:53Z</time>
      </trkpt>
      <trkpt lat="39.2897400" lon="-0.7310400">
        <ele>523.0</ele>
        <time>2018-09-16T08:22:54Z</time>
      </trkpt>
      <trkpt lat="39.2897400" lon="-0.7310400">
        <ele>523.0</ele>
        <time>2018-09-16T08:22:55Z</time>
      </trkpt>
      <trkpt lat="39.2897180" lon="-0.7311080">
        <ele>523.0</ele>
        <time>2018-09-16T08:22:56Z</time>
      </trkpt>
      <trkpt lat="39.2897180" lon="-0.7311080">
        <ele>524.0</ele>
        <time>2018-09-16T08:22:57Z</time>
      </trkpt>
      <trkpt lat="39.2896950" lon="-0.7311730">
        <ele>524.0</ele>
        <time>2018-09-16T08:22:58Z</time>
      </trkpt>
      <trkpt lat="39.2896950" lon="-0.7311730">
        <ele>524.0</ele>
        <time>2018-09-16T08:22:59Z</time>
      </trkpt>
      <trkpt lat="39.2896650" lon="-0.7312330">
        <ele>524.0</ele>
        <time>2018-09-16T08:23:00Z</time>
      </trkpt>
      <trkpt lat="39.2896650" lon="-0.7312330">
        <ele>524.0</ele>
        <time>2018-09-16T08:23:01Z</time>
      </trkpt>
      <trkpt lat="39.2896300" lon="-0.7312900">
        <ele>524.0</ele>
        <time>2018-09-16T08:23:02Z</time>
      </trkpt>
      <trkpt lat="39.2896120" lon="-0.7313180">
        <ele>524.0</ele>
        <time>2018-09-16T08:23:03Z</time>
      </trkpt>
      <trkpt lat="39.2896120" lon="-0.7313180">
        <ele>524.0</ele>
        <time>2018-09-16T08:23:04Z</time>
      </trkpt>
      <trkpt lat="39.2895770" lon="-0.7313780">
        <ele>524.0</ele>
        <time>2018-09-16T08:23:05Z</time>
      </trkpt>
      <trkpt lat="39.2895580" lon="-0.7314080">
        <ele>524.0</ele>
        <time>2018-09-16T08:23:06Z</time>
      </trkpt>
      <trkpt lat="39.2895580" lon="-0.7314080">
        <ele>524.0</ele>
        <time>2018-09-16T08:23:07Z</time>
      </trkpt>
      <trkpt lat="39.2895150" lon="-0.7314630">
        <ele>524.0</ele>
        <time>2018-09-16T08:23:08Z</time>
      </trkpt>
      <trkpt lat="39.2895150" lon="-0.7314630">
        <ele>525.0</ele>
        <time>2018-09-16T08:23:09Z</time>
      </trkpt>
      <trkpt lat="39.2894670" lon="-0.7315150">
        <ele>525.0</ele>
        <time>2018-09-16T08:23:10Z</time>
      </trkpt>
      <trkpt lat="39.2894670" lon="-0.7315150">
        <ele>525.0</ele>
        <time>2018-09-16T08:23:11Z</time>
      </trkpt>
      <trkpt lat="39.2894180" lon="-0.7315570">
        <ele>525.0</ele>
        <time>2018-09-16T08:23:12Z</time>
      </trkpt>
      <trkpt lat="39.2894180" lon="-0.7315570">
        <ele>525.0</ele>
        <time>2018-09-16T08:23:13Z</time>
      </trkpt>
      <trkpt lat="39.2893730" lon="-0.7315980">
        <ele>525.0</ele>
        <time>2018-09-16T08:23:14Z</time>
      </trkpt>
      <trkpt lat="39.2893730" lon="-0.7315980">
        <ele>525.0</ele>
        <time>2018-09-16T08:23:15Z</time>
      </trkpt>
      <trkpt lat="39.2893220" lon="-0.7316400">
        <ele>525.0</ele>
        <time>2018-09-16T08:23:16Z</time>
      </trkpt>
      <trkpt lat="39.2893220" lon="-0.7316400">
        <ele>525.0</ele>
        <time>2018-09-16T08:23:17Z</time>
      </trkpt>
      <trkpt lat="39.2892580" lon="-0.7316800">
        <ele>525.0</ele>
        <time>2018-09-16T08:23:18Z</time>
      </trkpt>
      <trkpt lat="39.2892580" lon="-0.7316800">
        <ele>525.0</ele>
        <time>2018-09-16T08:23:19Z</time>
      </trkpt>
      <trkpt lat="39.2891830" lon="-0.7317220">
        <ele>525.0</ele>
        <time>2018-09-16T08:23:20Z</time>
      </trkpt>
      <trkpt lat="39.2891430" lon="-0.7317420">
        <ele>525.0</ele>
        <time>2018-09-16T08:23:21Z</time>
      </trkpt>
      <trkpt lat="39.2891430" lon="-0.7317420">
        <ele>525.0</ele>
        <time>2018-09-16T08:23:22Z</time>
      </trkpt>
      <trkpt lat="39.2890580" lon="-0.7317870">
        <ele>525.0</ele>
        <time>2018-09-16T08:23:23Z</time>
      </trkpt>
      <trkpt lat="39.2890150" lon="-0.7318120">
        <ele>525.0</ele>
        <time>2018-09-16T08:23:24Z</time>
      </trkpt>
      <trkpt lat="39.2890150" lon="-0.7318120">
        <ele>525.0</ele>
        <time>2018-09-16T08:23:25Z</time>
      </trkpt>
      <trkpt lat="39.2889270" lon="-0.7318630">
        <ele>525.0</ele>
        <time>2018-09-16T08:23:26Z</time>
      </trkpt>
      <trkpt lat="39.2889270" lon="-0.7318630">
        <ele>525.0</ele>
        <time>2018-09-16T08:23:27Z</time>
      </trkpt>
      <trkpt lat="39.2888380" lon="-0.7319300">
        <ele>525.0</ele>
        <time>2018-09-16T08:23:28Z</time>
      </trkpt>
      <trkpt lat="39.2887970" lon="-0.7319700">
        <ele>525.0</ele>
        <time>2018-09-16T08:23:29Z</time>
      </trkpt>
      <trkpt lat="39.2887970" lon="-0.7319700">
        <ele>525.0</ele>
        <time>2018-09-16T08:23:30Z</time>
      </trkpt>
      <trkpt lat="39.2887170" lon="-0.7320580">
        <ele>525.0</ele>
        <time>2018-09-16T08:23:31Z</time>
      </trkpt>
      <trkpt lat="39.2887170" lon="-0.7320580">
        <ele>525.0</ele>
        <time>2018-09-16T08:23:32Z</time>
      </trkpt>
      <trkpt lat="39.2886450" lon="-0.7321530">
        <ele>525.0</ele>
        <time>2018-09-16T08:23:33Z</time>
      </trkpt>
      <trkpt lat="39.2886130" lon="-0.7322050">
        <ele>525.0</ele>
        <time>2018-09-16T08:23:34Z</time>
      </trkpt>
      <trkpt lat="39.2886130" lon="-0.7322050">
        <ele>525.0</ele>
        <time>2018-09-16T08:23:35Z</time>
      </trkpt>
      <trkpt lat="39.2885570" lon="-0.7323120">
        <ele>525.0</ele>
        <time>2018-09-16T08:23:36Z</time>
      </trkpt>
      <trkpt lat="39.2885570" lon="-0.7323120">
        <ele>525.0</ele>
        <time>2018-09-16T08:23:37Z</time>
      </trkpt>
      <trkpt lat="39.2885120" lon="-0.7324250">
        <ele>525.0</ele>
        <time>2018-09-16T08:23:38Z</time>
      </trkpt>
      <trkpt lat="39.2885120" lon="-0.7324250">
        <ele>525.0</ele>
        <time>2018-09-16T08:23:39Z</time>
      </trkpt>
      <trkpt lat="39.2884720" lon="-0.7325470">
        <ele>525.0</ele>
        <time>2018-09-16T08:23:40Z</time>
      </trkpt>
      <trkpt lat="39.2884720" lon="-0.7325470">
        <ele>525.0</ele>
        <time>2018-09-16T08:23:41Z</time>
      </trkpt>
      <trkpt lat="39.2884480" lon="-0.7326620">
        <ele>525.0</ele>
        <time>2018-09-16T08:23:42Z</time>
      </trkpt>
      <trkpt lat="39.2884480" lon="-0.7326620">
        <ele>525.0</ele>
        <time>2018-09-16T08:23:43Z</time>
      </trkpt>
      <trkpt lat="39.2884280" lon="-0.7327700">
        <ele>526.0</ele>
        <time>2018-09-16T08:23:44Z</time>
      </trkpt>
      <trkpt lat="39.2884280" lon="-0.7327700">
        <ele>526.0</ele>
        <time>2018-09-16T08:23:45Z</time>
      </trkpt>
      <trkpt lat="39.2884120" lon="-0.7328750">
        <ele>526.0</ele>
        <time>2018-09-16T08:23:46Z</time>
      </trkpt>
      <trkpt lat="39.2884120" lon="-0.7328750">
        <ele>526.0</ele>
        <time>2018-09-16T08:23:47Z</time>
      </trkpt>
      <trkpt lat="39.2883980" lon="-0.7329770">
        <ele>526.0</ele>
        <time>2018-09-16T08:23:48Z</time>
      </trkpt>
      <trkpt lat="39.2883980" lon="-0.7329770">
        <ele>527.0</ele>
        <time>2018-09-16T08:23:49Z</time>
      </trkpt>
      <trkpt lat="39.2883880" lon="-0.7330800">
        <ele>527.0</ele>
        <time>2018-09-16T08:23:50Z</time>
      </trkpt>
      <trkpt lat="39.2883880" lon="-0.7330800">
        <ele>527.0</ele>
        <time>2018-09-16T08:23:51Z</time>
      </trkpt>
      <trkpt lat="39.2883730" lon="-0.7331850">
        <ele>527.0</ele>
        <time>2018-09-16T08:23:52Z</time>
      </trkpt>
      <trkpt lat="39.2883670" lon="-0.7332400">
        <ele>527.0</ele>
        <time>2018-09-16T08:23:53Z</time>
      </trkpt>
      <trkpt lat="39.2883600" lon="-0.7332950">
        <ele>527.0</ele>
        <time>2018-09-16T08:23:54Z</time>
      </trkpt>
      <trkpt lat="39.2883600" lon="-0.7332950">
        <ele>527.0</ele>
        <time>2018-09-16T08:23:55Z</time>
      </trkpt>
      <trkpt lat="39.2883480" lon="-0.7334080">
        <ele>527.0</ele>
        <time>2018-09-16T08:23:56Z</time>
      </trkpt>
      <trkpt lat="39.2883420" lon="-0.7334630">
        <ele>527.0</ele>
        <time>2018-09-16T08:23:57Z</time>
      </trkpt>
      <trkpt lat="39.2883420" lon="-0.7334630">
        <ele>529.0</ele>
        <time>2018-09-16T08:23:58Z</time>
      </trkpt>
      <trkpt lat="39.2883270" lon="-0.7335750">
        <ele>529.0</ele>
        <time>2018-09-16T08:23:59Z</time>
      </trkpt>
      <trkpt lat="39.2883200" lon="-0.7336300">
        <ele>529.0</ele>
        <time>2018-09-16T08:24:00Z</time>
      </trkpt>
      <trkpt lat="39.2883200" lon="-0.7336300">
        <ele>529.0</ele>
        <time>2018-09-16T08:24:01Z</time>
      </trkpt>
      <trkpt lat="39.2882980" lon="-0.7337380">
        <ele>529.0</ele>
        <time>2018-09-16T08:24:02Z</time>
      </trkpt>
      <trkpt lat="39.2882830" lon="-0.7337920">
        <ele>530.0</ele>
        <time>2018-09-16T08:24:03Z</time>
      </trkpt>
      <trkpt lat="39.2882830" lon="-0.7337920">
        <ele>530.0</ele>
        <time>2018-09-16T08:24:04Z</time>
      </trkpt>
      <trkpt lat="39.2882480" lon="-0.7338930">
        <ele>530.0</ele>
        <time>2018-09-16T08:24:05Z</time>
      </trkpt>
      <trkpt lat="39.2882300" lon="-0.7339430">
        <ele>530.0</ele>
        <time>2018-09-16T08:24:06Z</time>
      </trkpt>
      <trkpt lat="39.2882300" lon="-0.7339430">
        <ele>531.0</ele>
        <time>2018-09-16T08:24:07Z</time>
      </trkpt>
      <trkpt lat="39.2881850" lon="-0.7340380">
        <ele>531.0</ele>
        <time>2018-09-16T08:24:08Z</time>
      </trkpt>
      <trkpt lat="39.2881600" lon="-0.7340820">
        <ele>531.0</ele>
        <time>2018-09-16T08:24:09Z</time>
      </trkpt>
      <trkpt lat="39.2881600" lon="-0.7340820">
        <ele>532.0</ele>
        <time>2018-09-16T08:24:10Z</time>
      </trkpt>
      <trkpt lat="39.2881080" lon="-0.7341720">
        <ele>532.0</ele>
        <time>2018-09-16T08:24:11Z</time>
      </trkpt>
      <trkpt lat="39.2880830" lon="-0.7342170">
        <ele>532.0</ele>
        <time>2018-09-16T08:24:12Z</time>
      </trkpt>
      <trkpt lat="39.2880830" lon="-0.7342170">
        <ele>532.0</ele>
        <time>2018-09-16T08:24:13Z</time>
      </trkpt>
      <trkpt lat="39.2880380" lon="-0.7343100">
        <ele>532.0</ele>
        <time>2018-09-16T08:24:14Z</time>
      </trkpt>
      <trkpt lat="39.2880380" lon="-0.7343100">
        <ele>532.0</ele>
        <time>2018-09-16T08:24:15Z</time>
      </trkpt>
      <trkpt lat="39.2880020" lon="-0.7344100">
        <ele>532.0</ele>
        <time>2018-09-16T08:24:16Z</time>
      </trkpt>
      <trkpt lat="39.2880020" lon="-0.7344100">
        <ele>533.0</ele>
        <time>2018-09-16T08:24:17Z</time>
      </trkpt>
      <trkpt lat="39.2879720" lon="-0.7345130">
        <ele>533.0</ele>
        <time>2018-09-16T08:24:18Z</time>
      </trkpt>
      <trkpt lat="39.2879720" lon="-0.7345130">
        <ele>533.0</ele>
        <time>2018-09-16T08:24:19Z</time>
      </trkpt>
      <trkpt lat="39.2879470" lon="-0.7346200">
        <ele>533.0</ele>
        <time>2018-09-16T08:24:20Z</time>
      </trkpt>
      <trkpt lat="39.2879400" lon="-0.7346730">
        <ele>534.0</ele>
        <time>2018-09-16T08:24:21Z</time>
      </trkpt>
      <trkpt lat="39.2879330" lon="-0.7347270">
        <ele>534.0</ele>
        <time>2018-09-16T08:24:22Z</time>
      </trkpt>
      <trkpt lat="39.2879330" lon="-0.7347270">
        <ele>534.0</ele>
        <time>2018-09-16T08:24:23Z</time>
      </trkpt>
      <trkpt lat="39.2879230" lon="-0.7348380">
        <ele>534.0</ele>
        <time>2018-09-16T08:24:24Z</time>
      </trkpt>
      <trkpt lat="39.2879230" lon="-0.7348380">
        <ele>534.0</ele>
        <time>2018-09-16T08:24:25Z</time>
      </trkpt>
      <trkpt lat="39.2879130" lon="-0.7349530">
        <ele>534.0</ele>
        <time>2018-09-16T08:24:26Z</time>
      </trkpt>
      <trkpt lat="39.2879130" lon="-0.7349530">
        <ele>535.0</ele>
        <time>2018-09-16T08:24:27Z</time>
      </trkpt>
      <trkpt lat="39.2879050" lon="-0.7350630">
        <ele>535.0</ele>
        <time>2018-09-16T08:24:28Z</time>
      </trkpt>
      <trkpt lat="39.2879050" lon="-0.7350630">
        <ele>535.0</ele>
        <time>2018-09-16T08:24:29Z</time>
      </trkpt>
      <trkpt lat="39.2878980" lon="-0.7351680">
        <ele>535.0</ele>
        <time>2018-09-16T08:24:30Z</time>
      </trkpt>
      <trkpt lat="39.2878980" lon="-0.7351680">
        <ele>536.0</ele>
        <time>2018-09-16T08:24:31Z</time>
      </trkpt>
      <trkpt lat="39.2878900" lon="-0.7352730">
        <ele>536.0</ele>
        <time>2018-09-16T08:24:32Z</time>
      </trkpt>
      <trkpt lat="39.2878900" lon="-0.7352730">
        <ele>536.0</ele>
        <time>2018-09-16T08:24:33Z</time>
      </trkpt>
      <trkpt lat="39.2878830" lon="-0.7353770">
        <ele>536.0</ele>
        <time>2018-09-16T08:24:34Z</time>
      </trkpt>
      <trkpt lat="39.2878830" lon="-0.7353770">
        <ele>537.0</ele>
        <time>2018-09-16T08:24:35Z</time>
      </trkpt>
      <trkpt lat="39.2878750" lon="-0.7354730">
        <ele>537.0</ele>
        <time>2018-09-16T08:24:36Z</time>
      </trkpt>
      <trkpt lat="39.2878750" lon="-0.7354730">
        <ele>537.0</ele>
        <time>2018-09-16T08:24:37Z</time>
      </trkpt>
      <trkpt lat="39.2878700" lon="-0.7355680">
        <ele>537.0</ele>
        <time>2018-09-16T08:24:38Z</time>
      </trkpt>
      <trkpt lat="39.2878670" lon="-0.7356150">
        <ele>537.0</ele>
        <time>2018-09-16T08:24:39Z</time>
      </trkpt>
      <trkpt lat="39.2878670" lon="-0.7356150">
        <ele>538.0</ele>
        <time>2018-09-16T08:24:40Z</time>
      </trkpt>
      <trkpt lat="39.2878550" lon="-0.7357120">
        <ele>538.0</ele>
        <time>2018-09-16T08:24:41Z</time>
      </trkpt>
      <trkpt lat="39.2878520" lon="-0.7357580">
        <ele>538.0</ele>
        <time>2018-09-16T08:24:42Z</time>
      </trkpt>
      <trkpt lat="39.2878500" lon="-0.7358080">
        <ele>538.0</ele>
        <time>2018-09-16T08:24:43Z</time>
      </trkpt>
      <trkpt lat="39.2878500" lon="-0.7358080">
        <ele>539.0</ele>
        <time>2018-09-16T08:24:44Z</time>
      </trkpt>
      <trkpt lat="39.2878480" lon="-0.7359070">
        <ele>539.0</ele>
        <time>2018-09-16T08:24:45Z</time>
      </trkpt>
      <trkpt lat="39.2878480" lon="-0.7359070">
        <ele>539.0</ele>
        <time>2018-09-16T08:24:46Z</time>
      </trkpt>
      <trkpt lat="39.2878570" lon="-0.7360030">
        <ele>539.0</ele>
        <time>2018-09-16T08:24:47Z</time>
      </trkpt>
      <trkpt lat="39.2878650" lon="-0.7360520">
        <ele>539.0</ele>
        <time>2018-09-16T08:24:48Z</time>
      </trkpt>
      <trkpt lat="39.2878650" lon="-0.7360520">
        <ele>539.0</ele>
        <time>2018-09-16T08:24:49Z</time>
      </trkpt>
      <trkpt lat="39.2878830" lon="-0.7361470">
        <ele>539.0</ele>
        <time>2018-09-16T08:24:50Z</time>
      </trkpt>
      <trkpt lat="39.2878830" lon="-0.7361470">
        <ele>539.0</ele>
        <time>2018-09-16T08:24:51Z</time>
      </trkpt>
      <trkpt lat="39.2879050" lon="-0.7362400">
        <ele>539.0</ele>
        <time>2018-09-16T08:24:52Z</time>
      </trkpt>
      <trkpt lat="39.2879150" lon="-0.7362870">
        <ele>540.0</ele>
        <time>2018-09-16T08:24:53Z</time>
      </trkpt>
      <trkpt lat="39.2879150" lon="-0.7362870">
        <ele>540.0</ele>
        <time>2018-09-16T08:24:54Z</time>
      </trkpt>
      <trkpt lat="39.2879330" lon="-0.7363830">
        <ele>540.0</ele>
        <time>2018-09-16T08:24:55Z</time>
      </trkpt>
      <trkpt lat="39.2879330" lon="-0.7363830">
        <ele>540.0</ele>
        <time>2018-09-16T08:24:56Z</time>
      </trkpt>
      <trkpt lat="39.2879500" lon="-0.7364770">
        <ele>540.0</ele>
        <time>2018-09-16T08:24:57Z</time>
      </trkpt>
      <trkpt lat="39.2879520" lon="-0.7365250">
        <ele>540.0</ele>
        <time>2018-09-16T08:24:58Z</time>
      </trkpt>
      <trkpt lat="39.2879520" lon="-0.7365250">
        <ele>540.0</ele>
        <time>2018-09-16T08:24:59Z</time>
      </trkpt>
      <trkpt lat="39.2879420" lon="-0.7366180">
        <ele>540.0</ele>
        <time>2018-09-16T08:25:00Z</time>
      </trkpt>
      <trkpt lat="39.2879420" lon="-0.7366180">
        <ele>541.0</ele>
        <time>2018-09-16T08:25:01Z</time>
      </trkpt>
      <trkpt lat="39.2879150" lon="-0.7367120">
        <ele>541.0</ele>
        <time>2018-09-16T08:25:02Z</time>
      </trkpt>
      <trkpt lat="39.2879150" lon="-0.7367120">
        <ele>541.0</ele>
        <time>2018-09-16T08:25:03Z</time>
      </trkpt>
      <trkpt lat="39.2878680" lon="-0.7367920">
        <ele>541.0</ele>
        <time>2018-09-16T08:25:04Z</time>
      </trkpt>
      <trkpt lat="39.2878680" lon="-0.7367920">
        <ele>541.0</ele>
        <time>2018-09-16T08:25:05Z</time>
      </trkpt>
      <trkpt lat="39.2878220" lon="-0.7368780">
        <ele>541.0</ele>
        <time>2018-09-16T08:25:06Z</time>
      </trkpt>
      <trkpt lat="39.2878220" lon="-0.7368780">
        <ele>541.0</ele>
        <time>2018-09-16T08:25:07Z</time>
      </trkpt>
      <trkpt lat="39.2877780" lon="-0.7369700">
        <ele>541.0</ele>
        <time>2018-09-16T08:25:08Z</time>
      </trkpt>
      <trkpt lat="39.2877780" lon="-0.7369700">
        <ele>541.0</ele>
        <time>2018-09-16T08:25:09Z</time>
      </trkpt>
      <trkpt lat="39.2877430" lon="-0.7370580">
        <ele>541.0</ele>
        <time>2018-09-16T08:25:10Z</time>
      </trkpt>
      <trkpt lat="39.2877430" lon="-0.7370580">
        <ele>541.0</ele>
        <time>2018-09-16T08:25:11Z</time>
      </trkpt>
      <trkpt lat="39.2877100" lon="-0.7371500">
        <ele>541.0</ele>
        <time>2018-09-16T08:25:12Z</time>
      </trkpt>
      <trkpt lat="39.2877100" lon="-0.7371500">
        <ele>541.0</ele>
        <time>2018-09-16T08:25:13Z</time>
      </trkpt>
      <trkpt lat="39.2876780" lon="-0.7372470">
        <ele>542.0</ele>
        <time>2018-09-16T08:25:14Z</time>
      </trkpt>
      <trkpt lat="39.2876780" lon="-0.7372470">
        <ele>542.0</ele>
        <time>2018-09-16T08:25:15Z</time>
      </trkpt>
      <trkpt lat="39.2876520" lon="-0.7373430">
        <ele>542.0</ele>
        <time>2018-09-16T08:25:16Z</time>
      </trkpt>
      <trkpt lat="39.2876380" lon="-0.7373900">
        <ele>542.0</ele>
        <time>2018-09-16T08:25:17Z</time>
      </trkpt>
      <trkpt lat="39.2876380" lon="-0.7373900">
        <ele>542.0</ele>
        <time>2018-09-16T08:25:18Z</time>
      </trkpt>
      <trkpt lat="39.2876150" lon="-0.7374820">
        <ele>542.0</ele>
        <time>2018-09-16T08:25:19Z</time>
      </trkpt>
      <trkpt lat="39.2876070" lon="-0.7375280">
        <ele>543.0</ele>
        <time>2018-09-16T08:25:20Z</time>
      </trkpt>
      <trkpt lat="39.2876070" lon="-0.7375280">
        <ele>543.0</ele>
        <time>2018-09-16T08:25:21Z</time>
      </trkpt>
      <trkpt lat="39.2875830" lon="-0.7376250">
        <ele>543.0</ele>
        <time>2018-09-16T08:25:22Z</time>
      </trkpt>
      <trkpt lat="39.2875730" lon="-0.7376720">
        <ele>543.0</ele>
        <time>2018-09-16T08:25:23Z</time>
      </trkpt>
      <trkpt lat="39.2875630" lon="-0.7377150">
        <ele>543.0</ele>
        <time>2018-09-16T08:25:24Z</time>
      </trkpt>
      <trkpt lat="39.2875630" lon="-0.7377150">
        <ele>543.0</ele>
        <time>2018-09-16T08:25:25Z</time>
      </trkpt>
      <trkpt lat="39.2875400" lon="-0.7377950">
        <ele>544.0</ele>
        <time>2018-09-16T08:25:26Z</time>
      </trkpt>
      <trkpt lat="39.2875270" lon="-0.7378300">
        <ele>544.0</ele>
        <time>2018-09-16T08:25:27Z</time>
      </trkpt>
      <trkpt lat="39.2875270" lon="-0.7378300">
        <ele>544.0</ele>
        <time>2018-09-16T08:25:28Z</time>
      </trkpt>
      <trkpt lat="39.2874970" lon="-0.7379020">
        <ele>544.0</ele>
        <time>2018-09-16T08:25:29Z</time>
      </trkpt>
      <trkpt lat="39.2874830" lon="-0.7379420">
        <ele>544.0</ele>
        <time>2018-09-16T08:25:30Z</time>
      </trkpt>
      <trkpt lat="39.2874830" lon="-0.7379420">
        <ele>544.0</ele>
        <time>2018-09-16T08:25:31Z</time>
      </trkpt>
      <trkpt lat="39.2874500" lon="-0.7380230">
        <ele>545.0</ele>
        <time>2018-09-16T08:25:32Z</time>
      </trkpt>
      <trkpt lat="39.2874320" lon="-0.7380620">
        <ele>545.0</ele>
        <time>2018-09-16T08:25:33Z</time>
      </trkpt>
      <trkpt lat="39.2874100" lon="-0.7381030">
        <ele>545.0</ele>
        <time>2018-09-16T08:25:34Z</time>
      </trkpt>
      <trkpt lat="39.2874100" lon="-0.7381030">
        <ele>545.0</ele>
        <time>2018-09-16T08:25:35Z</time>
      </trkpt>
      <trkpt lat="39.2873680" lon="-0.7381900">
        <ele>545.0</ele>
        <time>2018-09-16T08:25:36Z</time>
      </trkpt>
      <trkpt lat="39.2873680" lon="-0.7381900">
        <ele>546.0</ele>
        <time>2018-09-16T08:25:37Z</time>
      </trkpt>
      <trkpt lat="39.2873400" lon="-0.7382820">
        <ele>546.0</ele>
        <time>2018-09-16T08:25:38Z</time>
      </trkpt>
      <trkpt lat="39.2873400" lon="-0.7382820">
        <ele>546.0</ele>
        <time>2018-09-16T08:25:39Z</time>
      </trkpt>
      <trkpt lat="39.2873200" lon="-0.7383870">
        <ele>546.0</ele>
        <time>2018-09-16T08:25:40Z</time>
      </trkpt>
      <trkpt lat="39.2873200" lon="-0.7383870">
        <ele>546.0</ele>
        <time>2018-09-16T08:25:41Z</time>
      </trkpt>
      <trkpt lat="39.2873150" lon="-0.7384820">
        <ele>546.0</ele>
        <time>2018-09-16T08:25:42Z</time>
      </trkpt>
      <trkpt lat="39.2873150" lon="-0.7384820">
        <ele>546.0</ele>
        <time>2018-09-16T08:25:43Z</time>
      </trkpt>
      <trkpt lat="39.2873120" lon="-0.7385720">
        <ele>546.0</ele>
        <time>2018-09-16T08:25:44Z</time>
      </trkpt>
      <trkpt lat="39.2873130" lon="-0.7386170">
        <ele>547.0</ele>
        <time>2018-09-16T08:25:45Z</time>
      </trkpt>
      <trkpt lat="39.2873130" lon="-0.7386170">
        <ele>547.0</ele>
        <time>2018-09-16T08:25:46Z</time>
      </trkpt>
      <trkpt lat="39.2873180" lon="-0.7387050">
        <ele>547.0</ele>
        <time>2018-09-16T08:25:47Z</time>
      </trkpt>
      <trkpt lat="39.2873230" lon="-0.7387470">
        <ele>547.0</ele>
        <time>2018-09-16T08:25:48Z</time>
      </trkpt>
      <trkpt lat="39.2873230" lon="-0.7387470">
        <ele>548.0</ele>
        <time>2018-09-16T08:25:49Z</time>
      </trkpt>
      <trkpt lat="39.2873370" lon="-0.7388280">
        <ele>548.0</ele>
        <time>2018-09-16T08:25:50Z</time>
      </trkpt>
      <trkpt lat="39.2873470" lon="-0.7388700">
        <ele>548.0</ele>
        <time>2018-09-16T08:25:51Z</time>
      </trkpt>
      <trkpt lat="39.2873470" lon="-0.7388700">
        <ele>548.0</ele>
        <time>2018-09-16T08:25:52Z</time>
      </trkpt>
      <trkpt lat="39.2873580" lon="-0.7389550">
        <ele>549.0</ele>
        <time>2018-09-16T08:25:53Z</time>
      </trkpt>
      <trkpt lat="39.2873570" lon="-0.7389970">
        <ele>549.0</ele>
        <time>2018-09-16T08:25:54Z</time>
      </trkpt>
      <trkpt lat="39.2873570" lon="-0.7389970">
        <ele>549.0</ele>
        <time>2018-09-16T08:25:55Z</time>
      </trkpt>
      <trkpt lat="39.2873520" lon="-0.7390780">
        <ele>549.0</ele>
        <time>2018-09-16T08:25:56Z</time>
      </trkpt>
      <trkpt lat="39.2873520" lon="-0.7390780">
        <ele>550.0</ele>
        <time>2018-09-16T08:25:57Z</time>
      </trkpt>
      <trkpt lat="39.2873500" lon="-0.7391600">
        <ele>550.0</ele>
        <time>2018-09-16T08:25:58Z</time>
      </trkpt>
      <trkpt lat="39.2873500" lon="-0.7391600">
        <ele>550.0</ele>
        <time>2018-09-16T08:25:59Z</time>
      </trkpt>
      <trkpt lat="39.2873470" lon="-0.7392400">
        <ele>550.0</ele>
        <time>2018-09-16T08:26:00Z</time>
      </trkpt>
      <trkpt lat="39.2873470" lon="-0.7392400">
        <ele>550.0</ele>
        <time>2018-09-16T08:26:01Z</time>
      </trkpt>
      <trkpt lat="39.2873300" lon="-0.7393200">
        <ele>551.0</ele>
        <time>2018-09-16T08:26:02Z</time>
      </trkpt>
      <trkpt lat="39.2873170" lon="-0.7393620">
        <ele>551.0</ele>
        <time>2018-09-16T08:26:03Z</time>
      </trkpt>
      <trkpt lat="39.2873170" lon="-0.7393620">
        <ele>551.0</ele>
        <time>2018-09-16T08:26:04Z</time>
      </trkpt>
      <trkpt lat="39.2872900" lon="-0.7394400">
        <ele>551.0</ele>
        <time>2018-09-16T08:26:05Z</time>
      </trkpt>
      <trkpt lat="39.2872750" lon="-0.7394750">
        <ele>551.0</ele>
        <time>2018-09-16T08:26:06Z</time>
      </trkpt>
      <trkpt lat="39.2872750" lon="-0.7394750">
        <ele>551.0</ele>
        <time>2018-09-16T08:26:07Z</time>
      </trkpt>
      <trkpt lat="39.2872420" lon="-0.7395450">
        <ele>551.0</ele>
        <time>2018-09-16T08:26:08Z</time>
      </trkpt>
      <trkpt lat="39.2872420" lon="-0.7395450">
        <ele>551.0</ele>
        <time>2018-09-16T08:26:09Z</time>
      </trkpt>
      <trkpt lat="39.2872080" lon="-0.7396130">
        <ele>551.0</ele>
        <time>2018-09-16T08:26:10Z</time>
      </trkpt>
      <trkpt lat="39.2872080" lon="-0.7396130">
        <ele>551.0</ele>
        <time>2018-09-16T08:26:11Z</time>
      </trkpt>
      <trkpt lat="39.2871730" lon="-0.7396870">
        <ele>551.0</ele>
        <time>2018-09-16T08:26:12Z</time>
      </trkpt>
      <trkpt lat="39.2871730" lon="-0.7396870">
        <ele>551.0</ele>
        <time>2018-09-16T08:26:13Z</time>
      </trkpt>
      <trkpt lat="39.2871370" lon="-0.7397800">
        <ele>551.0</ele>
        <time>2018-09-16T08:26:14Z</time>
      </trkpt>
      <trkpt lat="39.2871180" lon="-0.7398300">
        <ele>551.0</ele>
        <time>2018-09-16T08:26:15Z</time>
      </trkpt>
      <trkpt lat="39.2871180" lon="-0.7398300">
        <ele>551.0</ele>
        <time>2018-09-16T08:26:16Z</time>
      </trkpt>
      <trkpt lat="39.2870780" lon="-0.7399450">
        <ele>551.0</ele>
        <time>2018-09-16T08:26:17Z</time>
      </trkpt>
      <trkpt lat="39.2870580" lon="-0.7400100">
        <ele>551.0</ele>
        <time>2018-09-16T08:26:18Z</time>
      </trkpt>
      <trkpt lat="39.2870580" lon="-0.7400100">
        <ele>551.0</ele>
        <time>2018-09-16T08:26:19Z</time>
      </trkpt>
      <trkpt lat="39.2870150" lon="-0.7401620">
        <ele>551.0</ele>
        <time>2018-09-16T08:26:20Z</time>
      </trkpt>
      <trkpt lat="39.2870150" lon="-0.7401620">
        <ele>551.0</ele>
        <time>2018-09-16T08:26:21Z</time>
      </trkpt>
      <trkpt lat="39.2869770" lon="-0.7403420">
        <ele>550.0</ele>
        <time>2018-09-16T08:26:22Z</time>
      </trkpt>
      <trkpt lat="39.2869630" lon="-0.7404430">
        <ele>550.0</ele>
        <time>2018-09-16T08:26:23Z</time>
      </trkpt>
      <trkpt lat="39.2869630" lon="-0.7404430">
        <ele>550.0</ele>
        <time>2018-09-16T08:26:24Z</time>
      </trkpt>
      <trkpt lat="39.2869650" lon="-0.7406670">
        <ele>550.0</ele>
        <time>2018-09-16T08:26:25Z</time>
      </trkpt>
      <trkpt lat="39.2869650" lon="-0.7406670">
        <ele>549.0</ele>
        <time>2018-09-16T08:26:26Z</time>
      </trkpt>
      <trkpt lat="39.2870020" lon="-0.7408930">
        <ele>549.0</ele>
        <time>2018-09-16T08:26:27Z</time>
      </trkpt>
      <trkpt lat="39.2870220" lon="-0.7410100">
        <ele>548.0</ele>
        <time>2018-09-16T08:26:28Z</time>
      </trkpt>
      <trkpt lat="39.2870220" lon="-0.7410100">
        <ele>547.0</ele>
        <time>2018-09-16T08:26:29Z</time>
      </trkpt>
      <trkpt lat="39.2870520" lon="-0.7412380">
        <ele>547.0</ele>
        <time>2018-09-16T08:26:30Z</time>
      </trkpt>
      <trkpt lat="39.2870520" lon="-0.7412380">
        <ele>547.0</ele>
        <time>2018-09-16T08:26:31Z</time>
      </trkpt>
      <trkpt lat="39.2870700" lon="-0.7414650">
        <ele>547.0</ele>
        <time>2018-09-16T08:26:32Z</time>
      </trkpt>
      <trkpt lat="39.2870770" lon="-0.7415730">
        <ele>546.0</ele>
        <time>2018-09-16T08:26:33Z</time>
      </trkpt>
      <trkpt lat="39.2870770" lon="-0.7415730">
        <ele>546.0</ele>
        <time>2018-09-16T08:26:34Z</time>
      </trkpt>
      <trkpt lat="39.2870880" lon="-0.7417800">
        <ele>546.0</ele>
        <time>2018-09-16T08:26:35Z</time>
      </trkpt>
      <trkpt lat="39.2870950" lon="-0.7418780">
        <ele>546.0</ele>
        <time>2018-09-16T08:26:36Z</time>
      </trkpt>
      <trkpt lat="39.2870950" lon="-0.7418780">
        <ele>546.0</ele>
        <time>2018-09-16T08:26:37Z</time>
      </trkpt>
      <trkpt lat="39.2871120" lon="-0.7420730">
        <ele>546.0</ele>
        <time>2018-09-16T08:26:38Z</time>
      </trkpt>
      <trkpt lat="39.2871120" lon="-0.7420730">
        <ele>545.0</ele>
        <time>2018-09-16T08:26:39Z</time>
      </trkpt>
      <trkpt lat="39.2871320" lon="-0.7422650">
        <ele>545.0</ele>
        <time>2018-09-16T08:26:40Z</time>
      </trkpt>
      <trkpt lat="39.2871420" lon="-0.7423620">
        <ele>545.0</ele>
        <time>2018-09-16T08:26:41Z</time>
      </trkpt>
      <trkpt lat="39.2871530" lon="-0.7424580">
        <ele>545.0</ele>
        <time>2018-09-16T08:26:42Z</time>
      </trkpt>
      <trkpt lat="39.2871530" lon="-0.7424580">
        <ele>545.0</ele>
        <time>2018-09-16T08:26:43Z</time>
      </trkpt>
      <trkpt lat="39.2871780" lon="-0.7426550">
        <ele>545.0</ele>
        <time>2018-09-16T08:26:44Z</time>
      </trkpt>
      <trkpt lat="39.2871780" lon="-0.7426550">
        <ele>545.0</ele>
        <time>2018-09-16T08:26:45Z</time>
      </trkpt>
      <trkpt lat="39.2871950" lon="-0.7428570">
        <ele>545.0</ele>
        <time>2018-09-16T08:26:46Z</time>
      </trkpt>
      <trkpt lat="39.2871950" lon="-0.7428570">
        <ele>545.0</ele>
        <time>2018-09-16T08:26:47Z</time>
      </trkpt>
      <trkpt lat="39.2872030" lon="-0.7430630">
        <ele>545.0</ele>
        <time>2018-09-16T08:26:48Z</time>
      </trkpt>
      <trkpt lat="39.2872030" lon="-0.7430630">
        <ele>545.0</ele>
        <time>2018-09-16T08:26:49Z</time>
      </trkpt>
      <trkpt lat="39.2872050" lon="-0.7432770">
        <ele>545.0</ele>
        <time>2018-09-16T08:26:50Z</time>
      </trkpt>
      <trkpt lat="39.2872050" lon="-0.7432770">
        <ele>543.0</ele>
        <time>2018-09-16T08:26:51Z</time>
      </trkpt>
      <trkpt lat="39.2872000" lon="-0.7434970">
        <ele>543.0</ele>
        <time>2018-09-16T08:26:52Z</time>
      </trkpt>
      <trkpt lat="39.2871950" lon="-0.7436100">
        <ele>543.0</ele>
        <time>2018-09-16T08:26:53Z</time>
      </trkpt>
      <trkpt lat="39.2871950" lon="-0.7436100">
        <ele>543.0</ele>
        <time>2018-09-16T08:26:54Z</time>
      </trkpt>
      <trkpt lat="39.2871720" lon="-0.7438370">
        <ele>543.0</ele>
        <time>2018-09-16T08:26:55Z</time>
      </trkpt>
      <trkpt lat="39.2871720" lon="-0.7438370">
        <ele>543.0</ele>
        <time>2018-09-16T08:26:56Z</time>
      </trkpt>
      <trkpt lat="39.2870950" lon="-0.7440470">
        <ele>541.0</ele>
        <time>2018-09-16T08:26:57Z</time>
      </trkpt>
      <trkpt lat="39.2870330" lon="-0.7441400">
        <ele>540.0</ele>
        <time>2018-09-16T08:26:58Z</time>
      </trkpt>
      <trkpt lat="39.2870330" lon="-0.7441400">
        <ele>540.0</ele>
        <time>2018-09-16T08:26:59Z</time>
      </trkpt>
      <trkpt lat="39.2868950" lon="-0.7443200">
        <ele>539.0</ele>
        <time>2018-09-16T08:27:00Z</time>
      </trkpt>
      <trkpt lat="39.2868950" lon="-0.7443200">
        <ele>539.0</ele>
        <time>2018-09-16T08:27:01Z</time>
      </trkpt>
      <trkpt lat="39.2867420" lon="-0.7445100">
        <ele>538.0</ele>
        <time>2018-09-16T08:27:02Z</time>
      </trkpt>
      <trkpt lat="39.2866630" lon="-0.7446120">
        <ele>538.0</ele>
        <time>2018-09-16T08:27:03Z</time>
      </trkpt>
      <trkpt lat="39.2866630" lon="-0.7446120">
        <ele>536.0</ele>
        <time>2018-09-16T08:27:04Z</time>
      </trkpt>
      <trkpt lat="39.2865000" lon="-0.7448220">
        <ele>536.0</ele>
        <time>2018-09-16T08:27:05Z</time>
      </trkpt>
      <trkpt lat="39.2864130" lon="-0.7449250">
        <ele>534.0</ele>
        <time>2018-09-16T08:27:06Z</time>
      </trkpt>
      <trkpt lat="39.2864130" lon="-0.7449250">
        <ele>534.0</ele>
        <time>2018-09-16T08:27:07Z</time>
      </trkpt>
      <trkpt lat="39.2862370" lon="-0.7451350">
        <ele>533.0</ele>
        <time>2018-09-16T08:27:08Z</time>
      </trkpt>
      <trkpt lat="39.2862370" lon="-0.7451350">
        <ele>533.0</ele>
        <time>2018-09-16T08:27:09Z</time>
      </trkpt>
      <trkpt lat="39.2860520" lon="-0.7453370">
        <ele>531.0</ele>
        <time>2018-09-16T08:27:10Z</time>
      </trkpt>
      <trkpt lat="39.2860520" lon="-0.7453370">
        <ele>531.0</ele>
        <time>2018-09-16T08:27:11Z</time>
      </trkpt>
      <trkpt lat="39.2858570" lon="-0.7455100">
        <ele>530.0</ele>
        <time>2018-09-16T08:27:12Z</time>
      </trkpt>
      <trkpt lat="39.2857720" lon="-0.7455900">
        <ele>530.0</ele>
        <time>2018-09-16T08:27:13Z</time>
      </trkpt>
      <trkpt lat="39.2857720" lon="-0.7455900">
        <ele>528.0</ele>
        <time>2018-09-16T08:27:14Z</time>
      </trkpt>
      <trkpt lat="39.2857000" lon="-0.7457870">
        <ele>528.0</ele>
        <time>2018-09-16T08:27:15Z</time>
      </trkpt>
      <trkpt lat="39.2857000" lon="-0.7457870">
        <ele>528.0</ele>
        <time>2018-09-16T08:27:16Z</time>
      </trkpt>
      <trkpt lat="39.2857630" lon="-0.7459870">
        <ele>528.0</ele>
        <time>2018-09-16T08:27:17Z</time>
      </trkpt>
      <trkpt lat="39.2858180" lon="-0.7460750">
        <ele>528.0</ele>
        <time>2018-09-16T08:27:18Z</time>
      </trkpt>
      <trkpt lat="39.2858180" lon="-0.7460750">
        <ele>528.0</ele>
        <time>2018-09-16T08:27:19Z</time>
      </trkpt>
      <trkpt lat="39.2859230" lon="-0.7462650">
        <ele>528.0</ele>
        <time>2018-09-16T08:27:20Z</time>
      </trkpt>
      <trkpt lat="39.2859230" lon="-0.7462650">
        <ele>528.0</ele>
        <time>2018-09-16T08:27:21Z</time>
      </trkpt>
      <trkpt lat="39.2860250" lon="-0.7464580">
        <ele>527.0</ele>
        <time>2018-09-16T08:27:22Z</time>
      </trkpt>
      <trkpt lat="39.2860720" lon="-0.7465600">
        <ele>527.0</ele>
        <time>2018-09-16T08:27:23Z</time>
      </trkpt>
      <trkpt lat="39.2861070" lon="-0.7466720">
        <ele>527.0</ele>
        <time>2018-09-16T08:27:24Z</time>
      </trkpt>
      <trkpt lat="39.2861070" lon="-0.7466720">
        <ele>527.0</ele>
        <time>2018-09-16T08:27:25Z</time>
      </trkpt>
      <trkpt lat="39.2861530" lon="-0.7469030">
        <ele>527.0</ele>
        <time>2018-09-16T08:27:26Z</time>
      </trkpt>
      <trkpt lat="39.2861670" lon="-0.7470280">
        <ele>526.0</ele>
        <time>2018-09-16T08:27:27Z</time>
      </trkpt>
      <trkpt lat="39.2861670" lon="-0.7470280">
        <ele>526.0</ele>
        <time>2018-09-16T08:27:28Z</time>
      </trkpt>
      <trkpt lat="39.2861820" lon="-0.7472720">
        <ele>526.0</ele>
        <time>2018-09-16T08:27:29Z</time>
      </trkpt>
      <trkpt lat="39.2861820" lon="-0.7473920">
        <ele>526.0</ele>
        <time>2018-09-16T08:27:30Z</time>
      </trkpt>
      <trkpt lat="39.2861780" lon="-0.7475100">
        <ele>525.0</ele>
        <time>2018-09-16T08:27:31Z</time>
      </trkpt>
      <trkpt lat="39.2861780" lon="-0.7475100">
        <ele>525.0</ele>
        <time>2018-09-16T08:27:32Z</time>
      </trkpt>
      <trkpt lat="39.2861770" lon="-0.7477380">
        <ele>525.0</ele>
        <time>2018-09-16T08:27:33Z</time>
      </trkpt>
      <trkpt lat="39.2861770" lon="-0.7477380">
        <ele>525.0</ele>
        <time>2018-09-16T08:27:34Z</time>
      </trkpt>
      <trkpt lat="39.2861700" lon="-0.7479620">
        <ele>524.0</ele>
        <time>2018-09-16T08:27:35Z</time>
      </trkpt>
      <trkpt lat="39.2861700" lon="-0.7479620">
        <ele>524.0</ele>
        <time>2018-09-16T08:27:36Z</time>
      </trkpt>
      <trkpt lat="39.2861680" lon="-0.7481830">
        <ele>524.0</ele>
        <time>2018-09-16T08:27:37Z</time>
      </trkpt>
      <trkpt lat="39.2861680" lon="-0.7481830">
        <ele>524.0</ele>
        <time>2018-09-16T08:27:38Z</time>
      </trkpt>
      <trkpt lat="39.2861700" lon="-0.7484020">
        <ele>524.0</ele>
        <time>2018-09-16T08:27:39Z</time>
      </trkpt>
      <trkpt lat="39.2861730" lon="-0.7485130">
        <ele>524.0</ele>
        <time>2018-09-16T08:27:40Z</time>
      </trkpt>
      <trkpt lat="39.2861780" lon="-0.7486230">
        <ele>524.0</ele>
        <time>2018-09-16T08:27:41Z</time>
      </trkpt>
      <trkpt lat="39.2861780" lon="-0.7486230">
        <ele>524.0</ele>
        <time>2018-09-16T08:27:42Z</time>
      </trkpt>
      <trkpt lat="39.2861950" lon="-0.7488400">
        <ele>524.0</ele>
        <time>2018-09-16T08:27:43Z</time>
      </trkpt>
      <trkpt lat="39.2861950" lon="-0.7488400">
        <ele>524.0</ele>
        <time>2018-09-16T08:27:44Z</time>
      </trkpt>
      <trkpt lat="39.2862180" lon="-0.7490550">
        <ele>523.0</ele>
        <time>2018-09-16T08:27:45Z</time>
      </trkpt>
      <trkpt lat="39.2862180" lon="-0.7490550">
        <ele>523.0</ele>
        <time>2018-09-16T08:27:46Z</time>
      </trkpt>
      <trkpt lat="39.2862430" lon="-0.7492700">
        <ele>523.0</ele>
        <time>2018-09-16T08:27:47Z</time>
      </trkpt>
      <trkpt lat="39.2862430" lon="-0.7492700">
        <ele>523.0</ele>
        <time>2018-09-16T08:27:48Z</time>
      </trkpt>
      <trkpt lat="39.2862650" lon="-0.7494920">
        <ele>523.0</ele>
        <time>2018-09-16T08:27:49Z</time>
      </trkpt>
      <trkpt lat="39.2862650" lon="-0.7494920">
        <ele>523.0</ele>
        <time>2018-09-16T08:27:50Z</time>
      </trkpt>
      <trkpt lat="39.2862880" lon="-0.7497220">
        <ele>522.0</ele>
        <time>2018-09-16T08:27:51Z</time>
      </trkpt>
      <trkpt lat="39.2862880" lon="-0.7497220">
        <ele>522.0</ele>
        <time>2018-09-16T08:27:52Z</time>
      </trkpt>
      <trkpt lat="39.2863100" lon="-0.7499600">
        <ele>522.0</ele>
        <time>2018-09-16T08:27:53Z</time>
      </trkpt>
      <trkpt lat="39.2863200" lon="-0.7500830">
        <ele>521.0</ele>
        <time>2018-09-16T08:27:54Z</time>
      </trkpt>
      <trkpt lat="39.2863200" lon="-0.7500830">
        <ele>521.0</ele>
        <time>2018-09-16T08:27:55Z</time>
      </trkpt>
      <trkpt lat="39.2863480" lon="-0.7503280">
        <ele>521.0</ele>
        <time>2018-09-16T08:27:56Z</time>
      </trkpt>
      <trkpt lat="39.2863480" lon="-0.7503280">
        <ele>521.0</ele>
        <time>2018-09-16T08:27:57Z</time>
      </trkpt>
      <trkpt lat="39.2863870" lon="-0.7505720">
        <ele>519.0</ele>
        <time>2018-09-16T08:27:58Z</time>
      </trkpt>
      <trkpt lat="39.2863870" lon="-0.7505720">
        <ele>519.0</ele>
        <time>2018-09-16T08:27:59Z</time>
      </trkpt>
      <trkpt lat="39.2864320" lon="-0.7508120">
        <ele>518.0</ele>
        <time>2018-09-16T08:28:00Z</time>
      </trkpt>
      <trkpt lat="39.2864320" lon="-0.7508120">
        <ele>518.0</ele>
        <time>2018-09-16T08:28:01Z</time>
      </trkpt>
      <trkpt lat="39.2864820" lon="-0.7510430">
        <ele>518.0</ele>
        <time>2018-09-16T08:28:02Z</time>
      </trkpt>
      <trkpt lat="39.2864820" lon="-0.7510430">
        <ele>518.0</ele>
        <time>2018-09-16T08:28:03Z</time>
      </trkpt>
      <trkpt lat="39.2865380" lon="-0.7512630">
        <ele>518.0</ele>
        <time>2018-09-16T08:28:04Z</time>
      </trkpt>
      <trkpt lat="39.2865380" lon="-0.7512630">
        <ele>518.0</ele>
        <time>2018-09-16T08:28:05Z</time>
      </trkpt>
      <trkpt lat="39.2866100" lon="-0.7514670">
        <ele>518.0</ele>
        <time>2018-09-16T08:28:06Z</time>
      </trkpt>
      <trkpt lat="39.2866100" lon="-0.7514670">
        <ele>518.0</ele>
        <time>2018-09-16T08:28:07Z</time>
      </trkpt>
      <trkpt lat="39.2866980" lon="-0.7516530">
        <ele>518.0</ele>
        <time>2018-09-16T08:28:08Z</time>
      </trkpt>
      <trkpt lat="39.2866980" lon="-0.7516530">
        <ele>518.0</ele>
        <time>2018-09-16T08:28:09Z</time>
      </trkpt>
      <trkpt lat="39.2867750" lon="-0.7518370">
        <ele>518.0</ele>
        <time>2018-09-16T08:28:10Z</time>
      </trkpt>
      <trkpt lat="39.2868050" lon="-0.7519320">
        <ele>518.0</ele>
        <time>2018-09-16T08:28:11Z</time>
      </trkpt>
      <trkpt lat="39.2868330" lon="-0.7520270">
        <ele>518.0</ele>
        <time>2018-09-16T08:28:12Z</time>
      </trkpt>
      <trkpt lat="39.2868330" lon="-0.7520270">
        <ele>518.0</ele>
        <time>2018-09-16T08:28:13Z</time>
      </trkpt>
      <trkpt lat="39.2868630" lon="-0.7522330">
        <ele>516.0</ele>
        <time>2018-09-16T08:28:14Z</time>
      </trkpt>
      <trkpt lat="39.2868670" lon="-0.7523470">
        <ele>516.0</ele>
        <time>2018-09-16T08:28:15Z</time>
      </trkpt>
      <trkpt lat="39.2868670" lon="-0.7523470">
        <ele>516.0</ele>
        <time>2018-09-16T08:28:16Z</time>
      </trkpt>
      <trkpt lat="39.2868800" lon="-0.7525800">
        <ele>516.0</ele>
        <time>2018-09-16T08:28:17Z</time>
      </trkpt>
      <trkpt lat="39.2868800" lon="-0.7525800">
        <ele>516.0</ele>
        <time>2018-09-16T08:28:18Z</time>
      </trkpt>
      <trkpt lat="39.2869280" lon="-0.7528130">
        <ele>516.0</ele>
        <time>2018-09-16T08:28:19Z</time>
      </trkpt>
      <trkpt lat="39.2869720" lon="-0.7529200">
        <ele>514.0</ele>
        <time>2018-09-16T08:28:20Z</time>
      </trkpt>
      <trkpt lat="39.2869720" lon="-0.7529200">
        <ele>514.0</ele>
        <time>2018-09-16T08:28:21Z</time>
      </trkpt>
      <trkpt lat="39.2870750" lon="-0.7531180">
        <ele>514.0</ele>
        <time>2018-09-16T08:28:22Z</time>
      </trkpt>
      <trkpt lat="39.2871450" lon="-0.7532760">
        <ele>513.0</ele>
        <time>2018-09-16T08:28:23Z</time>
      </trkpt>
      <trkpt lat="39.2871670" lon="-0.7533300">
        <ele>513.0</ele>
        <time>2018-09-16T08:28:24Z</time>
      </trkpt>
      <trkpt lat="39.2872100" lon="-0.7534380">
        <ele>513.0</ele>
        <time>2018-09-16T08:28:25Z</time>
      </trkpt>
      <trkpt lat="39.2872100" lon="-0.7534380">
        <ele>513.0</ele>
        <time>2018-09-16T08:28:26Z</time>
      </trkpt>
      <trkpt lat="39.2872830" lon="-0.7536620">
        <ele>512.0</ele>
        <time>2018-09-16T08:28:27Z</time>
      </trkpt>
      <trkpt lat="39.2873180" lon="-0.7537720">
        <ele>512.0</ele>
        <time>2018-09-16T08:28:28Z</time>
      </trkpt>
      <trkpt lat="39.2873180" lon="-0.7537720">
        <ele>512.0</ele>
        <time>2018-09-16T08:28:29Z</time>
      </trkpt>
      <trkpt lat="39.2873930" lon="-0.7539820">
        <ele>512.0</ele>
        <time>2018-09-16T08:28:30Z</time>
      </trkpt>
      <trkpt lat="39.2874380" lon="-0.7540770">
        <ele>511.0</ele>
        <time>2018-09-16T08:28:31Z</time>
      </trkpt>
      <trkpt lat="39.2874380" lon="-0.7540770">
        <ele>511.0</ele>
        <time>2018-09-16T08:28:32Z</time>
      </trkpt>
      <trkpt lat="39.2875450" lon="-0.7542520">
        <ele>511.0</ele>
        <time>2018-09-16T08:28:33Z</time>
      </trkpt>
      <trkpt lat="39.2876020" lon="-0.7543280">
        <ele>511.0</ele>
        <time>2018-09-16T08:28:34Z</time>
      </trkpt>
      <trkpt lat="39.2876020" lon="-0.7543280">
        <ele>510.0</ele>
        <time>2018-09-16T08:28:35Z</time>
      </trkpt>
      <trkpt lat="39.2877130" lon="-0.7544780">
        <ele>510.0</ele>
        <time>2018-09-16T08:28:36Z</time>
      </trkpt>
      <trkpt lat="39.2877130" lon="-0.7544780">
        <ele>510.0</ele>
        <time>2018-09-16T08:28:37Z</time>
      </trkpt>
      <trkpt lat="39.2877980" lon="-0.7546380">
        <ele>510.0</ele>
        <time>2018-09-16T08:28:38Z</time>
      </trkpt>
      <trkpt lat="39.2877980" lon="-0.7546380">
        <ele>510.0</ele>
        <time>2018-09-16T08:28:39Z</time>
      </trkpt>
      <trkpt lat="39.2878480" lon="-0.7548170">
        <ele>510.0</ele>
        <time>2018-09-16T08:28:40Z</time>
      </trkpt>
      <trkpt lat="39.2878480" lon="-0.7548170">
        <ele>510.0</ele>
        <time>2018-09-16T08:28:41Z</time>
      </trkpt>
      <trkpt lat="39.2878730" lon="-0.7549930">
        <ele>510.0</ele>
        <time>2018-09-16T08:28:42Z</time>
      </trkpt>
      <trkpt lat="39.2878730" lon="-0.7549930">
        <ele>510.0</ele>
        <time>2018-09-16T08:28:43Z</time>
      </trkpt>
      <trkpt lat="39.2878880" lon="-0.7551550">
        <ele>510.0</ele>
        <time>2018-09-16T08:28:44Z</time>
      </trkpt>
      <trkpt lat="39.2878880" lon="-0.7552270">
        <ele>510.0</ele>
        <time>2018-09-16T08:28:45Z</time>
      </trkpt>
      <trkpt lat="39.2878880" lon="-0.7552270">
        <ele>510.0</ele>
        <time>2018-09-16T08:28:46Z</time>
      </trkpt>
      <trkpt lat="39.2878700" lon="-0.7553570">
        <ele>510.0</ele>
        <time>2018-09-16T08:28:47Z</time>
      </trkpt>
      <trkpt lat="39.2878520" lon="-0.7554180">
        <ele>510.0</ele>
        <time>2018-09-16T08:28:48Z</time>
      </trkpt>
      <trkpt lat="39.2878520" lon="-0.7554180">
        <ele>510.0</ele>
        <time>2018-09-16T08:28:49Z</time>
      </trkpt>
      <trkpt lat="39.2878070" lon="-0.7555250">
        <ele>510.0</ele>
        <time>2018-09-16T08:28:50Z</time>
      </trkpt>
      <trkpt lat="39.2877830" lon="-0.7555770">
        <ele>510.0</ele>
        <time>2018-09-16T08:28:51Z</time>
      </trkpt>
      <trkpt lat="39.2877830" lon="-0.7555770">
        <ele>512.0</ele>
        <time>2018-09-16T08:28:52Z</time>
      </trkpt>
      <trkpt lat="39.2877370" lon="-0.7556820">
        <ele>512.0</ele>
        <time>2018-09-16T08:28:53Z</time>
      </trkpt>
      <trkpt lat="39.2877370" lon="-0.7556820">
        <ele>513.0</ele>
        <time>2018-09-16T08:28:54Z</time>
      </trkpt>
      <trkpt lat="39.2877020" lon="-0.7557930">
        <ele>513.0</ele>
        <time>2018-09-16T08:28:55Z</time>
      </trkpt>
      <trkpt lat="39.2877020" lon="-0.7557930">
        <ele>514.0</ele>
        <time>2018-09-16T08:28:56Z</time>
      </trkpt>
      <trkpt lat="39.2876770" lon="-0.7559050">
        <ele>514.0</ele>
        <time>2018-09-16T08:28:57Z</time>
      </trkpt>
      <trkpt lat="39.2876700" lon="-0.7559620">
        <ele>515.0</ele>
        <time>2018-09-16T08:28:58Z</time>
      </trkpt>
      <trkpt lat="39.2876700" lon="-0.7559620">
        <ele>515.0</ele>
        <time>2018-09-16T08:28:59Z</time>
      </trkpt>
      <trkpt lat="39.2876670" lon="-0.7560670">
        <ele>516.0</ele>
        <time>2018-09-16T08:29:00Z</time>
      </trkpt>
      <trkpt lat="39.2876670" lon="-0.7560670">
        <ele>516.0</ele>
        <time>2018-09-16T08:29:01Z</time>
      </trkpt>
      <trkpt lat="39.2876650" lon="-0.7561550">
        <ele>516.0</ele>
        <time>2018-09-16T08:29:02Z</time>
      </trkpt>
      <trkpt lat="39.2876650" lon="-0.7561980">
        <ele>516.0</ele>
        <time>2018-09-16T08:29:03Z</time>
      </trkpt>
      <trkpt lat="39.2876670" lon="-0.7562670">
        <ele>518.0</ele>
        <time>2018-09-16T08:29:04Z</time>
      </trkpt>
      <trkpt lat="39.2876680" lon="-0.7562920">
        <ele>518.0</ele>
        <time>2018-09-16T08:29:05Z</time>
      </trkpt>
      <trkpt lat="39.2876700" lon="-0.7563170">
        <ele>518.0</ele>
        <time>2018-09-16T08:29:06Z</time>
      </trkpt>
      <trkpt lat="39.2876700" lon="-0.7563170">
        <ele>518.0</ele>
        <time>2018-09-16T08:29:07Z</time>
      </trkpt>
      <trkpt lat="39.2876730" lon="-0.7563880">
        <ele>519.0</ele>
        <time>2018-09-16T08:29:08Z</time>
      </trkpt>
      <trkpt lat="39.2876730" lon="-0.7564230">
        <ele>519.0</ele>
        <time>2018-09-16T08:29:09Z</time>
      </trkpt>
      <trkpt lat="39.2876730" lon="-0.7564230">
        <ele>519.0</ele>
        <time>2018-09-16T08:29:10Z</time>
      </trkpt>
      <trkpt lat="39.2876770" lon="-0.7564950">
        <ele>519.0</ele>
        <time>2018-09-16T08:29:11Z</time>
      </trkpt>
      <trkpt lat="39.2876770" lon="-0.7564950">
        <ele>519.0</ele>
        <time>2018-09-16T08:29:12Z</time>
      </trkpt>
      <trkpt lat="39.2876770" lon="-0.7565630">
        <ele>519.0</ele>
        <time>2018-09-16T08:29:13Z</time>
      </trkpt>
      <trkpt lat="39.2876750" lon="-0.7565980">
        <ele>519.0</ele>
        <time>2018-09-16T08:29:14Z</time>
      </trkpt>
      <trkpt lat="39.2876750" lon="-0.7565980">
        <ele>519.0</ele>
        <time>2018-09-16T08:29:15Z</time>
      </trkpt>
      <trkpt lat="39.2876750" lon="-0.7566770">
        <ele>521.0</ele>
        <time>2018-09-16T08:29:16Z</time>
      </trkpt>
      <trkpt lat="39.2876730" lon="-0.7567180">
        <ele>521.0</ele>
        <time>2018-09-16T08:29:17Z</time>
      </trkpt>
      <trkpt lat="39.2876720" lon="-0.7567570">
        <ele>521.0</ele>
        <time>2018-09-16T08:29:18Z</time>
      </trkpt>
      <trkpt lat="39.2876720" lon="-0.7567570">
        <ele>521.0</ele>
        <time>2018-09-16T08:29:19Z</time>
      </trkpt>
      <trkpt lat="39.2876720" lon="-0.7568320">
        <ele>521.0</ele>
        <time>2018-09-16T08:29:20Z</time>
      </trkpt>
      <trkpt lat="39.2876730" lon="-0.7568680">
        <ele>522.0</ele>
        <time>2018-09-16T08:29:21Z</time>
      </trkpt>
      <trkpt lat="39.2876730" lon="-0.7568680">
        <ele>522.0</ele>
        <time>2018-09-16T08:29:22Z</time>
      </trkpt>
      <trkpt lat="39.2876770" lon="-0.7569470">
        <ele>522.0</ele>
        <time>2018-09-16T08:29:23Z</time>
      </trkpt>
      <trkpt lat="39.2876770" lon="-0.7569470">
        <ele>522.0</ele>
        <time>2018-09-16T08:29:24Z</time>
      </trkpt>
      <trkpt lat="39.2876820" lon="-0.7570280">
        <ele>522.0</ele>
        <time>2018-09-16T08:29:25Z</time>
      </trkpt>
      <trkpt lat="39.2876820" lon="-0.7570280">
        <ele>522.0</ele>
        <time>2018-09-16T08:29:26Z</time>
      </trkpt>
      <trkpt lat="39.2876900" lon="-0.7571070">
        <ele>522.0</ele>
        <time>2018-09-16T08:29:27Z</time>
      </trkpt>
      <trkpt lat="39.2876900" lon="-0.7571070">
        <ele>522.0</ele>
        <time>2018-09-16T08:29:28Z</time>
      </trkpt>
      <trkpt lat="39.2876970" lon="-0.7572040">
        <ele>522.0</ele>
        <time>2018-09-16T08:29:29Z</time>
      </trkpt>
      <trkpt lat="39.2876970" lon="-0.7572270">
        <ele>522.0</ele>
        <time>2018-09-16T08:29:30Z</time>
      </trkpt>
      <trkpt lat="39.2876970" lon="-0.7572270">
        <ele>522.0</ele>
        <time>2018-09-16T08:29:31Z</time>
      </trkpt>
      <trkpt lat="39.2877000" lon="-0.7573270">
        <ele>522.0</ele>
        <time>2018-09-16T08:29:32Z</time>
      </trkpt>
      <trkpt lat="39.2876980" lon="-0.7573820">
        <ele>522.0</ele>
        <time>2018-09-16T08:29:33Z</time>
      </trkpt>
      <trkpt lat="39.2876980" lon="-0.7574370">
        <ele>522.0</ele>
        <time>2018-09-16T08:29:34Z</time>
      </trkpt>
      <trkpt lat="39.2876980" lon="-0.7574370">
        <ele>522.0</ele>
        <time>2018-09-16T08:29:35Z</time>
      </trkpt>
      <trkpt lat="39.2877000" lon="-0.7575520">
        <ele>522.0</ele>
        <time>2018-09-16T08:29:36Z</time>
      </trkpt>
      <trkpt lat="39.2877000" lon="-0.7575520">
        <ele>522.0</ele>
        <time>2018-09-16T08:29:37Z</time>
      </trkpt>
      <trkpt lat="39.2877030" lon="-0.7576770">
        <ele>522.0</ele>
        <time>2018-09-16T08:29:38Z</time>
      </trkpt>
      <trkpt lat="39.2877030" lon="-0.7576770">
        <ele>522.0</ele>
        <time>2018-09-16T08:29:39Z</time>
      </trkpt>
      <trkpt lat="39.2877080" lon="-0.7578120">
        <ele>522.0</ele>
        <time>2018-09-16T08:29:40Z</time>
      </trkpt>
      <trkpt lat="39.2877080" lon="-0.7578120">
        <ele>522.0</ele>
        <time>2018-09-16T08:29:41Z</time>
      </trkpt>
      <trkpt lat="39.2877130" lon="-0.7579500">
        <ele>522.0</ele>
        <time>2018-09-16T08:29:42Z</time>
      </trkpt>
      <trkpt lat="39.2877150" lon="-0.7580200">
        <ele>522.0</ele>
        <time>2018-09-16T08:29:43Z</time>
      </trkpt>
      <trkpt lat="39.2877150" lon="-0.7580200">
        <ele>522.0</ele>
        <time>2018-09-16T08:29:44Z</time>
      </trkpt>
      <trkpt lat="39.2877180" lon="-0.7581600">
        <ele>522.0</ele>
        <time>2018-09-16T08:29:45Z</time>
      </trkpt>
      <trkpt lat="39.2877200" lon="-0.7582330">
        <ele>522.0</ele>
        <time>2018-09-16T08:29:46Z</time>
      </trkpt>
      <trkpt lat="39.2877200" lon="-0.7582330">
        <ele>522.0</ele>
        <time>2018-09-16T08:29:47Z</time>
      </trkpt>
      <trkpt lat="39.2877250" lon="-0.7583850">
        <ele>522.0</ele>
        <time>2018-09-16T08:29:48Z</time>
      </trkpt>
      <trkpt lat="39.2877250" lon="-0.7583850">
        <ele>522.0</ele>
        <time>2018-09-16T08:29:49Z</time>
      </trkpt>
      <trkpt lat="39.2877280" lon="-0.7585400">
        <ele>522.0</ele>
        <time>2018-09-16T08:29:50Z</time>
      </trkpt>
      <trkpt lat="39.2877250" lon="-0.7586200">
        <ele>522.0</ele>
        <time>2018-09-16T08:29:51Z</time>
      </trkpt>
      <trkpt lat="39.2877250" lon="-0.7586200">
        <ele>522.0</ele>
        <time>2018-09-16T08:29:52Z</time>
      </trkpt>
      <trkpt lat="39.2877270" lon="-0.7587780">
        <ele>522.0</ele>
        <time>2018-09-16T08:29:53Z</time>
      </trkpt>
      <trkpt lat="39.2877280" lon="-0.7588570">
        <ele>522.0</ele>
        <time>2018-09-16T08:29:54Z</time>
      </trkpt>
      <trkpt lat="39.2877280" lon="-0.7588570">
        <ele>522.0</ele>
        <time>2018-09-16T08:29:55Z</time>
      </trkpt>
      <trkpt lat="39.2877320" lon="-0.7590080">
        <ele>522.0</ele>
        <time>2018-09-16T08:29:56Z</time>
      </trkpt>
      <trkpt lat="39.2877330" lon="-0.7590820">
        <ele>522.0</ele>
        <time>2018-09-16T08:29:57Z</time>
      </trkpt>
      <trkpt lat="39.2877330" lon="-0.7590820">
        <ele>522.0</ele>
        <time>2018-09-16T08:29:58Z</time>
      </trkpt>
      <trkpt lat="39.2877380" lon="-0.7592280">
        <ele>522.0</ele>
        <time>2018-09-16T08:29:59Z</time>
      </trkpt>
      <trkpt lat="39.2877400" lon="-0.7593000">
        <ele>522.0</ele>
        <time>2018-09-16T08:30:00Z</time>
      </trkpt>
      <trkpt lat="39.2877400" lon="-0.7593000">
        <ele>522.0</ele>
        <time>2018-09-16T08:30:01Z</time>
      </trkpt>
      <trkpt lat="39.2877400" lon="-0.7594430">
        <ele>522.0</ele>
        <time>2018-09-16T08:30:02Z</time>
      </trkpt>
      <trkpt lat="39.2877420" lon="-0.7595130">
        <ele>522.0</ele>
        <time>2018-09-16T08:30:03Z</time>
      </trkpt>
      <trkpt lat="39.2877420" lon="-0.7595130">
        <ele>522.0</ele>
        <time>2018-09-16T08:30:04Z</time>
      </trkpt>
      <trkpt lat="39.2877450" lon="-0.7596500">
        <ele>522.0</ele>
        <time>2018-09-16T08:30:05Z</time>
      </trkpt>
      <trkpt lat="39.2877470" lon="-0.7597170">
        <ele>522.0</ele>
        <time>2018-09-16T08:30:06Z</time>
      </trkpt>
      <trkpt lat="39.2877470" lon="-0.7597170">
        <ele>522.0</ele>
        <time>2018-09-16T08:30:07Z</time>
      </trkpt>
      <trkpt lat="39.2877450" lon="-0.7598470">
        <ele>522.0</ele>
        <time>2018-09-16T08:30:08Z</time>
      </trkpt>
      <trkpt lat="39.2877450" lon="-0.7598470">
        <ele>522.0</ele>
        <time>2018-09-16T08:30:09Z</time>
      </trkpt>
      <trkpt lat="39.2877470" lon="-0.7599730">
        <ele>522.0</ele>
        <time>2018-09-16T08:30:10Z</time>
      </trkpt>
      <trkpt lat="39.2877470" lon="-0.7600300">
        <ele>522.0</ele>
        <time>2018-09-16T08:30:11Z</time>
      </trkpt>
      <trkpt lat="39.2877470" lon="-0.7600880">
        <ele>522.0</ele>
        <time>2018-09-16T08:30:12Z</time>
      </trkpt>
      <trkpt lat="39.2877480" lon="-0.7601430">
        <ele>522.0</ele>
        <time>2018-09-16T08:30:13Z</time>
      </trkpt>
      <trkpt lat="39.2877480" lon="-0.7601430">
        <ele>522.0</ele>
        <time>2018-09-16T08:30:14Z</time>
      </trkpt>
      <trkpt lat="39.2877530" lon="-0.7602550">
        <ele>522.0</ele>
        <time>2018-09-16T08:30:15Z</time>
      </trkpt>
      <trkpt lat="39.2877530" lon="-0.7602550">
        <ele>522.0</ele>
        <time>2018-09-16T08:30:16Z</time>
      </trkpt>
      <trkpt lat="39.2877500" lon="-0.7603850">
        <ele>522.0</ele>
        <time>2018-09-16T08:30:17Z</time>
      </trkpt>
      <trkpt lat="39.2877450" lon="-0.7604530">
        <ele>522.0</ele>
        <time>2018-09-16T08:30:18Z</time>
      </trkpt>
      <trkpt lat="39.2877370" lon="-0.7605270">
        <ele>522.0</ele>
        <time>2018-09-16T08:30:19Z</time>
      </trkpt>
      <trkpt lat="39.2877370" lon="-0.7605270">
        <ele>522.0</ele>
        <time>2018-09-16T08:30:20Z</time>
      </trkpt>
      <trkpt lat="39.2877180" lon="-0.7606930">
        <ele>522.0</ele>
        <time>2018-09-16T08:30:21Z</time>
      </trkpt>
      <trkpt lat="39.2877180" lon="-0.7606930">
        <ele>522.0</ele>
        <time>2018-09-16T08:30:22Z</time>
      </trkpt>
      <trkpt lat="39.2877470" lon="-0.7608830">
        <ele>521.0</ele>
        <time>2018-09-16T08:30:23Z</time>
      </trkpt>
      <trkpt lat="39.2878030" lon="-0.7609600">
        <ele>521.0</ele>
        <time>2018-09-16T08:30:24Z</time>
      </trkpt>
      <trkpt lat="39.2878030" lon="-0.7609600">
        <ele>520.0</ele>
        <time>2018-09-16T08:30:25Z</time>
      </trkpt>
      <trkpt lat="39.2879630" lon="-0.7610870">
        <ele>520.0</ele>
        <time>2018-09-16T08:30:26Z</time>
      </trkpt>
      <trkpt lat="39.2879630" lon="-0.7610870">
        <ele>518.0</ele>
        <time>2018-09-16T08:30:27Z</time>
      </trkpt>
      <trkpt lat="39.2881350" lon="-0.7612450">
        <ele>518.0</ele>
        <time>2018-09-16T08:30:28Z</time>
      </trkpt>
      <trkpt lat="39.2881350" lon="-0.7612450">
        <ele>516.0</ele>
        <time>2018-09-16T08:30:29Z</time>
      </trkpt>
      <trkpt lat="39.2882980" lon="-0.7614400">
        <ele>516.0</ele>
        <time>2018-09-16T08:30:30Z</time>
      </trkpt>
      <trkpt lat="39.2882980" lon="-0.7614400">
        <ele>515.0</ele>
        <time>2018-09-16T08:30:31Z</time>
      </trkpt>
      <trkpt lat="39.2884470" lon="-0.7616630">
        <ele>515.0</ele>
        <time>2018-09-16T08:30:32Z</time>
      </trkpt>
      <trkpt lat="39.2884470" lon="-0.7616630">
        <ele>513.0</ele>
        <time>2018-09-16T08:30:33Z</time>
      </trkpt>
      <trkpt lat="39.2885980" lon="-0.7619280">
        <ele>513.0</ele>
        <time>2018-09-16T08:30:34Z</time>
      </trkpt>
      <trkpt lat="39.2886630" lon="-0.7620830">
        <ele>512.0</ele>
        <time>2018-09-16T08:30:35Z</time>
      </trkpt>
      <trkpt lat="39.2887220" lon="-0.7622520">
        <ele>512.0</ele>
        <time>2018-09-16T08:30:36Z</time>
      </trkpt>
      <trkpt lat="39.2887220" lon="-0.7622520">
        <ele>510.0</ele>
        <time>2018-09-16T08:30:37Z</time>
      </trkpt>
      <trkpt lat="39.2888130" lon="-0.7626150">
        <ele>510.0</ele>
        <time>2018-09-16T08:30:38Z</time>
      </trkpt>
      <trkpt lat="39.2888130" lon="-0.7626150">
        <ele>508.0</ele>
        <time>2018-09-16T08:30:39Z</time>
      </trkpt>
      <trkpt lat="39.2888920" lon="-0.7629800">
        <ele>505.0</ele>
        <time>2018-09-16T08:30:40Z</time>
      </trkpt>
      <trkpt lat="39.2888920" lon="-0.7629800">
        <ele>505.0</ele>
        <time>2018-09-16T08:30:41Z</time>
      </trkpt>
      <trkpt lat="39.2889380" lon="-0.7633080">
        <ele>502.0</ele>
        <time>2018-09-16T08:30:42Z</time>
      </trkpt>
      <trkpt lat="39.2889380" lon="-0.7633080">
        <ele>502.0</ele>
        <time>2018-09-16T08:30:43Z</time>
      </trkpt>
      <trkpt lat="39.2888730" lon="-0.7636230">
        <ele>500.0</ele>
        <time>2018-09-16T08:30:44Z</time>
      </trkpt>
      <trkpt lat="39.2888730" lon="-0.7636230">
        <ele>500.0</ele>
        <time>2018-09-16T08:30:45Z</time>
      </trkpt>
      <trkpt lat="39.2887980" lon="-0.7639100">
        <ele>497.0</ele>
        <time>2018-09-16T08:30:46Z</time>
      </trkpt>
      <trkpt lat="39.2887980" lon="-0.7639100">
        <ele>497.0</ele>
        <time>2018-09-16T08:30:47Z</time>
      </trkpt>
      <trkpt lat="39.2888430" lon="-0.7642020">
        <ele>494.0</ele>
        <time>2018-09-16T08:30:48Z</time>
      </trkpt>
      <trkpt lat="39.2888430" lon="-0.7642020">
        <ele>494.0</ele>
        <time>2018-09-16T08:30:49Z</time>
      </trkpt>
      <trkpt lat="39.2889880" lon="-0.7644750">
        <ele>492.0</ele>
        <time>2018-09-16T08:30:50Z</time>
      </trkpt>
      <trkpt lat="39.2889880" lon="-0.7644750">
        <ele>492.0</ele>
        <time>2018-09-16T08:30:51Z</time>
      </trkpt>
      <trkpt lat="39.2891700" lon="-0.7647050">
        <ele>489.0</ele>
        <time>2018-09-16T08:30:52Z</time>
      </trkpt>
      <trkpt lat="39.2892700" lon="-0.7647950">
        <ele>489.0</ele>
        <time>2018-09-16T08:30:53Z</time>
      </trkpt>
      <trkpt lat="39.2892700" lon="-0.7647950">
        <ele>486.0</ele>
        <time>2018-09-16T08:30:54Z</time>
      </trkpt>
      <trkpt lat="39.2894580" lon="-0.7648150">
        <ele>486.0</ele>
        <time>2018-09-16T08:30:55Z</time>
      </trkpt>
      <trkpt lat="39.2894580" lon="-0.7648150">
        <ele>482.0</ele>
        <time>2018-09-16T08:30:56Z</time>
      </trkpt>
      <trkpt lat="39.2896300" lon="-0.7646630">
        <ele>482.0</ele>
        <time>2018-09-16T08:30:57Z</time>
      </trkpt>
      <trkpt lat="39.2897020" lon="-0.7646000">
        <ele>479.0</ele>
        <time>2018-09-16T08:30:58Z</time>
      </trkpt>
      <trkpt lat="39.2897020" lon="-0.7646000">
        <ele>479.0</ele>
        <time>2018-09-16T08:30:59Z</time>
      </trkpt>
      <trkpt lat="39.2898400" lon="-0.7646230">
        <ele>477.0</ele>
        <time>2018-09-16T08:31:00Z</time>
      </trkpt>
      <trkpt lat="39.2898400" lon="-0.7646230">
        <ele>477.0</ele>
        <time>2018-09-16T08:31:01Z</time>
      </trkpt>
      <trkpt lat="39.2899370" lon="-0.7648120">
        <ele>475.0</ele>
        <time>2018-09-16T08:31:02Z</time>
      </trkpt>
      <trkpt lat="39.2899370" lon="-0.7648120">
        <ele>475.0</ele>
        <time>2018-09-16T08:31:03Z</time>
      </trkpt>
      <trkpt lat="39.2899950" lon="-0.7650580">
        <ele>473.0</ele>
        <time>2018-09-16T08:31:04Z</time>
      </trkpt>
      <trkpt lat="39.2899950" lon="-0.7650580">
        <ele>473.0</ele>
        <time>2018-09-16T08:31:05Z</time>
      </trkpt>
      <trkpt lat="39.2900430" lon="-0.7653420">
        <ele>471.0</ele>
        <time>2018-09-16T08:31:06Z</time>
      </trkpt>
      <trkpt lat="39.2900700" lon="-0.7654900">
        <ele>469.0</ele>
        <time>2018-09-16T08:31:07Z</time>
      </trkpt>
      <trkpt lat="39.2900700" lon="-0.7654900">
        <ele>469.0</ele>
        <time>2018-09-16T08:31:08Z</time>
      </trkpt>
      <trkpt lat="39.2901350" lon="-0.7657930">
        <ele>467.0</ele>
        <time>2018-09-16T08:31:09Z</time>
      </trkpt>
      <trkpt lat="39.2901350" lon="-0.7657930">
        <ele>467.0</ele>
        <time>2018-09-16T08:31:10Z</time>
      </trkpt>
      <trkpt lat="39.2902370" lon="-0.7660900">
        <ele>464.0</ele>
        <time>2018-09-16T08:31:11Z</time>
      </trkpt>
      <trkpt lat="39.2902370" lon="-0.7660900">
        <ele>464.0</ele>
        <time>2018-09-16T08:31:12Z</time>
      </trkpt>
      <trkpt lat="39.2903780" lon="-0.7663320">
        <ele>462.0</ele>
        <time>2018-09-16T08:31:13Z</time>
      </trkpt>
      <trkpt lat="39.2903780" lon="-0.7663320">
        <ele>462.0</ele>
        <time>2018-09-16T08:31:14Z</time>
      </trkpt>
      <trkpt lat="39.2905730" lon="-0.7664850">
        <ele>460.0</ele>
        <time>2018-09-16T08:31:15Z</time>
      </trkpt>
      <trkpt lat="39.2905730" lon="-0.7664850">
        <ele>460.0</ele>
        <time>2018-09-16T08:31:16Z</time>
      </trkpt>
      <trkpt lat="39.2907450" lon="-0.7665720">
        <ele>458.0</ele>
        <time>2018-09-16T08:31:17Z</time>
      </trkpt>
      <trkpt lat="39.2907450" lon="-0.7665720">
        <ele>458.0</ele>
        <time>2018-09-16T08:31:18Z</time>
      </trkpt>
      <trkpt lat="39.2907970" lon="-0.7667430">
        <ele>456.0</ele>
        <time>2018-09-16T08:31:19Z</time>
      </trkpt>
      <trkpt lat="39.2907700" lon="-0.7668350">
        <ele>456.0</ele>
        <time>2018-09-16T08:31:20Z</time>
      </trkpt>
      <trkpt lat="39.2907080" lon="-0.7669000">
        <ele>455.0</ele>
        <time>2018-09-16T08:31:21Z</time>
      </trkpt>
      <trkpt lat="39.2907080" lon="-0.7669000">
        <ele>455.0</ele>
        <time>2018-09-16T08:31:22Z</time>
      </trkpt>
      <trkpt lat="39.2905380" lon="-0.7668630">
        <ele>454.0</ele>
        <time>2018-09-16T08:31:23Z</time>
      </trkpt>
      <trkpt lat="39.2904500" lon="-0.7668130">
        <ele>454.0</ele>
        <time>2018-09-16T08:31:24Z</time>
      </trkpt>
      <trkpt lat="39.2904500" lon="-0.7668130">
        <ele>453.0</ele>
        <time>2018-09-16T08:31:25Z</time>
      </trkpt>
      <trkpt lat="39.2902670" lon="-0.7666920">
        <ele>453.0</ele>
        <time>2018-09-16T08:31:26Z</time>
      </trkpt>
      <trkpt lat="39.2902670" lon="-0.7666920">
        <ele>452.0</ele>
        <time>2018-09-16T08:31:27Z</time>
      </trkpt>
      <trkpt lat="39.2900770" lon="-0.7665450">
        <ele>452.0</ele>
        <time>2018-09-16T08:31:28Z</time>
      </trkpt>
      <trkpt lat="39.2900770" lon="-0.7665450">
        <ele>451.0</ele>
        <time>2018-09-16T08:31:29Z</time>
      </trkpt>
      <trkpt lat="39.2898930" lon="-0.7664180">
        <ele>451.0</ele>
        <time>2018-09-16T08:31:30Z</time>
      </trkpt>
      <trkpt lat="39.2898930" lon="-0.7664180">
        <ele>451.0</ele>
        <time>2018-09-16T08:31:31Z</time>
      </trkpt>
      <trkpt lat="39.2897300" lon="-0.7664300">
        <ele>451.0</ele>
        <time>2018-09-16T08:31:32Z</time>
      </trkpt>
      <trkpt lat="39.2897300" lon="-0.7664300">
        <ele>450.0</ele>
        <time>2018-09-16T08:31:33Z</time>
      </trkpt>
      <trkpt lat="39.2896220" lon="-0.7666030">
        <ele>450.0</ele>
        <time>2018-09-16T08:31:34Z</time>
      </trkpt>
      <trkpt lat="39.2896220" lon="-0.7666030">
        <ele>450.0</ele>
        <time>2018-09-16T08:31:35Z</time>
      </trkpt>
      <trkpt lat="39.2894920" lon="-0.7668030">
        <ele>448.0</ele>
        <time>2018-09-16T08:31:36Z</time>
      </trkpt>
      <trkpt lat="39.2894920" lon="-0.7668030">
        <ele>448.0</ele>
        <time>2018-09-16T08:31:37Z</time>
      </trkpt>
      <trkpt lat="39.2893250" lon="-0.7670030">
        <ele>447.0</ele>
        <time>2018-09-16T08:31:38Z</time>
      </trkpt>
      <trkpt lat="39.2893250" lon="-0.7670030">
        <ele>447.0</ele>
        <time>2018-09-16T08:31:39Z</time>
      </trkpt>
      <trkpt lat="39.2892120" lon="-0.7672950">
        <ele>445.0</ele>
        <time>2018-09-16T08:31:40Z</time>
      </trkpt>
      <trkpt lat="39.2892120" lon="-0.7672950">
        <ele>445.0</ele>
        <time>2018-09-16T08:31:41Z</time>
      </trkpt>
      <trkpt lat="39.2891350" lon="-0.7676430">
        <ele>443.0</ele>
        <time>2018-09-16T08:31:42Z</time>
      </trkpt>
      <trkpt lat="39.2891350" lon="-0.7676430">
        <ele>443.0</ele>
        <time>2018-09-16T08:31:43Z</time>
      </trkpt>
      <trkpt lat="39.2890530" lon="-0.7680050">
        <ele>441.0</ele>
        <time>2018-09-16T08:31:44Z</time>
      </trkpt>
      <trkpt lat="39.2890530" lon="-0.7680050">
        <ele>441.0</ele>
        <time>2018-09-16T08:31:45Z</time>
      </trkpt>
      <trkpt lat="39.2889630" lon="-0.7683850">
        <ele>441.0</ele>
        <time>2018-09-16T08:31:46Z</time>
      </trkpt>
      <trkpt lat="39.2889630" lon="-0.7683850">
        <ele>438.0</ele>
        <time>2018-09-16T08:31:47Z</time>
      </trkpt>
      <trkpt lat="39.2888550" lon="-0.7687650">
        <ele>438.0</ele>
        <time>2018-09-16T08:31:48Z</time>
      </trkpt>
      <trkpt lat="39.2888550" lon="-0.7687650">
        <ele>438.0</ele>
        <time>2018-09-16T08:31:49Z</time>
      </trkpt>
      <trkpt lat="39.2887250" lon="-0.7691350">
        <ele>435.0</ele>
        <time>2018-09-16T08:31:50Z</time>
      </trkpt>
      <trkpt lat="39.2887250" lon="-0.7691350">
        <ele>435.0</ele>
        <time>2018-09-16T08:31:51Z</time>
      </trkpt>
      <trkpt lat="39.2885880" lon="-0.7694680">
        <ele>432.0</ele>
        <time>2018-09-16T08:31:52Z</time>
      </trkpt>
      <trkpt lat="39.2885280" lon="-0.7696170">
        <ele>432.0</ele>
        <time>2018-09-16T08:31:53Z</time>
      </trkpt>
      <trkpt lat="39.2884900" lon="-0.7697680">
        <ele>430.0</ele>
        <time>2018-09-16T08:31:54Z</time>
      </trkpt>
      <trkpt lat="39.2884850" lon="-0.7699180">
        <ele>430.0</ele>
        <time>2018-09-16T08:31:55Z</time>
      </trkpt>
      <trkpt lat="39.2884850" lon="-0.7699180">
        <ele>429.0</ele>
        <time>2018-09-16T08:31:56Z</time>
      </trkpt>
      <trkpt lat="39.2885380" lon="-0.7702170">
        <ele>429.0</ele>
        <time>2018-09-16T08:31:57Z</time>
      </trkpt>
      <trkpt lat="39.2885380" lon="-0.7702170">
        <ele>428.0</ele>
        <time>2018-09-16T08:31:58Z</time>
      </trkpt>
      <trkpt lat="39.2886250" lon="-0.7705070">
        <ele>428.0</ele>
        <time>2018-09-16T08:31:59Z</time>
      </trkpt>
      <trkpt lat="39.2886870" lon="-0.7706280">
        <ele>426.0</ele>
        <time>2018-09-16T08:32:00Z</time>
      </trkpt>
      <trkpt lat="39.2886870" lon="-0.7706280">
        <ele>426.0</ele>
        <time>2018-09-16T08:32:01Z</time>
      </trkpt>
      <trkpt lat="39.2888680" lon="-0.7707730">
        <ele>425.0</ele>
        <time>2018-09-16T08:32:02Z</time>
      </trkpt>
      <trkpt lat="39.2889750" lon="-0.7708050">
        <ele>423.0</ele>
        <time>2018-09-16T08:32:03Z</time>
      </trkpt>
      <trkpt lat="39.2889750" lon="-0.7708050">
        <ele>423.0</ele>
        <time>2018-09-16T08:32:04Z</time>
      </trkpt>
      <trkpt lat="39.2891700" lon="-0.7708570">
        <ele>421.0</ele>
        <time>2018-09-16T08:32:05Z</time>
      </trkpt>
      <trkpt lat="39.2892500" lon="-0.7709050">
        <ele>421.0</ele>
        <time>2018-09-16T08:32:06Z</time>
      </trkpt>
      <trkpt lat="39.2892920" lon="-0.7709920">
        <ele>420.0</ele>
        <time>2018-09-16T08:32:07Z</time>
      </trkpt>
      <trkpt lat="39.2892920" lon="-0.7709920">
        <ele>420.0</ele>
        <time>2018-09-16T08:32:08Z</time>
      </trkpt>
      <trkpt lat="39.2892620" lon="-0.7712070">
        <ele>418.0</ele>
        <time>2018-09-16T08:32:09Z</time>
      </trkpt>
      <trkpt lat="39.2892620" lon="-0.7712070">
        <ele>418.0</ele>
        <time>2018-09-16T08:32:10Z</time>
      </trkpt>
      <trkpt lat="39.2891380" lon="-0.7713170">
        <ele>418.0</ele>
        <time>2018-09-16T08:32:11Z</time>
      </trkpt>
      <trkpt lat="39.2891380" lon="-0.7713170">
        <ele>418.0</ele>
        <time>2018-09-16T08:32:12Z</time>
      </trkpt>
      <trkpt lat="39.2890250" lon="-0.7714230">
        <ele>418.0</ele>
        <time>2018-09-16T08:32:13Z</time>
      </trkpt>
      <trkpt lat="39.2890250" lon="-0.7714230">
        <ele>418.0</ele>
        <time>2018-09-16T08:32:14Z</time>
      </trkpt>
      <trkpt lat="39.2889730" lon="-0.7716020">
        <ele>418.0</ele>
        <time>2018-09-16T08:32:15Z</time>
      </trkpt>
      <trkpt lat="39.2889730" lon="-0.7716020">
        <ele>418.0</ele>
        <time>2018-09-16T08:32:16Z</time>
      </trkpt>
      <trkpt lat="39.2889750" lon="-0.7717970">
        <ele>418.0</ele>
        <time>2018-09-16T08:32:17Z</time>
      </trkpt>
      <trkpt lat="39.2889870" lon="-0.7719070">
        <ele>418.0</ele>
        <time>2018-09-16T08:32:18Z</time>
      </trkpt>
      <trkpt lat="39.2889870" lon="-0.7719070">
        <ele>418.0</ele>
        <time>2018-09-16T08:32:19Z</time>
      </trkpt>
      <trkpt lat="39.2890350" lon="-0.7721170">
        <ele>418.0</ele>
        <time>2018-09-16T08:32:20Z</time>
      </trkpt>
      <trkpt lat="39.2890350" lon="-0.7721170">
        <ele>418.0</ele>
        <time>2018-09-16T08:32:21Z</time>
      </trkpt>
      <trkpt lat="39.2891280" lon="-0.7723100">
        <ele>418.0</ele>
        <time>2018-09-16T08:32:22Z</time>
      </trkpt>
      <trkpt lat="39.2891930" lon="-0.7723880">
        <ele>418.0</ele>
        <time>2018-09-16T08:32:23Z</time>
      </trkpt>
      <trkpt lat="39.2891930" lon="-0.7723880">
        <ele>418.0</ele>
        <time>2018-09-16T08:32:24Z</time>
      </trkpt>
      <trkpt lat="39.2893170" lon="-0.7725530">
        <ele>418.0</ele>
        <time>2018-09-16T08:32:25Z</time>
      </trkpt>
      <trkpt lat="39.2893170" lon="-0.7725530">
        <ele>418.0</ele>
        <time>2018-09-16T08:32:26Z</time>
      </trkpt>
      <trkpt lat="39.2894020" lon="-0.7727550">
        <ele>418.0</ele>
        <time>2018-09-16T08:32:27Z</time>
      </trkpt>
      <trkpt lat="39.2894350" lon="-0.7728650">
        <ele>418.0</ele>
        <time>2018-09-16T08:32:28Z</time>
      </trkpt>
      <trkpt lat="39.2894350" lon="-0.7728650">
        <ele>418.0</ele>
        <time>2018-09-16T08:32:29Z</time>
      </trkpt>
      <trkpt lat="39.2894800" lon="-0.7730700">
        <ele>418.0</ele>
        <time>2018-09-16T08:32:30Z</time>
      </trkpt>
      <trkpt lat="39.2894880" lon="-0.7731670">
        <ele>418.0</ele>
        <time>2018-09-16T08:32:31Z</time>
      </trkpt>
      <trkpt lat="39.2894880" lon="-0.7731670">
        <ele>418.0</ele>
        <time>2018-09-16T08:32:32Z</time>
      </trkpt>
      <trkpt lat="39.2894750" lon="-0.7733700">
        <ele>418.0</ele>
        <time>2018-09-16T08:32:33Z</time>
      </trkpt>
      <trkpt lat="39.2894550" lon="-0.7734750">
        <ele>418.0</ele>
        <time>2018-09-16T08:32:34Z</time>
      </trkpt>
      <trkpt lat="39.2894270" lon="-0.7735750">
        <ele>418.0</ele>
        <time>2018-09-16T08:32:35Z</time>
      </trkpt>
      <trkpt lat="39.2894270" lon="-0.7735750">
        <ele>418.0</ele>
        <time>2018-09-16T08:32:36Z</time>
      </trkpt>
      <trkpt lat="39.2893470" lon="-0.7737580">
        <ele>418.0</ele>
        <time>2018-09-16T08:32:37Z</time>
      </trkpt>
      <trkpt lat="39.2893470" lon="-0.7737580">
        <ele>418.0</ele>
        <time>2018-09-16T08:32:38Z</time>
      </trkpt>
      <trkpt lat="39.2892350" lon="-0.7739170">
        <ele>418.0</ele>
        <time>2018-09-16T08:32:39Z</time>
      </trkpt>
      <trkpt lat="39.2891800" lon="-0.7739900">
        <ele>417.0</ele>
        <time>2018-09-16T08:32:40Z</time>
      </trkpt>
      <trkpt lat="39.2891800" lon="-0.7739900">
        <ele>417.0</ele>
        <time>2018-09-16T08:32:41Z</time>
      </trkpt>
      <trkpt lat="39.2890800" lon="-0.7741430">
        <ele>417.0</ele>
        <time>2018-09-16T08:32:42Z</time>
      </trkpt>
      <trkpt lat="39.2890800" lon="-0.7741430">
        <ele>417.0</ele>
        <time>2018-09-16T08:32:43Z</time>
      </trkpt>
      <trkpt lat="39.2889980" lon="-0.7743020">
        <ele>417.0</ele>
        <time>2018-09-16T08:32:44Z</time>
      </trkpt>
      <trkpt lat="39.2889980" lon="-0.7743020">
        <ele>417.0</ele>
        <time>2018-09-16T08:32:45Z</time>
      </trkpt>
      <trkpt lat="39.2889330" lon="-0.7744670">
        <ele>416.0</ele>
        <time>2018-09-16T08:32:46Z</time>
      </trkpt>
      <trkpt lat="39.2889330" lon="-0.7744670">
        <ele>416.0</ele>
        <time>2018-09-16T08:32:47Z</time>
      </trkpt>
      <trkpt lat="39.2888830" lon="-0.7746330">
        <ele>416.0</ele>
        <time>2018-09-16T08:32:48Z</time>
      </trkpt>
      <trkpt lat="39.2888830" lon="-0.7746330">
        <ele>416.0</ele>
        <time>2018-09-16T08:32:49Z</time>
      </trkpt>
      <trkpt lat="39.2888670" lon="-0.7748100">
        <ele>416.0</ele>
        <time>2018-09-16T08:32:50Z</time>
      </trkpt>
      <trkpt lat="39.2888670" lon="-0.7748100">
        <ele>416.0</ele>
        <time>2018-09-16T08:32:51Z</time>
      </trkpt>
      <trkpt lat="39.2888670" lon="-0.7749970">
        <ele>416.0</ele>
        <time>2018-09-16T08:32:52Z</time>
      </trkpt>
      <trkpt lat="39.2888580" lon="-0.7750930">
        <ele>416.0</ele>
        <time>2018-09-16T08:32:53Z</time>
      </trkpt>
      <trkpt lat="39.2888430" lon="-0.7751900">
        <ele>416.0</ele>
        <time>2018-09-16T08:32:54Z</time>
      </trkpt>
      <trkpt lat="39.2888430" lon="-0.7751900">
        <ele>416.0</ele>
        <time>2018-09-16T08:32:55Z</time>
      </trkpt>
      <trkpt lat="39.2887900" lon="-0.7753900">
        <ele>414.0</ele>
        <time>2018-09-16T08:32:56Z</time>
      </trkpt>
      <trkpt lat="39.2887900" lon="-0.7753900">
        <ele>414.0</ele>
        <time>2018-09-16T08:32:57Z</time>
      </trkpt>
      <trkpt lat="39.2887180" lon="-0.7756100">
        <ele>414.0</ele>
        <time>2018-09-16T08:32:58Z</time>
      </trkpt>
      <trkpt lat="39.2887180" lon="-0.7756100">
        <ele>412.0</ele>
        <time>2018-09-16T08:32:59Z</time>
      </trkpt>
      <trkpt lat="39.2886650" lon="-0.7758530">
        <ele>412.0</ele>
        <time>2018-09-16T08:33:00Z</time>
      </trkpt>
      <trkpt lat="39.2886650" lon="-0.7758530">
        <ele>411.0</ele>
        <time>2018-09-16T08:33:01Z</time>
      </trkpt>
      <trkpt lat="39.2886220" lon="-0.7761180">
        <ele>411.0</ele>
        <time>2018-09-16T08:33:02Z</time>
      </trkpt>
      <trkpt lat="39.2886030" lon="-0.7762530">
        <ele>410.0</ele>
        <time>2018-09-16T08:33:03Z</time>
      </trkpt>
      <trkpt lat="39.2886030" lon="-0.7762530">
        <ele>410.0</ele>
        <time>2018-09-16T08:33:04Z</time>
      </trkpt>
      <trkpt lat="39.2885750" lon="-0.7765280">
        <ele>408.0</ele>
        <time>2018-09-16T08:33:05Z</time>
      </trkpt>
      <trkpt lat="39.2885670" lon="-0.7766680">
        <ele>408.0</ele>
        <time>2018-09-16T08:33:06Z</time>
      </trkpt>
      <trkpt lat="39.2885670" lon="-0.7766680">
        <ele>407.0</ele>
        <time>2018-09-16T08:33:07Z</time>
      </trkpt>
      <trkpt lat="39.2885850" lon="-0.7769470">
        <ele>407.0</ele>
        <time>2018-09-16T08:33:08Z</time>
      </trkpt>
      <trkpt lat="39.2886020" lon="-0.7770820">
        <ele>405.0</ele>
        <time>2018-09-16T08:33:09Z</time>
      </trkpt>
      <trkpt lat="39.2886020" lon="-0.7770820">
        <ele>405.0</ele>
        <time>2018-09-16T08:33:10Z</time>
      </trkpt>
      <trkpt lat="39.2885680" lon="-0.7773100">
        <ele>404.0</ele>
        <time>2018-09-16T08:33:11Z</time>
      </trkpt>
      <trkpt lat="39.2885100" lon="-0.7774200">
        <ele>404.0</ele>
        <time>2018-09-16T08:33:12Z</time>
      </trkpt>
      <trkpt lat="39.2885100" lon="-0.7774200">
        <ele>402.0</ele>
        <time>2018-09-16T08:33:13Z</time>
      </trkpt>
      <trkpt lat="39.2884020" lon="-0.7776830">
        <ele>402.0</ele>
        <time>2018-09-16T08:33:14Z</time>
      </trkpt>
      <trkpt lat="39.2884020" lon="-0.7776830">
        <ele>400.0</ele>
        <time>2018-09-16T08:33:15Z</time>
      </trkpt>
      <trkpt lat="39.2883980" lon="-0.7780020">
        <ele>400.0</ele>
        <time>2018-09-16T08:33:16Z</time>
      </trkpt>
      <trkpt lat="39.2883980" lon="-0.7780020">
        <ele>400.0</ele>
        <time>2018-09-16T08:33:17Z</time>
      </trkpt>
      <trkpt lat="39.2884420" lon="-0.7783000">
        <ele>399.0</ele>
        <time>2018-09-16T08:33:18Z</time>
      </trkpt>
      <trkpt lat="39.2884420" lon="-0.7783000">
        <ele>399.0</ele>
        <time>2018-09-16T08:33:19Z</time>
      </trkpt>
      <trkpt lat="39.2884550" lon="-0.7786200">
        <ele>396.0</ele>
        <time>2018-09-16T08:33:20Z</time>
      </trkpt>
      <trkpt lat="39.2884550" lon="-0.7786200">
        <ele>396.0</ele>
        <time>2018-09-16T08:33:21Z</time>
      </trkpt>
      <trkpt lat="39.2884730" lon="-0.7789380">
        <ele>395.0</ele>
        <time>2018-09-16T08:33:22Z</time>
      </trkpt>
      <trkpt lat="39.2884730" lon="-0.7789380">
        <ele>395.0</ele>
        <time>2018-09-16T08:33:23Z</time>
      </trkpt>
      <trkpt lat="39.2885200" lon="-0.7792420">
        <ele>393.0</ele>
        <time>2018-09-16T08:33:24Z</time>
      </trkpt>
      <trkpt lat="39.2885200" lon="-0.7792420">
        <ele>393.0</ele>
        <time>2018-09-16T08:33:25Z</time>
      </trkpt>
      <trkpt lat="39.2885800" lon="-0.7795180">
        <ele>392.0</ele>
        <time>2018-09-16T08:33:26Z</time>
      </trkpt>
      <trkpt lat="39.2885800" lon="-0.7795180">
        <ele>392.0</ele>
        <time>2018-09-16T08:33:27Z</time>
      </trkpt>
      <trkpt lat="39.2886850" lon="-0.7797550">
        <ele>392.0</ele>
        <time>2018-09-16T08:33:28Z</time>
      </trkpt>
      <trkpt lat="39.2886850" lon="-0.7797550">
        <ele>391.0</ele>
        <time>2018-09-16T08:33:29Z</time>
      </trkpt>
      <trkpt lat="39.2888130" lon="-0.7799700">
        <ele>391.0</ele>
        <time>2018-09-16T08:33:30Z</time>
      </trkpt>
      <trkpt lat="39.2888130" lon="-0.7799700">
        <ele>391.0</ele>
        <time>2018-09-16T08:33:31Z</time>
      </trkpt>
      <trkpt lat="39.2889230" lon="-0.7801970">
        <ele>391.0</ele>
        <time>2018-09-16T08:33:32Z</time>
      </trkpt>
      <trkpt lat="39.2889230" lon="-0.7801970">
        <ele>390.0</ele>
        <time>2018-09-16T08:33:33Z</time>
      </trkpt>
      <trkpt lat="39.2890080" lon="-0.7804280">
        <ele>390.0</ele>
        <time>2018-09-16T08:33:34Z</time>
      </trkpt>
      <trkpt lat="39.2890080" lon="-0.7804280">
        <ele>390.0</ele>
        <time>2018-09-16T08:33:35Z</time>
      </trkpt>
      <trkpt lat="39.2891300" lon="-0.7806120">
        <ele>390.0</ele>
        <time>2018-09-16T08:33:36Z</time>
      </trkpt>
      <trkpt lat="39.2891300" lon="-0.7806120">
        <ele>389.0</ele>
        <time>2018-09-16T08:33:37Z</time>
      </trkpt>
      <trkpt lat="39.2892700" lon="-0.7807620">
        <ele>389.0</ele>
        <time>2018-09-16T08:33:38Z</time>
      </trkpt>
      <trkpt lat="39.2892700" lon="-0.7807620">
        <ele>389.0</ele>
        <time>2018-09-16T08:33:39Z</time>
      </trkpt>
      <trkpt lat="39.2894150" lon="-0.7808920">
        <ele>389.0</ele>
        <time>2018-09-16T08:33:40Z</time>
      </trkpt>
      <trkpt lat="39.2894150" lon="-0.7808920">
        <ele>389.0</ele>
        <time>2018-09-16T08:33:41Z</time>
      </trkpt>
      <trkpt lat="39.2895620" lon="-0.7810020">
        <ele>389.0</ele>
        <time>2018-09-16T08:33:42Z</time>
      </trkpt>
      <trkpt lat="39.2895620" lon="-0.7810020">
        <ele>388.0</ele>
        <time>2018-09-16T08:33:43Z</time>
      </trkpt>
      <trkpt lat="39.2897150" lon="-0.7811050">
        <ele>388.0</ele>
        <time>2018-09-16T08:33:44Z</time>
      </trkpt>
      <trkpt lat="39.2897670" lon="-0.7811850">
        <ele>388.0</ele>
        <time>2018-09-16T08:33:45Z</time>
      </trkpt>
      <trkpt lat="39.2897670" lon="-0.7811850">
        <ele>388.0</ele>
        <time>2018-09-16T08:33:46Z</time>
      </trkpt>
      <trkpt lat="39.2897880" lon="-0.7813820">
        <ele>388.0</ele>
        <time>2018-09-16T08:33:47Z</time>
      </trkpt>
      <trkpt lat="39.2897880" lon="-0.7813820">
        <ele>387.0</ele>
        <time>2018-09-16T08:33:48Z</time>
      </trkpt>
      <trkpt lat="39.2897200" lon="-0.7815630">
        <ele>387.0</ele>
        <time>2018-09-16T08:33:49Z</time>
      </trkpt>
      <trkpt lat="39.2896600" lon="-0.7816330">
        <ele>387.0</ele>
        <time>2018-09-16T08:33:50Z</time>
      </trkpt>
      <trkpt lat="39.2895880" lon="-0.7816880">
        <ele>387.0</ele>
        <time>2018-09-16T08:33:51Z</time>
      </trkpt>
      <trkpt lat="39.2895880" lon="-0.7816880">
        <ele>387.0</ele>
        <time>2018-09-16T08:33:52Z</time>
      </trkpt>
      <trkpt lat="39.2894180" lon="-0.7817550">
        <ele>387.0</ele>
        <time>2018-09-16T08:33:53Z</time>
      </trkpt>
      <trkpt lat="39.2893330" lon="-0.7817820">
        <ele>387.0</ele>
        <time>2018-09-16T08:33:54Z</time>
      </trkpt>
      <trkpt lat="39.2893330" lon="-0.7817820">
        <ele>387.0</ele>
        <time>2018-09-16T08:33:55Z</time>
      </trkpt>
      <trkpt lat="39.2891970" lon="-0.7818980">
        <ele>387.0</ele>
        <time>2018-09-16T08:33:56Z</time>
      </trkpt>
      <trkpt lat="39.2891970" lon="-0.7818980">
        <ele>386.0</ele>
        <time>2018-09-16T08:33:57Z</time>
      </trkpt>
      <trkpt lat="39.2891100" lon="-0.7821030">
        <ele>386.0</ele>
        <time>2018-09-16T08:33:58Z</time>
      </trkpt>
      <trkpt lat="39.2890560" lon="-0.7822890">
        <ele>386.0</ele>
        <time>2018-09-16T08:33:59Z</time>
      </trkpt>
      <trkpt lat="39.2890410" lon="-0.7823530">
        <ele>386.0</ele>
        <time>2018-09-16T08:34:00Z</time>
      </trkpt>
      <trkpt lat="39.2890120" lon="-0.7824800">
        <ele>385.0</ele>
        <time>2018-09-16T08:34:01Z</time>
      </trkpt>
      <trkpt lat="39.2890120" lon="-0.7824800">
        <ele>385.0</ele>
        <time>2018-09-16T08:34:02Z</time>
      </trkpt>
      <trkpt lat="39.2889920" lon="-0.7827550">
        <ele>383.0</ele>
        <time>2018-09-16T08:34:03Z</time>
      </trkpt>
      <trkpt lat="39.2889920" lon="-0.7827550">
        <ele>383.0</ele>
        <time>2018-09-16T08:34:04Z</time>
      </trkpt>
      <trkpt lat="39.2890150" lon="-0.7830470">
        <ele>382.0</ele>
        <time>2018-09-16T08:34:05Z</time>
      </trkpt>
      <trkpt lat="39.2890400" lon="-0.7831930">
        <ele>382.0</ele>
        <time>2018-09-16T08:34:06Z</time>
      </trkpt>
      <trkpt lat="39.2890670" lon="-0.7833430">
        <ele>381.0</ele>
        <time>2018-09-16T08:34:07Z</time>
      </trkpt>
      <trkpt lat="39.2890670" lon="-0.7833430">
        <ele>381.0</ele>
        <time>2018-09-16T08:34:08Z</time>
      </trkpt>
      <trkpt lat="39.2891070" lon="-0.7836630">
        <ele>379.0</ele>
        <time>2018-09-16T08:34:09Z</time>
      </trkpt>
      <trkpt lat="39.2891150" lon="-0.7838300">
        <ele>379.0</ele>
        <time>2018-09-16T08:34:10Z</time>
      </trkpt>
      <trkpt lat="39.2891150" lon="-0.7838300">
        <ele>377.0</ele>
        <time>2018-09-16T08:34:11Z</time>
      </trkpt>
      <trkpt lat="39.2891220" lon="-0.7841850">
        <ele>377.0</ele>
        <time>2018-09-16T08:34:12Z</time>
      </trkpt>
      <trkpt lat="39.2891220" lon="-0.7841850">
        <ele>375.0</ele>
        <time>2018-09-16T08:34:13Z</time>
      </trkpt>
      <trkpt lat="39.2891500" lon="-0.7845430">
        <ele>375.0</ele>
        <time>2018-09-16T08:34:14Z</time>
      </trkpt>
      <trkpt lat="39.2891500" lon="-0.7845430">
        <ele>373.0</ele>
        <time>2018-09-16T08:34:15Z</time>
      </trkpt>
      <trkpt lat="39.2891720" lon="-0.7848770">
        <ele>373.0</ele>
        <time>2018-09-16T08:34:16Z</time>
      </trkpt>
      <trkpt lat="39.2891720" lon="-0.7848770">
        <ele>371.0</ele>
        <time>2018-09-16T08:34:17Z</time>
      </trkpt>
      <trkpt lat="39.2891670" lon="-0.7851980">
        <ele>371.0</ele>
        <time>2018-09-16T08:34:18Z</time>
      </trkpt>
      <trkpt lat="39.2891670" lon="-0.7851980">
        <ele>371.0</ele>
        <time>2018-09-16T08:34:19Z</time>
      </trkpt>
      <trkpt lat="39.2891720" lon="-0.7854980">
        <ele>371.0</ele>
        <time>2018-09-16T08:34:20Z</time>
      </trkpt>
      <trkpt lat="39.2891920" lon="-0.7856330">
        <ele>371.0</ele>
        <time>2018-09-16T08:34:21Z</time>
      </trkpt>
      <trkpt lat="39.2891920" lon="-0.7856330">
        <ele>371.0</ele>
        <time>2018-09-16T08:34:22Z</time>
      </trkpt>
      <trkpt lat="39.2892650" lon="-0.7858770">
        <ele>371.0</ele>
        <time>2018-09-16T08:34:23Z</time>
      </trkpt>
      <trkpt lat="39.2893000" lon="-0.7859920">
        <ele>371.0</ele>
        <time>2018-09-16T08:34:24Z</time>
      </trkpt>
      <trkpt lat="39.2893000" lon="-0.7859920">
        <ele>371.0</ele>
        <time>2018-09-16T08:34:25Z</time>
      </trkpt>
      <trkpt lat="39.2893580" lon="-0.7862180">
        <ele>371.0</ele>
        <time>2018-09-16T08:34:26Z</time>
      </trkpt>
      <trkpt lat="39.2893580" lon="-0.7862180">
        <ele>371.0</ele>
        <time>2018-09-16T08:34:27Z</time>
      </trkpt>
      <trkpt lat="39.2894120" lon="-0.7864320">
        <ele>371.0</ele>
        <time>2018-09-16T08:34:28Z</time>
      </trkpt>
      <trkpt lat="39.2894120" lon="-0.7864320">
        <ele>371.0</ele>
        <time>2018-09-16T08:34:29Z</time>
      </trkpt>
      <trkpt lat="39.2894430" lon="-0.7866630">
        <ele>371.0</ele>
        <time>2018-09-16T08:34:30Z</time>
      </trkpt>
      <trkpt lat="39.2894430" lon="-0.7866630">
        <ele>371.0</ele>
        <time>2018-09-16T08:34:31Z</time>
      </trkpt>
      <trkpt lat="39.2894620" lon="-0.7868730">
        <ele>371.0</ele>
        <time>2018-09-16T08:34:32Z</time>
      </trkpt>
      <trkpt lat="39.2894620" lon="-0.7868730">
        <ele>371.0</ele>
        <time>2018-09-16T08:34:33Z</time>
      </trkpt>
      <trkpt lat="39.2894650" lon="-0.7870800">
        <ele>371.0</ele>
        <time>2018-09-16T08:34:34Z</time>
      </trkpt>
      <trkpt lat="39.2894700" lon="-0.7871780">
        <ele>371.0</ele>
        <time>2018-09-16T08:34:35Z</time>
      </trkpt>
      <trkpt lat="39.2894780" lon="-0.7872750">
        <ele>371.0</ele>
        <time>2018-09-16T08:34:36Z</time>
      </trkpt>
      <trkpt lat="39.2894780" lon="-0.7872750">
        <ele>371.0</ele>
        <time>2018-09-16T08:34:37Z</time>
      </trkpt>
      <trkpt lat="39.2895000" lon="-0.7874600">
        <ele>371.0</ele>
        <time>2018-09-16T08:34:38Z</time>
      </trkpt>
      <trkpt lat="39.2895000" lon="-0.7874600">
        <ele>371.0</ele>
        <time>2018-09-16T08:34:39Z</time>
      </trkpt>
      <trkpt lat="39.2895280" lon="-0.7876380">
        <ele>371.0</ele>
        <time>2018-09-16T08:34:40Z</time>
      </trkpt>
      <trkpt lat="39.2895280" lon="-0.7876380">
        <ele>371.0</ele>
        <time>2018-09-16T08:34:41Z</time>
      </trkpt>
      <trkpt lat="39.2895570" lon="-0.7878120">
        <ele>371.0</ele>
        <time>2018-09-16T08:34:42Z</time>
      </trkpt>
      <trkpt lat="39.2895570" lon="-0.7878120">
        <ele>370.0</ele>
        <time>2018-09-16T08:34:43Z</time>
      </trkpt>
      <trkpt lat="39.2896020" lon="-0.7879830">
        <ele>370.0</ele>
        <time>2018-09-16T08:34:44Z</time>
      </trkpt>
      <trkpt lat="39.2896020" lon="-0.7879830">
        <ele>370.0</ele>
        <time>2018-09-16T08:34:45Z</time>
      </trkpt>
      <trkpt lat="39.2896620" lon="-0.7881680">
        <ele>370.0</ele>
        <time>2018-09-16T08:34:46Z</time>
      </trkpt>
      <trkpt lat="39.2896620" lon="-0.7881680">
        <ele>370.0</ele>
        <time>2018-09-16T08:34:47Z</time>
      </trkpt>
      <trkpt lat="39.2897220" lon="-0.7883700">
        <ele>370.0</ele>
        <time>2018-09-16T08:34:48Z</time>
      </trkpt>
      <trkpt lat="39.2897220" lon="-0.7883700">
        <ele>368.0</ele>
        <time>2018-09-16T08:34:49Z</time>
      </trkpt>
      <trkpt lat="39.2897870" lon="-0.7885700">
        <ele>368.0</ele>
        <time>2018-09-16T08:34:50Z</time>
      </trkpt>
      <trkpt lat="39.2897870" lon="-0.7885700">
        <ele>368.0</ele>
        <time>2018-09-16T08:34:51Z</time>
      </trkpt>
      <trkpt lat="39.2898430" lon="-0.7887820">
        <ele>368.0</ele>
        <time>2018-09-16T08:34:52Z</time>
      </trkpt>
      <trkpt lat="39.2898430" lon="-0.7887820">
        <ele>368.0</ele>
        <time>2018-09-16T08:34:53Z</time>
      </trkpt>
      <trkpt lat="39.2898900" lon="-0.7890000">
        <ele>368.0</ele>
        <time>2018-09-16T08:34:54Z</time>
      </trkpt>
      <trkpt lat="39.2898900" lon="-0.7890000">
        <ele>368.0</ele>
        <time>2018-09-16T08:34:55Z</time>
      </trkpt>
      <trkpt lat="39.2899320" lon="-0.7892120">
        <ele>368.0</ele>
        <time>2018-09-16T08:34:56Z</time>
      </trkpt>
      <trkpt lat="39.2899380" lon="-0.7893200">
        <ele>366.0</ele>
        <time>2018-09-16T08:34:57Z</time>
      </trkpt>
      <trkpt lat="39.2899380" lon="-0.7893200">
        <ele>366.0</ele>
        <time>2018-09-16T08:34:58Z</time>
      </trkpt>
      <trkpt lat="39.2899220" lon="-0.7895370">
        <ele>366.0</ele>
        <time>2018-09-16T08:34:59Z</time>
      </trkpt>
      <trkpt lat="39.2898980" lon="-0.7896450">
        <ele>365.0</ele>
        <time>2018-09-16T08:35:00Z</time>
      </trkpt>
      <trkpt lat="39.2898980" lon="-0.7896450">
        <ele>365.0</ele>
        <time>2018-09-16T08:35:01Z</time>
      </trkpt>
      <trkpt lat="39.2898420" lon="-0.7898600">
        <ele>364.0</ele>
        <time>2018-09-16T08:35:02Z</time>
      </trkpt>
      <trkpt lat="39.2898420" lon="-0.7898600">
        <ele>364.0</ele>
        <time>2018-09-16T08:35:03Z</time>
      </trkpt>
      <trkpt lat="39.2897900" lon="-0.7900830">
        <ele>363.0</ele>
        <time>2018-09-16T08:35:04Z</time>
      </trkpt>
      <trkpt lat="39.2897670" lon="-0.7901970">
        <ele>363.0</ele>
        <time>2018-09-16T08:35:05Z</time>
      </trkpt>
      <trkpt lat="39.2897670" lon="-0.7901970">
        <ele>361.0</ele>
        <time>2018-09-16T08:35:06Z</time>
      </trkpt>
      <trkpt lat="39.2897130" lon="-0.7904250">
        <ele>361.0</ele>
        <time>2018-09-16T08:35:07Z</time>
      </trkpt>
      <trkpt lat="39.2897130" lon="-0.7904250">
        <ele>360.0</ele>
        <time>2018-09-16T08:35:08Z</time>
      </trkpt>
      <trkpt lat="39.2896380" lon="-0.7906470">
        <ele>360.0</ele>
        <time>2018-09-16T08:35:09Z</time>
      </trkpt>
      <trkpt lat="39.2896380" lon="-0.7906470">
        <ele>359.0</ele>
        <time>2018-09-16T08:35:10Z</time>
      </trkpt>
      <trkpt lat="39.2895470" lon="-0.7908630">
        <ele>359.0</ele>
        <time>2018-09-16T08:35:11Z</time>
      </trkpt>
      <trkpt lat="39.2895470" lon="-0.7908630">
        <ele>358.0</ele>
        <time>2018-09-16T08:35:12Z</time>
      </trkpt>
      <trkpt lat="39.2894850" lon="-0.7910850">
        <ele>358.0</ele>
        <time>2018-09-16T08:35:13Z</time>
      </trkpt>
      <trkpt lat="39.2894680" lon="-0.7911950">
        <ele>357.0</ele>
        <time>2018-09-16T08:35:14Z</time>
      </trkpt>
      <trkpt lat="39.2894680" lon="-0.7911950">
        <ele>357.0</ele>
        <time>2018-09-16T08:35:15Z</time>
      </trkpt>
      <trkpt lat="39.2894570" lon="-0.7914120">
        <ele>356.0</ele>
        <time>2018-09-16T08:35:16Z</time>
      </trkpt>
      <trkpt lat="39.2894570" lon="-0.7914120">
        <ele>356.0</ele>
        <time>2018-09-16T08:35:17Z</time>
      </trkpt>
      <trkpt lat="39.2894420" lon="-0.7916100">
        <ele>356.0</ele>
        <time>2018-09-16T08:35:18Z</time>
      </trkpt>
      <trkpt lat="39.2894420" lon="-0.7916100">
        <ele>356.0</ele>
        <time>2018-09-16T08:35:19Z</time>
      </trkpt>
      <trkpt lat="39.2894130" lon="-0.7917930">
        <ele>356.0</ele>
        <time>2018-09-16T08:35:20Z</time>
      </trkpt>
      <trkpt lat="39.2894130" lon="-0.7917930">
        <ele>355.0</ele>
        <time>2018-09-16T08:35:21Z</time>
      </trkpt>
      <trkpt lat="39.2893820" lon="-0.7919650">
        <ele>355.0</ele>
        <time>2018-09-16T08:35:22Z</time>
      </trkpt>
      <trkpt lat="39.2893670" lon="-0.7920480">
        <ele>355.0</ele>
        <time>2018-09-16T08:35:23Z</time>
      </trkpt>
      <trkpt lat="39.2893570" lon="-0.7921300">
        <ele>355.0</ele>
        <time>2018-09-16T08:35:24Z</time>
      </trkpt>
      <trkpt lat="39.2893570" lon="-0.7921300">
        <ele>355.0</ele>
        <time>2018-09-16T08:35:25Z</time>
      </trkpt>
      <trkpt lat="39.2893470" lon="-0.7922900">
        <ele>355.0</ele>
        <time>2018-09-16T08:35:26Z</time>
      </trkpt>
      <trkpt lat="39.2893470" lon="-0.7922900">
        <ele>354.0</ele>
        <time>2018-09-16T08:35:27Z</time>
      </trkpt>
      <trkpt lat="39.2893400" lon="-0.7924370">
        <ele>354.0</ele>
        <time>2018-09-16T08:35:28Z</time>
      </trkpt>
      <trkpt lat="39.2893320" lon="-0.7925080">
        <ele>354.0</ele>
        <time>2018-09-16T08:35:29Z</time>
      </trkpt>
      <trkpt lat="39.2893320" lon="-0.7925080">
        <ele>354.0</ele>
        <time>2018-09-16T08:35:30Z</time>
      </trkpt>
      <trkpt lat="39.2893170" lon="-0.7926470">
        <ele>354.0</ele>
        <time>2018-09-16T08:35:31Z</time>
      </trkpt>
      <trkpt lat="39.2893070" lon="-0.7927120">
        <ele>354.0</ele>
        <time>2018-09-16T08:35:32Z</time>
      </trkpt>
      <trkpt lat="39.2893070" lon="-0.7927120">
        <ele>354.0</ele>
        <time>2018-09-16T08:35:33Z</time>
      </trkpt>
      <trkpt lat="39.2892870" lon="-0.7928330">
        <ele>354.0</ele>
        <time>2018-09-16T08:35:34Z</time>
      </trkpt>
      <trkpt lat="39.2892870" lon="-0.7928330">
        <ele>354.0</ele>
        <time>2018-09-16T08:35:35Z</time>
      </trkpt>
      <trkpt lat="39.2892670" lon="-0.7929450">
        <ele>354.0</ele>
        <time>2018-09-16T08:35:36Z</time>
      </trkpt>
      <trkpt lat="39.2892670" lon="-0.7929450">
        <ele>354.0</ele>
        <time>2018-09-16T08:35:37Z</time>
      </trkpt>
      <trkpt lat="39.2892420" lon="-0.7930600">
        <ele>354.0</ele>
        <time>2018-09-16T08:35:38Z</time>
      </trkpt>
      <trkpt lat="39.2892420" lon="-0.7930600">
        <ele>354.0</ele>
        <time>2018-09-16T08:35:39Z</time>
      </trkpt>
      <trkpt lat="39.2892230" lon="-0.7931900">
        <ele>354.0</ele>
        <time>2018-09-16T08:35:40Z</time>
      </trkpt>
      <trkpt lat="39.2892200" lon="-0.7932650">
        <ele>354.0</ele>
        <time>2018-09-16T08:35:41Z</time>
      </trkpt>
      <trkpt lat="39.2892180" lon="-0.7933420">
        <ele>354.0</ele>
        <time>2018-09-16T08:35:42Z</time>
      </trkpt>
      <trkpt lat="39.2892180" lon="-0.7933420">
        <ele>354.0</ele>
        <time>2018-09-16T08:35:43Z</time>
      </trkpt>
      <trkpt lat="39.2892330" lon="-0.7934880">
        <ele>354.0</ele>
        <time>2018-09-16T08:35:44Z</time>
      </trkpt>
      <trkpt lat="39.2892520" lon="-0.7935530">
        <ele>354.0</ele>
        <time>2018-09-16T08:35:45Z</time>
      </trkpt>
      <trkpt lat="39.2892520" lon="-0.7935530">
        <ele>354.0</ele>
        <time>2018-09-16T08:35:46Z</time>
      </trkpt>
      <trkpt lat="39.2893030" lon="-0.7936720">
        <ele>354.0</ele>
        <time>2018-09-16T08:35:47Z</time>
      </trkpt>
      <trkpt lat="39.2893030" lon="-0.7936720">
        <ele>354.0</ele>
        <time>2018-09-16T08:35:48Z</time>
      </trkpt>
      <trkpt lat="39.2893600" lon="-0.7937770">
        <ele>354.0</ele>
        <time>2018-09-16T08:35:49Z</time>
      </trkpt>
      <trkpt lat="39.2893920" lon="-0.7938230">
        <ele>354.0</ele>
        <time>2018-09-16T08:35:50Z</time>
      </trkpt>
      <trkpt lat="39.2894200" lon="-0.7938700">
        <ele>354.0</ele>
        <time>2018-09-16T08:35:51Z</time>
      </trkpt>
      <trkpt lat="39.2894200" lon="-0.7938700">
        <ele>354.0</ele>
        <time>2018-09-16T08:35:52Z</time>
      </trkpt>
      <trkpt lat="39.2894830" lon="-0.7939500">
        <ele>354.0</ele>
        <time>2018-09-16T08:35:53Z</time>
      </trkpt>
      <trkpt lat="39.2894830" lon="-0.7939500">
        <ele>354.0</ele>
        <time>2018-09-16T08:35:54Z</time>
      </trkpt>
      <trkpt lat="39.2895530" lon="-0.7940420">
        <ele>354.0</ele>
        <time>2018-09-16T08:35:55Z</time>
      </trkpt>
      <trkpt lat="39.2895530" lon="-0.7940420">
        <ele>353.0</ele>
        <time>2018-09-16T08:35:56Z</time>
      </trkpt>
      <trkpt lat="39.2896400" lon="-0.7941350">
        <ele>353.0</ele>
        <time>2018-09-16T08:35:57Z</time>
      </trkpt>
      <trkpt lat="39.2896400" lon="-0.7941350">
        <ele>353.0</ele>
        <time>2018-09-16T08:35:58Z</time>
      </trkpt>
      <trkpt lat="39.2897400" lon="-0.7942270">
        <ele>353.0</ele>
        <time>2018-09-16T08:35:59Z</time>
      </trkpt>
      <trkpt lat="39.2897930" lon="-0.7942750">
        <ele>353.0</ele>
        <time>2018-09-16T08:36:00Z</time>
      </trkpt>
      <trkpt lat="39.2897930" lon="-0.7942750">
        <ele>352.0</ele>
        <time>2018-09-16T08:36:01Z</time>
      </trkpt>
      <trkpt lat="39.2899000" lon="-0.7943650">
        <ele>352.0</ele>
        <time>2018-09-16T08:36:02Z</time>
      </trkpt>
      <trkpt lat="39.2899000" lon="-0.7943650">
        <ele>352.0</ele>
        <time>2018-09-16T08:36:03Z</time>
      </trkpt>
      <trkpt lat="39.2900000" lon="-0.7944500">
        <ele>352.0</ele>
        <time>2018-09-16T08:36:04Z</time>
      </trkpt>
      <trkpt lat="39.2900470" lon="-0.7944870">
        <ele>352.0</ele>
        <time>2018-09-16T08:36:05Z</time>
      </trkpt>
      <trkpt lat="39.2900470" lon="-0.7944870">
        <ele>352.0</ele>
        <time>2018-09-16T08:36:06Z</time>
      </trkpt>
      <trkpt lat="39.2901320" lon="-0.7945600">
        <ele>352.0</ele>
        <time>2018-09-16T08:36:07Z</time>
      </trkpt>
      <trkpt lat="39.2901320" lon="-0.7945600">
        <ele>352.0</ele>
        <time>2018-09-16T08:36:08Z</time>
      </trkpt>
      <trkpt lat="39.2902100" lon="-0.7946630">
        <ele>352.0</ele>
        <time>2018-09-16T08:36:09Z</time>
      </trkpt>
      <trkpt lat="39.2902320" lon="-0.7947230">
        <ele>352.0</ele>
        <time>2018-09-16T08:36:10Z</time>
      </trkpt>
      <trkpt lat="39.2902320" lon="-0.7947230">
        <ele>352.0</ele>
        <time>2018-09-16T08:36:11Z</time>
      </trkpt>
      <trkpt lat="39.2902000" lon="-0.7948580">
        <ele>352.0</ele>
        <time>2018-09-16T08:36:12Z</time>
      </trkpt>
      <trkpt lat="39.2902000" lon="-0.7948580">
        <ele>352.0</ele>
        <time>2018-09-16T08:36:13Z</time>
      </trkpt>
      <trkpt lat="39.2901120" lon="-0.7949320">
        <ele>352.0</ele>
        <time>2018-09-16T08:36:14Z</time>
      </trkpt>
      <trkpt lat="39.2901120" lon="-0.7949320">
        <ele>352.0</ele>
        <time>2018-09-16T08:36:15Z</time>
      </trkpt>
      <trkpt lat="39.2900030" lon="-0.7949550">
        <ele>352.0</ele>
        <time>2018-09-16T08:36:16Z</time>
      </trkpt>
      <trkpt lat="39.2900030" lon="-0.7949550">
        <ele>351.0</ele>
        <time>2018-09-16T08:36:17Z</time>
      </trkpt>
      <trkpt lat="39.2899030" lon="-0.7949800">
        <ele>351.0</ele>
        <time>2018-09-16T08:36:18Z</time>
      </trkpt>
      <trkpt lat="39.2899030" lon="-0.7949800">
        <ele>351.0</ele>
        <time>2018-09-16T08:36:19Z</time>
      </trkpt>
      <trkpt lat="39.2898130" lon="-0.7950380">
        <ele>351.0</ele>
        <time>2018-09-16T08:36:20Z</time>
      </trkpt>
      <trkpt lat="39.2897720" lon="-0.7950820">
        <ele>351.0</ele>
        <time>2018-09-16T08:36:21Z</time>
      </trkpt>
      <trkpt lat="39.2897720" lon="-0.7950820">
        <ele>351.0</ele>
        <time>2018-09-16T08:36:22Z</time>
      </trkpt>
      <trkpt lat="39.2897100" lon="-0.7952080">
        <ele>351.0</ele>
        <time>2018-09-16T08:36:23Z</time>
      </trkpt>
      <trkpt lat="39.2896970" lon="-0.7952870">
        <ele>351.0</ele>
        <time>2018-09-16T08:36:24Z</time>
      </trkpt>
      <trkpt lat="39.2896950" lon="-0.7953720">
        <ele>351.0</ele>
        <time>2018-09-16T08:36:25Z</time>
      </trkpt>
      <trkpt lat="39.2896950" lon="-0.7953720">
        <ele>351.0</ele>
        <time>2018-09-16T08:36:26Z</time>
      </trkpt>
      <trkpt lat="39.2897180" lon="-0.7955530">
        <ele>350.0</ele>
        <time>2018-09-16T08:36:27Z</time>
      </trkpt>
      <trkpt lat="39.2897350" lon="-0.7956420">
        <ele>350.0</ele>
        <time>2018-09-16T08:36:28Z</time>
      </trkpt>
      <trkpt lat="39.2897350" lon="-0.7956420">
        <ele>350.0</ele>
        <time>2018-09-16T08:36:29Z</time>
      </trkpt>
      <trkpt lat="39.2897720" lon="-0.7958080">
        <ele>350.0</ele>
        <time>2018-09-16T08:36:30Z</time>
      </trkpt>
      <trkpt lat="39.2897720" lon="-0.7958080">
        <ele>349.0</ele>
        <time>2018-09-16T08:36:31Z</time>
      </trkpt>
      <trkpt lat="39.2897980" lon="-0.7959670">
        <ele>349.0</ele>
        <time>2018-09-16T08:36:32Z</time>
      </trkpt>
      <trkpt lat="39.2897980" lon="-0.7959670">
        <ele>349.0</ele>
        <time>2018-09-16T08:36:33Z</time>
      </trkpt>
      <trkpt lat="39.2898120" lon="-0.7961120">
        <ele>349.0</ele>
        <time>2018-09-16T08:36:34Z</time>
      </trkpt>
      <trkpt lat="39.2898130" lon="-0.7961780">
        <ele>349.0</ele>
        <time>2018-09-16T08:36:35Z</time>
      </trkpt>
      <trkpt lat="39.2898130" lon="-0.7961780">
        <ele>349.0</ele>
        <time>2018-09-16T08:36:36Z</time>
      </trkpt>
      <trkpt lat="39.2898170" lon="-0.7963050">
        <ele>349.0</ele>
        <time>2018-09-16T08:36:37Z</time>
      </trkpt>
      <trkpt lat="39.2898180" lon="-0.7963630">
        <ele>349.0</ele>
        <time>2018-09-16T08:36:38Z</time>
      </trkpt>
      <trkpt lat="39.2898180" lon="-0.7963630">
        <ele>349.0</ele>
        <time>2018-09-16T08:36:39Z</time>
      </trkpt>
      <trkpt lat="39.2898200" lon="-0.7964830">
        <ele>349.0</ele>
        <time>2018-09-16T08:36:40Z</time>
      </trkpt>
      <trkpt lat="39.2898200" lon="-0.7964830">
        <ele>349.0</ele>
        <time>2018-09-16T08:36:41Z</time>
      </trkpt>
      <trkpt lat="39.2898050" lon="-0.7966030">
        <ele>348.0</ele>
        <time>2018-09-16T08:36:42Z</time>
      </trkpt>
      <trkpt lat="39.2898050" lon="-0.7966030">
        <ele>348.0</ele>
        <time>2018-09-16T08:36:43Z</time>
      </trkpt>
      <trkpt lat="39.2897830" lon="-0.7967250">
        <ele>348.0</ele>
        <time>2018-09-16T08:36:44Z</time>
      </trkpt>
      <trkpt lat="39.2897730" lon="-0.7967900">
        <ele>348.0</ele>
        <time>2018-09-16T08:36:45Z</time>
      </trkpt>
      <trkpt lat="39.2897730" lon="-0.7967900">
        <ele>348.0</ele>
        <time>2018-09-16T08:36:46Z</time>
      </trkpt>
      <trkpt lat="39.2897620" lon="-0.7969120">
        <ele>348.0</ele>
        <time>2018-09-16T08:36:47Z</time>
      </trkpt>
      <trkpt lat="39.2897580" lon="-0.7969680">
        <ele>348.0</ele>
        <time>2018-09-16T08:36:48Z</time>
      </trkpt>
      <trkpt lat="39.2897580" lon="-0.7969680">
        <ele>348.0</ele>
        <time>2018-09-16T08:36:49Z</time>
      </trkpt>
      <trkpt lat="39.2897450" lon="-0.7970950">
        <ele>348.0</ele>
        <time>2018-09-16T08:36:50Z</time>
      </trkpt>
      <trkpt lat="39.2897420" lon="-0.7971630">
        <ele>348.0</ele>
        <time>2018-09-16T08:36:51Z</time>
      </trkpt>
      <trkpt lat="39.2897420" lon="-0.7971630">
        <ele>348.0</ele>
        <time>2018-09-16T08:36:52Z</time>
      </trkpt>
      <trkpt lat="39.2897350" lon="-0.7972850">
        <ele>348.0</ele>
        <time>2018-09-16T08:36:53Z</time>
      </trkpt>
      <trkpt lat="39.2897350" lon="-0.7972850">
        <ele>348.0</ele>
        <time>2018-09-16T08:36:54Z</time>
      </trkpt>
      <trkpt lat="39.2897280" lon="-0.7974130">
        <ele>348.0</ele>
        <time>2018-09-16T08:36:55Z</time>
      </trkpt>
      <trkpt lat="39.2897280" lon="-0.7974130">
        <ele>348.0</ele>
        <time>2018-09-16T08:36:56Z</time>
      </trkpt>
      <trkpt lat="39.2897380" lon="-0.7975550">
        <ele>348.0</ele>
        <time>2018-09-16T08:36:57Z</time>
      </trkpt>
      <trkpt lat="39.2897250" lon="-0.7975970">
        <ele>348.0</ele>
        <time>2018-09-16T08:36:58Z</time>
      </trkpt>
      <trkpt lat="39.2897250" lon="-0.7975970">
        <ele>348.0</ele>
        <time>2018-09-16T08:36:59Z</time>
      </trkpt>
      <trkpt lat="39.2897380" lon="-0.7977030">
        <ele>348.0</ele>
        <time>2018-09-16T08:37:00Z</time>
      </trkpt>
      <trkpt lat="39.2897380" lon="-0.7977030">
        <ele>348.0</ele>
        <time>2018-09-16T08:37:01Z</time>
      </trkpt>
      <trkpt lat="39.2897650" lon="-0.7978230">
        <ele>348.0</ele>
        <time>2018-09-16T08:37:02Z</time>
      </trkpt>
      <trkpt lat="39.2897650" lon="-0.7978230">
        <ele>348.0</ele>
        <time>2018-09-16T08:37:03Z</time>
      </trkpt>
      <trkpt lat="39.2897920" lon="-0.7979400">
        <ele>348.0</ele>
        <time>2018-09-16T08:37:04Z</time>
      </trkpt>
      <trkpt lat="39.2898020" lon="-0.7980030">
        <ele>348.0</ele>
        <time>2018-09-16T08:37:05Z</time>
      </trkpt>
      <trkpt lat="39.2898120" lon="-0.7980630">
        <ele>348.0</ele>
        <time>2018-09-16T08:37:06Z</time>
      </trkpt>
      <trkpt lat="39.2898120" lon="-0.7980630">
        <ele>348.0</ele>
        <time>2018-09-16T08:37:07Z</time>
      </trkpt>
      <trkpt lat="39.2898330" lon="-0.7981920">
        <ele>348.0</ele>
        <time>2018-09-16T08:37:08Z</time>
      </trkpt>
      <trkpt lat="39.2898330" lon="-0.7981920">
        <ele>348.0</ele>
        <time>2018-09-16T08:37:09Z</time>
      </trkpt>
      <trkpt lat="39.2898570" lon="-0.7983250">
        <ele>348.0</ele>
        <time>2018-09-16T08:37:10Z</time>
      </trkpt>
      <trkpt lat="39.2898650" lon="-0.7983980">
        <ele>348.0</ele>
        <time>2018-09-16T08:37:11Z</time>
      </trkpt>
      <trkpt lat="39.2898650" lon="-0.7983980">
        <ele>348.0</ele>
        <time>2018-09-16T08:37:12Z</time>
      </trkpt>
      <trkpt lat="39.2898770" lon="-0.7985450">
        <ele>348.0</ele>
        <time>2018-09-16T08:37:13Z</time>
      </trkpt>
      <trkpt lat="39.2898770" lon="-0.7985450">
        <ele>348.0</ele>
        <time>2018-09-16T08:37:14Z</time>
      </trkpt>
      <trkpt lat="39.2898920" lon="-0.7986800">
        <ele>348.0</ele>
        <time>2018-09-16T08:37:15Z</time>
      </trkpt>
      <trkpt lat="39.2898920" lon="-0.7986800">
        <ele>348.0</ele>
        <time>2018-09-16T08:37:16Z</time>
      </trkpt>
      <trkpt lat="39.2899100" lon="-0.7988070">
        <ele>348.0</ele>
        <time>2018-09-16T08:37:17Z</time>
      </trkpt>
      <trkpt lat="39.2899100" lon="-0.7988070">
        <ele>348.0</ele>
        <time>2018-09-16T08:37:18Z</time>
      </trkpt>
      <trkpt lat="39.2899300" lon="-0.7989330">
        <ele>348.0</ele>
        <time>2018-09-16T08:37:19Z</time>
      </trkpt>
      <trkpt lat="39.2899300" lon="-0.7989330">
        <ele>348.0</ele>
        <time>2018-09-16T08:37:20Z</time>
      </trkpt>
      <trkpt lat="39.2899500" lon="-0.7990600">
        <ele>348.0</ele>
        <time>2018-09-16T08:37:21Z</time>
      </trkpt>
      <trkpt lat="39.2899500" lon="-0.7990600">
        <ele>348.0</ele>
        <time>2018-09-16T08:37:22Z</time>
      </trkpt>
      <trkpt lat="39.2899700" lon="-0.7991900">
        <ele>348.0</ele>
        <time>2018-09-16T08:37:23Z</time>
      </trkpt>
      <trkpt lat="39.2899780" lon="-0.7992550">
        <ele>348.0</ele>
        <time>2018-09-16T08:37:24Z</time>
      </trkpt>
      <trkpt lat="39.2899780" lon="-0.7992550">
        <ele>348.0</ele>
        <time>2018-09-16T08:37:25Z</time>
      </trkpt>
      <trkpt lat="39.2900000" lon="-0.7993770">
        <ele>348.0</ele>
        <time>2018-09-16T08:37:26Z</time>
      </trkpt>
      <trkpt lat="39.2900120" lon="-0.7994370">
        <ele>348.0</ele>
        <time>2018-09-16T08:37:27Z</time>
      </trkpt>
      <trkpt lat="39.2900120" lon="-0.7994370">
        <ele>348.0</ele>
        <time>2018-09-16T08:37:28Z</time>
      </trkpt>
      <trkpt lat="39.2900500" lon="-0.7995420">
        <ele>348.0</ele>
        <time>2018-09-16T08:37:29Z</time>
      </trkpt>
      <trkpt lat="39.2900650" lon="-0.7995920">
        <ele>348.0</ele>
        <time>2018-09-16T08:37:30Z</time>
      </trkpt>
      <trkpt lat="39.2900650" lon="-0.7995920">
        <ele>348.0</ele>
        <time>2018-09-16T08:37:31Z</time>
      </trkpt>
      <trkpt lat="39.2901070" lon="-0.7996820">
        <ele>348.0</ele>
        <time>2018-09-16T08:37:32Z</time>
      </trkpt>
      <trkpt lat="39.2901270" lon="-0.7997220">
        <ele>348.0</ele>
        <time>2018-09-16T08:37:33Z</time>
      </trkpt>
      <trkpt lat="39.2901270" lon="-0.7997220">
        <ele>348.0</ele>
        <time>2018-09-16T08:37:34Z</time>
      </trkpt>
      <trkpt lat="39.2901680" lon="-0.7997970">
        <ele>348.0</ele>
        <time>2018-09-16T08:37:35Z</time>
      </trkpt>
      <trkpt lat="39.2901770" lon="-0.7998350">
        <ele>348.0</ele>
        <time>2018-09-16T08:37:36Z</time>
      </trkpt>
      <trkpt lat="39.2901770" lon="-0.7998350">
        <ele>348.0</ele>
        <time>2018-09-16T08:37:37Z</time>
      </trkpt>
      <trkpt lat="39.2901630" lon="-0.7998880">
        <ele>348.0</ele>
        <time>2018-09-16T08:37:38Z</time>
      </trkpt>
      <trkpt lat="39.2901630" lon="-0.7998880">
        <ele>348.0</ele>
        <time>2018-09-16T08:37:39Z</time>
      </trkpt>
      <trkpt lat="39.2901280" lon="-0.7998670">
        <ele>348.0</ele>
        <time>2018-09-16T08:37:40Z</time>
      </trkpt>
      <trkpt lat="39.2901280" lon="-0.7998670">
        <ele>348.0</ele>
        <time>2018-09-16T08:37:41Z</time>
      </trkpt>
      <trkpt lat="39.2901030" lon="-0.7998130">
        <ele>348.0</ele>
        <time>2018-09-16T08:37:42Z</time>
      </trkpt>
      <trkpt lat="39.2900890" lon="-0.7997790">
        <ele>348.0</ele>
        <time>2018-09-16T08:37:43Z</time>
      </trkpt>
      <trkpt lat="39.2900750" lon="-0.7997450">
        <ele>348.0</ele>
        <time>2018-09-16T08:37:44Z</time>
      </trkpt>
      <trkpt lat="39.2900750" lon="-0.7997450">
        <ele>348.0</ele>
        <time>2018-09-16T08:37:45Z</time>
      </trkpt>
      <trkpt lat="39.2900500" lon="-0.7996880">
        <ele>348.0</ele>
        <time>2018-09-16T08:37:46Z</time>
      </trkpt>
      <trkpt lat="39.2900500" lon="-0.7996880">
        <ele>348.0</ele>
        <time>2018-09-16T08:37:47Z</time>
      </trkpt>
      <trkpt lat="39.2900220" lon="-0.7996380">
        <ele>348.0</ele>
        <time>2018-09-16T08:37:48Z</time>
      </trkpt>
      <trkpt lat="39.2900220" lon="-0.7996380">
        <ele>347.0</ele>
        <time>2018-09-16T08:37:49Z</time>
      </trkpt>
      <trkpt lat="39.2899970" lon="-0.7995930">
        <ele>347.0</ele>
        <time>2018-09-16T08:37:50Z</time>
      </trkpt>
      <trkpt lat="39.2899970" lon="-0.7995930">
        <ele>347.0</ele>
        <time>2018-09-16T08:37:51Z</time>
      </trkpt>
      <trkpt lat="39.2899770" lon="-0.7995620">
        <ele>347.0</ele>
        <time>2018-09-16T08:37:52Z</time>
      </trkpt>
      <trkpt lat="39.2899770" lon="-0.7995620">
        <ele>347.0</ele>
        <time>2018-09-16T08:37:53Z</time>
      </trkpt>
      <trkpt lat="39.2899580" lon="-0.7995320">
        <ele>347.0</ele>
        <time>2018-09-16T08:37:54Z</time>
      </trkpt>
      <trkpt lat="39.2899580" lon="-0.7995320">
        <ele>347.0</ele>
        <time>2018-09-16T08:37:55Z</time>
      </trkpt>
      <trkpt lat="39.2899370" lon="-0.7995150">
        <ele>347.0</ele>
        <time>2018-09-16T08:37:56Z</time>
      </trkpt>
      <trkpt lat="39.2899370" lon="-0.7995150">
        <ele>347.0</ele>
        <time>2018-09-16T08:37:57Z</time>
      </trkpt>
      <trkpt lat="39.2899180" lon="-0.7995000">
        <ele>347.0</ele>
        <time>2018-09-16T08:37:58Z</time>
      </trkpt>
      <trkpt lat="39.2899180" lon="-0.7995000">
        <ele>347.0</ele>
        <time>2018-09-16T08:37:59Z</time>
      </trkpt>
      <trkpt lat="39.2898930" lon="-0.7995000">
        <ele>347.0</ele>
        <time>2018-09-16T08:38:00Z</time>
      </trkpt>
      <trkpt lat="39.2898930" lon="-0.7995000">
        <ele>347.0</ele>
        <time>2018-09-16T08:38:01Z</time>
      </trkpt>
      <trkpt lat="39.2898650" lon="-0.7994980">
        <ele>347.0</ele>
        <time>2018-09-16T08:38:02Z</time>
      </trkpt>
      <trkpt lat="39.2898650" lon="-0.7994980">
        <ele>347.0</ele>
        <time>2018-09-16T08:38:03Z</time>
      </trkpt>
      <trkpt lat="39.2898400" lon="-0.7995050">
        <ele>347.0</ele>
        <time>2018-09-16T08:38:04Z</time>
      </trkpt>
      <trkpt lat="39.2898300" lon="-0.7995170">
        <ele>347.0</ele>
        <time>2018-09-16T08:38:05Z</time>
      </trkpt>
      <trkpt lat="39.2898300" lon="-0.7995170">
        <ele>347.0</ele>
        <time>2018-09-16T08:38:06Z</time>
      </trkpt>
      <trkpt lat="39.2898150" lon="-0.7995350">
        <ele>347.0</ele>
        <time>2018-09-16T08:38:07Z</time>
      </trkpt>
      <trkpt lat="39.2898070" lon="-0.7995380">
        <ele>347.0</ele>
        <time>2018-09-16T08:38:08Z</time>
      </trkpt>
      <trkpt lat="39.2898070" lon="-0.7995380">
        <ele>347.0</ele>
        <time>2018-09-16T08:38:09Z</time>
      </trkpt>
      <trkpt lat="39.2897920" lon="-0.7995150">
        <ele>347.0</ele>
        <time>2018-09-16T08:38:10Z</time>
      </trkpt>
      <trkpt lat="39.2897920" lon="-0.7995150">
        <ele>347.0</ele>
        <time>2018-09-16T08:38:11Z</time>
      </trkpt>
      <trkpt lat="39.2898080" lon="-0.7994930">
        <ele>347.0</ele>
        <time>2018-09-16T08:38:12Z</time>
      </trkpt>
      <trkpt lat="39.2898080" lon="-0.7994930">
        <ele>347.0</ele>
        <time>2018-09-16T08:38:13Z</time>
      </trkpt>
      <trkpt lat="39.2898330" lon="-0.7994900">
        <ele>347.0</ele>
        <time>2018-09-16T08:38:14Z</time>
      </trkpt>
      <trkpt lat="39.2898330" lon="-0.7994900">
        <ele>347.0</ele>
        <time>2018-09-16T08:38:15Z</time>
      </trkpt>
      <trkpt lat="39.2898530" lon="-0.7995200">
        <ele>347.0</ele>
        <time>2018-09-16T08:38:16Z</time>
      </trkpt>
      <trkpt lat="39.2898530" lon="-0.7995200">
        <ele>347.0</ele>
        <time>2018-09-16T08:38:17Z</time>
      </trkpt>
      <trkpt lat="39.2898130" lon="-0.7995430">
        <ele>347.0</ele>
        <time>2018-09-16T08:38:18Z</time>
      </trkpt>
      <trkpt lat="39.2898130" lon="-0.7995430">
        <ele>347.0</ele>
        <time>2018-09-16T08:38:19Z</time>
      </trkpt>
      <trkpt lat="39.2897480" lon="-0.7995480">
        <ele>347.0</ele>
        <time>2018-09-16T08:38:20Z</time>
      </trkpt>
      <trkpt lat="39.2897480" lon="-0.7995480">
        <ele>347.0</ele>
        <time>2018-09-16T08:38:21Z</time>
      </trkpt>
      <trkpt lat="39.2896730" lon="-0.7995800">
        <ele>347.0</ele>
        <time>2018-09-16T08:38:22Z</time>
      </trkpt>
      <trkpt lat="39.2896330" lon="-0.7995980">
        <ele>347.0</ele>
        <time>2018-09-16T08:38:23Z</time>
      </trkpt>
      <trkpt lat="39.2896330" lon="-0.7995980">
        <ele>347.0</ele>
        <time>2018-09-16T08:38:24Z</time>
      </trkpt>
      <trkpt lat="39.2895530" lon="-0.7996300">
        <ele>347.0</ele>
        <time>2018-09-16T08:38:25Z</time>
      </trkpt>
      <trkpt lat="39.2895530" lon="-0.7996300">
        <ele>347.0</ele>
        <time>2018-09-16T08:38:26Z</time>
      </trkpt>
      <trkpt lat="39.2894820" lon="-0.7996700">
        <ele>347.0</ele>
        <time>2018-09-16T08:38:27Z</time>
      </trkpt>
      <trkpt lat="39.2894820" lon="-0.7996700">
        <ele>347.0</ele>
        <time>2018-09-16T08:38:28Z</time>
      </trkpt>
      <trkpt lat="39.2894220" lon="-0.7997270">
        <ele>347.0</ele>
        <time>2018-09-16T08:38:29Z</time>
      </trkpt>
      <trkpt lat="39.2893950" lon="-0.7997600">
        <ele>347.0</ele>
        <time>2018-09-16T08:38:30Z</time>
      </trkpt>
      <trkpt lat="39.2893950" lon="-0.7997600">
        <ele>347.0</ele>
        <time>2018-09-16T08:38:31Z</time>
      </trkpt>
      <trkpt lat="39.2893420" lon="-0.7998050">
        <ele>347.0</ele>
        <time>2018-09-16T08:38:32Z</time>
      </trkpt>
      <trkpt lat="39.2893130" lon="-0.7998300">
        <ele>347.0</ele>
        <time>2018-09-16T08:38:33Z</time>
      </trkpt>
      <trkpt lat="39.2893130" lon="-0.7998300">
        <ele>347.0</ele>
        <time>2018-09-16T08:38:34Z</time>
      </trkpt>
      <trkpt lat="39.2892600" lon="-0.7998850">
        <ele>348.0</ele>
        <time>2018-09-16T08:38:35Z</time>
      </trkpt>
      <trkpt lat="39.2892320" lon="-0.7999130">
        <ele>348.0</ele>
        <time>2018-09-16T08:38:36Z</time>
      </trkpt>
      <trkpt lat="39.2892320" lon="-0.7999130">
        <ele>348.0</ele>
        <time>2018-09-16T08:38:37Z</time>
      </trkpt>
      <trkpt lat="39.2891820" lon="-0.7999680">
        <ele>348.0</ele>
        <time>2018-09-16T08:38:38Z</time>
      </trkpt>
      <trkpt lat="39.2891820" lon="-0.7999680">
        <ele>348.0</ele>
        <time>2018-09-16T08:38:39Z</time>
      </trkpt>
      <trkpt lat="39.2891270" lon="-0.8000130">
        <ele>348.0</ele>
        <time>2018-09-16T08:38:40Z</time>
      </trkpt>
      <trkpt lat="39.2890930" lon="-0.8000270">
        <ele>349.0</ele>
        <time>2018-09-16T08:38:41Z</time>
      </trkpt>
      <trkpt lat="39.2890930" lon="-0.8000270">
        <ele>349.0</ele>
        <time>2018-09-16T08:38:42Z</time>
      </trkpt>
      <trkpt lat="39.2890370" lon="-0.8000580">
        <ele>349.0</ele>
        <time>2018-09-16T08:38:43Z</time>
      </trkpt>
      <trkpt lat="39.2890370" lon="-0.8000580">
        <ele>349.0</ele>
        <time>2018-09-16T08:38:44Z</time>
      </trkpt>
      <trkpt lat="39.2889870" lon="-0.8000920">
        <ele>349.0</ele>
        <time>2018-09-16T08:38:45Z</time>
      </trkpt>
      <trkpt lat="39.2889650" lon="-0.8001150">
        <ele>349.0</ele>
        <time>2018-09-16T08:38:46Z</time>
      </trkpt>
      <trkpt lat="39.2889650" lon="-0.8001150">
        <ele>349.0</ele>
        <time>2018-09-16T08:38:47Z</time>
      </trkpt>
      <trkpt lat="39.2889170" lon="-0.8001500">
        <ele>349.0</ele>
        <time>2018-09-16T08:38:48Z</time>
      </trkpt>
      <trkpt lat="39.2889170" lon="-0.8001500">
        <ele>349.0</ele>
        <time>2018-09-16T08:38:49Z</time>
      </trkpt>
      <trkpt lat="39.2888720" lon="-0.8001750">
        <ele>349.0</ele>
        <time>2018-09-16T08:38:50Z</time>
      </trkpt>
      <trkpt lat="39.2888720" lon="-0.8001750">
        <ele>349.0</ele>
        <time>2018-09-16T08:38:51Z</time>
      </trkpt>
      <trkpt lat="39.2888580" lon="-0.8001850">
        <ele>349.0</ele>
        <time>2018-09-16T08:38:52Z</time>
      </trkpt>
      <trkpt lat="39.2887370" lon="-0.8002770">
        <ele>349.0</ele>
        <time>2018-09-16T09:22:55Z</time>
      </trkpt>
      <trkpt lat="39.2887370" lon="-0.8002770">
        <ele>349.0</ele>
        <time>2018-09-16T09:22:56Z</time>
      </trkpt>
      <trkpt lat="39.2887370" lon="-0.8002770">
        <ele>349.0</ele>
        <time>2018-09-16T09:22:57Z</time>
      </trkpt>
      <trkpt lat="39.2887370" lon="-0.8002770">
        <ele>349.0</ele>
        <time>2018-09-16T09:22:58Z</time>
      </trkpt>
      <trkpt lat="39.2887370" lon="-0.8002770">
        <ele>349.0</ele>
        <time>2018-09-16T09:22:59Z</time>
      </trkpt>
      <trkpt lat="39.2887720" lon="-0.8002750">
        <ele>349.0</ele>
        <time>2018-09-16T09:23:00Z</time>
      </trkpt>
      <trkpt lat="39.2887880" lon="-0.8002710">
        <ele>349.0</ele>
        <time>2018-09-16T09:23:01Z</time>
      </trkpt>
      <trkpt lat="39.2887950" lon="-0.8002660">
        <ele>349.0</ele>
        <time>2018-09-16T09:23:02Z</time>
      </trkpt>
      <trkpt lat="39.2888030" lon="-0.8002620">
        <ele>349.0</ele>
        <time>2018-09-16T09:23:03Z</time>
      </trkpt>
      <trkpt lat="39.2888030" lon="-0.8002620">
        <ele>349.0</ele>
        <time>2018-09-16T09:23:04Z</time>
      </trkpt>
      <trkpt lat="39.2888330" lon="-0.8002620">
        <ele>349.0</ele>
        <time>2018-09-16T09:23:05Z</time>
      </trkpt>
      <trkpt lat="39.2888330" lon="-0.8002620">
        <ele>349.0</ele>
        <time>2018-09-16T09:23:06Z</time>
      </trkpt>
      <trkpt lat="39.2888680" lon="-0.8002400">
        <ele>349.0</ele>
        <time>2018-09-16T09:23:07Z</time>
      </trkpt>
      <trkpt lat="39.2888680" lon="-0.8002400">
        <ele>349.0</ele>
        <time>2018-09-16T09:23:08Z</time>
      </trkpt>
      <trkpt lat="39.2889070" lon="-0.8002120">
        <ele>349.0</ele>
        <time>2018-09-16T09:23:09Z</time>
      </trkpt>
      <trkpt lat="39.2889070" lon="-0.8002120">
        <ele>349.0</ele>
        <time>2018-09-16T09:23:10Z</time>
      </trkpt>
      <trkpt lat="39.2889520" lon="-0.8001830">
        <ele>349.0</ele>
        <time>2018-09-16T09:23:11Z</time>
      </trkpt>
      <trkpt lat="39.2889520" lon="-0.8001830">
        <ele>349.0</ele>
        <time>2018-09-16T09:23:12Z</time>
      </trkpt>
      <trkpt lat="39.2890000" lon="-0.8001430">
        <ele>349.0</ele>
        <time>2018-09-16T09:23:13Z</time>
      </trkpt>
      <trkpt lat="39.2890000" lon="-0.8001430">
        <ele>349.0</ele>
        <time>2018-09-16T09:23:14Z</time>
      </trkpt>
      <trkpt lat="39.2890570" lon="-0.8000720">
        <ele>349.0</ele>
        <time>2018-09-16T09:23:15Z</time>
      </trkpt>
      <trkpt lat="39.2890570" lon="-0.8000720">
        <ele>349.0</ele>
        <time>2018-09-16T09:23:16Z</time>
      </trkpt>
      <trkpt lat="39.2891150" lon="-0.8000020">
        <ele>349.0</ele>
        <time>2018-09-16T09:23:17Z</time>
      </trkpt>
      <trkpt lat="39.2891150" lon="-0.8000020">
        <ele>349.0</ele>
        <time>2018-09-16T09:23:18Z</time>
      </trkpt>
      <trkpt lat="39.2891770" lon="-0.7999300">
        <ele>349.0</ele>
        <time>2018-09-16T09:23:19Z</time>
      </trkpt>
      <trkpt lat="39.2892080" lon="-0.7998930">
        <ele>349.0</ele>
        <time>2018-09-16T09:23:20Z</time>
      </trkpt>
      <trkpt lat="39.2892370" lon="-0.7998630">
        <ele>349.0</ele>
        <time>2018-09-16T09:23:21Z</time>
      </trkpt>
      <trkpt lat="39.2892370" lon="-0.7998630">
        <ele>349.0</ele>
        <time>2018-09-16T09:23:22Z</time>
      </trkpt>
      <trkpt lat="39.2893000" lon="-0.7997770">
        <ele>349.0</ele>
        <time>2018-09-16T09:23:23Z</time>
      </trkpt>
      <trkpt lat="39.2893000" lon="-0.7997770">
        <ele>349.0</ele>
        <time>2018-09-16T09:23:24Z</time>
      </trkpt>
      <trkpt lat="39.2893820" lon="-0.7997250">
        <ele>349.0</ele>
        <time>2018-09-16T09:23:25Z</time>
      </trkpt>
      <trkpt lat="39.2893820" lon="-0.7997250">
        <ele>347.0</ele>
        <time>2018-09-16T09:23:26Z</time>
      </trkpt>
      <trkpt lat="39.2894750" lon="-0.7996850">
        <ele>347.0</ele>
        <time>2018-09-16T09:23:27Z</time>
      </trkpt>
      <trkpt lat="39.2895270" lon="-0.7996750">
        <ele>347.0</ele>
        <time>2018-09-16T09:23:28Z</time>
      </trkpt>
      <trkpt lat="39.2895270" lon="-0.7996750">
        <ele>347.0</ele>
        <time>2018-09-16T09:23:29Z</time>
      </trkpt>
      <trkpt lat="39.2896100" lon="-0.7996400">
        <ele>347.0</ele>
        <time>2018-09-16T09:23:30Z</time>
      </trkpt>
      <trkpt lat="39.2896480" lon="-0.7996230">
        <ele>347.0</ele>
        <time>2018-09-16T09:23:31Z</time>
      </trkpt>
      <trkpt lat="39.2896480" lon="-0.7996230">
        <ele>347.0</ele>
        <time>2018-09-16T09:23:32Z</time>
      </trkpt>
      <trkpt lat="39.2897180" lon="-0.7995770">
        <ele>347.0</ele>
        <time>2018-09-16T09:23:33Z</time>
      </trkpt>
      <trkpt lat="39.2897180" lon="-0.7995770">
        <ele>347.0</ele>
        <time>2018-09-16T09:23:34Z</time>
      </trkpt>
      <trkpt lat="39.2898120" lon="-0.7995250">
        <ele>347.0</ele>
        <time>2018-09-16T09:23:35Z</time>
      </trkpt>
      <trkpt lat="39.2898120" lon="-0.7995250">
        <ele>347.0</ele>
        <time>2018-09-16T09:23:36Z</time>
      </trkpt>
      <trkpt lat="39.2898800" lon="-0.7994470">
        <ele>347.0</ele>
        <time>2018-09-16T09:23:37Z</time>
      </trkpt>
      <trkpt lat="39.2898800" lon="-0.7994470">
        <ele>347.0</ele>
        <time>2018-09-16T09:23:38Z</time>
      </trkpt>
      <trkpt lat="39.2898920" lon="-0.7993450">
        <ele>347.0</ele>
        <time>2018-09-16T09:23:39Z</time>
      </trkpt>
      <trkpt lat="39.2898920" lon="-0.7993450">
        <ele>347.0</ele>
        <time>2018-09-16T09:23:40Z</time>
      </trkpt>
      <trkpt lat="39.2898900" lon="-0.7992520">
        <ele>347.0</ele>
        <time>2018-09-16T09:23:41Z</time>
      </trkpt>
      <trkpt lat="39.2898900" lon="-0.7992520">
        <ele>347.0</ele>
        <time>2018-09-16T09:23:42Z</time>
      </trkpt>
      <trkpt lat="39.2898820" lon="-0.7991600">
        <ele>347.0</ele>
        <time>2018-09-16T09:23:43Z</time>
      </trkpt>
      <trkpt lat="39.2898820" lon="-0.7991600">
        <ele>347.0</ele>
        <time>2018-09-16T09:23:44Z</time>
      </trkpt>
      <trkpt lat="39.2898800" lon="-0.7990720">
        <ele>347.0</ele>
        <time>2018-09-16T09:23:45Z</time>
      </trkpt>
      <trkpt lat="39.2898800" lon="-0.7990720">
        <ele>347.0</ele>
        <time>2018-09-16T09:23:46Z</time>
      </trkpt>
      <trkpt lat="39.2898770" lon="-0.7989750">
        <ele>347.0</ele>
        <time>2018-09-16T09:23:47Z</time>
      </trkpt>
      <trkpt lat="39.2898770" lon="-0.7989750">
        <ele>347.0</ele>
        <time>2018-09-16T09:23:48Z</time>
      </trkpt>
      <trkpt lat="39.2898720" lon="-0.7988800">
        <ele>347.0</ele>
        <time>2018-09-16T09:23:49Z</time>
      </trkpt>
      <trkpt lat="39.2898630" lon="-0.7988300">
        <ele>347.0</ele>
        <time>2018-09-16T09:23:50Z</time>
      </trkpt>
      <trkpt lat="39.2898630" lon="-0.7988300">
        <ele>347.0</ele>
        <time>2018-09-16T09:23:51Z</time>
      </trkpt>
      <trkpt lat="39.2898470" lon="-0.7987270">
        <ele>347.0</ele>
        <time>2018-09-16T09:23:52Z</time>
      </trkpt>
      <trkpt lat="39.2898470" lon="-0.7987270">
        <ele>347.0</ele>
        <time>2018-09-16T09:23:53Z</time>
      </trkpt>
      <trkpt lat="39.2898300" lon="-0.7986200">
        <ele>347.0</ele>
        <time>2018-09-16T09:23:54Z</time>
      </trkpt>
      <trkpt lat="39.2898300" lon="-0.7986200">
        <ele>347.0</ele>
        <time>2018-09-16T09:23:55Z</time>
      </trkpt>
      <trkpt lat="39.2898130" lon="-0.7985070">
        <ele>347.0</ele>
        <time>2018-09-16T09:23:56Z</time>
      </trkpt>
      <trkpt lat="39.2898050" lon="-0.7984500">
        <ele>347.0</ele>
        <time>2018-09-16T09:23:57Z</time>
      </trkpt>
      <trkpt lat="39.2898050" lon="-0.7984500">
        <ele>347.0</ele>
        <time>2018-09-16T09:23:58Z</time>
      </trkpt>
      <trkpt lat="39.2897850" lon="-0.7983350">
        <ele>347.0</ele>
        <time>2018-09-16T09:23:59Z</time>
      </trkpt>
      <trkpt lat="39.2897850" lon="-0.7983350">
        <ele>347.0</ele>
        <time>2018-09-16T09:24:00Z</time>
      </trkpt>
      <trkpt lat="39.2897650" lon="-0.7982150">
        <ele>347.0</ele>
        <time>2018-09-16T09:24:01Z</time>
      </trkpt>
      <trkpt lat="39.2897550" lon="-0.7981550">
        <ele>347.0</ele>
        <time>2018-09-16T09:24:02Z</time>
      </trkpt>
      <trkpt lat="39.2897550" lon="-0.7981550">
        <ele>347.0</ele>
        <time>2018-09-16T09:24:03Z</time>
      </trkpt>
      <trkpt lat="39.2897370" lon="-0.7980280">
        <ele>347.0</ele>
        <time>2018-09-16T09:24:04Z</time>
      </trkpt>
      <trkpt lat="39.2897320" lon="-0.7979680">
        <ele>347.0</ele>
        <time>2018-09-16T09:24:05Z</time>
      </trkpt>
      <trkpt lat="39.2897320" lon="-0.7979680">
        <ele>347.0</ele>
        <time>2018-09-16T09:24:06Z</time>
      </trkpt>
      <trkpt lat="39.2897150" lon="-0.7978500">
        <ele>347.0</ele>
        <time>2018-09-16T09:24:07Z</time>
      </trkpt>
      <trkpt lat="39.2897150" lon="-0.7978500">
        <ele>347.0</ele>
        <time>2018-09-16T09:24:08Z</time>
      </trkpt>
      <trkpt lat="39.2897020" lon="-0.7977420">
        <ele>347.0</ele>
        <time>2018-09-16T09:24:09Z</time>
      </trkpt>
      <trkpt lat="39.2897020" lon="-0.7977420">
        <ele>347.0</ele>
        <time>2018-09-16T09:24:10Z</time>
      </trkpt>
      <trkpt lat="39.2896850" lon="-0.7976320">
        <ele>347.0</ele>
        <time>2018-09-16T09:24:11Z</time>
      </trkpt>
      <trkpt lat="39.2896850" lon="-0.7976320">
        <ele>347.0</ele>
        <time>2018-09-16T09:24:12Z</time>
      </trkpt>
      <trkpt lat="39.2896920" lon="-0.7975330">
        <ele>347.0</ele>
        <time>2018-09-16T09:24:13Z</time>
      </trkpt>
      <trkpt lat="39.2896920" lon="-0.7975330">
        <ele>347.0</ele>
        <time>2018-09-16T09:24:14Z</time>
      </trkpt>
      <trkpt lat="39.2897020" lon="-0.7974330">
        <ele>347.0</ele>
        <time>2018-09-16T09:24:15Z</time>
      </trkpt>
      <trkpt lat="39.2897020" lon="-0.7974330">
        <ele>347.0</ele>
        <time>2018-09-16T09:24:16Z</time>
      </trkpt>
      <trkpt lat="39.2897070" lon="-0.7973250">
        <ele>347.0</ele>
        <time>2018-09-16T09:24:17Z</time>
      </trkpt>
      <trkpt lat="39.2897070" lon="-0.7973250">
        <ele>347.0</ele>
        <time>2018-09-16T09:24:18Z</time>
      </trkpt>
      <trkpt lat="39.2897150" lon="-0.7972200">
        <ele>347.0</ele>
        <time>2018-09-16T09:24:19Z</time>
      </trkpt>
      <trkpt lat="39.2897150" lon="-0.7972200">
        <ele>347.0</ele>
        <time>2018-09-16T09:24:20Z</time>
      </trkpt>
      <trkpt lat="39.2897180" lon="-0.7971170">
        <ele>347.0</ele>
        <time>2018-09-16T09:24:21Z</time>
      </trkpt>
      <trkpt lat="39.2897180" lon="-0.7971170">
        <ele>347.0</ele>
        <time>2018-09-16T09:24:22Z</time>
      </trkpt>
      <trkpt lat="39.2897330" lon="-0.7970170">
        <ele>347.0</ele>
        <time>2018-09-16T09:24:23Z</time>
      </trkpt>
      <trkpt lat="39.2897470" lon="-0.7969670">
        <ele>347.0</ele>
        <time>2018-09-16T09:24:24Z</time>
      </trkpt>
      <trkpt lat="39.2897470" lon="-0.7969670">
        <ele>347.0</ele>
        <time>2018-09-16T09:24:25Z</time>
      </trkpt>
      <trkpt lat="39.2897450" lon="-0.7968620">
        <ele>347.0</ele>
        <time>2018-09-16T09:24:26Z</time>
      </trkpt>
      <trkpt lat="39.2897570" lon="-0.7968120">
        <ele>347.0</ele>
        <time>2018-09-16T09:24:27Z</time>
      </trkpt>
      <trkpt lat="39.2897570" lon="-0.7968120">
        <ele>347.0</ele>
        <time>2018-09-16T09:24:28Z</time>
      </trkpt>
      <trkpt lat="39.2897520" lon="-0.7967150">
        <ele>348.0</ele>
        <time>2018-09-16T09:24:29Z</time>
      </trkpt>
      <trkpt lat="39.2897430" lon="-0.7966680">
        <ele>348.0</ele>
        <time>2018-09-16T09:24:30Z</time>
      </trkpt>
      <trkpt lat="39.2897230" lon="-0.7966180">
        <ele>348.0</ele>
        <time>2018-09-16T09:24:31Z</time>
      </trkpt>
      <trkpt lat="39.2897230" lon="-0.7966180">
        <ele>348.0</ele>
        <time>2018-09-16T09:24:32Z</time>
      </trkpt>
      <trkpt lat="39.2897150" lon="-0.7965080">
        <ele>348.0</ele>
        <time>2018-09-16T09:24:33Z</time>
      </trkpt>
      <trkpt lat="39.2897150" lon="-0.7965080">
        <ele>348.0</ele>
        <time>2018-09-16T09:24:34Z</time>
      </trkpt>
      <trkpt lat="39.2897300" lon="-0.7964030">
        <ele>348.0</ele>
        <time>2018-09-16T09:24:35Z</time>
      </trkpt>
      <trkpt lat="39.2897300" lon="-0.7964030">
        <ele>348.0</ele>
        <time>2018-09-16T09:24:36Z</time>
      </trkpt>
      <trkpt lat="39.2897520" lon="-0.7962980">
        <ele>348.0</ele>
        <time>2018-09-16T09:24:37Z</time>
      </trkpt>
      <trkpt lat="39.2897520" lon="-0.7962980">
        <ele>348.0</ele>
        <time>2018-09-16T09:24:38Z</time>
      </trkpt>
      <trkpt lat="39.2897650" lon="-0.7961880">
        <ele>348.0</ele>
        <time>2018-09-16T09:24:39Z</time>
      </trkpt>
      <trkpt lat="39.2897650" lon="-0.7961880">
        <ele>348.0</ele>
        <time>2018-09-16T09:24:40Z</time>
      </trkpt>
      <trkpt lat="39.2897650" lon="-0.7960770">
        <ele>348.0</ele>
        <time>2018-09-16T09:24:41Z</time>
      </trkpt>
      <trkpt lat="39.2897650" lon="-0.7960770">
        <ele>348.0</ele>
        <time>2018-09-16T09:24:42Z</time>
      </trkpt>
      <trkpt lat="39.2897500" lon="-0.7959680">
        <ele>348.0</ele>
        <time>2018-09-16T09:24:43Z</time>
      </trkpt>
      <trkpt lat="39.2897500" lon="-0.7959680">
        <ele>348.0</ele>
        <time>2018-09-16T09:24:44Z</time>
      </trkpt>
      <trkpt lat="39.2897270" lon="-0.7958680">
        <ele>348.0</ele>
        <time>2018-09-16T09:24:45Z</time>
      </trkpt>
      <trkpt lat="39.2897270" lon="-0.7958680">
        <ele>348.0</ele>
        <time>2018-09-16T09:24:46Z</time>
      </trkpt>
      <trkpt lat="39.2897020" lon="-0.7957600">
        <ele>348.0</ele>
        <time>2018-09-16T09:24:47Z</time>
      </trkpt>
      <trkpt lat="39.2897020" lon="-0.7957600">
        <ele>348.0</ele>
        <time>2018-09-16T09:24:48Z</time>
      </trkpt>
      <trkpt lat="39.2896870" lon="-0.7956520">
        <ele>348.0</ele>
        <time>2018-09-16T09:24:49Z</time>
      </trkpt>
      <trkpt lat="39.2896870" lon="-0.7956520">
        <ele>348.0</ele>
        <time>2018-09-16T09:24:50Z</time>
      </trkpt>
      <trkpt lat="39.2896630" lon="-0.7955400">
        <ele>348.0</ele>
        <time>2018-09-16T09:24:51Z</time>
      </trkpt>
      <trkpt lat="39.2896630" lon="-0.7955400">
        <ele>348.0</ele>
        <time>2018-09-16T09:24:52Z</time>
      </trkpt>
      <trkpt lat="39.2896420" lon="-0.7954280">
        <ele>348.0</ele>
        <time>2018-09-16T09:24:53Z</time>
      </trkpt>
      <trkpt lat="39.2896420" lon="-0.7954280">
        <ele>349.0</ele>
        <time>2018-09-16T09:24:54Z</time>
      </trkpt>
      <trkpt lat="39.2896400" lon="-0.7953200">
        <ele>349.0</ele>
        <time>2018-09-16T09:24:55Z</time>
      </trkpt>
      <trkpt lat="39.2896400" lon="-0.7953200">
        <ele>349.0</ele>
        <time>2018-09-16T09:24:56Z</time>
      </trkpt>
      <trkpt lat="39.2896520" lon="-0.7952220">
        <ele>350.0</ele>
        <time>2018-09-16T09:24:57Z</time>
      </trkpt>
      <trkpt lat="39.2896520" lon="-0.7952220">
        <ele>350.0</ele>
        <time>2018-09-16T09:24:58Z</time>
      </trkpt>
      <trkpt lat="39.2896750" lon="-0.7951330">
        <ele>350.0</ele>
        <time>2018-09-16T09:24:59Z</time>
      </trkpt>
      <trkpt lat="39.2896750" lon="-0.7951330">
        <ele>350.0</ele>
        <time>2018-09-16T09:25:00Z</time>
      </trkpt>
      <trkpt lat="39.2897130" lon="-0.7950550">
        <ele>351.0</ele>
        <time>2018-09-16T09:25:01Z</time>
      </trkpt>
      <trkpt lat="39.2897130" lon="-0.7950550">
        <ele>351.0</ele>
        <time>2018-09-16T09:25:02Z</time>
      </trkpt>
      <trkpt lat="39.2897580" lon="-0.7949880">
        <ele>351.0</ele>
        <time>2018-09-16T09:25:03Z</time>
      </trkpt>
      <trkpt lat="39.2897580" lon="-0.7949880">
        <ele>351.0</ele>
        <time>2018-09-16T09:25:04Z</time>
      </trkpt>
      <trkpt lat="39.2898270" lon="-0.7949420">
        <ele>352.0</ele>
        <time>2018-09-16T09:25:05Z</time>
      </trkpt>
      <trkpt lat="39.2898270" lon="-0.7949420">
        <ele>352.0</ele>
        <time>2018-09-16T09:25:06Z</time>
      </trkpt>
      <trkpt lat="39.2898970" lon="-0.7949270">
        <ele>352.0</ele>
        <time>2018-09-16T09:25:07Z</time>
      </trkpt>
      <trkpt lat="39.2899300" lon="-0.7949220">
        <ele>352.0</ele>
        <time>2018-09-16T09:25:08Z</time>
      </trkpt>
      <trkpt lat="39.2899300" lon="-0.7949220">
        <ele>352.0</ele>
        <time>2018-09-16T09:25:09Z</time>
      </trkpt>
      <trkpt lat="39.2900050" lon="-0.7949130">
        <ele>352.0</ele>
        <time>2018-09-16T09:25:10Z</time>
      </trkpt>
      <trkpt lat="39.2900450" lon="-0.7949020">
        <ele>352.0</ele>
        <time>2018-09-16T09:25:11Z</time>
      </trkpt>
      <trkpt lat="39.2900450" lon="-0.7949020">
        <ele>352.0</ele>
        <time>2018-09-16T09:25:12Z</time>
      </trkpt>
      <trkpt lat="39.2901250" lon="-0.7948580">
        <ele>352.0</ele>
        <time>2018-09-16T09:25:13Z</time>
      </trkpt>
      <trkpt lat="39.2901250" lon="-0.7948580">
        <ele>352.0</ele>
        <time>2018-09-16T09:25:14Z</time>
      </trkpt>
      <trkpt lat="39.2901700" lon="-0.7947550">
        <ele>352.0</ele>
        <time>2018-09-16T09:25:15Z</time>
      </trkpt>
      <trkpt lat="39.2901700" lon="-0.7947550">
        <ele>352.0</ele>
        <time>2018-09-16T09:25:16Z</time>
      </trkpt>
      <trkpt lat="39.2901470" lon="-0.7946350">
        <ele>352.0</ele>
        <time>2018-09-16T09:25:17Z</time>
      </trkpt>
      <trkpt lat="39.2901470" lon="-0.7946350">
        <ele>352.0</ele>
        <time>2018-09-16T09:25:18Z</time>
      </trkpt>
      <trkpt lat="39.2900770" lon="-0.7945500">
        <ele>352.0</ele>
        <time>2018-09-16T09:25:19Z</time>
      </trkpt>
      <trkpt lat="39.2900770" lon="-0.7945500">
        <ele>352.0</ele>
        <time>2018-09-16T09:25:20Z</time>
      </trkpt>
      <trkpt lat="39.2899920" lon="-0.7944830">
        <ele>352.0</ele>
        <time>2018-09-16T09:25:21Z</time>
      </trkpt>
      <trkpt lat="39.2899920" lon="-0.7944830">
        <ele>352.0</ele>
        <time>2018-09-16T09:25:22Z</time>
      </trkpt>
      <trkpt lat="39.2899020" lon="-0.7944200">
        <ele>352.0</ele>
        <time>2018-09-16T09:25:23Z</time>
      </trkpt>
      <trkpt lat="39.2899020" lon="-0.7944200">
        <ele>352.0</ele>
        <time>2018-09-16T09:25:24Z</time>
      </trkpt>
      <trkpt lat="39.2898120" lon="-0.7943520">
        <ele>352.0</ele>
        <time>2018-09-16T09:25:25Z</time>
      </trkpt>
      <trkpt lat="39.2898120" lon="-0.7943520">
        <ele>352.0</ele>
        <time>2018-09-16T09:25:26Z</time>
      </trkpt>
      <trkpt lat="39.2897280" lon="-0.7942830">
        <ele>352.0</ele>
        <time>2018-09-16T09:25:27Z</time>
      </trkpt>
      <trkpt lat="39.2896870" lon="-0.7942500">
        <ele>352.0</ele>
        <time>2018-09-16T09:25:28Z</time>
      </trkpt>
      <trkpt lat="39.2896470" lon="-0.7942170">
        <ele>352.0</ele>
        <time>2018-09-16T09:25:29Z</time>
      </trkpt>
      <trkpt lat="39.2896470" lon="-0.7942170">
        <ele>352.0</ele>
        <time>2018-09-16T09:25:30Z</time>
      </trkpt>
      <trkpt lat="39.2895780" lon="-0.7941480">
        <ele>352.0</ele>
        <time>2018-09-16T09:25:31Z</time>
      </trkpt>
      <trkpt lat="39.2895780" lon="-0.7941480">
        <ele>352.0</ele>
        <time>2018-09-16T09:25:32Z</time>
      </trkpt>
      <trkpt lat="39.2895180" lon="-0.7940780">
        <ele>352.0</ele>
        <time>2018-09-16T09:25:33Z</time>
      </trkpt>
      <trkpt lat="39.2895180" lon="-0.7940780">
        <ele>352.0</ele>
        <time>2018-09-16T09:25:34Z</time>
      </trkpt>
      <trkpt lat="39.2894580" lon="-0.7940080">
        <ele>352.0</ele>
        <time>2018-09-16T09:25:35Z</time>
      </trkpt>
      <trkpt lat="39.2894280" lon="-0.7939700">
        <ele>352.0</ele>
        <time>2018-09-16T09:25:36Z</time>
      </trkpt>
      <trkpt lat="39.2894000" lon="-0.7939300">
        <ele>352.0</ele>
        <time>2018-09-16T09:25:37Z</time>
      </trkpt>
      <trkpt lat="39.2894000" lon="-0.7939300">
        <ele>352.0</ele>
        <time>2018-09-16T09:25:38Z</time>
      </trkpt>
      <trkpt lat="39.2893430" lon="-0.7938480">
        <ele>352.0</ele>
        <time>2018-09-16T09:25:39Z</time>
      </trkpt>
      <trkpt lat="39.2893430" lon="-0.7938480">
        <ele>353.0</ele>
        <time>2018-09-16T09:25:40Z</time>
      </trkpt>
      <trkpt lat="39.2892950" lon="-0.7937620">
        <ele>353.0</ele>
        <time>2018-09-16T09:25:41Z</time>
      </trkpt>
      <trkpt lat="39.2892950" lon="-0.7937620">
        <ele>353.0</ele>
        <time>2018-09-16T09:25:42Z</time>
      </trkpt>
      <trkpt lat="39.2892500" lon="-0.7936720">
        <ele>353.0</ele>
        <time>2018-09-16T09:25:43Z</time>
      </trkpt>
      <trkpt lat="39.2892500" lon="-0.7936720">
        <ele>353.0</ele>
        <time>2018-09-16T09:25:44Z</time>
      </trkpt>
      <trkpt lat="39.2892130" lon="-0.7935680">
        <ele>353.0</ele>
        <time>2018-09-16T09:25:45Z</time>
      </trkpt>
      <trkpt lat="39.2892130" lon="-0.7935680">
        <ele>353.0</ele>
        <time>2018-09-16T09:25:46Z</time>
      </trkpt>
      <trkpt lat="39.2891830" lon="-0.7934680">
        <ele>353.0</ele>
        <time>2018-09-16T09:25:47Z</time>
      </trkpt>
      <trkpt lat="39.2891830" lon="-0.7934680">
        <ele>353.0</ele>
        <time>2018-09-16T09:25:48Z</time>
      </trkpt>
      <trkpt lat="39.2891580" lon="-0.7933670">
        <ele>353.0</ele>
        <time>2018-09-16T09:25:49Z</time>
      </trkpt>
      <trkpt lat="39.2891500" lon="-0.7933180">
        <ele>353.0</ele>
        <time>2018-09-16T09:25:50Z</time>
      </trkpt>
      <trkpt lat="39.2891500" lon="-0.7933180">
        <ele>353.0</ele>
        <time>2018-09-16T09:25:51Z</time>
      </trkpt>
      <trkpt lat="39.2891530" lon="-0.7932270">
        <ele>353.0</ele>
        <time>2018-09-16T09:25:52Z</time>
      </trkpt>
      <trkpt lat="39.2891530" lon="-0.7932270">
        <ele>353.0</ele>
        <time>2018-09-16T09:25:53Z</time>
      </trkpt>
      <trkpt lat="39.2891620" lon="-0.7931270">
        <ele>353.0</ele>
        <time>2018-09-16T09:25:54Z</time>
      </trkpt>
      <trkpt lat="39.2891620" lon="-0.7931270">
        <ele>353.0</ele>
        <time>2018-09-16T09:25:55Z</time>
      </trkpt>
      <trkpt lat="39.2891720" lon="-0.7930250">
        <ele>353.0</ele>
        <time>2018-09-16T09:25:56Z</time>
      </trkpt>
      <trkpt lat="39.2891720" lon="-0.7930250">
        <ele>353.0</ele>
        <time>2018-09-16T09:25:57Z</time>
      </trkpt>
      <trkpt lat="39.2891850" lon="-0.7929220">
        <ele>353.0</ele>
        <time>2018-09-16T09:25:58Z</time>
      </trkpt>
      <trkpt lat="39.2891970" lon="-0.7928700">
        <ele>354.0</ele>
        <time>2018-09-16T09:25:59Z</time>
      </trkpt>
      <trkpt lat="39.2891970" lon="-0.7928700">
        <ele>354.0</ele>
        <time>2018-09-16T09:26:00Z</time>
      </trkpt>
      <trkpt lat="39.2892250" lon="-0.7927630">
        <ele>354.0</ele>
        <time>2018-09-16T09:26:01Z</time>
      </trkpt>
      <trkpt lat="39.2892250" lon="-0.7927630">
        <ele>354.0</ele>
        <time>2018-09-16T09:26:02Z</time>
      </trkpt>
      <trkpt lat="39.2892530" lon="-0.7926550">
        <ele>354.0</ele>
        <time>2018-09-16T09:26:03Z</time>
      </trkpt>
      <trkpt lat="39.2892530" lon="-0.7926550">
        <ele>354.0</ele>
        <time>2018-09-16T09:26:04Z</time>
      </trkpt>
      <trkpt lat="39.2892750" lon="-0.7925430">
        <ele>354.0</ele>
        <time>2018-09-16T09:26:05Z</time>
      </trkpt>
      <trkpt lat="39.2892750" lon="-0.7925430">
        <ele>354.0</ele>
        <time>2018-09-16T09:26:06Z</time>
      </trkpt>
      <trkpt lat="39.2892980" lon="-0.7924230">
        <ele>354.0</ele>
        <time>2018-09-16T09:26:07Z</time>
      </trkpt>
      <trkpt lat="39.2892980" lon="-0.7924230">
        <ele>354.0</ele>
        <time>2018-09-16T09:26:08Z</time>
      </trkpt>
      <trkpt lat="39.2893120" lon="-0.7923050">
        <ele>354.0</ele>
        <time>2018-09-16T09:26:09Z</time>
      </trkpt>
      <trkpt lat="39.2893120" lon="-0.7923050">
        <ele>354.0</ele>
        <time>2018-09-16T09:26:10Z</time>
      </trkpt>
      <trkpt lat="39.2893200" lon="-0.7921870">
        <ele>354.0</ele>
        <time>2018-09-16T09:26:11Z</time>
      </trkpt>
      <trkpt lat="39.2893230" lon="-0.7921270">
        <ele>354.0</ele>
        <time>2018-09-16T09:26:12Z</time>
      </trkpt>
      <trkpt lat="39.2893270" lon="-0.7920670">
        <ele>354.0</ele>
        <time>2018-09-16T09:26:13Z</time>
      </trkpt>
      <trkpt lat="39.2893270" lon="-0.7920670">
        <ele>354.0</ele>
        <time>2018-09-16T09:26:14Z</time>
      </trkpt>
      <trkpt lat="39.2893420" lon="-0.7919520">
        <ele>355.0</ele>
        <time>2018-09-16T09:26:15Z</time>
      </trkpt>
      <trkpt lat="39.2893420" lon="-0.7919520">
        <ele>355.0</ele>
        <time>2018-09-16T09:26:16Z</time>
      </trkpt>
      <trkpt lat="39.2893620" lon="-0.7918380">
        <ele>355.0</ele>
        <time>2018-09-16T09:26:17Z</time>
      </trkpt>
      <trkpt lat="39.2893620" lon="-0.7918380">
        <ele>355.0</ele>
        <time>2018-09-16T09:26:18Z</time>
      </trkpt>
      <trkpt lat="39.2893750" lon="-0.7917200">
        <ele>355.0</ele>
        <time>2018-09-16T09:26:19Z</time>
      </trkpt>
      <trkpt lat="39.2893750" lon="-0.7917200">
        <ele>355.0</ele>
        <time>2018-09-16T09:26:20Z</time>
      </trkpt>
      <trkpt lat="39.2893980" lon="-0.7916020">
        <ele>355.0</ele>
        <time>2018-09-16T09:26:21Z</time>
      </trkpt>
      <trkpt lat="39.2894070" lon="-0.7915420">
        <ele>355.0</ele>
        <time>2018-09-16T09:26:22Z</time>
      </trkpt>
      <trkpt lat="39.2894070" lon="-0.7915420">
        <ele>355.0</ele>
        <time>2018-09-16T09:26:23Z</time>
      </trkpt>
      <trkpt lat="39.2894180" lon="-0.7914250">
        <ele>355.0</ele>
        <time>2018-09-16T09:26:24Z</time>
      </trkpt>
      <trkpt lat="39.2894180" lon="-0.7914250">
        <ele>355.0</ele>
        <time>2018-09-16T09:26:25Z</time>
      </trkpt>
      <trkpt lat="39.2894270" lon="-0.7913120">
        <ele>355.0</ele>
        <time>2018-09-16T09:26:26Z</time>
      </trkpt>
      <trkpt lat="39.2894270" lon="-0.7913120">
        <ele>355.0</ele>
        <time>2018-09-16T09:26:27Z</time>
      </trkpt>
      <trkpt lat="39.2894370" lon="-0.7912000">
        <ele>356.0</ele>
        <time>2018-09-16T09:26:28Z</time>
      </trkpt>
      <trkpt lat="39.2894370" lon="-0.7912000">
        <ele>356.0</ele>
        <time>2018-09-16T09:26:29Z</time>
      </trkpt>
      <trkpt lat="39.2894430" lon="-0.7910870">
        <ele>356.0</ele>
        <time>2018-09-16T09:26:30Z</time>
      </trkpt>
      <trkpt lat="39.2894500" lon="-0.7910320">
        <ele>356.0</ele>
        <time>2018-09-16T09:26:31Z</time>
      </trkpt>
      <trkpt lat="39.2894580" lon="-0.7909770">
        <ele>356.0</ele>
        <time>2018-09-16T09:26:32Z</time>
      </trkpt>
      <trkpt lat="39.2894720" lon="-0.7909230">
        <ele>356.0</ele>
        <time>2018-09-16T09:26:33Z</time>
      </trkpt>
      <trkpt lat="39.2894720" lon="-0.7909230">
        <ele>356.0</ele>
        <time>2018-09-16T09:26:34Z</time>
      </trkpt>
      <trkpt lat="39.2895000" lon="-0.7908220">
        <ele>356.0</ele>
        <time>2018-09-16T09:26:35Z</time>
      </trkpt>
      <trkpt lat="39.2895000" lon="-0.7908220">
        <ele>356.0</ele>
        <time>2018-09-16T09:26:36Z</time>
      </trkpt>
      <trkpt lat="39.2895380" lon="-0.7907380">
        <ele>356.0</ele>
        <time>2018-09-16T09:26:37Z</time>
      </trkpt>
      <trkpt lat="39.2895380" lon="-0.7907380">
        <ele>357.0</ele>
        <time>2018-09-16T09:26:38Z</time>
      </trkpt>
      <trkpt lat="39.2895770" lon="-0.7906600">
        <ele>357.0</ele>
        <time>2018-09-16T09:26:39Z</time>
      </trkpt>
      <trkpt lat="39.2895770" lon="-0.7906600">
        <ele>357.0</ele>
        <time>2018-09-16T09:26:40Z</time>
      </trkpt>
      <trkpt lat="39.2896050" lon="-0.7905800">
        <ele>357.0</ele>
        <time>2018-09-16T09:26:41Z</time>
      </trkpt>
      <trkpt lat="39.2896200" lon="-0.7905420">
        <ele>357.0</ele>
        <time>2018-09-16T09:26:42Z</time>
      </trkpt>
      <trkpt lat="39.2896200" lon="-0.7905420">
        <ele>357.0</ele>
        <time>2018-09-16T09:26:43Z</time>
      </trkpt>
      <trkpt lat="39.2896480" lon="-0.7904700">
        <ele>357.0</ele>
        <time>2018-09-16T09:26:44Z</time>
      </trkpt>
      <trkpt lat="39.2896600" lon="-0.7904370">
        <ele>357.0</ele>
        <time>2018-09-16T09:26:45Z</time>
      </trkpt>
      <trkpt lat="39.2896600" lon="-0.7904370">
        <ele>357.0</ele>
        <time>2018-09-16T09:26:46Z</time>
      </trkpt>
      <trkpt lat="39.2896800" lon="-0.7903670">
        <ele>358.0</ele>
        <time>2018-09-16T09:26:47Z</time>
      </trkpt>
      <trkpt lat="39.2896800" lon="-0.7903670">
        <ele>358.0</ele>
        <time>2018-09-16T09:26:48Z</time>
      </trkpt>
      <trkpt lat="39.2897080" lon="-0.7903030">
        <ele>358.0</ele>
        <time>2018-09-16T09:26:49Z</time>
      </trkpt>
      <trkpt lat="39.2897080" lon="-0.7903030">
        <ele>358.0</ele>
        <time>2018-09-16T09:26:50Z</time>
      </trkpt>
      <trkpt lat="39.2897320" lon="-0.7902430">
        <ele>358.0</ele>
        <time>2018-09-16T09:26:51Z</time>
      </trkpt>
      <trkpt lat="39.2897420" lon="-0.7902100">
        <ele>358.0</ele>
        <time>2018-09-16T09:26:52Z</time>
      </trkpt>
      <trkpt lat="39.2897420" lon="-0.7902100">
        <ele>359.0</ele>
        <time>2018-09-16T09:26:53Z</time>
      </trkpt>
      <trkpt lat="39.2897570" lon="-0.7901350">
        <ele>359.0</ele>
        <time>2018-09-16T09:26:54Z</time>
      </trkpt>
      <trkpt lat="39.2897620" lon="-0.7900980">
        <ele>359.0</ele>
        <time>2018-09-16T09:26:55Z</time>
      </trkpt>
      <trkpt lat="39.2897620" lon="-0.7900980">
        <ele>359.0</ele>
        <time>2018-09-16T09:26:56Z</time>
      </trkpt>
      <trkpt lat="39.2897780" lon="-0.7900270">
        <ele>360.0</ele>
        <time>2018-09-16T09:26:57Z</time>
      </trkpt>
      <trkpt lat="39.2897780" lon="-0.7900270">
        <ele>360.0</ele>
        <time>2018-09-16T09:26:58Z</time>
      </trkpt>
      <trkpt lat="39.2897930" lon="-0.7899570">
        <ele>360.0</ele>
        <time>2018-09-16T09:26:59Z</time>
      </trkpt>
      <trkpt lat="39.2897930" lon="-0.7899570">
        <ele>360.0</ele>
        <time>2018-09-16T09:27:00Z</time>
      </trkpt>
      <trkpt lat="39.2898080" lon="-0.7898850">
        <ele>360.0</ele>
        <time>2018-09-16T09:27:01Z</time>
      </trkpt>
      <trkpt lat="39.2898080" lon="-0.7898850">
        <ele>360.0</ele>
        <time>2018-09-16T09:27:02Z</time>
      </trkpt>
      <trkpt lat="39.2898250" lon="-0.7898130">
        <ele>361.0</ele>
        <time>2018-09-16T09:27:03Z</time>
      </trkpt>
      <trkpt lat="39.2898250" lon="-0.7898130">
        <ele>361.0</ele>
        <time>2018-09-16T09:27:04Z</time>
      </trkpt>
      <trkpt lat="39.2898430" lon="-0.7897470">
        <ele>361.0</ele>
        <time>2018-09-16T09:27:05Z</time>
      </trkpt>
      <trkpt lat="39.2898430" lon="-0.7897470">
        <ele>361.0</ele>
        <time>2018-09-16T09:27:06Z</time>
      </trkpt>
      <trkpt lat="39.2898630" lon="-0.7896800">
        <ele>361.0</ele>
        <time>2018-09-16T09:27:07Z</time>
      </trkpt>
      <trkpt lat="39.2898630" lon="-0.7896800">
        <ele>361.0</ele>
        <time>2018-09-16T09:27:08Z</time>
      </trkpt>
      <trkpt lat="39.2898830" lon="-0.7896100">
        <ele>362.0</ele>
        <time>2018-09-16T09:27:09Z</time>
      </trkpt>
      <trkpt lat="39.2898830" lon="-0.7896100">
        <ele>362.0</ele>
        <time>2018-09-16T09:27:10Z</time>
      </trkpt>
      <trkpt lat="39.2898970" lon="-0.7895380">
        <ele>362.0</ele>
        <time>2018-09-16T09:27:11Z</time>
      </trkpt>
      <trkpt lat="39.2898970" lon="-0.7895380">
        <ele>362.0</ele>
        <time>2018-09-16T09:27:12Z</time>
      </trkpt>
      <trkpt lat="39.2899130" lon="-0.7894680">
        <ele>362.0</ele>
        <time>2018-09-16T09:27:13Z</time>
      </trkpt>
      <trkpt lat="39.2899130" lon="-0.7894680">
        <ele>362.0</ele>
        <time>2018-09-16T09:27:14Z</time>
      </trkpt>
      <trkpt lat="39.2899270" lon="-0.7893920">
        <ele>362.0</ele>
        <time>2018-09-16T09:27:15Z</time>
      </trkpt>
      <trkpt lat="39.2899270" lon="-0.7893920">
        <ele>363.0</ele>
        <time>2018-09-16T09:27:16Z</time>
      </trkpt>
      <trkpt lat="39.2899300" lon="-0.7893070">
        <ele>363.0</ele>
        <time>2018-09-16T09:27:17Z</time>
      </trkpt>
      <trkpt lat="39.2899300" lon="-0.7892650">
        <ele>363.0</ele>
        <time>2018-09-16T09:27:18Z</time>
      </trkpt>
      <trkpt lat="39.2899320" lon="-0.7892230">
        <ele>363.0</ele>
        <time>2018-09-16T09:27:19Z</time>
      </trkpt>
      <trkpt lat="39.2899320" lon="-0.7892230">
        <ele>363.0</ele>
        <time>2018-09-16T09:27:20Z</time>
      </trkpt>
      <trkpt lat="39.2899230" lon="-0.7891370">
        <ele>363.0</ele>
        <time>2018-09-16T09:27:21Z</time>
      </trkpt>
      <trkpt lat="39.2899180" lon="-0.7890950">
        <ele>364.0</ele>
        <time>2018-09-16T09:27:22Z</time>
      </trkpt>
      <trkpt lat="39.2899180" lon="-0.7890950">
        <ele>364.0</ele>
        <time>2018-09-16T09:27:23Z</time>
      </trkpt>
      <trkpt lat="39.2899070" lon="-0.7890100">
        <ele>364.0</ele>
        <time>2018-09-16T09:27:24Z</time>
      </trkpt>
      <trkpt lat="39.2898950" lon="-0.7889700">
        <ele>364.0</ele>
        <time>2018-09-16T09:27:25Z</time>
      </trkpt>
      <trkpt lat="39.2898950" lon="-0.7889700">
        <ele>364.0</ele>
        <time>2018-09-16T09:27:26Z</time>
      </trkpt>
      <trkpt lat="39.2898700" lon="-0.7888930">
        <ele>364.0</ele>
        <time>2018-09-16T09:27:27Z</time>
      </trkpt>
      <trkpt lat="39.2898580" lon="-0.7888550">
        <ele>364.0</ele>
        <time>2018-09-16T09:27:28Z</time>
      </trkpt>
      <trkpt lat="39.2898580" lon="-0.7888550">
        <ele>365.0</ele>
        <time>2018-09-16T09:27:29Z</time>
      </trkpt>
      <trkpt lat="39.2898350" lon="-0.7887750">
        <ele>365.0</ele>
        <time>2018-09-16T09:27:30Z</time>
      </trkpt>
      <trkpt lat="39.2898220" lon="-0.7887370">
        <ele>365.0</ele>
        <time>2018-09-16T09:27:31Z</time>
      </trkpt>
      <trkpt lat="39.2898220" lon="-0.7887370">
        <ele>365.0</ele>
        <time>2018-09-16T09:27:32Z</time>
      </trkpt>
      <trkpt lat="39.2897950" lon="-0.7886550">
        <ele>365.0</ele>
        <time>2018-09-16T09:27:33Z</time>
      </trkpt>
      <trkpt lat="39.2897780" lon="-0.7886170">
        <ele>365.0</ele>
        <time>2018-09-16T09:27:34Z</time>
      </trkpt>
      <trkpt lat="39.2897780" lon="-0.7886170">
        <ele>365.0</ele>
        <time>2018-09-16T09:27:35Z</time>
      </trkpt>
      <trkpt lat="39.2897500" lon="-0.7885380">
        <ele>365.0</ele>
        <time>2018-09-16T09:27:36Z</time>
      </trkpt>
      <trkpt lat="39.2897380" lon="-0.7885000">
        <ele>365.0</ele>
        <time>2018-09-16T09:27:37Z</time>
      </trkpt>
      <trkpt lat="39.2897380" lon="-0.7885000">
        <ele>365.0</ele>
        <time>2018-09-16T09:27:38Z</time>
      </trkpt>
      <trkpt lat="39.2897130" lon="-0.7884180">
        <ele>365.0</ele>
        <time>2018-09-16T09:27:39Z</time>
      </trkpt>
      <trkpt lat="39.2897130" lon="-0.7884180">
        <ele>365.0</ele>
        <time>2018-09-16T09:27:40Z</time>
      </trkpt>
      <trkpt lat="39.2896930" lon="-0.7883450">
        <ele>365.0</ele>
        <time>2018-09-16T09:27:41Z</time>
      </trkpt>
      <trkpt lat="39.2896930" lon="-0.7883450">
        <ele>366.0</ele>
        <time>2018-09-16T09:27:42Z</time>
      </trkpt>
      <trkpt lat="39.2896720" lon="-0.7882720">
        <ele>366.0</ele>
        <time>2018-09-16T09:27:43Z</time>
      </trkpt>
      <trkpt lat="39.2896720" lon="-0.7882720">
        <ele>366.0</ele>
        <time>2018-09-16T09:27:44Z</time>
      </trkpt>
      <trkpt lat="39.2896430" lon="-0.7881970">
        <ele>366.0</ele>
        <time>2018-09-16T09:27:45Z</time>
      </trkpt>
      <trkpt lat="39.2896430" lon="-0.7881970">
        <ele>366.0</ele>
        <time>2018-09-16T09:27:46Z</time>
      </trkpt>
      <trkpt lat="39.2896130" lon="-0.7881120">
        <ele>366.0</ele>
        <time>2018-09-16T09:27:47Z</time>
      </trkpt>
      <trkpt lat="39.2896130" lon="-0.7881120">
        <ele>367.0</ele>
        <time>2018-09-16T09:27:48Z</time>
      </trkpt>
      <trkpt lat="39.2895850" lon="-0.7880420">
        <ele>367.0</ele>
        <time>2018-09-16T09:27:49Z</time>
      </trkpt>
      <trkpt lat="39.2895850" lon="-0.7880420">
        <ele>367.0</ele>
        <time>2018-09-16T09:27:50Z</time>
      </trkpt>
      <trkpt lat="39.2895600" lon="-0.7879750">
        <ele>367.0</ele>
        <time>2018-09-16T09:27:51Z</time>
      </trkpt>
      <trkpt lat="39.2895600" lon="-0.7879750">
        <ele>367.0</ele>
        <time>2018-09-16T09:27:52Z</time>
      </trkpt>
      <trkpt lat="39.2895380" lon="-0.7879100">
        <ele>367.0</ele>
        <time>2018-09-16T09:27:53Z</time>
      </trkpt>
      <trkpt lat="39.2895280" lon="-0.7878780">
        <ele>368.0</ele>
        <time>2018-09-16T09:27:54Z</time>
      </trkpt>
      <trkpt lat="39.2895170" lon="-0.7878470">
        <ele>368.0</ele>
        <time>2018-09-16T09:27:55Z</time>
      </trkpt>
      <trkpt lat="39.2895170" lon="-0.7878470">
        <ele>368.0</ele>
        <time>2018-09-16T09:27:56Z</time>
      </trkpt>
      <trkpt lat="39.2894980" lon="-0.7877770">
        <ele>368.0</ele>
        <time>2018-09-16T09:27:57Z</time>
      </trkpt>
      <trkpt lat="39.2894900" lon="-0.7877400">
        <ele>368.0</ele>
        <time>2018-09-16T09:27:58Z</time>
      </trkpt>
      <trkpt lat="39.2894900" lon="-0.7877400">
        <ele>368.0</ele>
        <time>2018-09-16T09:27:59Z</time>
      </trkpt>
      <trkpt lat="39.2894750" lon="-0.7876620">
        <ele>369.0</ele>
        <time>2018-09-16T09:28:00Z</time>
      </trkpt>
      <trkpt lat="39.2894680" lon="-0.7876200">
        <ele>369.0</ele>
        <time>2018-09-16T09:28:01Z</time>
      </trkpt>
      <trkpt lat="39.2894680" lon="-0.7876200">
        <ele>369.0</ele>
        <time>2018-09-16T09:28:02Z</time>
      </trkpt>
      <trkpt lat="39.2894570" lon="-0.7875330">
        <ele>369.0</ele>
        <time>2018-09-16T09:28:03Z</time>
      </trkpt>
      <trkpt lat="39.2894520" lon="-0.7874880">
        <ele>369.0</ele>
        <time>2018-09-16T09:28:04Z</time>
      </trkpt>
      <trkpt lat="39.2894520" lon="-0.7874880">
        <ele>369.0</ele>
        <time>2018-09-16T09:28:05Z</time>
      </trkpt>
      <trkpt lat="39.2894380" lon="-0.7873920">
        <ele>369.0</ele>
        <time>2018-09-16T09:28:06Z</time>
      </trkpt>
      <trkpt lat="39.2894330" lon="-0.7873450">
        <ele>369.0</ele>
        <time>2018-09-16T09:28:07Z</time>
      </trkpt>
      <trkpt lat="39.2894330" lon="-0.7873450">
        <ele>369.0</ele>
        <time>2018-09-16T09:28:08Z</time>
      </trkpt>
      <trkpt lat="39.2894270" lon="-0.7872480">
        <ele>369.0</ele>
        <time>2018-09-16T09:28:09Z</time>
      </trkpt>
      <trkpt lat="39.2894270" lon="-0.7872480">
        <ele>369.0</ele>
        <time>2018-09-16T09:28:10Z</time>
      </trkpt>
      <trkpt lat="39.2894150" lon="-0.7871480">
        <ele>369.0</ele>
        <time>2018-09-16T09:28:11Z</time>
      </trkpt>
      <trkpt lat="39.2894150" lon="-0.7871480">
        <ele>369.0</ele>
        <time>2018-09-16T09:28:12Z</time>
      </trkpt>
      <trkpt lat="39.2894080" lon="-0.7870450">
        <ele>369.0</ele>
        <time>2018-09-16T09:28:13Z</time>
      </trkpt>
      <trkpt lat="39.2894080" lon="-0.7870450">
        <ele>369.0</ele>
        <time>2018-09-16T09:28:14Z</time>
      </trkpt>
      <trkpt lat="39.2894120" lon="-0.7869400">
        <ele>369.0</ele>
        <time>2018-09-16T09:28:15Z</time>
      </trkpt>
      <trkpt lat="39.2894120" lon="-0.7869400">
        <ele>369.0</ele>
        <time>2018-09-16T09:28:16Z</time>
      </trkpt>
      <trkpt lat="39.2894200" lon="-0.7868320">
        <ele>369.0</ele>
        <time>2018-09-16T09:28:17Z</time>
      </trkpt>
      <trkpt lat="39.2894200" lon="-0.7868320">
        <ele>369.0</ele>
        <time>2018-09-16T09:28:18Z</time>
      </trkpt>
      <trkpt lat="39.2894200" lon="-0.7867130">
        <ele>369.0</ele>
        <time>2018-09-16T09:28:19Z</time>
      </trkpt>
      <trkpt lat="39.2894200" lon="-0.7867130">
        <ele>369.0</ele>
        <time>2018-09-16T09:28:20Z</time>
      </trkpt>
      <trkpt lat="39.2894000" lon="-0.7865950">
        <ele>369.0</ele>
        <time>2018-09-16T09:28:21Z</time>
      </trkpt>
      <trkpt lat="39.2894000" lon="-0.7865950">
        <ele>369.0</ele>
        <time>2018-09-16T09:28:22Z</time>
      </trkpt>
      <trkpt lat="39.2893770" lon="-0.7864780">
        <ele>370.0</ele>
        <time>2018-09-16T09:28:23Z</time>
      </trkpt>
      <trkpt lat="39.2893770" lon="-0.7864780">
        <ele>370.0</ele>
        <time>2018-09-16T09:28:24Z</time>
      </trkpt>
      <trkpt lat="39.2893480" lon="-0.7863670">
        <ele>370.0</ele>
        <time>2018-09-16T09:28:25Z</time>
      </trkpt>
      <trkpt lat="39.2893320" lon="-0.7863100">
        <ele>370.0</ele>
        <time>2018-09-16T09:28:26Z</time>
      </trkpt>
      <trkpt lat="39.2893320" lon="-0.7863100">
        <ele>370.0</ele>
        <time>2018-09-16T09:28:27Z</time>
      </trkpt>
      <trkpt lat="39.2893030" lon="-0.7861950">
        <ele>370.0</ele>
        <time>2018-09-16T09:28:28Z</time>
      </trkpt>
      <trkpt lat="39.2892950" lon="-0.7861370">
        <ele>370.0</ele>
        <time>2018-09-16T09:28:29Z</time>
      </trkpt>
      <trkpt lat="39.2892950" lon="-0.7861370">
        <ele>370.0</ele>
        <time>2018-09-16T09:28:30Z</time>
      </trkpt>
      <trkpt lat="39.2892730" lon="-0.7860130">
        <ele>370.0</ele>
        <time>2018-09-16T09:28:31Z</time>
      </trkpt>
      <trkpt lat="39.2892730" lon="-0.7860130">
        <ele>370.0</ele>
        <time>2018-09-16T09:28:32Z</time>
      </trkpt>
      <trkpt lat="39.2892400" lon="-0.7858900">
        <ele>370.0</ele>
        <time>2018-09-16T09:28:33Z</time>
      </trkpt>
      <trkpt lat="39.2892400" lon="-0.7858900">
        <ele>370.0</ele>
        <time>2018-09-16T09:28:34Z</time>
      </trkpt>
      <trkpt lat="39.2891970" lon="-0.7857720">
        <ele>370.0</ele>
        <time>2018-09-16T09:28:35Z</time>
      </trkpt>
      <trkpt lat="39.2891970" lon="-0.7857720">
        <ele>370.0</ele>
        <time>2018-09-16T09:28:36Z</time>
      </trkpt>
      <trkpt lat="39.2891570" lon="-0.7856470">
        <ele>370.0</ele>
        <time>2018-09-16T09:28:37Z</time>
      </trkpt>
      <trkpt lat="39.2891570" lon="-0.7856470">
        <ele>370.0</ele>
        <time>2018-09-16T09:28:38Z</time>
      </trkpt>
      <trkpt lat="39.2891300" lon="-0.7855120">
        <ele>370.0</ele>
        <time>2018-09-16T09:28:39Z</time>
      </trkpt>
      <trkpt lat="39.2891300" lon="-0.7855120">
        <ele>370.0</ele>
        <time>2018-09-16T09:28:40Z</time>
      </trkpt>
      <trkpt lat="39.2891120" lon="-0.7853700">
        <ele>370.0</ele>
        <time>2018-09-16T09:28:41Z</time>
      </trkpt>
      <trkpt lat="39.2891120" lon="-0.7853700">
        <ele>370.0</ele>
        <time>2018-09-16T09:28:42Z</time>
      </trkpt>
      <trkpt lat="39.2891000" lon="-0.7852280">
        <ele>369.0</ele>
        <time>2018-09-16T09:28:43Z</time>
      </trkpt>
      <trkpt lat="39.2891000" lon="-0.7852280">
        <ele>369.0</ele>
        <time>2018-09-16T09:28:44Z</time>
      </trkpt>
      <trkpt lat="39.2891020" lon="-0.7850800">
        <ele>369.0</ele>
        <time>2018-09-16T09:28:45Z</time>
      </trkpt>
      <trkpt lat="39.2891020" lon="-0.7850800">
        <ele>369.0</ele>
        <time>2018-09-16T09:28:46Z</time>
      </trkpt>
      <trkpt lat="39.2891080" lon="-0.7849270">
        <ele>369.0</ele>
        <time>2018-09-16T09:28:47Z</time>
      </trkpt>
      <trkpt lat="39.2891120" lon="-0.7848500">
        <ele>369.0</ele>
        <time>2018-09-16T09:28:48Z</time>
      </trkpt>
      <trkpt lat="39.2891130" lon="-0.7847730">
        <ele>369.0</ele>
        <time>2018-09-16T09:28:49Z</time>
      </trkpt>
      <trkpt lat="39.2891130" lon="-0.7847730">
        <ele>369.0</ele>
        <time>2018-09-16T09:28:50Z</time>
      </trkpt>
      <trkpt lat="39.2891120" lon="-0.7846150">
        <ele>369.0</ele>
        <time>2018-09-16T09:28:51Z</time>
      </trkpt>
      <trkpt lat="39.2891120" lon="-0.7846150">
        <ele>369.0</ele>
        <time>2018-09-16T09:28:52Z</time>
      </trkpt>
      <trkpt lat="39.2890920" lon="-0.7844570">
        <ele>369.0</ele>
        <time>2018-09-16T09:28:53Z</time>
      </trkpt>
      <trkpt lat="39.2890780" lon="-0.7843750">
        <ele>369.0</ele>
        <time>2018-09-16T09:28:54Z</time>
      </trkpt>
      <trkpt lat="39.2890670" lon="-0.7842920">
        <ele>369.0</ele>
        <time>2018-09-16T09:28:55Z</time>
      </trkpt>
      <trkpt lat="39.2890670" lon="-0.7842920">
        <ele>369.0</ele>
        <time>2018-09-16T09:28:56Z</time>
      </trkpt>
      <trkpt lat="39.2890570" lon="-0.7841420">
        <ele>369.0</ele>
        <time>2018-09-16T09:28:57Z</time>
      </trkpt>
      <trkpt lat="39.2890570" lon="-0.7841420">
        <ele>369.0</ele>
        <time>2018-09-16T09:28:58Z</time>
      </trkpt>
      <trkpt lat="39.2890550" lon="-0.7840220">
        <ele>369.0</ele>
        <time>2018-09-16T09:28:59Z</time>
      </trkpt>
      <trkpt lat="39.2890550" lon="-0.7840220">
        <ele>369.0</ele>
        <time>2018-09-16T09:29:00Z</time>
      </trkpt>
      <trkpt lat="39.2890580" lon="-0.7839270">
        <ele>370.0</ele>
        <time>2018-09-16T09:29:01Z</time>
      </trkpt>
      <trkpt lat="39.2890580" lon="-0.7839270">
        <ele>370.0</ele>
        <time>2018-09-16T09:29:02Z</time>
      </trkpt>
      <trkpt lat="39.2890680" lon="-0.7838450">
        <ele>370.0</ele>
        <time>2018-09-16T09:29:03Z</time>
      </trkpt>
      <trkpt lat="39.2890680" lon="-0.7838450">
        <ele>370.0</ele>
        <time>2018-09-16T09:29:04Z</time>
      </trkpt>
      <trkpt lat="39.2890720" lon="-0.7837700">
        <ele>371.0</ele>
        <time>2018-09-16T09:29:05Z</time>
      </trkpt>
      <trkpt lat="39.2890720" lon="-0.7837700">
        <ele>371.0</ele>
        <time>2018-09-16T09:29:06Z</time>
      </trkpt>
      <trkpt lat="39.2890700" lon="-0.7837020">
        <ele>371.0</ele>
        <time>2018-09-16T09:29:07Z</time>
      </trkpt>
      <trkpt lat="39.2890700" lon="-0.7837020">
        <ele>371.0</ele>
        <time>2018-09-16T09:29:08Z</time>
      </trkpt>
      <trkpt lat="39.2890730" lon="-0.7836300">
        <ele>372.0</ele>
        <time>2018-09-16T09:29:09Z</time>
      </trkpt>
      <trkpt lat="39.2890730" lon="-0.7836300">
        <ele>372.0</ele>
        <time>2018-09-16T09:29:10Z</time>
      </trkpt>
      <trkpt lat="39.2890700" lon="-0.7835620">
        <ele>372.0</ele>
        <time>2018-09-16T09:29:11Z</time>
      </trkpt>
      <trkpt lat="39.2890700" lon="-0.7835620">
        <ele>372.0</ele>
        <time>2018-09-16T09:29:12Z</time>
      </trkpt>
      <trkpt lat="39.2890600" lon="-0.7834930">
        <ele>372.0</ele>
        <time>2018-09-16T09:29:13Z</time>
      </trkpt>
      <trkpt lat="39.2890600" lon="-0.7834930">
        <ele>372.0</ele>
        <time>2018-09-16T09:29:14Z</time>
      </trkpt>
      <trkpt lat="39.2890470" lon="-0.7834300">
        <ele>373.0</ele>
        <time>2018-09-16T09:29:15Z</time>
      </trkpt>
      <trkpt lat="39.2890470" lon="-0.7834300">
        <ele>373.0</ele>
        <time>2018-09-16T09:29:16Z</time>
      </trkpt>
      <trkpt lat="39.2890350" lon="-0.7833680">
        <ele>373.0</ele>
        <time>2018-09-16T09:29:17Z</time>
      </trkpt>
      <trkpt lat="39.2890280" lon="-0.7833380">
        <ele>373.0</ele>
        <time>2018-09-16T09:29:18Z</time>
      </trkpt>
      <trkpt lat="39.2890280" lon="-0.7833380">
        <ele>374.0</ele>
        <time>2018-09-16T09:29:19Z</time>
      </trkpt>
      <trkpt lat="39.2890150" lon="-0.7832780">
        <ele>374.0</ele>
        <time>2018-09-16T09:29:20Z</time>
      </trkpt>
      <trkpt lat="39.2890080" lon="-0.7832480">
        <ele>374.0</ele>
        <time>2018-09-16T09:29:21Z</time>
      </trkpt>
      <trkpt lat="39.2890080" lon="-0.7832480">
        <ele>374.0</ele>
        <time>2018-09-16T09:29:22Z</time>
      </trkpt>
      <trkpt lat="39.2889970" lon="-0.7831880">
        <ele>374.0</ele>
        <time>2018-09-16T09:29:23Z</time>
      </trkpt>
      <trkpt lat="39.2889900" lon="-0.7831580">
        <ele>375.0</ele>
        <time>2018-09-16T09:29:24Z</time>
      </trkpt>
      <trkpt lat="39.2889900" lon="-0.7831580">
        <ele>375.0</ele>
        <time>2018-09-16T09:29:25Z</time>
      </trkpt>
      <trkpt lat="39.2889800" lon="-0.7830950">
        <ele>375.0</ele>
        <time>2018-09-16T09:29:26Z</time>
      </trkpt>
      <trkpt lat="39.2889800" lon="-0.7830950">
        <ele>375.0</ele>
        <time>2018-09-16T09:29:27Z</time>
      </trkpt>
      <trkpt lat="39.2889680" lon="-0.7830350">
        <ele>375.0</ele>
        <time>2018-09-16T09:29:28Z</time>
      </trkpt>
      <trkpt lat="39.2889630" lon="-0.7830050">
        <ele>376.0</ele>
        <time>2018-09-16T09:29:29Z</time>
      </trkpt>
      <trkpt lat="39.2889630" lon="-0.7830050">
        <ele>376.0</ele>
        <time>2018-09-16T09:29:30Z</time>
      </trkpt>
      <trkpt lat="39.2889530" lon="-0.7829450">
        <ele>376.0</ele>
        <time>2018-09-16T09:29:31Z</time>
      </trkpt>
      <trkpt lat="39.2889530" lon="-0.7829450">
        <ele>376.0</ele>
        <time>2018-09-16T09:29:32Z</time>
      </trkpt>
      <trkpt lat="39.2889480" lon="-0.7828820">
        <ele>376.0</ele>
        <time>2018-09-16T09:29:33Z</time>
      </trkpt>
      <trkpt lat="39.2889480" lon="-0.7828820">
        <ele>376.0</ele>
        <time>2018-09-16T09:29:34Z</time>
      </trkpt>
      <trkpt lat="39.2889430" lon="-0.7828200">
        <ele>377.0</ele>
        <time>2018-09-16T09:29:35Z</time>
      </trkpt>
      <trkpt lat="39.2889430" lon="-0.7828200">
        <ele>377.0</ele>
        <time>2018-09-16T09:29:36Z</time>
      </trkpt>
      <trkpt lat="39.2889400" lon="-0.7827570">
        <ele>377.0</ele>
        <time>2018-09-16T09:29:37Z</time>
      </trkpt>
      <trkpt lat="39.2889400" lon="-0.7827570">
        <ele>377.0</ele>
        <time>2018-09-16T09:29:38Z</time>
      </trkpt>
      <trkpt lat="39.2889370" lon="-0.7826970">
        <ele>377.0</ele>
        <time>2018-09-16T09:29:39Z</time>
      </trkpt>
      <trkpt lat="39.2889350" lon="-0.7826670">
        <ele>377.0</ele>
        <time>2018-09-16T09:29:40Z</time>
      </trkpt>
      <trkpt lat="39.2889350" lon="-0.7826670">
        <ele>378.0</ele>
        <time>2018-09-16T09:29:41Z</time>
      </trkpt>
      <trkpt lat="39.2889370" lon="-0.7826080">
        <ele>378.0</ele>
        <time>2018-09-16T09:29:42Z</time>
      </trkpt>
      <trkpt lat="39.2889380" lon="-0.7825780">
        <ele>378.0</ele>
        <time>2018-09-16T09:29:43Z</time>
      </trkpt>
      <trkpt lat="39.2889380" lon="-0.7825780">
        <ele>378.0</ele>
        <time>2018-09-16T09:29:44Z</time>
      </trkpt>
      <trkpt lat="39.2889420" lon="-0.7825200">
        <ele>379.0</ele>
        <time>2018-09-16T09:29:45Z</time>
      </trkpt>
      <trkpt lat="39.2889420" lon="-0.7825200">
        <ele>379.0</ele>
        <time>2018-09-16T09:29:46Z</time>
      </trkpt>
      <trkpt lat="39.2889470" lon="-0.7824600">
        <ele>379.0</ele>
        <time>2018-09-16T09:29:47Z</time>
      </trkpt>
      <trkpt lat="39.2889470" lon="-0.7824600">
        <ele>379.0</ele>
        <time>2018-09-16T09:29:48Z</time>
      </trkpt>
      <trkpt lat="39.2889550" lon="-0.7824020">
        <ele>379.0</ele>
        <time>2018-09-16T09:29:49Z</time>
      </trkpt>
      <trkpt lat="39.2889550" lon="-0.7824020">
        <ele>379.0</ele>
        <time>2018-09-16T09:29:50Z</time>
      </trkpt>
      <trkpt lat="39.2889670" lon="-0.7823420">
        <ele>380.0</ele>
        <time>2018-09-16T09:29:51Z</time>
      </trkpt>
      <trkpt lat="39.2889670" lon="-0.7823420">
        <ele>380.0</ele>
        <time>2018-09-16T09:29:52Z</time>
      </trkpt>
      <trkpt lat="39.2889830" lon="-0.7822820">
        <ele>380.0</ele>
        <time>2018-09-16T09:29:53Z</time>
      </trkpt>
      <trkpt lat="39.2889830" lon="-0.7822820">
        <ele>380.0</ele>
        <time>2018-09-16T09:29:54Z</time>
      </trkpt>
      <trkpt lat="39.2890000" lon="-0.7822220">
        <ele>380.0</ele>
        <time>2018-09-16T09:29:55Z</time>
      </trkpt>
      <trkpt lat="39.2890000" lon="-0.7822220">
        <ele>380.0</ele>
        <time>2018-09-16T09:29:56Z</time>
      </trkpt>
      <trkpt lat="39.2890220" lon="-0.7821600">
        <ele>381.0</ele>
        <time>2018-09-16T09:29:57Z</time>
      </trkpt>
      <trkpt lat="39.2890350" lon="-0.7821300">
        <ele>381.0</ele>
        <time>2018-09-16T09:29:58Z</time>
      </trkpt>
      <trkpt lat="39.2890350" lon="-0.7821300">
        <ele>381.0</ele>
        <time>2018-09-16T09:29:59Z</time>
      </trkpt>
      <trkpt lat="39.2890570" lon="-0.7820680">
        <ele>381.0</ele>
        <time>2018-09-16T09:30:00Z</time>
      </trkpt>
      <trkpt lat="39.2890670" lon="-0.7820380">
        <ele>381.0</ele>
        <time>2018-09-16T09:30:01Z</time>
      </trkpt>
      <trkpt lat="39.2890670" lon="-0.7820380">
        <ele>381.0</ele>
        <time>2018-09-16T09:30:02Z</time>
      </trkpt>
      <trkpt lat="39.2890870" lon="-0.7819780">
        <ele>381.0</ele>
        <time>2018-09-16T09:30:03Z</time>
      </trkpt>
      <trkpt lat="39.2891000" lon="-0.7819480">
        <ele>381.0</ele>
        <time>2018-09-16T09:30:04Z</time>
      </trkpt>
      <trkpt lat="39.2891000" lon="-0.7819480">
        <ele>382.0</ele>
        <time>2018-09-16T09:30:05Z</time>
      </trkpt>
      <trkpt lat="39.2891220" lon="-0.7818930">
        <ele>382.0</ele>
        <time>2018-09-16T09:30:06Z</time>
      </trkpt>
      <trkpt lat="39.2891320" lon="-0.7818630">
        <ele>382.0</ele>
        <time>2018-09-16T09:30:07Z</time>
      </trkpt>
      <trkpt lat="39.2891320" lon="-0.7818630">
        <ele>382.0</ele>
        <time>2018-09-16T09:30:08Z</time>
      </trkpt>
      <trkpt lat="39.2891620" lon="-0.7818050">
        <ele>382.0</ele>
        <time>2018-09-16T09:30:09Z</time>
      </trkpt>
      <trkpt lat="39.2891620" lon="-0.7818050">
        <ele>382.0</ele>
        <time>2018-09-16T09:30:10Z</time>
      </trkpt>
      <trkpt lat="39.2891920" lon="-0.7817620">
        <ele>382.0</ele>
        <time>2018-09-16T09:30:11Z</time>
      </trkpt>
      <trkpt lat="39.2891920" lon="-0.7817620">
        <ele>382.0</ele>
        <time>2018-09-16T09:30:12Z</time>
      </trkpt>
      <trkpt lat="39.2892370" lon="-0.7817280">
        <ele>383.0</ele>
        <time>2018-09-16T09:30:13Z</time>
      </trkpt>
      <trkpt lat="39.2892620" lon="-0.7817170">
        <ele>383.0</ele>
        <time>2018-09-16T09:30:14Z</time>
      </trkpt>
      <trkpt lat="39.2892880" lon="-0.7817070">
        <ele>383.0</ele>
        <time>2018-09-16T09:30:15Z</time>
      </trkpt>
      <trkpt lat="39.2892880" lon="-0.7817070">
        <ele>383.0</ele>
        <time>2018-09-16T09:30:16Z</time>
      </trkpt>
      <trkpt lat="39.2893420" lon="-0.7816950">
        <ele>383.0</ele>
        <time>2018-09-16T09:30:17Z</time>
      </trkpt>
      <trkpt lat="39.2893420" lon="-0.7816950">
        <ele>384.0</ele>
        <time>2018-09-16T09:30:18Z</time>
      </trkpt>
      <trkpt lat="39.2893970" lon="-0.7816870">
        <ele>384.0</ele>
        <time>2018-09-16T09:30:19Z</time>
      </trkpt>
      <trkpt lat="39.2893970" lon="-0.7816870">
        <ele>384.0</ele>
        <time>2018-09-16T09:30:20Z</time>
      </trkpt>
      <trkpt lat="39.2894550" lon="-0.7816750">
        <ele>384.0</ele>
        <time>2018-09-16T09:30:21Z</time>
      </trkpt>
      <trkpt lat="39.2894830" lon="-0.7816680">
        <ele>384.0</ele>
        <time>2018-09-16T09:30:22Z</time>
      </trkpt>
      <trkpt lat="39.2894830" lon="-0.7816680">
        <ele>384.0</ele>
        <time>2018-09-16T09:30:23Z</time>
      </trkpt>
      <trkpt lat="39.2895380" lon="-0.7816470">
        <ele>385.0</ele>
        <time>2018-09-16T09:30:24Z</time>
      </trkpt>
      <trkpt lat="39.2895650" lon="-0.7816320">
        <ele>385.0</ele>
        <time>2018-09-16T09:30:25Z</time>
      </trkpt>
      <trkpt lat="39.2895650" lon="-0.7816320">
        <ele>385.0</ele>
        <time>2018-09-16T09:30:26Z</time>
      </trkpt>
      <trkpt lat="39.2896150" lon="-0.7815880">
        <ele>385.0</ele>
        <time>2018-09-16T09:30:27Z</time>
      </trkpt>
      <trkpt lat="39.2896150" lon="-0.7815880">
        <ele>385.0</ele>
        <time>2018-09-16T09:30:28Z</time>
      </trkpt>
      <trkpt lat="39.2896650" lon="-0.7815370">
        <ele>385.0</ele>
        <time>2018-09-16T09:30:29Z</time>
      </trkpt>
      <trkpt lat="39.2896650" lon="-0.7815370">
        <ele>385.0</ele>
        <time>2018-09-16T09:30:30Z</time>
      </trkpt>
      <trkpt lat="39.2897130" lon="-0.7814820">
        <ele>385.0</ele>
        <time>2018-09-16T09:30:31Z</time>
      </trkpt>
      <trkpt lat="39.2897130" lon="-0.7814820">
        <ele>385.0</ele>
        <time>2018-09-16T09:30:32Z</time>
      </trkpt>
      <trkpt lat="39.2897580" lon="-0.7814150">
        <ele>385.0</ele>
        <time>2018-09-16T09:30:33Z</time>
      </trkpt>
      <trkpt lat="39.2897780" lon="-0.7813720">
        <ele>385.0</ele>
        <time>2018-09-16T09:30:34Z</time>
      </trkpt>
      <trkpt lat="39.2897780" lon="-0.7813720">
        <ele>385.0</ele>
        <time>2018-09-16T09:30:35Z</time>
      </trkpt>
      <trkpt lat="39.2897930" lon="-0.7812750">
        <ele>385.0</ele>
        <time>2018-09-16T09:30:36Z</time>
      </trkpt>
      <trkpt lat="39.2897850" lon="-0.7812250">
        <ele>385.0</ele>
        <time>2018-09-16T09:30:37Z</time>
      </trkpt>
      <trkpt lat="39.2897850" lon="-0.7812250">
        <ele>385.0</ele>
        <time>2018-09-16T09:30:38Z</time>
      </trkpt>
      <trkpt lat="39.2897330" lon="-0.7811520">
        <ele>385.0</ele>
        <time>2018-09-16T09:30:39Z</time>
      </trkpt>
      <trkpt lat="39.2897330" lon="-0.7811520">
        <ele>385.0</ele>
        <time>2018-09-16T09:30:40Z</time>
      </trkpt>
      <trkpt lat="39.2896700" lon="-0.7811070">
        <ele>385.0</ele>
        <time>2018-09-16T09:30:41Z</time>
      </trkpt>
      <trkpt lat="39.2896400" lon="-0.7810900">
        <ele>385.0</ele>
        <time>2018-09-16T09:30:42Z</time>
      </trkpt>
      <trkpt lat="39.2896100" lon="-0.7810750">
        <ele>386.0</ele>
        <time>2018-09-16T09:30:43Z</time>
      </trkpt>
      <trkpt lat="39.2896100" lon="-0.7810750">
        <ele>386.0</ele>
        <time>2018-09-16T09:30:44Z</time>
      </trkpt>
      <trkpt lat="39.2895520" lon="-0.7810380">
        <ele>386.0</ele>
        <time>2018-09-16T09:30:45Z</time>
      </trkpt>
      <trkpt lat="39.2895520" lon="-0.7810380">
        <ele>386.0</ele>
        <time>2018-09-16T09:30:46Z</time>
      </trkpt>
      <trkpt lat="39.2894920" lon="-0.7809900">
        <ele>386.0</ele>
        <time>2018-09-16T09:30:47Z</time>
      </trkpt>
      <trkpt lat="39.2894920" lon="-0.7809900">
        <ele>386.0</ele>
        <time>2018-09-16T09:30:48Z</time>
      </trkpt>
      <trkpt lat="39.2894320" lon="-0.7809370">
        <ele>386.0</ele>
        <time>2018-09-16T09:30:49Z</time>
      </trkpt>
      <trkpt lat="39.2894320" lon="-0.7809370">
        <ele>386.0</ele>
        <time>2018-09-16T09:30:50Z</time>
      </trkpt>
      <trkpt lat="39.2893680" lon="-0.7808830">
        <ele>386.0</ele>
        <time>2018-09-16T09:30:51Z</time>
      </trkpt>
      <trkpt lat="39.2893680" lon="-0.7808830">
        <ele>386.0</ele>
        <time>2018-09-16T09:30:52Z</time>
      </trkpt>
      <trkpt lat="39.2893020" lon="-0.7808230">
        <ele>386.0</ele>
        <time>2018-09-16T09:30:53Z</time>
      </trkpt>
      <trkpt lat="39.2892680" lon="-0.7807930">
        <ele>386.0</ele>
        <time>2018-09-16T09:30:54Z</time>
      </trkpt>
      <trkpt lat="39.2892680" lon="-0.7807930">
        <ele>386.0</ele>
        <time>2018-09-16T09:30:55Z</time>
      </trkpt>
      <trkpt lat="39.2892000" lon="-0.7807280">
        <ele>386.0</ele>
        <time>2018-09-16T09:30:56Z</time>
      </trkpt>
      <trkpt lat="39.2891650" lon="-0.7806950">
        <ele>386.0</ele>
        <time>2018-09-16T09:30:57Z</time>
      </trkpt>
      <trkpt lat="39.2891650" lon="-0.7806950">
        <ele>386.0</ele>
        <time>2018-09-16T09:30:58Z</time>
      </trkpt>
      <trkpt lat="39.2890980" lon="-0.7806250">
        <ele>386.0</ele>
        <time>2018-09-16T09:30:59Z</time>
      </trkpt>
      <trkpt lat="39.2890980" lon="-0.7806250">
        <ele>386.0</ele>
        <time>2018-09-16T09:31:00Z</time>
      </trkpt>
      <trkpt lat="39.2890350" lon="-0.7805520">
        <ele>386.0</ele>
        <time>2018-09-16T09:31:01Z</time>
      </trkpt>
      <trkpt lat="39.2890350" lon="-0.7805520">
        <ele>386.0</ele>
        <time>2018-09-16T09:31:02Z</time>
      </trkpt>
      <trkpt lat="39.2889830" lon="-0.7804650">
        <ele>386.0</ele>
        <time>2018-09-16T09:31:03Z</time>
      </trkpt>
      <trkpt lat="39.2889580" lon="-0.7804180">
        <ele>386.0</ele>
        <time>2018-09-16T09:31:04Z</time>
      </trkpt>
      <trkpt lat="39.2889400" lon="-0.7803670">
        <ele>386.0</ele>
        <time>2018-09-16T09:31:05Z</time>
      </trkpt>
      <trkpt lat="39.2889400" lon="-0.7803670">
        <ele>386.0</ele>
        <time>2018-09-16T09:31:06Z</time>
      </trkpt>
      <trkpt lat="39.2889130" lon="-0.7802650">
        <ele>387.0</ele>
        <time>2018-09-16T09:31:07Z</time>
      </trkpt>
      <trkpt lat="39.2889130" lon="-0.7802650">
        <ele>387.0</ele>
        <time>2018-09-16T09:31:08Z</time>
      </trkpt>
      <trkpt lat="39.2888800" lon="-0.7801580">
        <ele>387.0</ele>
        <time>2018-09-16T09:31:09Z</time>
      </trkpt>
      <trkpt lat="39.2888800" lon="-0.7801580">
        <ele>387.0</ele>
        <time>2018-09-16T09:31:10Z</time>
      </trkpt>
      <trkpt lat="39.2888370" lon="-0.7800600">
        <ele>387.0</ele>
        <time>2018-09-16T09:31:11Z</time>
      </trkpt>
      <trkpt lat="39.2888370" lon="-0.7800600">
        <ele>387.0</ele>
        <time>2018-09-16T09:31:12Z</time>
      </trkpt>
      <trkpt lat="39.2887820" lon="-0.7799650">
        <ele>387.0</ele>
        <time>2018-09-16T09:31:13Z</time>
      </trkpt>
      <trkpt lat="39.2887820" lon="-0.7799650">
        <ele>387.0</ele>
        <time>2018-09-16T09:31:14Z</time>
      </trkpt>
      <trkpt lat="39.2887170" lon="-0.7798770">
        <ele>387.0</ele>
        <time>2018-09-16T09:31:15Z</time>
      </trkpt>
      <trkpt lat="39.2886850" lon="-0.7798370">
        <ele>387.0</ele>
        <time>2018-09-16T09:31:16Z</time>
      </trkpt>
      <trkpt lat="39.2886550" lon="-0.7797980">
        <ele>387.0</ele>
        <time>2018-09-16T09:31:17Z</time>
      </trkpt>
      <trkpt lat="39.2886550" lon="-0.7797980">
        <ele>387.0</ele>
        <time>2018-09-16T09:31:18Z</time>
      </trkpt>
      <trkpt lat="39.2886030" lon="-0.7797150">
        <ele>387.0</ele>
        <time>2018-09-16T09:31:19Z</time>
      </trkpt>
      <trkpt lat="39.2886030" lon="-0.7797150">
        <ele>387.0</ele>
        <time>2018-09-16T09:31:20Z</time>
      </trkpt>
      <trkpt lat="39.2885620" lon="-0.7796220">
        <ele>387.0</ele>
        <time>2018-09-16T09:31:21Z</time>
      </trkpt>
      <trkpt lat="39.2885620" lon="-0.7796220">
        <ele>388.0</ele>
        <time>2018-09-16T09:31:22Z</time>
      </trkpt>
      <trkpt lat="39.2885270" lon="-0.7795250">
        <ele>388.0</ele>
        <time>2018-09-16T09:31:23Z</time>
      </trkpt>
      <trkpt lat="39.2885270" lon="-0.7795250">
        <ele>388.0</ele>
        <time>2018-09-16T09:31:24Z</time>
      </trkpt>
      <trkpt lat="39.2884980" lon="-0.7794250">
        <ele>388.0</ele>
        <time>2018-09-16T09:31:25Z</time>
      </trkpt>
      <trkpt lat="39.2884980" lon="-0.7794250">
        <ele>388.0</ele>
        <time>2018-09-16T09:31:26Z</time>
      </trkpt>
      <trkpt lat="39.2884770" lon="-0.7793200">
        <ele>388.0</ele>
        <time>2018-09-16T09:31:27Z</time>
      </trkpt>
      <trkpt lat="39.2884770" lon="-0.7793200">
        <ele>388.0</ele>
        <time>2018-09-16T09:31:28Z</time>
      </trkpt>
      <trkpt lat="39.2884600" lon="-0.7792120">
        <ele>388.0</ele>
        <time>2018-09-16T09:31:29Z</time>
      </trkpt>
      <trkpt lat="39.2884600" lon="-0.7792120">
        <ele>388.0</ele>
        <time>2018-09-16T09:31:30Z</time>
      </trkpt>
      <trkpt lat="39.2884400" lon="-0.7791050">
        <ele>388.0</ele>
        <time>2018-09-16T09:31:31Z</time>
      </trkpt>
      <trkpt lat="39.2884400" lon="-0.7791050">
        <ele>389.0</ele>
        <time>2018-09-16T09:31:32Z</time>
      </trkpt>
      <trkpt lat="39.2884220" lon="-0.7789980">
        <ele>389.0</ele>
        <time>2018-09-16T09:31:33Z</time>
      </trkpt>
      <trkpt lat="39.2884220" lon="-0.7789980">
        <ele>389.0</ele>
        <time>2018-09-16T09:31:34Z</time>
      </trkpt>
      <trkpt lat="39.2884030" lon="-0.7788900">
        <ele>389.0</ele>
        <time>2018-09-16T09:31:35Z</time>
      </trkpt>
      <trkpt lat="39.2884030" lon="-0.7788900">
        <ele>389.0</ele>
        <time>2018-09-16T09:31:36Z</time>
      </trkpt>
      <trkpt lat="39.2883920" lon="-0.7787850">
        <ele>389.0</ele>
        <time>2018-09-16T09:31:37Z</time>
      </trkpt>
      <trkpt lat="39.2883920" lon="-0.7787850">
        <ele>389.0</ele>
        <time>2018-09-16T09:31:38Z</time>
      </trkpt>
      <trkpt lat="39.2883900" lon="-0.7786830">
        <ele>389.0</ele>
        <time>2018-09-16T09:31:39Z</time>
      </trkpt>
      <trkpt lat="39.2883900" lon="-0.7786830">
        <ele>389.0</ele>
        <time>2018-09-16T09:31:40Z</time>
      </trkpt>
      <trkpt lat="39.2883920" lon="-0.7785770">
        <ele>390.0</ele>
        <time>2018-09-16T09:31:41Z</time>
      </trkpt>
      <trkpt lat="39.2883920" lon="-0.7785770">
        <ele>390.0</ele>
        <time>2018-09-16T09:31:42Z</time>
      </trkpt>
      <trkpt lat="39.2883930" lon="-0.7784730">
        <ele>390.0</ele>
        <time>2018-09-16T09:31:43Z</time>
      </trkpt>
      <trkpt lat="39.2883930" lon="-0.7784730">
        <ele>390.0</ele>
        <time>2018-09-16T09:31:44Z</time>
      </trkpt>
      <trkpt lat="39.2883950" lon="-0.7783820">
        <ele>390.0</ele>
        <time>2018-09-16T09:31:45Z</time>
      </trkpt>
      <trkpt lat="39.2883930" lon="-0.7783370">
        <ele>390.0</ele>
        <time>2018-09-16T09:31:46Z</time>
      </trkpt>
      <trkpt lat="39.2883930" lon="-0.7783370">
        <ele>390.0</ele>
        <time>2018-09-16T09:31:47Z</time>
      </trkpt>
      <trkpt lat="39.2883930" lon="-0.7782570">
        <ele>390.0</ele>
        <time>2018-09-16T09:31:48Z</time>
      </trkpt>
      <trkpt lat="39.2883930" lon="-0.7782570">
        <ele>390.0</ele>
        <time>2018-09-16T09:31:49Z</time>
      </trkpt>
      <trkpt lat="39.2883850" lon="-0.7781830">
        <ele>390.0</ele>
        <time>2018-09-16T09:31:50Z</time>
      </trkpt>
      <trkpt lat="39.2883850" lon="-0.7781830">
        <ele>390.0</ele>
        <time>2018-09-16T09:31:51Z</time>
      </trkpt>
      <trkpt lat="39.2883730" lon="-0.7781130">
        <ele>391.0</ele>
        <time>2018-09-16T09:31:52Z</time>
      </trkpt>
      <trkpt lat="39.2883730" lon="-0.7781130">
        <ele>391.0</ele>
        <time>2018-09-16T09:31:53Z</time>
      </trkpt>
      <trkpt lat="39.2883580" lon="-0.7780450">
        <ele>391.0</ele>
        <time>2018-09-16T09:31:54Z</time>
      </trkpt>
      <trkpt lat="39.2883480" lon="-0.7780120">
        <ele>391.0</ele>
        <time>2018-09-16T09:31:55Z</time>
      </trkpt>
      <trkpt lat="39.2883480" lon="-0.7780120">
        <ele>392.0</ele>
        <time>2018-09-16T09:31:56Z</time>
      </trkpt>
      <trkpt lat="39.2883300" lon="-0.7779450">
        <ele>392.0</ele>
        <time>2018-09-16T09:31:57Z</time>
      </trkpt>
      <trkpt lat="39.2883300" lon="-0.7779450">
        <ele>392.0</ele>
        <time>2018-09-16T09:31:58Z</time>
      </trkpt>
      <trkpt lat="39.2883130" lon="-0.7778770">
        <ele>392.0</ele>
        <time>2018-09-16T09:31:59Z</time>
      </trkpt>
      <trkpt lat="39.2883130" lon="-0.7778770">
        <ele>392.0</ele>
        <time>2018-09-16T09:32:00Z</time>
      </trkpt>
      <trkpt lat="39.2883130" lon="-0.7778100">
        <ele>393.0</ele>
        <time>2018-09-16T09:32:01Z</time>
      </trkpt>
      <trkpt lat="39.2883130" lon="-0.7778100">
        <ele>393.0</ele>
        <time>2018-09-16T09:32:02Z</time>
      </trkpt>
      <trkpt lat="39.2883170" lon="-0.7777400">
        <ele>393.0</ele>
        <time>2018-09-16T09:32:03Z</time>
      </trkpt>
      <trkpt lat="39.2883180" lon="-0.7777070">
        <ele>393.0</ele>
        <time>2018-09-16T09:32:04Z</time>
      </trkpt>
      <trkpt lat="39.2883180" lon="-0.7777070">
        <ele>393.0</ele>
        <time>2018-09-16T09:32:05Z</time>
      </trkpt>
      <trkpt lat="39.2883230" lon="-0.7776450">
        <ele>394.0</ele>
        <time>2018-09-16T09:32:06Z</time>
      </trkpt>
      <trkpt lat="39.2883320" lon="-0.7776150">
        <ele>394.0</ele>
        <time>2018-09-16T09:32:07Z</time>
      </trkpt>
      <trkpt lat="39.2883320" lon="-0.7776150">
        <ele>394.0</ele>
        <time>2018-09-16T09:32:08Z</time>
      </trkpt>
      <trkpt lat="39.2883550" lon="-0.7775570">
        <ele>394.0</ele>
        <time>2018-09-16T09:32:09Z</time>
      </trkpt>
      <trkpt lat="39.2883550" lon="-0.7775570">
        <ele>395.0</ele>
        <time>2018-09-16T09:32:10Z</time>
      </trkpt>
      <trkpt lat="39.2883800" lon="-0.7775070">
        <ele>395.0</ele>
        <time>2018-09-16T09:32:11Z</time>
      </trkpt>
      <trkpt lat="39.2883800" lon="-0.7775070">
        <ele>395.0</ele>
        <time>2018-09-16T09:32:12Z</time>
      </trkpt>
      <trkpt lat="39.2884150" lon="-0.7774530">
        <ele>395.0</ele>
        <time>2018-09-16T09:32:13Z</time>
      </trkpt>
      <trkpt lat="39.2884150" lon="-0.7774530">
        <ele>396.0</ele>
        <time>2018-09-16T09:32:14Z</time>
      </trkpt>
      <trkpt lat="39.2884530" lon="-0.7774030">
        <ele>396.0</ele>
        <time>2018-09-16T09:32:15Z</time>
      </trkpt>
      <trkpt lat="39.2884530" lon="-0.7774030">
        <ele>396.0</ele>
        <time>2018-09-16T09:32:16Z</time>
      </trkpt>
      <trkpt lat="39.2884850" lon="-0.7773600">
        <ele>396.0</ele>
        <time>2018-09-16T09:32:17Z</time>
      </trkpt>
      <trkpt lat="39.2884850" lon="-0.7773600">
        <ele>397.0</ele>
        <time>2018-09-16T09:32:18Z</time>
      </trkpt>
      <trkpt lat="39.2885180" lon="-0.7773100">
        <ele>397.0</ele>
        <time>2018-09-16T09:32:19Z</time>
      </trkpt>
      <trkpt lat="39.2885180" lon="-0.7773100">
        <ele>397.0</ele>
        <time>2018-09-16T09:32:20Z</time>
      </trkpt>
      <trkpt lat="39.2885450" lon="-0.7772550">
        <ele>397.0</ele>
        <time>2018-09-16T09:32:21Z</time>
      </trkpt>
      <trkpt lat="39.2885450" lon="-0.7772550">
        <ele>397.0</ele>
        <time>2018-09-16T09:32:22Z</time>
      </trkpt>
      <trkpt lat="39.2885640" lon="-0.7771890">
        <ele>398.0</ele>
        <time>2018-09-16T09:32:23Z</time>
      </trkpt>
      <trkpt lat="39.2885650" lon="-0.7771710">
        <ele>398.0</ele>
        <time>2018-09-16T09:32:24Z</time>
      </trkpt>
      <trkpt lat="39.2885670" lon="-0.7771530">
        <ele>398.0</ele>
        <time>2018-09-16T09:32:25Z</time>
      </trkpt>
      <trkpt lat="39.2885670" lon="-0.7771530">
        <ele>398.0</ele>
        <time>2018-09-16T09:32:26Z</time>
      </trkpt>
      <trkpt lat="39.2885600" lon="-0.7770980">
        <ele>399.0</ele>
        <time>2018-09-16T09:32:27Z</time>
      </trkpt>
      <trkpt lat="39.2885600" lon="-0.7770980">
        <ele>399.0</ele>
        <time>2018-09-16T09:32:28Z</time>
      </trkpt>
      <trkpt lat="39.2885550" lon="-0.7770400">
        <ele>399.0</ele>
        <time>2018-09-16T09:32:29Z</time>
      </trkpt>
      <trkpt lat="39.2885550" lon="-0.7770400">
        <ele>400.0</ele>
        <time>2018-09-16T09:32:30Z</time>
      </trkpt>
      <trkpt lat="39.2885430" lon="-0.7769800">
        <ele>400.0</ele>
        <time>2018-09-16T09:32:31Z</time>
      </trkpt>
      <trkpt lat="39.2885430" lon="-0.7769800">
        <ele>400.0</ele>
        <time>2018-09-16T09:32:32Z</time>
      </trkpt>
      <trkpt lat="39.2885370" lon="-0.7769230">
        <ele>400.0</ele>
        <time>2018-09-16T09:32:33Z</time>
      </trkpt>
      <trkpt lat="39.2885320" lon="-0.7768980">
        <ele>401.0</ele>
        <time>2018-09-16T09:32:34Z</time>
      </trkpt>
      <trkpt lat="39.2885320" lon="-0.7768980">
        <ele>401.0</ele>
        <time>2018-09-16T09:32:35Z</time>
      </trkpt>
      <trkpt lat="39.2885220" lon="-0.7768420">
        <ele>401.0</ele>
        <time>2018-09-16T09:32:36Z</time>
      </trkpt>
      <trkpt lat="39.2885200" lon="-0.7768120">
        <ele>401.0</ele>
        <time>2018-09-16T09:32:37Z</time>
      </trkpt>
      <trkpt lat="39.2885200" lon="-0.7768120">
        <ele>401.0</ele>
        <time>2018-09-16T09:32:38Z</time>
      </trkpt>
      <trkpt lat="39.2885130" lon="-0.7767520">
        <ele>401.0</ele>
        <time>2018-09-16T09:32:39Z</time>
      </trkpt>
      <trkpt lat="39.2885130" lon="-0.7767520">
        <ele>402.0</ele>
        <time>2018-09-16T09:32:40Z</time>
      </trkpt>
      <trkpt lat="39.2885100" lon="-0.7766930">
        <ele>402.0</ele>
        <time>2018-09-16T09:32:41Z</time>
      </trkpt>
      <trkpt lat="39.2885100" lon="-0.7766930">
        <ele>402.0</ele>
        <time>2018-09-16T09:32:42Z</time>
      </trkpt>
      <trkpt lat="39.2885120" lon="-0.7766370">
        <ele>402.0</ele>
        <time>2018-09-16T09:32:43Z</time>
      </trkpt>
      <trkpt lat="39.2885120" lon="-0.7766370">
        <ele>402.0</ele>
        <time>2018-09-16T09:32:44Z</time>
      </trkpt>
      <trkpt lat="39.2885130" lon="-0.7765820">
        <ele>403.0</ele>
        <time>2018-09-16T09:32:45Z</time>
      </trkpt>
      <trkpt lat="39.2885130" lon="-0.7765820">
        <ele>403.0</ele>
        <time>2018-09-16T09:32:46Z</time>
      </trkpt>
      <trkpt lat="39.2885170" lon="-0.7765280">
        <ele>403.0</ele>
        <time>2018-09-16T09:32:47Z</time>
      </trkpt>
      <trkpt lat="39.2885170" lon="-0.7765280">
        <ele>403.0</ele>
        <time>2018-09-16T09:32:48Z</time>
      </trkpt>
      <trkpt lat="39.2885200" lon="-0.7764720">
        <ele>404.0</ele>
        <time>2018-09-16T09:32:49Z</time>
      </trkpt>
      <trkpt lat="39.2885200" lon="-0.7764720">
        <ele>404.0</ele>
        <time>2018-09-16T09:32:50Z</time>
      </trkpt>
      <trkpt lat="39.2885270" lon="-0.7764100">
        <ele>404.0</ele>
        <time>2018-09-16T09:32:51Z</time>
      </trkpt>
      <trkpt lat="39.2885270" lon="-0.7764100">
        <ele>404.0</ele>
        <time>2018-09-16T09:32:52Z</time>
      </trkpt>
      <trkpt lat="39.2885350" lon="-0.7763550">
        <ele>405.0</ele>
        <time>2018-09-16T09:32:53Z</time>
      </trkpt>
      <trkpt lat="39.2885370" lon="-0.7763180">
        <ele>405.0</ele>
        <time>2018-09-16T09:32:54Z</time>
      </trkpt>
      <trkpt lat="39.2885420" lon="-0.7762900">
        <ele>405.0</ele>
        <time>2018-09-16T09:32:55Z</time>
      </trkpt>
      <trkpt lat="39.2885420" lon="-0.7762900">
        <ele>406.0</ele>
        <time>2018-09-16T09:32:56Z</time>
      </trkpt>
      <trkpt lat="39.2885500" lon="-0.7762320">
        <ele>406.0</ele>
        <time>2018-09-16T09:32:57Z</time>
      </trkpt>
      <trkpt lat="39.2885500" lon="-0.7762320">
        <ele>406.0</ele>
        <time>2018-09-16T09:32:58Z</time>
      </trkpt>
      <trkpt lat="39.2885630" lon="-0.7761720">
        <ele>406.0</ele>
        <time>2018-09-16T09:32:59Z</time>
      </trkpt>
      <trkpt lat="39.2885630" lon="-0.7761720">
        <ele>406.0</ele>
        <time>2018-09-16T09:33:00Z</time>
      </trkpt>
      <trkpt lat="39.2885720" lon="-0.7761120">
        <ele>406.0</ele>
        <time>2018-09-16T09:33:01Z</time>
      </trkpt>
      <trkpt lat="39.2885720" lon="-0.7761120">
        <ele>406.0</ele>
        <time>2018-09-16T09:33:02Z</time>
      </trkpt>
      <trkpt lat="39.2885800" lon="-0.7760500">
        <ele>406.0</ele>
        <time>2018-09-16T09:33:03Z</time>
      </trkpt>
      <trkpt lat="39.2885800" lon="-0.7760500">
        <ele>406.0</ele>
        <time>2018-09-16T09:33:04Z</time>
      </trkpt>
      <trkpt lat="39.2885920" lon="-0.7759850">
        <ele>406.0</ele>
        <time>2018-09-16T09:33:05Z</time>
      </trkpt>
      <trkpt lat="39.2885950" lon="-0.7759550">
        <ele>407.0</ele>
        <time>2018-09-16T09:33:06Z</time>
      </trkpt>
      <trkpt lat="39.2885950" lon="-0.7759250">
        <ele>407.0</ele>
        <time>2018-09-16T09:33:07Z</time>
      </trkpt>
      <trkpt lat="39.2885950" lon="-0.7759250">
        <ele>407.0</ele>
        <time>2018-09-16T09:33:08Z</time>
      </trkpt>
      <trkpt lat="39.2886050" lon="-0.7758680">
        <ele>407.0</ele>
        <time>2018-09-16T09:33:09Z</time>
      </trkpt>
      <trkpt lat="39.2886050" lon="-0.7758680">
        <ele>408.0</ele>
        <time>2018-09-16T09:33:10Z</time>
      </trkpt>
      <trkpt lat="39.2886170" lon="-0.7758120">
        <ele>408.0</ele>
        <time>2018-09-16T09:33:11Z</time>
      </trkpt>
      <trkpt lat="39.2886170" lon="-0.7758120">
        <ele>408.0</ele>
        <time>2018-09-16T09:33:12Z</time>
      </trkpt>
      <trkpt lat="39.2886220" lon="-0.7757520">
        <ele>408.0</ele>
        <time>2018-09-16T09:33:13Z</time>
      </trkpt>
      <trkpt lat="39.2886220" lon="-0.7757520">
        <ele>409.0</ele>
        <time>2018-09-16T09:33:14Z</time>
      </trkpt>
      <trkpt lat="39.2886300" lon="-0.7756950">
        <ele>409.0</ele>
        <time>2018-09-16T09:33:15Z</time>
      </trkpt>
      <trkpt lat="39.2886370" lon="-0.7756670">
        <ele>409.0</ele>
        <time>2018-09-16T09:33:16Z</time>
      </trkpt>
      <trkpt lat="39.2886370" lon="-0.7756670">
        <ele>409.0</ele>
        <time>2018-09-16T09:33:17Z</time>
      </trkpt>
      <trkpt lat="39.2886520" lon="-0.7756120">
        <ele>409.0</ele>
        <time>2018-09-16T09:33:18Z</time>
      </trkpt>
      <trkpt lat="39.2886580" lon="-0.7755850">
        <ele>409.0</ele>
        <time>2018-09-16T09:33:19Z</time>
      </trkpt>
      <trkpt lat="39.2886580" lon="-0.7755850">
        <ele>409.0</ele>
        <time>2018-09-16T09:33:20Z</time>
      </trkpt>
      <trkpt lat="39.2886720" lon="-0.7755320">
        <ele>409.0</ele>
        <time>2018-09-16T09:33:21Z</time>
      </trkpt>
      <trkpt lat="39.2886820" lon="-0.7755080">
        <ele>409.0</ele>
        <time>2018-09-16T09:33:22Z</time>
      </trkpt>
      <trkpt lat="39.2886820" lon="-0.7755080">
        <ele>410.0</ele>
        <time>2018-09-16T09:33:23Z</time>
      </trkpt>
      <trkpt lat="39.2887070" lon="-0.7754570">
        <ele>410.0</ele>
        <time>2018-09-16T09:33:24Z</time>
      </trkpt>
      <trkpt lat="39.2887180" lon="-0.7754320">
        <ele>410.0</ele>
        <time>2018-09-16T09:33:25Z</time>
      </trkpt>
      <trkpt lat="39.2887180" lon="-0.7754320">
        <ele>410.0</ele>
        <time>2018-09-16T09:33:26Z</time>
      </trkpt>
      <trkpt lat="39.2887420" lon="-0.7753870">
        <ele>411.0</ele>
        <time>2018-09-16T09:33:27Z</time>
      </trkpt>
      <trkpt lat="39.2887420" lon="-0.7753870">
        <ele>411.0</ele>
        <time>2018-09-16T09:33:28Z</time>
      </trkpt>
      <trkpt lat="39.2887670" lon="-0.7753380">
        <ele>411.0</ele>
        <time>2018-09-16T09:33:29Z</time>
      </trkpt>
      <trkpt lat="39.2887670" lon="-0.7753380">
        <ele>411.0</ele>
        <time>2018-09-16T09:33:30Z</time>
      </trkpt>
      <trkpt lat="39.2887900" lon="-0.7752880">
        <ele>412.0</ele>
        <time>2018-09-16T09:33:31Z</time>
      </trkpt>
      <trkpt lat="39.2887900" lon="-0.7752880">
        <ele>412.0</ele>
        <time>2018-09-16T09:33:32Z</time>
      </trkpt>
      <trkpt lat="39.2888080" lon="-0.7752370">
        <ele>412.0</ele>
        <time>2018-09-16T09:33:33Z</time>
      </trkpt>
      <trkpt lat="39.2888170" lon="-0.7752100">
        <ele>412.0</ele>
        <time>2018-09-16T09:33:34Z</time>
      </trkpt>
      <trkpt lat="39.2888170" lon="-0.7752100">
        <ele>412.0</ele>
        <time>2018-09-16T09:33:35Z</time>
      </trkpt>
      <trkpt lat="39.2888250" lon="-0.7751500">
        <ele>412.0</ele>
        <time>2018-09-16T09:33:36Z</time>
      </trkpt>
      <trkpt lat="39.2888250" lon="-0.7751500">
        <ele>413.0</ele>
        <time>2018-09-16T09:33:37Z</time>
      </trkpt>
      <trkpt lat="39.2888330" lon="-0.7750920">
        <ele>413.0</ele>
        <time>2018-09-16T09:33:38Z</time>
      </trkpt>
      <trkpt lat="39.2888320" lon="-0.7750620">
        <ele>413.0</ele>
        <time>2018-09-16T09:33:39Z</time>
      </trkpt>
      <trkpt lat="39.2888320" lon="-0.7750620">
        <ele>413.0</ele>
        <time>2018-09-16T09:33:40Z</time>
      </trkpt>
      <trkpt lat="39.2888330" lon="-0.7750030">
        <ele>413.0</ele>
        <time>2018-09-16T09:33:41Z</time>
      </trkpt>
      <trkpt lat="39.2888330" lon="-0.7750030">
        <ele>413.0</ele>
        <time>2018-09-16T09:33:42Z</time>
      </trkpt>
      <trkpt lat="39.2888300" lon="-0.7749430">
        <ele>413.0</ele>
        <time>2018-09-16T09:33:43Z</time>
      </trkpt>
      <trkpt lat="39.2888300" lon="-0.7749430">
        <ele>413.0</ele>
        <time>2018-09-16T09:33:44Z</time>
      </trkpt>
      <trkpt lat="39.2888280" lon="-0.7748870">
        <ele>414.0</ele>
        <time>2018-09-16T09:33:45Z</time>
      </trkpt>
      <trkpt lat="39.2888280" lon="-0.7748870">
        <ele>414.0</ele>
        <time>2018-09-16T09:33:46Z</time>
      </trkpt>
      <trkpt lat="39.2888270" lon="-0.7748330">
        <ele>414.0</ele>
        <time>2018-09-16T09:33:47Z</time>
      </trkpt>
      <trkpt lat="39.2888270" lon="-0.7748330">
        <ele>414.0</ele>
        <time>2018-09-16T09:33:48Z</time>
      </trkpt>
      <trkpt lat="39.2888250" lon="-0.7747820">
        <ele>414.0</ele>
        <time>2018-09-16T09:33:49Z</time>
      </trkpt>
      <trkpt lat="39.2888250" lon="-0.7747820">
        <ele>415.0</ele>
        <time>2018-09-16T09:33:50Z</time>
      </trkpt>
      <trkpt lat="39.2888230" lon="-0.7747220">
        <ele>415.0</ele>
        <time>2018-09-16T09:33:51Z</time>
      </trkpt>
      <trkpt lat="39.2888220" lon="-0.7746870">
        <ele>415.0</ele>
        <time>2018-09-16T09:33:52Z</time>
      </trkpt>
      <trkpt lat="39.2888200" lon="-0.7746530">
        <ele>415.0</ele>
        <time>2018-09-16T09:33:53Z</time>
      </trkpt>
      <trkpt lat="39.2888240" lon="-0.7746130">
        <ele>415.0</ele>
        <time>2018-09-16T09:33:54Z</time>
      </trkpt>
      <trkpt lat="39.2888270" lon="-0.7745720">
        <ele>415.0</ele>
        <time>2018-09-16T09:33:55Z</time>
      </trkpt>
      <trkpt lat="39.2888270" lon="-0.7745720">
        <ele>415.0</ele>
        <time>2018-09-16T09:33:56Z</time>
      </trkpt>
      <trkpt lat="39.2888470" lon="-0.7744800">
        <ele>415.0</ele>
        <time>2018-09-16T09:33:57Z</time>
      </trkpt>
      <trkpt lat="39.2888470" lon="-0.7744800">
        <ele>415.0</ele>
        <time>2018-09-16T09:33:58Z</time>
      </trkpt>
      <trkpt lat="39.2888750" lon="-0.7743850">
        <ele>415.0</ele>
        <time>2018-09-16T09:33:59Z</time>
      </trkpt>
      <trkpt lat="39.2888750" lon="-0.7743850">
        <ele>415.0</ele>
        <time>2018-09-16T09:34:00Z</time>
      </trkpt>
      <trkpt lat="39.2889100" lon="-0.7742880">
        <ele>415.0</ele>
        <time>2018-09-16T09:34:01Z</time>
      </trkpt>
      <trkpt lat="39.2889100" lon="-0.7742880">
        <ele>415.0</ele>
        <time>2018-09-16T09:34:02Z</time>
      </trkpt>
      <trkpt lat="39.2889480" lon="-0.7741900">
        <ele>415.0</ele>
        <time>2018-09-16T09:34:03Z</time>
      </trkpt>
      <trkpt lat="39.2889480" lon="-0.7741900">
        <ele>415.0</ele>
        <time>2018-09-16T09:34:04Z</time>
      </trkpt>
      <trkpt lat="39.2889930" lon="-0.7740980">
        <ele>415.0</ele>
        <time>2018-09-16T09:34:05Z</time>
      </trkpt>
      <trkpt lat="39.2889930" lon="-0.7740980">
        <ele>415.0</ele>
        <time>2018-09-16T09:34:06Z</time>
      </trkpt>
      <trkpt lat="39.2890430" lon="-0.7740120">
        <ele>415.0</ele>
        <time>2018-09-16T09:34:07Z</time>
      </trkpt>
      <trkpt lat="39.2890430" lon="-0.7740120">
        <ele>415.0</ele>
        <time>2018-09-16T09:34:08Z</time>
      </trkpt>
      <trkpt lat="39.2891020" lon="-0.7739300">
        <ele>415.0</ele>
        <time>2018-09-16T09:34:09Z</time>
      </trkpt>
      <trkpt lat="39.2891020" lon="-0.7739300">
        <ele>416.0</ele>
        <time>2018-09-16T09:34:10Z</time>
      </trkpt>
      <trkpt lat="39.2891670" lon="-0.7738530">
        <ele>416.0</ele>
        <time>2018-09-16T09:34:11Z</time>
      </trkpt>
      <trkpt lat="39.2891670" lon="-0.7738530">
        <ele>416.0</ele>
        <time>2018-09-16T09:34:12Z</time>
      </trkpt>
      <trkpt lat="39.2892300" lon="-0.7737720">
        <ele>416.0</ele>
        <time>2018-09-16T09:34:13Z</time>
      </trkpt>
      <trkpt lat="39.2892300" lon="-0.7737720">
        <ele>416.0</ele>
        <time>2018-09-16T09:34:14Z</time>
      </trkpt>
      <trkpt lat="39.2892920" lon="-0.7736870">
        <ele>416.0</ele>
        <time>2018-09-16T09:34:15Z</time>
      </trkpt>
      <trkpt lat="39.2892920" lon="-0.7736870">
        <ele>416.0</ele>
        <time>2018-09-16T09:34:16Z</time>
      </trkpt>
      <trkpt lat="39.2893450" lon="-0.7735920">
        <ele>416.0</ele>
        <time>2018-09-16T09:34:17Z</time>
      </trkpt>
      <trkpt lat="39.2893450" lon="-0.7735920">
        <ele>416.0</ele>
        <time>2018-09-16T09:34:18Z</time>
      </trkpt>
      <trkpt lat="39.2893850" lon="-0.7734920">
        <ele>416.0</ele>
        <time>2018-09-16T09:34:19Z</time>
      </trkpt>
      <trkpt lat="39.2893850" lon="-0.7734920">
        <ele>416.0</ele>
        <time>2018-09-16T09:34:20Z</time>
      </trkpt>
      <trkpt lat="39.2894120" lon="-0.7733900">
        <ele>416.0</ele>
        <time>2018-09-16T09:34:21Z</time>
      </trkpt>
      <trkpt lat="39.2894120" lon="-0.7733900">
        <ele>416.0</ele>
        <time>2018-09-16T09:34:22Z</time>
      </trkpt>
      <trkpt lat="39.2894280" lon="-0.7732870">
        <ele>416.0</ele>
        <time>2018-09-16T09:34:23Z</time>
      </trkpt>
      <trkpt lat="39.2894370" lon="-0.7732350">
        <ele>416.0</ele>
        <time>2018-09-16T09:34:24Z</time>
      </trkpt>
      <trkpt lat="39.2894370" lon="-0.7732350">
        <ele>416.0</ele>
        <time>2018-09-16T09:34:25Z</time>
      </trkpt>
      <trkpt lat="39.2894580" lon="-0.7731320">
        <ele>416.0</ele>
        <time>2018-09-16T09:34:26Z</time>
      </trkpt>
      <trkpt lat="39.2894580" lon="-0.7731320">
        <ele>416.0</ele>
        <time>2018-09-16T09:34:27Z</time>
      </trkpt>
      <trkpt lat="39.2894700" lon="-0.7730250">
        <ele>416.0</ele>
        <time>2018-09-16T09:34:28Z</time>
      </trkpt>
      <trkpt lat="39.2894670" lon="-0.7729700">
        <ele>416.0</ele>
        <time>2018-09-16T09:34:29Z</time>
      </trkpt>
      <trkpt lat="39.2894670" lon="-0.7729700">
        <ele>416.0</ele>
        <time>2018-09-16T09:34:30Z</time>
      </trkpt>
      <trkpt lat="39.2894520" lon="-0.7728570">
        <ele>416.0</ele>
        <time>2018-09-16T09:34:31Z</time>
      </trkpt>
      <trkpt lat="39.2894520" lon="-0.7728570">
        <ele>416.0</ele>
        <time>2018-09-16T09:34:32Z</time>
      </trkpt>
      <trkpt lat="39.2894200" lon="-0.7727470">
        <ele>416.0</ele>
        <time>2018-09-16T09:34:33Z</time>
      </trkpt>
      <trkpt lat="39.2894200" lon="-0.7727470">
        <ele>416.0</ele>
        <time>2018-09-16T09:34:34Z</time>
      </trkpt>
      <trkpt lat="39.2893780" lon="-0.7726380">
        <ele>416.0</ele>
        <time>2018-09-16T09:34:35Z</time>
      </trkpt>
      <trkpt lat="39.2893780" lon="-0.7726380">
        <ele>416.0</ele>
        <time>2018-09-16T09:34:36Z</time>
      </trkpt>
      <trkpt lat="39.2893200" lon="-0.7725350">
        <ele>416.0</ele>
        <time>2018-09-16T09:34:37Z</time>
      </trkpt>
      <trkpt lat="39.2893200" lon="-0.7725350">
        <ele>416.0</ele>
        <time>2018-09-16T09:34:38Z</time>
      </trkpt>
      <trkpt lat="39.2892500" lon="-0.7724500">
        <ele>416.0</ele>
        <time>2018-09-16T09:34:39Z</time>
      </trkpt>
      <trkpt lat="39.2892120" lon="-0.7724130">
        <ele>416.0</ele>
        <time>2018-09-16T09:34:40Z</time>
      </trkpt>
      <trkpt lat="39.2892120" lon="-0.7724130">
        <ele>416.0</ele>
        <time>2018-09-16T09:34:41Z</time>
      </trkpt>
      <trkpt lat="39.2891370" lon="-0.7723380">
        <ele>416.0</ele>
        <time>2018-09-16T09:34:42Z</time>
      </trkpt>
      <trkpt lat="39.2891370" lon="-0.7723380">
        <ele>416.0</ele>
        <time>2018-09-16T09:34:43Z</time>
      </trkpt>
      <trkpt lat="39.2890670" lon="-0.7722450">
        <ele>416.0</ele>
        <time>2018-09-16T09:34:44Z</time>
      </trkpt>
      <trkpt lat="39.2890380" lon="-0.7721870">
        <ele>416.0</ele>
        <time>2018-09-16T09:34:45Z</time>
      </trkpt>
      <trkpt lat="39.2890380" lon="-0.7721870">
        <ele>417.0</ele>
        <time>2018-09-16T09:34:46Z</time>
      </trkpt>
      <trkpt lat="39.2890030" lon="-0.7720650">
        <ele>417.0</ele>
        <time>2018-09-16T09:34:47Z</time>
      </trkpt>
      <trkpt lat="39.2890030" lon="-0.7720650">
        <ele>417.0</ele>
        <time>2018-09-16T09:34:48Z</time>
      </trkpt>
      <trkpt lat="39.2889770" lon="-0.7719420">
        <ele>417.0</ele>
        <time>2018-09-16T09:34:49Z</time>
      </trkpt>
      <trkpt lat="39.2889770" lon="-0.7719420">
        <ele>417.0</ele>
        <time>2018-09-16T09:34:50Z</time>
      </trkpt>
      <trkpt lat="39.2889580" lon="-0.7718150">
        <ele>417.0</ele>
        <time>2018-09-16T09:34:51Z</time>
      </trkpt>
      <trkpt lat="39.2889580" lon="-0.7718150">
        <ele>417.0</ele>
        <time>2018-09-16T09:34:52Z</time>
      </trkpt>
      <trkpt lat="39.2889430" lon="-0.7716930">
        <ele>417.0</ele>
        <time>2018-09-16T09:34:53Z</time>
      </trkpt>
      <trkpt lat="39.2889430" lon="-0.7716930">
        <ele>417.0</ele>
        <time>2018-09-16T09:34:54Z</time>
      </trkpt>
      <trkpt lat="39.2889300" lon="-0.7715720">
        <ele>417.0</ele>
        <time>2018-09-16T09:34:55Z</time>
      </trkpt>
      <trkpt lat="39.2889300" lon="-0.7715720">
        <ele>417.0</ele>
        <time>2018-09-16T09:34:56Z</time>
      </trkpt>
      <trkpt lat="39.2889370" lon="-0.7714500">
        <ele>417.0</ele>
        <time>2018-09-16T09:34:57Z</time>
      </trkpt>
      <trkpt lat="39.2889470" lon="-0.7713920">
        <ele>417.0</ele>
        <time>2018-09-16T09:34:58Z</time>
      </trkpt>
      <trkpt lat="39.2889470" lon="-0.7713920">
        <ele>417.0</ele>
        <time>2018-09-16T09:34:59Z</time>
      </trkpt>
      <trkpt lat="39.2890020" lon="-0.7712830">
        <ele>417.0</ele>
        <time>2018-09-16T09:35:00Z</time>
      </trkpt>
      <trkpt lat="39.2890020" lon="-0.7712830">
        <ele>417.0</ele>
        <time>2018-09-16T09:35:01Z</time>
      </trkpt>
      <trkpt lat="39.2890850" lon="-0.7712050">
        <ele>417.0</ele>
        <time>2018-09-16T09:35:02Z</time>
      </trkpt>
      <trkpt lat="39.2891320" lon="-0.7711770">
        <ele>417.0</ele>
        <time>2018-09-16T09:35:03Z</time>
      </trkpt>
      <trkpt lat="39.2891320" lon="-0.7711770">
        <ele>417.0</ele>
        <time>2018-09-16T09:35:04Z</time>
      </trkpt>
      <trkpt lat="39.2892250" lon="-0.7711180">
        <ele>417.0</ele>
        <time>2018-09-16T09:35:05Z</time>
      </trkpt>
      <trkpt lat="39.2892680" lon="-0.7710800">
        <ele>417.0</ele>
        <time>2018-09-16T09:35:06Z</time>
      </trkpt>
      <trkpt lat="39.2892680" lon="-0.7710800">
        <ele>417.0</ele>
        <time>2018-09-16T09:35:07Z</time>
      </trkpt>
      <trkpt lat="39.2892850" lon="-0.7709580">
        <ele>417.0</ele>
        <time>2018-09-16T09:35:08Z</time>
      </trkpt>
      <trkpt lat="39.2892850" lon="-0.7709580">
        <ele>417.0</ele>
        <time>2018-09-16T09:35:09Z</time>
      </trkpt>
      <trkpt lat="39.2892050" lon="-0.7708980">
        <ele>417.0</ele>
        <time>2018-09-16T09:35:10Z</time>
      </trkpt>
      <trkpt lat="39.2892050" lon="-0.7708980">
        <ele>417.0</ele>
        <time>2018-09-16T09:35:11Z</time>
      </trkpt>
      <trkpt lat="39.2891020" lon="-0.7708830">
        <ele>417.0</ele>
        <time>2018-09-16T09:35:12Z</time>
      </trkpt>
      <trkpt lat="39.2891020" lon="-0.7708830">
        <ele>418.0</ele>
        <time>2018-09-16T09:35:13Z</time>
      </trkpt>
      <trkpt lat="39.2889920" lon="-0.7708580">
        <ele>418.0</ele>
        <time>2018-09-16T09:35:14Z</time>
      </trkpt>
      <trkpt lat="39.2889420" lon="-0.7708480">
        <ele>418.0</ele>
        <time>2018-09-16T09:35:15Z</time>
      </trkpt>
      <trkpt lat="39.2889420" lon="-0.7708480">
        <ele>418.0</ele>
        <time>2018-09-16T09:35:16Z</time>
      </trkpt>
      <trkpt lat="39.2888480" lon="-0.7708230">
        <ele>419.0</ele>
        <time>2018-09-16T09:35:17Z</time>
      </trkpt>
      <trkpt lat="39.2888480" lon="-0.7708230">
        <ele>419.0</ele>
        <time>2018-09-16T09:35:18Z</time>
      </trkpt>
      <trkpt lat="39.2887630" lon="-0.7707770">
        <ele>419.0</ele>
        <time>2018-09-16T09:35:19Z</time>
      </trkpt>
      <trkpt lat="39.2887630" lon="-0.7707770">
        <ele>419.0</ele>
        <time>2018-09-16T09:35:20Z</time>
      </trkpt>
      <trkpt lat="39.2886850" lon="-0.7707030">
        <ele>420.0</ele>
        <time>2018-09-16T09:35:21Z</time>
      </trkpt>
      <trkpt lat="39.2886850" lon="-0.7707030">
        <ele>420.0</ele>
        <time>2018-09-16T09:35:22Z</time>
      </trkpt>
      <trkpt lat="39.2886180" lon="-0.7706050">
        <ele>420.0</ele>
        <time>2018-09-16T09:35:23Z</time>
      </trkpt>
      <trkpt lat="39.2886180" lon="-0.7706050">
        <ele>420.0</ele>
        <time>2018-09-16T09:35:24Z</time>
      </trkpt>
      <trkpt lat="39.2885680" lon="-0.7704870">
        <ele>421.0</ele>
        <time>2018-09-16T09:35:25Z</time>
      </trkpt>
      <trkpt lat="39.2885680" lon="-0.7704870">
        <ele>421.0</ele>
        <time>2018-09-16T09:35:26Z</time>
      </trkpt>
      <trkpt lat="39.2885250" lon="-0.7703700">
        <ele>421.0</ele>
        <time>2018-09-16T09:35:27Z</time>
      </trkpt>
      <trkpt lat="39.2885250" lon="-0.7703700">
        <ele>421.0</ele>
        <time>2018-09-16T09:35:28Z</time>
      </trkpt>
      <trkpt lat="39.2884920" lon="-0.7702550">
        <ele>422.0</ele>
        <time>2018-09-16T09:35:29Z</time>
      </trkpt>
      <trkpt lat="39.2884920" lon="-0.7702550">
        <ele>422.0</ele>
        <time>2018-09-16T09:35:30Z</time>
      </trkpt>
      <trkpt lat="39.2884680" lon="-0.7701400">
        <ele>422.0</ele>
        <time>2018-09-16T09:35:31Z</time>
      </trkpt>
      <trkpt lat="39.2884680" lon="-0.7701400">
        <ele>422.0</ele>
        <time>2018-09-16T09:35:32Z</time>
      </trkpt>
      <trkpt lat="39.2884480" lon="-0.7700320">
        <ele>422.0</ele>
        <time>2018-09-16T09:35:33Z</time>
      </trkpt>
      <trkpt lat="39.2884420" lon="-0.7699830">
        <ele>423.0</ele>
        <time>2018-09-16T09:35:34Z</time>
      </trkpt>
      <trkpt lat="39.2884420" lon="-0.7699830">
        <ele>423.0</ele>
        <time>2018-09-16T09:35:35Z</time>
      </trkpt>
      <trkpt lat="39.2884280" lon="-0.7699000">
        <ele>423.0</ele>
        <time>2018-09-16T09:35:36Z</time>
      </trkpt>
      <trkpt lat="39.2884280" lon="-0.7699000">
        <ele>423.0</ele>
        <time>2018-09-16T09:35:37Z</time>
      </trkpt>
      <trkpt lat="39.2884120" lon="-0.7698230">
        <ele>424.0</ele>
        <time>2018-09-16T09:35:38Z</time>
      </trkpt>
      <trkpt lat="39.2884120" lon="-0.7698230">
        <ele>424.0</ele>
        <time>2018-09-16T09:35:39Z</time>
      </trkpt>
      <trkpt lat="39.2884030" lon="-0.7697420">
        <ele>424.0</ele>
        <time>2018-09-16T09:35:40Z</time>
      </trkpt>
      <trkpt lat="39.2884030" lon="-0.7696970">
        <ele>424.0</ele>
        <time>2018-09-16T09:35:41Z</time>
      </trkpt>
      <trkpt lat="39.2884030" lon="-0.7696970">
        <ele>424.0</ele>
        <time>2018-09-16T09:35:42Z</time>
      </trkpt>
      <trkpt lat="39.2884230" lon="-0.7696130">
        <ele>424.0</ele>
        <time>2018-09-16T09:35:43Z</time>
      </trkpt>
      <trkpt lat="39.2884230" lon="-0.7696130">
        <ele>425.0</ele>
        <time>2018-09-16T09:35:44Z</time>
      </trkpt>
      <trkpt lat="39.2884580" lon="-0.7695380">
        <ele>425.0</ele>
        <time>2018-09-16T09:35:45Z</time>
      </trkpt>
      <trkpt lat="39.2884770" lon="-0.7694970">
        <ele>425.0</ele>
        <time>2018-09-16T09:35:46Z</time>
      </trkpt>
      <trkpt lat="39.2884930" lon="-0.7694550">
        <ele>425.0</ele>
        <time>2018-09-16T09:35:47Z</time>
      </trkpt>
      <trkpt lat="39.2884930" lon="-0.7694550">
        <ele>425.0</ele>
        <time>2018-09-16T09:35:48Z</time>
      </trkpt>
      <trkpt lat="39.2885400" lon="-0.7693700">
        <ele>425.0</ele>
        <time>2018-09-16T09:35:49Z</time>
      </trkpt>
      <trkpt lat="39.2885400" lon="-0.7693700">
        <ele>425.0</ele>
        <time>2018-09-16T09:35:50Z</time>
      </trkpt>
      <trkpt lat="39.2885870" lon="-0.7692800">
        <ele>425.0</ele>
        <time>2018-09-16T09:35:51Z</time>
      </trkpt>
      <trkpt lat="39.2885870" lon="-0.7692800">
        <ele>425.0</ele>
        <time>2018-09-16T09:35:52Z</time>
      </trkpt>
      <trkpt lat="39.2886350" lon="-0.7691850">
        <ele>425.0</ele>
        <time>2018-09-16T09:35:53Z</time>
      </trkpt>
      <trkpt lat="39.2886580" lon="-0.7691380">
        <ele>425.0</ele>
        <time>2018-09-16T09:35:54Z</time>
      </trkpt>
      <trkpt lat="39.2886580" lon="-0.7691380">
        <ele>425.0</ele>
        <time>2018-09-16T09:35:55Z</time>
      </trkpt>
      <trkpt lat="39.2887000" lon="-0.7690400">
        <ele>425.0</ele>
        <time>2018-09-16T09:35:56Z</time>
      </trkpt>
      <trkpt lat="39.2887000" lon="-0.7690400">
        <ele>425.0</ele>
        <time>2018-09-16T09:35:57Z</time>
      </trkpt>
      <trkpt lat="39.2887370" lon="-0.7689420">
        <ele>425.0</ele>
        <time>2018-09-16T09:35:58Z</time>
      </trkpt>
      <trkpt lat="39.2887370" lon="-0.7689420">
        <ele>425.0</ele>
        <time>2018-09-16T09:35:59Z</time>
      </trkpt>
      <trkpt lat="39.2887670" lon="-0.7688470">
        <ele>425.0</ele>
        <time>2018-09-16T09:36:00Z</time>
      </trkpt>
      <trkpt lat="39.2887830" lon="-0.7688030">
        <ele>425.0</ele>
        <time>2018-09-16T09:36:01Z</time>
      </trkpt>
      <trkpt lat="39.2887830" lon="-0.7688030">
        <ele>425.0</ele>
        <time>2018-09-16T09:36:02Z</time>
      </trkpt>
      <trkpt lat="39.2888100" lon="-0.7687220">
        <ele>425.0</ele>
        <time>2018-09-16T09:36:03Z</time>
      </trkpt>
      <trkpt lat="39.2888200" lon="-0.7686830">
        <ele>425.0</ele>
        <time>2018-09-16T09:36:04Z</time>
      </trkpt>
      <trkpt lat="39.2888200" lon="-0.7686830">
        <ele>427.0</ele>
        <time>2018-09-16T09:36:05Z</time>
      </trkpt>
      <trkpt lat="39.2888400" lon="-0.7686130">
        <ele>427.0</ele>
        <time>2018-09-16T09:36:06Z</time>
      </trkpt>
      <trkpt lat="39.2888400" lon="-0.7686130">
        <ele>427.0</ele>
        <time>2018-09-16T09:36:07Z</time>
      </trkpt>
      <trkpt lat="39.2888600" lon="-0.7685430">
        <ele>427.0</ele>
        <time>2018-09-16T09:36:08Z</time>
      </trkpt>
      <trkpt lat="39.2888600" lon="-0.7685430">
        <ele>428.0</ele>
        <time>2018-09-16T09:36:09Z</time>
      </trkpt>
      <trkpt lat="39.2888780" lon="-0.7684780">
        <ele>428.0</ele>
        <time>2018-09-16T09:36:10Z</time>
      </trkpt>
      <trkpt lat="39.2888870" lon="-0.7684450">
        <ele>428.0</ele>
        <time>2018-09-16T09:36:11Z</time>
      </trkpt>
      <trkpt lat="39.2888870" lon="-0.7684450">
        <ele>428.0</ele>
        <time>2018-09-16T09:36:12Z</time>
      </trkpt>
      <trkpt lat="39.2889080" lon="-0.7683770">
        <ele>429.0</ele>
        <time>2018-09-16T09:36:13Z</time>
      </trkpt>
      <trkpt lat="39.2889200" lon="-0.7683430">
        <ele>429.0</ele>
        <time>2018-09-16T09:36:14Z</time>
      </trkpt>
      <trkpt lat="39.2889200" lon="-0.7683430">
        <ele>429.0</ele>
        <time>2018-09-16T09:36:15Z</time>
      </trkpt>
      <trkpt lat="39.2889380" lon="-0.7682750">
        <ele>429.0</ele>
        <time>2018-09-16T09:36:16Z</time>
      </trkpt>
      <trkpt lat="39.2889470" lon="-0.7682420">
        <ele>430.0</ele>
        <time>2018-09-16T09:36:17Z</time>
      </trkpt>
      <trkpt lat="39.2889470" lon="-0.7682420">
        <ele>430.0</ele>
        <time>2018-09-16T09:36:18Z</time>
      </trkpt>
      <trkpt lat="39.2889620" lon="-0.7681750">
        <ele>431.0</ele>
        <time>2018-09-16T09:36:19Z</time>
      </trkpt>
      <trkpt lat="39.2889620" lon="-0.7681750">
        <ele>431.0</ele>
        <time>2018-09-16T09:36:20Z</time>
      </trkpt>
      <trkpt lat="39.2889800" lon="-0.7681130">
        <ele>431.0</ele>
        <time>2018-09-16T09:36:21Z</time>
      </trkpt>
      <trkpt lat="39.2889800" lon="-0.7681130">
        <ele>431.0</ele>
        <time>2018-09-16T09:36:22Z</time>
      </trkpt>
      <trkpt lat="39.2889950" lon="-0.7680520">
        <ele>432.0</ele>
        <time>2018-09-16T09:36:23Z</time>
      </trkpt>
      <trkpt lat="39.2889950" lon="-0.7680520">
        <ele>432.0</ele>
        <time>2018-09-16T09:36:24Z</time>
      </trkpt>
      <trkpt lat="39.2890080" lon="-0.7679900">
        <ele>432.0</ele>
        <time>2018-09-16T09:36:25Z</time>
      </trkpt>
      <trkpt lat="39.2890170" lon="-0.7679670">
        <ele>432.0</ele>
        <time>2018-09-16T09:36:26Z</time>
      </trkpt>
      <trkpt lat="39.2890250" lon="-0.7679430">
        <ele>432.0</ele>
        <time>2018-09-16T09:36:27Z</time>
      </trkpt>
      <trkpt lat="39.2890320" lon="-0.7679170">
        <ele>432.0</ele>
        <time>2018-09-16T09:36:28Z</time>
      </trkpt>
      <trkpt lat="39.2890320" lon="-0.7679170">
        <ele>432.0</ele>
        <time>2018-09-16T09:36:29Z</time>
      </trkpt>
      <trkpt lat="39.2890420" lon="-0.7678600">
        <ele>434.0</ele>
        <time>2018-09-16T09:36:30Z</time>
      </trkpt>
      <trkpt lat="39.2890450" lon="-0.7678320">
        <ele>434.0</ele>
        <time>2018-09-16T09:36:31Z</time>
      </trkpt>
      <trkpt lat="39.2890450" lon="-0.7678320">
        <ele>434.0</ele>
        <time>2018-09-16T09:36:32Z</time>
      </trkpt>
      <trkpt lat="39.2890580" lon="-0.7677770">
        <ele>434.0</ele>
        <time>2018-09-16T09:36:33Z</time>
      </trkpt>
      <trkpt lat="39.2890670" lon="-0.7677530">
        <ele>435.0</ele>
        <time>2018-09-16T09:36:34Z</time>
      </trkpt>
      <trkpt lat="39.2890670" lon="-0.7677530">
        <ele>435.0</ele>
        <time>2018-09-16T09:36:35Z</time>
      </trkpt>
      <trkpt lat="39.2890650" lon="-0.7677000">
        <ele>435.0</ele>
        <time>2018-09-16T09:36:36Z</time>
      </trkpt>
      <trkpt lat="39.2890650" lon="-0.7677000">
        <ele>435.0</ele>
        <time>2018-09-16T09:36:37Z</time>
      </trkpt>
      <trkpt lat="39.2890730" lon="-0.7676550">
        <ele>436.0</ele>
        <time>2018-09-16T09:36:38Z</time>
      </trkpt>
      <trkpt lat="39.2890730" lon="-0.7676550">
        <ele>436.0</ele>
        <time>2018-09-16T09:36:39Z</time>
      </trkpt>
      <trkpt lat="39.2890830" lon="-0.7676050">
        <ele>436.0</ele>
        <time>2018-09-16T09:36:40Z</time>
      </trkpt>
      <trkpt lat="39.2890880" lon="-0.7675800">
        <ele>436.0</ele>
        <time>2018-09-16T09:36:41Z</time>
      </trkpt>
      <trkpt lat="39.2890950" lon="-0.7675550">
        <ele>436.0</ele>
        <time>2018-09-16T09:36:42Z</time>
      </trkpt>
      <trkpt lat="39.2891020" lon="-0.7675300">
        <ele>436.0</ele>
        <time>2018-09-16T09:36:43Z</time>
      </trkpt>
      <trkpt lat="39.2891020" lon="-0.7675300">
        <ele>437.0</ele>
        <time>2018-09-16T09:36:44Z</time>
      </trkpt>
      <trkpt lat="39.2891120" lon="-0.7674780">
        <ele>437.0</ele>
        <time>2018-09-16T09:36:45Z</time>
      </trkpt>
      <trkpt lat="39.2891120" lon="-0.7674780">
        <ele>437.0</ele>
        <time>2018-09-16T09:36:46Z</time>
      </trkpt>
      <trkpt lat="39.2891230" lon="-0.7674230">
        <ele>437.0</ele>
        <time>2018-09-16T09:36:47Z</time>
      </trkpt>
      <trkpt lat="39.2891300" lon="-0.7673980">
        <ele>438.0</ele>
        <time>2018-09-16T09:36:48Z</time>
      </trkpt>
      <trkpt lat="39.2891330" lon="-0.7673720">
        <ele>438.0</ele>
        <time>2018-09-16T09:36:49Z</time>
      </trkpt>
      <trkpt lat="39.2891330" lon="-0.7673720">
        <ele>438.0</ele>
        <time>2018-09-16T09:36:50Z</time>
      </trkpt>
      <trkpt lat="39.2891450" lon="-0.7673180">
        <ele>438.0</ele>
        <time>2018-09-16T09:36:51Z</time>
      </trkpt>
      <trkpt lat="39.2891500" lon="-0.7672920">
        <ele>439.0</ele>
        <time>2018-09-16T09:36:52Z</time>
      </trkpt>
      <trkpt lat="39.2891500" lon="-0.7672920">
        <ele>439.0</ele>
        <time>2018-09-16T09:36:53Z</time>
      </trkpt>
      <trkpt lat="39.2891650" lon="-0.7672370">
        <ele>439.0</ele>
        <time>2018-09-16T09:36:54Z</time>
      </trkpt>
      <trkpt lat="39.2891720" lon="-0.7672120">
        <ele>440.0</ele>
        <time>2018-09-16T09:36:55Z</time>
      </trkpt>
      <trkpt lat="39.2891720" lon="-0.7672120">
        <ele>440.0</ele>
        <time>2018-09-16T09:36:56Z</time>
      </trkpt>
      <trkpt lat="39.2891850" lon="-0.7671630">
        <ele>440.0</ele>
        <time>2018-09-16T09:36:57Z</time>
      </trkpt>
      <trkpt lat="39.2891920" lon="-0.7671400">
        <ele>440.0</ele>
        <time>2018-09-16T09:36:58Z</time>
      </trkpt>
      <trkpt lat="39.2891970" lon="-0.7671170">
        <ele>440.0</ele>
        <time>2018-09-16T09:36:59Z</time>
      </trkpt>
      <trkpt lat="39.2891970" lon="-0.7671170">
        <ele>440.0</ele>
        <time>2018-09-16T09:37:00Z</time>
      </trkpt>
      <trkpt lat="39.2892100" lon="-0.7670700">
        <ele>440.0</ele>
        <time>2018-09-16T09:37:01Z</time>
      </trkpt>
      <trkpt lat="39.2892100" lon="-0.7670700">
        <ele>440.0</ele>
        <time>2018-09-16T09:37:02Z</time>
      </trkpt>
      <trkpt lat="39.2892180" lon="-0.7670280">
        <ele>440.0</ele>
        <time>2018-09-16T09:37:03Z</time>
      </trkpt>
      <trkpt lat="39.2892280" lon="-0.7670070">
        <ele>440.0</ele>
        <time>2018-09-16T09:37:04Z</time>
      </trkpt>
      <trkpt lat="39.2892280" lon="-0.7670070">
        <ele>441.0</ele>
        <time>2018-09-16T09:37:05Z</time>
      </trkpt>
      <trkpt lat="39.2892550" lon="-0.7669680">
        <ele>441.0</ele>
        <time>2018-09-16T09:37:06Z</time>
      </trkpt>
      <trkpt lat="39.2892550" lon="-0.7669680">
        <ele>441.0</ele>
        <time>2018-09-16T09:37:07Z</time>
      </trkpt>
      <trkpt lat="39.2892870" lon="-0.7669270">
        <ele>441.0</ele>
        <time>2018-09-16T09:37:08Z</time>
      </trkpt>
      <trkpt lat="39.2893000" lon="-0.7669100">
        <ele>442.0</ele>
        <time>2018-09-16T09:37:09Z</time>
      </trkpt>
      <trkpt lat="39.2893000" lon="-0.7669100">
        <ele>442.0</ele>
        <time>2018-09-16T09:37:10Z</time>
      </trkpt>
      <trkpt lat="39.2893300" lon="-0.7668820">
        <ele>442.0</ele>
        <time>2018-09-16T09:37:11Z</time>
      </trkpt>
      <trkpt lat="39.2893300" lon="-0.7668820">
        <ele>442.0</ele>
        <time>2018-09-16T09:37:12Z</time>
      </trkpt>
      <trkpt lat="39.2893620" lon="-0.7668520">
        <ele>443.0</ele>
        <time>2018-09-16T09:37:13Z</time>
      </trkpt>
      <trkpt lat="39.2893620" lon="-0.7668520">
        <ele>443.0</ele>
        <time>2018-09-16T09:37:14Z</time>
      </trkpt>
      <trkpt lat="39.2893930" lon="-0.7668170">
        <ele>443.0</ele>
        <time>2018-09-16T09:37:15Z</time>
      </trkpt>
      <trkpt lat="39.2893930" lon="-0.7668170">
        <ele>443.0</ele>
        <time>2018-09-16T09:37:16Z</time>
      </trkpt>
      <trkpt lat="39.2894230" lon="-0.7667820">
        <ele>444.0</ele>
        <time>2018-09-16T09:37:17Z</time>
      </trkpt>
      <trkpt lat="39.2894230" lon="-0.7667820">
        <ele>444.0</ele>
        <time>2018-09-16T09:37:18Z</time>
      </trkpt>
      <trkpt lat="39.2894520" lon="-0.7667450">
        <ele>444.0</ele>
        <time>2018-09-16T09:37:19Z</time>
      </trkpt>
      <trkpt lat="39.2894650" lon="-0.7667280">
        <ele>445.0</ele>
        <time>2018-09-16T09:37:20Z</time>
      </trkpt>
      <trkpt lat="39.2894650" lon="-0.7667280">
        <ele>445.0</ele>
        <time>2018-09-16T09:37:21Z</time>
      </trkpt>
      <trkpt lat="39.2894920" lon="-0.7666900">
        <ele>445.0</ele>
        <time>2018-09-16T09:37:22Z</time>
      </trkpt>
      <trkpt lat="39.2894920" lon="-0.7666900">
        <ele>445.0</ele>
        <time>2018-09-16T09:37:23Z</time>
      </trkpt>
      <trkpt lat="39.2895150" lon="-0.7666530">
        <ele>446.0</ele>
        <time>2018-09-16T09:37:24Z</time>
      </trkpt>
      <trkpt lat="39.2895150" lon="-0.7666530">
        <ele>446.0</ele>
        <time>2018-09-16T09:37:25Z</time>
      </trkpt>
      <trkpt lat="39.2895370" lon="-0.7666150">
        <ele>446.0</ele>
        <time>2018-09-16T09:37:26Z</time>
      </trkpt>
      <trkpt lat="39.2895370" lon="-0.7666150">
        <ele>446.0</ele>
        <time>2018-09-16T09:37:27Z</time>
      </trkpt>
      <trkpt lat="39.2895580" lon="-0.7665770">
        <ele>447.0</ele>
        <time>2018-09-16T09:37:28Z</time>
      </trkpt>
      <trkpt lat="39.2895680" lon="-0.7665550">
        <ele>447.0</ele>
        <time>2018-09-16T09:37:29Z</time>
      </trkpt>
      <trkpt lat="39.2895810" lon="-0.7665310">
        <ele>447.0</ele>
        <time>2018-09-16T09:37:30Z</time>
      </trkpt>
      <trkpt lat="39.2895930" lon="-0.7665070">
        <ele>447.0</ele>
        <time>2018-09-16T09:37:31Z</time>
      </trkpt>
      <trkpt lat="39.2895930" lon="-0.7665070">
        <ele>448.0</ele>
        <time>2018-09-16T09:37:32Z</time>
      </trkpt>
      <trkpt lat="39.2896250" lon="-0.7664580">
        <ele>448.0</ele>
        <time>2018-09-16T09:37:33Z</time>
      </trkpt>
      <trkpt lat="39.2896250" lon="-0.7664580">
        <ele>448.0</ele>
        <time>2018-09-16T09:37:34Z</time>
      </trkpt>
      <trkpt lat="39.2896580" lon="-0.7664120">
        <ele>448.0</ele>
        <time>2018-09-16T09:37:35Z</time>
      </trkpt>
      <trkpt lat="39.2896580" lon="-0.7664120">
        <ele>449.0</ele>
        <time>2018-09-16T09:37:36Z</time>
      </trkpt>
      <trkpt lat="39.2897030" lon="-0.7663720">
        <ele>449.0</ele>
        <time>2018-09-16T09:37:37Z</time>
      </trkpt>
      <trkpt lat="39.2897030" lon="-0.7663720">
        <ele>449.0</ele>
        <time>2018-09-16T09:37:38Z</time>
      </trkpt>
      <trkpt lat="39.2897580" lon="-0.7663450">
        <ele>449.0</ele>
        <time>2018-09-16T09:37:39Z</time>
      </trkpt>
      <trkpt lat="39.2897580" lon="-0.7663450">
        <ele>449.0</ele>
        <time>2018-09-16T09:37:40Z</time>
      </trkpt>
      <trkpt lat="39.2898200" lon="-0.7663470">
        <ele>449.0</ele>
        <time>2018-09-16T09:37:41Z</time>
      </trkpt>
      <trkpt lat="39.2898200" lon="-0.7663470">
        <ele>449.0</ele>
        <time>2018-09-16T09:37:42Z</time>
      </trkpt>
      <trkpt lat="39.2898920" lon="-0.7663800">
        <ele>449.0</ele>
        <time>2018-09-16T09:37:43Z</time>
      </trkpt>
      <trkpt lat="39.2898920" lon="-0.7663800">
        <ele>449.0</ele>
        <time>2018-09-16T09:37:44Z</time>
      </trkpt>
      <trkpt lat="39.2899680" lon="-0.7664250">
        <ele>449.0</ele>
        <time>2018-09-16T09:37:45Z</time>
      </trkpt>
      <trkpt lat="39.2899680" lon="-0.7664250">
        <ele>449.0</ele>
        <time>2018-09-16T09:37:46Z</time>
      </trkpt>
      <trkpt lat="39.2900420" lon="-0.7664750">
        <ele>449.0</ele>
        <time>2018-09-16T09:37:47Z</time>
      </trkpt>
      <trkpt lat="39.2900780" lon="-0.7665020">
        <ele>449.0</ele>
        <time>2018-09-16T09:37:48Z</time>
      </trkpt>
      <trkpt lat="39.2900780" lon="-0.7665020">
        <ele>449.0</ele>
        <time>2018-09-16T09:37:49Z</time>
      </trkpt>
      <trkpt lat="39.2901470" lon="-0.7665520">
        <ele>449.0</ele>
        <time>2018-09-16T09:37:50Z</time>
      </trkpt>
      <trkpt lat="39.2901470" lon="-0.7665520">
        <ele>449.0</ele>
        <time>2018-09-16T09:37:51Z</time>
      </trkpt>
      <trkpt lat="39.2902120" lon="-0.7666000">
        <ele>449.0</ele>
        <time>2018-09-16T09:37:52Z</time>
      </trkpt>
      <trkpt lat="39.2902120" lon="-0.7666000">
        <ele>449.0</ele>
        <time>2018-09-16T09:37:53Z</time>
      </trkpt>
      <trkpt lat="39.2902700" lon="-0.7666430">
        <ele>449.0</ele>
        <time>2018-09-16T09:37:54Z</time>
      </trkpt>
      <trkpt lat="39.2902700" lon="-0.7666430">
        <ele>450.0</ele>
        <time>2018-09-16T09:37:55Z</time>
      </trkpt>
      <trkpt lat="39.2903250" lon="-0.7666820">
        <ele>450.0</ele>
        <time>2018-09-16T09:37:56Z</time>
      </trkpt>
      <trkpt lat="39.2903250" lon="-0.7666820">
        <ele>450.0</ele>
        <time>2018-09-16T09:37:57Z</time>
      </trkpt>
      <trkpt lat="39.2903780" lon="-0.7667180">
        <ele>450.0</ele>
        <time>2018-09-16T09:37:58Z</time>
      </trkpt>
      <trkpt lat="39.2903780" lon="-0.7667180">
        <ele>450.0</ele>
        <time>2018-09-16T09:37:59Z</time>
      </trkpt>
      <trkpt lat="39.2904300" lon="-0.7667530">
        <ele>451.0</ele>
        <time>2018-09-16T09:38:00Z</time>
      </trkpt>
      <trkpt lat="39.2904570" lon="-0.7667680">
        <ele>451.0</ele>
        <time>2018-09-16T09:38:01Z</time>
      </trkpt>
      <trkpt lat="39.2904570" lon="-0.7667680">
        <ele>451.0</ele>
        <time>2018-09-16T09:38:02Z</time>
      </trkpt>
      <trkpt lat="39.2905100" lon="-0.7668020">
        <ele>451.0</ele>
        <time>2018-09-16T09:38:03Z</time>
      </trkpt>
      <trkpt lat="39.2905100" lon="-0.7668020">
        <ele>452.0</ele>
        <time>2018-09-16T09:38:04Z</time>
      </trkpt>
      <trkpt lat="39.2905620" lon="-0.7668300">
        <ele>452.0</ele>
        <time>2018-09-16T09:38:05Z</time>
      </trkpt>
      <trkpt lat="39.2905620" lon="-0.7668300">
        <ele>452.0</ele>
        <time>2018-09-16T09:38:06Z</time>
      </trkpt>
      <trkpt lat="39.2906080" lon="-0.7668470">
        <ele>452.0</ele>
        <time>2018-09-16T09:38:07Z</time>
      </trkpt>
      <trkpt lat="39.2906280" lon="-0.7668520">
        <ele>452.0</ele>
        <time>2018-09-16T09:38:08Z</time>
      </trkpt>
      <trkpt lat="39.2906280" lon="-0.7668520">
        <ele>452.0</ele>
        <time>2018-09-16T09:38:09Z</time>
      </trkpt>
      <trkpt lat="39.2906680" lon="-0.7668550">
        <ele>452.0</ele>
        <time>2018-09-16T09:38:10Z</time>
      </trkpt>
      <trkpt lat="39.2906680" lon="-0.7668550">
        <ele>452.0</ele>
        <time>2018-09-16T09:38:11Z</time>
      </trkpt>
      <trkpt lat="39.2907070" lon="-0.7668380">
        <ele>452.0</ele>
        <time>2018-09-16T09:38:12Z</time>
      </trkpt>
      <trkpt lat="39.2907070" lon="-0.7668380">
        <ele>452.0</ele>
        <time>2018-09-16T09:38:13Z</time>
      </trkpt>
      <trkpt lat="39.2907430" lon="-0.7668020">
        <ele>453.0</ele>
        <time>2018-09-16T09:38:14Z</time>
      </trkpt>
      <trkpt lat="39.2907430" lon="-0.7668020">
        <ele>453.0</ele>
        <time>2018-09-16T09:38:15Z</time>
      </trkpt>
      <trkpt lat="39.2907680" lon="-0.7667530">
        <ele>453.0</ele>
        <time>2018-09-16T09:38:16Z</time>
      </trkpt>
      <trkpt lat="39.2907680" lon="-0.7667530">
        <ele>454.0</ele>
        <time>2018-09-16T09:38:17Z</time>
      </trkpt>
      <trkpt lat="39.2907650" lon="-0.7666870">
        <ele>454.0</ele>
        <time>2018-09-16T09:38:18Z</time>
      </trkpt>
      <trkpt lat="39.2907650" lon="-0.7666870">
        <ele>454.0</ele>
        <time>2018-09-16T09:38:19Z</time>
      </trkpt>
      <trkpt lat="39.2907420" lon="-0.7666320">
        <ele>454.0</ele>
        <time>2018-09-16T09:38:20Z</time>
      </trkpt>
      <trkpt lat="39.2907420" lon="-0.7666320">
        <ele>455.0</ele>
        <time>2018-09-16T09:38:21Z</time>
      </trkpt>
      <trkpt lat="39.2906980" lon="-0.7665970">
        <ele>455.0</ele>
        <time>2018-09-16T09:38:22Z</time>
      </trkpt>
      <trkpt lat="39.2906980" lon="-0.7665970">
        <ele>455.0</ele>
        <time>2018-09-16T09:38:23Z</time>
      </trkpt>
      <trkpt lat="39.2906500" lon="-0.7665730">
        <ele>455.0</ele>
        <time>2018-09-16T09:38:24Z</time>
      </trkpt>
      <trkpt lat="39.2906230" lon="-0.7665630">
        <ele>455.0</ele>
        <time>2018-09-16T09:38:25Z</time>
      </trkpt>
      <trkpt lat="39.2906230" lon="-0.7665630">
        <ele>455.0</ele>
        <time>2018-09-16T09:38:26Z</time>
      </trkpt>
      <trkpt lat="39.2905720" lon="-0.7665420">
        <ele>455.0</ele>
        <time>2018-09-16T09:38:27Z</time>
      </trkpt>
      <trkpt lat="39.2905720" lon="-0.7665420">
        <ele>455.0</ele>
        <time>2018-09-16T09:38:28Z</time>
      </trkpt>
      <trkpt lat="39.2905230" lon="-0.7665180">
        <ele>456.0</ele>
        <time>2018-09-16T09:38:29Z</time>
      </trkpt>
      <trkpt lat="39.2905230" lon="-0.7665180">
        <ele>456.0</ele>
        <time>2018-09-16T09:38:30Z</time>
      </trkpt>
      <trkpt lat="39.2904750" lon="-0.7664880">
        <ele>456.0</ele>
        <time>2018-09-16T09:38:31Z</time>
      </trkpt>
      <trkpt lat="39.2904750" lon="-0.7664880">
        <ele>456.0</ele>
        <time>2018-09-16T09:38:32Z</time>
      </trkpt>
      <trkpt lat="39.2904250" lon="-0.7664530">
        <ele>456.0</ele>
        <time>2018-09-16T09:38:33Z</time>
      </trkpt>
      <trkpt lat="39.2904250" lon="-0.7664530">
        <ele>456.0</ele>
        <time>2018-09-16T09:38:34Z</time>
      </trkpt>
      <trkpt lat="39.2903780" lon="-0.7664130">
        <ele>456.0</ele>
        <time>2018-09-16T09:38:35Z</time>
      </trkpt>
      <trkpt lat="39.2903780" lon="-0.7664130">
        <ele>457.0</ele>
        <time>2018-09-16T09:38:36Z</time>
      </trkpt>
      <trkpt lat="39.2903400" lon="-0.7663730">
        <ele>457.0</ele>
        <time>2018-09-16T09:38:37Z</time>
      </trkpt>
      <trkpt lat="39.2903400" lon="-0.7663730">
        <ele>457.0</ele>
        <time>2018-09-16T09:38:38Z</time>
      </trkpt>
      <trkpt lat="39.2903080" lon="-0.7663350">
        <ele>457.0</ele>
        <time>2018-09-16T09:38:39Z</time>
      </trkpt>
      <trkpt lat="39.2903080" lon="-0.7663350">
        <ele>457.0</ele>
        <time>2018-09-16T09:38:40Z</time>
      </trkpt>
      <trkpt lat="39.2902780" lon="-0.7662930">
        <ele>457.0</ele>
        <time>2018-09-16T09:38:41Z</time>
      </trkpt>
      <trkpt lat="39.2902780" lon="-0.7662930">
        <ele>457.0</ele>
        <time>2018-09-16T09:38:42Z</time>
      </trkpt>
      <trkpt lat="39.2902550" lon="-0.7662450">
        <ele>457.0</ele>
        <time>2018-09-16T09:38:43Z</time>
      </trkpt>
      <trkpt lat="39.2902550" lon="-0.7662450">
        <ele>457.0</ele>
        <time>2018-09-16T09:38:44Z</time>
      </trkpt>
      <trkpt lat="39.2902330" lon="-0.7661880">
        <ele>458.0</ele>
        <time>2018-09-16T09:38:45Z</time>
      </trkpt>
      <trkpt lat="39.2902330" lon="-0.7661880">
        <ele>458.0</ele>
        <time>2018-09-16T09:38:46Z</time>
      </trkpt>
      <trkpt lat="39.2902120" lon="-0.7661330">
        <ele>458.0</ele>
        <time>2018-09-16T09:38:47Z</time>
      </trkpt>
      <trkpt lat="39.2902120" lon="-0.7661330">
        <ele>458.0</ele>
        <time>2018-09-16T09:38:48Z</time>
      </trkpt>
      <trkpt lat="39.2901920" lon="-0.7660800">
        <ele>458.0</ele>
        <time>2018-09-16T09:38:49Z</time>
      </trkpt>
      <trkpt lat="39.2901920" lon="-0.7660800">
        <ele>458.0</ele>
        <time>2018-09-16T09:38:50Z</time>
      </trkpt>
      <trkpt lat="39.2901720" lon="-0.7660280">
        <ele>459.0</ele>
        <time>2018-09-16T09:38:51Z</time>
      </trkpt>
      <trkpt lat="39.2901720" lon="-0.7660280">
        <ele>459.0</ele>
        <time>2018-09-16T09:38:52Z</time>
      </trkpt>
      <trkpt lat="39.2901530" lon="-0.7659770">
        <ele>459.0</ele>
        <time>2018-09-16T09:38:53Z</time>
      </trkpt>
      <trkpt lat="39.2901530" lon="-0.7659770">
        <ele>459.0</ele>
        <time>2018-09-16T09:38:54Z</time>
      </trkpt>
      <trkpt lat="39.2901350" lon="-0.7659250">
        <ele>460.0</ele>
        <time>2018-09-16T09:38:55Z</time>
      </trkpt>
      <trkpt lat="39.2901350" lon="-0.7659250">
        <ele>460.0</ele>
        <time>2018-09-16T09:38:56Z</time>
      </trkpt>
      <trkpt lat="39.2901200" lon="-0.7658750">
        <ele>460.0</ele>
        <time>2018-09-16T09:38:57Z</time>
      </trkpt>
      <trkpt lat="39.2901200" lon="-0.7658750">
        <ele>460.0</ele>
        <time>2018-09-16T09:38:58Z</time>
      </trkpt>
      <trkpt lat="39.2901120" lon="-0.7658280">
        <ele>461.0</ele>
        <time>2018-09-16T09:38:59Z</time>
      </trkpt>
      <trkpt lat="39.2901120" lon="-0.7658280">
        <ele>461.0</ele>
        <time>2018-09-16T09:39:00Z</time>
      </trkpt>
      <trkpt lat="39.2900980" lon="-0.7657870">
        <ele>461.0</ele>
        <time>2018-09-16T09:39:01Z</time>
      </trkpt>
      <trkpt lat="39.2900980" lon="-0.7657870">
        <ele>461.0</ele>
        <time>2018-09-16T09:39:02Z</time>
      </trkpt>
      <trkpt lat="39.2900880" lon="-0.7657350">
        <ele>461.0</ele>
        <time>2018-09-16T09:39:03Z</time>
      </trkpt>
      <trkpt lat="39.2900820" lon="-0.7657100">
        <ele>462.0</ele>
        <time>2018-09-16T09:39:04Z</time>
      </trkpt>
      <trkpt lat="39.2900820" lon="-0.7657100">
        <ele>462.0</ele>
        <time>2018-09-16T09:39:05Z</time>
      </trkpt>
      <trkpt lat="39.2900700" lon="-0.7656580">
        <ele>462.0</ele>
        <time>2018-09-16T09:39:06Z</time>
      </trkpt>
      <trkpt lat="39.2900700" lon="-0.7656580">
        <ele>463.0</ele>
        <time>2018-09-16T09:39:07Z</time>
      </trkpt>
      <trkpt lat="39.2900580" lon="-0.7656120">
        <ele>463.0</ele>
        <time>2018-09-16T09:39:08Z</time>
      </trkpt>
      <trkpt lat="39.2900520" lon="-0.7655880">
        <ele>463.0</ele>
        <time>2018-09-16T09:39:09Z</time>
      </trkpt>
      <trkpt lat="39.2900520" lon="-0.7655880">
        <ele>463.0</ele>
        <time>2018-09-16T09:39:10Z</time>
      </trkpt>
      <trkpt lat="39.2900400" lon="-0.7655380">
        <ele>463.0</ele>
        <time>2018-09-16T09:39:11Z</time>
      </trkpt>
      <trkpt lat="39.2900330" lon="-0.7655130">
        <ele>464.0</ele>
        <time>2018-09-16T09:39:12Z</time>
      </trkpt>
      <trkpt lat="39.2900330" lon="-0.7655130">
        <ele>464.0</ele>
        <time>2018-09-16T09:39:13Z</time>
      </trkpt>
      <trkpt lat="39.2900200" lon="-0.7654630">
        <ele>464.0</ele>
        <time>2018-09-16T09:39:14Z</time>
      </trkpt>
      <trkpt lat="39.2900200" lon="-0.7654630">
        <ele>464.0</ele>
        <time>2018-09-16T09:39:15Z</time>
      </trkpt>
      <trkpt lat="39.2900070" lon="-0.7654100">
        <ele>465.0</ele>
        <time>2018-09-16T09:39:16Z</time>
      </trkpt>
      <trkpt lat="39.2900070" lon="-0.7654100">
        <ele>465.0</ele>
        <time>2018-09-16T09:39:17Z</time>
      </trkpt>
      <trkpt lat="39.2899970" lon="-0.7653580">
        <ele>465.0</ele>
        <time>2018-09-16T09:39:18Z</time>
      </trkpt>
      <trkpt lat="39.2899950" lon="-0.7653330">
        <ele>465.0</ele>
        <time>2018-09-16T09:39:19Z</time>
      </trkpt>
      <trkpt lat="39.2899950" lon="-0.7653330">
        <ele>465.0</ele>
        <time>2018-09-16T09:39:20Z</time>
      </trkpt>
      <trkpt lat="39.2899850" lon="-0.7652870">
        <ele>465.0</ele>
        <time>2018-09-16T09:39:21Z</time>
      </trkpt>
      <trkpt lat="39.2899820" lon="-0.7652630">
        <ele>466.0</ele>
        <time>2018-09-16T09:39:22Z</time>
      </trkpt>
      <trkpt lat="39.2899820" lon="-0.7652630">
        <ele>466.0</ele>
        <time>2018-09-16T09:39:23Z</time>
      </trkpt>
      <trkpt lat="39.2899770" lon="-0.7652150">
        <ele>466.0</ele>
        <time>2018-09-16T09:39:24Z</time>
      </trkpt>
      <trkpt lat="39.2899730" lon="-0.7651920">
        <ele>466.0</ele>
        <time>2018-09-16T09:39:25Z</time>
      </trkpt>
      <trkpt lat="39.2899730" lon="-0.7651920">
        <ele>467.0</ele>
        <time>2018-09-16T09:39:26Z</time>
      </trkpt>
      <trkpt lat="39.2899670" lon="-0.7651470">
        <ele>467.0</ele>
        <time>2018-09-16T09:39:27Z</time>
      </trkpt>
      <trkpt lat="39.2899670" lon="-0.7651470">
        <ele>467.0</ele>
        <time>2018-09-16T09:39:28Z</time>
      </trkpt>
      <trkpt lat="39.2899600" lon="-0.7651020">
        <ele>467.0</ele>
        <time>2018-09-16T09:39:29Z</time>
      </trkpt>
      <trkpt lat="39.2899600" lon="-0.7651020">
        <ele>467.0</ele>
        <time>2018-09-16T09:39:30Z</time>
      </trkpt>
      <trkpt lat="39.2899500" lon="-0.7650570">
        <ele>468.0</ele>
        <time>2018-09-16T09:39:31Z</time>
      </trkpt>
      <trkpt lat="39.2899500" lon="-0.7650570">
        <ele>468.0</ele>
        <time>2018-09-16T09:39:32Z</time>
      </trkpt>
      <trkpt lat="39.2899430" lon="-0.7650080">
        <ele>468.0</ele>
        <time>2018-09-16T09:39:33Z</time>
      </trkpt>
      <trkpt lat="39.2899430" lon="-0.7650080">
        <ele>469.0</ele>
        <time>2018-09-16T09:39:34Z</time>
      </trkpt>
      <trkpt lat="39.2899370" lon="-0.7649600">
        <ele>469.0</ele>
        <time>2018-09-16T09:39:35Z</time>
      </trkpt>
      <trkpt lat="39.2899370" lon="-0.7649600">
        <ele>469.0</ele>
        <time>2018-09-16T09:39:36Z</time>
      </trkpt>
      <trkpt lat="39.2899250" lon="-0.7649120">
        <ele>469.0</ele>
        <time>2018-09-16T09:39:37Z</time>
      </trkpt>
      <trkpt lat="39.2899250" lon="-0.7649120">
        <ele>470.0</ele>
        <time>2018-09-16T09:39:38Z</time>
      </trkpt>
      <trkpt lat="39.2899130" lon="-0.7648620">
        <ele>470.0</ele>
        <time>2018-09-16T09:39:39Z</time>
      </trkpt>
      <trkpt lat="39.2899080" lon="-0.7648380">
        <ele>470.0</ele>
        <time>2018-09-16T09:39:40Z</time>
      </trkpt>
      <trkpt lat="39.2899080" lon="-0.7648380">
        <ele>470.0</ele>
        <time>2018-09-16T09:39:41Z</time>
      </trkpt>
      <trkpt lat="39.2898970" lon="-0.7647920">
        <ele>470.0</ele>
        <time>2018-09-16T09:39:42Z</time>
      </trkpt>
      <trkpt lat="39.2898970" lon="-0.7647920">
        <ele>470.0</ele>
        <time>2018-09-16T09:39:43Z</time>
      </trkpt>
      <trkpt lat="39.2898830" lon="-0.7647480">
        <ele>470.0</ele>
        <time>2018-09-16T09:39:44Z</time>
      </trkpt>
      <trkpt lat="39.2898830" lon="-0.7647480">
        <ele>470.0</ele>
        <time>2018-09-16T09:39:45Z</time>
      </trkpt>
      <trkpt lat="39.2898770" lon="-0.7647120">
        <ele>470.0</ele>
        <time>2018-09-16T09:39:46Z</time>
      </trkpt>
      <trkpt lat="39.2898720" lon="-0.7646950">
        <ele>471.0</ele>
        <time>2018-09-16T09:39:47Z</time>
      </trkpt>
      <trkpt lat="39.2898720" lon="-0.7646950">
        <ele>471.0</ele>
        <time>2018-09-16T09:39:48Z</time>
      </trkpt>
      <trkpt lat="39.2898570" lon="-0.7646570">
        <ele>471.0</ele>
        <time>2018-09-16T09:39:49Z</time>
      </trkpt>
      <trkpt lat="39.2898570" lon="-0.7646570">
        <ele>471.0</ele>
        <time>2018-09-16T09:39:50Z</time>
      </trkpt>
      <trkpt lat="39.2898380" lon="-0.7646180">
        <ele>471.0</ele>
        <time>2018-09-16T09:39:51Z</time>
      </trkpt>
      <trkpt lat="39.2898380" lon="-0.7646180">
        <ele>471.0</ele>
        <time>2018-09-16T09:39:52Z</time>
      </trkpt>
      <trkpt lat="39.2898170" lon="-0.7645830">
        <ele>472.0</ele>
        <time>2018-09-16T09:39:53Z</time>
      </trkpt>
      <trkpt lat="39.2898030" lon="-0.7645720">
        <ele>472.0</ele>
        <time>2018-09-16T09:39:54Z</time>
      </trkpt>
      <trkpt lat="39.2897850" lon="-0.7645650">
        <ele>472.0</ele>
        <time>2018-09-16T09:39:55Z</time>
      </trkpt>
      <trkpt lat="39.2897850" lon="-0.7645650">
        <ele>472.0</ele>
        <time>2018-09-16T09:39:56Z</time>
      </trkpt>
      <trkpt lat="39.2897500" lon="-0.7645620">
        <ele>472.0</ele>
        <time>2018-09-16T09:39:57Z</time>
      </trkpt>
      <trkpt lat="39.2897500" lon="-0.7645620">
        <ele>472.0</ele>
        <time>2018-09-16T09:39:58Z</time>
      </trkpt>
      <trkpt lat="39.2897180" lon="-0.7645720">
        <ele>473.0</ele>
        <time>2018-09-16T09:39:59Z</time>
      </trkpt>
      <trkpt lat="39.2897030" lon="-0.7645770">
        <ele>473.0</ele>
        <time>2018-09-16T09:40:00Z</time>
      </trkpt>
      <trkpt lat="39.2897030" lon="-0.7645770">
        <ele>473.0</ele>
        <time>2018-09-16T09:40:01Z</time>
      </trkpt>
      <trkpt lat="39.2896750" lon="-0.7645920">
        <ele>474.0</ele>
        <time>2018-09-16T09:40:02Z</time>
      </trkpt>
      <trkpt lat="39.2896750" lon="-0.7645920">
        <ele>474.0</ele>
        <time>2018-09-16T09:40:03Z</time>
      </trkpt>
      <trkpt lat="39.2896480" lon="-0.7646200">
        <ele>474.0</ele>
        <time>2018-09-16T09:40:04Z</time>
      </trkpt>
      <trkpt lat="39.2896480" lon="-0.7646200">
        <ele>474.0</ele>
        <time>2018-09-16T09:40:05Z</time>
      </trkpt>
      <trkpt lat="39.2896200" lon="-0.7646500">
        <ele>474.0</ele>
        <time>2018-09-16T09:40:06Z</time>
      </trkpt>
      <trkpt lat="39.2896070" lon="-0.7646630">
        <ele>474.0</ele>
        <time>2018-09-16T09:40:07Z</time>
      </trkpt>
      <trkpt lat="39.2896070" lon="-0.7646630">
        <ele>475.0</ele>
        <time>2018-09-16T09:40:08Z</time>
      </trkpt>
      <trkpt lat="39.2895830" lon="-0.7646980">
        <ele>475.0</ele>
        <time>2018-09-16T09:40:09Z</time>
      </trkpt>
      <trkpt lat="39.2895720" lon="-0.7647130">
        <ele>475.0</ele>
        <time>2018-09-16T09:40:10Z</time>
      </trkpt>
      <trkpt lat="39.2895720" lon="-0.7647130">
        <ele>475.0</ele>
        <time>2018-09-16T09:40:11Z</time>
      </trkpt>
      <trkpt lat="39.2895480" lon="-0.7647430">
        <ele>475.0</ele>
        <time>2018-09-16T09:40:12Z</time>
      </trkpt>
      <trkpt lat="39.2895480" lon="-0.7647430">
        <ele>475.0</ele>
        <time>2018-09-16T09:40:13Z</time>
      </trkpt>
      <trkpt lat="39.2895200" lon="-0.7647730">
        <ele>475.0</ele>
        <time>2018-09-16T09:40:14Z</time>
      </trkpt>
      <trkpt lat="39.2895200" lon="-0.7647730">
        <ele>476.0</ele>
        <time>2018-09-16T09:40:15Z</time>
      </trkpt>
      <trkpt lat="39.2894920" lon="-0.7648020">
        <ele>476.0</ele>
        <time>2018-09-16T09:40:16Z</time>
      </trkpt>
      <trkpt lat="39.2894800" lon="-0.7648170">
        <ele>476.0</ele>
        <time>2018-09-16T09:40:17Z</time>
      </trkpt>
      <trkpt lat="39.2894800" lon="-0.7648170">
        <ele>476.0</ele>
        <time>2018-09-16T09:40:18Z</time>
      </trkpt>
      <trkpt lat="39.2894530" lon="-0.7648380">
        <ele>477.0</ele>
        <time>2018-09-16T09:40:19Z</time>
      </trkpt>
      <trkpt lat="39.2894370" lon="-0.7648470">
        <ele>477.0</ele>
        <time>2018-09-16T09:40:20Z</time>
      </trkpt>
      <trkpt lat="39.2894370" lon="-0.7648470">
        <ele>477.0</ele>
        <time>2018-09-16T09:40:21Z</time>
      </trkpt>
      <trkpt lat="39.2894030" lon="-0.7648680">
        <ele>477.0</ele>
        <time>2018-09-16T09:40:22Z</time>
      </trkpt>
      <trkpt lat="39.2894030" lon="-0.7648680">
        <ele>477.0</ele>
        <time>2018-09-16T09:40:23Z</time>
      </trkpt>
      <trkpt lat="39.2893720" lon="-0.7648870">
        <ele>477.0</ele>
        <time>2018-09-16T09:40:24Z</time>
      </trkpt>
      <trkpt lat="39.2893720" lon="-0.7648870">
        <ele>477.0</ele>
        <time>2018-09-16T09:40:25Z</time>
      </trkpt>
      <trkpt lat="39.2893370" lon="-0.7648880">
        <ele>477.0</ele>
        <time>2018-09-16T09:40:26Z</time>
      </trkpt>
      <trkpt lat="39.2893370" lon="-0.7648880">
        <ele>478.0</ele>
        <time>2018-09-16T09:40:27Z</time>
      </trkpt>
      <trkpt lat="39.2892930" lon="-0.7648870">
        <ele>478.0</ele>
        <time>2018-09-16T09:40:28Z</time>
      </trkpt>
      <trkpt lat="39.2892780" lon="-0.7648820">
        <ele>478.0</ele>
        <time>2018-09-16T09:40:29Z</time>
      </trkpt>
      <trkpt lat="39.2892780" lon="-0.7648820">
        <ele>479.0</ele>
        <time>2018-09-16T09:40:30Z</time>
      </trkpt>
      <trkpt lat="39.2892500" lon="-0.7648620">
        <ele>479.0</ele>
        <time>2018-09-16T09:40:31Z</time>
      </trkpt>
      <trkpt lat="39.2892500" lon="-0.7648620">
        <ele>479.0</ele>
        <time>2018-09-16T09:40:32Z</time>
      </trkpt>
      <trkpt lat="39.2892220" lon="-0.7648400">
        <ele>479.0</ele>
        <time>2018-09-16T09:40:33Z</time>
      </trkpt>
      <trkpt lat="39.2892100" lon="-0.7648250">
        <ele>479.0</ele>
        <time>2018-09-16T09:40:34Z</time>
      </trkpt>
      <trkpt lat="39.2891980" lon="-0.7648100">
        <ele>479.0</ele>
        <time>2018-09-16T09:40:35Z</time>
      </trkpt>
      <trkpt lat="39.2891980" lon="-0.7648100">
        <ele>481.0</ele>
        <time>2018-09-16T09:40:36Z</time>
      </trkpt>
      <trkpt lat="39.2891730" lon="-0.7647800">
        <ele>481.0</ele>
        <time>2018-09-16T09:40:37Z</time>
      </trkpt>
      <trkpt lat="39.2891730" lon="-0.7647800">
        <ele>481.0</ele>
        <time>2018-09-16T09:40:38Z</time>
      </trkpt>
      <trkpt lat="39.2891520" lon="-0.7647470">
        <ele>481.0</ele>
        <time>2018-09-16T09:40:39Z</time>
      </trkpt>
      <trkpt lat="39.2891520" lon="-0.7647470">
        <ele>481.0</ele>
        <time>2018-09-16T09:40:40Z</time>
      </trkpt>
      <trkpt lat="39.2891280" lon="-0.7647120">
        <ele>481.0</ele>
        <time>2018-09-16T09:40:41Z</time>
      </trkpt>
      <trkpt lat="39.2891170" lon="-0.7646970">
        <ele>482.0</ele>
        <time>2018-09-16T09:40:42Z</time>
      </trkpt>
      <trkpt lat="39.2891070" lon="-0.7646820">
        <ele>482.0</ele>
        <time>2018-09-16T09:40:43Z</time>
      </trkpt>
      <trkpt lat="39.2891070" lon="-0.7646820">
        <ele>482.0</ele>
        <time>2018-09-16T09:40:44Z</time>
      </trkpt>
      <trkpt lat="39.2890850" lon="-0.7646520">
        <ele>482.0</ele>
        <time>2018-09-16T09:40:45Z</time>
      </trkpt>
      <trkpt lat="39.2890850" lon="-0.7646520">
        <ele>482.0</ele>
        <time>2018-09-16T09:40:46Z</time>
      </trkpt>
      <trkpt lat="39.2890630" lon="-0.7646200">
        <ele>482.0</ele>
        <time>2018-09-16T09:40:47Z</time>
      </trkpt>
      <trkpt lat="39.2890630" lon="-0.7646200">
        <ele>482.0</ele>
        <time>2018-09-16T09:40:48Z</time>
      </trkpt>
      <trkpt lat="39.2890380" lon="-0.7645880">
        <ele>482.0</ele>
        <time>2018-09-16T09:40:49Z</time>
      </trkpt>
      <trkpt lat="39.2890380" lon="-0.7645880">
        <ele>483.0</ele>
        <time>2018-09-16T09:40:50Z</time>
      </trkpt>
      <trkpt lat="39.2890150" lon="-0.7645570">
        <ele>483.0</ele>
        <time>2018-09-16T09:40:51Z</time>
      </trkpt>
      <trkpt lat="39.2890150" lon="-0.7645570">
        <ele>483.0</ele>
        <time>2018-09-16T09:40:52Z</time>
      </trkpt>
      <trkpt lat="39.2889920" lon="-0.7645300">
        <ele>484.0</ele>
        <time>2018-09-16T09:40:53Z</time>
      </trkpt>
      <trkpt lat="39.2889920" lon="-0.7645300">
        <ele>484.0</ele>
        <time>2018-09-16T09:40:54Z</time>
      </trkpt>
      <trkpt lat="39.2889680" lon="-0.7645000">
        <ele>484.0</ele>
        <time>2018-09-16T09:40:55Z</time>
      </trkpt>
      <trkpt lat="39.2889680" lon="-0.7645000">
        <ele>484.0</ele>
        <time>2018-09-16T09:40:56Z</time>
      </trkpt>
      <trkpt lat="39.2889480" lon="-0.7644680">
        <ele>484.0</ele>
        <time>2018-09-16T09:40:57Z</time>
      </trkpt>
      <trkpt lat="39.2889480" lon="-0.7644680">
        <ele>484.0</ele>
        <time>2018-09-16T09:40:58Z</time>
      </trkpt>
      <trkpt lat="39.2889230" lon="-0.7644400">
        <ele>485.0</ele>
        <time>2018-09-16T09:40:59Z</time>
      </trkpt>
      <trkpt lat="39.2889230" lon="-0.7644400">
        <ele>485.0</ele>
        <time>2018-09-16T09:41:00Z</time>
      </trkpt>
      <trkpt lat="39.2889000" lon="-0.7644070">
        <ele>485.0</ele>
        <time>2018-09-16T09:41:01Z</time>
      </trkpt>
      <trkpt lat="39.2889000" lon="-0.7644070">
        <ele>485.0</ele>
        <time>2018-09-16T09:41:02Z</time>
      </trkpt>
      <trkpt lat="39.2888770" lon="-0.7643720">
        <ele>486.0</ele>
        <time>2018-09-16T09:41:03Z</time>
      </trkpt>
      <trkpt lat="39.2888770" lon="-0.7643720">
        <ele>486.0</ele>
        <time>2018-09-16T09:41:04Z</time>
      </trkpt>
      <trkpt lat="39.2888550" lon="-0.7643380">
        <ele>486.0</ele>
        <time>2018-09-16T09:41:05Z</time>
      </trkpt>
      <trkpt lat="39.2888550" lon="-0.7643380">
        <ele>486.0</ele>
        <time>2018-09-16T09:41:06Z</time>
      </trkpt>
      <trkpt lat="39.2888350" lon="-0.7643020">
        <ele>486.0</ele>
        <time>2018-09-16T09:41:07Z</time>
      </trkpt>
      <trkpt lat="39.2888350" lon="-0.7643020">
        <ele>486.0</ele>
        <time>2018-09-16T09:41:08Z</time>
      </trkpt>
      <trkpt lat="39.2888200" lon="-0.7642600">
        <ele>486.0</ele>
        <time>2018-09-16T09:41:09Z</time>
      </trkpt>
      <trkpt lat="39.2888130" lon="-0.7642400">
        <ele>486.0</ele>
        <time>2018-09-16T09:41:10Z</time>
      </trkpt>
      <trkpt lat="39.2888130" lon="-0.7642400">
        <ele>488.0</ele>
        <time>2018-09-16T09:41:11Z</time>
      </trkpt>
      <trkpt lat="39.2887920" lon="-0.7642030">
        <ele>488.0</ele>
        <time>2018-09-16T09:41:12Z</time>
      </trkpt>
      <trkpt lat="39.2887820" lon="-0.7641820">
        <ele>488.0</ele>
        <time>2018-09-16T09:41:13Z</time>
      </trkpt>
      <trkpt lat="39.2887820" lon="-0.7641820">
        <ele>488.0</ele>
        <time>2018-09-16T09:41:14Z</time>
      </trkpt>
      <trkpt lat="39.2887670" lon="-0.7641380">
        <ele>488.0</ele>
        <time>2018-09-16T09:41:15Z</time>
      </trkpt>
      <trkpt lat="39.2887670" lon="-0.7641380">
        <ele>488.0</ele>
        <time>2018-09-16T09:41:16Z</time>
      </trkpt>
      <trkpt lat="39.2887520" lon="-0.7640950">
        <ele>489.0</ele>
        <time>2018-09-16T09:41:17Z</time>
      </trkpt>
      <trkpt lat="39.2887430" lon="-0.7640750">
        <ele>489.0</ele>
        <time>2018-09-16T09:41:18Z</time>
      </trkpt>
      <trkpt lat="39.2887380" lon="-0.7640520">
        <ele>489.0</ele>
        <time>2018-09-16T09:41:19Z</time>
      </trkpt>
      <trkpt lat="39.2887380" lon="-0.7640520">
        <ele>490.0</ele>
        <time>2018-09-16T09:41:20Z</time>
      </trkpt>
      <trkpt lat="39.2887280" lon="-0.7640080">
        <ele>490.0</ele>
        <time>2018-09-16T09:41:21Z</time>
      </trkpt>
      <trkpt lat="39.2887280" lon="-0.7640080">
        <ele>490.0</ele>
        <time>2018-09-16T09:41:22Z</time>
      </trkpt>
      <trkpt lat="39.2887200" lon="-0.7639630">
        <ele>490.0</ele>
        <time>2018-09-16T09:41:23Z</time>
      </trkpt>
      <trkpt lat="39.2887170" lon="-0.7639420">
        <ele>490.0</ele>
        <time>2018-09-16T09:41:24Z</time>
      </trkpt>
      <trkpt lat="39.2887150" lon="-0.7639170">
        <ele>490.0</ele>
        <time>2018-09-16T09:41:25Z</time>
      </trkpt>
      <trkpt lat="39.2887150" lon="-0.7639170">
        <ele>490.0</ele>
        <time>2018-09-16T09:41:26Z</time>
      </trkpt>
      <trkpt lat="39.2887150" lon="-0.7638700">
        <ele>490.0</ele>
        <time>2018-09-16T09:41:27Z</time>
      </trkpt>
      <trkpt lat="39.2887150" lon="-0.7638700">
        <ele>490.0</ele>
        <time>2018-09-16T09:41:28Z</time>
      </trkpt>
      <trkpt lat="39.2887150" lon="-0.7638230">
        <ele>490.0</ele>
        <time>2018-09-16T09:41:29Z</time>
      </trkpt>
      <trkpt lat="39.2887150" lon="-0.7638230">
        <ele>491.0</ele>
        <time>2018-09-16T09:41:30Z</time>
      </trkpt>
      <trkpt lat="39.2887170" lon="-0.7637770">
        <ele>491.0</ele>
        <time>2018-09-16T09:41:31Z</time>
      </trkpt>
      <trkpt lat="39.2887170" lon="-0.7637770">
        <ele>491.0</ele>
        <time>2018-09-16T09:41:32Z</time>
      </trkpt>
      <trkpt lat="39.2887270" lon="-0.7637320">
        <ele>491.0</ele>
        <time>2018-09-16T09:41:33Z</time>
      </trkpt>
      <trkpt lat="39.2887270" lon="-0.7637320">
        <ele>492.0</ele>
        <time>2018-09-16T09:41:34Z</time>
      </trkpt>
      <trkpt lat="39.2887420" lon="-0.7636870">
        <ele>492.0</ele>
        <time>2018-09-16T09:41:35Z</time>
      </trkpt>
      <trkpt lat="39.2887420" lon="-0.7636870">
        <ele>492.0</ele>
        <time>2018-09-16T09:41:36Z</time>
      </trkpt>
      <trkpt lat="39.2887570" lon="-0.7636450">
        <ele>492.0</ele>
        <time>2018-09-16T09:41:37Z</time>
      </trkpt>
      <trkpt lat="39.2887570" lon="-0.7636450">
        <ele>492.0</ele>
        <time>2018-09-16T09:41:38Z</time>
      </trkpt>
      <trkpt lat="39.2887720" lon="-0.7636030">
        <ele>492.0</ele>
        <time>2018-09-16T09:41:39Z</time>
      </trkpt>
      <trkpt lat="39.2887720" lon="-0.7636030">
        <ele>492.0</ele>
        <time>2018-09-16T09:41:40Z</time>
      </trkpt>
      <trkpt lat="39.2887880" lon="-0.7635630">
        <ele>492.0</ele>
        <time>2018-09-16T09:41:41Z</time>
      </trkpt>
      <trkpt lat="39.2887880" lon="-0.7635630">
        <ele>493.0</ele>
        <time>2018-09-16T09:41:42Z</time>
      </trkpt>
      <trkpt lat="39.2888050" lon="-0.7635250">
        <ele>493.0</ele>
        <time>2018-09-16T09:41:43Z</time>
      </trkpt>
      <trkpt lat="39.2888050" lon="-0.7635250">
        <ele>493.0</ele>
        <time>2018-09-16T09:41:44Z</time>
      </trkpt>
      <trkpt lat="39.2888220" lon="-0.7634830">
        <ele>493.0</ele>
        <time>2018-09-16T09:41:45Z</time>
      </trkpt>
      <trkpt lat="39.2888220" lon="-0.7634830">
        <ele>494.0</ele>
        <time>2018-09-16T09:41:46Z</time>
      </trkpt>
      <trkpt lat="39.2888370" lon="-0.7634400">
        <ele>494.0</ele>
        <time>2018-09-16T09:41:47Z</time>
      </trkpt>
      <trkpt lat="39.2888370" lon="-0.7634400">
        <ele>494.0</ele>
        <time>2018-09-16T09:41:48Z</time>
      </trkpt>
      <trkpt lat="39.2888500" lon="-0.7633980">
        <ele>494.0</ele>
        <time>2018-09-16T09:41:49Z</time>
      </trkpt>
      <trkpt lat="39.2888500" lon="-0.7633980">
        <ele>494.0</ele>
        <time>2018-09-16T09:41:50Z</time>
      </trkpt>
      <trkpt lat="39.2888620" lon="-0.7633550">
        <ele>495.0</ele>
        <time>2018-09-16T09:41:51Z</time>
      </trkpt>
      <trkpt lat="39.2888620" lon="-0.7633550">
        <ele>495.0</ele>
        <time>2018-09-16T09:41:52Z</time>
      </trkpt>
      <trkpt lat="39.2888720" lon="-0.7633120">
        <ele>495.0</ele>
        <time>2018-09-16T09:41:53Z</time>
      </trkpt>
      <trkpt lat="39.2888720" lon="-0.7633120">
        <ele>495.0</ele>
        <time>2018-09-16T09:41:54Z</time>
      </trkpt>
      <trkpt lat="39.2888780" lon="-0.7632670">
        <ele>495.0</ele>
        <time>2018-09-16T09:41:55Z</time>
      </trkpt>
      <trkpt lat="39.2888780" lon="-0.7632670">
        <ele>496.0</ele>
        <time>2018-09-16T09:41:56Z</time>
      </trkpt>
      <trkpt lat="39.2888830" lon="-0.7632230">
        <ele>496.0</ele>
        <time>2018-09-16T09:41:57Z</time>
      </trkpt>
      <trkpt lat="39.2888830" lon="-0.7632230">
        <ele>496.0</ele>
        <time>2018-09-16T09:41:58Z</time>
      </trkpt>
      <trkpt lat="39.2888850" lon="-0.7631820">
        <ele>496.0</ele>
        <time>2018-09-16T09:41:59Z</time>
      </trkpt>
      <trkpt lat="39.2888850" lon="-0.7631820">
        <ele>497.0</ele>
        <time>2018-09-16T09:42:00Z</time>
      </trkpt>
      <trkpt lat="39.2888780" lon="-0.7631350">
        <ele>497.0</ele>
        <time>2018-09-16T09:42:01Z</time>
      </trkpt>
      <trkpt lat="39.2888780" lon="-0.7631350">
        <ele>497.0</ele>
        <time>2018-09-16T09:42:02Z</time>
      </trkpt>
      <trkpt lat="39.2888750" lon="-0.7630900">
        <ele>497.0</ele>
        <time>2018-09-16T09:42:03Z</time>
      </trkpt>
      <trkpt lat="39.2888750" lon="-0.7630900">
        <ele>497.0</ele>
        <time>2018-09-16T09:42:04Z</time>
      </trkpt>
      <trkpt lat="39.2888670" lon="-0.7630450">
        <ele>497.0</ele>
        <time>2018-09-16T09:42:05Z</time>
      </trkpt>
      <trkpt lat="39.2888670" lon="-0.7630450">
        <ele>498.0</ele>
        <time>2018-09-16T09:42:06Z</time>
      </trkpt>
      <trkpt lat="39.2888530" lon="-0.7630020">
        <ele>498.0</ele>
        <time>2018-09-16T09:42:07Z</time>
      </trkpt>
      <trkpt lat="39.2888530" lon="-0.7630020">
        <ele>498.0</ele>
        <time>2018-09-16T09:42:08Z</time>
      </trkpt>
      <trkpt lat="39.2888370" lon="-0.7629600">
        <ele>498.0</ele>
        <time>2018-09-16T09:42:09Z</time>
      </trkpt>
      <trkpt lat="39.2888300" lon="-0.7629380">
        <ele>498.0</ele>
        <time>2018-09-16T09:42:10Z</time>
      </trkpt>
      <trkpt lat="39.2888250" lon="-0.7629170">
        <ele>498.0</ele>
        <time>2018-09-16T09:42:11Z</time>
      </trkpt>
      <trkpt lat="39.2888250" lon="-0.7629170">
        <ele>499.0</ele>
        <time>2018-09-16T09:42:12Z</time>
      </trkpt>
      <trkpt lat="39.2888120" lon="-0.7628720">
        <ele>499.0</ele>
        <time>2018-09-16T09:42:13Z</time>
      </trkpt>
      <trkpt lat="39.2888070" lon="-0.7628470">
        <ele>499.0</ele>
        <time>2018-09-16T09:42:14Z</time>
      </trkpt>
      <trkpt lat="39.2888070" lon="-0.7628470">
        <ele>500.0</ele>
        <time>2018-09-16T09:42:15Z</time>
      </trkpt>
      <trkpt lat="39.2888000" lon="-0.7628000">
        <ele>500.0</ele>
        <time>2018-09-16T09:42:16Z</time>
      </trkpt>
      <trkpt lat="39.2887970" lon="-0.7627770">
        <ele>500.0</ele>
        <time>2018-09-16T09:42:17Z</time>
      </trkpt>
      <trkpt lat="39.2887970" lon="-0.7627770">
        <ele>500.0</ele>
        <time>2018-09-16T09:42:18Z</time>
      </trkpt>
      <trkpt lat="39.2887900" lon="-0.7627300">
        <ele>501.0</ele>
        <time>2018-09-16T09:42:19Z</time>
      </trkpt>
      <trkpt lat="39.2887900" lon="-0.7627300">
        <ele>501.0</ele>
        <time>2018-09-16T09:42:20Z</time>
      </trkpt>
      <trkpt lat="39.2887830" lon="-0.7626830">
        <ele>501.0</ele>
        <time>2018-09-16T09:42:21Z</time>
      </trkpt>
      <trkpt lat="39.2887830" lon="-0.7626830">
        <ele>501.0</ele>
        <time>2018-09-16T09:42:22Z</time>
      </trkpt>
      <trkpt lat="39.2887700" lon="-0.7626420">
        <ele>502.0</ele>
        <time>2018-09-16T09:42:23Z</time>
      </trkpt>
      <trkpt lat="39.2887650" lon="-0.7626180">
        <ele>502.0</ele>
        <time>2018-09-16T09:42:24Z</time>
      </trkpt>
      <trkpt lat="39.2887600" lon="-0.7625930">
        <ele>502.0</ele>
        <time>2018-09-16T09:42:25Z</time>
      </trkpt>
      <trkpt lat="39.2887600" lon="-0.7625930">
        <ele>502.0</ele>
        <time>2018-09-16T09:42:26Z</time>
      </trkpt>
      <trkpt lat="39.2887530" lon="-0.7625430">
        <ele>502.0</ele>
        <time>2018-09-16T09:42:27Z</time>
      </trkpt>
      <trkpt lat="39.2887530" lon="-0.7625430">
        <ele>503.0</ele>
        <time>2018-09-16T09:42:28Z</time>
      </trkpt>
      <trkpt lat="39.2887480" lon="-0.7624950">
        <ele>503.0</ele>
        <time>2018-09-16T09:42:29Z</time>
      </trkpt>
      <trkpt lat="39.2887450" lon="-0.7624720">
        <ele>503.0</ele>
        <time>2018-09-16T09:42:30Z</time>
      </trkpt>
      <trkpt lat="39.2887450" lon="-0.7624720">
        <ele>503.0</ele>
        <time>2018-09-16T09:42:31Z</time>
      </trkpt>
      <trkpt lat="39.2887370" lon="-0.7624250">
        <ele>504.0</ele>
        <time>2018-09-16T09:42:32Z</time>
      </trkpt>
      <trkpt lat="39.2887370" lon="-0.7624250">
        <ele>504.0</ele>
        <time>2018-09-16T09:42:33Z</time>
      </trkpt>
      <trkpt lat="39.2887300" lon="-0.7623800">
        <ele>504.0</ele>
        <time>2018-09-16T09:42:34Z</time>
      </trkpt>
      <trkpt lat="39.2887300" lon="-0.7623800">
        <ele>504.0</ele>
        <time>2018-09-16T09:42:35Z</time>
      </trkpt>
      <trkpt lat="39.2887150" lon="-0.7623400">
        <ele>505.0</ele>
        <time>2018-09-16T09:42:36Z</time>
      </trkpt>
      <trkpt lat="39.2887080" lon="-0.7623230">
        <ele>505.0</ele>
        <time>2018-09-16T09:42:37Z</time>
      </trkpt>
      <trkpt lat="39.2887080" lon="-0.7623230">
        <ele>505.0</ele>
        <time>2018-09-16T09:42:38Z</time>
      </trkpt>
      <trkpt lat="39.2886980" lon="-0.7622880">
        <ele>505.0</ele>
        <time>2018-09-16T09:42:39Z</time>
      </trkpt>
      <trkpt lat="39.2886930" lon="-0.7622680">
        <ele>505.0</ele>
        <time>2018-09-16T09:42:40Z</time>
      </trkpt>
      <trkpt lat="39.2886880" lon="-0.7622500">
        <ele>506.0</ele>
        <time>2018-09-16T09:42:41Z</time>
      </trkpt>
      <trkpt lat="39.2886880" lon="-0.7622500">
        <ele>506.0</ele>
        <time>2018-09-16T09:42:42Z</time>
      </trkpt>
      <trkpt lat="39.2886770" lon="-0.7622150">
        <ele>506.0</ele>
        <time>2018-09-16T09:42:43Z</time>
      </trkpt>
      <trkpt lat="39.2886770" lon="-0.7622150">
        <ele>506.0</ele>
        <time>2018-09-16T09:42:44Z</time>
      </trkpt>
      <trkpt lat="39.2886620" lon="-0.7621820">
        <ele>506.0</ele>
        <time>2018-09-16T09:42:45Z</time>
      </trkpt>
      <trkpt lat="39.2886570" lon="-0.7621630">
        <ele>506.0</ele>
        <time>2018-09-16T09:42:46Z</time>
      </trkpt>
      <trkpt lat="39.2886570" lon="-0.7621630">
        <ele>507.0</ele>
        <time>2018-09-16T09:42:47Z</time>
      </trkpt>
      <trkpt lat="39.2886480" lon="-0.7621270">
        <ele>507.0</ele>
        <time>2018-09-16T09:42:48Z</time>
      </trkpt>
      <trkpt lat="39.2886430" lon="-0.7621080">
        <ele>507.0</ele>
        <time>2018-09-16T09:42:49Z</time>
      </trkpt>
      <trkpt lat="39.2886430" lon="-0.7621080">
        <ele>507.0</ele>
        <time>2018-09-16T09:42:50Z</time>
      </trkpt>
      <trkpt lat="39.2886300" lon="-0.7620750">
        <ele>507.0</ele>
        <time>2018-09-16T09:42:51Z</time>
      </trkpt>
      <trkpt lat="39.2886300" lon="-0.7620750">
        <ele>507.0</ele>
        <time>2018-09-16T09:42:52Z</time>
      </trkpt>
      <trkpt lat="39.2886170" lon="-0.7620420">
        <ele>507.0</ele>
        <time>2018-09-16T09:42:53Z</time>
      </trkpt>
      <trkpt lat="39.2886120" lon="-0.7620250">
        <ele>507.0</ele>
        <time>2018-09-16T09:42:54Z</time>
      </trkpt>
      <trkpt lat="39.2886080" lon="-0.7620100">
        <ele>507.0</ele>
        <time>2018-09-16T09:42:55Z</time>
      </trkpt>
      <trkpt lat="39.2886080" lon="-0.7620100">
        <ele>507.0</ele>
        <time>2018-09-16T09:42:56Z</time>
      </trkpt>
      <trkpt lat="39.2886000" lon="-0.7619770">
        <ele>507.0</ele>
        <time>2018-09-16T09:42:57Z</time>
      </trkpt>
      <trkpt lat="39.2886000" lon="-0.7619770">
        <ele>507.0</ele>
        <time>2018-09-16T09:42:58Z</time>
      </trkpt>
      <trkpt lat="39.2885870" lon="-0.7619480">
        <ele>508.0</ele>
        <time>2018-09-16T09:42:59Z</time>
      </trkpt>
      <trkpt lat="39.2885870" lon="-0.7619480">
        <ele>508.0</ele>
        <time>2018-09-16T09:43:00Z</time>
      </trkpt>
      <trkpt lat="39.2885730" lon="-0.7619130">
        <ele>508.0</ele>
        <time>2018-09-16T09:43:01Z</time>
      </trkpt>
      <trkpt lat="39.2885730" lon="-0.7619130">
        <ele>508.0</ele>
        <time>2018-09-16T09:43:02Z</time>
      </trkpt>
      <trkpt lat="39.2885570" lon="-0.7618800">
        <ele>508.0</ele>
        <time>2018-09-16T09:43:03Z</time>
      </trkpt>
      <trkpt lat="39.2885570" lon="-0.7618800">
        <ele>508.0</ele>
        <time>2018-09-16T09:43:04Z</time>
      </trkpt>
      <trkpt lat="39.2885400" lon="-0.7618450">
        <ele>509.0</ele>
        <time>2018-09-16T09:43:05Z</time>
      </trkpt>
      <trkpt lat="39.2885400" lon="-0.7618450">
        <ele>509.0</ele>
        <time>2018-09-16T09:43:06Z</time>
      </trkpt>
      <trkpt lat="39.2885220" lon="-0.7618150">
        <ele>509.0</ele>
        <time>2018-09-16T09:43:07Z</time>
      </trkpt>
      <trkpt lat="39.2885220" lon="-0.7618150">
        <ele>509.0</ele>
        <time>2018-09-16T09:43:08Z</time>
      </trkpt>
      <trkpt lat="39.2885030" lon="-0.7617830">
        <ele>509.0</ele>
        <time>2018-09-16T09:43:09Z</time>
      </trkpt>
      <trkpt lat="39.2884950" lon="-0.7617670">
        <ele>509.0</ele>
        <time>2018-09-16T09:43:10Z</time>
      </trkpt>
      <trkpt lat="39.2884950" lon="-0.7617670">
        <ele>509.0</ele>
        <time>2018-09-16T09:43:11Z</time>
      </trkpt>
      <trkpt lat="39.2884820" lon="-0.7617350">
        <ele>510.0</ele>
        <time>2018-09-16T09:43:12Z</time>
      </trkpt>
      <trkpt lat="39.2884820" lon="-0.7617350">
        <ele>510.0</ele>
        <time>2018-09-16T09:43:13Z</time>
      </trkpt>
      <trkpt lat="39.2884580" lon="-0.7617080">
        <ele>510.0</ele>
        <time>2018-09-16T09:43:14Z</time>
      </trkpt>
      <trkpt lat="39.2884580" lon="-0.7617080">
        <ele>510.0</ele>
        <time>2018-09-16T09:43:15Z</time>
      </trkpt>
      <trkpt lat="39.2884380" lon="-0.7616820">
        <ele>510.0</ele>
        <time>2018-09-16T09:43:16Z</time>
      </trkpt>
      <trkpt lat="39.2884280" lon="-0.7616680">
        <ele>510.0</ele>
        <time>2018-09-16T09:43:17Z</time>
      </trkpt>
      <trkpt lat="39.2884280" lon="-0.7616680">
        <ele>511.0</ele>
        <time>2018-09-16T09:43:18Z</time>
      </trkpt>
      <trkpt lat="39.2884120" lon="-0.7616330">
        <ele>511.0</ele>
        <time>2018-09-16T09:43:19Z</time>
      </trkpt>
      <trkpt lat="39.2884120" lon="-0.7616330">
        <ele>511.0</ele>
        <time>2018-09-16T09:43:20Z</time>
      </trkpt>
      <trkpt lat="39.2884000" lon="-0.7615980">
        <ele>511.0</ele>
        <time>2018-09-16T09:43:21Z</time>
      </trkpt>
      <trkpt lat="39.2884000" lon="-0.7615980">
        <ele>512.0</ele>
        <time>2018-09-16T09:43:22Z</time>
      </trkpt>
      <trkpt lat="39.2883830" lon="-0.7615680">
        <ele>512.0</ele>
        <time>2018-09-16T09:43:23Z</time>
      </trkpt>
      <trkpt lat="39.2883830" lon="-0.7615680">
        <ele>512.0</ele>
        <time>2018-09-16T09:43:24Z</time>
      </trkpt>
      <trkpt lat="39.2883600" lon="-0.7615400">
        <ele>512.0</ele>
        <time>2018-09-16T09:43:25Z</time>
      </trkpt>
      <trkpt lat="39.2883600" lon="-0.7615400">
        <ele>512.0</ele>
        <time>2018-09-16T09:43:26Z</time>
      </trkpt>
      <trkpt lat="39.2883380" lon="-0.7615080">
        <ele>512.0</ele>
        <time>2018-09-16T09:43:27Z</time>
      </trkpt>
      <trkpt lat="39.2883380" lon="-0.7615080">
        <ele>512.0</ele>
        <time>2018-09-16T09:43:28Z</time>
      </trkpt>
      <trkpt lat="39.2883130" lon="-0.7614820">
        <ele>512.0</ele>
        <time>2018-09-16T09:43:29Z</time>
      </trkpt>
      <trkpt lat="39.2883130" lon="-0.7614820">
        <ele>512.0</ele>
        <time>2018-09-16T09:43:30Z</time>
      </trkpt>
      <trkpt lat="39.2882880" lon="-0.7614550">
        <ele>512.0</ele>
        <time>2018-09-16T09:43:31Z</time>
      </trkpt>
      <trkpt lat="39.2882780" lon="-0.7614380">
        <ele>512.0</ele>
        <time>2018-09-16T09:43:32Z</time>
      </trkpt>
      <trkpt lat="39.2882700" lon="-0.7614220">
        <ele>512.0</ele>
        <time>2018-09-16T09:43:33Z</time>
      </trkpt>
      <trkpt lat="39.2882700" lon="-0.7614220">
        <ele>512.0</ele>
        <time>2018-09-16T09:43:34Z</time>
      </trkpt>
      <trkpt lat="39.2882480" lon="-0.7613870">
        <ele>512.0</ele>
        <time>2018-09-16T09:43:35Z</time>
      </trkpt>
      <trkpt lat="39.2882380" lon="-0.7613680">
        <ele>512.0</ele>
        <time>2018-09-16T09:43:36Z</time>
      </trkpt>
      <trkpt lat="39.2882300" lon="-0.7613500">
        <ele>512.0</ele>
        <time>2018-09-16T09:43:37Z</time>
      </trkpt>
      <trkpt lat="39.2882300" lon="-0.7613500">
        <ele>512.0</ele>
        <time>2018-09-16T09:43:38Z</time>
      </trkpt>
      <trkpt lat="39.2882170" lon="-0.7613100">
        <ele>512.0</ele>
        <time>2018-09-16T09:43:39Z</time>
      </trkpt>
      <trkpt lat="39.2882100" lon="-0.7612900">
        <ele>513.0</ele>
        <time>2018-09-16T09:43:40Z</time>
      </trkpt>
      <trkpt lat="39.2882100" lon="-0.7612900">
        <ele>513.0</ele>
        <time>2018-09-16T09:43:41Z</time>
      </trkpt>
      <trkpt lat="39.2881950" lon="-0.7612520">
        <ele>513.0</ele>
        <time>2018-09-16T09:43:42Z</time>
      </trkpt>
      <trkpt lat="39.2881950" lon="-0.7612520">
        <ele>513.0</ele>
        <time>2018-09-16T09:43:43Z</time>
      </trkpt>
      <trkpt lat="39.2881800" lon="-0.7612150">
        <ele>513.0</ele>
        <time>2018-09-16T09:43:44Z</time>
      </trkpt>
      <trkpt lat="39.2881720" lon="-0.7611970">
        <ele>513.0</ele>
        <time>2018-09-16T09:43:45Z</time>
      </trkpt>
      <trkpt lat="39.2881720" lon="-0.7611970">
        <ele>514.0</ele>
        <time>2018-09-16T09:43:46Z</time>
      </trkpt>
      <trkpt lat="39.2881580" lon="-0.7611570">
        <ele>514.0</ele>
        <time>2018-09-16T09:43:47Z</time>
      </trkpt>
      <trkpt lat="39.2881520" lon="-0.7611370">
        <ele>514.0</ele>
        <time>2018-09-16T09:43:48Z</time>
      </trkpt>
      <trkpt lat="39.2881520" lon="-0.7611370">
        <ele>514.0</ele>
        <time>2018-09-16T09:43:49Z</time>
      </trkpt>
      <trkpt lat="39.2881370" lon="-0.7610970">
        <ele>514.0</ele>
        <time>2018-09-16T09:43:50Z</time>
      </trkpt>
      <trkpt lat="39.2881370" lon="-0.7610970">
        <ele>514.0</ele>
        <time>2018-09-16T09:43:51Z</time>
      </trkpt>
      <trkpt lat="39.2881220" lon="-0.7610580">
        <ele>515.0</ele>
        <time>2018-09-16T09:43:52Z</time>
      </trkpt>
      <trkpt lat="39.2881220" lon="-0.7610580">
        <ele>515.0</ele>
        <time>2018-09-16T09:43:53Z</time>
      </trkpt>
      <trkpt lat="39.2881020" lon="-0.7610250">
        <ele>515.0</ele>
        <time>2018-09-16T09:43:54Z</time>
      </trkpt>
      <trkpt lat="39.2880900" lon="-0.7610100">
        <ele>515.0</ele>
        <time>2018-09-16T09:43:55Z</time>
      </trkpt>
      <trkpt lat="39.2880900" lon="-0.7610100">
        <ele>516.0</ele>
        <time>2018-09-16T09:43:56Z</time>
      </trkpt>
      <trkpt lat="39.2880650" lon="-0.7609800">
        <ele>516.0</ele>
        <time>2018-09-16T09:43:57Z</time>
      </trkpt>
      <trkpt lat="39.2880650" lon="-0.7609800">
        <ele>516.0</ele>
        <time>2018-09-16T09:43:58Z</time>
      </trkpt>
      <trkpt lat="39.2880500" lon="-0.7609420">
        <ele>517.0</ele>
        <time>2018-09-16T09:43:59Z</time>
      </trkpt>
      <trkpt lat="39.2880500" lon="-0.7609420">
        <ele>517.0</ele>
        <time>2018-09-16T09:44:00Z</time>
      </trkpt>
      <trkpt lat="39.2880280" lon="-0.7609100">
        <ele>517.0</ele>
        <time>2018-09-16T09:44:01Z</time>
      </trkpt>
      <trkpt lat="39.2880280" lon="-0.7609100">
        <ele>517.0</ele>
        <time>2018-09-16T09:44:02Z</time>
      </trkpt>
      <trkpt lat="39.2880030" lon="-0.7608800">
        <ele>518.0</ele>
        <time>2018-09-16T09:44:03Z</time>
      </trkpt>
      <trkpt lat="39.2880030" lon="-0.7608800">
        <ele>518.0</ele>
        <time>2018-09-16T09:44:04Z</time>
      </trkpt>
      <trkpt lat="39.2879780" lon="-0.7608550">
        <ele>518.0</ele>
        <time>2018-09-16T09:44:05Z</time>
      </trkpt>
      <trkpt lat="39.2879780" lon="-0.7608550">
        <ele>518.0</ele>
        <time>2018-09-16T09:44:06Z</time>
      </trkpt>
      <trkpt lat="39.2879520" lon="-0.7608350">
        <ele>519.0</ele>
        <time>2018-09-16T09:44:07Z</time>
      </trkpt>
      <trkpt lat="39.2879520" lon="-0.7608350">
        <ele>519.0</ele>
        <time>2018-09-16T09:44:08Z</time>
      </trkpt>
      <trkpt lat="39.2879180" lon="-0.7608270">
        <ele>519.0</ele>
        <time>2018-09-16T09:44:09Z</time>
      </trkpt>
      <trkpt lat="39.2879030" lon="-0.7608220">
        <ele>519.0</ele>
        <time>2018-09-16T09:44:10Z</time>
      </trkpt>
      <trkpt lat="39.2879030" lon="-0.7608220">
        <ele>520.0</ele>
        <time>2018-09-16T09:44:11Z</time>
      </trkpt>
      <trkpt lat="39.2878720" lon="-0.7608120">
        <ele>520.0</ele>
        <time>2018-09-16T09:44:12Z</time>
      </trkpt>
      <trkpt lat="39.2878550" lon="-0.7608100">
        <ele>520.0</ele>
        <time>2018-09-16T09:44:13Z</time>
      </trkpt>
      <trkpt lat="39.2878400" lon="-0.7607130">
        <ele>520.0</ele>
        <time>2018-09-16T09:45:41Z</time>
      </trkpt>
      <trkpt lat="39.2878470" lon="-0.7607090">
        <ele>521.0</ele>
        <time>2018-09-16T09:45:42Z</time>
      </trkpt>
      <trkpt lat="39.2878540" lon="-0.7607060">
        <ele>521.0</ele>
        <time>2018-09-16T09:45:43Z</time>
      </trkpt>
      <trkpt lat="39.2878610" lon="-0.7607020">
        <ele>521.0</ele>
        <time>2018-09-16T09:45:44Z</time>
      </trkpt>
      <trkpt lat="39.2878680" lon="-0.7606980">
        <ele>521.0</ele>
        <time>2018-09-16T09:45:45Z</time>
      </trkpt>
      <trkpt lat="39.2878750" lon="-0.7606940">
        <ele>521.0</ele>
        <time>2018-09-16T09:45:46Z</time>
      </trkpt>
      <trkpt lat="39.2878830" lon="-0.7606910">
        <ele>521.0</ele>
        <time>2018-09-16T09:45:47Z</time>
      </trkpt>
      <trkpt lat="39.2878900" lon="-0.7606870">
        <ele>521.0</ele>
        <time>2018-09-16T09:45:48Z</time>
      </trkpt>
      <trkpt lat="39.2878970" lon="-0.7606830">
        <ele>521.0</ele>
        <time>2018-09-16T09:45:49Z</time>
      </trkpt>
      <trkpt lat="39.2879040" lon="-0.7606790">
        <ele>521.0</ele>
        <time>2018-09-16T09:45:50Z</time>
      </trkpt>
      <trkpt lat="39.2879110" lon="-0.7606760">
        <ele>521.0</ele>
        <time>2018-09-16T09:47:29Z</time>
      </trkpt>
      <trkpt lat="39.2879180" lon="-0.7606720">
        <ele>521.0</ele>
        <time>2018-09-16T09:47:30Z</time>
      </trkpt>
      <trkpt lat="39.2879250" lon="-0.7606680">
        <ele>521.0</ele>
        <time>2018-09-16T09:47:31Z</time>
      </trkpt>
      <trkpt lat="39.2879250" lon="-0.7606680">
        <ele>521.0</ele>
        <time>2018-09-16T09:47:32Z</time>
      </trkpt>
      <trkpt lat="39.2879250" lon="-0.7606680">
        <ele>521.0</ele>
        <time>2018-09-16T09:47:33Z</time>
      </trkpt>
      <trkpt lat="39.2879250" lon="-0.7606680">
        <ele>521.0</ele>
        <time>2018-09-16T09:47:34Z</time>
      </trkpt>
      <trkpt lat="39.2879250" lon="-0.7606680">
        <ele>522.0</ele>
        <time>2018-09-16T09:47:35Z</time>
      </trkpt>
      <trkpt lat="39.2879250" lon="-0.7606680">
        <ele>522.0</ele>
        <time>2018-09-16T09:47:36Z</time>
      </trkpt>
      <trkpt lat="39.2879250" lon="-0.7606680">
        <ele>522.0</ele>
        <time>2018-09-16T09:47:37Z</time>
      </trkpt>
      <trkpt lat="39.2879250" lon="-0.7606680">
        <ele>522.0</ele>
        <time>2018-09-16T09:47:38Z</time>
      </trkpt>
      <trkpt lat="39.2879250" lon="-0.7606680">
        <ele>522.0</ele>
        <time>2018-09-16T09:47:39Z</time>
      </trkpt>
      <trkpt lat="39.2879250" lon="-0.7606680">
        <ele>522.0</ele>
        <time>2018-09-16T09:47:40Z</time>
      </trkpt>
      <trkpt lat="39.2879300" lon="-0.7606800">
        <ele>522.0</ele>
        <time>2018-09-16T09:47:41Z</time>
      </trkpt>
      <trkpt lat="39.2879300" lon="-0.7606800">
        <ele>522.0</ele>
        <time>2018-09-16T09:47:42Z</time>
      </trkpt>
      <trkpt lat="39.2879550" lon="-0.7606850">
        <ele>522.0</ele>
        <time>2018-09-16T09:47:43Z</time>
      </trkpt>
      <trkpt lat="39.2879550" lon="-0.7606850">
        <ele>522.0</ele>
        <time>2018-09-16T09:47:44Z</time>
      </trkpt>
      <trkpt lat="39.2879800" lon="-0.7606800">
        <ele>522.0</ele>
        <time>2018-09-16T09:47:45Z</time>
      </trkpt>
      <trkpt lat="39.2879800" lon="-0.7606800">
        <ele>522.0</ele>
        <time>2018-09-16T09:47:46Z</time>
      </trkpt>
      <trkpt lat="39.2880080" lon="-0.7606750">
        <ele>522.0</ele>
        <time>2018-09-16T09:47:47Z</time>
      </trkpt>
      <trkpt lat="39.2880080" lon="-0.7606750">
        <ele>522.0</ele>
        <time>2018-09-16T09:47:48Z</time>
      </trkpt>
      <trkpt lat="39.2880400" lon="-0.7606780">
        <ele>522.0</ele>
        <time>2018-09-16T09:47:49Z</time>
      </trkpt>
      <trkpt lat="39.2880400" lon="-0.7606780">
        <ele>522.0</ele>
        <time>2018-09-16T09:47:50Z</time>
      </trkpt>
      <trkpt lat="39.2880650" lon="-0.7606730">
        <ele>522.0</ele>
        <time>2018-09-16T09:47:51Z</time>
      </trkpt>
      <trkpt lat="39.2880650" lon="-0.7606730">
        <ele>522.0</ele>
        <time>2018-09-16T09:47:52Z</time>
      </trkpt>
      <trkpt lat="39.2881000" lon="-0.7606670">
        <ele>522.0</ele>
        <time>2018-09-16T09:47:53Z</time>
      </trkpt>
      <trkpt lat="39.2881170" lon="-0.7606670">
        <ele>522.0</ele>
        <time>2018-09-16T09:47:54Z</time>
      </trkpt>
      <trkpt lat="39.2881170" lon="-0.7606670">
        <ele>523.0</ele>
        <time>2018-09-16T09:47:55Z</time>
      </trkpt>
      <trkpt lat="39.2881480" lon="-0.7606670">
        <ele>523.0</ele>
        <time>2018-09-16T09:47:56Z</time>
      </trkpt>
      <trkpt lat="39.2881480" lon="-0.7606670">
        <ele>523.0</ele>
        <time>2018-09-16T09:47:57Z</time>
      </trkpt>
      <trkpt lat="39.2881780" lon="-0.7606650">
        <ele>523.0</ele>
        <time>2018-09-16T09:47:58Z</time>
      </trkpt>
      <trkpt lat="39.2881950" lon="-0.7606680">
        <ele>523.0</ele>
        <time>2018-09-16T09:47:59Z</time>
      </trkpt>
      <trkpt lat="39.2881950" lon="-0.7606680">
        <ele>523.0</ele>
        <time>2018-09-16T09:48:00Z</time>
      </trkpt>
      <trkpt lat="39.2882280" lon="-0.7606720">
        <ele>524.0</ele>
        <time>2018-09-16T09:48:01Z</time>
      </trkpt>
      <trkpt lat="39.2882280" lon="-0.7606720">
        <ele>524.0</ele>
        <time>2018-09-16T09:48:02Z</time>
      </trkpt>
      <trkpt lat="39.2882620" lon="-0.7606730">
        <ele>524.0</ele>
        <time>2018-09-16T09:48:03Z</time>
      </trkpt>
      <trkpt lat="39.2882620" lon="-0.7606730">
        <ele>524.0</ele>
        <time>2018-09-16T09:48:04Z</time>
      </trkpt>
      <trkpt lat="39.2882920" lon="-0.7606780">
        <ele>525.0</ele>
        <time>2018-09-16T09:48:05Z</time>
      </trkpt>
      <trkpt lat="39.2882920" lon="-0.7606780">
        <ele>525.0</ele>
        <time>2018-09-16T09:48:06Z</time>
      </trkpt>
      <trkpt lat="39.2883230" lon="-0.7606820">
        <ele>525.0</ele>
        <time>2018-09-16T09:48:07Z</time>
      </trkpt>
      <trkpt lat="39.2883230" lon="-0.7606820">
        <ele>525.0</ele>
        <time>2018-09-16T09:48:08Z</time>
      </trkpt>
      <trkpt lat="39.2883530" lon="-0.7606900">
        <ele>526.0</ele>
        <time>2018-09-16T09:48:09Z</time>
      </trkpt>
      <trkpt lat="39.2883530" lon="-0.7606900">
        <ele>526.0</ele>
        <time>2018-09-16T09:48:10Z</time>
      </trkpt>
      <trkpt lat="39.2883820" lon="-0.7607100">
        <ele>526.0</ele>
        <time>2018-09-16T09:48:11Z</time>
      </trkpt>
      <trkpt lat="39.2883820" lon="-0.7607100">
        <ele>526.0</ele>
        <time>2018-09-16T09:48:12Z</time>
      </trkpt>
      <trkpt lat="39.2884100" lon="-0.7607300">
        <ele>527.0</ele>
        <time>2018-09-16T09:48:13Z</time>
      </trkpt>
      <trkpt lat="39.2884250" lon="-0.7607380">
        <ele>527.0</ele>
        <time>2018-09-16T09:48:14Z</time>
      </trkpt>
      <trkpt lat="39.2884250" lon="-0.7607380">
        <ele>527.0</ele>
        <time>2018-09-16T09:48:15Z</time>
      </trkpt>
      <trkpt lat="39.2884480" lon="-0.7607550">
        <ele>527.0</ele>
        <time>2018-09-16T09:48:16Z</time>
      </trkpt>
      <trkpt lat="39.2884480" lon="-0.7607550">
        <ele>527.0</ele>
        <time>2018-09-16T09:48:17Z</time>
      </trkpt>
      <trkpt lat="39.2884720" lon="-0.7607720">
        <ele>527.0</ele>
        <time>2018-09-16T09:48:18Z</time>
      </trkpt>
      <trkpt lat="39.2884720" lon="-0.7607720">
        <ele>527.0</ele>
        <time>2018-09-16T09:48:19Z</time>
      </trkpt>
      <trkpt lat="39.2884980" lon="-0.7607870">
        <ele>527.0</ele>
        <time>2018-09-16T09:48:20Z</time>
      </trkpt>
      <trkpt lat="39.2885130" lon="-0.7607900">
        <ele>528.0</ele>
        <time>2018-09-16T09:48:21Z</time>
      </trkpt>
      <trkpt lat="39.2885270" lon="-0.7607950">
        <ele>528.0</ele>
        <time>2018-09-16T09:48:22Z</time>
      </trkpt>
      <trkpt lat="39.2885400" lon="-0.7607970">
        <ele>528.0</ele>
        <time>2018-09-16T09:48:23Z</time>
      </trkpt>
      <trkpt lat="39.2885400" lon="-0.7607970">
        <ele>528.0</ele>
        <time>2018-09-16T09:48:24Z</time>
      </trkpt>
      <trkpt lat="39.2885720" lon="-0.7608030">
        <ele>529.0</ele>
        <time>2018-09-16T09:48:25Z</time>
      </trkpt>
      <trkpt lat="39.2885720" lon="-0.7608030">
        <ele>529.0</ele>
        <time>2018-09-16T09:48:26Z</time>
      </trkpt>
      <trkpt lat="39.2886020" lon="-0.7608130">
        <ele>529.0</ele>
        <time>2018-09-16T09:48:27Z</time>
      </trkpt>
      <trkpt lat="39.2886170" lon="-0.7608220">
        <ele>529.0</ele>
        <time>2018-09-16T09:48:28Z</time>
      </trkpt>
      <trkpt lat="39.2886170" lon="-0.7608220">
        <ele>529.0</ele>
        <time>2018-09-16T09:48:29Z</time>
      </trkpt>
      <trkpt lat="39.2886500" lon="-0.7608300">
        <ele>529.0</ele>
        <time>2018-09-16T09:48:30Z</time>
      </trkpt>
      <trkpt lat="39.2886700" lon="-0.7608350">
        <ele>529.0</ele>
        <time>2018-09-16T09:48:31Z</time>
      </trkpt>
      <trkpt lat="39.2886900" lon="-0.7608380">
        <ele>529.0</ele>
        <time>2018-09-16T09:48:32Z</time>
      </trkpt>
      <trkpt lat="39.2886900" lon="-0.7608380">
        <ele>529.0</ele>
        <time>2018-09-16T09:48:33Z</time>
      </trkpt>
      <trkpt lat="39.2887320" lon="-0.7608380">
        <ele>529.0</ele>
        <time>2018-09-16T09:48:34Z</time>
      </trkpt>
      <trkpt lat="39.2887320" lon="-0.7608380">
        <ele>529.0</ele>
        <time>2018-09-16T09:48:35Z</time>
      </trkpt>
      <trkpt lat="39.2887730" lon="-0.7608320">
        <ele>529.0</ele>
        <time>2018-09-16T09:48:36Z</time>
      </trkpt>
      <trkpt lat="39.2887920" lon="-0.7608270">
        <ele>529.0</ele>
        <time>2018-09-16T09:48:37Z</time>
      </trkpt>
      <trkpt lat="39.2887920" lon="-0.7608270">
        <ele>530.0</ele>
        <time>2018-09-16T09:48:38Z</time>
      </trkpt>
      <trkpt lat="39.2888280" lon="-0.7608130">
        <ele>530.0</ele>
        <time>2018-09-16T09:48:39Z</time>
      </trkpt>
      <trkpt lat="39.2888280" lon="-0.7608130">
        <ele>530.0</ele>
        <time>2018-09-16T09:48:40Z</time>
      </trkpt>
      <trkpt lat="39.2888620" lon="-0.7607820">
        <ele>530.0</ele>
        <time>2018-09-16T09:48:41Z</time>
      </trkpt>
      <trkpt lat="39.2888620" lon="-0.7607820">
        <ele>530.0</ele>
        <time>2018-09-16T09:48:42Z</time>
      </trkpt>
      <trkpt lat="39.2888900" lon="-0.7607520">
        <ele>530.0</ele>
        <time>2018-09-16T09:48:43Z</time>
      </trkpt>
      <trkpt lat="39.2888900" lon="-0.7607520">
        <ele>530.0</ele>
        <time>2018-09-16T09:48:44Z</time>
      </trkpt>
      <trkpt lat="39.2889120" lon="-0.7607150">
        <ele>530.0</ele>
        <time>2018-09-16T09:48:45Z</time>
      </trkpt>
      <trkpt lat="39.2889220" lon="-0.7606920">
        <ele>530.0</ele>
        <time>2018-09-16T09:48:46Z</time>
      </trkpt>
      <trkpt lat="39.2889220" lon="-0.7606920">
        <ele>530.0</ele>
        <time>2018-09-16T09:48:47Z</time>
      </trkpt>
      <trkpt lat="39.2889400" lon="-0.7606470">
        <ele>530.0</ele>
        <time>2018-09-16T09:48:48Z</time>
      </trkpt>
      <trkpt lat="39.2889400" lon="-0.7606470">
        <ele>530.0</ele>
        <time>2018-09-16T09:48:49Z</time>
      </trkpt>
      <trkpt lat="39.2889530" lon="-0.7605930">
        <ele>530.0</ele>
        <time>2018-09-16T09:48:50Z</time>
      </trkpt>
      <trkpt lat="39.2889580" lon="-0.7605650">
        <ele>530.0</ele>
        <time>2018-09-16T09:48:51Z</time>
      </trkpt>
      <trkpt lat="39.2889620" lon="-0.7605380">
        <ele>530.0</ele>
        <time>2018-09-16T09:48:52Z</time>
      </trkpt>
      <trkpt lat="39.2889620" lon="-0.7605380">
        <ele>530.0</ele>
        <time>2018-09-16T09:48:53Z</time>
      </trkpt>
      <trkpt lat="39.2889700" lon="-0.7604870">
        <ele>530.0</ele>
        <time>2018-09-16T09:48:54Z</time>
      </trkpt>
      <trkpt lat="39.2889700" lon="-0.7604870">
        <ele>530.0</ele>
        <time>2018-09-16T09:48:55Z</time>
      </trkpt>
      <trkpt lat="39.2889850" lon="-0.7604370">
        <ele>531.0</ele>
        <time>2018-09-16T09:48:56Z</time>
      </trkpt>
      <trkpt lat="39.2889850" lon="-0.7604370">
        <ele>531.0</ele>
        <time>2018-09-16T09:48:57Z</time>
      </trkpt>
      <trkpt lat="39.2890020" lon="-0.7603930">
        <ele>531.0</ele>
        <time>2018-09-16T09:48:58Z</time>
      </trkpt>
      <trkpt lat="39.2890100" lon="-0.7603750">
        <ele>531.0</ele>
        <time>2018-09-16T09:48:59Z</time>
      </trkpt>
      <trkpt lat="39.2890100" lon="-0.7603750">
        <ele>531.0</ele>
        <time>2018-09-16T09:49:00Z</time>
      </trkpt>
      <trkpt lat="39.2890270" lon="-0.7603400">
        <ele>531.0</ele>
        <time>2018-09-16T09:49:01Z</time>
      </trkpt>
      <trkpt lat="39.2890270" lon="-0.7603400">
        <ele>532.0</ele>
        <time>2018-09-16T09:49:02Z</time>
      </trkpt>
      <trkpt lat="39.2890470" lon="-0.7603080">
        <ele>532.0</ele>
        <time>2018-09-16T09:49:03Z</time>
      </trkpt>
      <trkpt lat="39.2890550" lon="-0.7602980">
        <ele>532.0</ele>
        <time>2018-09-16T09:49:04Z</time>
      </trkpt>
      <trkpt lat="39.2890670" lon="-0.7602880">
        <ele>532.0</ele>
        <time>2018-09-16T09:49:05Z</time>
      </trkpt>
      <trkpt lat="39.2890670" lon="-0.7602880">
        <ele>532.0</ele>
        <time>2018-09-16T09:49:06Z</time>
      </trkpt>
      <trkpt lat="39.2890780" lon="-0.7602680">
        <ele>532.0</ele>
        <time>2018-09-16T09:49:07Z</time>
      </trkpt>
      <trkpt lat="39.2890820" lon="-0.7602640">
        <ele>532.0</ele>
        <time>2018-09-16T09:49:08Z</time>
      </trkpt>
      <trkpt lat="39.2890860" lon="-0.7602610">
        <ele>533.0</ele>
        <time>2018-09-16T09:49:09Z</time>
      </trkpt>
      <trkpt lat="39.2890900" lon="-0.7602570">
        <ele>533.0</ele>
        <time>2018-09-16T09:49:10Z</time>
      </trkpt>
      <trkpt lat="39.2890940" lon="-0.7602540">
        <ele>533.0</ele>
        <time>2018-09-16T09:49:11Z</time>
      </trkpt>
      <trkpt lat="39.2890980" lon="-0.7602500">
        <ele>533.0</ele>
        <time>2018-09-16T09:49:12Z</time>
      </trkpt>
      <trkpt lat="39.2891020" lon="-0.7602460">
        <ele>533.0</ele>
        <time>2018-09-16T09:49:13Z</time>
      </trkpt>
      <trkpt lat="39.2891060" lon="-0.7602430">
        <ele>533.0</ele>
        <time>2018-09-16T09:49:14Z</time>
      </trkpt>
      <trkpt lat="39.2891100" lon="-0.7602390">
        <ele>533.0</ele>
        <time>2018-09-16T09:49:15Z</time>
      </trkpt>
      <trkpt lat="39.2891130" lon="-0.7602360">
        <ele>533.0</ele>
        <time>2018-09-16T09:49:16Z</time>
      </trkpt>
      <trkpt lat="39.2891170" lon="-0.7602320">
        <ele>533.0</ele>
        <time>2018-09-16T09:49:17Z</time>
      </trkpt>
      <trkpt lat="39.2891210" lon="-0.7602290">
        <ele>533.0</ele>
        <time>2018-09-16T09:49:18Z</time>
      </trkpt>
      <trkpt lat="39.2891250" lon="-0.7602250">
        <ele>533.0</ele>
        <time>2018-09-16T09:49:19Z</time>
      </trkpt>
      <trkpt lat="39.2891290" lon="-0.7602210">
        <ele>533.0</ele>
        <time>2018-09-16T09:49:20Z</time>
      </trkpt>
      <trkpt lat="39.2891330" lon="-0.7602180">
        <ele>533.0</ele>
        <time>2018-09-16T09:49:21Z</time>
      </trkpt>
      <trkpt lat="39.2891370" lon="-0.7602140">
        <ele>533.0</ele>
        <time>2018-09-16T09:49:22Z</time>
      </trkpt>
      <trkpt lat="39.2891410" lon="-0.7602110">
        <ele>533.0</ele>
        <time>2018-09-16T09:49:23Z</time>
      </trkpt>
      <trkpt lat="39.2891450" lon="-0.7602070">
        <ele>533.0</ele>
        <time>2018-09-16T09:49:24Z</time>
      </trkpt>
      <trkpt lat="39.2891600" lon="-0.7601950">
        <ele>533.0</ele>
        <time>2018-09-16T09:49:25Z</time>
      </trkpt>
      <trkpt lat="39.2891600" lon="-0.7601950">
        <ele>534.0</ele>
        <time>2018-09-16T09:49:26Z</time>
      </trkpt>
      <trkpt lat="39.2891930" lon="-0.7601900">
        <ele>534.0</ele>
        <time>2018-09-16T09:49:27Z</time>
      </trkpt>
      <trkpt lat="39.2891930" lon="-0.7601900">
        <ele>534.0</ele>
        <time>2018-09-16T09:49:28Z</time>
      </trkpt>
      <trkpt lat="39.2892200" lon="-0.7601970">
        <ele>534.0</ele>
        <time>2018-09-16T09:49:29Z</time>
      </trkpt>
      <trkpt lat="39.2892200" lon="-0.7601970">
        <ele>534.0</ele>
        <time>2018-09-16T09:49:30Z</time>
      </trkpt>
      <trkpt lat="39.2892330" lon="-0.7602080">
        <ele>534.0</ele>
        <time>2018-09-16T09:49:31Z</time>
      </trkpt>
      <trkpt lat="39.2892330" lon="-0.7602080">
        <ele>534.0</ele>
        <time>2018-09-16T09:49:32Z</time>
      </trkpt>
      <trkpt lat="39.2892520" lon="-0.7602280">
        <ele>534.0</ele>
        <time>2018-09-16T09:49:33Z</time>
      </trkpt>
      <trkpt lat="39.2892600" lon="-0.7602400">
        <ele>534.0</ele>
        <time>2018-09-16T09:49:34Z</time>
      </trkpt>
      <trkpt lat="39.2892680" lon="-0.7602530">
        <ele>534.0</ele>
        <time>2018-09-16T09:49:35Z</time>
      </trkpt>
      <trkpt lat="39.2892680" lon="-0.7602530">
        <ele>534.0</ele>
        <time>2018-09-16T09:49:36Z</time>
      </trkpt>
      <trkpt lat="39.2892900" lon="-0.7602820">
        <ele>535.0</ele>
        <time>2018-09-16T09:49:37Z</time>
      </trkpt>
      <trkpt lat="39.2892900" lon="-0.7602820">
        <ele>535.0</ele>
        <time>2018-09-16T09:49:38Z</time>
      </trkpt>
      <trkpt lat="39.2893080" lon="-0.7603170">
        <ele>535.0</ele>
        <time>2018-09-16T09:49:39Z</time>
      </trkpt>
      <trkpt lat="39.2893080" lon="-0.7603170">
        <ele>535.0</ele>
        <time>2018-09-16T09:49:40Z</time>
      </trkpt>
      <trkpt lat="39.2893250" lon="-0.7603600">
        <ele>535.0</ele>
        <time>2018-09-16T09:49:41Z</time>
      </trkpt>
      <trkpt lat="39.2893380" lon="-0.7603800">
        <ele>535.0</ele>
        <time>2018-09-16T09:49:42Z</time>
      </trkpt>
      <trkpt lat="39.2893380" lon="-0.7603800">
        <ele>536.0</ele>
        <time>2018-09-16T09:49:43Z</time>
      </trkpt>
      <trkpt lat="39.2893630" lon="-0.7604200">
        <ele>536.0</ele>
        <time>2018-09-16T09:49:44Z</time>
      </trkpt>
      <trkpt lat="39.2893630" lon="-0.7604200">
        <ele>536.0</ele>
        <time>2018-09-16T09:49:45Z</time>
      </trkpt>
      <trkpt lat="39.2893850" lon="-0.7604630">
        <ele>536.0</ele>
        <time>2018-09-16T09:49:46Z</time>
      </trkpt>
      <trkpt lat="39.2893850" lon="-0.7604630">
        <ele>536.0</ele>
        <time>2018-09-16T09:49:47Z</time>
      </trkpt>
      <trkpt lat="39.2894050" lon="-0.7605050">
        <ele>536.0</ele>
        <time>2018-09-16T09:49:48Z</time>
      </trkpt>
      <trkpt lat="39.2894050" lon="-0.7605050">
        <ele>536.0</ele>
        <time>2018-09-16T09:49:49Z</time>
      </trkpt>
      <trkpt lat="39.2894220" lon="-0.7605480">
        <ele>536.0</ele>
        <time>2018-09-16T09:49:50Z</time>
      </trkpt>
      <trkpt lat="39.2894220" lon="-0.7605480">
        <ele>537.0</ele>
        <time>2018-09-16T09:49:51Z</time>
      </trkpt>
      <trkpt lat="39.2894280" lon="-0.7605980">
        <ele>537.0</ele>
        <time>2018-09-16T09:49:52Z</time>
      </trkpt>
      <trkpt lat="39.2894320" lon="-0.7606220">
        <ele>537.0</ele>
        <time>2018-09-16T09:49:53Z</time>
      </trkpt>
      <trkpt lat="39.2894320" lon="-0.7606220">
        <ele>537.0</ele>
        <time>2018-09-16T09:49:54Z</time>
      </trkpt>
      <trkpt lat="39.2894380" lon="-0.7606720">
        <ele>537.0</ele>
        <time>2018-09-16T09:49:55Z</time>
      </trkpt>
      <trkpt lat="39.2894380" lon="-0.7606970">
        <ele>538.0</ele>
        <time>2018-09-16T09:49:56Z</time>
      </trkpt>
      <trkpt lat="39.2894380" lon="-0.7606970">
        <ele>538.0</ele>
        <time>2018-09-16T09:49:57Z</time>
      </trkpt>
      <trkpt lat="39.2894370" lon="-0.7607470">
        <ele>538.0</ele>
        <time>2018-09-16T09:49:58Z</time>
      </trkpt>
      <trkpt lat="39.2894320" lon="-0.7607700">
        <ele>538.0</ele>
        <time>2018-09-16T09:49:59Z</time>
      </trkpt>
      <trkpt lat="39.2894320" lon="-0.7607700">
        <ele>538.0</ele>
        <time>2018-09-16T09:50:00Z</time>
      </trkpt>
      <trkpt lat="39.2894200" lon="-0.7608220">
        <ele>538.0</ele>
        <time>2018-09-16T09:50:01Z</time>
      </trkpt>
      <trkpt lat="39.2894200" lon="-0.7608220">
        <ele>538.0</ele>
        <time>2018-09-16T09:50:02Z</time>
      </trkpt>
      <trkpt lat="39.2894080" lon="-0.7608680">
        <ele>538.0</ele>
        <time>2018-09-16T09:50:03Z</time>
      </trkpt>
      <trkpt lat="39.2894080" lon="-0.7608680">
        <ele>539.0</ele>
        <time>2018-09-16T09:50:04Z</time>
      </trkpt>
      <trkpt lat="39.2894000" lon="-0.7609120">
        <ele>539.0</ele>
        <time>2018-09-16T09:50:05Z</time>
      </trkpt>
      <trkpt lat="39.2894000" lon="-0.7609120">
        <ele>539.0</ele>
        <time>2018-09-16T09:50:06Z</time>
      </trkpt>
      <trkpt lat="39.2893950" lon="-0.7609570">
        <ele>539.0</ele>
        <time>2018-09-16T09:50:07Z</time>
      </trkpt>
      <trkpt lat="39.2893950" lon="-0.7609570">
        <ele>539.0</ele>
        <time>2018-09-16T09:50:08Z</time>
      </trkpt>
      <trkpt lat="39.2893980" lon="-0.7610070">
        <ele>539.0</ele>
        <time>2018-09-16T09:50:09Z</time>
      </trkpt>
      <trkpt lat="39.2893980" lon="-0.7610070">
        <ele>540.0</ele>
        <time>2018-09-16T09:50:10Z</time>
      </trkpt>
      <trkpt lat="39.2894030" lon="-0.7610500">
        <ele>540.0</ele>
        <time>2018-09-16T09:50:11Z</time>
      </trkpt>
      <trkpt lat="39.2894070" lon="-0.7610730">
        <ele>540.0</ele>
        <time>2018-09-16T09:50:12Z</time>
      </trkpt>
      <trkpt lat="39.2894130" lon="-0.7610950">
        <ele>540.0</ele>
        <time>2018-09-16T09:50:13Z</time>
      </trkpt>
      <trkpt lat="39.2894130" lon="-0.7610950">
        <ele>540.0</ele>
        <time>2018-09-16T09:50:14Z</time>
      </trkpt>
      <trkpt lat="39.2894270" lon="-0.7611420">
        <ele>540.0</ele>
        <time>2018-09-16T09:50:15Z</time>
      </trkpt>
      <trkpt lat="39.2894330" lon="-0.7611630">
        <ele>541.0</ele>
        <time>2018-09-16T09:50:16Z</time>
      </trkpt>
      <trkpt lat="39.2894330" lon="-0.7611630">
        <ele>541.0</ele>
        <time>2018-09-16T09:50:17Z</time>
      </trkpt>
      <trkpt lat="39.2894420" lon="-0.7612080">
        <ele>541.0</ele>
        <time>2018-09-16T09:50:18Z</time>
      </trkpt>
      <trkpt lat="39.2894470" lon="-0.7612330">
        <ele>541.0</ele>
        <time>2018-09-16T09:50:19Z</time>
      </trkpt>
      <trkpt lat="39.2894470" lon="-0.7612330">
        <ele>541.0</ele>
        <time>2018-09-16T09:50:20Z</time>
      </trkpt>
      <trkpt lat="39.2894600" lon="-0.7612830">
        <ele>541.0</ele>
        <time>2018-09-16T09:50:21Z</time>
      </trkpt>
      <trkpt lat="39.2894650" lon="-0.7613080">
        <ele>541.0</ele>
        <time>2018-09-16T09:50:22Z</time>
      </trkpt>
      <trkpt lat="39.2894650" lon="-0.7613080">
        <ele>541.0</ele>
        <time>2018-09-16T09:50:23Z</time>
      </trkpt>
      <trkpt lat="39.2894730" lon="-0.7613600">
        <ele>541.0</ele>
        <time>2018-09-16T09:50:24Z</time>
      </trkpt>
      <trkpt lat="39.2894730" lon="-0.7613600">
        <ele>541.0</ele>
        <time>2018-09-16T09:50:25Z</time>
      </trkpt>
      <trkpt lat="39.2894780" lon="-0.7614150">
        <ele>541.0</ele>
        <time>2018-09-16T09:50:26Z</time>
      </trkpt>
      <trkpt lat="39.2894780" lon="-0.7614150">
        <ele>541.0</ele>
        <time>2018-09-16T09:50:27Z</time>
      </trkpt>
      <trkpt lat="39.2894800" lon="-0.7614700">
        <ele>541.0</ele>
        <time>2018-09-16T09:50:28Z</time>
      </trkpt>
      <trkpt lat="39.2894800" lon="-0.7614700">
        <ele>542.0</ele>
        <time>2018-09-16T09:50:29Z</time>
      </trkpt>
      <trkpt lat="39.2894850" lon="-0.7615250">
        <ele>542.0</ele>
        <time>2018-09-16T09:50:30Z</time>
      </trkpt>
      <trkpt lat="39.2894850" lon="-0.7615250">
        <ele>542.0</ele>
        <time>2018-09-16T09:50:31Z</time>
      </trkpt>
      <trkpt lat="39.2894930" lon="-0.7615820">
        <ele>542.0</ele>
        <time>2018-09-16T09:50:32Z</time>
      </trkpt>
      <trkpt lat="39.2894930" lon="-0.7615820">
        <ele>542.0</ele>
        <time>2018-09-16T09:50:33Z</time>
      </trkpt>
      <trkpt lat="39.2895030" lon="-0.7616370">
        <ele>542.0</ele>
        <time>2018-09-16T09:50:34Z</time>
      </trkpt>
      <trkpt lat="39.2895030" lon="-0.7616370">
        <ele>543.0</ele>
        <time>2018-09-16T09:50:35Z</time>
      </trkpt>
      <trkpt lat="39.2895150" lon="-0.7616950">
        <ele>543.0</ele>
        <time>2018-09-16T09:50:36Z</time>
      </trkpt>
      <trkpt lat="39.2895220" lon="-0.7617250">
        <ele>543.0</ele>
        <time>2018-09-16T09:50:37Z</time>
      </trkpt>
      <trkpt lat="39.2895220" lon="-0.7617250">
        <ele>543.0</ele>
        <time>2018-09-16T09:50:38Z</time>
      </trkpt>
      <trkpt lat="39.2895330" lon="-0.7617820">
        <ele>543.0</ele>
        <time>2018-09-16T09:50:39Z</time>
      </trkpt>
      <trkpt lat="39.2895330" lon="-0.7617820">
        <ele>543.0</ele>
        <time>2018-09-16T09:50:40Z</time>
      </trkpt>
      <trkpt lat="39.2895470" lon="-0.7618350">
        <ele>543.0</ele>
        <time>2018-09-16T09:50:41Z</time>
      </trkpt>
      <trkpt lat="39.2895470" lon="-0.7618350">
        <ele>543.0</ele>
        <time>2018-09-16T09:50:42Z</time>
      </trkpt>
      <trkpt lat="39.2895550" lon="-0.7618880">
        <ele>543.0</ele>
        <time>2018-09-16T09:50:43Z</time>
      </trkpt>
      <trkpt lat="39.2895600" lon="-0.7619180">
        <ele>543.0</ele>
        <time>2018-09-16T09:50:44Z</time>
      </trkpt>
      <trkpt lat="39.2895600" lon="-0.7619180">
        <ele>543.0</ele>
        <time>2018-09-16T09:50:45Z</time>
      </trkpt>
      <trkpt lat="39.2895750" lon="-0.7619730">
        <ele>543.0</ele>
        <time>2018-09-16T09:50:46Z</time>
      </trkpt>
      <trkpt lat="39.2895830" lon="-0.7619980">
        <ele>543.0</ele>
        <time>2018-09-16T09:50:47Z</time>
      </trkpt>
      <trkpt lat="39.2895830" lon="-0.7619980">
        <ele>543.0</ele>
        <time>2018-09-16T09:50:48Z</time>
      </trkpt>
      <trkpt lat="39.2895930" lon="-0.7620450">
        <ele>543.0</ele>
        <time>2018-09-16T09:50:49Z</time>
      </trkpt>
      <trkpt lat="39.2895930" lon="-0.7620450">
        <ele>544.0</ele>
        <time>2018-09-16T09:50:50Z</time>
      </trkpt>
      <trkpt lat="39.2896000" lon="-0.7620830">
        <ele>544.0</ele>
        <time>2018-09-16T09:50:51Z</time>
      </trkpt>
      <trkpt lat="39.2896030" lon="-0.7621020">
        <ele>544.0</ele>
        <time>2018-09-16T09:50:52Z</time>
      </trkpt>
      <trkpt lat="39.2896030" lon="-0.7621020">
        <ele>544.0</ele>
        <time>2018-09-16T09:50:53Z</time>
      </trkpt>
      <trkpt lat="39.2896200" lon="-0.7621430">
        <ele>544.0</ele>
        <time>2018-09-16T09:50:54Z</time>
      </trkpt>
      <trkpt lat="39.2896320" lon="-0.7621680">
        <ele>544.0</ele>
        <time>2018-09-16T09:50:55Z</time>
      </trkpt>
      <trkpt lat="39.2896320" lon="-0.7621680">
        <ele>544.0</ele>
        <time>2018-09-16T09:50:56Z</time>
      </trkpt>
      <trkpt lat="39.2896530" lon="-0.7622230">
        <ele>544.0</ele>
        <time>2018-09-16T09:50:57Z</time>
      </trkpt>
      <trkpt lat="39.2896530" lon="-0.7622230">
        <ele>544.0</ele>
        <time>2018-09-16T09:50:58Z</time>
      </trkpt>
      <trkpt lat="39.2896830" lon="-0.7622800">
        <ele>544.0</ele>
        <time>2018-09-16T09:50:59Z</time>
      </trkpt>
      <trkpt lat="39.2896830" lon="-0.7622800">
        <ele>544.0</ele>
        <time>2018-09-16T09:51:00Z</time>
      </trkpt>
      <trkpt lat="39.2897170" lon="-0.7623380">
        <ele>544.0</ele>
        <time>2018-09-16T09:51:01Z</time>
      </trkpt>
      <trkpt lat="39.2897170" lon="-0.7623380">
        <ele>544.0</ele>
        <time>2018-09-16T09:51:02Z</time>
      </trkpt>
      <trkpt lat="39.2897500" lon="-0.7623920">
        <ele>544.0</ele>
        <time>2018-09-16T09:51:03Z</time>
      </trkpt>
      <trkpt lat="39.2897500" lon="-0.7623920">
        <ele>544.0</ele>
        <time>2018-09-16T09:51:04Z</time>
      </trkpt>
      <trkpt lat="39.2897720" lon="-0.7624220">
        <ele>544.0</ele>
        <time>2018-09-16T09:51:05Z</time>
      </trkpt>
      <trkpt lat="39.2897800" lon="-0.7624330">
        <ele>544.0</ele>
        <time>2018-09-16T09:51:06Z</time>
      </trkpt>
      <trkpt lat="39.2897920" lon="-0.7624480">
        <ele>544.0</ele>
        <time>2018-09-16T09:51:07Z</time>
      </trkpt>
      <trkpt lat="39.2898080" lon="-0.7624680">
        <ele>544.0</ele>
        <time>2018-09-16T09:51:08Z</time>
      </trkpt>
      <trkpt lat="39.2898230" lon="-0.7624880">
        <ele>544.0</ele>
        <time>2018-09-16T09:51:09Z</time>
      </trkpt>
      <trkpt lat="39.2898400" lon="-0.7625100">
        <ele>543.0</ele>
        <time>2018-09-16T09:51:10Z</time>
      </trkpt>
      <trkpt lat="39.2898400" lon="-0.7625100">
        <ele>543.0</ele>
        <time>2018-09-16T09:51:11Z</time>
      </trkpt>
      <trkpt lat="39.2898800" lon="-0.7625400">
        <ele>543.0</ele>
        <time>2018-09-16T09:51:12Z</time>
      </trkpt>
      <trkpt lat="39.2898800" lon="-0.7625400">
        <ele>543.0</ele>
        <time>2018-09-16T09:51:13Z</time>
      </trkpt>
      <trkpt lat="39.2899330" lon="-0.7625670">
        <ele>543.0</ele>
        <time>2018-09-16T09:51:14Z</time>
      </trkpt>
      <trkpt lat="39.2899330" lon="-0.7625670">
        <ele>543.0</ele>
        <time>2018-09-16T09:51:15Z</time>
      </trkpt>
      <trkpt lat="39.2899950" lon="-0.7625900">
        <ele>543.0</ele>
        <time>2018-09-16T09:51:16Z</time>
      </trkpt>
      <trkpt lat="39.2900230" lon="-0.7626050">
        <ele>543.0</ele>
        <time>2018-09-16T09:51:17Z</time>
      </trkpt>
      <trkpt lat="39.2900230" lon="-0.7626050">
        <ele>543.0</ele>
        <time>2018-09-16T09:51:18Z</time>
      </trkpt>
      <trkpt lat="39.2900800" lon="-0.7626270">
        <ele>543.0</ele>
        <time>2018-09-16T09:51:19Z</time>
      </trkpt>
      <trkpt lat="39.2901100" lon="-0.7626380">
        <ele>543.0</ele>
        <time>2018-09-16T09:51:20Z</time>
      </trkpt>
      <trkpt lat="39.2901100" lon="-0.7626380">
        <ele>543.0</ele>
        <time>2018-09-16T09:51:21Z</time>
      </trkpt>
      <trkpt lat="39.2901680" lon="-0.7626670">
        <ele>543.0</ele>
        <time>2018-09-16T09:51:22Z</time>
      </trkpt>
      <trkpt lat="39.2901680" lon="-0.7626670">
        <ele>543.0</ele>
        <time>2018-09-16T09:51:23Z</time>
      </trkpt>
      <trkpt lat="39.2902270" lon="-0.7627000">
        <ele>543.0</ele>
        <time>2018-09-16T09:51:24Z</time>
      </trkpt>
      <trkpt lat="39.2902270" lon="-0.7627000">
        <ele>543.0</ele>
        <time>2018-09-16T09:51:25Z</time>
      </trkpt>
      <trkpt lat="39.2902850" lon="-0.7627420">
        <ele>543.0</ele>
        <time>2018-09-16T09:51:26Z</time>
      </trkpt>
      <trkpt lat="39.2902850" lon="-0.7627420">
        <ele>543.0</ele>
        <time>2018-09-16T09:51:27Z</time>
      </trkpt>
      <trkpt lat="39.2903400" lon="-0.7627850">
        <ele>543.0</ele>
        <time>2018-09-16T09:51:28Z</time>
      </trkpt>
      <trkpt lat="39.2903400" lon="-0.7627850">
        <ele>543.0</ele>
        <time>2018-09-16T09:51:29Z</time>
      </trkpt>
      <trkpt lat="39.2903970" lon="-0.7628300">
        <ele>543.0</ele>
        <time>2018-09-16T09:51:30Z</time>
      </trkpt>
      <trkpt lat="39.2904250" lon="-0.7628520">
        <ele>543.0</ele>
        <time>2018-09-16T09:51:31Z</time>
      </trkpt>
      <trkpt lat="39.2904530" lon="-0.7628750">
        <ele>543.0</ele>
        <time>2018-09-16T09:51:32Z</time>
      </trkpt>
      <trkpt lat="39.2904530" lon="-0.7628750">
        <ele>543.0</ele>
        <time>2018-09-16T09:51:33Z</time>
      </trkpt>
      <trkpt lat="39.2905100" lon="-0.7629150">
        <ele>543.0</ele>
        <time>2018-09-16T09:51:34Z</time>
      </trkpt>
      <trkpt lat="39.2905380" lon="-0.7629330">
        <ele>543.0</ele>
        <time>2018-09-16T09:51:35Z</time>
      </trkpt>
      <trkpt lat="39.2905670" lon="-0.7629500">
        <ele>543.0</ele>
        <time>2018-09-16T09:51:36Z</time>
      </trkpt>
      <trkpt lat="39.2905970" lon="-0.7629650">
        <ele>543.0</ele>
        <time>2018-09-16T09:51:37Z</time>
      </trkpt>
      <trkpt lat="39.2905970" lon="-0.7629650">
        <ele>543.0</ele>
        <time>2018-09-16T09:51:38Z</time>
      </trkpt>
      <trkpt lat="39.2906570" lon="-0.7629870">
        <ele>544.0</ele>
        <time>2018-09-16T09:51:39Z</time>
      </trkpt>
      <trkpt lat="39.2906570" lon="-0.7629870">
        <ele>544.0</ele>
        <time>2018-09-16T09:51:40Z</time>
      </trkpt>
      <trkpt lat="39.2907170" lon="-0.7630050">
        <ele>544.0</ele>
        <time>2018-09-16T09:51:41Z</time>
      </trkpt>
      <trkpt lat="39.2907170" lon="-0.7630050">
        <ele>544.0</ele>
        <time>2018-09-16T09:51:42Z</time>
      </trkpt>
      <trkpt lat="39.2907770" lon="-0.7630280">
        <ele>544.0</ele>
        <time>2018-09-16T09:51:43Z</time>
      </trkpt>
      <trkpt lat="39.2907770" lon="-0.7630280">
        <ele>544.0</ele>
        <time>2018-09-16T09:51:44Z</time>
      </trkpt>
      <trkpt lat="39.2908320" lon="-0.7630580">
        <ele>544.0</ele>
        <time>2018-09-16T09:51:45Z</time>
      </trkpt>
      <trkpt lat="39.2908320" lon="-0.7630580">
        <ele>545.0</ele>
        <time>2018-09-16T09:51:46Z</time>
      </trkpt>
      <trkpt lat="39.2908830" lon="-0.7631020">
        <ele>545.0</ele>
        <time>2018-09-16T09:51:47Z</time>
      </trkpt>
      <trkpt lat="39.2908830" lon="-0.7631020">
        <ele>545.0</ele>
        <time>2018-09-16T09:51:48Z</time>
      </trkpt>
      <trkpt lat="39.2909280" lon="-0.7631530">
        <ele>545.0</ele>
        <time>2018-09-16T09:51:49Z</time>
      </trkpt>
      <trkpt lat="39.2909280" lon="-0.7631530">
        <ele>545.0</ele>
        <time>2018-09-16T09:51:50Z</time>
      </trkpt>
      <trkpt lat="39.2909750" lon="-0.7632050">
        <ele>545.0</ele>
        <time>2018-09-16T09:51:51Z</time>
      </trkpt>
      <trkpt lat="39.2909970" lon="-0.7632320">
        <ele>545.0</ele>
        <time>2018-09-16T09:51:52Z</time>
      </trkpt>
      <trkpt lat="39.2909970" lon="-0.7632320">
        <ele>545.0</ele>
        <time>2018-09-16T09:51:53Z</time>
      </trkpt>
      <trkpt lat="39.2910420" lon="-0.7632870">
        <ele>545.0</ele>
        <time>2018-09-16T09:51:54Z</time>
      </trkpt>
      <trkpt lat="39.2910420" lon="-0.7632870">
        <ele>545.0</ele>
        <time>2018-09-16T09:51:55Z</time>
      </trkpt>
      <trkpt lat="39.2910880" lon="-0.7633420">
        <ele>545.0</ele>
        <time>2018-09-16T09:51:56Z</time>
      </trkpt>
      <trkpt lat="39.2910880" lon="-0.7633420">
        <ele>545.0</ele>
        <time>2018-09-16T09:51:57Z</time>
      </trkpt>
      <trkpt lat="39.2911330" lon="-0.7633900">
        <ele>545.0</ele>
        <time>2018-09-16T09:51:58Z</time>
      </trkpt>
      <trkpt lat="39.2911330" lon="-0.7633900">
        <ele>545.0</ele>
        <time>2018-09-16T09:51:59Z</time>
      </trkpt>
      <trkpt lat="39.2911770" lon="-0.7634380">
        <ele>546.0</ele>
        <time>2018-09-16T09:52:00Z</time>
      </trkpt>
      <trkpt lat="39.2911980" lon="-0.7634620">
        <ele>546.0</ele>
        <time>2018-09-16T09:52:01Z</time>
      </trkpt>
      <trkpt lat="39.2911980" lon="-0.7634620">
        <ele>546.0</ele>
        <time>2018-09-16T09:52:02Z</time>
      </trkpt>
      <trkpt lat="39.2912380" lon="-0.7635080">
        <ele>546.0</ele>
        <time>2018-09-16T09:52:03Z</time>
      </trkpt>
      <trkpt lat="39.2912580" lon="-0.7635320">
        <ele>547.0</ele>
        <time>2018-09-16T09:52:04Z</time>
      </trkpt>
      <trkpt lat="39.2912580" lon="-0.7635320">
        <ele>547.0</ele>
        <time>2018-09-16T09:52:05Z</time>
      </trkpt>
      <trkpt lat="39.2912980" lon="-0.7635780">
        <ele>547.0</ele>
        <time>2018-09-16T09:52:06Z</time>
      </trkpt>
      <trkpt lat="39.2913200" lon="-0.7636000">
        <ele>547.0</ele>
        <time>2018-09-16T09:52:07Z</time>
      </trkpt>
      <trkpt lat="39.2913420" lon="-0.7636180">
        <ele>548.0</ele>
        <time>2018-09-16T09:52:08Z</time>
      </trkpt>
      <trkpt lat="39.2913420" lon="-0.7636180">
        <ele>548.0</ele>
        <time>2018-09-16T09:52:09Z</time>
      </trkpt>
      <trkpt lat="39.2913830" lon="-0.7636520">
        <ele>548.0</ele>
        <time>2018-09-16T09:52:10Z</time>
      </trkpt>
      <trkpt lat="39.2914050" lon="-0.7636670">
        <ele>548.0</ele>
        <time>2018-09-16T09:52:11Z</time>
      </trkpt>
      <trkpt lat="39.2914280" lon="-0.7636800">
        <ele>548.0</ele>
        <time>2018-09-16T09:52:12Z</time>
      </trkpt>
      <trkpt lat="39.2914280" lon="-0.7636800">
        <ele>549.0</ele>
        <time>2018-09-16T09:52:13Z</time>
      </trkpt>
      <trkpt lat="39.2914780" lon="-0.7636980">
        <ele>549.0</ele>
        <time>2018-09-16T09:52:14Z</time>
      </trkpt>
      <trkpt lat="39.2915020" lon="-0.7637050">
        <ele>549.0</ele>
        <time>2018-09-16T09:52:15Z</time>
      </trkpt>
      <trkpt lat="39.2915020" lon="-0.7637050">
        <ele>549.0</ele>
        <time>2018-09-16T09:52:16Z</time>
      </trkpt>
      <trkpt lat="39.2915500" lon="-0.7637130">
        <ele>549.0</ele>
        <time>2018-09-16T09:52:17Z</time>
      </trkpt>
      <trkpt lat="39.2915750" lon="-0.7637170">
        <ele>549.0</ele>
        <time>2018-09-16T09:52:18Z</time>
      </trkpt>
      <trkpt lat="39.2915970" lon="-0.7637220">
        <ele>549.0</ele>
        <time>2018-09-16T09:52:19Z</time>
      </trkpt>
      <trkpt lat="39.2915970" lon="-0.7637220">
        <ele>550.0</ele>
        <time>2018-09-16T09:52:20Z</time>
      </trkpt>
      <trkpt lat="39.2916330" lon="-0.7637330">
        <ele>550.0</ele>
        <time>2018-09-16T09:52:21Z</time>
      </trkpt>
      <trkpt lat="39.2916330" lon="-0.7637330">
        <ele>550.0</ele>
        <time>2018-09-16T09:52:22Z</time>
      </trkpt>
      <trkpt lat="39.2916880" lon="-0.7637560">
        <ele>550.0</ele>
        <time>2018-09-16T09:52:23Z</time>
      </trkpt>
      <trkpt lat="39.2916980" lon="-0.7637620">
        <ele>550.0</ele>
        <time>2018-09-16T09:52:24Z</time>
      </trkpt>
      <trkpt lat="39.2917170" lon="-0.7637750">
        <ele>550.0</ele>
        <time>2018-09-16T09:52:25Z</time>
      </trkpt>
      <trkpt lat="39.2917310" lon="-0.7637920">
        <ele>550.0</ele>
        <time>2018-09-16T09:52:26Z</time>
      </trkpt>
      <trkpt lat="39.2917450" lon="-0.7638100">
        <ele>550.0</ele>
        <time>2018-09-16T09:52:27Z</time>
      </trkpt>
      <trkpt lat="39.2917450" lon="-0.7638100">
        <ele>550.0</ele>
        <time>2018-09-16T09:52:28Z</time>
      </trkpt>
      <trkpt lat="39.2917680" lon="-0.7638470">
        <ele>550.0</ele>
        <time>2018-09-16T09:52:29Z</time>
      </trkpt>
      <trkpt lat="39.2917780" lon="-0.7638630">
        <ele>551.0</ele>
        <time>2018-09-16T09:52:30Z</time>
      </trkpt>
      <trkpt lat="39.2917780" lon="-0.7638630">
        <ele>551.0</ele>
        <time>2018-09-16T09:52:31Z</time>
      </trkpt>
      <trkpt lat="39.2918070" lon="-0.7638920">
        <ele>551.0</ele>
        <time>2018-09-16T09:52:32Z</time>
      </trkpt>
      <trkpt lat="39.2918180" lon="-0.7639070">
        <ele>551.0</ele>
        <time>2018-09-16T09:52:33Z</time>
      </trkpt>
      <trkpt lat="39.2918320" lon="-0.7639250">
        <ele>551.0</ele>
        <time>2018-09-16T09:52:34Z</time>
      </trkpt>
      <trkpt lat="39.2918320" lon="-0.7639250">
        <ele>552.0</ele>
        <time>2018-09-16T09:52:35Z</time>
      </trkpt>
      <trkpt lat="39.2918570" lon="-0.7639550">
        <ele>552.0</ele>
        <time>2018-09-16T09:52:36Z</time>
      </trkpt>
      <trkpt lat="39.2918700" lon="-0.7639630">
        <ele>553.0</ele>
        <time>2018-09-16T09:52:37Z</time>
      </trkpt>
      <trkpt lat="39.2918700" lon="-0.7639630">
        <ele>553.0</ele>
        <time>2018-09-16T09:52:38Z</time>
      </trkpt>
      <trkpt lat="39.2918970" lon="-0.7639800">
        <ele>553.0</ele>
        <time>2018-09-16T09:52:39Z</time>
      </trkpt>
      <trkpt lat="39.2918970" lon="-0.7639800">
        <ele>553.0</ele>
        <time>2018-09-16T09:52:40Z</time>
      </trkpt>
      <trkpt lat="39.2919180" lon="-0.7639980">
        <ele>554.0</ele>
        <time>2018-09-16T09:52:41Z</time>
      </trkpt>
      <trkpt lat="39.2919180" lon="-0.7639980">
        <ele>554.0</ele>
        <time>2018-09-16T09:52:42Z</time>
      </trkpt>
      <trkpt lat="39.2919450" lon="-0.7640150">
        <ele>554.0</ele>
        <time>2018-09-16T09:52:43Z</time>
      </trkpt>
      <trkpt lat="39.2919450" lon="-0.7640150">
        <ele>554.0</ele>
        <time>2018-09-16T09:52:44Z</time>
      </trkpt>
      <trkpt lat="39.2919700" lon="-0.7640330">
        <ele>555.0</ele>
        <time>2018-09-16T09:52:45Z</time>
      </trkpt>
      <trkpt lat="39.2919700" lon="-0.7640330">
        <ele>555.0</ele>
        <time>2018-09-16T09:52:46Z</time>
      </trkpt>
      <trkpt lat="39.2919950" lon="-0.7640580">
        <ele>555.0</ele>
        <time>2018-09-16T09:52:47Z</time>
      </trkpt>
      <trkpt lat="39.2919950" lon="-0.7640580">
        <ele>555.0</ele>
        <time>2018-09-16T09:52:48Z</time>
      </trkpt>
      <trkpt lat="39.2920170" lon="-0.7640850">
        <ele>555.0</ele>
        <time>2018-09-16T09:52:49Z</time>
      </trkpt>
      <trkpt lat="39.2920170" lon="-0.7640850">
        <ele>555.0</ele>
        <time>2018-09-16T09:52:50Z</time>
      </trkpt>
      <trkpt lat="39.2920420" lon="-0.7641100">
        <ele>556.0</ele>
        <time>2018-09-16T09:52:51Z</time>
      </trkpt>
      <trkpt lat="39.2920420" lon="-0.7641100">
        <ele>556.0</ele>
        <time>2018-09-16T09:52:52Z</time>
      </trkpt>
      <trkpt lat="39.2920670" lon="-0.7641320">
        <ele>556.0</ele>
        <time>2018-09-16T09:52:53Z</time>
      </trkpt>
      <trkpt lat="39.2920670" lon="-0.7641320">
        <ele>556.0</ele>
        <time>2018-09-16T09:52:54Z</time>
      </trkpt>
      <trkpt lat="39.2920900" lon="-0.7641550">
        <ele>557.0</ele>
        <time>2018-09-16T09:52:55Z</time>
      </trkpt>
      <trkpt lat="39.2920900" lon="-0.7641550">
        <ele>557.0</ele>
        <time>2018-09-16T09:52:56Z</time>
      </trkpt>
      <trkpt lat="39.2921100" lon="-0.7641770">
        <ele>557.0</ele>
        <time>2018-09-16T09:52:57Z</time>
      </trkpt>
      <trkpt lat="39.2921100" lon="-0.7641770">
        <ele>557.0</ele>
        <time>2018-09-16T09:52:58Z</time>
      </trkpt>
      <trkpt lat="39.2921320" lon="-0.7642020">
        <ele>557.0</ele>
        <time>2018-09-16T09:52:59Z</time>
      </trkpt>
      <trkpt lat="39.2921320" lon="-0.7642020">
        <ele>557.0</ele>
        <time>2018-09-16T09:53:00Z</time>
      </trkpt>
      <trkpt lat="39.2921550" lon="-0.7642180">
        <ele>557.0</ele>
        <time>2018-09-16T09:53:01Z</time>
      </trkpt>
      <trkpt lat="39.2921550" lon="-0.7642180">
        <ele>558.0</ele>
        <time>2018-09-16T09:53:02Z</time>
      </trkpt>
      <trkpt lat="39.2921770" lon="-0.7642430">
        <ele>558.0</ele>
        <time>2018-09-16T09:53:03Z</time>
      </trkpt>
      <trkpt lat="39.2921770" lon="-0.7642430">
        <ele>559.0</ele>
        <time>2018-09-16T09:53:04Z</time>
      </trkpt>
      <trkpt lat="39.2921980" lon="-0.7642720">
        <ele>559.0</ele>
        <time>2018-09-16T09:53:05Z</time>
      </trkpt>
      <trkpt lat="39.2922100" lon="-0.7642830">
        <ele>559.0</ele>
        <time>2018-09-16T09:53:06Z</time>
      </trkpt>
      <trkpt lat="39.2922230" lon="-0.7642950">
        <ele>559.0</ele>
        <time>2018-09-16T09:53:07Z</time>
      </trkpt>
      <trkpt lat="39.2922230" lon="-0.7642950">
        <ele>560.0</ele>
        <time>2018-09-16T09:53:08Z</time>
      </trkpt>
      <trkpt lat="39.2922470" lon="-0.7643200">
        <ele>560.0</ele>
        <time>2018-09-16T09:53:09Z</time>
      </trkpt>
      <trkpt lat="39.2922470" lon="-0.7643200">
        <ele>560.0</ele>
        <time>2018-09-16T09:53:10Z</time>
      </trkpt>
      <trkpt lat="39.2922700" lon="-0.7643400">
        <ele>560.0</ele>
        <time>2018-09-16T09:53:11Z</time>
      </trkpt>
      <trkpt lat="39.2922800" lon="-0.7643520">
        <ele>560.0</ele>
        <time>2018-09-16T09:53:12Z</time>
      </trkpt>
      <trkpt lat="39.2922920" lon="-0.7643620">
        <ele>560.0</ele>
        <time>2018-09-16T09:53:13Z</time>
      </trkpt>
      <trkpt lat="39.2922920" lon="-0.7643620">
        <ele>561.0</ele>
        <time>2018-09-16T09:53:14Z</time>
      </trkpt>
      <trkpt lat="39.2923080" lon="-0.7643830">
        <ele>561.0</ele>
        <time>2018-09-16T09:53:15Z</time>
      </trkpt>
      <trkpt lat="39.2923180" lon="-0.7643930">
        <ele>561.0</ele>
        <time>2018-09-16T09:53:16Z</time>
      </trkpt>
      <trkpt lat="39.2923280" lon="-0.7644070">
        <ele>561.0</ele>
        <time>2018-09-16T09:53:17Z</time>
      </trkpt>
      <trkpt lat="39.2923280" lon="-0.7644070">
        <ele>561.0</ele>
        <time>2018-09-16T09:53:18Z</time>
      </trkpt>
      <trkpt lat="39.2923480" lon="-0.7644300">
        <ele>562.0</ele>
        <time>2018-09-16T09:53:19Z</time>
      </trkpt>
      <trkpt lat="39.2923480" lon="-0.7644300">
        <ele>562.0</ele>
        <time>2018-09-16T09:53:20Z</time>
      </trkpt>
      <trkpt lat="39.2923700" lon="-0.7644550">
        <ele>562.0</ele>
        <time>2018-09-16T09:53:21Z</time>
      </trkpt>
      <trkpt lat="39.2923700" lon="-0.7644550">
        <ele>562.0</ele>
        <time>2018-09-16T09:53:22Z</time>
      </trkpt>
      <trkpt lat="39.2923920" lon="-0.7644780">
        <ele>562.0</ele>
        <time>2018-09-16T09:53:23Z</time>
      </trkpt>
      <trkpt lat="39.2924020" lon="-0.7644850">
        <ele>562.0</ele>
        <time>2018-09-16T09:53:24Z</time>
      </trkpt>
      <trkpt lat="39.2924020" lon="-0.7644850">
        <ele>562.0</ele>
        <time>2018-09-16T09:53:25Z</time>
      </trkpt>
      <trkpt lat="39.2924250" lon="-0.7645020">
        <ele>562.0</ele>
        <time>2018-09-16T09:53:26Z</time>
      </trkpt>
      <trkpt lat="39.2924250" lon="-0.7645020">
        <ele>563.0</ele>
        <time>2018-09-16T09:53:27Z</time>
      </trkpt>
      <trkpt lat="39.2924470" lon="-0.7645200">
        <ele>563.0</ele>
        <time>2018-09-16T09:53:28Z</time>
      </trkpt>
      <trkpt lat="39.2924580" lon="-0.7645320">
        <ele>563.0</ele>
        <time>2018-09-16T09:53:29Z</time>
      </trkpt>
      <trkpt lat="39.2924580" lon="-0.7645320">
        <ele>564.0</ele>
        <time>2018-09-16T09:53:30Z</time>
      </trkpt>
      <trkpt lat="39.2924780" lon="-0.7645580">
        <ele>564.0</ele>
        <time>2018-09-16T09:53:31Z</time>
      </trkpt>
      <trkpt lat="39.2924780" lon="-0.7645580">
        <ele>564.0</ele>
        <time>2018-09-16T09:53:32Z</time>
      </trkpt>
      <trkpt lat="39.2925000" lon="-0.7645820">
        <ele>564.0</ele>
        <time>2018-09-16T09:53:33Z</time>
      </trkpt>
      <trkpt lat="39.2925000" lon="-0.7645820">
        <ele>564.0</ele>
        <time>2018-09-16T09:53:34Z</time>
      </trkpt>
      <trkpt lat="39.2925150" lon="-0.7646100">
        <ele>564.0</ele>
        <time>2018-09-16T09:53:35Z</time>
      </trkpt>
      <trkpt lat="39.2925150" lon="-0.7646100">
        <ele>565.0</ele>
        <time>2018-09-16T09:53:36Z</time>
      </trkpt>
      <trkpt lat="39.2925320" lon="-0.7646420">
        <ele>565.0</ele>
        <time>2018-09-16T09:53:37Z</time>
      </trkpt>
      <trkpt lat="39.2925320" lon="-0.7646420">
        <ele>565.0</ele>
        <time>2018-09-16T09:53:38Z</time>
      </trkpt>
      <trkpt lat="39.2925500" lon="-0.7646750">
        <ele>565.0</ele>
        <time>2018-09-16T09:53:39Z</time>
      </trkpt>
      <trkpt lat="39.2925600" lon="-0.7646900">
        <ele>565.0</ele>
        <time>2018-09-16T09:53:40Z</time>
      </trkpt>
      <trkpt lat="39.2925600" lon="-0.7646900">
        <ele>565.0</ele>
        <time>2018-09-16T09:53:41Z</time>
      </trkpt>
      <trkpt lat="39.2925770" lon="-0.7647250">
        <ele>566.0</ele>
        <time>2018-09-16T09:53:42Z</time>
      </trkpt>
      <trkpt lat="39.2925870" lon="-0.7647420">
        <ele>566.0</ele>
        <time>2018-09-16T09:53:43Z</time>
      </trkpt>
      <trkpt lat="39.2925870" lon="-0.7647420">
        <ele>566.0</ele>
        <time>2018-09-16T09:53:44Z</time>
      </trkpt>
      <trkpt lat="39.2926030" lon="-0.7647770">
        <ele>566.0</ele>
        <time>2018-09-16T09:53:45Z</time>
      </trkpt>
      <trkpt lat="39.2926030" lon="-0.7647770">
        <ele>566.0</ele>
        <time>2018-09-16T09:53:46Z</time>
      </trkpt>
      <trkpt lat="39.2926200" lon="-0.7648100">
        <ele>566.0</ele>
        <time>2018-09-16T09:53:47Z</time>
      </trkpt>
      <trkpt lat="39.2926280" lon="-0.7648280">
        <ele>566.0</ele>
        <time>2018-09-16T09:53:48Z</time>
      </trkpt>
      <trkpt lat="39.2926370" lon="-0.7648430">
        <ele>566.0</ele>
        <time>2018-09-16T09:53:49Z</time>
      </trkpt>
      <trkpt lat="39.2926450" lon="-0.7648580">
        <ele>567.0</ele>
        <time>2018-09-16T09:53:50Z</time>
      </trkpt>
      <trkpt lat="39.2926450" lon="-0.7648580">
        <ele>567.0</ele>
        <time>2018-09-16T09:53:51Z</time>
      </trkpt>
      <trkpt lat="39.2926630" lon="-0.7648930">
        <ele>567.0</ele>
        <time>2018-09-16T09:53:52Z</time>
      </trkpt>
      <trkpt lat="39.2926630" lon="-0.7648930">
        <ele>567.0</ele>
        <time>2018-09-16T09:53:53Z</time>
      </trkpt>
      <trkpt lat="39.2926820" lon="-0.7649270">
        <ele>567.0</ele>
        <time>2018-09-16T09:53:54Z</time>
      </trkpt>
      <trkpt lat="39.2926900" lon="-0.7649430">
        <ele>568.0</ele>
        <time>2018-09-16T09:53:55Z</time>
      </trkpt>
      <trkpt lat="39.2926900" lon="-0.7649430">
        <ele>568.0</ele>
        <time>2018-09-16T09:53:56Z</time>
      </trkpt>
      <trkpt lat="39.2927050" lon="-0.7649800">
        <ele>568.0</ele>
        <time>2018-09-16T09:53:57Z</time>
      </trkpt>
      <trkpt lat="39.2927050" lon="-0.7649800">
        <ele>568.0</ele>
        <time>2018-09-16T09:53:58Z</time>
      </trkpt>
      <trkpt lat="39.2927230" lon="-0.7650170">
        <ele>568.0</ele>
        <time>2018-09-16T09:53:59Z</time>
      </trkpt>
      <trkpt lat="39.2927230" lon="-0.7650170">
        <ele>568.0</ele>
        <time>2018-09-16T09:54:00Z</time>
      </trkpt>
      <trkpt lat="39.2927430" lon="-0.7650480">
        <ele>568.0</ele>
        <time>2018-09-16T09:54:01Z</time>
      </trkpt>
      <trkpt lat="39.2927430" lon="-0.7650480">
        <ele>568.0</ele>
        <time>2018-09-16T09:54:02Z</time>
      </trkpt>
      <trkpt lat="39.2927670" lon="-0.7650750">
        <ele>568.0</ele>
        <time>2018-09-16T09:54:03Z</time>
      </trkpt>
      <trkpt lat="39.2927670" lon="-0.7650750">
        <ele>568.0</ele>
        <time>2018-09-16T09:54:04Z</time>
      </trkpt>
      <trkpt lat="39.2927900" lon="-0.7651030">
        <ele>569.0</ele>
        <time>2018-09-16T09:54:05Z</time>
      </trkpt>
      <trkpt lat="39.2928000" lon="-0.7651180">
        <ele>569.0</ele>
        <time>2018-09-16T09:54:06Z</time>
      </trkpt>
      <trkpt lat="39.2928000" lon="-0.7651180">
        <ele>569.0</ele>
        <time>2018-09-16T09:54:07Z</time>
      </trkpt>
      <trkpt lat="39.2928250" lon="-0.7651450">
        <ele>569.0</ele>
        <time>2018-09-16T09:54:08Z</time>
      </trkpt>
      <trkpt lat="39.2928380" lon="-0.7651570">
        <ele>569.0</ele>
        <time>2018-09-16T09:54:09Z</time>
      </trkpt>
      <trkpt lat="39.2928380" lon="-0.7651570">
        <ele>569.0</ele>
        <time>2018-09-16T09:54:10Z</time>
      </trkpt>
      <trkpt lat="39.2928650" lon="-0.7651800">
        <ele>569.0</ele>
        <time>2018-09-16T09:54:11Z</time>
      </trkpt>
      <trkpt lat="39.2928650" lon="-0.7651800">
        <ele>569.0</ele>
        <time>2018-09-16T09:54:12Z</time>
      </trkpt>
      <trkpt lat="39.2928920" lon="-0.7651970">
        <ele>570.0</ele>
        <time>2018-09-16T09:54:13Z</time>
      </trkpt>
      <trkpt lat="39.2928920" lon="-0.7651970">
        <ele>570.0</ele>
        <time>2018-09-16T09:54:14Z</time>
      </trkpt>
      <trkpt lat="39.2929180" lon="-0.7652070">
        <ele>570.0</ele>
        <time>2018-09-16T09:54:15Z</time>
      </trkpt>
      <trkpt lat="39.2929330" lon="-0.7652100">
        <ele>570.0</ele>
        <time>2018-09-16T09:54:16Z</time>
      </trkpt>
      <trkpt lat="39.2929330" lon="-0.7652100">
        <ele>570.0</ele>
        <time>2018-09-16T09:54:17Z</time>
      </trkpt>
      <trkpt lat="39.2929620" lon="-0.7652180">
        <ele>570.0</ele>
        <time>2018-09-16T09:54:18Z</time>
      </trkpt>
      <trkpt lat="39.2929780" lon="-0.7652220">
        <ele>571.0</ele>
        <time>2018-09-16T09:54:19Z</time>
      </trkpt>
      <trkpt lat="39.2929780" lon="-0.7652220">
        <ele>571.0</ele>
        <time>2018-09-16T09:54:20Z</time>
      </trkpt>
      <trkpt lat="39.2930070" lon="-0.7652280">
        <ele>571.0</ele>
        <time>2018-09-16T09:54:21Z</time>
      </trkpt>
      <trkpt lat="39.2930070" lon="-0.7652280">
        <ele>571.0</ele>
        <time>2018-09-16T09:54:22Z</time>
      </trkpt>
      <trkpt lat="39.2930330" lon="-0.7652280">
        <ele>571.0</ele>
        <time>2018-09-16T09:54:23Z</time>
      </trkpt>
      <trkpt lat="39.2930480" lon="-0.7652280">
        <ele>571.0</ele>
        <time>2018-09-16T09:54:24Z</time>
      </trkpt>
      <trkpt lat="39.2930620" lon="-0.7652300">
        <ele>571.0</ele>
        <time>2018-09-16T09:54:25Z</time>
      </trkpt>
      <trkpt lat="39.2930620" lon="-0.7652300">
        <ele>571.0</ele>
        <time>2018-09-16T09:54:26Z</time>
      </trkpt>
      <trkpt lat="39.2930900" lon="-0.7652370">
        <ele>571.0</ele>
        <time>2018-09-16T09:54:27Z</time>
      </trkpt>
      <trkpt lat="39.2930900" lon="-0.7652370">
        <ele>571.0</ele>
        <time>2018-09-16T09:54:28Z</time>
      </trkpt>
      <trkpt lat="39.2931170" lon="-0.7652400">
        <ele>571.0</ele>
        <time>2018-09-16T09:54:29Z</time>
      </trkpt>
      <trkpt lat="39.2931170" lon="-0.7652400">
        <ele>573.0</ele>
        <time>2018-09-16T09:54:30Z</time>
      </trkpt>
      <trkpt lat="39.2931450" lon="-0.7652470">
        <ele>573.0</ele>
        <time>2018-09-16T09:54:31Z</time>
      </trkpt>
      <trkpt lat="39.2931450" lon="-0.7652470">
        <ele>573.0</ele>
        <time>2018-09-16T09:54:32Z</time>
      </trkpt>
      <trkpt lat="39.2931730" lon="-0.7652580">
        <ele>573.0</ele>
        <time>2018-09-16T09:54:33Z</time>
      </trkpt>
      <trkpt lat="39.2931880" lon="-0.7652630">
        <ele>573.0</ele>
        <time>2018-09-16T09:54:34Z</time>
      </trkpt>
      <trkpt lat="39.2931880" lon="-0.7652630">
        <ele>573.0</ele>
        <time>2018-09-16T09:54:35Z</time>
      </trkpt>
      <trkpt lat="39.2932170" lon="-0.7652750">
        <ele>573.0</ele>
        <time>2018-09-16T09:54:36Z</time>
      </trkpt>
      <trkpt lat="39.2932320" lon="-0.7652800">
        <ele>573.0</ele>
        <time>2018-09-16T09:54:37Z</time>
      </trkpt>
      <trkpt lat="39.2932320" lon="-0.7652800">
        <ele>573.0</ele>
        <time>2018-09-16T09:54:38Z</time>
      </trkpt>
      <trkpt lat="39.2932600" lon="-0.7652930">
        <ele>573.0</ele>
        <time>2018-09-16T09:54:39Z</time>
      </trkpt>
      <trkpt lat="39.2932600" lon="-0.7652930">
        <ele>573.0</ele>
        <time>2018-09-16T09:54:40Z</time>
      </trkpt>
      <trkpt lat="39.2932880" lon="-0.7653050">
        <ele>573.0</ele>
        <time>2018-09-16T09:54:41Z</time>
      </trkpt>
      <trkpt lat="39.2933020" lon="-0.7653150">
        <ele>573.0</ele>
        <time>2018-09-16T09:54:42Z</time>
      </trkpt>
      <trkpt lat="39.2933130" lon="-0.7653250">
        <ele>573.0</ele>
        <time>2018-09-16T09:54:43Z</time>
      </trkpt>
      <trkpt lat="39.2933130" lon="-0.7653250">
        <ele>574.0</ele>
        <time>2018-09-16T09:54:44Z</time>
      </trkpt>
      <trkpt lat="39.2933320" lon="-0.7653480">
        <ele>574.0</ele>
        <time>2018-09-16T09:54:45Z</time>
      </trkpt>
      <trkpt lat="39.2933430" lon="-0.7653580">
        <ele>574.0</ele>
        <time>2018-09-16T09:54:46Z</time>
      </trkpt>
      <trkpt lat="39.2933430" lon="-0.7653580">
        <ele>574.0</ele>
        <time>2018-09-16T09:54:47Z</time>
      </trkpt>
      <trkpt lat="39.2933650" lon="-0.7653750">
        <ele>575.0</ele>
        <time>2018-09-16T09:54:48Z</time>
      </trkpt>
      <trkpt lat="39.2933770" lon="-0.7653830">
        <ele>575.0</ele>
        <time>2018-09-16T09:54:49Z</time>
      </trkpt>
      <trkpt lat="39.2933770" lon="-0.7653830">
        <ele>575.0</ele>
        <time>2018-09-16T09:54:50Z</time>
      </trkpt>
      <trkpt lat="39.2933980" lon="-0.7653980">
        <ele>576.0</ele>
        <time>2018-09-16T09:54:51Z</time>
      </trkpt>
      <trkpt lat="39.2933980" lon="-0.7653980">
        <ele>576.0</ele>
        <time>2018-09-16T09:54:52Z</time>
      </trkpt>
      <trkpt lat="39.2934170" lon="-0.7654200">
        <ele>576.0</ele>
        <time>2018-09-16T09:54:53Z</time>
      </trkpt>
      <trkpt lat="39.2934170" lon="-0.7654200">
        <ele>576.0</ele>
        <time>2018-09-16T09:54:54Z</time>
      </trkpt>
      <trkpt lat="39.2934350" lon="-0.7654430">
        <ele>576.0</ele>
        <time>2018-09-16T09:54:55Z</time>
      </trkpt>
      <trkpt lat="39.2934350" lon="-0.7654430">
        <ele>576.0</ele>
        <time>2018-09-16T09:54:56Z</time>
      </trkpt>
      <trkpt lat="39.2934550" lon="-0.7654530">
        <ele>577.0</ele>
        <time>2018-09-16T09:54:57Z</time>
      </trkpt>
      <trkpt lat="39.2934550" lon="-0.7654530">
        <ele>577.0</ele>
        <time>2018-09-16T09:54:58Z</time>
      </trkpt>
      <trkpt lat="39.2934770" lon="-0.7654670">
        <ele>577.0</ele>
        <time>2018-09-16T09:54:59Z</time>
      </trkpt>
      <trkpt lat="39.2934770" lon="-0.7654670">
        <ele>577.0</ele>
        <time>2018-09-16T09:55:00Z</time>
      </trkpt>
      <trkpt lat="39.2934980" lon="-0.7654800">
        <ele>577.0</ele>
        <time>2018-09-16T09:55:01Z</time>
      </trkpt>
      <trkpt lat="39.2934980" lon="-0.7654800">
        <ele>577.0</ele>
        <time>2018-09-16T09:55:02Z</time>
      </trkpt>
      <trkpt lat="39.2935170" lon="-0.7654980">
        <ele>578.0</ele>
        <time>2018-09-16T09:55:03Z</time>
      </trkpt>
      <trkpt lat="39.2935170" lon="-0.7654980">
        <ele>578.0</ele>
        <time>2018-09-16T09:55:04Z</time>
      </trkpt>
      <trkpt lat="39.2935300" lon="-0.7655230">
        <ele>578.0</ele>
        <time>2018-09-16T09:55:05Z</time>
      </trkpt>
      <trkpt lat="39.2935300" lon="-0.7655230">
        <ele>578.0</ele>
        <time>2018-09-16T09:55:06Z</time>
      </trkpt>
      <trkpt lat="39.2935450" lon="-0.7655420">
        <ele>578.0</ele>
        <time>2018-09-16T09:55:07Z</time>
      </trkpt>
      <trkpt lat="39.2935450" lon="-0.7655420">
        <ele>578.0</ele>
        <time>2018-09-16T09:55:08Z</time>
      </trkpt>
      <trkpt lat="39.2935600" lon="-0.7655530">
        <ele>579.0</ele>
        <time>2018-09-16T09:55:09Z</time>
      </trkpt>
      <trkpt lat="39.2935720" lon="-0.7655570">
        <ele>579.0</ele>
        <time>2018-09-16T09:55:10Z</time>
      </trkpt>
      <trkpt lat="39.2935720" lon="-0.7655570">
        <ele>579.0</ele>
        <time>2018-09-16T09:55:11Z</time>
      </trkpt>
      <trkpt lat="39.2935950" lon="-0.7655680">
        <ele>579.0</ele>
        <time>2018-09-16T09:55:12Z</time>
      </trkpt>
      <trkpt lat="39.2936100" lon="-0.7655750">
        <ele>579.0</ele>
        <time>2018-09-16T09:55:13Z</time>
      </trkpt>
      <trkpt lat="39.2936100" lon="-0.7655750">
        <ele>579.0</ele>
        <time>2018-09-16T09:55:14Z</time>
      </trkpt>
      <trkpt lat="39.2936370" lon="-0.7655830">
        <ele>579.0</ele>
        <time>2018-09-16T09:55:15Z</time>
      </trkpt>
      <trkpt lat="39.2936370" lon="-0.7655830">
        <ele>579.0</ele>
        <time>2018-09-16T09:55:16Z</time>
      </trkpt>
      <trkpt lat="39.2936630" lon="-0.7655930">
        <ele>579.0</ele>
        <time>2018-09-16T09:55:17Z</time>
      </trkpt>
      <trkpt lat="39.2936630" lon="-0.7655930">
        <ele>579.0</ele>
        <time>2018-09-16T09:55:18Z</time>
      </trkpt>
      <trkpt lat="39.2936850" lon="-0.7656050">
        <ele>579.0</ele>
        <time>2018-09-16T09:55:19Z</time>
      </trkpt>
      <trkpt lat="39.2936850" lon="-0.7656050">
        <ele>580.0</ele>
        <time>2018-09-16T09:55:20Z</time>
      </trkpt>
      <trkpt lat="39.2937130" lon="-0.7656220">
        <ele>580.0</ele>
        <time>2018-09-16T09:55:21Z</time>
      </trkpt>
      <trkpt lat="39.2937270" lon="-0.7656280">
        <ele>580.0</ele>
        <time>2018-09-16T09:55:22Z</time>
      </trkpt>
      <trkpt lat="39.2937400" lon="-0.7656370">
        <ele>580.0</ele>
        <time>2018-09-16T09:55:23Z</time>
      </trkpt>
      <trkpt lat="39.2937400" lon="-0.7656370">
        <ele>580.0</ele>
        <time>2018-09-16T09:55:24Z</time>
      </trkpt>
      <trkpt lat="39.2937650" lon="-0.7656600">
        <ele>580.0</ele>
        <time>2018-09-16T09:55:25Z</time>
      </trkpt>
      <trkpt lat="39.2937650" lon="-0.7656600">
        <ele>580.0</ele>
        <time>2018-09-16T09:55:26Z</time>
      </trkpt>
      <trkpt lat="39.2937950" lon="-0.7656730">
        <ele>580.0</ele>
        <time>2018-09-16T09:55:27Z</time>
      </trkpt>
      <trkpt lat="39.2938100" lon="-0.7656780">
        <ele>581.0</ele>
        <time>2018-09-16T09:55:28Z</time>
      </trkpt>
      <trkpt lat="39.2938270" lon="-0.7656820">
        <ele>581.0</ele>
        <time>2018-09-16T09:55:29Z</time>
      </trkpt>
      <trkpt lat="39.2938270" lon="-0.7656820">
        <ele>581.0</ele>
        <time>2018-09-16T09:55:30Z</time>
      </trkpt>
      <trkpt lat="39.2938570" lon="-0.7656880">
        <ele>581.0</ele>
        <time>2018-09-16T09:55:31Z</time>
      </trkpt>
      <trkpt lat="39.2938570" lon="-0.7656880">
        <ele>582.0</ele>
        <time>2018-09-16T09:55:32Z</time>
      </trkpt>
      <trkpt lat="39.2938880" lon="-0.7656900">
        <ele>582.0</ele>
        <time>2018-09-16T09:55:33Z</time>
      </trkpt>
      <trkpt lat="39.2939030" lon="-0.7656930">
        <ele>582.0</ele>
        <time>2018-09-16T09:55:34Z</time>
      </trkpt>
      <trkpt lat="39.2939030" lon="-0.7656930">
        <ele>582.0</ele>
        <time>2018-09-16T09:55:35Z</time>
      </trkpt>
      <trkpt lat="39.2939300" lon="-0.7657000">
        <ele>582.0</ele>
        <time>2018-09-16T09:55:36Z</time>
      </trkpt>
      <trkpt lat="39.2939300" lon="-0.7657000">
        <ele>582.0</ele>
        <time>2018-09-16T09:55:37Z</time>
      </trkpt>
      <trkpt lat="39.2939570" lon="-0.7657050">
        <ele>582.0</ele>
        <time>2018-09-16T09:55:38Z</time>
      </trkpt>
      <trkpt lat="39.2939570" lon="-0.7657050">
        <ele>582.0</ele>
        <time>2018-09-16T09:55:39Z</time>
      </trkpt>
      <trkpt lat="39.2939870" lon="-0.7657120">
        <ele>582.0</ele>
        <time>2018-09-16T09:55:40Z</time>
      </trkpt>
      <trkpt lat="39.2939980" lon="-0.7657170">
        <ele>582.0</ele>
        <time>2018-09-16T09:55:41Z</time>
      </trkpt>
      <trkpt lat="39.2939980" lon="-0.7657170">
        <ele>582.0</ele>
        <time>2018-09-16T09:55:42Z</time>
      </trkpt>
      <trkpt lat="39.2940250" lon="-0.7657270">
        <ele>582.0</ele>
        <time>2018-09-16T09:55:43Z</time>
      </trkpt>
      <trkpt lat="39.2940250" lon="-0.7657270">
        <ele>582.0</ele>
        <time>2018-09-16T09:55:44Z</time>
      </trkpt>
      <trkpt lat="39.2940550" lon="-0.7657330">
        <ele>582.0</ele>
        <time>2018-09-16T09:55:45Z</time>
      </trkpt>
      <trkpt lat="39.2940550" lon="-0.7657330">
        <ele>583.0</ele>
        <time>2018-09-16T09:55:46Z</time>
      </trkpt>
      <trkpt lat="39.2940870" lon="-0.7657350">
        <ele>583.0</ele>
        <time>2018-09-16T09:55:47Z</time>
      </trkpt>
      <trkpt lat="39.2940870" lon="-0.7657350">
        <ele>583.0</ele>
        <time>2018-09-16T09:55:48Z</time>
      </trkpt>
      <trkpt lat="39.2941150" lon="-0.7657350">
        <ele>583.0</ele>
        <time>2018-09-16T09:55:49Z</time>
      </trkpt>
      <trkpt lat="39.2941150" lon="-0.7657350">
        <ele>583.0</ele>
        <time>2018-09-16T09:55:50Z</time>
      </trkpt>
      <trkpt lat="39.2941470" lon="-0.7657330">
        <ele>583.0</ele>
        <time>2018-09-16T09:55:51Z</time>
      </trkpt>
      <trkpt lat="39.2941470" lon="-0.7657330">
        <ele>583.0</ele>
        <time>2018-09-16T09:55:52Z</time>
      </trkpt>
      <trkpt lat="39.2941780" lon="-0.7657350">
        <ele>583.0</ele>
        <time>2018-09-16T09:55:53Z</time>
      </trkpt>
      <trkpt lat="39.2941950" lon="-0.7657330">
        <ele>583.0</ele>
        <time>2018-09-16T09:55:54Z</time>
      </trkpt>
      <trkpt lat="39.2941950" lon="-0.7657330">
        <ele>583.0</ele>
        <time>2018-09-16T09:55:55Z</time>
      </trkpt>
      <trkpt lat="39.2942230" lon="-0.7657320">
        <ele>584.0</ele>
        <time>2018-09-16T09:55:56Z</time>
      </trkpt>
      <trkpt lat="39.2942230" lon="-0.7657320">
        <ele>584.0</ele>
        <time>2018-09-16T09:55:57Z</time>
      </trkpt>
      <trkpt lat="39.2942520" lon="-0.7657380">
        <ele>584.0</ele>
        <time>2018-09-16T09:55:58Z</time>
      </trkpt>
      <trkpt lat="39.2942520" lon="-0.7657380">
        <ele>584.0</ele>
        <time>2018-09-16T09:55:59Z</time>
      </trkpt>
      <trkpt lat="39.2942800" lon="-0.7657420">
        <ele>584.0</ele>
        <time>2018-09-16T09:56:00Z</time>
      </trkpt>
      <trkpt lat="39.2942950" lon="-0.7657400">
        <ele>584.0</ele>
        <time>2018-09-16T09:56:01Z</time>
      </trkpt>
      <trkpt lat="39.2942950" lon="-0.7657400">
        <ele>584.0</ele>
        <time>2018-09-16T09:56:02Z</time>
      </trkpt>
      <trkpt lat="39.2943220" lon="-0.7657400">
        <ele>584.0</ele>
        <time>2018-09-16T09:56:03Z</time>
      </trkpt>
      <trkpt lat="39.2943220" lon="-0.7657400">
        <ele>585.0</ele>
        <time>2018-09-16T09:56:04Z</time>
      </trkpt>
      <trkpt lat="39.2943470" lon="-0.7657380">
        <ele>585.0</ele>
        <time>2018-09-16T09:56:05Z</time>
      </trkpt>
      <trkpt lat="39.2943620" lon="-0.7657380">
        <ele>585.0</ele>
        <time>2018-09-16T09:56:06Z</time>
      </trkpt>
      <trkpt lat="39.2943620" lon="-0.7657380">
        <ele>585.0</ele>
        <time>2018-09-16T09:56:07Z</time>
      </trkpt>
      <trkpt lat="39.2943930" lon="-0.7657370">
        <ele>585.0</ele>
        <time>2018-09-16T09:56:08Z</time>
      </trkpt>
      <trkpt lat="39.2944120" lon="-0.7657350">
        <ele>585.0</ele>
        <time>2018-09-16T09:56:09Z</time>
      </trkpt>
      <trkpt lat="39.2944120" lon="-0.7657350">
        <ele>585.0</ele>
        <time>2018-09-16T09:56:10Z</time>
      </trkpt>
      <trkpt lat="39.2944420" lon="-0.7657300">
        <ele>585.0</ele>
        <time>2018-09-16T09:56:11Z</time>
      </trkpt>
      <trkpt lat="39.2944420" lon="-0.7657300">
        <ele>585.0</ele>
        <time>2018-09-16T09:56:12Z</time>
      </trkpt>
      <trkpt lat="39.2944730" lon="-0.7657270">
        <ele>586.0</ele>
        <time>2018-09-16T09:56:13Z</time>
      </trkpt>
      <trkpt lat="39.2944730" lon="-0.7657270">
        <ele>586.0</ele>
        <time>2018-09-16T09:56:14Z</time>
      </trkpt>
      <trkpt lat="39.2945050" lon="-0.7657220">
        <ele>586.0</ele>
        <time>2018-09-16T09:56:15Z</time>
      </trkpt>
      <trkpt lat="39.2945050" lon="-0.7657220">
        <ele>586.0</ele>
        <time>2018-09-16T09:56:16Z</time>
      </trkpt>
      <trkpt lat="39.2945370" lon="-0.7657250">
        <ele>586.0</ele>
        <time>2018-09-16T09:56:17Z</time>
      </trkpt>
      <trkpt lat="39.2945370" lon="-0.7657250">
        <ele>586.0</ele>
        <time>2018-09-16T09:56:18Z</time>
      </trkpt>
      <trkpt lat="39.2945680" lon="-0.7657270">
        <ele>587.0</ele>
        <time>2018-09-16T09:56:19Z</time>
      </trkpt>
      <trkpt lat="39.2945680" lon="-0.7657270">
        <ele>587.0</ele>
        <time>2018-09-16T09:56:20Z</time>
      </trkpt>
      <trkpt lat="39.2945980" lon="-0.7657300">
        <ele>587.0</ele>
        <time>2018-09-16T09:56:21Z</time>
      </trkpt>
      <trkpt lat="39.2945980" lon="-0.7657300">
        <ele>587.0</ele>
        <time>2018-09-16T09:56:22Z</time>
      </trkpt>
      <trkpt lat="39.2946280" lon="-0.7657250">
        <ele>587.0</ele>
        <time>2018-09-16T09:56:23Z</time>
      </trkpt>
      <trkpt lat="39.2946280" lon="-0.7657250">
        <ele>587.0</ele>
        <time>2018-09-16T09:56:24Z</time>
      </trkpt>
      <trkpt lat="39.2946630" lon="-0.7657200">
        <ele>588.0</ele>
        <time>2018-09-16T09:56:25Z</time>
      </trkpt>
      <trkpt lat="39.2946630" lon="-0.7657200">
        <ele>588.0</ele>
        <time>2018-09-16T09:56:26Z</time>
      </trkpt>
      <trkpt lat="39.2946950" lon="-0.7657170">
        <ele>588.0</ele>
        <time>2018-09-16T09:56:27Z</time>
      </trkpt>
      <trkpt lat="39.2947120" lon="-0.7657130">
        <ele>588.0</ele>
        <time>2018-09-16T09:56:28Z</time>
      </trkpt>
      <trkpt lat="39.2947120" lon="-0.7657130">
        <ele>588.0</ele>
        <time>2018-09-16T09:56:29Z</time>
      </trkpt>
      <trkpt lat="39.2947430" lon="-0.7657080">
        <ele>588.0</ele>
        <time>2018-09-16T09:56:30Z</time>
      </trkpt>
      <trkpt lat="39.2947600" lon="-0.7657080">
        <ele>589.0</ele>
        <time>2018-09-16T09:56:31Z</time>
      </trkpt>
      <trkpt lat="39.2947600" lon="-0.7657080">
        <ele>589.0</ele>
        <time>2018-09-16T09:56:32Z</time>
      </trkpt>
      <trkpt lat="39.2947930" lon="-0.7657080">
        <ele>589.0</ele>
        <time>2018-09-16T09:56:33Z</time>
      </trkpt>
      <trkpt lat="39.2948100" lon="-0.7657080">
        <ele>589.0</ele>
        <time>2018-09-16T09:56:34Z</time>
      </trkpt>
      <trkpt lat="39.2948270" lon="-0.7657080">
        <ele>589.0</ele>
        <time>2018-09-16T09:56:35Z</time>
      </trkpt>
      <trkpt lat="39.2948270" lon="-0.7657080">
        <ele>589.0</ele>
        <time>2018-09-16T09:56:36Z</time>
      </trkpt>
      <trkpt lat="39.2948600" lon="-0.7657050">
        <ele>589.0</ele>
        <time>2018-09-16T09:56:37Z</time>
      </trkpt>
      <trkpt lat="39.2948770" lon="-0.7657050">
        <ele>590.0</ele>
        <time>2018-09-16T09:56:38Z</time>
      </trkpt>
      <trkpt lat="39.2948770" lon="-0.7657050">
        <ele>590.0</ele>
        <time>2018-09-16T09:56:39Z</time>
      </trkpt>
      <trkpt lat="39.2949100" lon="-0.7657080">
        <ele>590.0</ele>
        <time>2018-09-16T09:56:40Z</time>
      </trkpt>
      <trkpt lat="39.2949250" lon="-0.7657080">
        <ele>590.0</ele>
        <time>2018-09-16T09:56:41Z</time>
      </trkpt>
      <trkpt lat="39.2949250" lon="-0.7657080">
        <ele>590.0</ele>
        <time>2018-09-16T09:56:42Z</time>
      </trkpt>
      <trkpt lat="39.2949600" lon="-0.7657020">
        <ele>590.0</ele>
        <time>2018-09-16T09:56:43Z</time>
      </trkpt>
      <trkpt lat="39.2949600" lon="-0.7657020">
        <ele>590.0</ele>
        <time>2018-09-16T09:56:44Z</time>
      </trkpt>
      <trkpt lat="39.2949970" lon="-0.7656930">
        <ele>591.0</ele>
        <time>2018-09-16T09:56:45Z</time>
      </trkpt>
      <trkpt lat="39.2949970" lon="-0.7656930">
        <ele>591.0</ele>
        <time>2018-09-16T09:56:46Z</time>
      </trkpt>
      <trkpt lat="39.2950300" lon="-0.7656820">
        <ele>591.0</ele>
        <time>2018-09-16T09:56:47Z</time>
      </trkpt>
      <trkpt lat="39.2950300" lon="-0.7656820">
        <ele>591.0</ele>
        <time>2018-09-16T09:56:48Z</time>
      </trkpt>
      <trkpt lat="39.2950620" lon="-0.7656600">
        <ele>592.0</ele>
        <time>2018-09-16T09:56:49Z</time>
      </trkpt>
      <trkpt lat="39.2950620" lon="-0.7656600">
        <ele>592.0</ele>
        <time>2018-09-16T09:56:50Z</time>
      </trkpt>
      <trkpt lat="39.2950880" lon="-0.7656350">
        <ele>592.0</ele>
        <time>2018-09-16T09:56:51Z</time>
      </trkpt>
      <trkpt lat="39.2951020" lon="-0.7656230">
        <ele>592.0</ele>
        <time>2018-09-16T09:56:52Z</time>
      </trkpt>
      <trkpt lat="39.2951150" lon="-0.7656100">
        <ele>592.0</ele>
        <time>2018-09-16T09:56:53Z</time>
      </trkpt>
      <trkpt lat="39.2951150" lon="-0.7656100">
        <ele>592.0</ele>
        <time>2018-09-16T09:56:54Z</time>
      </trkpt>
      <trkpt lat="39.2951400" lon="-0.7655830">
        <ele>592.0</ele>
        <time>2018-09-16T09:56:55Z</time>
      </trkpt>
      <trkpt lat="39.2951400" lon="-0.7655830">
        <ele>592.0</ele>
        <time>2018-09-16T09:56:56Z</time>
      </trkpt>
      <trkpt lat="39.2951630" lon="-0.7655480">
        <ele>593.0</ele>
        <time>2018-09-16T09:56:57Z</time>
      </trkpt>
      <trkpt lat="39.2951630" lon="-0.7655480">
        <ele>593.0</ele>
        <time>2018-09-16T09:56:58Z</time>
      </trkpt>
      <trkpt lat="39.2951920" lon="-0.7655100">
        <ele>593.0</ele>
        <time>2018-09-16T09:56:59Z</time>
      </trkpt>
      <trkpt lat="39.2952080" lon="-0.7654900">
        <ele>593.0</ele>
        <time>2018-09-16T09:57:00Z</time>
      </trkpt>
      <trkpt lat="39.2952270" lon="-0.7654670">
        <ele>593.0</ele>
        <time>2018-09-16T09:57:01Z</time>
      </trkpt>
      <trkpt lat="39.2952270" lon="-0.7654670">
        <ele>593.0</ele>
        <time>2018-09-16T09:57:02Z</time>
      </trkpt>
      <trkpt lat="39.2952600" lon="-0.7654150">
        <ele>593.0</ele>
        <time>2018-09-16T09:57:03Z</time>
      </trkpt>
      <trkpt lat="39.2952780" lon="-0.7653920">
        <ele>593.0</ele>
        <time>2018-09-16T09:57:04Z</time>
      </trkpt>
      <trkpt lat="39.2952780" lon="-0.7653920">
        <ele>593.0</ele>
        <time>2018-09-16T09:57:05Z</time>
      </trkpt>
      <trkpt lat="39.2953230" lon="-0.7653430">
        <ele>593.0</ele>
        <time>2018-09-16T09:57:06Z</time>
      </trkpt>
      <trkpt lat="39.2953520" lon="-0.7653220">
        <ele>593.0</ele>
        <time>2018-09-16T09:57:07Z</time>
      </trkpt>
      <trkpt lat="39.2953520" lon="-0.7653220">
        <ele>593.0</ele>
        <time>2018-09-16T09:57:08Z</time>
      </trkpt>
      <trkpt lat="39.2954180" lon="-0.7652870">
        <ele>593.0</ele>
        <time>2018-09-16T09:57:09Z</time>
      </trkpt>
      <trkpt lat="39.2954180" lon="-0.7652870">
        <ele>593.0</ele>
        <time>2018-09-16T09:57:10Z</time>
      </trkpt>
      <trkpt lat="39.2954970" lon="-0.7652780">
        <ele>593.0</ele>
        <time>2018-09-16T09:57:11Z</time>
      </trkpt>
      <trkpt lat="39.2954970" lon="-0.7652780">
        <ele>593.0</ele>
        <time>2018-09-16T09:57:12Z</time>
      </trkpt>
      <trkpt lat="39.2955750" lon="-0.7652920">
        <ele>593.0</ele>
        <time>2018-09-16T09:57:13Z</time>
      </trkpt>
      <trkpt lat="39.2956120" lon="-0.7653050">
        <ele>593.0</ele>
        <time>2018-09-16T09:57:14Z</time>
      </trkpt>
      <trkpt lat="39.2956120" lon="-0.7653050">
        <ele>593.0</ele>
        <time>2018-09-16T09:57:15Z</time>
      </trkpt>
      <trkpt lat="39.2956830" lon="-0.7653320">
        <ele>593.0</ele>
        <time>2018-09-16T09:57:16Z</time>
      </trkpt>
      <trkpt lat="39.2957170" lon="-0.7653400">
        <ele>593.0</ele>
        <time>2018-09-16T09:57:17Z</time>
      </trkpt>
      <trkpt lat="39.2957170" lon="-0.7653400">
        <ele>593.0</ele>
        <time>2018-09-16T09:57:18Z</time>
      </trkpt>
      <trkpt lat="39.2957850" lon="-0.7653470">
        <ele>593.0</ele>
        <time>2018-09-16T09:57:19Z</time>
      </trkpt>
      <trkpt lat="39.2957850" lon="-0.7653470">
        <ele>593.0</ele>
        <time>2018-09-16T09:57:20Z</time>
      </trkpt>
      <trkpt lat="39.2958570" lon="-0.7653320">
        <ele>593.0</ele>
        <time>2018-09-16T09:57:21Z</time>
      </trkpt>
      <trkpt lat="39.2958920" lon="-0.7653220">
        <ele>593.0</ele>
        <time>2018-09-16T09:57:22Z</time>
      </trkpt>
      <trkpt lat="39.2959250" lon="-0.7653130">
        <ele>593.0</ele>
        <time>2018-09-16T09:57:23Z</time>
      </trkpt>
      <trkpt lat="39.2959250" lon="-0.7653130">
        <ele>593.0</ele>
        <time>2018-09-16T09:57:24Z</time>
      </trkpt>
      <trkpt lat="39.2959920" lon="-0.7653020">
        <ele>593.0</ele>
        <time>2018-09-16T09:57:25Z</time>
      </trkpt>
      <trkpt lat="39.2959920" lon="-0.7653020">
        <ele>593.0</ele>
        <time>2018-09-16T09:57:26Z</time>
      </trkpt>
      <trkpt lat="39.2960570" lon="-0.7652980">
        <ele>593.0</ele>
        <time>2018-09-16T09:57:27Z</time>
      </trkpt>
      <trkpt lat="39.2960570" lon="-0.7652980">
        <ele>593.0</ele>
        <time>2018-09-16T09:57:28Z</time>
      </trkpt>
      <trkpt lat="39.2961150" lon="-0.7653070">
        <ele>593.0</ele>
        <time>2018-09-16T09:57:29Z</time>
      </trkpt>
      <trkpt lat="39.2961420" lon="-0.7653130">
        <ele>593.0</ele>
        <time>2018-09-16T09:57:30Z</time>
      </trkpt>
      <trkpt lat="39.2961720" lon="-0.7653220">
        <ele>593.0</ele>
        <time>2018-09-16T09:57:31Z</time>
      </trkpt>
      <trkpt lat="39.2961720" lon="-0.7653220">
        <ele>593.0</ele>
        <time>2018-09-16T09:57:32Z</time>
      </trkpt>
      <trkpt lat="39.2962230" lon="-0.7653500">
        <ele>593.0</ele>
        <time>2018-09-16T09:57:33Z</time>
      </trkpt>
      <trkpt lat="39.2962500" lon="-0.7653650">
        <ele>593.0</ele>
        <time>2018-09-16T09:57:34Z</time>
      </trkpt>
      <trkpt lat="39.2962500" lon="-0.7653650">
        <ele>593.0</ele>
        <time>2018-09-16T09:57:35Z</time>
      </trkpt>
      <trkpt lat="39.2962950" lon="-0.7653950">
        <ele>593.0</ele>
        <time>2018-09-16T09:57:36Z</time>
      </trkpt>
      <trkpt lat="39.2963180" lon="-0.7654070">
        <ele>593.0</ele>
        <time>2018-09-16T09:57:37Z</time>
      </trkpt>
      <trkpt lat="39.2963180" lon="-0.7654070">
        <ele>593.0</ele>
        <time>2018-09-16T09:57:38Z</time>
      </trkpt>
      <trkpt lat="39.2963650" lon="-0.7654270">
        <ele>593.0</ele>
        <time>2018-09-16T09:57:39Z</time>
      </trkpt>
      <trkpt lat="39.2963650" lon="-0.7654270">
        <ele>594.0</ele>
        <time>2018-09-16T09:57:40Z</time>
      </trkpt>
      <trkpt lat="39.2964100" lon="-0.7654450">
        <ele>594.0</ele>
        <time>2018-09-16T09:57:41Z</time>
      </trkpt>
      <trkpt lat="39.2964100" lon="-0.7654450">
        <ele>594.0</ele>
        <time>2018-09-16T09:57:42Z</time>
      </trkpt>
      <trkpt lat="39.2964570" lon="-0.7654550">
        <ele>594.0</ele>
        <time>2018-09-16T09:57:43Z</time>
      </trkpt>
      <trkpt lat="39.2964570" lon="-0.7654550">
        <ele>594.0</ele>
        <time>2018-09-16T09:57:44Z</time>
      </trkpt>
      <trkpt lat="39.2965000" lon="-0.7654520">
        <ele>594.0</ele>
        <time>2018-09-16T09:57:45Z</time>
      </trkpt>
      <trkpt lat="39.2965180" lon="-0.7654470">
        <ele>594.0</ele>
        <time>2018-09-16T09:57:46Z</time>
      </trkpt>
      <trkpt lat="39.2965350" lon="-0.7654420">
        <ele>594.0</ele>
        <time>2018-09-16T09:57:47Z</time>
      </trkpt>
      <trkpt lat="39.2965350" lon="-0.7654420">
        <ele>595.0</ele>
        <time>2018-09-16T09:57:48Z</time>
      </trkpt>
      <trkpt lat="39.2965700" lon="-0.7654270">
        <ele>595.0</ele>
        <time>2018-09-16T09:57:49Z</time>
      </trkpt>
      <trkpt lat="39.2965700" lon="-0.7654270">
        <ele>595.0</ele>
        <time>2018-09-16T09:57:50Z</time>
      </trkpt>
      <trkpt lat="39.2965980" lon="-0.7654020">
        <ele>595.0</ele>
        <time>2018-09-16T09:57:51Z</time>
      </trkpt>
      <trkpt lat="39.2965980" lon="-0.7654020">
        <ele>595.0</ele>
        <time>2018-09-16T09:57:52Z</time>
      </trkpt>
      <trkpt lat="39.2966230" lon="-0.7653820">
        <ele>595.0</ele>
        <time>2018-09-16T09:57:53Z</time>
      </trkpt>
      <trkpt lat="39.2966230" lon="-0.7653820">
        <ele>596.0</ele>
        <time>2018-09-16T09:57:54Z</time>
      </trkpt>
      <trkpt lat="39.2966520" lon="-0.7653670">
        <ele>596.0</ele>
        <time>2018-09-16T09:57:55Z</time>
      </trkpt>
      <trkpt lat="39.2966520" lon="-0.7653670">
        <ele>596.0</ele>
        <time>2018-09-16T09:57:56Z</time>
      </trkpt>
      <trkpt lat="39.2966820" lon="-0.7653520">
        <ele>597.0</ele>
        <time>2018-09-16T09:57:57Z</time>
      </trkpt>
      <trkpt lat="39.2966820" lon="-0.7653520">
        <ele>597.0</ele>
        <time>2018-09-16T09:57:58Z</time>
      </trkpt>
      <trkpt lat="39.2967130" lon="-0.7653430">
        <ele>597.0</ele>
        <time>2018-09-16T09:57:59Z</time>
      </trkpt>
      <trkpt lat="39.2967280" lon="-0.7653380">
        <ele>597.0</ele>
        <time>2018-09-16T09:58:00Z</time>
      </trkpt>
      <trkpt lat="39.2967430" lon="-0.7653330">
        <ele>598.0</ele>
        <time>2018-09-16T09:58:01Z</time>
      </trkpt>
      <trkpt lat="39.2967430" lon="-0.7653330">
        <ele>598.0</ele>
        <time>2018-09-16T09:58:02Z</time>
      </trkpt>
      <trkpt lat="39.2967730" lon="-0.7653220">
        <ele>598.0</ele>
        <time>2018-09-16T09:58:03Z</time>
      </trkpt>
      <trkpt lat="39.2967730" lon="-0.7653220">
        <ele>598.0</ele>
        <time>2018-09-16T09:58:04Z</time>
      </trkpt>
      <trkpt lat="39.2968050" lon="-0.7653150">
        <ele>599.0</ele>
        <time>2018-09-16T09:58:05Z</time>
      </trkpt>
      <trkpt lat="39.2968050" lon="-0.7653150">
        <ele>599.0</ele>
        <time>2018-09-16T09:58:06Z</time>
      </trkpt>
      <trkpt lat="39.2968370" lon="-0.7653080">
        <ele>599.0</ele>
        <time>2018-09-16T09:58:07Z</time>
      </trkpt>
      <trkpt lat="39.2968370" lon="-0.7653080">
        <ele>599.0</ele>
        <time>2018-09-16T09:58:08Z</time>
      </trkpt>
      <trkpt lat="39.2968700" lon="-0.7653030">
        <ele>599.0</ele>
        <time>2018-09-16T09:58:09Z</time>
      </trkpt>
      <trkpt lat="39.2968850" lon="-0.7653030">
        <ele>599.0</ele>
        <time>2018-09-16T09:58:10Z</time>
      </trkpt>
      <trkpt lat="39.2969030" lon="-0.7653030">
        <ele>599.0</ele>
        <time>2018-09-16T09:58:11Z</time>
      </trkpt>
      <trkpt lat="39.2969030" lon="-0.7653030">
        <ele>599.0</ele>
        <time>2018-09-16T09:58:12Z</time>
      </trkpt>
      <trkpt lat="39.2969320" lon="-0.7653070">
        <ele>599.0</ele>
        <time>2018-09-16T09:58:13Z</time>
      </trkpt>
      <trkpt lat="39.2969320" lon="-0.7653070">
        <ele>599.0</ele>
        <time>2018-09-16T09:58:14Z</time>
      </trkpt>
      <trkpt lat="39.2969650" lon="-0.7653030">
        <ele>600.0</ele>
        <time>2018-09-16T09:58:15Z</time>
      </trkpt>
      <trkpt lat="39.2969800" lon="-0.7653030">
        <ele>600.0</ele>
        <time>2018-09-16T09:58:16Z</time>
      </trkpt>
      <trkpt lat="39.2969800" lon="-0.7653030">
        <ele>600.0</ele>
        <time>2018-09-16T09:58:17Z</time>
      </trkpt>
      <trkpt lat="39.2970100" lon="-0.7653100">
        <ele>600.0</ele>
        <time>2018-09-16T09:58:18Z</time>
      </trkpt>
      <trkpt lat="39.2970100" lon="-0.7653100">
        <ele>600.0</ele>
        <time>2018-09-16T09:58:19Z</time>
      </trkpt>
      <trkpt lat="39.2970400" lon="-0.7653220">
        <ele>600.0</ele>
        <time>2018-09-16T09:58:20Z</time>
      </trkpt>
      <trkpt lat="39.2970400" lon="-0.7653220">
        <ele>600.0</ele>
        <time>2018-09-16T09:58:21Z</time>
      </trkpt>
      <trkpt lat="39.2970700" lon="-0.7653270">
        <ele>601.0</ele>
        <time>2018-09-16T09:58:22Z</time>
      </trkpt>
      <trkpt lat="39.2970700" lon="-0.7653270">
        <ele>601.0</ele>
        <time>2018-09-16T09:58:23Z</time>
      </trkpt>
      <trkpt lat="39.2971030" lon="-0.7653270">
        <ele>601.0</ele>
        <time>2018-09-16T09:58:24Z</time>
      </trkpt>
      <trkpt lat="39.2971180" lon="-0.7653250">
        <ele>601.0</ele>
        <time>2018-09-16T09:58:25Z</time>
      </trkpt>
      <trkpt lat="39.2971180" lon="-0.7653250">
        <ele>601.0</ele>
        <time>2018-09-16T09:58:26Z</time>
      </trkpt>
      <trkpt lat="39.2971520" lon="-0.7653220">
        <ele>601.0</ele>
        <time>2018-09-16T09:58:27Z</time>
      </trkpt>
      <trkpt lat="39.2971680" lon="-0.7653230">
        <ele>601.0</ele>
        <time>2018-09-16T09:58:28Z</time>
      </trkpt>
      <trkpt lat="39.2971680" lon="-0.7653230">
        <ele>601.0</ele>
        <time>2018-09-16T09:58:29Z</time>
      </trkpt>
      <trkpt lat="39.2972000" lon="-0.7653320">
        <ele>601.0</ele>
        <time>2018-09-16T09:58:30Z</time>
      </trkpt>
      <trkpt lat="39.2972180" lon="-0.7653330">
        <ele>601.0</ele>
        <time>2018-09-16T09:58:31Z</time>
      </trkpt>
      <trkpt lat="39.2972180" lon="-0.7653330">
        <ele>602.0</ele>
        <time>2018-09-16T09:58:32Z</time>
      </trkpt>
      <trkpt lat="39.2972550" lon="-0.7653380">
        <ele>602.0</ele>
        <time>2018-09-16T09:58:33Z</time>
      </trkpt>
      <trkpt lat="39.2972550" lon="-0.7653380">
        <ele>602.0</ele>
        <time>2018-09-16T09:58:34Z</time>
      </trkpt>
      <trkpt lat="39.2972930" lon="-0.7653380">
        <ele>602.0</ele>
        <time>2018-09-16T09:58:35Z</time>
      </trkpt>
      <trkpt lat="39.2973130" lon="-0.7653380">
        <ele>602.0</ele>
        <time>2018-09-16T09:58:36Z</time>
      </trkpt>
      <trkpt lat="39.2973130" lon="-0.7653380">
        <ele>602.0</ele>
        <time>2018-09-16T09:58:37Z</time>
      </trkpt>
      <trkpt lat="39.2973530" lon="-0.7653320">
        <ele>602.0</ele>
        <time>2018-09-16T09:58:38Z</time>
      </trkpt>
      <trkpt lat="39.2973530" lon="-0.7653320">
        <ele>602.0</ele>
        <time>2018-09-16T09:58:39Z</time>
      </trkpt>
      <trkpt lat="39.2973920" lon="-0.7653270">
        <ele>603.0</ele>
        <time>2018-09-16T09:58:40Z</time>
      </trkpt>
      <trkpt lat="39.2974100" lon="-0.7653270">
        <ele>603.0</ele>
        <time>2018-09-16T09:58:41Z</time>
      </trkpt>
      <trkpt lat="39.2974100" lon="-0.7653270">
        <ele>603.0</ele>
        <time>2018-09-16T09:58:42Z</time>
      </trkpt>
      <trkpt lat="39.2974500" lon="-0.7653280">
        <ele>603.0</ele>
        <time>2018-09-16T09:58:43Z</time>
      </trkpt>
      <trkpt lat="39.2974500" lon="-0.7653280">
        <ele>603.0</ele>
        <time>2018-09-16T09:58:44Z</time>
      </trkpt>
      <trkpt lat="39.2974920" lon="-0.7653320">
        <ele>603.0</ele>
        <time>2018-09-16T09:58:45Z</time>
      </trkpt>
      <trkpt lat="39.2975120" lon="-0.7653370">
        <ele>603.0</ele>
        <time>2018-09-16T09:58:46Z</time>
      </trkpt>
      <trkpt lat="39.2975120" lon="-0.7653370">
        <ele>604.0</ele>
        <time>2018-09-16T09:58:47Z</time>
      </trkpt>
      <trkpt lat="39.2975550" lon="-0.7653550">
        <ele>604.0</ele>
        <time>2018-09-16T09:58:48Z</time>
      </trkpt>
      <trkpt lat="39.2975770" lon="-0.7653670">
        <ele>604.0</ele>
        <time>2018-09-16T09:58:49Z</time>
      </trkpt>
      <trkpt lat="39.2975770" lon="-0.7653670">
        <ele>604.0</ele>
        <time>2018-09-16T09:58:50Z</time>
      </trkpt>
      <trkpt lat="39.2976150" lon="-0.7653970">
        <ele>604.0</ele>
        <time>2018-09-16T09:58:51Z</time>
      </trkpt>
      <trkpt lat="39.2976150" lon="-0.7653970">
        <ele>604.0</ele>
        <time>2018-09-16T09:58:52Z</time>
      </trkpt>
      <trkpt lat="39.2976530" lon="-0.7654270">
        <ele>605.0</ele>
        <time>2018-09-16T09:58:53Z</time>
      </trkpt>
      <trkpt lat="39.2976700" lon="-0.7654470">
        <ele>605.0</ele>
        <time>2018-09-16T09:58:54Z</time>
      </trkpt>
      <trkpt lat="39.2976880" lon="-0.7654670">
        <ele>605.0</ele>
        <time>2018-09-16T09:58:55Z</time>
      </trkpt>
      <trkpt lat="39.2976880" lon="-0.7654670">
        <ele>605.0</ele>
        <time>2018-09-16T09:58:56Z</time>
      </trkpt>
      <trkpt lat="39.2977220" lon="-0.7655080">
        <ele>605.0</ele>
        <time>2018-09-16T09:58:57Z</time>
      </trkpt>
      <trkpt lat="39.2977370" lon="-0.7655300">
        <ele>605.0</ele>
        <time>2018-09-16T09:58:58Z</time>
      </trkpt>
      <trkpt lat="39.2977370" lon="-0.7655300">
        <ele>606.0</ele>
        <time>2018-09-16T09:58:59Z</time>
      </trkpt>
      <trkpt lat="39.2977650" lon="-0.7655680">
        <ele>606.0</ele>
        <time>2018-09-16T09:59:00Z</time>
      </trkpt>
      <trkpt lat="39.2977770" lon="-0.7655880">
        <ele>606.0</ele>
        <time>2018-09-16T09:59:01Z</time>
      </trkpt>
      <trkpt lat="39.2977770" lon="-0.7655880">
        <ele>606.0</ele>
        <time>2018-09-16T09:59:02Z</time>
      </trkpt>
      <trkpt lat="39.2977880" lon="-0.7656400">
        <ele>606.0</ele>
        <time>2018-09-16T09:59:03Z</time>
      </trkpt>
      <trkpt lat="39.2977920" lon="-0.7656700">
        <ele>606.0</ele>
        <time>2018-09-16T09:59:04Z</time>
      </trkpt>
      <trkpt lat="39.2977920" lon="-0.7656700">
        <ele>606.0</ele>
        <time>2018-09-16T09:59:05Z</time>
      </trkpt>
      <trkpt lat="39.2978020" lon="-0.7657250">
        <ele>606.0</ele>
        <time>2018-09-16T09:59:06Z</time>
      </trkpt>
      <trkpt lat="39.2978070" lon="-0.7657550">
        <ele>607.0</ele>
        <time>2018-09-16T09:59:07Z</time>
      </trkpt>
      <trkpt lat="39.2978070" lon="-0.7657550">
        <ele>607.0</ele>
        <time>2018-09-16T09:59:08Z</time>
      </trkpt>
      <trkpt lat="39.2978150" lon="-0.7658150">
        <ele>607.0</ele>
        <time>2018-09-16T09:59:09Z</time>
      </trkpt>
      <trkpt lat="39.2978150" lon="-0.7658150">
        <ele>607.0</ele>
        <time>2018-09-16T09:59:10Z</time>
      </trkpt>
      <trkpt lat="39.2978200" lon="-0.7658750">
        <ele>608.0</ele>
        <time>2018-09-16T09:59:11Z</time>
      </trkpt>
      <trkpt lat="39.2978200" lon="-0.7658750">
        <ele>608.0</ele>
        <time>2018-09-16T09:59:12Z</time>
      </trkpt>
      <trkpt lat="39.2978270" lon="-0.7659320">
        <ele>608.0</ele>
        <time>2018-09-16T09:59:13Z</time>
      </trkpt>
      <trkpt lat="39.2978270" lon="-0.7659320">
        <ele>608.0</ele>
        <time>2018-09-16T09:59:14Z</time>
      </trkpt>
      <trkpt lat="39.2978330" lon="-0.7659900">
        <ele>608.0</ele>
        <time>2018-09-16T09:59:15Z</time>
      </trkpt>
      <trkpt lat="39.2978330" lon="-0.7659900">
        <ele>608.0</ele>
        <time>2018-09-16T09:59:16Z</time>
      </trkpt>
      <trkpt lat="39.2978370" lon="-0.7660500">
        <ele>608.0</ele>
        <time>2018-09-16T09:59:17Z</time>
      </trkpt>
      <trkpt lat="39.2978370" lon="-0.7660800">
        <ele>608.0</ele>
        <time>2018-09-16T09:59:18Z</time>
      </trkpt>
      <trkpt lat="39.2978380" lon="-0.7661120">
        <ele>608.0</ele>
        <time>2018-09-16T09:59:19Z</time>
      </trkpt>
      <trkpt lat="39.2978380" lon="-0.7661120">
        <ele>609.0</ele>
        <time>2018-09-16T09:59:20Z</time>
      </trkpt>
      <trkpt lat="39.2978420" lon="-0.7661700">
        <ele>609.0</ele>
        <time>2018-09-16T09:59:21Z</time>
      </trkpt>
      <trkpt lat="39.2978420" lon="-0.7661700">
        <ele>609.0</ele>
        <time>2018-09-16T09:59:22Z</time>
      </trkpt>
      <trkpt lat="39.2978480" lon="-0.7662280">
        <ele>609.0</ele>
        <time>2018-09-16T09:59:23Z</time>
      </trkpt>
      <trkpt lat="39.2978520" lon="-0.7662580">
        <ele>609.0</ele>
        <time>2018-09-16T09:59:24Z</time>
      </trkpt>
      <trkpt lat="39.2978570" lon="-0.7662880">
        <ele>609.0</ele>
        <time>2018-09-16T09:59:25Z</time>
      </trkpt>
      <trkpt lat="39.2978570" lon="-0.7662880">
        <ele>609.0</ele>
        <time>2018-09-16T09:59:26Z</time>
      </trkpt>
      <trkpt lat="39.2978730" lon="-0.7663470">
        <ele>609.0</ele>
        <time>2018-09-16T09:59:27Z</time>
      </trkpt>
      <trkpt lat="39.2978830" lon="-0.7663750">
        <ele>609.0</ele>
        <time>2018-09-16T09:59:28Z</time>
      </trkpt>
      <trkpt lat="39.2978930" lon="-0.7664030">
        <ele>609.0</ele>
        <time>2018-09-16T09:59:29Z</time>
      </trkpt>
      <trkpt lat="39.2978930" lon="-0.7664030">
        <ele>609.0</ele>
        <time>2018-09-16T09:59:30Z</time>
      </trkpt>
      <trkpt lat="39.2979180" lon="-0.7664570">
        <ele>610.0</ele>
        <time>2018-09-16T09:59:31Z</time>
      </trkpt>
      <trkpt lat="39.2979180" lon="-0.7664570">
        <ele>610.0</ele>
        <time>2018-09-16T09:59:32Z</time>
      </trkpt>
      <trkpt lat="39.2979420" lon="-0.7665070">
        <ele>610.0</ele>
        <time>2018-09-16T09:59:33Z</time>
      </trkpt>
      <trkpt lat="39.2979420" lon="-0.7665070">
        <ele>610.0</ele>
        <time>2018-09-16T09:59:34Z</time>
      </trkpt>
      <trkpt lat="39.2979680" lon="-0.7665550">
        <ele>610.0</ele>
        <time>2018-09-16T09:59:35Z</time>
      </trkpt>
      <trkpt lat="39.2979680" lon="-0.7665550">
        <ele>610.0</ele>
        <time>2018-09-16T09:59:36Z</time>
      </trkpt>
      <trkpt lat="39.2979880" lon="-0.7666070">
        <ele>610.0</ele>
        <time>2018-09-16T09:59:37Z</time>
      </trkpt>
      <trkpt lat="39.2979950" lon="-0.7666350">
        <ele>610.0</ele>
        <time>2018-09-16T09:59:38Z</time>
      </trkpt>
      <trkpt lat="39.2979950" lon="-0.7666350">
        <ele>610.0</ele>
        <time>2018-09-16T09:59:39Z</time>
      </trkpt>
      <trkpt lat="39.2980100" lon="-0.7666900">
        <ele>610.0</ele>
        <time>2018-09-16T09:59:40Z</time>
      </trkpt>
      <trkpt lat="39.2980180" lon="-0.7667180">
        <ele>610.0</ele>
        <time>2018-09-16T09:59:41Z</time>
      </trkpt>
      <trkpt lat="39.2980280" lon="-0.7667470">
        <ele>610.0</ele>
        <time>2018-09-16T09:59:42Z</time>
      </trkpt>
      <trkpt lat="39.2980280" lon="-0.7667470">
        <ele>610.0</ele>
        <time>2018-09-16T09:59:43Z</time>
      </trkpt>
      <trkpt lat="39.2980450" lon="-0.7668030">
        <ele>611.0</ele>
        <time>2018-09-16T09:59:44Z</time>
      </trkpt>
      <trkpt lat="39.2980450" lon="-0.7668030">
        <ele>611.0</ele>
        <time>2018-09-16T09:59:45Z</time>
      </trkpt>
      <trkpt lat="39.2980670" lon="-0.7668550">
        <ele>611.0</ele>
        <time>2018-09-16T09:59:46Z</time>
      </trkpt>
      <trkpt lat="39.2980670" lon="-0.7668550">
        <ele>611.0</ele>
        <time>2018-09-16T09:59:47Z</time>
      </trkpt>
      <trkpt lat="39.2980970" lon="-0.7669030">
        <ele>611.0</ele>
        <time>2018-09-16T09:59:48Z</time>
      </trkpt>
      <trkpt lat="39.2980970" lon="-0.7669030">
        <ele>611.0</ele>
        <time>2018-09-16T09:59:49Z</time>
      </trkpt>
      <trkpt lat="39.2981250" lon="-0.7669480">
        <ele>612.0</ele>
        <time>2018-09-16T09:59:50Z</time>
      </trkpt>
      <trkpt lat="39.2981250" lon="-0.7669480">
        <ele>612.0</ele>
        <time>2018-09-16T09:59:51Z</time>
      </trkpt>
      <trkpt lat="39.2981480" lon="-0.7670000">
        <ele>612.0</ele>
        <time>2018-09-16T09:59:52Z</time>
      </trkpt>
      <trkpt lat="39.2981480" lon="-0.7670000">
        <ele>612.0</ele>
        <time>2018-09-16T09:59:53Z</time>
      </trkpt>
      <trkpt lat="39.2981650" lon="-0.7670550">
        <ele>613.0</ele>
        <time>2018-09-16T09:59:54Z</time>
      </trkpt>
      <trkpt lat="39.2981720" lon="-0.7670820">
        <ele>613.0</ele>
        <time>2018-09-16T09:59:55Z</time>
      </trkpt>
      <trkpt lat="39.2981720" lon="-0.7670820">
        <ele>613.0</ele>
        <time>2018-09-16T09:59:56Z</time>
      </trkpt>
      <trkpt lat="39.2981850" lon="-0.7671330">
        <ele>613.0</ele>
        <time>2018-09-16T09:59:57Z</time>
      </trkpt>
      <trkpt lat="39.2981850" lon="-0.7671330">
        <ele>613.0</ele>
        <time>2018-09-16T09:59:58Z</time>
      </trkpt>
      <trkpt lat="39.2981970" lon="-0.7671880">
        <ele>613.0</ele>
        <time>2018-09-16T09:59:59Z</time>
      </trkpt>
      <trkpt lat="39.2981970" lon="-0.7671880">
        <ele>613.0</ele>
        <time>2018-09-16T10:00:00Z</time>
      </trkpt>
      <trkpt lat="39.2982150" lon="-0.7672430">
        <ele>613.0</ele>
        <time>2018-09-16T10:00:01Z</time>
      </trkpt>
      <trkpt lat="39.2982150" lon="-0.7672430">
        <ele>614.0</ele>
        <time>2018-09-16T10:00:02Z</time>
      </trkpt>
      <trkpt lat="39.2982370" lon="-0.7672980">
        <ele>614.0</ele>
        <time>2018-09-16T10:00:03Z</time>
      </trkpt>
      <trkpt lat="39.2982370" lon="-0.7672980">
        <ele>614.0</ele>
        <time>2018-09-16T10:00:04Z</time>
      </trkpt>
      <trkpt lat="39.2982630" lon="-0.7673550">
        <ele>614.0</ele>
        <time>2018-09-16T10:00:05Z</time>
      </trkpt>
      <trkpt lat="39.2982630" lon="-0.7673550">
        <ele>614.0</ele>
        <time>2018-09-16T10:00:06Z</time>
      </trkpt>
      <trkpt lat="39.2982920" lon="-0.7674150">
        <ele>614.0</ele>
        <time>2018-09-16T10:00:07Z</time>
      </trkpt>
      <trkpt lat="39.2982920" lon="-0.7674150">
        <ele>614.0</ele>
        <time>2018-09-16T10:00:08Z</time>
      </trkpt>
      <trkpt lat="39.2983300" lon="-0.7674720">
        <ele>614.0</ele>
        <time>2018-09-16T10:00:09Z</time>
      </trkpt>
      <trkpt lat="39.2983300" lon="-0.7674720">
        <ele>614.0</ele>
        <time>2018-09-16T10:00:10Z</time>
      </trkpt>
      <trkpt lat="39.2983770" lon="-0.7675420">
        <ele>614.0</ele>
        <time>2018-09-16T10:00:11Z</time>
      </trkpt>
      <trkpt lat="39.2983770" lon="-0.7675420">
        <ele>614.0</ele>
        <time>2018-09-16T10:00:12Z</time>
      </trkpt>
      <trkpt lat="39.2984250" lon="-0.7676220">
        <ele>614.0</ele>
        <time>2018-09-16T10:00:13Z</time>
      </trkpt>
      <trkpt lat="39.2984250" lon="-0.7676220">
        <ele>614.0</ele>
        <time>2018-09-16T10:00:14Z</time>
      </trkpt>
      <trkpt lat="39.2984720" lon="-0.7677000">
        <ele>614.0</ele>
        <time>2018-09-16T10:00:15Z</time>
      </trkpt>
      <trkpt lat="39.2984720" lon="-0.7677000">
        <ele>614.0</ele>
        <time>2018-09-16T10:00:16Z</time>
      </trkpt>
      <trkpt lat="39.2985180" lon="-0.7677830">
        <ele>614.0</ele>
        <time>2018-09-16T10:00:17Z</time>
      </trkpt>
      <trkpt lat="39.2985380" lon="-0.7678250">
        <ele>614.0</ele>
        <time>2018-09-16T10:00:18Z</time>
      </trkpt>
      <trkpt lat="39.2985380" lon="-0.7678250">
        <ele>614.0</ele>
        <time>2018-09-16T10:00:19Z</time>
      </trkpt>
      <trkpt lat="39.2985770" lon="-0.7679020">
        <ele>614.0</ele>
        <time>2018-09-16T10:00:20Z</time>
      </trkpt>
      <trkpt lat="39.2985770" lon="-0.7679020">
        <ele>613.0</ele>
        <time>2018-09-16T10:00:21Z</time>
      </trkpt>
      <trkpt lat="39.2986070" lon="-0.7679670">
        <ele>613.0</ele>
        <time>2018-09-16T10:00:22Z</time>
      </trkpt>
      <trkpt lat="39.2986070" lon="-0.7679670">
        <ele>613.0</ele>
        <time>2018-09-16T10:00:23Z</time>
      </trkpt>
      <trkpt lat="39.2986440" lon="-0.7680330">
        <ele>613.0</ele>
        <time>2018-09-16T10:00:24Z</time>
      </trkpt>
      <trkpt lat="39.2986500" lon="-0.7680480">
        <ele>613.0</ele>
        <time>2018-09-16T10:00:25Z</time>
      </trkpt>
      <trkpt lat="39.2986500" lon="-0.7680480">
        <ele>613.0</ele>
        <time>2018-09-16T10:00:26Z</time>
      </trkpt>
      <trkpt lat="39.2986800" lon="-0.7681130">
        <ele>613.0</ele>
        <time>2018-09-16T10:00:27Z</time>
      </trkpt>
      <trkpt lat="39.2986800" lon="-0.7681130">
        <ele>613.0</ele>
        <time>2018-09-16T10:00:28Z</time>
      </trkpt>
      <trkpt lat="39.2987080" lon="-0.7681780">
        <ele>613.0</ele>
        <time>2018-09-16T10:00:29Z</time>
      </trkpt>
      <trkpt lat="39.2987080" lon="-0.7681780">
        <ele>613.0</ele>
        <time>2018-09-16T10:00:30Z</time>
      </trkpt>
      <trkpt lat="39.2987420" lon="-0.7682370">
        <ele>613.0</ele>
        <time>2018-09-16T10:00:31Z</time>
      </trkpt>
      <trkpt lat="39.2987420" lon="-0.7682370">
        <ele>613.0</ele>
        <time>2018-09-16T10:00:32Z</time>
      </trkpt>
      <trkpt lat="39.2987750" lon="-0.7682900">
        <ele>613.0</ele>
        <time>2018-09-16T10:00:33Z</time>
      </trkpt>
      <trkpt lat="39.2987750" lon="-0.7682900">
        <ele>614.0</ele>
        <time>2018-09-16T10:00:34Z</time>
      </trkpt>
      <trkpt lat="39.2988070" lon="-0.7683430">
        <ele>614.0</ele>
        <time>2018-09-16T10:00:35Z</time>
      </trkpt>
      <trkpt lat="39.2988070" lon="-0.7683430">
        <ele>614.0</ele>
        <time>2018-09-16T10:00:36Z</time>
      </trkpt>
      <trkpt lat="39.2988420" lon="-0.7683950">
        <ele>614.0</ele>
        <time>2018-09-16T10:00:37Z</time>
      </trkpt>
      <trkpt lat="39.2988420" lon="-0.7683950">
        <ele>615.0</ele>
        <time>2018-09-16T10:00:38Z</time>
      </trkpt>
      <trkpt lat="39.2988720" lon="-0.7684480">
        <ele>615.0</ele>
        <time>2018-09-16T10:00:39Z</time>
      </trkpt>
      <trkpt lat="39.2988720" lon="-0.7684480">
        <ele>615.0</ele>
        <time>2018-09-16T10:00:40Z</time>
      </trkpt>
      <trkpt lat="39.2989020" lon="-0.7685050">
        <ele>615.0</ele>
        <time>2018-09-16T10:00:41Z</time>
      </trkpt>
      <trkpt lat="39.2989020" lon="-0.7685050">
        <ele>615.0</ele>
        <time>2018-09-16T10:00:42Z</time>
      </trkpt>
      <trkpt lat="39.2989270" lon="-0.7685630">
        <ele>615.0</ele>
        <time>2018-09-16T10:00:43Z</time>
      </trkpt>
      <trkpt lat="39.2989270" lon="-0.7685630">
        <ele>615.0</ele>
        <time>2018-09-16T10:00:44Z</time>
      </trkpt>
      <trkpt lat="39.2989470" lon="-0.7686250">
        <ele>615.0</ele>
        <time>2018-09-16T10:00:45Z</time>
      </trkpt>
      <trkpt lat="39.2989470" lon="-0.7686250">
        <ele>615.0</ele>
        <time>2018-09-16T10:00:46Z</time>
      </trkpt>
      <trkpt lat="39.2989600" lon="-0.7686770">
        <ele>615.0</ele>
        <time>2018-09-16T10:00:47Z</time>
      </trkpt>
      <trkpt lat="39.2989600" lon="-0.7686770">
        <ele>615.0</ele>
        <time>2018-09-16T10:00:48Z</time>
      </trkpt>
      <trkpt lat="39.2989720" lon="-0.7687270">
        <ele>615.0</ele>
        <time>2018-09-16T10:00:49Z</time>
      </trkpt>
      <trkpt lat="39.2989720" lon="-0.7687270">
        <ele>615.0</ele>
        <time>2018-09-16T10:00:50Z</time>
      </trkpt>
      <trkpt lat="39.2989820" lon="-0.7687730">
        <ele>615.0</ele>
        <time>2018-09-16T10:00:51Z</time>
      </trkpt>
      <trkpt lat="39.2989820" lon="-0.7687730">
        <ele>616.0</ele>
        <time>2018-09-16T10:00:52Z</time>
      </trkpt>
      <trkpt lat="39.2989950" lon="-0.7688180">
        <ele>616.0</ele>
        <time>2018-09-16T10:00:53Z</time>
      </trkpt>
      <trkpt lat="39.2989950" lon="-0.7688180">
        <ele>616.0</ele>
        <time>2018-09-16T10:00:54Z</time>
      </trkpt>
      <trkpt lat="39.2990080" lon="-0.7688650">
        <ele>616.0</ele>
        <time>2018-09-16T10:00:55Z</time>
      </trkpt>
      <trkpt lat="39.2990080" lon="-0.7688650">
        <ele>617.0</ele>
        <time>2018-09-16T10:00:56Z</time>
      </trkpt>
      <trkpt lat="39.2990180" lon="-0.7689050">
        <ele>617.0</ele>
        <time>2018-09-16T10:00:57Z</time>
      </trkpt>
      <trkpt lat="39.2990180" lon="-0.7689050">
        <ele>617.0</ele>
        <time>2018-09-16T10:00:58Z</time>
      </trkpt>
      <trkpt lat="39.2990250" lon="-0.7689480">
        <ele>617.0</ele>
        <time>2018-09-16T10:00:59Z</time>
      </trkpt>
      <trkpt lat="39.2990300" lon="-0.7689680">
        <ele>618.0</ele>
        <time>2018-09-16T10:01:00Z</time>
      </trkpt>
      <trkpt lat="39.2990300" lon="-0.7689680">
        <ele>618.0</ele>
        <time>2018-09-16T10:01:01Z</time>
      </trkpt>
      <trkpt lat="39.2990380" lon="-0.7690120">
        <ele>618.0</ele>
        <time>2018-09-16T10:01:02Z</time>
      </trkpt>
      <trkpt lat="39.2990430" lon="-0.7690400">
        <ele>618.0</ele>
        <time>2018-09-16T10:01:03Z</time>
      </trkpt>
      <trkpt lat="39.2990430" lon="-0.7690400">
        <ele>618.0</ele>
        <time>2018-09-16T10:01:04Z</time>
      </trkpt>
      <trkpt lat="39.2990600" lon="-0.7691020">
        <ele>618.0</ele>
        <time>2018-09-16T10:01:05Z</time>
      </trkpt>
      <trkpt lat="39.2990720" lon="-0.7691350">
        <ele>619.0</ele>
        <time>2018-09-16T10:01:06Z</time>
      </trkpt>
      <trkpt lat="39.2990820" lon="-0.7691680">
        <ele>619.0</ele>
        <time>2018-09-16T10:01:07Z</time>
      </trkpt>
      <trkpt lat="39.2990820" lon="-0.7691680">
        <ele>619.0</ele>
        <time>2018-09-16T10:01:08Z</time>
      </trkpt>
      <trkpt lat="39.2990930" lon="-0.7692350">
        <ele>619.0</ele>
        <time>2018-09-16T10:01:09Z</time>
      </trkpt>
      <trkpt lat="39.2990890" lon="-0.7692740">
        <ele>619.0</ele>
        <time>2018-09-16T10:01:10Z</time>
      </trkpt>
      <trkpt lat="39.2990850" lon="-0.7692880">
        <ele>619.0</ele>
        <time>2018-09-16T10:01:11Z</time>
      </trkpt>
      <trkpt lat="39.2990820" lon="-0.7693020">
        <ele>619.0</ele>
        <time>2018-09-16T10:01:12Z</time>
      </trkpt>
      <trkpt lat="39.2990720" lon="-0.7693230">
        <ele>619.0</ele>
        <time>2018-09-16T10:01:13Z</time>
      </trkpt>
      <trkpt lat="39.2990600" lon="-0.7693380">
        <ele>619.0</ele>
        <time>2018-09-16T10:01:14Z</time>
      </trkpt>
      <trkpt lat="39.2990600" lon="-0.7693380">
        <ele>619.0</ele>
        <time>2018-09-16T10:01:15Z</time>
      </trkpt>
      <trkpt lat="39.2990280" lon="-0.7693550">
        <ele>620.0</ele>
        <time>2018-09-16T10:01:16Z</time>
      </trkpt>
      <trkpt lat="39.2990120" lon="-0.7693620">
        <ele>620.0</ele>
        <time>2018-09-16T10:01:17Z</time>
      </trkpt>
      <trkpt lat="39.2990120" lon="-0.7693620">
        <ele>620.0</ele>
        <time>2018-09-16T10:01:18Z</time>
      </trkpt>
      <trkpt lat="39.2989800" lon="-0.7693830">
        <ele>620.0</ele>
        <time>2018-09-16T10:01:19Z</time>
      </trkpt>
      <trkpt lat="39.2989800" lon="-0.7693830">
        <ele>621.0</ele>
        <time>2018-09-16T10:01:20Z</time>
      </trkpt>
      <trkpt lat="39.2989450" lon="-0.7693980">
        <ele>621.0</ele>
        <time>2018-09-16T10:01:21Z</time>
      </trkpt>
      <trkpt lat="39.2989270" lon="-0.7694030">
        <ele>621.0</ele>
        <time>2018-09-16T10:01:22Z</time>
      </trkpt>
      <trkpt lat="39.2989080" lon="-0.7694070">
        <ele>621.0</ele>
        <time>2018-09-16T10:01:23Z</time>
      </trkpt>
      <trkpt lat="39.2989080" lon="-0.7694070">
        <ele>621.0</ele>
        <time>2018-09-16T10:01:24Z</time>
      </trkpt>
      <trkpt lat="39.2988720" lon="-0.7694130">
        <ele>621.0</ele>
        <time>2018-09-16T10:01:25Z</time>
      </trkpt>
      <trkpt lat="39.2988550" lon="-0.7694170">
        <ele>621.0</ele>
        <time>2018-09-16T10:01:26Z</time>
      </trkpt>
      <trkpt lat="39.2988550" lon="-0.7694170">
        <ele>621.0</ele>
        <time>2018-09-16T10:01:27Z</time>
      </trkpt>
      <trkpt lat="39.2988220" lon="-0.7694250">
        <ele>621.0</ele>
        <time>2018-09-16T10:01:28Z</time>
      </trkpt>
      <trkpt lat="39.2988050" lon="-0.7694320">
        <ele>622.0</ele>
        <time>2018-09-16T10:01:29Z</time>
      </trkpt>
      <trkpt lat="39.2988050" lon="-0.7694320">
        <ele>622.0</ele>
        <time>2018-09-16T10:01:30Z</time>
      </trkpt>
      <trkpt lat="39.2987680" lon="-0.7694500">
        <ele>622.0</ele>
        <time>2018-09-16T10:01:31Z</time>
      </trkpt>
      <trkpt lat="39.2987520" lon="-0.7694600">
        <ele>622.0</ele>
        <time>2018-09-16T10:01:32Z</time>
      </trkpt>
      <trkpt lat="39.2987520" lon="-0.7694600">
        <ele>622.0</ele>
        <time>2018-09-16T10:01:33Z</time>
      </trkpt>
      <trkpt lat="39.2987120" lon="-0.7694820">
        <ele>622.0</ele>
        <time>2018-09-16T10:01:34Z</time>
      </trkpt>
      <trkpt lat="39.2986900" lon="-0.7694950">
        <ele>622.0</ele>
        <time>2018-09-16T10:01:35Z</time>
      </trkpt>
      <trkpt lat="39.2986900" lon="-0.7694950">
        <ele>622.0</ele>
        <time>2018-09-16T10:01:36Z</time>
      </trkpt>
      <trkpt lat="39.2986470" lon="-0.7695220">
        <ele>622.0</ele>
        <time>2018-09-16T10:01:37Z</time>
      </trkpt>
      <trkpt lat="39.2986470" lon="-0.7695220">
        <ele>622.0</ele>
        <time>2018-09-16T10:01:38Z</time>
      </trkpt>
      <trkpt lat="39.2986070" lon="-0.7695530">
        <ele>622.0</ele>
        <time>2018-09-16T10:01:39Z</time>
      </trkpt>
      <trkpt lat="39.2986070" lon="-0.7695530">
        <ele>622.0</ele>
        <time>2018-09-16T10:01:40Z</time>
      </trkpt>
      <trkpt lat="39.2985720" lon="-0.7695880">
        <ele>623.0</ele>
        <time>2018-09-16T10:01:41Z</time>
      </trkpt>
      <trkpt lat="39.2985720" lon="-0.7695880">
        <ele>623.0</ele>
        <time>2018-09-16T10:01:42Z</time>
      </trkpt>
      <trkpt lat="39.2985470" lon="-0.7696370">
        <ele>623.0</ele>
        <time>2018-09-16T10:01:43Z</time>
      </trkpt>
      <trkpt lat="39.2985470" lon="-0.7696370">
        <ele>623.0</ele>
        <time>2018-09-16T10:01:44Z</time>
      </trkpt>
      <trkpt lat="39.2985330" lon="-0.7696970">
        <ele>623.0</ele>
        <time>2018-09-16T10:01:45Z</time>
      </trkpt>
      <trkpt lat="39.2985330" lon="-0.7696970">
        <ele>623.0</ele>
        <time>2018-09-16T10:01:46Z</time>
      </trkpt>
      <trkpt lat="39.2985230" lon="-0.7697570">
        <ele>623.0</ele>
        <time>2018-09-16T10:01:47Z</time>
      </trkpt>
      <trkpt lat="39.2985180" lon="-0.7697870">
        <ele>623.0</ele>
        <time>2018-09-16T10:01:48Z</time>
      </trkpt>
      <trkpt lat="39.2985130" lon="-0.7698170">
        <ele>623.0</ele>
        <time>2018-09-16T10:01:49Z</time>
      </trkpt>
      <trkpt lat="39.2985130" lon="-0.7698170">
        <ele>623.0</ele>
        <time>2018-09-16T10:01:50Z</time>
      </trkpt>
      <trkpt lat="39.2985000" lon="-0.7698720">
        <ele>624.0</ele>
        <time>2018-09-16T10:01:51Z</time>
      </trkpt>
      <trkpt lat="39.2984930" lon="-0.7698980">
        <ele>624.0</ele>
        <time>2018-09-16T10:01:52Z</time>
      </trkpt>
      <trkpt lat="39.2984880" lon="-0.7699270">
        <ele>624.0</ele>
        <time>2018-09-16T10:01:53Z</time>
      </trkpt>
      <trkpt lat="39.2984880" lon="-0.7699270">
        <ele>624.0</ele>
        <time>2018-09-16T10:01:54Z</time>
      </trkpt>
      <trkpt lat="39.2984820" lon="-0.7699930">
        <ele>624.0</ele>
        <time>2018-09-16T10:01:55Z</time>
      </trkpt>
      <trkpt lat="39.2984820" lon="-0.7699930">
        <ele>624.0</ele>
        <time>2018-09-16T10:01:56Z</time>
      </trkpt>
      <trkpt lat="39.2984850" lon="-0.7700730">
        <ele>624.0</ele>
        <time>2018-09-16T10:01:57Z</time>
      </trkpt>
      <trkpt lat="39.2984850" lon="-0.7700730">
        <ele>624.0</ele>
        <time>2018-09-16T10:01:58Z</time>
      </trkpt>
      <trkpt lat="39.2984880" lon="-0.7701750">
        <ele>624.0</ele>
        <time>2018-09-16T10:01:59Z</time>
      </trkpt>
      <trkpt lat="39.2984870" lon="-0.7702350">
        <ele>624.0</ele>
        <time>2018-09-16T10:02:00Z</time>
      </trkpt>
      <trkpt lat="39.2984870" lon="-0.7702350">
        <ele>624.0</ele>
        <time>2018-09-16T10:02:01Z</time>
      </trkpt>
      <trkpt lat="39.2984700" lon="-0.7703630">
        <ele>623.0</ele>
        <time>2018-09-16T10:02:02Z</time>
      </trkpt>
      <trkpt lat="39.2984700" lon="-0.7703630">
        <ele>623.0</ele>
        <time>2018-09-16T10:02:03Z</time>
      </trkpt>
      <trkpt lat="39.2984530" lon="-0.7704920">
        <ele>623.0</ele>
        <time>2018-09-16T10:02:04Z</time>
      </trkpt>
      <trkpt lat="39.2984470" lon="-0.7705550">
        <ele>623.0</ele>
        <time>2018-09-16T10:02:05Z</time>
      </trkpt>
      <trkpt lat="39.2984470" lon="-0.7705550">
        <ele>623.0</ele>
        <time>2018-09-16T10:02:06Z</time>
      </trkpt>
      <trkpt lat="39.2984350" lon="-0.7706780">
        <ele>623.0</ele>
        <time>2018-09-16T10:02:07Z</time>
      </trkpt>
      <trkpt lat="39.2984350" lon="-0.7706780">
        <ele>622.0</ele>
        <time>2018-09-16T10:02:08Z</time>
      </trkpt>
      <trkpt lat="39.2984330" lon="-0.7707930">
        <ele>622.0</ele>
        <time>2018-09-16T10:02:09Z</time>
      </trkpt>
      <trkpt lat="39.2984330" lon="-0.7707930">
        <ele>622.0</ele>
        <time>2018-09-16T10:02:10Z</time>
      </trkpt>
      <trkpt lat="39.2984380" lon="-0.7708900">
        <ele>622.0</ele>
        <time>2018-09-16T10:02:11Z</time>
      </trkpt>
      <trkpt lat="39.2984430" lon="-0.7709330">
        <ele>622.0</ele>
        <time>2018-09-16T10:02:12Z</time>
      </trkpt>
      <trkpt lat="39.2984470" lon="-0.7709770">
        <ele>622.0</ele>
        <time>2018-09-16T10:02:13Z</time>
      </trkpt>
      <trkpt lat="39.2984470" lon="-0.7709770">
        <ele>622.0</ele>
        <time>2018-09-16T10:02:14Z</time>
      </trkpt>
      <trkpt lat="39.2984550" lon="-0.7710530">
        <ele>622.0</ele>
        <time>2018-09-16T10:02:15Z</time>
      </trkpt>
      <trkpt lat="39.2984570" lon="-0.7710880">
        <ele>622.0</ele>
        <time>2018-09-16T10:02:16Z</time>
      </trkpt>
      <trkpt lat="39.2984570" lon="-0.7710880">
        <ele>622.0</ele>
        <time>2018-09-16T10:02:17Z</time>
      </trkpt>
      <trkpt lat="39.2984600" lon="-0.7711630">
        <ele>622.0</ele>
        <time>2018-09-16T10:02:18Z</time>
      </trkpt>
      <trkpt lat="39.2984600" lon="-0.7711630">
        <ele>622.0</ele>
        <time>2018-09-16T10:02:19Z</time>
      </trkpt>
      <trkpt lat="39.2984520" lon="-0.7712380">
        <ele>622.0</ele>
        <time>2018-09-16T10:02:20Z</time>
      </trkpt>
      <trkpt lat="39.2984430" lon="-0.7712770">
        <ele>622.0</ele>
        <time>2018-09-16T10:02:21Z</time>
      </trkpt>
      <trkpt lat="39.2984430" lon="-0.7712770">
        <ele>622.0</ele>
        <time>2018-09-16T10:02:22Z</time>
      </trkpt>
      <trkpt lat="39.2984270" lon="-0.7713550">
        <ele>622.0</ele>
        <time>2018-09-16T10:02:23Z</time>
      </trkpt>
      <trkpt lat="39.2984270" lon="-0.7713550">
        <ele>622.0</ele>
        <time>2018-09-16T10:02:24Z</time>
      </trkpt>
      <trkpt lat="39.2984070" lon="-0.7714300">
        <ele>622.0</ele>
        <time>2018-09-16T10:02:25Z</time>
      </trkpt>
      <trkpt lat="39.2983950" lon="-0.7714670">
        <ele>622.0</ele>
        <time>2018-09-16T10:02:26Z</time>
      </trkpt>
      <trkpt lat="39.2983950" lon="-0.7714670">
        <ele>622.0</ele>
        <time>2018-09-16T10:02:27Z</time>
      </trkpt>
      <trkpt lat="39.2983750" lon="-0.7715370">
        <ele>622.0</ele>
        <time>2018-09-16T10:02:28Z</time>
      </trkpt>
      <trkpt lat="39.2983650" lon="-0.7715730">
        <ele>622.0</ele>
        <time>2018-09-16T10:02:29Z</time>
      </trkpt>
      <trkpt lat="39.2983650" lon="-0.7715730">
        <ele>622.0</ele>
        <time>2018-09-16T10:02:30Z</time>
      </trkpt>
      <trkpt lat="39.2983380" lon="-0.7716530">
        <ele>622.0</ele>
        <time>2018-09-16T10:02:31Z</time>
      </trkpt>
      <trkpt lat="39.2983380" lon="-0.7716530">
        <ele>622.0</ele>
        <time>2018-09-16T10:02:32Z</time>
      </trkpt>
      <trkpt lat="39.2983030" lon="-0.7717500">
        <ele>622.0</ele>
        <time>2018-09-16T10:02:33Z</time>
      </trkpt>
      <trkpt lat="39.2983030" lon="-0.7717500">
        <ele>622.0</ele>
        <time>2018-09-16T10:02:34Z</time>
      </trkpt>
      <trkpt lat="39.2982600" lon="-0.7718620">
        <ele>622.0</ele>
        <time>2018-09-16T10:02:35Z</time>
      </trkpt>
      <trkpt lat="39.2982600" lon="-0.7718620">
        <ele>622.0</ele>
        <time>2018-09-16T10:02:36Z</time>
      </trkpt>
      <trkpt lat="39.2982180" lon="-0.7719850">
        <ele>622.0</ele>
        <time>2018-09-16T10:02:37Z</time>
      </trkpt>
      <trkpt lat="39.2982180" lon="-0.7719850">
        <ele>621.0</ele>
        <time>2018-09-16T10:02:38Z</time>
      </trkpt>
      <trkpt lat="39.2981880" lon="-0.7721170">
        <ele>621.0</ele>
        <time>2018-09-16T10:02:39Z</time>
      </trkpt>
      <trkpt lat="39.2981880" lon="-0.7721170">
        <ele>621.0</ele>
        <time>2018-09-16T10:02:40Z</time>
      </trkpt>
      <trkpt lat="39.2981720" lon="-0.7722550">
        <ele>621.0</ele>
        <time>2018-09-16T10:02:41Z</time>
      </trkpt>
      <trkpt lat="39.2981620" lon="-0.7723270">
        <ele>621.0</ele>
        <time>2018-09-16T10:02:42Z</time>
      </trkpt>
      <trkpt lat="39.2981480" lon="-0.7724020">
        <ele>621.0</ele>
        <time>2018-09-16T10:02:43Z</time>
      </trkpt>
      <trkpt lat="39.2981480" lon="-0.7724020">
        <ele>620.0</ele>
        <time>2018-09-16T10:02:44Z</time>
      </trkpt>
      <trkpt lat="39.2981200" lon="-0.7725370">
        <ele>620.0</ele>
        <time>2018-09-16T10:02:45Z</time>
      </trkpt>
      <trkpt lat="39.2981130" lon="-0.7725900">
        <ele>620.0</ele>
        <time>2018-09-16T10:02:46Z</time>
      </trkpt>
      <trkpt lat="39.2981110" lon="-0.7726240">
        <ele>620.0</ele>
        <time>2018-09-16T10:02:47Z</time>
      </trkpt>
      <trkpt lat="39.2981080" lon="-0.7726570">
        <ele>620.0</ele>
        <time>2018-09-16T10:02:48Z</time>
      </trkpt>
      <trkpt lat="39.2981080" lon="-0.7726770">
        <ele>620.0</ele>
        <time>2018-09-16T10:02:49Z</time>
      </trkpt>
      <trkpt lat="39.2981100" lon="-0.7726970">
        <ele>620.0</ele>
        <time>2018-09-16T10:02:50Z</time>
      </trkpt>
      <trkpt lat="39.2981100" lon="-0.7726970">
        <ele>620.0</ele>
        <time>2018-09-16T10:02:51Z</time>
      </trkpt>
      <trkpt lat="39.2981150" lon="-0.7727380">
        <ele>620.0</ele>
        <time>2018-09-16T10:02:52Z</time>
      </trkpt>
      <trkpt lat="39.2981220" lon="-0.7727570">
        <ele>621.0</ele>
        <time>2018-09-16T10:02:53Z</time>
      </trkpt>
      <trkpt lat="39.2981220" lon="-0.7727570">
        <ele>621.0</ele>
        <time>2018-09-16T10:02:54Z</time>
      </trkpt>
      <trkpt lat="39.2981330" lon="-0.7727950">
        <ele>621.0</ele>
        <time>2018-09-16T10:02:55Z</time>
      </trkpt>
      <trkpt lat="39.2981330" lon="-0.7727950">
        <ele>621.0</ele>
        <time>2018-09-16T10:02:56Z</time>
      </trkpt>
      <trkpt lat="39.2981450" lon="-0.7728300">
        <ele>622.0</ele>
        <time>2018-09-16T10:02:57Z</time>
      </trkpt>
      <trkpt lat="39.2981520" lon="-0.7728480">
        <ele>622.0</ele>
        <time>2018-09-16T10:02:58Z</time>
      </trkpt>
      <trkpt lat="39.2981520" lon="-0.7728480">
        <ele>622.0</ele>
        <time>2018-09-16T10:02:59Z</time>
      </trkpt>
      <trkpt lat="39.2981630" lon="-0.7728870">
        <ele>622.0</ele>
        <time>2018-09-16T10:03:00Z</time>
      </trkpt>
      <trkpt lat="39.2981700" lon="-0.7729030">
        <ele>623.0</ele>
        <time>2018-09-16T10:03:01Z</time>
      </trkpt>
      <trkpt lat="39.2981700" lon="-0.7729030">
        <ele>623.0</ele>
        <time>2018-09-16T10:03:02Z</time>
      </trkpt>
      <trkpt lat="39.2981820" lon="-0.7729400">
        <ele>623.0</ele>
        <time>2018-09-16T10:03:03Z</time>
      </trkpt>
      <trkpt lat="39.2981820" lon="-0.7729400">
        <ele>623.0</ele>
        <time>2018-09-16T10:03:04Z</time>
      </trkpt>
      <trkpt lat="39.2981930" lon="-0.7729770">
        <ele>624.0</ele>
        <time>2018-09-16T10:03:05Z</time>
      </trkpt>
      <trkpt lat="39.2981930" lon="-0.7729770">
        <ele>624.0</ele>
        <time>2018-09-16T10:03:06Z</time>
      </trkpt>
      <trkpt lat="39.2982080" lon="-0.7730070">
        <ele>624.0</ele>
        <time>2018-09-16T10:03:07Z</time>
      </trkpt>
      <trkpt lat="39.2982080" lon="-0.7730070">
        <ele>624.0</ele>
        <time>2018-09-16T10:03:08Z</time>
      </trkpt>
      <trkpt lat="39.2982280" lon="-0.7730370">
        <ele>624.0</ele>
        <time>2018-09-16T10:03:09Z</time>
      </trkpt>
      <trkpt lat="39.2982280" lon="-0.7730370">
        <ele>625.0</ele>
        <time>2018-09-16T10:03:10Z</time>
      </trkpt>
      <trkpt lat="39.2982480" lon="-0.7730650">
        <ele>625.0</ele>
        <time>2018-09-16T10:03:11Z</time>
      </trkpt>
      <trkpt lat="39.2982480" lon="-0.7730650">
        <ele>625.0</ele>
        <time>2018-09-16T10:03:12Z</time>
      </trkpt>
      <trkpt lat="39.2982630" lon="-0.7730950">
        <ele>626.0</ele>
        <time>2018-09-16T10:03:13Z</time>
      </trkpt>
      <trkpt lat="39.2982630" lon="-0.7730950">
        <ele>626.0</ele>
        <time>2018-09-16T10:03:14Z</time>
      </trkpt>
      <trkpt lat="39.2982770" lon="-0.7731280">
        <ele>626.0</ele>
        <time>2018-09-16T10:03:15Z</time>
      </trkpt>
      <trkpt lat="39.2982770" lon="-0.7731280">
        <ele>626.0</ele>
        <time>2018-09-16T10:03:16Z</time>
      </trkpt>
      <trkpt lat="39.2982870" lon="-0.7731600">
        <ele>627.0</ele>
        <time>2018-09-16T10:03:17Z</time>
      </trkpt>
      <trkpt lat="39.2982900" lon="-0.7731750">
        <ele>627.0</ele>
        <time>2018-09-16T10:03:18Z</time>
      </trkpt>
      <trkpt lat="39.2982900" lon="-0.7731750">
        <ele>627.0</ele>
        <time>2018-09-16T10:03:19Z</time>
      </trkpt>
      <trkpt lat="39.2982950" lon="-0.7732100">
        <ele>627.0</ele>
        <time>2018-09-16T10:03:20Z</time>
      </trkpt>
      <trkpt lat="39.2982950" lon="-0.7732100">
        <ele>628.0</ele>
        <time>2018-09-16T10:03:21Z</time>
      </trkpt>
      <trkpt lat="39.2983030" lon="-0.7732430">
        <ele>628.0</ele>
        <time>2018-09-16T10:03:22Z</time>
      </trkpt>
      <trkpt lat="39.2983080" lon="-0.7732580">
        <ele>628.0</ele>
        <time>2018-09-16T10:03:23Z</time>
      </trkpt>
      <trkpt lat="39.2983080" lon="-0.7732580">
        <ele>628.0</ele>
        <time>2018-09-16T10:03:24Z</time>
      </trkpt>
      <trkpt lat="39.2983150" lon="-0.7732920">
        <ele>629.0</ele>
        <time>2018-09-16T10:03:25Z</time>
      </trkpt>
      <trkpt lat="39.2983150" lon="-0.7732920">
        <ele>629.0</ele>
        <time>2018-09-16T10:03:26Z</time>
      </trkpt>
      <trkpt lat="39.2983170" lon="-0.7733280">
        <ele>629.0</ele>
        <time>2018-09-16T10:03:27Z</time>
      </trkpt>
      <trkpt lat="39.2983170" lon="-0.7733280">
        <ele>629.0</ele>
        <time>2018-09-16T10:03:28Z</time>
      </trkpt>
      <trkpt lat="39.2983170" lon="-0.7733630">
        <ele>629.0</ele>
        <time>2018-09-16T10:03:29Z</time>
      </trkpt>
      <trkpt lat="39.2983130" lon="-0.7733800">
        <ele>629.0</ele>
        <time>2018-09-16T10:03:30Z</time>
      </trkpt>
      <trkpt lat="39.2983100" lon="-0.7733970">
        <ele>630.0</ele>
        <time>2018-09-16T10:03:31Z</time>
      </trkpt>
      <trkpt lat="39.2983100" lon="-0.7733970">
        <ele>630.0</ele>
        <time>2018-09-16T10:03:32Z</time>
      </trkpt>
      <trkpt lat="39.2983070" lon="-0.7734300">
        <ele>630.0</ele>
        <time>2018-09-16T10:03:33Z</time>
      </trkpt>
      <trkpt lat="39.2983030" lon="-0.7734470">
        <ele>630.0</ele>
        <time>2018-09-16T10:03:34Z</time>
      </trkpt>
      <trkpt lat="39.2982980" lon="-0.7734650">
        <ele>630.0</ele>
        <time>2018-09-16T10:03:35Z</time>
      </trkpt>
      <trkpt lat="39.2982980" lon="-0.7734650">
        <ele>630.0</ele>
        <time>2018-09-16T10:03:36Z</time>
      </trkpt>
      <trkpt lat="39.2982900" lon="-0.7735030">
        <ele>630.0</ele>
        <time>2018-09-16T10:03:37Z</time>
      </trkpt>
      <trkpt lat="39.2982900" lon="-0.7735030">
        <ele>630.0</ele>
        <time>2018-09-16T10:03:38Z</time>
      </trkpt>
      <trkpt lat="39.2982850" lon="-0.7735450">
        <ele>630.0</ele>
        <time>2018-09-16T10:03:39Z</time>
      </trkpt>
      <trkpt lat="39.2982850" lon="-0.7735450">
        <ele>630.0</ele>
        <time>2018-09-16T10:03:40Z</time>
      </trkpt>
      <trkpt lat="39.2982780" lon="-0.7735870">
        <ele>630.0</ele>
        <time>2018-09-16T10:03:41Z</time>
      </trkpt>
      <trkpt lat="39.2982780" lon="-0.7735870">
        <ele>630.0</ele>
        <time>2018-09-16T10:03:42Z</time>
      </trkpt>
      <trkpt lat="39.2982770" lon="-0.7736320">
        <ele>630.0</ele>
        <time>2018-09-16T10:03:43Z</time>
      </trkpt>
      <trkpt lat="39.2982770" lon="-0.7736320">
        <ele>630.0</ele>
        <time>2018-09-16T10:03:44Z</time>
      </trkpt>
      <trkpt lat="39.2982770" lon="-0.7736770">
        <ele>630.0</ele>
        <time>2018-09-16T10:03:45Z</time>
      </trkpt>
      <trkpt lat="39.2982770" lon="-0.7736770">
        <ele>631.0</ele>
        <time>2018-09-16T10:03:46Z</time>
      </trkpt>
      <trkpt lat="39.2982700" lon="-0.7737200">
        <ele>631.0</ele>
        <time>2018-09-16T10:03:47Z</time>
      </trkpt>
      <trkpt lat="39.2982700" lon="-0.7737200">
        <ele>631.0</ele>
        <time>2018-09-16T10:03:48Z</time>
      </trkpt>
      <trkpt lat="39.2982700" lon="-0.7737580">
        <ele>631.0</ele>
        <time>2018-09-16T10:03:49Z</time>
      </trkpt>
      <trkpt lat="39.2982700" lon="-0.7737580">
        <ele>631.0</ele>
        <time>2018-09-16T10:03:50Z</time>
      </trkpt>
      <trkpt lat="39.2982680" lon="-0.7738020">
        <ele>631.0</ele>
        <time>2018-09-16T10:03:51Z</time>
      </trkpt>
      <trkpt lat="39.2982680" lon="-0.7738020">
        <ele>631.0</ele>
        <time>2018-09-16T10:03:52Z</time>
      </trkpt>
      <trkpt lat="39.2982670" lon="-0.7738550">
        <ele>631.0</ele>
        <time>2018-09-16T10:03:53Z</time>
      </trkpt>
      <trkpt lat="39.2982650" lon="-0.7738870">
        <ele>631.0</ele>
        <time>2018-09-16T10:03:54Z</time>
      </trkpt>
      <trkpt lat="39.2982580" lon="-0.7739250">
        <ele>631.0</ele>
        <time>2018-09-16T10:03:55Z</time>
      </trkpt>
      <trkpt lat="39.2982580" lon="-0.7739250">
        <ele>631.0</ele>
        <time>2018-09-16T10:03:56Z</time>
      </trkpt>
      <trkpt lat="39.2982400" lon="-0.7740220">
        <ele>631.0</ele>
        <time>2018-09-16T10:03:57Z</time>
      </trkpt>
      <trkpt lat="39.2982300" lon="-0.7740730">
        <ele>631.0</ele>
        <time>2018-09-16T10:03:58Z</time>
      </trkpt>
      <trkpt lat="39.2982300" lon="-0.7740730">
        <ele>631.0</ele>
        <time>2018-09-16T10:03:59Z</time>
      </trkpt>
      <trkpt lat="39.2982170" lon="-0.7741930">
        <ele>631.0</ele>
        <time>2018-09-16T10:04:00Z</time>
      </trkpt>
      <trkpt lat="39.2982180" lon="-0.7742580">
        <ele>631.0</ele>
        <time>2018-09-16T10:04:01Z</time>
      </trkpt>
      <trkpt lat="39.2982180" lon="-0.7742580">
        <ele>630.0</ele>
        <time>2018-09-16T10:04:02Z</time>
      </trkpt>
      <trkpt lat="39.2982380" lon="-0.7743950">
        <ele>630.0</ele>
        <time>2018-09-16T10:04:03Z</time>
      </trkpt>
      <trkpt lat="39.2982380" lon="-0.7743950">
        <ele>630.0</ele>
        <time>2018-09-16T10:04:04Z</time>
      </trkpt>
      <trkpt lat="39.2982400" lon="-0.7745470">
        <ele>630.0</ele>
        <time>2018-09-16T10:04:05Z</time>
      </trkpt>
      <trkpt lat="39.2982400" lon="-0.7745470">
        <ele>630.0</ele>
        <time>2018-09-16T10:04:06Z</time>
      </trkpt>
      <trkpt lat="39.2982280" lon="-0.7747150">
        <ele>629.0</ele>
        <time>2018-09-16T10:04:07Z</time>
      </trkpt>
      <trkpt lat="39.2982280" lon="-0.7747150">
        <ele>629.0</ele>
        <time>2018-09-16T10:04:08Z</time>
      </trkpt>
      <trkpt lat="39.2982020" lon="-0.7748870">
        <ele>629.0</ele>
        <time>2018-09-16T10:04:09Z</time>
      </trkpt>
      <trkpt lat="39.2982020" lon="-0.7748870">
        <ele>629.0</ele>
        <time>2018-09-16T10:04:10Z</time>
      </trkpt>
      <trkpt lat="39.2981580" lon="-0.7750550">
        <ele>628.0</ele>
        <time>2018-09-16T10:04:11Z</time>
      </trkpt>
      <trkpt lat="39.2981580" lon="-0.7750550">
        <ele>628.0</ele>
        <time>2018-09-16T10:04:12Z</time>
      </trkpt>
      <trkpt lat="39.2981170" lon="-0.7752200">
        <ele>628.0</ele>
        <time>2018-09-16T10:04:13Z</time>
      </trkpt>
      <trkpt lat="39.2981170" lon="-0.7752200">
        <ele>628.0</ele>
        <time>2018-09-16T10:04:14Z</time>
      </trkpt>
      <trkpt lat="39.2981070" lon="-0.7753750">
        <ele>628.0</ele>
        <time>2018-09-16T10:04:15Z</time>
      </trkpt>
      <trkpt lat="39.2981050" lon="-0.7754430">
        <ele>628.0</ele>
        <time>2018-09-16T10:04:16Z</time>
      </trkpt>
      <trkpt lat="39.2981050" lon="-0.7754430">
        <ele>628.0</ele>
        <time>2018-09-16T10:04:17Z</time>
      </trkpt>
      <trkpt lat="39.2981070" lon="-0.7755600">
        <ele>628.0</ele>
        <time>2018-09-16T10:04:18Z</time>
      </trkpt>
      <trkpt lat="39.2981080" lon="-0.7756120">
        <ele>628.0</ele>
        <time>2018-09-16T10:04:19Z</time>
      </trkpt>
      <trkpt lat="39.2981080" lon="-0.7756120">
        <ele>628.0</ele>
        <time>2018-09-16T10:04:20Z</time>
      </trkpt>
      <trkpt lat="39.2981080" lon="-0.7757120">
        <ele>628.0</ele>
        <time>2018-09-16T10:04:21Z</time>
      </trkpt>
      <trkpt lat="39.2981050" lon="-0.7757670">
        <ele>628.0</ele>
        <time>2018-09-16T10:04:22Z</time>
      </trkpt>
      <trkpt lat="39.2980980" lon="-0.7758220">
        <ele>628.0</ele>
        <time>2018-09-16T10:04:23Z</time>
      </trkpt>
      <trkpt lat="39.2980980" lon="-0.7758220">
        <ele>628.0</ele>
        <time>2018-09-16T10:04:24Z</time>
      </trkpt>
      <trkpt lat="39.2980770" lon="-0.7759330">
        <ele>628.0</ele>
        <time>2018-09-16T10:04:25Z</time>
      </trkpt>
      <trkpt lat="39.2980650" lon="-0.7759880">
        <ele>628.0</ele>
        <time>2018-09-16T10:04:26Z</time>
      </trkpt>
      <trkpt lat="39.2980650" lon="-0.7759880">
        <ele>628.0</ele>
        <time>2018-09-16T10:04:27Z</time>
      </trkpt>
      <trkpt lat="39.2980350" lon="-0.7760970">
        <ele>628.0</ele>
        <time>2018-09-16T10:04:28Z</time>
      </trkpt>
      <trkpt lat="39.2980200" lon="-0.7761520">
        <ele>628.0</ele>
        <time>2018-09-16T10:04:29Z</time>
      </trkpt>
      <trkpt lat="39.2980200" lon="-0.7761520">
        <ele>628.0</ele>
        <time>2018-09-16T10:04:30Z</time>
      </trkpt>
      <trkpt lat="39.2979970" lon="-0.7762630">
        <ele>628.0</ele>
        <time>2018-09-16T10:04:31Z</time>
      </trkpt>
      <trkpt lat="39.2979970" lon="-0.7762630">
        <ele>628.0</ele>
        <time>2018-09-16T10:04:32Z</time>
      </trkpt>
      <trkpt lat="39.2979800" lon="-0.7763680">
        <ele>628.0</ele>
        <time>2018-09-16T10:04:33Z</time>
      </trkpt>
      <trkpt lat="39.2979720" lon="-0.7764180">
        <ele>630.0</ele>
        <time>2018-09-16T10:04:34Z</time>
      </trkpt>
      <trkpt lat="39.2979650" lon="-0.7764630">
        <ele>630.0</ele>
        <time>2018-09-16T10:04:35Z</time>
      </trkpt>
      <trkpt lat="39.2979650" lon="-0.7764630">
        <ele>629.0</ele>
        <time>2018-09-16T10:04:36Z</time>
      </trkpt>
      <trkpt lat="39.2979550" lon="-0.7765600">
        <ele>629.0</ele>
        <time>2018-09-16T10:04:37Z</time>
      </trkpt>
      <trkpt lat="39.2979550" lon="-0.7765600">
        <ele>629.0</ele>
        <time>2018-09-16T10:04:38Z</time>
      </trkpt>
      <trkpt lat="39.2979450" lon="-0.7766620">
        <ele>629.0</ele>
        <time>2018-09-16T10:04:39Z</time>
      </trkpt>
      <trkpt lat="39.2979450" lon="-0.7766620">
        <ele>629.0</ele>
        <time>2018-09-16T10:04:40Z</time>
      </trkpt>
      <trkpt lat="39.2979400" lon="-0.7767630">
        <ele>629.0</ele>
        <time>2018-09-16T10:04:41Z</time>
      </trkpt>
      <trkpt lat="39.2979350" lon="-0.7768150">
        <ele>629.0</ele>
        <time>2018-09-16T10:04:42Z</time>
      </trkpt>
      <trkpt lat="39.2979350" lon="-0.7768150">
        <ele>629.0</ele>
        <time>2018-09-16T10:04:43Z</time>
      </trkpt>
      <trkpt lat="39.2979270" lon="-0.7769200">
        <ele>629.0</ele>
        <time>2018-09-16T10:04:44Z</time>
      </trkpt>
      <trkpt lat="39.2979220" lon="-0.7769720">
        <ele>629.0</ele>
        <time>2018-09-16T10:04:45Z</time>
      </trkpt>
      <trkpt lat="39.2979220" lon="-0.7769720">
        <ele>629.0</ele>
        <time>2018-09-16T10:04:46Z</time>
      </trkpt>
      <trkpt lat="39.2979050" lon="-0.7770730">
        <ele>629.0</ele>
        <time>2018-09-16T10:04:47Z</time>
      </trkpt>
      <trkpt lat="39.2979050" lon="-0.7770730">
        <ele>629.0</ele>
        <time>2018-09-16T10:04:48Z</time>
      </trkpt>
      <trkpt lat="39.2978850" lon="-0.7771700">
        <ele>629.0</ele>
        <time>2018-09-16T10:04:49Z</time>
      </trkpt>
      <trkpt lat="39.2978800" lon="-0.7771910">
        <ele>629.0</ele>
        <time>2018-09-16T10:04:50Z</time>
      </trkpt>
      <trkpt lat="39.2978740" lon="-0.7772120">
        <ele>629.0</ele>
        <time>2018-09-16T10:04:51Z</time>
      </trkpt>
      <trkpt lat="39.2978630" lon="-0.7772530">
        <ele>629.0</ele>
        <time>2018-09-16T10:04:52Z</time>
      </trkpt>
      <trkpt lat="39.2978400" lon="-0.7773180">
        <ele>629.0</ele>
        <time>2018-09-16T10:04:53Z</time>
      </trkpt>
      <trkpt lat="39.2978320" lon="-0.7773500">
        <ele>629.0</ele>
        <time>2018-09-16T10:04:54Z</time>
      </trkpt>
      <trkpt lat="39.2978220" lon="-0.7773800">
        <ele>629.0</ele>
        <time>2018-09-16T10:04:55Z</time>
      </trkpt>
      <trkpt lat="39.2978220" lon="-0.7773800">
        <ele>629.0</ele>
        <time>2018-09-16T10:04:56Z</time>
      </trkpt>
      <trkpt lat="39.2978000" lon="-0.7774350">
        <ele>630.0</ele>
        <time>2018-09-16T10:04:57Z</time>
      </trkpt>
      <trkpt lat="39.2978000" lon="-0.7774350">
        <ele>630.0</ele>
        <time>2018-09-16T10:04:58Z</time>
      </trkpt>
      <trkpt lat="39.2977850" lon="-0.7774920">
        <ele>630.0</ele>
        <time>2018-09-16T10:04:59Z</time>
      </trkpt>
      <trkpt lat="39.2977850" lon="-0.7774920">
        <ele>630.0</ele>
        <time>2018-09-16T10:05:00Z</time>
      </trkpt>
      <trkpt lat="39.2977630" lon="-0.7775480">
        <ele>630.0</ele>
        <time>2018-09-16T10:05:01Z</time>
      </trkpt>
      <trkpt lat="39.2977630" lon="-0.7775480">
        <ele>630.0</ele>
        <time>2018-09-16T10:05:02Z</time>
      </trkpt>
      <trkpt lat="39.2977470" lon="-0.7776080">
        <ele>630.0</ele>
        <time>2018-09-16T10:05:03Z</time>
      </trkpt>
      <trkpt lat="39.2977470" lon="-0.7776080">
        <ele>630.0</ele>
        <time>2018-09-16T10:05:04Z</time>
      </trkpt>
      <trkpt lat="39.2977250" lon="-0.7777040">
        <ele>630.0</ele>
        <time>2018-09-16T10:05:05Z</time>
      </trkpt>
      <trkpt lat="39.2977230" lon="-0.7777260">
        <ele>630.0</ele>
        <time>2018-09-16T10:05:06Z</time>
      </trkpt>
      <trkpt lat="39.2977200" lon="-0.7777480">
        <ele>630.0</ele>
        <time>2018-09-16T10:05:07Z</time>
      </trkpt>
      <trkpt lat="39.2977200" lon="-0.7777480">
        <ele>630.0</ele>
        <time>2018-09-16T10:05:08Z</time>
      </trkpt>
      <trkpt lat="39.2977100" lon="-0.7778220">
        <ele>630.0</ele>
        <time>2018-09-16T10:05:09Z</time>
      </trkpt>
      <trkpt lat="39.2977100" lon="-0.7778220">
        <ele>630.0</ele>
        <time>2018-09-16T10:05:10Z</time>
      </trkpt>
      <trkpt lat="39.2976980" lon="-0.7778980">
        <ele>631.0</ele>
        <time>2018-09-16T10:05:11Z</time>
      </trkpt>
      <trkpt lat="39.2976920" lon="-0.7779420">
        <ele>631.0</ele>
        <time>2018-09-16T10:05:12Z</time>
      </trkpt>
      <trkpt lat="39.2976920" lon="-0.7779420">
        <ele>631.0</ele>
        <time>2018-09-16T10:05:13Z</time>
      </trkpt>
      <trkpt lat="39.2976750" lon="-0.7780250">
        <ele>631.0</ele>
        <time>2018-09-16T10:05:14Z</time>
      </trkpt>
      <trkpt lat="39.2976670" lon="-0.7780680">
        <ele>631.0</ele>
        <time>2018-09-16T10:05:15Z</time>
      </trkpt>
      <trkpt lat="39.2976670" lon="-0.7780680">
        <ele>631.0</ele>
        <time>2018-09-16T10:05:16Z</time>
      </trkpt>
      <trkpt lat="39.2976500" lon="-0.7781570">
        <ele>631.0</ele>
        <time>2018-09-16T10:05:17Z</time>
      </trkpt>
      <trkpt lat="39.2976500" lon="-0.7781570">
        <ele>631.0</ele>
        <time>2018-09-16T10:05:18Z</time>
      </trkpt>
      <trkpt lat="39.2976270" lon="-0.7782450">
        <ele>632.0</ele>
        <time>2018-09-16T10:05:19Z</time>
      </trkpt>
      <trkpt lat="39.2976270" lon="-0.7782450">
        <ele>632.0</ele>
        <time>2018-09-16T10:05:20Z</time>
      </trkpt>
      <trkpt lat="39.2975950" lon="-0.7783330">
        <ele>632.0</ele>
        <time>2018-09-16T10:05:21Z</time>
      </trkpt>
      <trkpt lat="39.2975950" lon="-0.7783330">
        <ele>632.0</ele>
        <time>2018-09-16T10:05:22Z</time>
      </trkpt>
      <trkpt lat="39.2975570" lon="-0.7784230">
        <ele>632.0</ele>
        <time>2018-09-16T10:05:23Z</time>
      </trkpt>
      <trkpt lat="39.2975570" lon="-0.7784230">
        <ele>632.0</ele>
        <time>2018-09-16T10:05:24Z</time>
      </trkpt>
      <trkpt lat="39.2975220" lon="-0.7785170">
        <ele>632.0</ele>
        <time>2018-09-16T10:05:25Z</time>
      </trkpt>
      <trkpt lat="39.2975220" lon="-0.7785170">
        <ele>632.0</ele>
        <time>2018-09-16T10:05:26Z</time>
      </trkpt>
      <trkpt lat="39.2975000" lon="-0.7786220">
        <ele>632.0</ele>
        <time>2018-09-16T10:05:27Z</time>
      </trkpt>
      <trkpt lat="39.2974970" lon="-0.7786780">
        <ele>632.0</ele>
        <time>2018-09-16T10:05:28Z</time>
      </trkpt>
      <trkpt lat="39.2974970" lon="-0.7786780">
        <ele>632.0</ele>
        <time>2018-09-16T10:05:29Z</time>
      </trkpt>
      <trkpt lat="39.2974900" lon="-0.7787830">
        <ele>632.0</ele>
        <time>2018-09-16T10:05:30Z</time>
      </trkpt>
      <trkpt lat="39.2974900" lon="-0.7787830">
        <ele>632.0</ele>
        <time>2018-09-16T10:05:31Z</time>
      </trkpt>
      <trkpt lat="39.2974820" lon="-0.7788820">
        <ele>632.0</ele>
        <time>2018-09-16T10:05:32Z</time>
      </trkpt>
      <trkpt lat="39.2974820" lon="-0.7788820">
        <ele>632.0</ele>
        <time>2018-09-16T10:05:33Z</time>
      </trkpt>
      <trkpt lat="39.2974650" lon="-0.7789780">
        <ele>632.0</ele>
        <time>2018-09-16T10:05:34Z</time>
      </trkpt>
      <trkpt lat="39.2974650" lon="-0.7789780">
        <ele>632.0</ele>
        <time>2018-09-16T10:05:35Z</time>
      </trkpt>
      <trkpt lat="39.2974430" lon="-0.7790720">
        <ele>632.0</ele>
        <time>2018-09-16T10:05:36Z</time>
      </trkpt>
      <trkpt lat="39.2974430" lon="-0.7790720">
        <ele>632.0</ele>
        <time>2018-09-16T10:05:37Z</time>
      </trkpt>
      <trkpt lat="39.2974170" lon="-0.7791680">
        <ele>632.0</ele>
        <time>2018-09-16T10:05:38Z</time>
      </trkpt>
      <trkpt lat="39.2974170" lon="-0.7791680">
        <ele>632.0</ele>
        <time>2018-09-16T10:05:39Z</time>
      </trkpt>
      <trkpt lat="39.2973850" lon="-0.7792720">
        <ele>632.0</ele>
        <time>2018-09-16T10:05:40Z</time>
      </trkpt>
      <trkpt lat="39.2973700" lon="-0.7793270">
        <ele>632.0</ele>
        <time>2018-09-16T10:05:41Z</time>
      </trkpt>
      <trkpt lat="39.2973550" lon="-0.7793850">
        <ele>632.0</ele>
        <time>2018-09-16T10:05:42Z</time>
      </trkpt>
      <trkpt lat="39.2973550" lon="-0.7793850">
        <ele>632.0</ele>
        <time>2018-09-16T10:05:43Z</time>
      </trkpt>
      <trkpt lat="39.2973200" lon="-0.7795000">
        <ele>632.0</ele>
        <time>2018-09-16T10:05:44Z</time>
      </trkpt>
      <trkpt lat="39.2973000" lon="-0.7795550">
        <ele>632.0</ele>
        <time>2018-09-16T10:05:45Z</time>
      </trkpt>
      <trkpt lat="39.2973000" lon="-0.7795550">
        <ele>632.0</ele>
        <time>2018-09-16T10:05:46Z</time>
      </trkpt>
      <trkpt lat="39.2972580" lon="-0.7796530">
        <ele>632.0</ele>
        <time>2018-09-16T10:05:47Z</time>
      </trkpt>
      <trkpt lat="39.2972580" lon="-0.7796530">
        <ele>632.0</ele>
        <time>2018-09-16T10:05:48Z</time>
      </trkpt>
      <trkpt lat="39.2972180" lon="-0.7797470">
        <ele>632.0</ele>
        <time>2018-09-16T10:05:49Z</time>
      </trkpt>
      <trkpt lat="39.2972180" lon="-0.7797470">
        <ele>632.0</ele>
        <time>2018-09-16T10:05:50Z</time>
      </trkpt>
      <trkpt lat="39.2971930" lon="-0.7798450">
        <ele>632.0</ele>
        <time>2018-09-16T10:05:51Z</time>
      </trkpt>
      <trkpt lat="39.2971930" lon="-0.7798450">
        <ele>632.0</ele>
        <time>2018-09-16T10:05:52Z</time>
      </trkpt>
      <trkpt lat="39.2971750" lon="-0.7799370">
        <ele>632.0</ele>
        <time>2018-09-16T10:05:53Z</time>
      </trkpt>
      <trkpt lat="39.2971670" lon="-0.7799820">
        <ele>632.0</ele>
        <time>2018-09-16T10:05:54Z</time>
      </trkpt>
      <trkpt lat="39.2971580" lon="-0.7800270">
        <ele>632.0</ele>
        <time>2018-09-16T10:05:55Z</time>
      </trkpt>
      <trkpt lat="39.2971580" lon="-0.7800270">
        <ele>632.0</ele>
        <time>2018-09-16T10:05:56Z</time>
      </trkpt>
      <trkpt lat="39.2971420" lon="-0.7801130">
        <ele>632.0</ele>
        <time>2018-09-16T10:05:57Z</time>
      </trkpt>
      <trkpt lat="39.2971320" lon="-0.7801550">
        <ele>632.0</ele>
        <time>2018-09-16T10:05:58Z</time>
      </trkpt>
      <trkpt lat="39.2971320" lon="-0.7801550">
        <ele>633.0</ele>
        <time>2018-09-16T10:05:59Z</time>
      </trkpt>
      <trkpt lat="39.2971100" lon="-0.7802420">
        <ele>633.0</ele>
        <time>2018-09-16T10:06:00Z</time>
      </trkpt>
      <trkpt lat="39.2970980" lon="-0.7802850">
        <ele>633.0</ele>
        <time>2018-09-16T10:06:01Z</time>
      </trkpt>
      <trkpt lat="39.2970980" lon="-0.7802850">
        <ele>633.0</ele>
        <time>2018-09-16T10:06:02Z</time>
      </trkpt>
      <trkpt lat="39.2970730" lon="-0.7803720">
        <ele>633.0</ele>
        <time>2018-09-16T10:06:03Z</time>
      </trkpt>
      <trkpt lat="39.2970730" lon="-0.7803720">
        <ele>633.0</ele>
        <time>2018-09-16T10:06:04Z</time>
      </trkpt>
      <trkpt lat="39.2970480" lon="-0.7804670">
        <ele>633.0</ele>
        <time>2018-09-16T10:06:05Z</time>
      </trkpt>
      <trkpt lat="39.2970480" lon="-0.7804670">
        <ele>633.0</ele>
        <time>2018-09-16T10:06:06Z</time>
      </trkpt>
      <trkpt lat="39.2970250" lon="-0.7805700">
        <ele>633.0</ele>
        <time>2018-09-16T10:06:07Z</time>
      </trkpt>
      <trkpt lat="39.2970250" lon="-0.7805700">
        <ele>633.0</ele>
        <time>2018-09-16T10:06:08Z</time>
      </trkpt>
      <trkpt lat="39.2970030" lon="-0.7806770">
        <ele>633.0</ele>
        <time>2018-09-16T10:06:09Z</time>
      </trkpt>
      <trkpt lat="39.2970030" lon="-0.7806770">
        <ele>633.0</ele>
        <time>2018-09-16T10:06:10Z</time>
      </trkpt>
      <trkpt lat="39.2969800" lon="-0.7807900">
        <ele>633.0</ele>
        <time>2018-09-16T10:06:11Z</time>
      </trkpt>
      <trkpt lat="39.2969680" lon="-0.7808480">
        <ele>633.0</ele>
        <time>2018-09-16T10:06:12Z</time>
      </trkpt>
      <trkpt lat="39.2969550" lon="-0.7809100">
        <ele>633.0</ele>
        <time>2018-09-16T10:06:13Z</time>
      </trkpt>
      <trkpt lat="39.2969550" lon="-0.7809100">
        <ele>633.0</ele>
        <time>2018-09-16T10:06:14Z</time>
      </trkpt>
      <trkpt lat="39.2969270" lon="-0.7810370">
        <ele>633.0</ele>
        <time>2018-09-16T10:06:15Z</time>
      </trkpt>
      <trkpt lat="39.2969130" lon="-0.7811020">
        <ele>633.0</ele>
        <time>2018-09-16T10:06:16Z</time>
      </trkpt>
      <trkpt lat="39.2969130" lon="-0.7811020">
        <ele>633.0</ele>
        <time>2018-09-16T10:06:17Z</time>
      </trkpt>
      <trkpt lat="39.2968920" lon="-0.7812330">
        <ele>633.0</ele>
        <time>2018-09-16T10:06:18Z</time>
      </trkpt>
      <trkpt lat="39.2968880" lon="-0.7812930">
        <ele>633.0</ele>
        <time>2018-09-16T10:06:19Z</time>
      </trkpt>
      <trkpt lat="39.2968880" lon="-0.7812930">
        <ele>633.0</ele>
        <time>2018-09-16T10:06:20Z</time>
      </trkpt>
      <trkpt lat="39.2969000" lon="-0.7813930">
        <ele>633.0</ele>
        <time>2018-09-16T10:06:21Z</time>
      </trkpt>
      <trkpt lat="39.2969090" lon="-0.7814250">
        <ele>633.0</ele>
        <time>2018-09-16T10:06:22Z</time>
      </trkpt>
      <trkpt lat="39.2969180" lon="-0.7814570">
        <ele>633.0</ele>
        <time>2018-09-16T10:06:23Z</time>
      </trkpt>
      <trkpt lat="39.2969180" lon="-0.7814570">
        <ele>634.0</ele>
        <time>2018-09-16T10:06:24Z</time>
      </trkpt>
      <trkpt lat="39.2969430" lon="-0.7814920">
        <ele>634.0</ele>
        <time>2018-09-16T10:06:25Z</time>
      </trkpt>
      <trkpt lat="39.2969430" lon="-0.7814920">
        <ele>634.0</ele>
        <time>2018-09-16T10:06:26Z</time>
      </trkpt>
      <trkpt lat="39.2969730" lon="-0.7815050">
        <ele>634.0</ele>
        <time>2018-09-16T10:06:27Z</time>
      </trkpt>
      <trkpt lat="39.2969730" lon="-0.7815050">
        <ele>634.0</ele>
        <time>2018-09-16T10:06:28Z</time>
      </trkpt>
      <trkpt lat="39.2970070" lon="-0.7815120">
        <ele>634.0</ele>
        <time>2018-09-16T10:06:29Z</time>
      </trkpt>
      <trkpt lat="39.2970070" lon="-0.7815120">
        <ele>634.0</ele>
        <time>2018-09-16T10:06:30Z</time>
      </trkpt>
      <trkpt lat="39.2970450" lon="-0.7815200">
        <ele>634.0</ele>
        <time>2018-09-16T10:06:31Z</time>
      </trkpt>
      <trkpt lat="39.2970450" lon="-0.7815200">
        <ele>634.0</ele>
        <time>2018-09-16T10:06:32Z</time>
      </trkpt>
      <trkpt lat="39.2970770" lon="-0.7815300">
        <ele>634.0</ele>
        <time>2018-09-16T10:06:33Z</time>
      </trkpt>
      <trkpt lat="39.2970950" lon="-0.7815370">
        <ele>634.0</ele>
        <time>2018-09-16T10:06:34Z</time>
      </trkpt>
      <trkpt lat="39.2970950" lon="-0.7815370">
        <ele>635.0</ele>
        <time>2018-09-16T10:06:35Z</time>
      </trkpt>
      <trkpt lat="39.2971280" lon="-0.7815500">
        <ele>635.0</ele>
        <time>2018-09-16T10:06:36Z</time>
      </trkpt>
      <trkpt lat="39.2971450" lon="-0.7815570">
        <ele>635.0</ele>
        <time>2018-09-16T10:06:37Z</time>
      </trkpt>
      <trkpt lat="39.2971450" lon="-0.7815570">
        <ele>635.0</ele>
        <time>2018-09-16T10:06:38Z</time>
      </trkpt>
      <trkpt lat="39.2971800" lon="-0.7815720">
        <ele>637.0</ele>
        <time>2018-09-16T10:06:39Z</time>
      </trkpt>
      <trkpt lat="39.2971800" lon="-0.7815720">
        <ele>637.0</ele>
        <time>2018-09-16T10:06:40Z</time>
      </trkpt>
      <trkpt lat="39.2972170" lon="-0.7815880">
        <ele>637.0</ele>
        <time>2018-09-16T10:06:41Z</time>
      </trkpt>
      <trkpt lat="39.2972170" lon="-0.7815880">
        <ele>637.0</ele>
        <time>2018-09-16T10:06:42Z</time>
      </trkpt>
      <trkpt lat="39.2972520" lon="-0.7816100">
        <ele>637.0</ele>
        <time>2018-09-16T10:06:43Z</time>
      </trkpt>
      <trkpt lat="39.2972520" lon="-0.7816100">
        <ele>637.0</ele>
        <time>2018-09-16T10:06:44Z</time>
      </trkpt>
      <trkpt lat="39.2972870" lon="-0.7816330">
        <ele>637.0</ele>
        <time>2018-09-16T10:06:45Z</time>
      </trkpt>
      <trkpt lat="39.2972870" lon="-0.7816330">
        <ele>637.0</ele>
        <time>2018-09-16T10:06:46Z</time>
      </trkpt>
      <trkpt lat="39.2973250" lon="-0.7816430">
        <ele>637.0</ele>
        <time>2018-09-16T10:06:47Z</time>
      </trkpt>
      <trkpt lat="39.2973250" lon="-0.7816430">
        <ele>637.0</ele>
        <time>2018-09-16T10:06:48Z</time>
      </trkpt>
      <trkpt lat="39.2973680" lon="-0.7816420">
        <ele>637.0</ele>
        <time>2018-09-16T10:06:49Z</time>
      </trkpt>
      <trkpt lat="39.2973680" lon="-0.7816420">
        <ele>637.0</ele>
        <time>2018-09-16T10:06:50Z</time>
      </trkpt>
      <trkpt lat="39.2974000" lon="-0.7816300">
        <ele>637.0</ele>
        <time>2018-09-16T10:06:51Z</time>
      </trkpt>
      <trkpt lat="39.2974000" lon="-0.7816300">
        <ele>639.0</ele>
        <time>2018-09-16T10:06:52Z</time>
      </trkpt>
      <trkpt lat="39.2974180" lon="-0.7816100">
        <ele>639.0</ele>
        <time>2018-09-16T10:06:53Z</time>
      </trkpt>
      <trkpt lat="39.2974180" lon="-0.7816100">
        <ele>639.0</ele>
        <time>2018-09-16T10:06:54Z</time>
      </trkpt>
      <trkpt lat="39.2974300" lon="-0.7815780">
        <ele>639.0</ele>
        <time>2018-09-16T10:06:55Z</time>
      </trkpt>
      <trkpt lat="39.2974300" lon="-0.7815780">
        <ele>639.0</ele>
        <time>2018-09-16T10:06:56Z</time>
      </trkpt>
      <trkpt lat="39.2974380" lon="-0.7815400">
        <ele>639.0</ele>
        <time>2018-09-16T10:06:57Z</time>
      </trkpt>
      <trkpt lat="39.2974430" lon="-0.7815200">
        <ele>639.0</ele>
        <time>2018-09-16T10:06:58Z</time>
      </trkpt>
      <trkpt lat="39.2974430" lon="-0.7815200">
        <ele>639.0</ele>
        <time>2018-09-16T10:06:59Z</time>
      </trkpt>
      <trkpt lat="39.2974620" lon="-0.7814770">
        <ele>639.0</ele>
        <time>2018-09-16T10:07:00Z</time>
      </trkpt>
      <trkpt lat="39.2974680" lon="-0.7814570">
        <ele>639.0</ele>
        <time>2018-09-16T10:07:01Z</time>
      </trkpt>
      <trkpt lat="39.2974680" lon="-0.7814570">
        <ele>639.0</ele>
        <time>2018-09-16T10:07:02Z</time>
      </trkpt>
      <trkpt lat="39.2974800" lon="-0.7814200">
        <ele>639.0</ele>
        <time>2018-09-16T10:07:03Z</time>
      </trkpt>
      <trkpt lat="39.2974800" lon="-0.7814200">
        <ele>640.0</ele>
        <time>2018-09-16T10:07:04Z</time>
      </trkpt>
      <trkpt lat="39.2974900" lon="-0.7813870">
        <ele>640.0</ele>
        <time>2018-09-16T10:07:05Z</time>
      </trkpt>
      <trkpt lat="39.2974900" lon="-0.7813870">
        <ele>640.0</ele>
        <time>2018-09-16T10:07:06Z</time>
      </trkpt>
      <trkpt lat="39.2974970" lon="-0.7813500">
        <ele>640.0</ele>
        <time>2018-09-16T10:07:07Z</time>
      </trkpt>
      <trkpt lat="39.2974970" lon="-0.7813500">
        <ele>640.0</ele>
        <time>2018-09-16T10:07:08Z</time>
      </trkpt>
      <trkpt lat="39.2975020" lon="-0.7813120">
        <ele>640.0</ele>
        <time>2018-09-16T10:07:09Z</time>
      </trkpt>
      <trkpt lat="39.2975020" lon="-0.7813120">
        <ele>640.0</ele>
        <time>2018-09-16T10:07:10Z</time>
      </trkpt>
      <trkpt lat="39.2975070" lon="-0.7812780">
        <ele>640.0</ele>
        <time>2018-09-16T10:07:11Z</time>
      </trkpt>
      <trkpt lat="39.2975070" lon="-0.7812780">
        <ele>640.0</ele>
        <time>2018-09-16T10:07:12Z</time>
      </trkpt>
      <trkpt lat="39.2975020" lon="-0.7812380">
        <ele>640.0</ele>
        <time>2018-09-16T10:07:13Z</time>
      </trkpt>
      <trkpt lat="39.2975020" lon="-0.7812380">
        <ele>640.0</ele>
        <time>2018-09-16T10:07:14Z</time>
      </trkpt>
      <trkpt lat="39.2974950" lon="-0.7811970">
        <ele>640.0</ele>
        <time>2018-09-16T10:07:15Z</time>
      </trkpt>
      <trkpt lat="39.2974930" lon="-0.7811750">
        <ele>640.0</ele>
        <time>2018-09-16T10:07:16Z</time>
      </trkpt>
      <trkpt lat="39.2974920" lon="-0.7811550">
        <ele>640.0</ele>
        <time>2018-09-16T10:07:17Z</time>
      </trkpt>
      <trkpt lat="39.2974920" lon="-0.7811550">
        <ele>640.0</ele>
        <time>2018-09-16T10:07:18Z</time>
      </trkpt>
      <trkpt lat="39.2974880" lon="-0.7811170">
        <ele>640.0</ele>
        <time>2018-09-16T10:07:19Z</time>
      </trkpt>
      <trkpt lat="39.2974870" lon="-0.7810950">
        <ele>640.0</ele>
        <time>2018-09-16T10:07:20Z</time>
      </trkpt>
      <trkpt lat="39.2974870" lon="-0.7810950">
        <ele>641.0</ele>
        <time>2018-09-16T10:07:21Z</time>
      </trkpt>
      <trkpt lat="39.2974830" lon="-0.7810580">
        <ele>641.0</ele>
        <time>2018-09-16T10:07:22Z</time>
      </trkpt>
      <trkpt lat="39.2974830" lon="-0.7810580">
        <ele>641.0</ele>
        <time>2018-09-16T10:07:23Z</time>
      </trkpt>
      <trkpt lat="39.2974830" lon="-0.7810220">
        <ele>641.0</ele>
        <time>2018-09-16T10:07:24Z</time>
      </trkpt>
      <trkpt lat="39.2974830" lon="-0.7810220">
        <ele>642.0</ele>
        <time>2018-09-16T10:07:25Z</time>
      </trkpt>
      <trkpt lat="39.2974870" lon="-0.7809820">
        <ele>642.0</ele>
        <time>2018-09-16T10:07:26Z</time>
      </trkpt>
      <trkpt lat="39.2974870" lon="-0.7809820">
        <ele>642.0</ele>
        <time>2018-09-16T10:07:27Z</time>
      </trkpt>
      <trkpt lat="39.2974930" lon="-0.7809430">
        <ele>642.0</ele>
        <time>2018-09-16T10:07:28Z</time>
      </trkpt>
      <trkpt lat="39.2975000" lon="-0.7809230">
        <ele>643.0</ele>
        <time>2018-09-16T10:07:29Z</time>
      </trkpt>
      <trkpt lat="39.2975000" lon="-0.7809230">
        <ele>643.0</ele>
        <time>2018-09-16T10:07:30Z</time>
      </trkpt>
      <trkpt lat="39.2975100" lon="-0.7808830">
        <ele>643.0</ele>
        <time>2018-09-16T10:07:31Z</time>
      </trkpt>
      <trkpt lat="39.2975100" lon="-0.7808830">
        <ele>643.0</ele>
        <time>2018-09-16T10:07:32Z</time>
      </trkpt>
      <trkpt lat="39.2975220" lon="-0.7808380">
        <ele>643.0</ele>
        <time>2018-09-16T10:07:33Z</time>
      </trkpt>
      <trkpt lat="39.2975220" lon="-0.7808380">
        <ele>643.0</ele>
        <time>2018-09-16T10:07:34Z</time>
      </trkpt>
      <trkpt lat="39.2975350" lon="-0.7807970">
        <ele>644.0</ele>
        <time>2018-09-16T10:07:35Z</time>
      </trkpt>
      <trkpt lat="39.2975350" lon="-0.7807970">
        <ele>644.0</ele>
        <time>2018-09-16T10:07:36Z</time>
      </trkpt>
      <trkpt lat="39.2975500" lon="-0.7807580">
        <ele>644.0</ele>
        <time>2018-09-16T10:07:37Z</time>
      </trkpt>
      <trkpt lat="39.2975500" lon="-0.7807580">
        <ele>645.0</ele>
        <time>2018-09-16T10:07:38Z</time>
      </trkpt>
      <trkpt lat="39.2975650" lon="-0.7807230">
        <ele>645.0</ele>
        <time>2018-09-16T10:07:39Z</time>
      </trkpt>
      <trkpt lat="39.2975650" lon="-0.7807230">
        <ele>645.0</ele>
        <time>2018-09-16T10:07:40Z</time>
      </trkpt>
      <trkpt lat="39.2975830" lon="-0.7806870">
        <ele>645.0</ele>
        <time>2018-09-16T10:07:41Z</time>
      </trkpt>
      <trkpt lat="39.2975830" lon="-0.7806870">
        <ele>645.0</ele>
        <time>2018-09-16T10:07:42Z</time>
      </trkpt>
      <trkpt lat="39.2976000" lon="-0.7806520">
        <ele>645.0</ele>
        <time>2018-09-16T10:07:43Z</time>
      </trkpt>
      <trkpt lat="39.2976000" lon="-0.7806520">
        <ele>646.0</ele>
        <time>2018-09-16T10:07:44Z</time>
      </trkpt>
      <trkpt lat="39.2976230" lon="-0.7806200">
        <ele>646.0</ele>
        <time>2018-09-16T10:07:45Z</time>
      </trkpt>
      <trkpt lat="39.2976230" lon="-0.7806200">
        <ele>646.0</ele>
        <time>2018-09-16T10:07:46Z</time>
      </trkpt>
      <trkpt lat="39.2976450" lon="-0.7805880">
        <ele>646.0</ele>
        <time>2018-09-16T10:07:47Z</time>
      </trkpt>
      <trkpt lat="39.2976450" lon="-0.7805880">
        <ele>646.0</ele>
        <time>2018-09-16T10:07:48Z</time>
      </trkpt>
      <trkpt lat="39.2976630" lon="-0.7805570">
        <ele>646.0</ele>
        <time>2018-09-16T10:07:49Z</time>
      </trkpt>
      <trkpt lat="39.2976630" lon="-0.7805570">
        <ele>647.0</ele>
        <time>2018-09-16T10:07:50Z</time>
      </trkpt>
      <trkpt lat="39.2976850" lon="-0.7805280">
        <ele>647.0</ele>
        <time>2018-09-16T10:07:51Z</time>
      </trkpt>
      <trkpt lat="39.2976850" lon="-0.7805280">
        <ele>647.0</ele>
        <time>2018-09-16T10:07:52Z</time>
      </trkpt>
      <trkpt lat="39.2977070" lon="-0.7805020">
        <ele>647.0</ele>
        <time>2018-09-16T10:07:53Z</time>
      </trkpt>
      <trkpt lat="39.2977070" lon="-0.7805020">
        <ele>648.0</ele>
        <time>2018-09-16T10:07:54Z</time>
      </trkpt>
      <trkpt lat="39.2977280" lon="-0.7804730">
        <ele>648.0</ele>
        <time>2018-09-16T10:07:55Z</time>
      </trkpt>
      <trkpt lat="39.2977280" lon="-0.7804730">
        <ele>648.0</ele>
        <time>2018-09-16T10:07:56Z</time>
      </trkpt>
      <trkpt lat="39.2977500" lon="-0.7804450">
        <ele>648.0</ele>
        <time>2018-09-16T10:07:57Z</time>
      </trkpt>
      <trkpt lat="39.2977500" lon="-0.7804450">
        <ele>648.0</ele>
        <time>2018-09-16T10:07:58Z</time>
      </trkpt>
      <trkpt lat="39.2977730" lon="-0.7804200">
        <ele>648.0</ele>
        <time>2018-09-16T10:07:59Z</time>
      </trkpt>
      <trkpt lat="39.2977730" lon="-0.7804200">
        <ele>648.0</ele>
        <time>2018-09-16T10:08:00Z</time>
      </trkpt>
      <trkpt lat="39.2977930" lon="-0.7803930">
        <ele>648.0</ele>
        <time>2018-09-16T10:08:01Z</time>
      </trkpt>
      <trkpt lat="39.2977930" lon="-0.7803930">
        <ele>649.0</ele>
        <time>2018-09-16T10:08:02Z</time>
      </trkpt>
      <trkpt lat="39.2978080" lon="-0.7803670">
        <ele>649.0</ele>
        <time>2018-09-16T10:08:03Z</time>
      </trkpt>
      <trkpt lat="39.2978080" lon="-0.7803670">
        <ele>649.0</ele>
        <time>2018-09-16T10:08:04Z</time>
      </trkpt>
      <trkpt lat="39.2978280" lon="-0.7803380">
        <ele>649.0</ele>
        <time>2018-09-16T10:08:05Z</time>
      </trkpt>
      <trkpt lat="39.2978280" lon="-0.7803380">
        <ele>649.0</ele>
        <time>2018-09-16T10:08:06Z</time>
      </trkpt>
      <trkpt lat="39.2978520" lon="-0.7803120">
        <ele>649.0</ele>
        <time>2018-09-16T10:08:07Z</time>
      </trkpt>
      <trkpt lat="39.2978520" lon="-0.7803120">
        <ele>649.0</ele>
        <time>2018-09-16T10:08:08Z</time>
      </trkpt>
      <trkpt lat="39.2978720" lon="-0.7802830">
        <ele>650.0</ele>
        <time>2018-09-16T10:08:09Z</time>
      </trkpt>
      <trkpt lat="39.2978720" lon="-0.7802830">
        <ele>650.0</ele>
        <time>2018-09-16T10:08:10Z</time>
      </trkpt>
      <trkpt lat="39.2978950" lon="-0.7802530">
        <ele>650.0</ele>
        <time>2018-09-16T10:08:11Z</time>
      </trkpt>
      <trkpt lat="39.2978950" lon="-0.7802530">
        <ele>650.0</ele>
        <time>2018-09-16T10:08:12Z</time>
      </trkpt>
      <trkpt lat="39.2979180" lon="-0.7802280">
        <ele>651.0</ele>
        <time>2018-09-16T10:08:13Z</time>
      </trkpt>
      <trkpt lat="39.2979180" lon="-0.7802280">
        <ele>651.0</ele>
        <time>2018-09-16T10:08:14Z</time>
      </trkpt>
      <trkpt lat="39.2979400" lon="-0.7802030">
        <ele>651.0</ele>
        <time>2018-09-16T10:08:15Z</time>
      </trkpt>
      <trkpt lat="39.2979520" lon="-0.7801880">
        <ele>651.0</ele>
        <time>2018-09-16T10:08:16Z</time>
      </trkpt>
      <trkpt lat="39.2979520" lon="-0.7801880">
        <ele>651.0</ele>
        <time>2018-09-16T10:08:17Z</time>
      </trkpt>
      <trkpt lat="39.2979770" lon="-0.7801620">
        <ele>651.0</ele>
        <time>2018-09-16T10:08:18Z</time>
      </trkpt>
      <trkpt lat="39.2979880" lon="-0.7801470">
        <ele>652.0</ele>
        <time>2018-09-16T10:08:19Z</time>
      </trkpt>
      <trkpt lat="39.2979880" lon="-0.7801470">
        <ele>652.0</ele>
        <time>2018-09-16T10:08:20Z</time>
      </trkpt>
      <trkpt lat="39.2980150" lon="-0.7801230">
        <ele>652.0</ele>
        <time>2018-09-16T10:08:21Z</time>
      </trkpt>
      <trkpt lat="39.2980150" lon="-0.7801230">
        <ele>652.0</ele>
        <time>2018-09-16T10:08:22Z</time>
      </trkpt>
      <trkpt lat="39.2980430" lon="-0.7801030">
        <ele>653.0</ele>
        <time>2018-09-16T10:08:23Z</time>
      </trkpt>
      <trkpt lat="39.2980430" lon="-0.7801030">
        <ele>653.0</ele>
        <time>2018-09-16T10:08:24Z</time>
      </trkpt>
      <trkpt lat="39.2980700" lon="-0.7800870">
        <ele>653.0</ele>
        <time>2018-09-16T10:08:25Z</time>
      </trkpt>
      <trkpt lat="39.2980700" lon="-0.7800870">
        <ele>653.0</ele>
        <time>2018-09-16T10:08:26Z</time>
      </trkpt>
      <trkpt lat="39.2981030" lon="-0.7800780">
        <ele>653.0</ele>
        <time>2018-09-16T10:08:27Z</time>
      </trkpt>
      <trkpt lat="39.2981030" lon="-0.7800780">
        <ele>653.0</ele>
        <time>2018-09-16T10:08:28Z</time>
      </trkpt>
      <trkpt lat="39.2981350" lon="-0.7800750">
        <ele>654.0</ele>
        <time>2018-09-16T10:08:29Z</time>
      </trkpt>
      <trkpt lat="39.2981530" lon="-0.7800730">
        <ele>654.0</ele>
        <time>2018-09-16T10:08:30Z</time>
      </trkpt>
      <trkpt lat="39.2981530" lon="-0.7800730">
        <ele>654.0</ele>
        <time>2018-09-16T10:08:31Z</time>
      </trkpt>
      <trkpt lat="39.2981850" lon="-0.7800730">
        <ele>654.0</ele>
        <time>2018-09-16T10:08:32Z</time>
      </trkpt>
      <trkpt lat="39.2982000" lon="-0.7800770">
        <ele>654.0</ele>
        <time>2018-09-16T10:08:33Z</time>
      </trkpt>
      <trkpt lat="39.2982000" lon="-0.7800770">
        <ele>655.0</ele>
        <time>2018-09-16T10:08:34Z</time>
      </trkpt>
      <trkpt lat="39.2982300" lon="-0.7800870">
        <ele>655.0</ele>
        <time>2018-09-16T10:08:35Z</time>
      </trkpt>
      <trkpt lat="39.2982430" lon="-0.7800900">
        <ele>655.0</ele>
        <time>2018-09-16T10:08:36Z</time>
      </trkpt>
      <trkpt lat="39.2982430" lon="-0.7800900">
        <ele>655.0</ele>
        <time>2018-09-16T10:08:37Z</time>
      </trkpt>
      <trkpt lat="39.2982730" lon="-0.7800950">
        <ele>655.0</ele>
        <time>2018-09-16T10:08:38Z</time>
      </trkpt>
      <trkpt lat="39.2982730" lon="-0.7800950">
        <ele>655.0</ele>
        <time>2018-09-16T10:08:39Z</time>
      </trkpt>
      <trkpt lat="39.2983050" lon="-0.7800950">
        <ele>656.0</ele>
        <time>2018-09-16T10:08:40Z</time>
      </trkpt>
      <trkpt lat="39.2983180" lon="-0.7800930">
        <ele>656.0</ele>
        <time>2018-09-16T10:08:41Z</time>
      </trkpt>
      <trkpt lat="39.2983180" lon="-0.7800930">
        <ele>656.0</ele>
        <time>2018-09-16T10:08:42Z</time>
      </trkpt>
      <trkpt lat="39.2983480" lon="-0.7800850">
        <ele>656.0</ele>
        <time>2018-09-16T10:08:43Z</time>
      </trkpt>
      <trkpt lat="39.2983630" lon="-0.7800780">
        <ele>656.0</ele>
        <time>2018-09-16T10:08:44Z</time>
      </trkpt>
      <trkpt lat="39.2983630" lon="-0.7800780">
        <ele>656.0</ele>
        <time>2018-09-16T10:08:45Z</time>
      </trkpt>
      <trkpt lat="39.2983900" lon="-0.7800630">
        <ele>656.0</ele>
        <time>2018-09-16T10:08:46Z</time>
      </trkpt>
      <trkpt lat="39.2983900" lon="-0.7800630">
        <ele>656.0</ele>
        <time>2018-09-16T10:08:47Z</time>
      </trkpt>
      <trkpt lat="39.2984130" lon="-0.7800450">
        <ele>656.0</ele>
        <time>2018-09-16T10:08:48Z</time>
      </trkpt>
      <trkpt lat="39.2984130" lon="-0.7800450">
        <ele>656.0</ele>
        <time>2018-09-16T10:08:49Z</time>
      </trkpt>
      <trkpt lat="39.2984400" lon="-0.7800300">
        <ele>656.0</ele>
        <time>2018-09-16T10:08:50Z</time>
      </trkpt>
      <trkpt lat="39.2984400" lon="-0.7800300">
        <ele>656.0</ele>
        <time>2018-09-16T10:08:51Z</time>
      </trkpt>
      <trkpt lat="39.2984620" lon="-0.7800080">
        <ele>657.0</ele>
        <time>2018-09-16T10:08:52Z</time>
      </trkpt>
      <trkpt lat="39.2984720" lon="-0.7799970">
        <ele>657.0</ele>
        <time>2018-09-16T10:08:53Z</time>
      </trkpt>
      <trkpt lat="39.2984720" lon="-0.7799970">
        <ele>657.0</ele>
        <time>2018-09-16T10:08:54Z</time>
      </trkpt>
      <trkpt lat="39.2984950" lon="-0.7799730">
        <ele>657.0</ele>
        <time>2018-09-16T10:08:55Z</time>
      </trkpt>
      <trkpt lat="39.2984950" lon="-0.7799730">
        <ele>658.0</ele>
        <time>2018-09-16T10:08:56Z</time>
      </trkpt>
      <trkpt lat="39.2985200" lon="-0.7799520">
        <ele>658.0</ele>
        <time>2018-09-16T10:08:57Z</time>
      </trkpt>
      <trkpt lat="39.2985200" lon="-0.7799520">
        <ele>658.0</ele>
        <time>2018-09-16T10:08:58Z</time>
      </trkpt>
      <trkpt lat="39.2985430" lon="-0.7799300">
        <ele>659.0</ele>
        <time>2018-09-16T10:08:59Z</time>
      </trkpt>
      <trkpt lat="39.2985570" lon="-0.7799180">
        <ele>659.0</ele>
        <time>2018-09-16T10:09:00Z</time>
      </trkpt>
      <trkpt lat="39.2985680" lon="-0.7799070">
        <ele>659.0</ele>
        <time>2018-09-16T10:09:01Z</time>
      </trkpt>
      <trkpt lat="39.2985680" lon="-0.7799070">
        <ele>659.0</ele>
        <time>2018-09-16T10:09:02Z</time>
      </trkpt>
      <trkpt lat="39.2985900" lon="-0.7798830">
        <ele>660.0</ele>
        <time>2018-09-16T10:09:03Z</time>
      </trkpt>
      <trkpt lat="39.2986020" lon="-0.7798700">
        <ele>660.0</ele>
        <time>2018-09-16T10:09:04Z</time>
      </trkpt>
      <trkpt lat="39.2986020" lon="-0.7798700">
        <ele>660.0</ele>
        <time>2018-09-16T10:09:05Z</time>
      </trkpt>
      <trkpt lat="39.2986270" lon="-0.7798430">
        <ele>660.0</ele>
        <time>2018-09-16T10:09:06Z</time>
      </trkpt>
      <trkpt lat="39.2986380" lon="-0.7798300">
        <ele>661.0</ele>
        <time>2018-09-16T10:09:07Z</time>
      </trkpt>
      <trkpt lat="39.2986380" lon="-0.7798300">
        <ele>661.0</ele>
        <time>2018-09-16T10:09:08Z</time>
      </trkpt>
      <trkpt lat="39.2986630" lon="-0.7798070">
        <ele>661.0</ele>
        <time>2018-09-16T10:09:09Z</time>
      </trkpt>
      <trkpt lat="39.2986770" lon="-0.7797970">
        <ele>661.0</ele>
        <time>2018-09-16T10:09:10Z</time>
      </trkpt>
      <trkpt lat="39.2986770" lon="-0.7797970">
        <ele>662.0</ele>
        <time>2018-09-16T10:09:11Z</time>
      </trkpt>
      <trkpt lat="39.2987030" lon="-0.7797750">
        <ele>662.0</ele>
        <time>2018-09-16T10:09:12Z</time>
      </trkpt>
      <trkpt lat="39.2987170" lon="-0.7797650">
        <ele>662.0</ele>
        <time>2018-09-16T10:09:13Z</time>
      </trkpt>
      <trkpt lat="39.2987170" lon="-0.7797650">
        <ele>662.0</ele>
        <time>2018-09-16T10:09:14Z</time>
      </trkpt>
      <trkpt lat="39.2987430" lon="-0.7797430">
        <ele>662.0</ele>
        <time>2018-09-16T10:09:15Z</time>
      </trkpt>
      <trkpt lat="39.2987430" lon="-0.7797430">
        <ele>662.0</ele>
        <time>2018-09-16T10:09:16Z</time>
      </trkpt>
      <trkpt lat="39.2987730" lon="-0.7797230">
        <ele>662.0</ele>
        <time>2018-09-16T10:09:17Z</time>
      </trkpt>
      <trkpt lat="39.2987730" lon="-0.7797230">
        <ele>663.0</ele>
        <time>2018-09-16T10:09:18Z</time>
      </trkpt>
      <trkpt lat="39.2988030" lon="-0.7797120">
        <ele>663.0</ele>
        <time>2018-09-16T10:09:19Z</time>
      </trkpt>
      <trkpt lat="39.2988030" lon="-0.7797120">
        <ele>663.0</ele>
        <time>2018-09-16T10:09:20Z</time>
      </trkpt>
      <trkpt lat="39.2988330" lon="-0.7796980">
        <ele>663.0</ele>
        <time>2018-09-16T10:09:21Z</time>
      </trkpt>
      <trkpt lat="39.2988330" lon="-0.7796980">
        <ele>663.0</ele>
        <time>2018-09-16T10:09:22Z</time>
      </trkpt>
      <trkpt lat="39.2988620" lon="-0.7796850">
        <ele>664.0</ele>
        <time>2018-09-16T10:09:23Z</time>
      </trkpt>
      <trkpt lat="39.2988620" lon="-0.7796850">
        <ele>664.0</ele>
        <time>2018-09-16T10:09:24Z</time>
      </trkpt>
      <trkpt lat="39.2988880" lon="-0.7796720">
        <ele>664.0</ele>
        <time>2018-09-16T10:09:25Z</time>
      </trkpt>
      <trkpt lat="39.2988880" lon="-0.7796720">
        <ele>664.0</ele>
        <time>2018-09-16T10:09:26Z</time>
      </trkpt>
      <trkpt lat="39.2989170" lon="-0.7796580">
        <ele>664.0</ele>
        <time>2018-09-16T10:09:27Z</time>
      </trkpt>
      <trkpt lat="39.2989170" lon="-0.7796580">
        <ele>664.0</ele>
        <time>2018-09-16T10:09:28Z</time>
      </trkpt>
      <trkpt lat="39.2989420" lon="-0.7796470">
        <ele>665.0</ele>
        <time>2018-09-16T10:09:29Z</time>
      </trkpt>
      <trkpt lat="39.2989570" lon="-0.7796420">
        <ele>665.0</ele>
        <time>2018-09-16T10:09:30Z</time>
      </trkpt>
      <trkpt lat="39.2989700" lon="-0.7796400">
        <ele>665.0</ele>
        <time>2018-09-16T10:09:31Z</time>
      </trkpt>
      <trkpt lat="39.2989700" lon="-0.7796400">
        <ele>665.0</ele>
        <time>2018-09-16T10:09:32Z</time>
      </trkpt>
      <trkpt lat="39.2990000" lon="-0.7796420">
        <ele>665.0</ele>
        <time>2018-09-16T10:09:33Z</time>
      </trkpt>
      <trkpt lat="39.2990000" lon="-0.7796420">
        <ele>665.0</ele>
        <time>2018-09-16T10:09:34Z</time>
      </trkpt>
      <trkpt lat="39.2990280" lon="-0.7796400">
        <ele>666.0</ele>
        <time>2018-09-16T10:09:35Z</time>
      </trkpt>
      <trkpt lat="39.2990280" lon="-0.7796400">
        <ele>666.0</ele>
        <time>2018-09-16T10:09:36Z</time>
      </trkpt>
      <trkpt lat="39.2990600" lon="-0.7796350">
        <ele>666.0</ele>
        <time>2018-09-16T10:09:37Z</time>
      </trkpt>
      <trkpt lat="39.2990600" lon="-0.7796350">
        <ele>666.0</ele>
        <time>2018-09-16T10:09:38Z</time>
      </trkpt>
      <trkpt lat="39.2990870" lon="-0.7796350">
        <ele>666.0</ele>
        <time>2018-09-16T10:09:39Z</time>
      </trkpt>
      <trkpt lat="39.2990870" lon="-0.7796350">
        <ele>666.0</ele>
        <time>2018-09-16T10:09:40Z</time>
      </trkpt>
      <trkpt lat="39.2991180" lon="-0.7796480">
        <ele>666.0</ele>
        <time>2018-09-16T10:09:41Z</time>
      </trkpt>
      <trkpt lat="39.2991350" lon="-0.7796570">
        <ele>667.0</ele>
        <time>2018-09-16T10:09:42Z</time>
      </trkpt>
      <trkpt lat="39.2991350" lon="-0.7796570">
        <ele>667.0</ele>
        <time>2018-09-16T10:09:43Z</time>
      </trkpt>
      <trkpt lat="39.2991670" lon="-0.7796650">
        <ele>667.0</ele>
        <time>2018-09-16T10:09:44Z</time>
      </trkpt>
      <trkpt lat="39.2991670" lon="-0.7796650">
        <ele>667.0</ele>
        <time>2018-09-16T10:09:45Z</time>
      </trkpt>
      <trkpt lat="39.2991950" lon="-0.7796700">
        <ele>667.0</ele>
        <time>2018-09-16T10:09:46Z</time>
      </trkpt>
      <trkpt lat="39.2991950" lon="-0.7796700">
        <ele>667.0</ele>
        <time>2018-09-16T10:09:47Z</time>
      </trkpt>
      <trkpt lat="39.2992180" lon="-0.7796770">
        <ele>668.0</ele>
        <time>2018-09-16T10:09:48Z</time>
      </trkpt>
      <trkpt lat="39.2992330" lon="-0.7796830">
        <ele>668.0</ele>
        <time>2018-09-16T10:09:49Z</time>
      </trkpt>
      <trkpt lat="39.2992330" lon="-0.7796830">
        <ele>668.0</ele>
        <time>2018-09-16T10:09:50Z</time>
      </trkpt>
      <trkpt lat="39.2992620" lon="-0.7796900">
        <ele>668.0</ele>
        <time>2018-09-16T10:09:51Z</time>
      </trkpt>
      <trkpt lat="39.2992770" lon="-0.7796900">
        <ele>668.0</ele>
        <time>2018-09-16T10:09:52Z</time>
      </trkpt>
      <trkpt lat="39.2992770" lon="-0.7796900">
        <ele>669.0</ele>
        <time>2018-09-16T10:09:53Z</time>
      </trkpt>
      <trkpt lat="39.2993030" lon="-0.7796920">
        <ele>669.0</ele>
        <time>2018-09-16T10:09:54Z</time>
      </trkpt>
      <trkpt lat="39.2993030" lon="-0.7796920">
        <ele>669.0</ele>
        <time>2018-09-16T10:09:55Z</time>
      </trkpt>
      <trkpt lat="39.2993320" lon="-0.7796900">
        <ele>669.0</ele>
        <time>2018-09-16T10:09:56Z</time>
      </trkpt>
      <trkpt lat="39.2993320" lon="-0.7796900">
        <ele>669.0</ele>
        <time>2018-09-16T10:09:57Z</time>
      </trkpt>
      <trkpt lat="39.2993600" lon="-0.7796880">
        <ele>669.0</ele>
        <time>2018-09-16T10:09:58Z</time>
      </trkpt>
      <trkpt lat="39.2993720" lon="-0.7796800">
        <ele>669.0</ele>
        <time>2018-09-16T10:09:59Z</time>
      </trkpt>
      <trkpt lat="39.2993720" lon="-0.7796800">
        <ele>669.0</ele>
        <time>2018-09-16T10:10:00Z</time>
      </trkpt>
      <trkpt lat="39.2993970" lon="-0.7796620">
        <ele>670.0</ele>
        <time>2018-09-16T10:10:01Z</time>
      </trkpt>
      <trkpt lat="39.2993970" lon="-0.7796620">
        <ele>670.0</ele>
        <time>2018-09-16T10:10:02Z</time>
      </trkpt>
      <trkpt lat="39.2994220" lon="-0.7796430">
        <ele>670.0</ele>
        <time>2018-09-16T10:10:03Z</time>
      </trkpt>
      <trkpt lat="39.2994320" lon="-0.7796320">
        <ele>670.0</ele>
        <time>2018-09-16T10:10:04Z</time>
      </trkpt>
      <trkpt lat="39.2994380" lon="-0.7796180">
        <ele>670.0</ele>
        <time>2018-09-16T10:10:05Z</time>
      </trkpt>
      <trkpt lat="39.2994380" lon="-0.7796180">
        <ele>670.0</ele>
        <time>2018-09-16T10:10:06Z</time>
      </trkpt>
      <trkpt lat="39.2994570" lon="-0.7795900">
        <ele>670.0</ele>
        <time>2018-09-16T10:10:07Z</time>
      </trkpt>
      <trkpt lat="39.2994570" lon="-0.7795900">
        <ele>670.0</ele>
        <time>2018-09-16T10:10:08Z</time>
      </trkpt>
      <trkpt lat="39.2994750" lon="-0.7795600">
        <ele>670.0</ele>
        <time>2018-09-16T10:10:09Z</time>
      </trkpt>
      <trkpt lat="39.2994850" lon="-0.7795470">
        <ele>670.0</ele>
        <time>2018-09-16T10:10:10Z</time>
      </trkpt>
      <trkpt lat="39.2994850" lon="-0.7795470">
        <ele>670.0</ele>
        <time>2018-09-16T10:10:11Z</time>
      </trkpt>
      <trkpt lat="39.2995050" lon="-0.7795200">
        <ele>670.0</ele>
        <time>2018-09-16T10:10:12Z</time>
      </trkpt>
      <trkpt lat="39.2995130" lon="-0.7795070">
        <ele>671.0</ele>
        <time>2018-09-16T10:10:13Z</time>
      </trkpt>
      <trkpt lat="39.2995130" lon="-0.7795070">
        <ele>671.0</ele>
        <time>2018-09-16T10:10:14Z</time>
      </trkpt>
      <trkpt lat="39.2995330" lon="-0.7794850">
        <ele>671.0</ele>
        <time>2018-09-16T10:10:15Z</time>
      </trkpt>
      <trkpt lat="39.2995330" lon="-0.7794850">
        <ele>671.0</ele>
        <time>2018-09-16T10:10:16Z</time>
      </trkpt>
      <trkpt lat="39.2995520" lon="-0.7794580">
        <ele>671.0</ele>
        <time>2018-09-16T10:10:17Z</time>
      </trkpt>
      <trkpt lat="39.2995520" lon="-0.7794580">
        <ele>671.0</ele>
        <time>2018-09-16T10:10:18Z</time>
      </trkpt>
      <trkpt lat="39.2995720" lon="-0.7794220">
        <ele>671.0</ele>
        <time>2018-09-16T10:10:19Z</time>
      </trkpt>
      <trkpt lat="39.2995720" lon="-0.7794220">
        <ele>672.0</ele>
        <time>2018-09-16T10:10:20Z</time>
      </trkpt>
      <trkpt lat="39.2995920" lon="-0.7793880">
        <ele>672.0</ele>
        <time>2018-09-16T10:10:21Z</time>
      </trkpt>
      <trkpt lat="39.2995920" lon="-0.7793880">
        <ele>672.0</ele>
        <time>2018-09-16T10:10:22Z</time>
      </trkpt>
      <trkpt lat="39.2996170" lon="-0.7793630">
        <ele>672.0</ele>
        <time>2018-09-16T10:10:23Z</time>
      </trkpt>
      <trkpt lat="39.2996170" lon="-0.7793630">
        <ele>673.0</ele>
        <time>2018-09-16T10:10:24Z</time>
      </trkpt>
      <trkpt lat="39.2996420" lon="-0.7793430">
        <ele>673.0</ele>
        <time>2018-09-16T10:10:25Z</time>
      </trkpt>
      <trkpt lat="39.2996420" lon="-0.7793430">
        <ele>673.0</ele>
        <time>2018-09-16T10:10:26Z</time>
      </trkpt>
      <trkpt lat="39.2996680" lon="-0.7793220">
        <ele>673.0</ele>
        <time>2018-09-16T10:10:27Z</time>
      </trkpt>
      <trkpt lat="39.2996820" lon="-0.7793130">
        <ele>673.0</ele>
        <time>2018-09-16T10:10:28Z</time>
      </trkpt>
      <trkpt lat="39.2996820" lon="-0.7793130">
        <ele>673.0</ele>
        <time>2018-09-16T10:10:29Z</time>
      </trkpt>
      <trkpt lat="39.2997100" lon="-0.7792980">
        <ele>674.0</ele>
        <time>2018-09-16T10:10:30Z</time>
      </trkpt>
      <trkpt lat="39.2997230" lon="-0.7792950">
        <ele>674.0</ele>
        <time>2018-09-16T10:10:31Z</time>
      </trkpt>
      <trkpt lat="39.2997230" lon="-0.7792950">
        <ele>674.0</ele>
        <time>2018-09-16T10:10:32Z</time>
      </trkpt>
      <trkpt lat="39.2997500" lon="-0.7792800">
        <ele>674.0</ele>
        <time>2018-09-16T10:10:33Z</time>
      </trkpt>
      <trkpt lat="39.2997600" lon="-0.7792670">
        <ele>674.0</ele>
        <time>2018-09-16T10:10:34Z</time>
      </trkpt>
      <trkpt lat="39.2997600" lon="-0.7792670">
        <ele>674.0</ele>
        <time>2018-09-16T10:10:35Z</time>
      </trkpt>
      <trkpt lat="39.2997780" lon="-0.7792400">
        <ele>674.0</ele>
        <time>2018-09-16T10:10:36Z</time>
      </trkpt>
      <trkpt lat="39.2997880" lon="-0.7792300">
        <ele>674.0</ele>
        <time>2018-09-16T10:10:37Z</time>
      </trkpt>
      <trkpt lat="39.2997880" lon="-0.7792300">
        <ele>675.0</ele>
        <time>2018-09-16T10:10:38Z</time>
      </trkpt>
      <trkpt lat="39.2998080" lon="-0.7792080">
        <ele>675.0</ele>
        <time>2018-09-16T10:10:39Z</time>
      </trkpt>
      <trkpt lat="39.2998080" lon="-0.7792080">
        <ele>675.0</ele>
        <time>2018-09-16T10:10:40Z</time>
      </trkpt>
      <trkpt lat="39.2998280" lon="-0.7791830">
        <ele>675.0</ele>
        <time>2018-09-16T10:10:41Z</time>
      </trkpt>
      <trkpt lat="39.2998280" lon="-0.7791830">
        <ele>675.0</ele>
        <time>2018-09-16T10:10:42Z</time>
      </trkpt>
      <trkpt lat="39.2998480" lon="-0.7791620">
        <ele>675.0</ele>
        <time>2018-09-16T10:10:43Z</time>
      </trkpt>
      <trkpt lat="39.2998600" lon="-0.7791530">
        <ele>675.0</ele>
        <time>2018-09-16T10:10:44Z</time>
      </trkpt>
      <trkpt lat="39.2998600" lon="-0.7791530">
        <ele>676.0</ele>
        <time>2018-09-16T10:10:45Z</time>
      </trkpt>
      <trkpt lat="39.2998820" lon="-0.7791370">
        <ele>676.0</ele>
        <time>2018-09-16T10:10:46Z</time>
      </trkpt>
      <trkpt lat="39.2998820" lon="-0.7791370">
        <ele>676.0</ele>
        <time>2018-09-16T10:10:47Z</time>
      </trkpt>
      <trkpt lat="39.2999000" lon="-0.7791170">
        <ele>676.0</ele>
        <time>2018-09-16T10:10:48Z</time>
      </trkpt>
      <trkpt lat="39.2999120" lon="-0.7791100">
        <ele>676.0</ele>
        <time>2018-09-16T10:10:49Z</time>
      </trkpt>
      <trkpt lat="39.2999120" lon="-0.7791100">
        <ele>676.0</ele>
        <time>2018-09-16T10:10:50Z</time>
      </trkpt>
      <trkpt lat="39.2999400" lon="-0.7791000">
        <ele>676.0</ele>
        <time>2018-09-16T10:10:51Z</time>
      </trkpt>
      <trkpt lat="39.2999400" lon="-0.7791000">
        <ele>676.0</ele>
        <time>2018-09-16T10:10:52Z</time>
      </trkpt>
      <trkpt lat="39.2999650" lon="-0.7790870">
        <ele>677.0</ele>
        <time>2018-09-16T10:10:53Z</time>
      </trkpt>
      <trkpt lat="39.2999650" lon="-0.7790870">
        <ele>677.0</ele>
        <time>2018-09-16T10:10:54Z</time>
      </trkpt>
      <trkpt lat="39.2999880" lon="-0.7790670">
        <ele>677.0</ele>
        <time>2018-09-16T10:10:55Z</time>
      </trkpt>
      <trkpt lat="39.2999880" lon="-0.7790670">
        <ele>677.0</ele>
        <time>2018-09-16T10:10:56Z</time>
      </trkpt>
      <trkpt lat="39.3000120" lon="-0.7790500">
        <ele>677.0</ele>
        <time>2018-09-16T10:10:57Z</time>
      </trkpt>
      <trkpt lat="39.3000120" lon="-0.7790500">
        <ele>677.0</ele>
        <time>2018-09-16T10:10:58Z</time>
      </trkpt>
      <trkpt lat="39.3000330" lon="-0.7790350">
        <ele>677.0</ele>
        <time>2018-09-16T10:10:59Z</time>
      </trkpt>
      <trkpt lat="39.3000330" lon="-0.7790350">
        <ele>677.0</ele>
        <time>2018-09-16T10:11:00Z</time>
      </trkpt>
      <trkpt lat="39.3000550" lon="-0.7790200">
        <ele>678.0</ele>
        <time>2018-09-16T10:11:01Z</time>
      </trkpt>
      <trkpt lat="39.3000550" lon="-0.7790200">
        <ele>678.0</ele>
        <time>2018-09-16T10:11:02Z</time>
      </trkpt>
      <trkpt lat="39.3000780" lon="-0.7790050">
        <ele>678.0</ele>
        <time>2018-09-16T10:11:03Z</time>
      </trkpt>
      <trkpt lat="39.3000780" lon="-0.7790050">
        <ele>678.0</ele>
        <time>2018-09-16T10:11:04Z</time>
      </trkpt>
      <trkpt lat="39.3001020" lon="-0.7789920">
        <ele>679.0</ele>
        <time>2018-09-16T10:11:05Z</time>
      </trkpt>
      <trkpt lat="39.3001020" lon="-0.7789920">
        <ele>679.0</ele>
        <time>2018-09-16T10:11:06Z</time>
      </trkpt>
      <trkpt lat="39.3001280" lon="-0.7789800">
        <ele>679.0</ele>
        <time>2018-09-16T10:11:07Z</time>
      </trkpt>
      <trkpt lat="39.3001280" lon="-0.7789800">
        <ele>680.0</ele>
        <time>2018-09-16T10:11:08Z</time>
      </trkpt>
      <trkpt lat="39.3001570" lon="-0.7789800">
        <ele>680.0</ele>
        <time>2018-09-16T10:11:09Z</time>
      </trkpt>
      <trkpt lat="39.3001700" lon="-0.7789850">
        <ele>680.0</ele>
        <time>2018-09-16T10:11:10Z</time>
      </trkpt>
      <trkpt lat="39.3001700" lon="-0.7789850">
        <ele>680.0</ele>
        <time>2018-09-16T10:11:11Z</time>
      </trkpt>
      <trkpt lat="39.3001970" lon="-0.7790020">
        <ele>680.0</ele>
        <time>2018-09-16T10:11:12Z</time>
      </trkpt>
      <trkpt lat="39.3002100" lon="-0.7790100">
        <ele>680.0</ele>
        <time>2018-09-16T10:11:13Z</time>
      </trkpt>
      <trkpt lat="39.3002100" lon="-0.7790100">
        <ele>680.0</ele>
        <time>2018-09-16T10:11:14Z</time>
      </trkpt>
      <trkpt lat="39.3002380" lon="-0.7790280">
        <ele>680.0</ele>
        <time>2018-09-16T10:11:15Z</time>
      </trkpt>
      <trkpt lat="39.3002380" lon="-0.7790280">
        <ele>681.0</ele>
        <time>2018-09-16T10:11:16Z</time>
      </trkpt>
      <trkpt lat="39.3002670" lon="-0.7790430">
        <ele>681.0</ele>
        <time>2018-09-16T10:11:17Z</time>
      </trkpt>
      <trkpt lat="39.3002670" lon="-0.7790430">
        <ele>681.0</ele>
        <time>2018-09-16T10:11:18Z</time>
      </trkpt>
      <trkpt lat="39.3002930" lon="-0.7790600">
        <ele>681.0</ele>
        <time>2018-09-16T10:11:19Z</time>
      </trkpt>
      <trkpt lat="39.3002930" lon="-0.7790600">
        <ele>681.0</ele>
        <time>2018-09-16T10:11:20Z</time>
      </trkpt>
      <trkpt lat="39.3003220" lon="-0.7790750">
        <ele>681.0</ele>
        <time>2018-09-16T10:11:21Z</time>
      </trkpt>
      <trkpt lat="39.3003220" lon="-0.7790750">
        <ele>681.0</ele>
        <time>2018-09-16T10:11:22Z</time>
      </trkpt>
      <trkpt lat="39.3003480" lon="-0.7790900">
        <ele>681.0</ele>
        <time>2018-09-16T10:11:23Z</time>
      </trkpt>
      <trkpt lat="39.3003630" lon="-0.7790970">
        <ele>681.0</ele>
        <time>2018-09-16T10:11:24Z</time>
      </trkpt>
      <trkpt lat="39.3003630" lon="-0.7790970">
        <ele>682.0</ele>
        <time>2018-09-16T10:11:25Z</time>
      </trkpt>
      <trkpt lat="39.3003870" lon="-0.7791050">
        <ele>682.0</ele>
        <time>2018-09-16T10:11:26Z</time>
      </trkpt>
      <trkpt lat="39.3003870" lon="-0.7791050">
        <ele>682.0</ele>
        <time>2018-09-16T10:11:27Z</time>
      </trkpt>
      <trkpt lat="39.3004130" lon="-0.7791070">
        <ele>682.0</ele>
        <time>2018-09-16T10:11:28Z</time>
      </trkpt>
      <trkpt lat="39.3004280" lon="-0.7791080">
        <ele>682.0</ele>
        <time>2018-09-16T10:11:29Z</time>
      </trkpt>
      <trkpt lat="39.3004280" lon="-0.7791080">
        <ele>682.0</ele>
        <time>2018-09-16T10:11:30Z</time>
      </trkpt>
      <trkpt lat="39.3004570" lon="-0.7791100">
        <ele>682.0</ele>
        <time>2018-09-16T10:11:31Z</time>
      </trkpt>
      <trkpt lat="39.3004570" lon="-0.7791100">
        <ele>682.0</ele>
        <time>2018-09-16T10:11:32Z</time>
      </trkpt>
      <trkpt lat="39.3004830" lon="-0.7791080">
        <ele>682.0</ele>
        <time>2018-09-16T10:11:33Z</time>
      </trkpt>
      <trkpt lat="39.3004970" lon="-0.7791080">
        <ele>682.0</ele>
        <time>2018-09-16T10:11:34Z</time>
      </trkpt>
      <trkpt lat="39.3005100" lon="-0.7791080">
        <ele>682.0</ele>
        <time>2018-09-16T10:11:35Z</time>
      </trkpt>
      <trkpt lat="39.3005100" lon="-0.7791080">
        <ele>682.0</ele>
        <time>2018-09-16T10:11:36Z</time>
      </trkpt>
      <trkpt lat="39.3005370" lon="-0.7791000">
        <ele>682.0</ele>
        <time>2018-09-16T10:11:37Z</time>
      </trkpt>
      <trkpt lat="39.3005370" lon="-0.7791000">
        <ele>682.0</ele>
        <time>2018-09-16T10:11:38Z</time>
      </trkpt>
      <trkpt lat="39.3005570" lon="-0.7790920">
        <ele>683.0</ele>
        <time>2018-09-16T10:11:39Z</time>
      </trkpt>
      <trkpt lat="39.3005570" lon="-0.7790920">
        <ele>683.0</ele>
        <time>2018-09-16T10:11:40Z</time>
      </trkpt>
      <trkpt lat="39.3005880" lon="-0.7790950">
        <ele>683.0</ele>
        <time>2018-09-16T10:11:41Z</time>
      </trkpt>
      <trkpt lat="39.3005880" lon="-0.7790950">
        <ele>683.0</ele>
        <time>2018-09-16T10:11:42Z</time>
      </trkpt>
      <trkpt lat="39.3006120" lon="-0.7790950">
        <ele>684.0</ele>
        <time>2018-09-16T10:11:43Z</time>
      </trkpt>
      <trkpt lat="39.3006120" lon="-0.7790950">
        <ele>684.0</ele>
        <time>2018-09-16T10:11:44Z</time>
      </trkpt>
      <trkpt lat="39.3006370" lon="-0.7790920">
        <ele>684.0</ele>
        <time>2018-09-16T10:11:45Z</time>
      </trkpt>
      <trkpt lat="39.3006370" lon="-0.7790920">
        <ele>684.0</ele>
        <time>2018-09-16T10:11:46Z</time>
      </trkpt>
      <trkpt lat="39.3006630" lon="-0.7790850">
        <ele>684.0</ele>
        <time>2018-09-16T10:11:47Z</time>
      </trkpt>
      <trkpt lat="39.3006630" lon="-0.7790850">
        <ele>684.0</ele>
        <time>2018-09-16T10:11:48Z</time>
      </trkpt>
      <trkpt lat="39.3006930" lon="-0.7790830">
        <ele>685.0</ele>
        <time>2018-09-16T10:11:49Z</time>
      </trkpt>
      <trkpt lat="39.3006930" lon="-0.7790830">
        <ele>685.0</ele>
        <time>2018-09-16T10:11:50Z</time>
      </trkpt>
      <trkpt lat="39.3007220" lon="-0.7790730">
        <ele>685.0</ele>
        <time>2018-09-16T10:11:51Z</time>
      </trkpt>
      <trkpt lat="39.3007220" lon="-0.7790730">
        <ele>685.0</ele>
        <time>2018-09-16T10:11:52Z</time>
      </trkpt>
      <trkpt lat="39.3007500" lon="-0.7790650">
        <ele>685.0</ele>
        <time>2018-09-16T10:11:53Z</time>
      </trkpt>
      <trkpt lat="39.3007630" lon="-0.7790600">
        <ele>686.0</ele>
        <time>2018-09-16T10:11:54Z</time>
      </trkpt>
      <trkpt lat="39.3007780" lon="-0.7790550">
        <ele>686.0</ele>
        <time>2018-09-16T10:11:55Z</time>
      </trkpt>
      <trkpt lat="39.3007780" lon="-0.7790550">
        <ele>686.0</ele>
        <time>2018-09-16T10:11:56Z</time>
      </trkpt>
      <trkpt lat="39.3008050" lon="-0.7790470">
        <ele>686.0</ele>
        <time>2018-09-16T10:11:57Z</time>
      </trkpt>
      <trkpt lat="39.3008170" lon="-0.7790400">
        <ele>686.0</ele>
        <time>2018-09-16T10:11:58Z</time>
      </trkpt>
      <trkpt lat="39.3008170" lon="-0.7790400">
        <ele>686.0</ele>
        <time>2018-09-16T10:11:59Z</time>
      </trkpt>
      <trkpt lat="39.3008520" lon="-0.7790000">
        <ele>686.0</ele>
        <time>2018-09-16T10:12:00Z</time>
      </trkpt>
      <trkpt lat="39.3008610" lon="-0.7789870">
        <ele>686.0</ele>
        <time>2018-09-16T10:12:01Z</time>
      </trkpt>
      <trkpt lat="39.3008700" lon="-0.7789740">
        <ele>686.0</ele>
        <time>2018-09-16T10:12:02Z</time>
      </trkpt>
      <trkpt lat="39.3008790" lon="-0.7789610">
        <ele>686.0</ele>
        <time>2018-09-16T10:12:03Z</time>
      </trkpt>
      <trkpt lat="39.3008880" lon="-0.7789480">
        <ele>686.0</ele>
        <time>2018-09-16T10:12:04Z</time>
      </trkpt>
      <trkpt lat="39.3008970" lon="-0.7789350">
        <ele>686.0</ele>
        <time>2018-09-16T10:12:05Z</time>
      </trkpt>
      <trkpt lat="39.3008970" lon="-0.7789350">
        <ele>686.0</ele>
        <time>2018-09-16T10:12:06Z</time>
      </trkpt>
      <trkpt lat="39.3009050" lon="-0.7788980">
        <ele>686.0</ele>
        <time>2018-09-16T10:12:07Z</time>
      </trkpt>
      <trkpt lat="39.3009050" lon="-0.7788980">
        <ele>686.0</ele>
        <time>2018-09-16T10:12:08Z</time>
      </trkpt>
      <trkpt lat="39.3009080" lon="-0.7788620">
        <ele>686.0</ele>
        <time>2018-09-16T10:12:09Z</time>
      </trkpt>
      <trkpt lat="39.3009080" lon="-0.7788620">
        <ele>686.0</ele>
        <time>2018-09-16T10:12:10Z</time>
      </trkpt>
      <trkpt lat="39.3009100" lon="-0.7788220">
        <ele>686.0</ele>
        <time>2018-09-16T10:12:11Z</time>
      </trkpt>
      <trkpt lat="39.3009100" lon="-0.7788220">
        <ele>686.0</ele>
        <time>2018-09-16T10:12:12Z</time>
      </trkpt>
      <trkpt lat="39.3009070" lon="-0.7787800">
        <ele>687.0</ele>
        <time>2018-09-16T10:12:13Z</time>
      </trkpt>
      <trkpt lat="39.3009070" lon="-0.7787800">
        <ele>687.0</ele>
        <time>2018-09-16T10:12:14Z</time>
      </trkpt>
      <trkpt lat="39.3009030" lon="-0.7787370">
        <ele>687.0</ele>
        <time>2018-09-16T10:12:15Z</time>
      </trkpt>
      <trkpt lat="39.3009030" lon="-0.7787370">
        <ele>687.0</ele>
        <time>2018-09-16T10:12:16Z</time>
      </trkpt>
      <trkpt lat="39.3009070" lon="-0.7786950">
        <ele>688.0</ele>
        <time>2018-09-16T10:12:17Z</time>
      </trkpt>
      <trkpt lat="39.3009070" lon="-0.7786950">
        <ele>688.0</ele>
        <time>2018-09-16T10:12:18Z</time>
      </trkpt>
      <trkpt lat="39.3009030" lon="-0.7786520">
        <ele>688.0</ele>
        <time>2018-09-16T10:12:19Z</time>
      </trkpt>
      <trkpt lat="39.3009030" lon="-0.7786520">
        <ele>688.0</ele>
        <time>2018-09-16T10:12:20Z</time>
      </trkpt>
      <trkpt lat="39.3009020" lon="-0.7786050">
        <ele>688.0</ele>
        <time>2018-09-16T10:12:21Z</time>
      </trkpt>
      <trkpt lat="39.3009020" lon="-0.7786050">
        <ele>688.0</ele>
        <time>2018-09-16T10:12:22Z</time>
      </trkpt>
      <trkpt lat="39.3008970" lon="-0.7785620">
        <ele>688.0</ele>
        <time>2018-09-16T10:12:23Z</time>
      </trkpt>
      <trkpt lat="39.3008970" lon="-0.7785620">
        <ele>688.0</ele>
        <time>2018-09-16T10:12:24Z</time>
      </trkpt>
      <trkpt lat="39.3008950" lon="-0.7785220">
        <ele>689.0</ele>
        <time>2018-09-16T10:12:25Z</time>
      </trkpt>
      <trkpt lat="39.3008970" lon="-0.7785020">
        <ele>689.0</ele>
        <time>2018-09-16T10:12:26Z</time>
      </trkpt>
      <trkpt lat="39.3008970" lon="-0.7785020">
        <ele>689.0</ele>
        <time>2018-09-16T10:12:27Z</time>
      </trkpt>
      <trkpt lat="39.3008950" lon="-0.7784630">
        <ele>690.0</ele>
        <time>2018-09-16T10:12:28Z</time>
      </trkpt>
      <trkpt lat="39.3008950" lon="-0.7784430">
        <ele>690.0</ele>
        <time>2018-09-16T10:12:29Z</time>
      </trkpt>
      <trkpt lat="39.3008950" lon="-0.7784430">
        <ele>690.0</ele>
        <time>2018-09-16T10:12:30Z</time>
      </trkpt>
      <trkpt lat="39.3008980" lon="-0.7784030">
        <ele>690.0</ele>
        <time>2018-09-16T10:12:31Z</time>
      </trkpt>
      <trkpt lat="39.3009020" lon="-0.7783830">
        <ele>690.0</ele>
        <time>2018-09-16T10:12:32Z</time>
      </trkpt>
      <trkpt lat="39.3009070" lon="-0.7783680">
        <ele>690.0</ele>
        <time>2018-09-16T10:12:33Z</time>
      </trkpt>
      <trkpt lat="39.3009070" lon="-0.7783680">
        <ele>690.0</ele>
        <time>2018-09-16T10:12:34Z</time>
      </trkpt>
      <trkpt lat="39.3009180" lon="-0.7783420">
        <ele>690.0</ele>
        <time>2018-09-16T10:12:35Z</time>
      </trkpt>
      <trkpt lat="39.3009180" lon="-0.7783420">
        <ele>691.0</ele>
        <time>2018-09-16T10:12:36Z</time>
      </trkpt>
      <trkpt lat="39.3009300" lon="-0.7783120">
        <ele>691.0</ele>
        <time>2018-09-16T10:12:37Z</time>
      </trkpt>
      <trkpt lat="39.3009300" lon="-0.7783120">
        <ele>691.0</ele>
        <time>2018-09-16T10:12:38Z</time>
      </trkpt>
      <trkpt lat="39.3009430" lon="-0.7782770">
        <ele>691.0</ele>
        <time>2018-09-16T10:12:39Z</time>
      </trkpt>
      <trkpt lat="39.3009430" lon="-0.7782770">
        <ele>692.0</ele>
        <time>2018-09-16T10:12:40Z</time>
      </trkpt>
      <trkpt lat="39.3009550" lon="-0.7782430">
        <ele>692.0</ele>
        <time>2018-09-16T10:12:41Z</time>
      </trkpt>
      <trkpt lat="39.3009600" lon="-0.7782280">
        <ele>692.0</ele>
        <time>2018-09-16T10:12:42Z</time>
      </trkpt>
      <trkpt lat="39.3009600" lon="-0.7782280">
        <ele>692.0</ele>
        <time>2018-09-16T10:12:43Z</time>
      </trkpt>
      <trkpt lat="39.3009720" lon="-0.7781980">
        <ele>692.0</ele>
        <time>2018-09-16T10:12:44Z</time>
      </trkpt>
      <trkpt lat="39.3009720" lon="-0.7781980">
        <ele>692.0</ele>
        <time>2018-09-16T10:12:45Z</time>
      </trkpt>
      <trkpt lat="39.3009820" lon="-0.7781670">
        <ele>693.0</ele>
        <time>2018-09-16T10:12:46Z</time>
      </trkpt>
      <trkpt lat="39.3009820" lon="-0.7781670">
        <ele>693.0</ele>
        <time>2018-09-16T10:12:47Z</time>
      </trkpt>
      <trkpt lat="39.3009930" lon="-0.7781350">
        <ele>694.0</ele>
        <time>2018-09-16T10:12:48Z</time>
      </trkpt>
      <trkpt lat="39.3009980" lon="-0.7781180">
        <ele>694.0</ele>
        <time>2018-09-16T10:12:49Z</time>
      </trkpt>
      <trkpt lat="39.3009980" lon="-0.7781180">
        <ele>694.0</ele>
        <time>2018-09-16T10:12:50Z</time>
      </trkpt>
      <trkpt lat="39.3010130" lon="-0.7780870">
        <ele>694.0</ele>
        <time>2018-09-16T10:12:51Z</time>
      </trkpt>
      <trkpt lat="39.3010130" lon="-0.7780870">
        <ele>694.0</ele>
        <time>2018-09-16T10:12:52Z</time>
      </trkpt>
      <trkpt lat="39.3010280" lon="-0.7780570">
        <ele>694.0</ele>
        <time>2018-09-16T10:12:53Z</time>
      </trkpt>
      <trkpt lat="39.3010280" lon="-0.7780570">
        <ele>694.0</ele>
        <time>2018-09-16T10:12:54Z</time>
      </trkpt>
      <trkpt lat="39.3010430" lon="-0.7780280">
        <ele>694.0</ele>
        <time>2018-09-16T10:12:55Z</time>
      </trkpt>
      <trkpt lat="39.3010430" lon="-0.7780280">
        <ele>694.0</ele>
        <time>2018-09-16T10:12:56Z</time>
      </trkpt>
      <trkpt lat="39.3010580" lon="-0.7779980">
        <ele>694.0</ele>
        <time>2018-09-16T10:12:57Z</time>
      </trkpt>
      <trkpt lat="39.3010630" lon="-0.7779830">
        <ele>694.0</ele>
        <time>2018-09-16T10:12:58Z</time>
      </trkpt>
      <trkpt lat="39.3010670" lon="-0.7779680">
        <ele>694.0</ele>
        <time>2018-09-16T10:12:59Z</time>
      </trkpt>
      <trkpt lat="39.3010670" lon="-0.7779680">
        <ele>694.0</ele>
        <time>2018-09-16T10:13:00Z</time>
      </trkpt>
      <trkpt lat="39.3010680" lon="-0.7779330">
        <ele>695.0</ele>
        <time>2018-09-16T10:13:01Z</time>
      </trkpt>
      <trkpt lat="39.3010680" lon="-0.7779330">
        <ele>695.0</ele>
        <time>2018-09-16T10:13:02Z</time>
      </trkpt>
      <trkpt lat="39.3010730" lon="-0.7778930">
        <ele>695.0</ele>
        <time>2018-09-16T10:13:03Z</time>
      </trkpt>
      <trkpt lat="39.3010730" lon="-0.7778930">
        <ele>695.0</ele>
        <time>2018-09-16T10:13:04Z</time>
      </trkpt>
      <trkpt lat="39.3010750" lon="-0.7778550">
        <ele>695.0</ele>
        <time>2018-09-16T10:13:05Z</time>
      </trkpt>
      <trkpt lat="39.3010750" lon="-0.7778380">
        <ele>695.0</ele>
        <time>2018-09-16T10:13:06Z</time>
      </trkpt>
      <trkpt lat="39.3010750" lon="-0.7778200">
        <ele>695.0</ele>
        <time>2018-09-16T10:13:07Z</time>
      </trkpt>
      <trkpt lat="39.3010750" lon="-0.7778200">
        <ele>695.0</ele>
        <time>2018-09-16T10:13:08Z</time>
      </trkpt>
      <trkpt lat="39.3010720" lon="-0.7777850">
        <ele>695.0</ele>
        <time>2018-09-16T10:13:09Z</time>
      </trkpt>
      <trkpt lat="39.3010720" lon="-0.7777850">
        <ele>696.0</ele>
        <time>2018-09-16T10:13:10Z</time>
      </trkpt>
      <trkpt lat="39.3010700" lon="-0.7777520">
        <ele>696.0</ele>
        <time>2018-09-16T10:13:11Z</time>
      </trkpt>
      <trkpt lat="39.3010700" lon="-0.7777520">
        <ele>696.0</ele>
        <time>2018-09-16T10:13:12Z</time>
      </trkpt>
      <trkpt lat="39.3010630" lon="-0.7777230">
        <ele>696.0</ele>
        <time>2018-09-16T10:13:13Z</time>
      </trkpt>
      <trkpt lat="39.3010630" lon="-0.7777230">
        <ele>696.0</ele>
        <time>2018-09-16T10:13:14Z</time>
      </trkpt>
      <trkpt lat="39.3010530" lon="-0.7776970">
        <ele>696.0</ele>
        <time>2018-09-16T10:13:15Z</time>
      </trkpt>
      <trkpt lat="39.3010530" lon="-0.7776970">
        <ele>697.0</ele>
        <time>2018-09-16T10:13:16Z</time>
      </trkpt>
      <trkpt lat="39.3010470" lon="-0.7776630">
        <ele>697.0</ele>
        <time>2018-09-16T10:13:17Z</time>
      </trkpt>
      <trkpt lat="39.3010470" lon="-0.7776630">
        <ele>697.0</ele>
        <time>2018-09-16T10:13:18Z</time>
      </trkpt>
      <trkpt lat="39.3010320" lon="-0.7776320">
        <ele>697.0</ele>
        <time>2018-09-16T10:13:19Z</time>
      </trkpt>
      <trkpt lat="39.3010320" lon="-0.7776320">
        <ele>697.0</ele>
        <time>2018-09-16T10:13:20Z</time>
      </trkpt>
      <trkpt lat="39.3010200" lon="-0.7776020">
        <ele>697.0</ele>
        <time>2018-09-16T10:13:21Z</time>
      </trkpt>
      <trkpt lat="39.3010130" lon="-0.7775920">
        <ele>697.0</ele>
        <time>2018-09-16T10:13:22Z</time>
      </trkpt>
      <trkpt lat="39.3010130" lon="-0.7775920">
        <ele>697.0</ele>
        <time>2018-09-16T10:13:23Z</time>
      </trkpt>
      <trkpt lat="39.3009970" lon="-0.7775600">
        <ele>697.0</ele>
        <time>2018-09-16T10:13:24Z</time>
      </trkpt>
      <trkpt lat="39.3009880" lon="-0.7775450">
        <ele>697.0</ele>
        <time>2018-09-16T10:13:25Z</time>
      </trkpt>
      <trkpt lat="39.3009880" lon="-0.7775450">
        <ele>697.0</ele>
        <time>2018-09-16T10:13:26Z</time>
      </trkpt>
      <trkpt lat="39.3009720" lon="-0.7775100">
        <ele>698.0</ele>
        <time>2018-09-16T10:13:27Z</time>
      </trkpt>
      <trkpt lat="39.3009720" lon="-0.7775100">
        <ele>698.0</ele>
        <time>2018-09-16T10:13:28Z</time>
      </trkpt>
      <trkpt lat="39.3009470" lon="-0.7774800">
        <ele>698.0</ele>
        <time>2018-09-16T10:13:29Z</time>
      </trkpt>
      <trkpt lat="39.3009470" lon="-0.7774800">
        <ele>698.0</ele>
        <time>2018-09-16T10:13:30Z</time>
      </trkpt>
      <trkpt lat="39.3009280" lon="-0.7774550">
        <ele>698.0</ele>
        <time>2018-09-16T10:13:31Z</time>
      </trkpt>
      <trkpt lat="39.3009280" lon="-0.7774550">
        <ele>698.0</ele>
        <time>2018-09-16T10:13:32Z</time>
      </trkpt>
      <trkpt lat="39.3009070" lon="-0.7774320">
        <ele>699.0</ele>
        <time>2018-09-16T10:13:33Z</time>
      </trkpt>
      <trkpt lat="39.3008970" lon="-0.7774180">
        <ele>699.0</ele>
        <time>2018-09-16T10:13:34Z</time>
      </trkpt>
      <trkpt lat="39.3008970" lon="-0.7774180">
        <ele>699.0</ele>
        <time>2018-09-16T10:13:35Z</time>
      </trkpt>
      <trkpt lat="39.3008750" lon="-0.7773900">
        <ele>699.0</ele>
        <time>2018-09-16T10:13:36Z</time>
      </trkpt>
      <trkpt lat="39.3008750" lon="-0.7773900">
        <ele>699.0</ele>
        <time>2018-09-16T10:13:37Z</time>
      </trkpt>
      <trkpt lat="39.3008530" lon="-0.7773630">
        <ele>699.0</ele>
        <time>2018-09-16T10:13:38Z</time>
      </trkpt>
      <trkpt lat="39.3008420" lon="-0.7773520">
        <ele>699.0</ele>
        <time>2018-09-16T10:13:39Z</time>
      </trkpt>
      <trkpt lat="39.3008420" lon="-0.7773520">
        <ele>699.0</ele>
        <time>2018-09-16T10:13:40Z</time>
      </trkpt>
      <trkpt lat="39.3008170" lon="-0.7773320">
        <ele>699.0</ele>
        <time>2018-09-16T10:13:41Z</time>
      </trkpt>
      <trkpt lat="39.3008030" lon="-0.7773220">
        <ele>699.0</ele>
        <time>2018-09-16T10:13:42Z</time>
      </trkpt>
      <trkpt lat="39.3007900" lon="-0.7773100">
        <ele>700.0</ele>
        <time>2018-09-16T10:13:43Z</time>
      </trkpt>
      <trkpt lat="39.3007900" lon="-0.7773100">
        <ele>700.0</ele>
        <time>2018-09-16T10:13:44Z</time>
      </trkpt>
      <trkpt lat="39.3007680" lon="-0.7772820">
        <ele>700.0</ele>
        <time>2018-09-16T10:13:45Z</time>
      </trkpt>
      <trkpt lat="39.3007680" lon="-0.7772820">
        <ele>701.0</ele>
        <time>2018-09-16T10:13:46Z</time>
      </trkpt>
      <trkpt lat="39.3007450" lon="-0.7772580">
        <ele>701.0</ele>
        <time>2018-09-16T10:13:47Z</time>
      </trkpt>
      <trkpt lat="39.3007330" lon="-0.7772470">
        <ele>701.0</ele>
        <time>2018-09-16T10:13:48Z</time>
      </trkpt>
      <trkpt lat="39.3007220" lon="-0.7772350">
        <ele>701.0</ele>
        <time>2018-09-16T10:13:49Z</time>
      </trkpt>
      <trkpt lat="39.3007220" lon="-0.7772350">
        <ele>702.0</ele>
        <time>2018-09-16T10:13:50Z</time>
      </trkpt>
      <trkpt lat="39.3006980" lon="-0.7772150">
        <ele>702.0</ele>
        <time>2018-09-16T10:13:51Z</time>
      </trkpt>
      <trkpt lat="39.3006980" lon="-0.7772150">
        <ele>702.0</ele>
        <time>2018-09-16T10:13:52Z</time>
      </trkpt>
      <trkpt lat="39.3006720" lon="-0.7771970">
        <ele>702.0</ele>
        <time>2018-09-16T10:13:53Z</time>
      </trkpt>
      <trkpt lat="39.3006600" lon="-0.7771900">
        <ele>702.0</ele>
        <time>2018-09-16T10:13:54Z</time>
      </trkpt>
      <trkpt lat="39.3006600" lon="-0.7771900">
        <ele>702.0</ele>
        <time>2018-09-16T10:13:55Z</time>
      </trkpt>
      <trkpt lat="39.3006330" lon="-0.7771730">
        <ele>703.0</ele>
        <time>2018-09-16T10:13:56Z</time>
      </trkpt>
      <trkpt lat="39.3006200" lon="-0.7771650">
        <ele>703.0</ele>
        <time>2018-09-16T10:13:57Z</time>
      </trkpt>
      <trkpt lat="39.3006080" lon="-0.7771530">
        <ele>703.0</ele>
        <time>2018-09-16T10:13:58Z</time>
      </trkpt>
      <trkpt lat="39.3006080" lon="-0.7771530">
        <ele>703.0</ele>
        <time>2018-09-16T10:13:59Z</time>
      </trkpt>
      <trkpt lat="39.3005820" lon="-0.7771330">
        <ele>704.0</ele>
        <time>2018-09-16T10:14:00Z</time>
      </trkpt>
      <trkpt lat="39.3005680" lon="-0.7771230">
        <ele>704.0</ele>
        <time>2018-09-16T10:14:01Z</time>
      </trkpt>
      <trkpt lat="39.3005680" lon="-0.7771230">
        <ele>704.0</ele>
        <time>2018-09-16T10:14:02Z</time>
      </trkpt>
      <trkpt lat="39.3005420" lon="-0.7771000">
        <ele>704.0</ele>
        <time>2018-09-16T10:14:03Z</time>
      </trkpt>
      <trkpt lat="39.3005300" lon="-0.7770880">
        <ele>704.0</ele>
        <time>2018-09-16T10:14:04Z</time>
      </trkpt>
      <trkpt lat="39.3005220" lon="-0.7770730">
        <ele>704.0</ele>
        <time>2018-09-16T10:14:05Z</time>
      </trkpt>
      <trkpt lat="39.3005220" lon="-0.7770730">
        <ele>704.0</ele>
        <time>2018-09-16T10:14:06Z</time>
      </trkpt>
      <trkpt lat="39.3005070" lon="-0.7770330">
        <ele>704.0</ele>
        <time>2018-09-16T10:14:07Z</time>
      </trkpt>
      <trkpt lat="39.3005070" lon="-0.7770330">
        <ele>704.0</ele>
        <time>2018-09-16T10:14:08Z</time>
      </trkpt>
      <trkpt lat="39.3004930" lon="-0.7769970">
        <ele>704.0</ele>
        <time>2018-09-16T10:14:09Z</time>
      </trkpt>
      <trkpt lat="39.3004930" lon="-0.7769970">
        <ele>704.0</ele>
        <time>2018-09-16T10:14:10Z</time>
      </trkpt>
      <trkpt lat="39.3004800" lon="-0.7769630">
        <ele>704.0</ele>
        <time>2018-09-16T10:14:11Z</time>
      </trkpt>
      <trkpt lat="39.3004800" lon="-0.7769630">
        <ele>704.0</ele>
        <time>2018-09-16T10:14:12Z</time>
      </trkpt>
      <trkpt lat="39.3004730" lon="-0.7769300">
        <ele>705.0</ele>
        <time>2018-09-16T10:14:13Z</time>
      </trkpt>
      <trkpt lat="39.3004730" lon="-0.7769300">
        <ele>705.0</ele>
        <time>2018-09-16T10:14:14Z</time>
      </trkpt>
      <trkpt lat="39.3004730" lon="-0.7768900">
        <ele>705.0</ele>
        <time>2018-09-16T10:14:15Z</time>
      </trkpt>
      <trkpt lat="39.3004750" lon="-0.7768720">
        <ele>705.0</ele>
        <time>2018-09-16T10:14:16Z</time>
      </trkpt>
      <trkpt lat="39.3004750" lon="-0.7768720">
        <ele>706.0</ele>
        <time>2018-09-16T10:14:17Z</time>
      </trkpt>
      <trkpt lat="39.3004800" lon="-0.7768370">
        <ele>706.0</ele>
        <time>2018-09-16T10:14:18Z</time>
      </trkpt>
      <trkpt lat="39.3004830" lon="-0.7768200">
        <ele>706.0</ele>
        <time>2018-09-16T10:14:19Z</time>
      </trkpt>
      <trkpt lat="39.3004830" lon="-0.7768200">
        <ele>706.0</ele>
        <time>2018-09-16T10:14:20Z</time>
      </trkpt>
      <trkpt lat="39.3004930" lon="-0.7767880">
        <ele>706.0</ele>
        <time>2018-09-16T10:14:21Z</time>
      </trkpt>
      <trkpt lat="39.3005000" lon="-0.7767730">
        <ele>706.0</ele>
        <time>2018-09-16T10:14:22Z</time>
      </trkpt>
      <trkpt lat="39.3005000" lon="-0.7767730">
        <ele>706.0</ele>
        <time>2018-09-16T10:14:23Z</time>
      </trkpt>
      <trkpt lat="39.3005130" lon="-0.7767470">
        <ele>706.0</ele>
        <time>2018-09-16T10:14:24Z</time>
      </trkpt>
      <trkpt lat="39.3005130" lon="-0.7767470">
        <ele>706.0</ele>
        <time>2018-09-16T10:14:25Z</time>
      </trkpt>
      <trkpt lat="39.3005280" lon="-0.7767200">
        <ele>706.0</ele>
        <time>2018-09-16T10:14:26Z</time>
      </trkpt>
      <trkpt lat="39.3005280" lon="-0.7767200">
        <ele>707.0</ele>
        <time>2018-09-16T10:14:27Z</time>
      </trkpt>
      <trkpt lat="39.3005480" lon="-0.7766970">
        <ele>707.0</ele>
        <time>2018-09-16T10:14:28Z</time>
      </trkpt>
      <trkpt lat="39.3005600" lon="-0.7766830">
        <ele>707.0</ele>
        <time>2018-09-16T10:14:29Z</time>
      </trkpt>
      <trkpt lat="39.3005600" lon="-0.7766830">
        <ele>707.0</ele>
        <time>2018-09-16T10:14:30Z</time>
      </trkpt>
      <trkpt lat="39.3005830" lon="-0.7766580">
        <ele>708.0</ele>
        <time>2018-09-16T10:14:31Z</time>
      </trkpt>
      <trkpt lat="39.3005830" lon="-0.7766580">
        <ele>708.0</ele>
        <time>2018-09-16T10:14:32Z</time>
      </trkpt>
      <trkpt lat="39.3006080" lon="-0.7766370">
        <ele>708.0</ele>
        <time>2018-09-16T10:14:33Z</time>
      </trkpt>
      <trkpt lat="39.3006220" lon="-0.7766250">
        <ele>708.0</ele>
        <time>2018-09-16T10:14:34Z</time>
      </trkpt>
      <trkpt lat="39.3006220" lon="-0.7766250">
        <ele>709.0</ele>
        <time>2018-09-16T10:14:35Z</time>
      </trkpt>
      <trkpt lat="39.3006470" lon="-0.7766070">
        <ele>709.0</ele>
        <time>2018-09-16T10:14:36Z</time>
      </trkpt>
      <trkpt lat="39.3006600" lon="-0.7765980">
        <ele>709.0</ele>
        <time>2018-09-16T10:14:37Z</time>
      </trkpt>
      <trkpt lat="39.3006600" lon="-0.7765980">
        <ele>709.0</ele>
        <time>2018-09-16T10:14:38Z</time>
      </trkpt>
      <trkpt lat="39.3006850" lon="-0.7765850">
        <ele>709.0</ele>
        <time>2018-09-16T10:14:39Z</time>
      </trkpt>
      <trkpt lat="39.3006850" lon="-0.7765850">
        <ele>710.0</ele>
        <time>2018-09-16T10:14:40Z</time>
      </trkpt>
      <trkpt lat="39.3007130" lon="-0.7765770">
        <ele>710.0</ele>
        <time>2018-09-16T10:14:41Z</time>
      </trkpt>
      <trkpt lat="39.3007130" lon="-0.7765770">
        <ele>710.0</ele>
        <time>2018-09-16T10:14:42Z</time>
      </trkpt>
      <trkpt lat="39.3007430" lon="-0.7765650">
        <ele>710.0</ele>
        <time>2018-09-16T10:14:43Z</time>
      </trkpt>
      <trkpt lat="39.3007430" lon="-0.7765650">
        <ele>710.0</ele>
        <time>2018-09-16T10:14:44Z</time>
      </trkpt>
      <trkpt lat="39.3007700" lon="-0.7765520">
        <ele>710.0</ele>
        <time>2018-09-16T10:14:45Z</time>
      </trkpt>
      <trkpt lat="39.3007850" lon="-0.7765450">
        <ele>711.0</ele>
        <time>2018-09-16T10:14:46Z</time>
      </trkpt>
      <trkpt lat="39.3007850" lon="-0.7765450">
        <ele>711.0</ele>
        <time>2018-09-16T10:14:47Z</time>
      </trkpt>
      <trkpt lat="39.3008180" lon="-0.7765320">
        <ele>711.0</ele>
        <time>2018-09-16T10:14:48Z</time>
      </trkpt>
      <trkpt lat="39.3008330" lon="-0.7765250">
        <ele>711.0</ele>
        <time>2018-09-16T10:14:49Z</time>
      </trkpt>
      <trkpt lat="39.3008330" lon="-0.7765250">
        <ele>711.0</ele>
        <time>2018-09-16T10:14:50Z</time>
      </trkpt>
      <trkpt lat="39.3008630" lon="-0.7765150">
        <ele>711.0</ele>
        <time>2018-09-16T10:14:51Z</time>
      </trkpt>
      <trkpt lat="39.3008630" lon="-0.7765150">
        <ele>712.0</ele>
        <time>2018-09-16T10:14:52Z</time>
      </trkpt>
      <trkpt lat="39.3008900" lon="-0.7765080">
        <ele>712.0</ele>
        <time>2018-09-16T10:14:53Z</time>
      </trkpt>
      <trkpt lat="39.3008900" lon="-0.7765080">
        <ele>712.0</ele>
        <time>2018-09-16T10:14:54Z</time>
      </trkpt>
      <trkpt lat="39.3009170" lon="-0.7765020">
        <ele>712.0</ele>
        <time>2018-09-16T10:14:55Z</time>
      </trkpt>
      <trkpt lat="39.3009170" lon="-0.7765020">
        <ele>712.0</ele>
        <time>2018-09-16T10:14:56Z</time>
      </trkpt>
      <trkpt lat="39.3009450" lon="-0.7764930">
        <ele>712.0</ele>
        <time>2018-09-16T10:14:57Z</time>
      </trkpt>
      <trkpt lat="39.3009450" lon="-0.7764930">
        <ele>712.0</ele>
        <time>2018-09-16T10:14:58Z</time>
      </trkpt>
      <trkpt lat="39.3009750" lon="-0.7764920">
        <ele>712.0</ele>
        <time>2018-09-16T10:14:59Z</time>
      </trkpt>
      <trkpt lat="39.3009750" lon="-0.7764920">
        <ele>712.0</ele>
        <time>2018-09-16T10:15:00Z</time>
      </trkpt>
      <trkpt lat="39.3010070" lon="-0.7764920">
        <ele>712.0</ele>
        <time>2018-09-16T10:15:01Z</time>
      </trkpt>
      <trkpt lat="39.3010070" lon="-0.7764920">
        <ele>713.0</ele>
        <time>2018-09-16T10:15:02Z</time>
      </trkpt>
      <trkpt lat="39.3010430" lon="-0.7764970">
        <ele>713.0</ele>
        <time>2018-09-16T10:15:03Z</time>
      </trkpt>
      <trkpt lat="39.3010430" lon="-0.7764970">
        <ele>713.0</ele>
        <time>2018-09-16T10:15:04Z</time>
      </trkpt>
      <trkpt lat="39.3010780" lon="-0.7765100">
        <ele>713.0</ele>
        <time>2018-09-16T10:15:05Z</time>
      </trkpt>
      <trkpt lat="39.3010780" lon="-0.7765100">
        <ele>713.0</ele>
        <time>2018-09-16T10:15:06Z</time>
      </trkpt>
      <trkpt lat="39.3011130" lon="-0.7765220">
        <ele>713.0</ele>
        <time>2018-09-16T10:15:07Z</time>
      </trkpt>
      <trkpt lat="39.3011130" lon="-0.7765220">
        <ele>713.0</ele>
        <time>2018-09-16T10:15:08Z</time>
      </trkpt>
      <trkpt lat="39.3011480" lon="-0.7765430">
        <ele>714.0</ele>
        <time>2018-09-16T10:15:09Z</time>
      </trkpt>
      <trkpt lat="39.3011480" lon="-0.7765430">
        <ele>714.0</ele>
        <time>2018-09-16T10:15:10Z</time>
      </trkpt>
      <trkpt lat="39.3011720" lon="-0.7765680">
        <ele>714.0</ele>
        <time>2018-09-16T10:15:11Z</time>
      </trkpt>
      <trkpt lat="39.3011720" lon="-0.7765680">
        <ele>714.0</ele>
        <time>2018-09-16T10:15:12Z</time>
      </trkpt>
      <trkpt lat="39.3012020" lon="-0.7765970">
        <ele>714.0</ele>
        <time>2018-09-16T10:15:13Z</time>
      </trkpt>
      <trkpt lat="39.3012020" lon="-0.7765970">
        <ele>714.0</ele>
        <time>2018-09-16T10:15:14Z</time>
      </trkpt>
      <trkpt lat="39.3012350" lon="-0.7766270">
        <ele>715.0</ele>
        <time>2018-09-16T10:15:15Z</time>
      </trkpt>
      <trkpt lat="39.3012350" lon="-0.7766270">
        <ele>715.0</ele>
        <time>2018-09-16T10:15:16Z</time>
      </trkpt>
      <trkpt lat="39.3012670" lon="-0.7766620">
        <ele>715.0</ele>
        <time>2018-09-16T10:15:17Z</time>
      </trkpt>
      <trkpt lat="39.3012670" lon="-0.7766620">
        <ele>715.0</ele>
        <time>2018-09-16T10:15:18Z</time>
      </trkpt>
      <trkpt lat="39.3013050" lon="-0.7766900">
        <ele>715.0</ele>
        <time>2018-09-16T10:15:19Z</time>
      </trkpt>
      <trkpt lat="39.3013050" lon="-0.7766900">
        <ele>715.0</ele>
        <time>2018-09-16T10:15:20Z</time>
      </trkpt>
      <trkpt lat="39.3013400" lon="-0.7767250">
        <ele>715.0</ele>
        <time>2018-09-16T10:15:21Z</time>
      </trkpt>
      <trkpt lat="39.3013550" lon="-0.7767400">
        <ele>716.0</ele>
        <time>2018-09-16T10:15:22Z</time>
      </trkpt>
      <trkpt lat="39.3013700" lon="-0.7767550">
        <ele>716.0</ele>
        <time>2018-09-16T10:15:23Z</time>
      </trkpt>
      <trkpt lat="39.3013700" lon="-0.7767550">
        <ele>716.0</ele>
        <time>2018-09-16T10:15:24Z</time>
      </trkpt>
      <trkpt lat="39.3014100" lon="-0.7767870">
        <ele>716.0</ele>
        <time>2018-09-16T10:15:25Z</time>
      </trkpt>
      <trkpt lat="39.3014100" lon="-0.7767870">
        <ele>716.0</ele>
        <time>2018-09-16T10:15:26Z</time>
      </trkpt>
      <trkpt lat="39.3014430" lon="-0.7768150">
        <ele>716.0</ele>
        <time>2018-09-16T10:15:27Z</time>
      </trkpt>
      <trkpt lat="39.3014430" lon="-0.7768150">
        <ele>716.0</ele>
        <time>2018-09-16T10:15:28Z</time>
      </trkpt>
      <trkpt lat="39.3014850" lon="-0.7768380">
        <ele>716.0</ele>
        <time>2018-09-16T10:15:29Z</time>
      </trkpt>
      <trkpt lat="39.3014850" lon="-0.7768380">
        <ele>716.0</ele>
        <time>2018-09-16T10:15:30Z</time>
      </trkpt>
      <trkpt lat="39.3015320" lon="-0.7768630">
        <ele>716.0</ele>
        <time>2018-09-16T10:15:31Z</time>
      </trkpt>
      <trkpt lat="39.3015320" lon="-0.7768630">
        <ele>716.0</ele>
        <time>2018-09-16T10:15:32Z</time>
      </trkpt>
      <trkpt lat="39.3015750" lon="-0.7768880">
        <ele>717.0</ele>
        <time>2018-09-16T10:15:33Z</time>
      </trkpt>
      <trkpt lat="39.3015970" lon="-0.7769000">
        <ele>717.0</ele>
        <time>2018-09-16T10:15:34Z</time>
      </trkpt>
      <trkpt lat="39.3015970" lon="-0.7769000">
        <ele>717.0</ele>
        <time>2018-09-16T10:15:35Z</time>
      </trkpt>
      <trkpt lat="39.3016400" lon="-0.7769230">
        <ele>717.0</ele>
        <time>2018-09-16T10:15:36Z</time>
      </trkpt>
      <trkpt lat="39.3016650" lon="-0.7769400">
        <ele>717.0</ele>
        <time>2018-09-16T10:15:37Z</time>
      </trkpt>
      <trkpt lat="39.3016650" lon="-0.7769400">
        <ele>717.0</ele>
        <time>2018-09-16T10:15:38Z</time>
      </trkpt>
      <trkpt lat="39.3017070" lon="-0.7769670">
        <ele>718.0</ele>
        <time>2018-09-16T10:15:39Z</time>
      </trkpt>
      <trkpt lat="39.3017300" lon="-0.7769800">
        <ele>718.0</ele>
        <time>2018-09-16T10:15:40Z</time>
      </trkpt>
      <trkpt lat="39.3017530" lon="-0.7769930">
        <ele>718.0</ele>
        <time>2018-09-16T10:15:41Z</time>
      </trkpt>
      <trkpt lat="39.3017750" lon="-0.7770050">
        <ele>718.0</ele>
        <time>2018-09-16T10:15:42Z</time>
      </trkpt>
      <trkpt lat="39.3017750" lon="-0.7770050">
        <ele>718.0</ele>
        <time>2018-09-16T10:15:43Z</time>
      </trkpt>
      <trkpt lat="39.3018120" lon="-0.7770220">
        <ele>718.0</ele>
        <time>2018-09-16T10:15:44Z</time>
      </trkpt>
      <trkpt lat="39.3018120" lon="-0.7770220">
        <ele>718.0</ele>
        <time>2018-09-16T10:15:45Z</time>
      </trkpt>
      <trkpt lat="39.3018550" lon="-0.7770350">
        <ele>718.0</ele>
        <time>2018-09-16T10:15:46Z</time>
      </trkpt>
      <trkpt lat="39.3018550" lon="-0.7770350">
        <ele>719.0</ele>
        <time>2018-09-16T10:15:47Z</time>
      </trkpt>
      <trkpt lat="39.3018970" lon="-0.7770500">
        <ele>719.0</ele>
        <time>2018-09-16T10:15:48Z</time>
      </trkpt>
      <trkpt lat="39.3019180" lon="-0.7770570">
        <ele>719.0</ele>
        <time>2018-09-16T10:15:49Z</time>
      </trkpt>
      <trkpt lat="39.3019400" lon="-0.7770620">
        <ele>719.0</ele>
        <time>2018-09-16T10:15:50Z</time>
      </trkpt>
      <trkpt lat="39.3019400" lon="-0.7770620">
        <ele>719.0</ele>
        <time>2018-09-16T10:15:51Z</time>
      </trkpt>
      <trkpt lat="39.3019830" lon="-0.7770700">
        <ele>719.0</ele>
        <time>2018-09-16T10:15:52Z</time>
      </trkpt>
      <trkpt lat="39.3019830" lon="-0.7770700">
        <ele>720.0</ele>
        <time>2018-09-16T10:15:53Z</time>
      </trkpt>
      <trkpt lat="39.3020270" lon="-0.7770770">
        <ele>720.0</ele>
        <time>2018-09-16T10:15:54Z</time>
      </trkpt>
      <trkpt lat="39.3020500" lon="-0.7770800">
        <ele>720.0</ele>
        <time>2018-09-16T10:15:55Z</time>
      </trkpt>
      <trkpt lat="39.3020500" lon="-0.7770800">
        <ele>720.0</ele>
        <time>2018-09-16T10:15:56Z</time>
      </trkpt>
      <trkpt lat="39.3020950" lon="-0.7770800">
        <ele>720.0</ele>
        <time>2018-09-16T10:15:57Z</time>
      </trkpt>
      <trkpt lat="39.3020950" lon="-0.7770800">
        <ele>720.0</ele>
        <time>2018-09-16T10:15:58Z</time>
      </trkpt>
      <trkpt lat="39.3021350" lon="-0.7770650">
        <ele>720.0</ele>
        <time>2018-09-16T10:15:59Z</time>
      </trkpt>
      <trkpt lat="39.3021520" lon="-0.7770510">
        <ele>720.0</ele>
        <time>2018-09-16T10:16:00Z</time>
      </trkpt>
      <trkpt lat="39.3021680" lon="-0.7770370">
        <ele>720.0</ele>
        <time>2018-09-16T10:16:01Z</time>
      </trkpt>
      <trkpt lat="39.3021680" lon="-0.7770370">
        <ele>720.0</ele>
        <time>2018-09-16T10:16:02Z</time>
      </trkpt>
      <trkpt lat="39.3021950" lon="-0.7769900">
        <ele>720.0</ele>
        <time>2018-09-16T10:16:03Z</time>
      </trkpt>
      <trkpt lat="39.3021950" lon="-0.7769900">
        <ele>720.0</ele>
        <time>2018-09-16T10:16:04Z</time>
      </trkpt>
      <trkpt lat="39.3022020" lon="-0.7769370">
        <ele>720.0</ele>
        <time>2018-09-16T10:16:05Z</time>
      </trkpt>
      <trkpt lat="39.3022000" lon="-0.7769080">
        <ele>720.0</ele>
        <time>2018-09-16T10:16:06Z</time>
      </trkpt>
      <trkpt lat="39.3021950" lon="-0.7768820">
        <ele>720.0</ele>
        <time>2018-09-16T10:16:07Z</time>
      </trkpt>
      <trkpt lat="39.3021950" lon="-0.7768820">
        <ele>720.0</ele>
        <time>2018-09-16T10:16:08Z</time>
      </trkpt>
      <trkpt lat="39.3021820" lon="-0.7768280">
        <ele>720.0</ele>
        <time>2018-09-16T10:16:09Z</time>
      </trkpt>
      <trkpt lat="39.3021820" lon="-0.7768280">
        <ele>720.0</ele>
        <time>2018-09-16T10:16:10Z</time>
      </trkpt>
      <trkpt lat="39.3021650" lon="-0.7767800">
        <ele>720.0</ele>
        <time>2018-09-16T10:16:11Z</time>
      </trkpt>
      <trkpt lat="39.3021650" lon="-0.7767800">
        <ele>720.0</ele>
        <time>2018-09-16T10:16:12Z</time>
      </trkpt>
      <trkpt lat="39.3021450" lon="-0.7767250">
        <ele>721.0</ele>
        <time>2018-09-16T10:16:13Z</time>
      </trkpt>
      <trkpt lat="39.3021450" lon="-0.7767250">
        <ele>721.0</ele>
        <time>2018-09-16T10:16:14Z</time>
      </trkpt>
      <trkpt lat="39.3021220" lon="-0.7766630">
        <ele>721.0</ele>
        <time>2018-09-16T10:16:15Z</time>
      </trkpt>
      <trkpt lat="39.3021220" lon="-0.7766630">
        <ele>721.0</ele>
        <time>2018-09-16T10:16:16Z</time>
      </trkpt>
      <trkpt lat="39.3021130" lon="-0.7766030">
        <ele>721.0</ele>
        <time>2018-09-16T10:16:17Z</time>
      </trkpt>
      <trkpt lat="39.3021100" lon="-0.7765730">
        <ele>721.0</ele>
        <time>2018-09-16T10:16:18Z</time>
      </trkpt>
      <trkpt lat="39.3021100" lon="-0.7765730">
        <ele>721.0</ele>
        <time>2018-09-16T10:16:19Z</time>
      </trkpt>
      <trkpt lat="39.3021130" lon="-0.7765150">
        <ele>721.0</ele>
        <time>2018-09-16T10:16:20Z</time>
      </trkpt>
      <trkpt lat="39.3021130" lon="-0.7765150">
        <ele>721.0</ele>
        <time>2018-09-16T10:16:21Z</time>
      </trkpt>
      <trkpt lat="39.3021300" lon="-0.7764620">
        <ele>721.0</ele>
        <time>2018-09-16T10:16:22Z</time>
      </trkpt>
      <trkpt lat="39.3021380" lon="-0.7764380">
        <ele>722.0</ele>
        <time>2018-09-16T10:16:23Z</time>
      </trkpt>
      <trkpt lat="39.3021380" lon="-0.7764380">
        <ele>722.0</ele>
        <time>2018-09-16T10:16:24Z</time>
      </trkpt>
      <trkpt lat="39.3021670" lon="-0.7763930">
        <ele>722.0</ele>
        <time>2018-09-16T10:16:25Z</time>
      </trkpt>
      <trkpt lat="39.3021670" lon="-0.7763930">
        <ele>722.0</ele>
        <time>2018-09-16T10:16:26Z</time>
      </trkpt>
      <trkpt lat="39.3021980" lon="-0.7763630">
        <ele>722.0</ele>
        <time>2018-09-16T10:16:27Z</time>
      </trkpt>
      <trkpt lat="39.3021980" lon="-0.7763630">
        <ele>723.0</ele>
        <time>2018-09-16T10:16:28Z</time>
      </trkpt>
      <trkpt lat="39.3022270" lon="-0.7763420">
        <ele>723.0</ele>
        <time>2018-09-16T10:16:29Z</time>
      </trkpt>
      <trkpt lat="39.3022390" lon="-0.7763280">
        <ele>723.0</ele>
        <time>2018-09-16T10:16:30Z</time>
      </trkpt>
      <trkpt lat="39.3022500" lon="-0.7763130">
        <ele>723.0</ele>
        <time>2018-09-16T10:16:31Z</time>
      </trkpt>
      <trkpt lat="39.3022500" lon="-0.7763130">
        <ele>723.0</ele>
        <time>2018-09-16T10:16:32Z</time>
      </trkpt>
      <trkpt lat="39.3022700" lon="-0.7762780">
        <ele>723.0</ele>
        <time>2018-09-16T10:16:33Z</time>
      </trkpt>
      <trkpt lat="39.3022700" lon="-0.7762780">
        <ele>723.0</ele>
        <time>2018-09-16T10:16:34Z</time>
      </trkpt>
      <trkpt lat="39.3022830" lon="-0.7762420">
        <ele>723.0</ele>
        <time>2018-09-16T10:16:35Z</time>
      </trkpt>
      <trkpt lat="39.3022830" lon="-0.7762420">
        <ele>723.0</ele>
        <time>2018-09-16T10:16:36Z</time>
      </trkpt>
      <trkpt lat="39.3022970" lon="-0.7761970">
        <ele>723.0</ele>
        <time>2018-09-16T10:16:37Z</time>
      </trkpt>
      <trkpt lat="39.3023020" lon="-0.7761720">
        <ele>723.0</ele>
        <time>2018-09-16T10:16:38Z</time>
      </trkpt>
      <trkpt lat="39.3023020" lon="-0.7761720">
        <ele>723.0</ele>
        <time>2018-09-16T10:16:39Z</time>
      </trkpt>
      <trkpt lat="39.3023000" lon="-0.7761170">
        <ele>724.0</ele>
        <time>2018-09-16T10:16:40Z</time>
      </trkpt>
      <trkpt lat="39.3023000" lon="-0.7761170">
        <ele>724.0</ele>
        <time>2018-09-16T10:16:41Z</time>
      </trkpt>
      <trkpt lat="39.3022920" lon="-0.7760670">
        <ele>724.0</ele>
        <time>2018-09-16T10:16:42Z</time>
      </trkpt>
      <trkpt lat="39.3022830" lon="-0.7760380">
        <ele>724.0</ele>
        <time>2018-09-16T10:16:43Z</time>
      </trkpt>
      <trkpt lat="39.3022830" lon="-0.7760380">
        <ele>724.0</ele>
        <time>2018-09-16T10:16:44Z</time>
      </trkpt>
      <trkpt lat="39.3022600" lon="-0.7759970">
        <ele>724.0</ele>
        <time>2018-09-16T10:16:45Z</time>
      </trkpt>
      <trkpt lat="39.3022600" lon="-0.7759970">
        <ele>724.0</ele>
        <time>2018-09-16T10:16:46Z</time>
      </trkpt>
      <trkpt lat="39.3022380" lon="-0.7759620">
        <ele>724.0</ele>
        <time>2018-09-16T10:16:47Z</time>
      </trkpt>
      <trkpt lat="39.3022250" lon="-0.7759430">
        <ele>724.0</ele>
        <time>2018-09-16T10:16:48Z</time>
      </trkpt>
      <trkpt lat="39.3022120" lon="-0.7759250">
        <ele>724.0</ele>
        <time>2018-09-16T10:16:49Z</time>
      </trkpt>
      <trkpt lat="39.3022120" lon="-0.7759250">
        <ele>724.0</ele>
        <time>2018-09-16T10:16:50Z</time>
      </trkpt>
      <trkpt lat="39.3021800" lon="-0.7758920">
        <ele>724.0</ele>
        <time>2018-09-16T10:16:51Z</time>
      </trkpt>
      <trkpt lat="39.3021800" lon="-0.7758920">
        <ele>724.0</ele>
        <time>2018-09-16T10:16:52Z</time>
      </trkpt>
      <trkpt lat="39.3021450" lon="-0.7758580">
        <ele>724.0</ele>
        <time>2018-09-16T10:16:53Z</time>
      </trkpt>
      <trkpt lat="39.3021450" lon="-0.7758580">
        <ele>724.0</ele>
        <time>2018-09-16T10:16:54Z</time>
      </trkpt>
      <trkpt lat="39.3021130" lon="-0.7758170">
        <ele>724.0</ele>
        <time>2018-09-16T10:16:55Z</time>
      </trkpt>
      <trkpt lat="39.3021130" lon="-0.7758170">
        <ele>724.0</ele>
        <time>2018-09-16T10:16:56Z</time>
      </trkpt>
      <trkpt lat="39.3020800" lon="-0.7757780">
        <ele>724.0</ele>
        <time>2018-09-16T10:16:57Z</time>
      </trkpt>
      <trkpt lat="39.3020800" lon="-0.7757780">
        <ele>724.0</ele>
        <time>2018-09-16T10:16:58Z</time>
      </trkpt>
      <trkpt lat="39.3020450" lon="-0.7757400">
        <ele>724.0</ele>
        <time>2018-09-16T10:16:59Z</time>
      </trkpt>
      <trkpt lat="39.3020270" lon="-0.7757200">
        <ele>724.0</ele>
        <time>2018-09-16T10:17:00Z</time>
      </trkpt>
      <trkpt lat="39.3020080" lon="-0.7757000">
        <ele>724.0</ele>
        <time>2018-09-16T10:17:01Z</time>
      </trkpt>
      <trkpt lat="39.3020080" lon="-0.7757000">
        <ele>724.0</ele>
        <time>2018-09-16T10:17:02Z</time>
      </trkpt>
      <trkpt lat="39.3019770" lon="-0.7756550">
        <ele>724.0</ele>
        <time>2018-09-16T10:17:03Z</time>
      </trkpt>
      <trkpt lat="39.3019770" lon="-0.7756550">
        <ele>724.0</ele>
        <time>2018-09-16T10:17:04Z</time>
      </trkpt>
      <trkpt lat="39.3019550" lon="-0.7756070">
        <ele>724.0</ele>
        <time>2018-09-16T10:17:05Z</time>
      </trkpt>
      <trkpt lat="39.3019550" lon="-0.7756070">
        <ele>724.0</ele>
        <time>2018-09-16T10:17:06Z</time>
      </trkpt>
      <trkpt lat="39.3019470" lon="-0.7755620">
        <ele>724.0</ele>
        <time>2018-09-16T10:17:07Z</time>
      </trkpt>
      <trkpt lat="39.3019470" lon="-0.7755620">
        <ele>724.0</ele>
        <time>2018-09-16T10:17:08Z</time>
      </trkpt>
      <trkpt lat="39.3019430" lon="-0.7755230">
        <ele>725.0</ele>
        <time>2018-09-16T10:17:09Z</time>
      </trkpt>
      <trkpt lat="39.3019430" lon="-0.7755230">
        <ele>725.0</ele>
        <time>2018-09-16T10:17:10Z</time>
      </trkpt>
      <trkpt lat="39.3019480" lon="-0.7754870">
        <ele>725.0</ele>
        <time>2018-09-16T10:17:11Z</time>
      </trkpt>
      <trkpt lat="39.3019480" lon="-0.7754870">
        <ele>725.0</ele>
        <time>2018-09-16T10:17:12Z</time>
      </trkpt>
      <trkpt lat="39.3019550" lon="-0.7754450">
        <ele>725.0</ele>
        <time>2018-09-16T10:17:13Z</time>
      </trkpt>
      <trkpt lat="39.3019550" lon="-0.7754450">
        <ele>725.0</ele>
        <time>2018-09-16T10:17:14Z</time>
      </trkpt>
      <trkpt lat="39.3019670" lon="-0.7754080">
        <ele>725.0</ele>
        <time>2018-09-16T10:17:15Z</time>
      </trkpt>
      <trkpt lat="39.3019670" lon="-0.7754080">
        <ele>725.0</ele>
        <time>2018-09-16T10:17:16Z</time>
      </trkpt>
      <trkpt lat="39.3019770" lon="-0.7753720">
        <ele>726.0</ele>
        <time>2018-09-16T10:17:17Z</time>
      </trkpt>
      <trkpt lat="39.3019770" lon="-0.7753720">
        <ele>726.0</ele>
        <time>2018-09-16T10:17:18Z</time>
      </trkpt>
      <trkpt lat="39.3019870" lon="-0.7753370">
        <ele>726.0</ele>
        <time>2018-09-16T10:17:19Z</time>
      </trkpt>
      <trkpt lat="39.3019900" lon="-0.7753170">
        <ele>726.0</ele>
        <time>2018-09-16T10:17:20Z</time>
      </trkpt>
      <trkpt lat="39.3019900" lon="-0.7753170">
        <ele>726.0</ele>
        <time>2018-09-16T10:17:21Z</time>
      </trkpt>
      <trkpt lat="39.3019970" lon="-0.7752800">
        <ele>727.0</ele>
        <time>2018-09-16T10:17:22Z</time>
      </trkpt>
      <trkpt lat="39.3019970" lon="-0.7752800">
        <ele>727.0</ele>
        <time>2018-09-16T10:17:23Z</time>
      </trkpt>
      <trkpt lat="39.3020020" lon="-0.7752380">
        <ele>727.0</ele>
        <time>2018-09-16T10:17:24Z</time>
      </trkpt>
      <trkpt lat="39.3020020" lon="-0.7752380">
        <ele>727.0</ele>
        <time>2018-09-16T10:17:25Z</time>
      </trkpt>
      <trkpt lat="39.3020080" lon="-0.7751970">
        <ele>728.0</ele>
        <time>2018-09-16T10:17:26Z</time>
      </trkpt>
      <trkpt lat="39.3020080" lon="-0.7751970">
        <ele>728.0</ele>
        <time>2018-09-16T10:17:27Z</time>
      </trkpt>
      <trkpt lat="39.3020170" lon="-0.7751580">
        <ele>728.0</ele>
        <time>2018-09-16T10:17:28Z</time>
      </trkpt>
      <trkpt lat="39.3020170" lon="-0.7751580">
        <ele>728.0</ele>
        <time>2018-09-16T10:17:29Z</time>
      </trkpt>
      <trkpt lat="39.3020230" lon="-0.7751270">
        <ele>729.0</ele>
        <time>2018-09-16T10:17:30Z</time>
      </trkpt>
      <trkpt lat="39.3020280" lon="-0.7751130">
        <ele>729.0</ele>
        <time>2018-09-16T10:17:31Z</time>
      </trkpt>
      <trkpt lat="39.3020280" lon="-0.7751130">
        <ele>729.0</ele>
        <time>2018-09-16T10:17:32Z</time>
      </trkpt>
      <trkpt lat="39.3020420" lon="-0.7750870">
        <ele>729.0</ele>
        <time>2018-09-16T10:17:33Z</time>
      </trkpt>
      <trkpt lat="39.3020420" lon="-0.7750870">
        <ele>729.0</ele>
        <time>2018-09-16T10:17:34Z</time>
      </trkpt>
      <trkpt lat="39.3020580" lon="-0.7750620">
        <ele>729.0</ele>
        <time>2018-09-16T10:17:35Z</time>
      </trkpt>
      <trkpt lat="39.3020580" lon="-0.7750620">
        <ele>729.0</ele>
        <time>2018-09-16T10:17:36Z</time>
      </trkpt>
      <trkpt lat="39.3020770" lon="-0.7750350">
        <ele>729.0</ele>
        <time>2018-09-16T10:17:37Z</time>
      </trkpt>
      <trkpt lat="39.3020770" lon="-0.7750350">
        <ele>729.0</ele>
        <time>2018-09-16T10:17:38Z</time>
      </trkpt>
      <trkpt lat="39.3021020" lon="-0.7750130">
        <ele>729.0</ele>
        <time>2018-09-16T10:17:39Z</time>
      </trkpt>
      <trkpt lat="39.3021020" lon="-0.7750130">
        <ele>729.0</ele>
        <time>2018-09-16T10:17:40Z</time>
      </trkpt>
      <trkpt lat="39.3021300" lon="-0.7750000">
        <ele>730.0</ele>
        <time>2018-09-16T10:17:41Z</time>
      </trkpt>
      <trkpt lat="39.3021430" lon="-0.7749920">
        <ele>730.0</ele>
        <time>2018-09-16T10:17:42Z</time>
      </trkpt>
      <trkpt lat="39.3021430" lon="-0.7749920">
        <ele>730.0</ele>
        <time>2018-09-16T10:17:43Z</time>
      </trkpt>
      <trkpt lat="39.3021700" lon="-0.7749720">
        <ele>730.0</ele>
        <time>2018-09-16T10:17:44Z</time>
      </trkpt>
      <trkpt lat="39.3021700" lon="-0.7749720">
        <ele>730.0</ele>
        <time>2018-09-16T10:17:45Z</time>
      </trkpt>
      <trkpt lat="39.3021950" lon="-0.7749520">
        <ele>731.0</ele>
        <time>2018-09-16T10:17:46Z</time>
      </trkpt>
      <trkpt lat="39.3022070" lon="-0.7749420">
        <ele>731.0</ele>
        <time>2018-09-16T10:17:47Z</time>
      </trkpt>
      <trkpt lat="39.3022180" lon="-0.7749300">
        <ele>731.0</ele>
        <time>2018-09-16T10:17:48Z</time>
      </trkpt>
      <trkpt lat="39.3022180" lon="-0.7749300">
        <ele>731.0</ele>
        <time>2018-09-16T10:17:49Z</time>
      </trkpt>
      <trkpt lat="39.3022400" lon="-0.7749070">
        <ele>731.0</ele>
        <time>2018-09-16T10:17:50Z</time>
      </trkpt>
      <trkpt lat="39.3022520" lon="-0.7748950">
        <ele>731.0</ele>
        <time>2018-09-16T10:17:51Z</time>
      </trkpt>
      <trkpt lat="39.3022630" lon="-0.7748820">
        <ele>732.0</ele>
        <time>2018-09-16T10:17:52Z</time>
      </trkpt>
      <trkpt lat="39.3022630" lon="-0.7748820">
        <ele>732.0</ele>
        <time>2018-09-16T10:17:53Z</time>
      </trkpt>
      <trkpt lat="39.3022870" lon="-0.7748580">
        <ele>732.0</ele>
        <time>2018-09-16T10:17:54Z</time>
      </trkpt>
      <trkpt lat="39.3023000" lon="-0.7748470">
        <ele>732.0</ele>
        <time>2018-09-16T10:17:55Z</time>
      </trkpt>
      <trkpt lat="39.3023000" lon="-0.7748470">
        <ele>732.0</ele>
        <time>2018-09-16T10:17:56Z</time>
      </trkpt>
      <trkpt lat="39.3023250" lon="-0.7748180">
        <ele>732.0</ele>
        <time>2018-09-16T10:17:57Z</time>
      </trkpt>
      <trkpt lat="39.3023250" lon="-0.7748180">
        <ele>732.0</ele>
        <time>2018-09-16T10:17:58Z</time>
      </trkpt>
      <trkpt lat="39.3023500" lon="-0.7747880">
        <ele>732.0</ele>
        <time>2018-09-16T10:17:59Z</time>
      </trkpt>
      <trkpt lat="39.3023500" lon="-0.7747880">
        <ele>733.0</ele>
        <time>2018-09-16T10:18:00Z</time>
      </trkpt>
      <trkpt lat="39.3023680" lon="-0.7747530">
        <ele>733.0</ele>
        <time>2018-09-16T10:18:01Z</time>
      </trkpt>
      <trkpt lat="39.3023680" lon="-0.7747530">
        <ele>733.0</ele>
        <time>2018-09-16T10:18:02Z</time>
      </trkpt>
      <trkpt lat="39.3023880" lon="-0.7747230">
        <ele>733.0</ele>
        <time>2018-09-16T10:18:03Z</time>
      </trkpt>
      <trkpt lat="39.3023970" lon="-0.7747080">
        <ele>733.0</ele>
        <time>2018-09-16T10:18:04Z</time>
      </trkpt>
      <trkpt lat="39.3024050" lon="-0.7746950">
        <ele>733.0</ele>
        <time>2018-09-16T10:18:05Z</time>
      </trkpt>
      <trkpt lat="39.3024050" lon="-0.7746950">
        <ele>733.0</ele>
        <time>2018-09-16T10:18:06Z</time>
      </trkpt>
      <trkpt lat="39.3024250" lon="-0.7746650">
        <ele>733.0</ele>
        <time>2018-09-16T10:18:07Z</time>
      </trkpt>
      <trkpt lat="39.3024250" lon="-0.7746650">
        <ele>734.0</ele>
        <time>2018-09-16T10:18:08Z</time>
      </trkpt>
      <trkpt lat="39.3024470" lon="-0.7746320">
        <ele>734.0</ele>
        <time>2018-09-16T10:18:09Z</time>
      </trkpt>
      <trkpt lat="39.3024470" lon="-0.7746320">
        <ele>734.0</ele>
        <time>2018-09-16T10:18:10Z</time>
      </trkpt>
      <trkpt lat="39.3024700" lon="-0.7746050">
        <ele>734.0</ele>
        <time>2018-09-16T10:18:11Z</time>
      </trkpt>
      <trkpt lat="39.3024780" lon="-0.7745930">
        <ele>734.0</ele>
        <time>2018-09-16T10:18:12Z</time>
      </trkpt>
      <trkpt lat="39.3024780" lon="-0.7745930">
        <ele>734.0</ele>
        <time>2018-09-16T10:18:13Z</time>
      </trkpt>
      <trkpt lat="39.3024950" lon="-0.7745630">
        <ele>734.0</ele>
        <time>2018-09-16T10:18:14Z</time>
      </trkpt>
      <trkpt lat="39.3024950" lon="-0.7745630">
        <ele>735.0</ele>
        <time>2018-09-16T10:18:15Z</time>
      </trkpt>
      <trkpt lat="39.3025070" lon="-0.7745330">
        <ele>735.0</ele>
        <time>2018-09-16T10:18:16Z</time>
      </trkpt>
      <trkpt lat="39.3025070" lon="-0.7745330">
        <ele>735.0</ele>
        <time>2018-09-16T10:18:17Z</time>
      </trkpt>
      <trkpt lat="39.3025230" lon="-0.7744980">
        <ele>735.0</ele>
        <time>2018-09-16T10:18:18Z</time>
      </trkpt>
      <trkpt lat="39.3025230" lon="-0.7744980">
        <ele>735.0</ele>
        <time>2018-09-16T10:18:19Z</time>
      </trkpt>
      <trkpt lat="39.3025370" lon="-0.7744700">
        <ele>735.0</ele>
        <time>2018-09-16T10:18:20Z</time>
      </trkpt>
      <trkpt lat="39.3025420" lon="-0.7744520">
        <ele>735.0</ele>
        <time>2018-09-16T10:18:21Z</time>
      </trkpt>
      <trkpt lat="39.3025420" lon="-0.7744520">
        <ele>735.0</ele>
        <time>2018-09-16T10:18:22Z</time>
      </trkpt>
      <trkpt lat="39.3025500" lon="-0.7744200">
        <ele>735.0</ele>
        <time>2018-09-16T10:18:23Z</time>
      </trkpt>
      <trkpt lat="39.3025500" lon="-0.7744200">
        <ele>735.0</ele>
        <time>2018-09-16T10:18:24Z</time>
      </trkpt>
      <trkpt lat="39.3025650" lon="-0.7743870">
        <ele>735.0</ele>
        <time>2018-09-16T10:18:25Z</time>
      </trkpt>
      <trkpt lat="39.3025650" lon="-0.7743870">
        <ele>735.0</ele>
        <time>2018-09-16T10:18:26Z</time>
      </trkpt>
      <trkpt lat="39.3025770" lon="-0.7743550">
        <ele>735.0</ele>
        <time>2018-09-16T10:18:27Z</time>
      </trkpt>
      <trkpt lat="39.3025770" lon="-0.7743550">
        <ele>735.0</ele>
        <time>2018-09-16T10:18:28Z</time>
      </trkpt>
      <trkpt lat="39.3025880" lon="-0.7743350">
        <ele>737.0</ele>
        <time>2018-09-16T10:18:29Z</time>
      </trkpt>
      <trkpt lat="39.3025880" lon="-0.7743350">
        <ele>737.0</ele>
        <time>2018-09-16T10:18:30Z</time>
      </trkpt>
      <trkpt lat="39.3026080" lon="-0.7743070">
        <ele>737.0</ele>
        <time>2018-09-16T10:18:31Z</time>
      </trkpt>
      <trkpt lat="39.3026080" lon="-0.7743070">
        <ele>737.0</ele>
        <time>2018-09-16T10:18:32Z</time>
      </trkpt>
      <trkpt lat="39.3026280" lon="-0.7742770">
        <ele>737.0</ele>
        <time>2018-09-16T10:18:33Z</time>
      </trkpt>
      <trkpt lat="39.3026370" lon="-0.7742620">
        <ele>737.0</ele>
        <time>2018-09-16T10:18:34Z</time>
      </trkpt>
      <trkpt lat="39.3026370" lon="-0.7742620">
        <ele>737.0</ele>
        <time>2018-09-16T10:18:35Z</time>
      </trkpt>
      <trkpt lat="39.3026570" lon="-0.7742320">
        <ele>737.0</ele>
        <time>2018-09-16T10:18:36Z</time>
      </trkpt>
      <trkpt lat="39.3026670" lon="-0.7742170">
        <ele>737.0</ele>
        <time>2018-09-16T10:18:37Z</time>
      </trkpt>
      <trkpt lat="39.3026670" lon="-0.7742170">
        <ele>738.0</ele>
        <time>2018-09-16T10:18:38Z</time>
      </trkpt>
      <trkpt lat="39.3026880" lon="-0.7741880">
        <ele>738.0</ele>
        <time>2018-09-16T10:18:39Z</time>
      </trkpt>
      <trkpt lat="39.3027020" lon="-0.7741770">
        <ele>738.0</ele>
        <time>2018-09-16T10:18:40Z</time>
      </trkpt>
      <trkpt lat="39.3027020" lon="-0.7741770">
        <ele>738.0</ele>
        <time>2018-09-16T10:18:41Z</time>
      </trkpt>
      <trkpt lat="39.3027330" lon="-0.7741480">
        <ele>738.0</ele>
        <time>2018-09-16T10:18:42Z</time>
      </trkpt>
      <trkpt lat="39.3027500" lon="-0.7741320">
        <ele>738.0</ele>
        <time>2018-09-16T10:18:43Z</time>
      </trkpt>
      <trkpt lat="39.3027630" lon="-0.7741200">
        <ele>739.0</ele>
        <time>2018-09-16T10:18:44Z</time>
      </trkpt>
      <trkpt lat="39.3027780" lon="-0.7741070">
        <ele>739.0</ele>
        <time>2018-09-16T10:18:45Z</time>
      </trkpt>
      <trkpt lat="39.3027780" lon="-0.7741070">
        <ele>739.0</ele>
        <time>2018-09-16T10:18:46Z</time>
      </trkpt>
      <trkpt lat="39.3028050" lon="-0.7740950">
        <ele>739.0</ele>
        <time>2018-09-16T10:18:47Z</time>
      </trkpt>
      <trkpt lat="39.3028050" lon="-0.7740950">
        <ele>739.0</ele>
        <time>2018-09-16T10:18:48Z</time>
      </trkpt>
      <trkpt lat="39.3028330" lon="-0.7740850">
        <ele>739.0</ele>
        <time>2018-09-16T10:18:49Z</time>
      </trkpt>
      <trkpt lat="39.3028330" lon="-0.7740850">
        <ele>740.0</ele>
        <time>2018-09-16T10:18:50Z</time>
      </trkpt>
      <trkpt lat="39.3028600" lon="-0.7740720">
        <ele>740.0</ele>
        <time>2018-09-16T10:18:51Z</time>
      </trkpt>
      <trkpt lat="39.3028720" lon="-0.7740670">
        <ele>740.0</ele>
        <time>2018-09-16T10:18:52Z</time>
      </trkpt>
      <trkpt lat="39.3028720" lon="-0.7740670">
        <ele>740.0</ele>
        <time>2018-09-16T10:18:53Z</time>
      </trkpt>
      <trkpt lat="39.3028950" lon="-0.7740580">
        <ele>740.0</ele>
        <time>2018-09-16T10:18:54Z</time>
      </trkpt>
      <trkpt lat="39.3029070" lon="-0.7740550">
        <ele>740.0</ele>
        <time>2018-09-16T10:18:55Z</time>
      </trkpt>
      <trkpt lat="39.3029070" lon="-0.7740550">
        <ele>740.0</ele>
        <time>2018-09-16T10:18:56Z</time>
      </trkpt>
      <trkpt lat="39.3029320" lon="-0.7740480">
        <ele>740.0</ele>
        <time>2018-09-16T10:18:57Z</time>
      </trkpt>
      <trkpt lat="39.3029450" lon="-0.7740450">
        <ele>740.0</ele>
        <time>2018-09-16T10:18:58Z</time>
      </trkpt>
      <trkpt lat="39.3029450" lon="-0.7740450">
        <ele>740.0</ele>
        <time>2018-09-16T10:18:59Z</time>
      </trkpt>
      <trkpt lat="39.3029730" lon="-0.7740470">
        <ele>740.0</ele>
        <time>2018-09-16T10:19:00Z</time>
      </trkpt>
      <trkpt lat="39.3029730" lon="-0.7740470">
        <ele>740.0</ele>
        <time>2018-09-16T10:19:01Z</time>
      </trkpt>
      <trkpt lat="39.3030000" lon="-0.7740480">
        <ele>741.0</ele>
        <time>2018-09-16T10:19:02Z</time>
      </trkpt>
      <trkpt lat="39.3030120" lon="-0.7740480">
        <ele>741.0</ele>
        <time>2018-09-16T10:19:03Z</time>
      </trkpt>
      <trkpt lat="39.3030250" lon="-0.7740470">
        <ele>741.0</ele>
        <time>2018-09-16T10:19:04Z</time>
      </trkpt>
      <trkpt lat="39.3030250" lon="-0.7740470">
        <ele>742.0</ele>
        <time>2018-09-16T10:19:05Z</time>
      </trkpt>
      <trkpt lat="39.3030500" lon="-0.7740470">
        <ele>742.0</ele>
        <time>2018-09-16T10:19:06Z</time>
      </trkpt>
      <trkpt lat="39.3030670" lon="-0.7740470">
        <ele>742.0</ele>
        <time>2018-09-16T10:19:07Z</time>
      </trkpt>
      <trkpt lat="39.3030670" lon="-0.7740470">
        <ele>742.0</ele>
        <time>2018-09-16T10:19:08Z</time>
      </trkpt>
      <trkpt lat="39.3030930" lon="-0.7740570">
        <ele>742.0</ele>
        <time>2018-09-16T10:19:09Z</time>
      </trkpt>
      <trkpt lat="39.3030930" lon="-0.7740570">
        <ele>742.0</ele>
        <time>2018-09-16T10:19:10Z</time>
      </trkpt>
      <trkpt lat="39.3031120" lon="-0.7740630">
        <ele>742.0</ele>
        <time>2018-09-16T10:19:11Z</time>
      </trkpt>
      <trkpt lat="39.3031120" lon="-0.7740630">
        <ele>742.0</ele>
        <time>2018-09-16T10:19:12Z</time>
      </trkpt>
      <trkpt lat="39.3031380" lon="-0.7740530">
        <ele>743.0</ele>
        <time>2018-09-16T10:19:13Z</time>
      </trkpt>
      <trkpt lat="39.3031380" lon="-0.7740530">
        <ele>743.0</ele>
        <time>2018-09-16T10:19:14Z</time>
      </trkpt>
      <trkpt lat="39.3031620" lon="-0.7740330">
        <ele>743.0</ele>
        <time>2018-09-16T10:19:15Z</time>
      </trkpt>
      <trkpt lat="39.3031620" lon="-0.7740330">
        <ele>743.0</ele>
        <time>2018-09-16T10:19:16Z</time>
      </trkpt>
      <trkpt lat="39.3031830" lon="-0.7740130">
        <ele>744.0</ele>
        <time>2018-09-16T10:19:17Z</time>
      </trkpt>
      <trkpt lat="39.3031830" lon="-0.7740130">
        <ele>744.0</ele>
        <time>2018-09-16T10:19:18Z</time>
      </trkpt>
      <trkpt lat="39.3031930" lon="-0.7739780">
        <ele>744.0</ele>
        <time>2018-09-16T10:19:19Z</time>
      </trkpt>
      <trkpt lat="39.3031930" lon="-0.7739780">
        <ele>744.0</ele>
        <time>2018-09-16T10:19:20Z</time>
      </trkpt>
      <trkpt lat="39.3032050" lon="-0.7739470">
        <ele>744.0</ele>
        <time>2018-09-16T10:19:21Z</time>
      </trkpt>
      <trkpt lat="39.3032070" lon="-0.7739250">
        <ele>744.0</ele>
        <time>2018-09-16T10:19:22Z</time>
      </trkpt>
      <trkpt lat="39.3032070" lon="-0.7739250">
        <ele>744.0</ele>
        <time>2018-09-16T10:19:23Z</time>
      </trkpt>
      <trkpt lat="39.3032050" lon="-0.7738770">
        <ele>744.0</ele>
        <time>2018-09-16T10:19:24Z</time>
      </trkpt>
      <trkpt lat="39.3032050" lon="-0.7738770">
        <ele>745.0</ele>
        <time>2018-09-16T10:19:25Z</time>
      </trkpt>
      <trkpt lat="39.3032030" lon="-0.7738400">
        <ele>745.0</ele>
        <time>2018-09-16T10:19:26Z</time>
      </trkpt>
      <trkpt lat="39.3032030" lon="-0.7738400">
        <ele>745.0</ele>
        <time>2018-09-16T10:19:27Z</time>
      </trkpt>
      <trkpt lat="39.3031980" lon="-0.7738030">
        <ele>745.0</ele>
        <time>2018-09-16T10:19:28Z</time>
      </trkpt>
      <trkpt lat="39.3031950" lon="-0.7737850">
        <ele>745.0</ele>
        <time>2018-09-16T10:19:29Z</time>
      </trkpt>
      <trkpt lat="39.3031950" lon="-0.7737850">
        <ele>746.0</ele>
        <time>2018-09-16T10:19:30Z</time>
      </trkpt>
      <trkpt lat="39.3031870" lon="-0.7737430">
        <ele>746.0</ele>
        <time>2018-09-16T10:19:31Z</time>
      </trkpt>
      <trkpt lat="39.3031870" lon="-0.7737430">
        <ele>746.0</ele>
        <time>2018-09-16T10:19:32Z</time>
      </trkpt>
      <trkpt lat="39.3031770" lon="-0.7737050">
        <ele>746.0</ele>
        <time>2018-09-16T10:19:33Z</time>
      </trkpt>
      <trkpt lat="39.3031770" lon="-0.7737050">
        <ele>746.0</ele>
        <time>2018-09-16T10:19:34Z</time>
      </trkpt>
      <trkpt lat="39.3031680" lon="-0.7736650">
        <ele>746.0</ele>
        <time>2018-09-16T10:19:35Z</time>
      </trkpt>
      <trkpt lat="39.3031680" lon="-0.7736650">
        <ele>746.0</ele>
        <time>2018-09-16T10:19:36Z</time>
      </trkpt>
      <trkpt lat="39.3031550" lon="-0.7736250">
        <ele>746.0</ele>
        <time>2018-09-16T10:19:37Z</time>
      </trkpt>
      <trkpt lat="39.3031550" lon="-0.7736250">
        <ele>746.0</ele>
        <time>2018-09-16T10:19:38Z</time>
      </trkpt>
      <trkpt lat="39.3031450" lon="-0.7735880">
        <ele>746.0</ele>
        <time>2018-09-16T10:19:39Z</time>
      </trkpt>
      <trkpt lat="39.3031430" lon="-0.7735700">
        <ele>747.0</ele>
        <time>2018-09-16T10:19:40Z</time>
      </trkpt>
      <trkpt lat="39.3031400" lon="-0.7735530">
        <ele>747.0</ele>
        <time>2018-09-16T10:19:41Z</time>
      </trkpt>
      <trkpt lat="39.3031400" lon="-0.7735530">
        <ele>747.0</ele>
        <time>2018-09-16T10:19:42Z</time>
      </trkpt>
      <trkpt lat="39.3031330" lon="-0.7735170">
        <ele>747.0</ele>
        <time>2018-09-16T10:19:43Z</time>
      </trkpt>
      <trkpt lat="39.3031330" lon="-0.7735170">
        <ele>747.0</ele>
        <time>2018-09-16T10:19:44Z</time>
      </trkpt>
      <trkpt lat="39.3031200" lon="-0.7734830">
        <ele>748.0</ele>
        <time>2018-09-16T10:19:45Z</time>
      </trkpt>
      <trkpt lat="39.3031130" lon="-0.7734650">
        <ele>748.0</ele>
        <time>2018-09-16T10:19:46Z</time>
      </trkpt>
      <trkpt lat="39.3031130" lon="-0.7734650">
        <ele>748.0</ele>
        <time>2018-09-16T10:19:47Z</time>
      </trkpt>
      <trkpt lat="39.3031000" lon="-0.7734330">
        <ele>748.0</ele>
        <time>2018-09-16T10:19:48Z</time>
      </trkpt>
      <trkpt lat="39.3030930" lon="-0.7734170">
        <ele>748.0</ele>
        <time>2018-09-16T10:19:49Z</time>
      </trkpt>
      <trkpt lat="39.3030930" lon="-0.7734170">
        <ele>748.0</ele>
        <time>2018-09-16T10:19:50Z</time>
      </trkpt>
      <trkpt lat="39.3030830" lon="-0.7733830">
        <ele>748.0</ele>
        <time>2018-09-16T10:19:51Z</time>
      </trkpt>
      <trkpt lat="39.3030830" lon="-0.7733830">
        <ele>748.0</ele>
        <time>2018-09-16T10:19:52Z</time>
      </trkpt>
      <trkpt lat="39.3030720" lon="-0.7733530">
        <ele>748.0</ele>
        <time>2018-09-16T10:19:53Z</time>
      </trkpt>
      <trkpt lat="39.3030670" lon="-0.7733380">
        <ele>749.0</ele>
        <time>2018-09-16T10:19:54Z</time>
      </trkpt>
      <trkpt lat="39.3030670" lon="-0.7733380">
        <ele>749.0</ele>
        <time>2018-09-16T10:19:55Z</time>
      </trkpt>
      <trkpt lat="39.3030550" lon="-0.7733070">
        <ele>749.0</ele>
        <time>2018-09-16T10:19:56Z</time>
      </trkpt>
      <trkpt lat="39.3030550" lon="-0.7733070">
        <ele>749.0</ele>
        <time>2018-09-16T10:19:57Z</time>
      </trkpt>
      <trkpt lat="39.3030420" lon="-0.7732750">
        <ele>749.0</ele>
        <time>2018-09-16T10:19:58Z</time>
      </trkpt>
      <trkpt lat="39.3030350" lon="-0.7732580">
        <ele>749.0</ele>
        <time>2018-09-16T10:19:59Z</time>
      </trkpt>
      <trkpt lat="39.3030270" lon="-0.7732420">
        <ele>750.0</ele>
        <time>2018-09-16T10:20:00Z</time>
      </trkpt>
      <trkpt lat="39.3030270" lon="-0.7732420">
        <ele>750.0</ele>
        <time>2018-09-16T10:20:01Z</time>
      </trkpt>
      <trkpt lat="39.3030150" lon="-0.7732080">
        <ele>750.0</ele>
        <time>2018-09-16T10:20:02Z</time>
      </trkpt>
      <trkpt lat="39.3030150" lon="-0.7732080">
        <ele>750.0</ele>
        <time>2018-09-16T10:20:03Z</time>
      </trkpt>
      <trkpt lat="39.3030030" lon="-0.7731720">
        <ele>750.0</ele>
        <time>2018-09-16T10:20:04Z</time>
      </trkpt>
      <trkpt lat="39.3030030" lon="-0.7731720">
        <ele>750.0</ele>
        <time>2018-09-16T10:20:05Z</time>
      </trkpt>
      <trkpt lat="39.3029920" lon="-0.7731350">
        <ele>750.0</ele>
        <time>2018-09-16T10:20:06Z</time>
      </trkpt>
      <trkpt lat="39.3029870" lon="-0.7731180">
        <ele>750.0</ele>
        <time>2018-09-16T10:20:07Z</time>
      </trkpt>
      <trkpt lat="39.3029870" lon="-0.7731180">
        <ele>751.0</ele>
        <time>2018-09-16T10:20:08Z</time>
      </trkpt>
      <trkpt lat="39.3029750" lon="-0.7730830">
        <ele>751.0</ele>
        <time>2018-09-16T10:20:09Z</time>
      </trkpt>
      <trkpt lat="39.3029750" lon="-0.7730830">
        <ele>751.0</ele>
        <time>2018-09-16T10:20:10Z</time>
      </trkpt>
      <trkpt lat="39.3029630" lon="-0.7730470">
        <ele>751.0</ele>
        <time>2018-09-16T10:20:11Z</time>
      </trkpt>
      <trkpt lat="39.3029630" lon="-0.7730470">
        <ele>751.0</ele>
        <time>2018-09-16T10:20:12Z</time>
      </trkpt>
      <trkpt lat="39.3029530" lon="-0.7730080">
        <ele>751.0</ele>
        <time>2018-09-16T10:20:13Z</time>
      </trkpt>
      <trkpt lat="39.3029530" lon="-0.7730080">
        <ele>751.0</ele>
        <time>2018-09-16T10:20:14Z</time>
      </trkpt>
      <trkpt lat="39.3029450" lon="-0.7729700">
        <ele>751.0</ele>
        <time>2018-09-16T10:20:15Z</time>
      </trkpt>
      <trkpt lat="39.3029450" lon="-0.7729700">
        <ele>752.0</ele>
        <time>2018-09-16T10:20:16Z</time>
      </trkpt>
      <trkpt lat="39.3029400" lon="-0.7729300">
        <ele>752.0</ele>
        <time>2018-09-16T10:20:17Z</time>
      </trkpt>
      <trkpt lat="39.3029370" lon="-0.7729100">
        <ele>752.0</ele>
        <time>2018-09-16T10:20:18Z</time>
      </trkpt>
      <trkpt lat="39.3029370" lon="-0.7728920">
        <ele>752.0</ele>
        <time>2018-09-16T10:20:19Z</time>
      </trkpt>
      <trkpt lat="39.3029370" lon="-0.7728920">
        <ele>752.0</ele>
        <time>2018-09-16T10:20:20Z</time>
      </trkpt>
      <trkpt lat="39.3029380" lon="-0.7728530">
        <ele>753.0</ele>
        <time>2018-09-16T10:20:21Z</time>
      </trkpt>
      <trkpt lat="39.3029400" lon="-0.7728350">
        <ele>753.0</ele>
        <time>2018-09-16T10:20:22Z</time>
      </trkpt>
      <trkpt lat="39.3029400" lon="-0.7728350">
        <ele>753.0</ele>
        <time>2018-09-16T10:20:23Z</time>
      </trkpt>
      <trkpt lat="39.3029470" lon="-0.7728000">
        <ele>753.0</ele>
        <time>2018-09-16T10:20:24Z</time>
      </trkpt>
      <trkpt lat="39.3029520" lon="-0.7727830">
        <ele>753.0</ele>
        <time>2018-09-16T10:20:25Z</time>
      </trkpt>
      <trkpt lat="39.3029520" lon="-0.7727830">
        <ele>753.0</ele>
        <time>2018-09-16T10:20:26Z</time>
      </trkpt>
      <trkpt lat="39.3029680" lon="-0.7727520">
        <ele>753.0</ele>
        <time>2018-09-16T10:20:27Z</time>
      </trkpt>
      <trkpt lat="39.3029780" lon="-0.7727380">
        <ele>753.0</ele>
        <time>2018-09-16T10:20:28Z</time>
      </trkpt>
      <trkpt lat="39.3029780" lon="-0.7727380">
        <ele>754.0</ele>
        <time>2018-09-16T10:20:29Z</time>
      </trkpt>
      <trkpt lat="39.3030020" lon="-0.7727150">
        <ele>754.0</ele>
        <time>2018-09-16T10:20:30Z</time>
      </trkpt>
      <trkpt lat="39.3030130" lon="-0.7727030">
        <ele>754.0</ele>
        <time>2018-09-16T10:20:31Z</time>
      </trkpt>
      <trkpt lat="39.3030130" lon="-0.7727030">
        <ele>754.0</ele>
        <time>2018-09-16T10:20:32Z</time>
      </trkpt>
      <trkpt lat="39.3030350" lon="-0.7726780">
        <ele>754.0</ele>
        <time>2018-09-16T10:20:33Z</time>
      </trkpt>
      <trkpt lat="39.3030480" lon="-0.7726650">
        <ele>754.0</ele>
        <time>2018-09-16T10:20:34Z</time>
      </trkpt>
      <trkpt lat="39.3030480" lon="-0.7726650">
        <ele>754.0</ele>
        <time>2018-09-16T10:20:35Z</time>
      </trkpt>
      <trkpt lat="39.3030730" lon="-0.7726450">
        <ele>754.0</ele>
        <time>2018-09-16T10:20:36Z</time>
      </trkpt>
      <trkpt lat="39.3030850" lon="-0.7726330">
        <ele>754.0</ele>
        <time>2018-09-16T10:20:37Z</time>
      </trkpt>
      <trkpt lat="39.3030850" lon="-0.7726330">
        <ele>754.0</ele>
        <time>2018-09-16T10:20:38Z</time>
      </trkpt>
      <trkpt lat="39.3031130" lon="-0.7726150">
        <ele>754.0</ele>
        <time>2018-09-16T10:20:39Z</time>
      </trkpt>
      <trkpt lat="39.3031130" lon="-0.7726150">
        <ele>754.0</ele>
        <time>2018-09-16T10:20:40Z</time>
      </trkpt>
      <trkpt lat="39.3031420" lon="-0.7726000">
        <ele>755.0</ele>
        <time>2018-09-16T10:20:41Z</time>
      </trkpt>
      <trkpt lat="39.3031570" lon="-0.7725920">
        <ele>755.0</ele>
        <time>2018-09-16T10:20:42Z</time>
      </trkpt>
      <trkpt lat="39.3031720" lon="-0.7725830">
        <ele>755.0</ele>
        <time>2018-09-16T10:20:43Z</time>
      </trkpt>
      <trkpt lat="39.3031850" lon="-0.7725730">
        <ele>755.0</ele>
        <time>2018-09-16T10:20:44Z</time>
      </trkpt>
      <trkpt lat="39.3031850" lon="-0.7725730">
        <ele>755.0</ele>
        <time>2018-09-16T10:20:45Z</time>
      </trkpt>
      <trkpt lat="39.3032120" lon="-0.7725550">
        <ele>755.0</ele>
        <time>2018-09-16T10:20:46Z</time>
      </trkpt>
      <trkpt lat="39.3032250" lon="-0.7725470">
        <ele>755.0</ele>
        <time>2018-09-16T10:20:47Z</time>
      </trkpt>
      <trkpt lat="39.3032250" lon="-0.7725470">
        <ele>756.0</ele>
        <time>2018-09-16T10:20:48Z</time>
      </trkpt>
      <trkpt lat="39.3032520" lon="-0.7725300">
        <ele>756.0</ele>
        <time>2018-09-16T10:20:49Z</time>
      </trkpt>
      <trkpt lat="39.3032650" lon="-0.7725230">
        <ele>756.0</ele>
        <time>2018-09-16T10:20:50Z</time>
      </trkpt>
      <trkpt lat="39.3032650" lon="-0.7725230">
        <ele>756.0</ele>
        <time>2018-09-16T10:20:51Z</time>
      </trkpt>
      <trkpt lat="39.3032920" lon="-0.7725120">
        <ele>756.0</ele>
        <time>2018-09-16T10:20:52Z</time>
      </trkpt>
      <trkpt lat="39.3032920" lon="-0.7725120">
        <ele>756.0</ele>
        <time>2018-09-16T10:20:53Z</time>
      </trkpt>
      <trkpt lat="39.3033170" lon="-0.7724970">
        <ele>756.0</ele>
        <time>2018-09-16T10:20:54Z</time>
      </trkpt>
      <trkpt lat="39.3033170" lon="-0.7724970">
        <ele>756.0</ele>
        <time>2018-09-16T10:20:55Z</time>
      </trkpt>
      <trkpt lat="39.3033400" lon="-0.7724780">
        <ele>756.0</ele>
        <time>2018-09-16T10:20:56Z</time>
      </trkpt>
      <trkpt lat="39.3033520" lon="-0.7724700">
        <ele>756.0</ele>
        <time>2018-09-16T10:20:57Z</time>
      </trkpt>
      <trkpt lat="39.3033520" lon="-0.7724700">
        <ele>756.0</ele>
        <time>2018-09-16T10:20:58Z</time>
      </trkpt>
      <trkpt lat="39.3033750" lon="-0.7724600">
        <ele>756.0</ele>
        <time>2018-09-16T10:20:59Z</time>
      </trkpt>
      <trkpt lat="39.3033880" lon="-0.7724530">
        <ele>757.0</ele>
        <time>2018-09-16T10:21:00Z</time>
      </trkpt>
      <trkpt lat="39.3033880" lon="-0.7724530">
        <ele>757.0</ele>
        <time>2018-09-16T10:21:01Z</time>
      </trkpt>
      <trkpt lat="39.3034150" lon="-0.7724380">
        <ele>757.0</ele>
        <time>2018-09-16T10:21:02Z</time>
      </trkpt>
      <trkpt lat="39.3034270" lon="-0.7724300">
        <ele>757.0</ele>
        <time>2018-09-16T10:21:03Z</time>
      </trkpt>
      <trkpt lat="39.3034270" lon="-0.7724300">
        <ele>757.0</ele>
        <time>2018-09-16T10:21:04Z</time>
      </trkpt>
      <trkpt lat="39.3034500" lon="-0.7724120">
        <ele>757.0</ele>
        <time>2018-09-16T10:21:05Z</time>
      </trkpt>
      <trkpt lat="39.3034500" lon="-0.7724120">
        <ele>758.0</ele>
        <time>2018-09-16T10:21:06Z</time>
      </trkpt>
      <trkpt lat="39.3034720" lon="-0.7723930">
        <ele>758.0</ele>
        <time>2018-09-16T10:21:07Z</time>
      </trkpt>
      <trkpt lat="39.3034720" lon="-0.7723930">
        <ele>758.0</ele>
        <time>2018-09-16T10:21:08Z</time>
      </trkpt>
      <trkpt lat="39.3034920" lon="-0.7723720">
        <ele>758.0</ele>
        <time>2018-09-16T10:21:09Z</time>
      </trkpt>
      <trkpt lat="39.3034920" lon="-0.7723720">
        <ele>758.0</ele>
        <time>2018-09-16T10:21:10Z</time>
      </trkpt>
      <trkpt lat="39.3035070" lon="-0.7723430">
        <ele>758.0</ele>
        <time>2018-09-16T10:21:11Z</time>
      </trkpt>
      <trkpt lat="39.3035130" lon="-0.7723280">
        <ele>758.0</ele>
        <time>2018-09-16T10:21:12Z</time>
      </trkpt>
      <trkpt lat="39.3035130" lon="-0.7723280">
        <ele>759.0</ele>
        <time>2018-09-16T10:21:13Z</time>
      </trkpt>
      <trkpt lat="39.3035300" lon="-0.7722980">
        <ele>759.0</ele>
        <time>2018-09-16T10:21:14Z</time>
      </trkpt>
      <trkpt lat="39.3035350" lon="-0.7722830">
        <ele>759.0</ele>
        <time>2018-09-16T10:21:15Z</time>
      </trkpt>
      <trkpt lat="39.3035350" lon="-0.7722830">
        <ele>759.0</ele>
        <time>2018-09-16T10:21:16Z</time>
      </trkpt>
      <trkpt lat="39.3035420" lon="-0.7722480">
        <ele>759.0</ele>
        <time>2018-09-16T10:21:17Z</time>
      </trkpt>
      <trkpt lat="39.3035420" lon="-0.7722480">
        <ele>759.0</ele>
        <time>2018-09-16T10:21:18Z</time>
      </trkpt>
      <trkpt lat="39.3035470" lon="-0.7722130">
        <ele>759.0</ele>
        <time>2018-09-16T10:21:19Z</time>
      </trkpt>
      <trkpt lat="39.3035470" lon="-0.7722130">
        <ele>759.0</ele>
        <time>2018-09-16T10:21:20Z</time>
      </trkpt>
      <trkpt lat="39.3035520" lon="-0.7721770">
        <ele>760.0</ele>
        <time>2018-09-16T10:21:21Z</time>
      </trkpt>
      <trkpt lat="39.3035530" lon="-0.7721580">
        <ele>760.0</ele>
        <time>2018-09-16T10:21:22Z</time>
      </trkpt>
      <trkpt lat="39.3035530" lon="-0.7721580">
        <ele>760.0</ele>
        <time>2018-09-16T10:21:23Z</time>
      </trkpt>
      <trkpt lat="39.3035580" lon="-0.7721230">
        <ele>760.0</ele>
        <time>2018-09-16T10:21:24Z</time>
      </trkpt>
      <trkpt lat="39.3035580" lon="-0.7721050">
        <ele>761.0</ele>
        <time>2018-09-16T10:21:25Z</time>
      </trkpt>
      <trkpt lat="39.3035580" lon="-0.7721050">
        <ele>761.0</ele>
        <time>2018-09-16T10:21:26Z</time>
      </trkpt>
      <trkpt lat="39.3035580" lon="-0.7720700">
        <ele>761.0</ele>
        <time>2018-09-16T10:21:27Z</time>
      </trkpt>
      <trkpt lat="39.3035580" lon="-0.7720700">
        <ele>761.0</ele>
        <time>2018-09-16T10:21:28Z</time>
      </trkpt>
      <trkpt lat="39.3035580" lon="-0.7720370">
        <ele>761.0</ele>
        <time>2018-09-16T10:21:29Z</time>
      </trkpt>
      <trkpt lat="39.3035580" lon="-0.7720370">
        <ele>762.0</ele>
        <time>2018-09-16T10:21:30Z</time>
      </trkpt>
      <trkpt lat="39.3035600" lon="-0.7720100">
        <ele>762.0</ele>
        <time>2018-09-16T10:21:31Z</time>
      </trkpt>
      <trkpt lat="39.3035600" lon="-0.7720100">
        <ele>762.0</ele>
        <time>2018-09-16T10:21:32Z</time>
      </trkpt>
      <trkpt lat="39.3035600" lon="-0.7719800">
        <ele>762.0</ele>
        <time>2018-09-16T10:21:33Z</time>
      </trkpt>
      <trkpt lat="39.3035600" lon="-0.7719800">
        <ele>762.0</ele>
        <time>2018-09-16T10:21:34Z</time>
      </trkpt>
      <trkpt lat="39.3035630" lon="-0.7719470">
        <ele>762.0</ele>
        <time>2018-09-16T10:21:35Z</time>
      </trkpt>
      <trkpt lat="39.3035600" lon="-0.7719320">
        <ele>763.0</ele>
        <time>2018-09-16T10:21:36Z</time>
      </trkpt>
      <trkpt lat="39.3035570" lon="-0.7719170">
        <ele>763.0</ele>
        <time>2018-09-16T10:21:37Z</time>
      </trkpt>
      <trkpt lat="39.3035570" lon="-0.7719170">
        <ele>763.0</ele>
        <time>2018-09-16T10:21:38Z</time>
      </trkpt>
      <trkpt lat="39.3035570" lon="-0.7718830">
        <ele>763.0</ele>
        <time>2018-09-16T10:21:39Z</time>
      </trkpt>
      <trkpt lat="39.3035600" lon="-0.7718650">
        <ele>763.0</ele>
        <time>2018-09-16T10:21:40Z</time>
      </trkpt>
      <trkpt lat="39.3035600" lon="-0.7718650">
        <ele>763.0</ele>
        <time>2018-09-16T10:21:41Z</time>
      </trkpt>
      <trkpt lat="39.3035650" lon="-0.7718320">
        <ele>764.0</ele>
        <time>2018-09-16T10:21:42Z</time>
      </trkpt>
      <trkpt lat="39.3035720" lon="-0.7718150">
        <ele>764.0</ele>
        <time>2018-09-16T10:21:43Z</time>
      </trkpt>
      <trkpt lat="39.3035720" lon="-0.7718150">
        <ele>764.0</ele>
        <time>2018-09-16T10:21:44Z</time>
      </trkpt>
      <trkpt lat="39.3035850" lon="-0.7717850">
        <ele>764.0</ele>
        <time>2018-09-16T10:21:45Z</time>
      </trkpt>
      <trkpt lat="39.3035920" lon="-0.7717720">
        <ele>765.0</ele>
        <time>2018-09-16T10:21:46Z</time>
      </trkpt>
      <trkpt lat="39.3035950" lon="-0.7717550">
        <ele>765.0</ele>
        <time>2018-09-16T10:21:47Z</time>
      </trkpt>
      <trkpt lat="39.3035950" lon="-0.7717550">
        <ele>765.0</ele>
        <time>2018-09-16T10:21:48Z</time>
      </trkpt>
      <trkpt lat="39.3036080" lon="-0.7717270">
        <ele>765.0</ele>
        <time>2018-09-16T10:21:49Z</time>
      </trkpt>
      <trkpt lat="39.3036080" lon="-0.7717270">
        <ele>765.0</ele>
        <time>2018-09-16T10:21:50Z</time>
      </trkpt>
      <trkpt lat="39.3036220" lon="-0.7716980">
        <ele>765.0</ele>
        <time>2018-09-16T10:21:51Z</time>
      </trkpt>
      <trkpt lat="39.3036220" lon="-0.7716980">
        <ele>765.0</ele>
        <time>2018-09-16T10:21:52Z</time>
      </trkpt>
      <trkpt lat="39.3036350" lon="-0.7716730">
        <ele>765.0</ele>
        <time>2018-09-16T10:21:53Z</time>
      </trkpt>
      <trkpt lat="39.3036350" lon="-0.7716730">
        <ele>765.0</ele>
        <time>2018-09-16T10:21:54Z</time>
      </trkpt>
      <trkpt lat="39.3036480" lon="-0.7716480">
        <ele>765.0</ele>
        <time>2018-09-16T10:21:55Z</time>
      </trkpt>
      <trkpt lat="39.3036480" lon="-0.7716480">
        <ele>765.0</ele>
        <time>2018-09-16T10:21:56Z</time>
      </trkpt>
      <trkpt lat="39.3036620" lon="-0.7716220">
        <ele>765.0</ele>
        <time>2018-09-16T10:21:57Z</time>
      </trkpt>
      <trkpt lat="39.3036620" lon="-0.7716220">
        <ele>765.0</ele>
        <time>2018-09-16T10:21:58Z</time>
      </trkpt>
      <trkpt lat="39.3036780" lon="-0.7715970">
        <ele>765.0</ele>
        <time>2018-09-16T10:21:59Z</time>
      </trkpt>
      <trkpt lat="39.3036780" lon="-0.7715970">
        <ele>765.0</ele>
        <time>2018-09-16T10:22:00Z</time>
      </trkpt>
      <trkpt lat="39.3036900" lon="-0.7715700">
        <ele>765.0</ele>
        <time>2018-09-16T10:22:01Z</time>
      </trkpt>
      <trkpt lat="39.3036900" lon="-0.7715700">
        <ele>766.0</ele>
        <time>2018-09-16T10:22:02Z</time>
      </trkpt>
      <trkpt lat="39.3037030" lon="-0.7715430">
        <ele>766.0</ele>
        <time>2018-09-16T10:22:03Z</time>
      </trkpt>
      <trkpt lat="39.3037120" lon="-0.7715300">
        <ele>766.0</ele>
        <time>2018-09-16T10:22:04Z</time>
      </trkpt>
      <trkpt lat="39.3037180" lon="-0.7715170">
        <ele>766.0</ele>
        <time>2018-09-16T10:22:05Z</time>
      </trkpt>
      <trkpt lat="39.3037270" lon="-0.7715030">
        <ele>766.0</ele>
        <time>2018-09-16T10:22:06Z</time>
      </trkpt>
      <trkpt lat="39.3037330" lon="-0.7714880">
        <ele>767.0</ele>
        <time>2018-09-16T10:22:07Z</time>
      </trkpt>
      <trkpt lat="39.3037330" lon="-0.7714880">
        <ele>767.0</ele>
        <time>2018-09-16T10:22:08Z</time>
      </trkpt>
      <trkpt lat="39.3037470" lon="-0.7714630">
        <ele>767.0</ele>
        <time>2018-09-16T10:22:09Z</time>
      </trkpt>
      <trkpt lat="39.3037520" lon="-0.7714480">
        <ele>767.0</ele>
        <time>2018-09-16T10:22:10Z</time>
      </trkpt>
      <trkpt lat="39.3037520" lon="-0.7714480">
        <ele>767.0</ele>
        <time>2018-09-16T10:22:11Z</time>
      </trkpt>
      <trkpt lat="39.3037680" lon="-0.7714200">
        <ele>767.0</ele>
        <time>2018-09-16T10:22:12Z</time>
      </trkpt>
      <trkpt lat="39.3037680" lon="-0.7714200">
        <ele>768.0</ele>
        <time>2018-09-16T10:22:13Z</time>
      </trkpt>
      <trkpt lat="39.3037820" lon="-0.7713880">
        <ele>768.0</ele>
        <time>2018-09-16T10:22:14Z</time>
      </trkpt>
      <trkpt lat="39.3037820" lon="-0.7713880">
        <ele>768.0</ele>
        <time>2018-09-16T10:22:15Z</time>
      </trkpt>
      <trkpt lat="39.3037950" lon="-0.7713580">
        <ele>768.0</ele>
        <time>2018-09-16T10:22:16Z</time>
      </trkpt>
      <trkpt lat="39.3038020" lon="-0.7713430">
        <ele>768.0</ele>
        <time>2018-09-16T10:22:17Z</time>
      </trkpt>
      <trkpt lat="39.3038020" lon="-0.7713430">
        <ele>768.0</ele>
        <time>2018-09-16T10:22:18Z</time>
      </trkpt>
      <trkpt lat="39.3038130" lon="-0.7713130">
        <ele>768.0</ele>
        <time>2018-09-16T10:22:19Z</time>
      </trkpt>
      <trkpt lat="39.3038130" lon="-0.7713130">
        <ele>768.0</ele>
        <time>2018-09-16T10:22:20Z</time>
      </trkpt>
      <trkpt lat="39.3038250" lon="-0.7712850">
        <ele>768.0</ele>
        <time>2018-09-16T10:22:21Z</time>
      </trkpt>
      <trkpt lat="39.3038250" lon="-0.7712850">
        <ele>768.0</ele>
        <time>2018-09-16T10:22:22Z</time>
      </trkpt>
      <trkpt lat="39.3038380" lon="-0.7712570">
        <ele>769.0</ele>
        <time>2018-09-16T10:22:23Z</time>
      </trkpt>
      <trkpt lat="39.3038430" lon="-0.7712450">
        <ele>769.0</ele>
        <time>2018-09-16T10:22:24Z</time>
      </trkpt>
      <trkpt lat="39.3038500" lon="-0.7712330">
        <ele>769.0</ele>
        <time>2018-09-16T10:22:25Z</time>
      </trkpt>
      <trkpt lat="39.3038500" lon="-0.7712330">
        <ele>769.0</ele>
        <time>2018-09-16T10:22:26Z</time>
      </trkpt>
      <trkpt lat="39.3038620" lon="-0.7712070">
        <ele>769.0</ele>
        <time>2018-09-16T10:22:27Z</time>
      </trkpt>
      <trkpt lat="39.3038620" lon="-0.7712070">
        <ele>770.0</ele>
        <time>2018-09-16T10:22:28Z</time>
      </trkpt>
      <trkpt lat="39.3038720" lon="-0.7711800">
        <ele>770.0</ele>
        <time>2018-09-16T10:22:29Z</time>
      </trkpt>
      <trkpt lat="39.3038750" lon="-0.7711670">
        <ele>770.0</ele>
        <time>2018-09-16T10:22:30Z</time>
      </trkpt>
      <trkpt lat="39.3038800" lon="-0.7711530">
        <ele>770.0</ele>
        <time>2018-09-16T10:22:31Z</time>
      </trkpt>
      <trkpt lat="39.3038800" lon="-0.7711530">
        <ele>770.0</ele>
        <time>2018-09-16T10:22:32Z</time>
      </trkpt>
      <trkpt lat="39.3038930" lon="-0.7711270">
        <ele>770.0</ele>
        <time>2018-09-16T10:22:33Z</time>
      </trkpt>
      <trkpt lat="39.3038980" lon="-0.7711130">
        <ele>770.0</ele>
        <time>2018-09-16T10:22:34Z</time>
      </trkpt>
      <trkpt lat="39.3038980" lon="-0.7711130">
        <ele>770.0</ele>
        <time>2018-09-16T10:22:35Z</time>
      </trkpt>
      <trkpt lat="39.3039080" lon="-0.7710850">
        <ele>770.0</ele>
        <time>2018-09-16T10:22:36Z</time>
      </trkpt>
      <trkpt lat="39.3039080" lon="-0.7710850">
        <ele>770.0</ele>
        <time>2018-09-16T10:22:37Z</time>
      </trkpt>
      <trkpt lat="39.3039130" lon="-0.7710580">
        <ele>771.0</ele>
        <time>2018-09-16T10:22:38Z</time>
      </trkpt>
      <trkpt lat="39.3039170" lon="-0.7710430">
        <ele>771.0</ele>
        <time>2018-09-16T10:22:39Z</time>
      </trkpt>
      <trkpt lat="39.3039170" lon="-0.7710430">
        <ele>771.0</ele>
        <time>2018-09-16T10:22:40Z</time>
      </trkpt>
      <trkpt lat="39.3039250" lon="-0.7710080">
        <ele>771.0</ele>
        <time>2018-09-16T10:22:41Z</time>
      </trkpt>
      <trkpt lat="39.3039250" lon="-0.7710080">
        <ele>771.0</ele>
        <time>2018-09-16T10:22:42Z</time>
      </trkpt>
      <trkpt lat="39.3039350" lon="-0.7709730">
        <ele>771.0</ele>
        <time>2018-09-16T10:22:43Z</time>
      </trkpt>
      <trkpt lat="39.3039350" lon="-0.7709730">
        <ele>772.0</ele>
        <time>2018-09-16T10:22:44Z</time>
      </trkpt>
      <trkpt lat="39.3039400" lon="-0.7709400">
        <ele>772.0</ele>
        <time>2018-09-16T10:22:45Z</time>
      </trkpt>
      <trkpt lat="39.3039470" lon="-0.7709250">
        <ele>772.0</ele>
        <time>2018-09-16T10:22:46Z</time>
      </trkpt>
      <trkpt lat="39.3039470" lon="-0.7709250">
        <ele>772.0</ele>
        <time>2018-09-16T10:22:47Z</time>
      </trkpt>
      <trkpt lat="39.3039530" lon="-0.7708930">
        <ele>773.0</ele>
        <time>2018-09-16T10:22:48Z</time>
      </trkpt>
      <trkpt lat="39.3039580" lon="-0.7708780">
        <ele>773.0</ele>
        <time>2018-09-16T10:22:49Z</time>
      </trkpt>
      <trkpt lat="39.3039580" lon="-0.7708780">
        <ele>773.0</ele>
        <time>2018-09-16T10:22:50Z</time>
      </trkpt>
      <trkpt lat="39.3039630" lon="-0.7708430">
        <ele>773.0</ele>
        <time>2018-09-16T10:22:51Z</time>
      </trkpt>
      <trkpt lat="39.3039670" lon="-0.7708270">
        <ele>774.0</ele>
        <time>2018-09-16T10:22:52Z</time>
      </trkpt>
      <trkpt lat="39.3039670" lon="-0.7708270">
        <ele>774.0</ele>
        <time>2018-09-16T10:22:53Z</time>
      </trkpt>
      <trkpt lat="39.3039720" lon="-0.7707920">
        <ele>774.0</ele>
        <time>2018-09-16T10:22:54Z</time>
      </trkpt>
      <trkpt lat="39.3039730" lon="-0.7707750">
        <ele>774.0</ele>
        <time>2018-09-16T10:22:55Z</time>
      </trkpt>
      <trkpt lat="39.3039730" lon="-0.7707750">
        <ele>774.0</ele>
        <time>2018-09-16T10:22:56Z</time>
      </trkpt>
      <trkpt lat="39.3039770" lon="-0.7707420">
        <ele>774.0</ele>
        <time>2018-09-16T10:22:57Z</time>
      </trkpt>
      <trkpt lat="39.3039770" lon="-0.7707420">
        <ele>774.0</ele>
        <time>2018-09-16T10:22:58Z</time>
      </trkpt>
      <trkpt lat="39.3039800" lon="-0.7707100">
        <ele>774.0</ele>
        <time>2018-09-16T10:22:59Z</time>
      </trkpt>
      <trkpt lat="39.3039800" lon="-0.7707100">
        <ele>774.0</ele>
        <time>2018-09-16T10:23:00Z</time>
      </trkpt>
      <trkpt lat="39.3039800" lon="-0.7706770">
        <ele>774.0</ele>
        <time>2018-09-16T10:23:01Z</time>
      </trkpt>
      <trkpt lat="39.3039800" lon="-0.7706770">
        <ele>774.0</ele>
        <time>2018-09-16T10:23:02Z</time>
      </trkpt>
      <trkpt lat="39.3039830" lon="-0.7706430">
        <ele>774.0</ele>
        <time>2018-09-16T10:23:03Z</time>
      </trkpt>
      <trkpt lat="39.3039830" lon="-0.7706430">
        <ele>774.0</ele>
        <time>2018-09-16T10:23:04Z</time>
      </trkpt>
      <trkpt lat="39.3039920" lon="-0.7706070">
        <ele>775.0</ele>
        <time>2018-09-16T10:23:05Z</time>
      </trkpt>
      <trkpt lat="39.3039930" lon="-0.7705880">
        <ele>775.0</ele>
        <time>2018-09-16T10:23:06Z</time>
      </trkpt>
      <trkpt lat="39.3039930" lon="-0.7705880">
        <ele>775.0</ele>
        <time>2018-09-16T10:23:07Z</time>
      </trkpt>
      <trkpt lat="39.3039920" lon="-0.7705550">
        <ele>775.0</ele>
        <time>2018-09-16T10:23:08Z</time>
      </trkpt>
      <trkpt lat="39.3039970" lon="-0.7705380">
        <ele>776.0</ele>
        <time>2018-09-16T10:23:09Z</time>
      </trkpt>
      <trkpt lat="39.3039970" lon="-0.7705380">
        <ele>776.0</ele>
        <time>2018-09-16T10:23:10Z</time>
      </trkpt>
      <trkpt lat="39.3039980" lon="-0.7705100">
        <ele>776.0</ele>
        <time>2018-09-16T10:23:11Z</time>
      </trkpt>
      <trkpt lat="39.3039980" lon="-0.7705100">
        <ele>776.0</ele>
        <time>2018-09-16T10:23:12Z</time>
      </trkpt>
      <trkpt lat="39.3039900" lon="-0.7704770">
        <ele>776.0</ele>
        <time>2018-09-16T10:23:13Z</time>
      </trkpt>
      <trkpt lat="39.3039900" lon="-0.7704770">
        <ele>776.0</ele>
        <time>2018-09-16T10:23:14Z</time>
      </trkpt>
      <trkpt lat="39.3039920" lon="-0.7704470">
        <ele>776.0</ele>
        <time>2018-09-16T10:23:15Z</time>
      </trkpt>
      <trkpt lat="39.3039830" lon="-0.7704300">
        <ele>777.0</ele>
        <time>2018-09-16T10:23:16Z</time>
      </trkpt>
      <trkpt lat="39.3039830" lon="-0.7704300">
        <ele>777.0</ele>
        <time>2018-09-16T10:23:17Z</time>
      </trkpt>
      <trkpt lat="39.3039670" lon="-0.7703950">
        <ele>777.0</ele>
        <time>2018-09-16T10:23:18Z</time>
      </trkpt>
      <trkpt lat="39.3039580" lon="-0.7703770">
        <ele>777.0</ele>
        <time>2018-09-16T10:23:19Z</time>
      </trkpt>
      <trkpt lat="39.3039580" lon="-0.7703770">
        <ele>777.0</ele>
        <time>2018-09-16T10:23:20Z</time>
      </trkpt>
      <trkpt lat="39.3039450" lon="-0.7703430">
        <ele>777.0</ele>
        <time>2018-09-16T10:23:21Z</time>
      </trkpt>
      <trkpt lat="39.3039450" lon="-0.7703430">
        <ele>778.0</ele>
        <time>2018-09-16T10:23:22Z</time>
      </trkpt>
      <trkpt lat="39.3039320" lon="-0.7703100">
        <ele>778.0</ele>
        <time>2018-09-16T10:23:23Z</time>
      </trkpt>
      <trkpt lat="39.3039320" lon="-0.7703100">
        <ele>778.0</ele>
        <time>2018-09-16T10:23:24Z</time>
      </trkpt>
      <trkpt lat="39.3039220" lon="-0.7702800">
        <ele>778.0</ele>
        <time>2018-09-16T10:23:25Z</time>
      </trkpt>
      <trkpt lat="39.3039220" lon="-0.7702800">
        <ele>778.0</ele>
        <time>2018-09-16T10:23:26Z</time>
      </trkpt>
      <trkpt lat="39.3039070" lon="-0.7702520">
        <ele>778.0</ele>
        <time>2018-09-16T10:23:27Z</time>
      </trkpt>
      <trkpt lat="39.3038980" lon="-0.7702350">
        <ele>778.0</ele>
        <time>2018-09-16T10:23:28Z</time>
      </trkpt>
      <trkpt lat="39.3038980" lon="-0.7702350">
        <ele>778.0</ele>
        <time>2018-09-16T10:23:29Z</time>
      </trkpt>
      <trkpt lat="39.3038820" lon="-0.7702070">
        <ele>778.0</ele>
        <time>2018-09-16T10:23:30Z</time>
      </trkpt>
      <trkpt lat="39.3038720" lon="-0.7701950">
        <ele>779.0</ele>
        <time>2018-09-16T10:23:31Z</time>
      </trkpt>
      <trkpt lat="39.3038720" lon="-0.7701950">
        <ele>779.0</ele>
        <time>2018-09-16T10:23:32Z</time>
      </trkpt>
      <trkpt lat="39.3038500" lon="-0.7701700">
        <ele>779.0</ele>
        <time>2018-09-16T10:23:33Z</time>
      </trkpt>
      <trkpt lat="39.3038400" lon="-0.7701570">
        <ele>779.0</ele>
        <time>2018-09-16T10:23:34Z</time>
      </trkpt>
      <trkpt lat="39.3038400" lon="-0.7701570">
        <ele>780.0</ele>
        <time>2018-09-16T10:23:35Z</time>
      </trkpt>
      <trkpt lat="39.3038230" lon="-0.7701230">
        <ele>780.0</ele>
        <time>2018-09-16T10:23:36Z</time>
      </trkpt>
      <trkpt lat="39.3038170" lon="-0.7701070">
        <ele>780.0</ele>
        <time>2018-09-16T10:23:37Z</time>
      </trkpt>
      <trkpt lat="39.3038170" lon="-0.7701070">
        <ele>780.0</ele>
        <time>2018-09-16T10:23:38Z</time>
      </trkpt>
      <trkpt lat="39.3038050" lon="-0.7700750">
        <ele>780.0</ele>
        <time>2018-09-16T10:23:39Z</time>
      </trkpt>
      <trkpt lat="39.3038050" lon="-0.7700750">
        <ele>780.0</ele>
        <time>2018-09-16T10:23:40Z</time>
      </trkpt>
      <trkpt lat="39.3037920" lon="-0.7700450">
        <ele>780.0</ele>
        <time>2018-09-16T10:23:41Z</time>
      </trkpt>
      <trkpt lat="39.3037920" lon="-0.7700450">
        <ele>781.0</ele>
        <time>2018-09-16T10:23:42Z</time>
      </trkpt>
      <trkpt lat="39.3037770" lon="-0.7700220">
        <ele>781.0</ele>
        <time>2018-09-16T10:23:43Z</time>
      </trkpt>
      <trkpt lat="39.3037770" lon="-0.7700220">
        <ele>781.0</ele>
        <time>2018-09-16T10:23:44Z</time>
      </trkpt>
      <trkpt lat="39.3037580" lon="-0.7699970">
        <ele>781.0</ele>
        <time>2018-09-16T10:23:45Z</time>
      </trkpt>
      <trkpt lat="39.3037520" lon="-0.7699820">
        <ele>781.0</ele>
        <time>2018-09-16T10:23:46Z</time>
      </trkpt>
      <trkpt lat="39.3037520" lon="-0.7699820">
        <ele>781.0</ele>
        <time>2018-09-16T10:23:47Z</time>
      </trkpt>
      <trkpt lat="39.3037380" lon="-0.7699480">
        <ele>782.0</ele>
        <time>2018-09-16T10:23:48Z</time>
      </trkpt>
      <trkpt lat="39.3037300" lon="-0.7699330">
        <ele>782.0</ele>
        <time>2018-09-16T10:23:49Z</time>
      </trkpt>
      <trkpt lat="39.3037300" lon="-0.7699330">
        <ele>782.0</ele>
        <time>2018-09-16T10:23:50Z</time>
      </trkpt>
      <trkpt lat="39.3037120" lon="-0.7699020">
        <ele>782.0</ele>
        <time>2018-09-16T10:23:51Z</time>
      </trkpt>
      <trkpt lat="39.3037120" lon="-0.7699020">
        <ele>782.0</ele>
        <time>2018-09-16T10:23:52Z</time>
      </trkpt>
      <trkpt lat="39.3036930" lon="-0.7698680">
        <ele>783.0</ele>
        <time>2018-09-16T10:23:53Z</time>
      </trkpt>
      <trkpt lat="39.3036930" lon="-0.7698680">
        <ele>783.0</ele>
        <time>2018-09-16T10:23:54Z</time>
      </trkpt>
      <trkpt lat="39.3036780" lon="-0.7698330">
        <ele>783.0</ele>
        <time>2018-09-16T10:23:55Z</time>
      </trkpt>
      <trkpt lat="39.3036780" lon="-0.7698330">
        <ele>783.0</ele>
        <time>2018-09-16T10:23:56Z</time>
      </trkpt>
      <trkpt lat="39.3036620" lon="-0.7698000">
        <ele>783.0</ele>
        <time>2018-09-16T10:23:57Z</time>
      </trkpt>
      <trkpt lat="39.3036620" lon="-0.7698000">
        <ele>783.0</ele>
        <time>2018-09-16T10:23:58Z</time>
      </trkpt>
      <trkpt lat="39.3036430" lon="-0.7697700">
        <ele>783.0</ele>
        <time>2018-09-16T10:23:59Z</time>
      </trkpt>
      <trkpt lat="39.3036430" lon="-0.7697700">
        <ele>783.0</ele>
        <time>2018-09-16T10:24:00Z</time>
      </trkpt>
      <trkpt lat="39.3036270" lon="-0.7697370">
        <ele>783.0</ele>
        <time>2018-09-16T10:24:01Z</time>
      </trkpt>
      <trkpt lat="39.3036270" lon="-0.7697370">
        <ele>783.0</ele>
        <time>2018-09-16T10:24:02Z</time>
      </trkpt>
      <trkpt lat="39.3036130" lon="-0.7697070">
        <ele>783.0</ele>
        <time>2018-09-16T10:24:03Z</time>
      </trkpt>
      <trkpt lat="39.3036130" lon="-0.7697070">
        <ele>783.0</ele>
        <time>2018-09-16T10:24:04Z</time>
      </trkpt>
      <trkpt lat="39.3036000" lon="-0.7696750">
        <ele>783.0</ele>
        <time>2018-09-16T10:24:05Z</time>
      </trkpt>
      <trkpt lat="39.3036000" lon="-0.7696750">
        <ele>783.0</ele>
        <time>2018-09-16T10:24:06Z</time>
      </trkpt>
      <trkpt lat="39.3035900" lon="-0.7696430">
        <ele>784.0</ele>
        <time>2018-09-16T10:24:07Z</time>
      </trkpt>
      <trkpt lat="39.3035900" lon="-0.7696430">
        <ele>784.0</ele>
        <time>2018-09-16T10:24:08Z</time>
      </trkpt>
      <trkpt lat="39.3035800" lon="-0.7696120">
        <ele>784.0</ele>
        <time>2018-09-16T10:24:09Z</time>
      </trkpt>
      <trkpt lat="39.3035770" lon="-0.7695950">
        <ele>784.0</ele>
        <time>2018-09-16T10:24:10Z</time>
      </trkpt>
      <trkpt lat="39.3035770" lon="-0.7695950">
        <ele>785.0</ele>
        <time>2018-09-16T10:24:11Z</time>
      </trkpt>
      <trkpt lat="39.3035700" lon="-0.7695630">
        <ele>785.0</ele>
        <time>2018-09-16T10:24:12Z</time>
      </trkpt>
      <trkpt lat="39.3035700" lon="-0.7695630">
        <ele>785.0</ele>
        <time>2018-09-16T10:24:13Z</time>
      </trkpt>
      <trkpt lat="39.3035650" lon="-0.7695420">
        <ele>785.0</ele>
        <time>2018-09-16T10:24:14Z</time>
      </trkpt>
      <trkpt lat="39.3035650" lon="-0.7695420">
        <ele>786.0</ele>
        <time>2018-09-16T10:24:15Z</time>
      </trkpt>
      <trkpt lat="39.3035630" lon="-0.7695200">
        <ele>786.0</ele>
        <time>2018-09-16T10:24:16Z</time>
      </trkpt>
      <trkpt lat="39.3035650" lon="-0.7695100">
        <ele>786.0</ele>
        <time>2018-09-16T10:24:17Z</time>
      </trkpt>
      <trkpt lat="39.3035650" lon="-0.7695100">
        <ele>786.0</ele>
        <time>2018-09-16T10:24:18Z</time>
      </trkpt>
      <trkpt lat="39.3035720" lon="-0.7694900">
        <ele>786.0</ele>
        <time>2018-09-16T10:24:19Z</time>
      </trkpt>
      <trkpt lat="39.3035720" lon="-0.7694900">
        <ele>787.0</ele>
        <time>2018-09-16T10:24:20Z</time>
      </trkpt>
      <trkpt lat="39.3035880" lon="-0.7694720">
        <ele>787.0</ele>
        <time>2018-09-16T10:24:21Z</time>
      </trkpt>
      <trkpt lat="39.3035880" lon="-0.7694720">
        <ele>787.0</ele>
        <time>2018-09-16T10:24:22Z</time>
      </trkpt>
      <trkpt lat="39.3036000" lon="-0.7694530">
        <ele>787.0</ele>
        <time>2018-09-16T10:24:23Z</time>
      </trkpt>
      <trkpt lat="39.3036000" lon="-0.7694530">
        <ele>788.0</ele>
        <time>2018-09-16T10:24:24Z</time>
      </trkpt>
      <trkpt lat="39.3036170" lon="-0.7694280">
        <ele>788.0</ele>
        <time>2018-09-16T10:24:25Z</time>
      </trkpt>
      <trkpt lat="39.3036170" lon="-0.7694280">
        <ele>788.0</ele>
        <time>2018-09-16T10:24:26Z</time>
      </trkpt>
      <trkpt lat="39.3036300" lon="-0.7694030">
        <ele>788.0</ele>
        <time>2018-09-16T10:24:27Z</time>
      </trkpt>
      <trkpt lat="39.3036300" lon="-0.7694030">
        <ele>788.0</ele>
        <time>2018-09-16T10:24:28Z</time>
      </trkpt>
      <trkpt lat="39.3036500" lon="-0.7693770">
        <ele>788.0</ele>
        <time>2018-09-16T10:24:29Z</time>
      </trkpt>
      <trkpt lat="39.3036500" lon="-0.7693770">
        <ele>789.0</ele>
        <time>2018-09-16T10:24:30Z</time>
      </trkpt>
      <trkpt lat="39.3036700" lon="-0.7693500">
        <ele>789.0</ele>
        <time>2018-09-16T10:24:31Z</time>
      </trkpt>
      <trkpt lat="39.3036700" lon="-0.7693500">
        <ele>789.0</ele>
        <time>2018-09-16T10:24:32Z</time>
      </trkpt>
      <trkpt lat="39.3036920" lon="-0.7693200">
        <ele>789.0</ele>
        <time>2018-09-16T10:24:33Z</time>
      </trkpt>
      <trkpt lat="39.3036920" lon="-0.7693200">
        <ele>789.0</ele>
        <time>2018-09-16T10:24:34Z</time>
      </trkpt>
      <trkpt lat="39.3037050" lon="-0.7692920">
        <ele>789.0</ele>
        <time>2018-09-16T10:24:35Z</time>
      </trkpt>
      <trkpt lat="39.3037050" lon="-0.7692920">
        <ele>789.0</ele>
        <time>2018-09-16T10:24:36Z</time>
      </trkpt>
      <trkpt lat="39.3037300" lon="-0.7692650">
        <ele>789.0</ele>
        <time>2018-09-16T10:24:37Z</time>
      </trkpt>
      <trkpt lat="39.3037300" lon="-0.7692650">
        <ele>790.0</ele>
        <time>2018-09-16T10:24:38Z</time>
      </trkpt>
      <trkpt lat="39.3037480" lon="-0.7692400">
        <ele>790.0</ele>
        <time>2018-09-16T10:24:39Z</time>
      </trkpt>
      <trkpt lat="39.3037600" lon="-0.7692280">
        <ele>790.0</ele>
        <time>2018-09-16T10:24:40Z</time>
      </trkpt>
      <trkpt lat="39.3037600" lon="-0.7692280">
        <ele>790.0</ele>
        <time>2018-09-16T10:24:41Z</time>
      </trkpt>
      <trkpt lat="39.3037820" lon="-0.7692020">
        <ele>790.0</ele>
        <time>2018-09-16T10:24:42Z</time>
      </trkpt>
      <trkpt lat="39.3037900" lon="-0.7691920">
        <ele>790.0</ele>
        <time>2018-09-16T10:24:43Z</time>
      </trkpt>
      <trkpt lat="39.3037900" lon="-0.7691920">
        <ele>790.0</ele>
        <time>2018-09-16T10:24:44Z</time>
      </trkpt>
      <trkpt lat="39.3038100" lon="-0.7691650">
        <ele>790.0</ele>
        <time>2018-09-16T10:24:45Z</time>
      </trkpt>
      <trkpt lat="39.3038100" lon="-0.7691650">
        <ele>791.0</ele>
        <time>2018-09-16T10:24:46Z</time>
      </trkpt>
      <trkpt lat="39.3038270" lon="-0.7691380">
        <ele>791.0</ele>
        <time>2018-09-16T10:24:47Z</time>
      </trkpt>
      <trkpt lat="39.3038320" lon="-0.7691270">
        <ele>791.0</ele>
        <time>2018-09-16T10:24:48Z</time>
      </trkpt>
      <trkpt lat="39.3038380" lon="-0.7691170">
        <ele>791.0</ele>
        <time>2018-09-16T10:24:49Z</time>
      </trkpt>
      <trkpt lat="39.3038380" lon="-0.7691170">
        <ele>792.0</ele>
        <time>2018-09-16T10:24:50Z</time>
      </trkpt>
      <trkpt lat="39.3038580" lon="-0.7690950">
        <ele>792.0</ele>
        <time>2018-09-16T10:24:51Z</time>
      </trkpt>
      <trkpt lat="39.3038580" lon="-0.7690950">
        <ele>793.0</ele>
        <time>2018-09-16T10:24:52Z</time>
      </trkpt>
      <trkpt lat="39.3038820" lon="-0.7690700">
        <ele>793.0</ele>
        <time>2018-09-16T10:24:53Z</time>
      </trkpt>
      <trkpt lat="39.3038820" lon="-0.7690700">
        <ele>793.0</ele>
        <time>2018-09-16T10:24:54Z</time>
      </trkpt>
      <trkpt lat="39.3039000" lon="-0.7690480">
        <ele>793.0</ele>
        <time>2018-09-16T10:24:55Z</time>
      </trkpt>
      <trkpt lat="39.3039000" lon="-0.7690480">
        <ele>793.0</ele>
        <time>2018-09-16T10:24:56Z</time>
      </trkpt>
      <trkpt lat="39.3039120" lon="-0.7690280">
        <ele>793.0</ele>
        <time>2018-09-16T10:24:57Z</time>
      </trkpt>
      <trkpt lat="39.3039120" lon="-0.7690280">
        <ele>793.0</ele>
        <time>2018-09-16T10:24:58Z</time>
      </trkpt>
      <trkpt lat="39.3039280" lon="-0.7690020">
        <ele>793.0</ele>
        <time>2018-09-16T10:24:59Z</time>
      </trkpt>
      <trkpt lat="39.3039280" lon="-0.7690020">
        <ele>794.0</ele>
        <time>2018-09-16T10:25:00Z</time>
      </trkpt>
      <trkpt lat="39.3039470" lon="-0.7689720">
        <ele>794.0</ele>
        <time>2018-09-16T10:25:01Z</time>
      </trkpt>
      <trkpt lat="39.3039470" lon="-0.7689720">
        <ele>794.0</ele>
        <time>2018-09-16T10:25:02Z</time>
      </trkpt>
      <trkpt lat="39.3039600" lon="-0.7689420">
        <ele>794.0</ele>
        <time>2018-09-16T10:25:03Z</time>
      </trkpt>
      <trkpt lat="39.3039680" lon="-0.7689280">
        <ele>795.0</ele>
        <time>2018-09-16T10:25:04Z</time>
      </trkpt>
      <trkpt lat="39.3039680" lon="-0.7689280">
        <ele>795.0</ele>
        <time>2018-09-16T10:25:05Z</time>
      </trkpt>
      <trkpt lat="39.3039870" lon="-0.7688950">
        <ele>795.0</ele>
        <time>2018-09-16T10:25:06Z</time>
      </trkpt>
      <trkpt lat="39.3039950" lon="-0.7688770">
        <ele>795.0</ele>
        <time>2018-09-16T10:25:07Z</time>
      </trkpt>
      <trkpt lat="39.3039950" lon="-0.7688770">
        <ele>795.0</ele>
        <time>2018-09-16T10:25:08Z</time>
      </trkpt>
      <trkpt lat="39.3040130" lon="-0.7688430">
        <ele>795.0</ele>
        <time>2018-09-16T10:25:09Z</time>
      </trkpt>
      <trkpt lat="39.3040130" lon="-0.7688430">
        <ele>795.0</ele>
        <time>2018-09-16T10:25:10Z</time>
      </trkpt>
      <trkpt lat="39.3040380" lon="-0.7688150">
        <ele>795.0</ele>
        <time>2018-09-16T10:25:11Z</time>
      </trkpt>
      <trkpt lat="39.3040480" lon="-0.7688030">
        <ele>795.0</ele>
        <time>2018-09-16T10:25:12Z</time>
      </trkpt>
      <trkpt lat="39.3040570" lon="-0.7687920">
        <ele>795.0</ele>
        <time>2018-09-16T10:25:13Z</time>
      </trkpt>
      <trkpt lat="39.3040570" lon="-0.7687920">
        <ele>795.0</ele>
        <time>2018-09-16T10:25:14Z</time>
      </trkpt>
      <trkpt lat="39.3040780" lon="-0.7687680">
        <ele>795.0</ele>
        <time>2018-09-16T10:25:15Z</time>
      </trkpt>
      <trkpt lat="39.3040780" lon="-0.7687680">
        <ele>795.0</ele>
        <time>2018-09-16T10:25:16Z</time>
      </trkpt>
      <trkpt lat="39.3040970" lon="-0.7687420">
        <ele>795.0</ele>
        <time>2018-09-16T10:25:17Z</time>
      </trkpt>
      <trkpt lat="39.3040970" lon="-0.7687420">
        <ele>795.0</ele>
        <time>2018-09-16T10:25:18Z</time>
      </trkpt>
      <trkpt lat="39.3041170" lon="-0.7687120">
        <ele>796.0</ele>
        <time>2018-09-16T10:25:19Z</time>
      </trkpt>
      <trkpt lat="39.3041170" lon="-0.7687120">
        <ele>796.0</ele>
        <time>2018-09-16T10:25:20Z</time>
      </trkpt>
      <trkpt lat="39.3041320" lon="-0.7686820">
        <ele>796.0</ele>
        <time>2018-09-16T10:25:21Z</time>
      </trkpt>
      <trkpt lat="39.3041320" lon="-0.7686820">
        <ele>796.0</ele>
        <time>2018-09-16T10:25:22Z</time>
      </trkpt>
      <trkpt lat="39.3041530" lon="-0.7686480">
        <ele>796.0</ele>
        <time>2018-09-16T10:25:23Z</time>
      </trkpt>
      <trkpt lat="39.3041650" lon="-0.7686300">
        <ele>796.0</ele>
        <time>2018-09-16T10:25:24Z</time>
      </trkpt>
      <trkpt lat="39.3041730" lon="-0.7686150">
        <ele>796.0</ele>
        <time>2018-09-16T10:25:25Z</time>
      </trkpt>
      <trkpt lat="39.3041730" lon="-0.7686150">
        <ele>796.0</ele>
        <time>2018-09-16T10:25:26Z</time>
      </trkpt>
      <trkpt lat="39.3041900" lon="-0.7685870">
        <ele>797.0</ele>
        <time>2018-09-16T10:25:27Z</time>
      </trkpt>
      <trkpt lat="39.3041980" lon="-0.7685720">
        <ele>797.0</ele>
        <time>2018-09-16T10:25:28Z</time>
      </trkpt>
      <trkpt lat="39.3041980" lon="-0.7685720">
        <ele>797.0</ele>
        <time>2018-09-16T10:25:29Z</time>
      </trkpt>
      <trkpt lat="39.3042120" lon="-0.7685430">
        <ele>797.0</ele>
        <time>2018-09-16T10:25:30Z</time>
      </trkpt>
      <trkpt lat="39.3042200" lon="-0.7685250">
        <ele>797.0</ele>
        <time>2018-09-16T10:25:31Z</time>
      </trkpt>
      <trkpt lat="39.3042200" lon="-0.7685250">
        <ele>797.0</ele>
        <time>2018-09-16T10:25:32Z</time>
      </trkpt>
      <trkpt lat="39.3042370" lon="-0.7684920">
        <ele>798.0</ele>
        <time>2018-09-16T10:25:33Z</time>
      </trkpt>
      <trkpt lat="39.3042370" lon="-0.7684920">
        <ele>798.0</ele>
        <time>2018-09-16T10:25:34Z</time>
      </trkpt>
      <trkpt lat="39.3042470" lon="-0.7684570">
        <ele>798.0</ele>
        <time>2018-09-16T10:25:35Z</time>
      </trkpt>
      <trkpt lat="39.3042470" lon="-0.7684570">
        <ele>798.0</ele>
        <time>2018-09-16T10:25:36Z</time>
      </trkpt>
      <trkpt lat="39.3042580" lon="-0.7684220">
        <ele>798.0</ele>
        <time>2018-09-16T10:25:37Z</time>
      </trkpt>
      <trkpt lat="39.3042580" lon="-0.7684220">
        <ele>799.0</ele>
        <time>2018-09-16T10:25:38Z</time>
      </trkpt>
      <trkpt lat="39.3042720" lon="-0.7683830">
        <ele>799.0</ele>
        <time>2018-09-16T10:25:39Z</time>
      </trkpt>
      <trkpt lat="39.3042780" lon="-0.7683670">
        <ele>799.0</ele>
        <time>2018-09-16T10:25:40Z</time>
      </trkpt>
      <trkpt lat="39.3042800" lon="-0.7683530">
        <ele>799.0</ele>
        <time>2018-09-16T10:25:41Z</time>
      </trkpt>
      <trkpt lat="39.3042800" lon="-0.7683530">
        <ele>799.0</ele>
        <time>2018-09-16T10:25:42Z</time>
      </trkpt>
      <trkpt lat="39.3042900" lon="-0.7683170">
        <ele>799.0</ele>
        <time>2018-09-16T10:25:43Z</time>
      </trkpt>
      <trkpt lat="39.3042930" lon="-0.7682950">
        <ele>799.0</ele>
        <time>2018-09-16T10:25:44Z</time>
      </trkpt>
      <trkpt lat="39.3042970" lon="-0.7682770">
        <ele>800.0</ele>
        <time>2018-09-16T10:25:45Z</time>
      </trkpt>
      <trkpt lat="39.3042970" lon="-0.7682770">
        <ele>800.0</ele>
        <time>2018-09-16T10:25:46Z</time>
      </trkpt>
      <trkpt lat="39.3043030" lon="-0.7682430">
        <ele>800.0</ele>
        <time>2018-09-16T10:25:47Z</time>
      </trkpt>
      <trkpt lat="39.3043030" lon="-0.7682430">
        <ele>800.0</ele>
        <time>2018-09-16T10:25:48Z</time>
      </trkpt>
      <trkpt lat="39.3043170" lon="-0.7682050">
        <ele>800.0</ele>
        <time>2018-09-16T10:25:49Z</time>
      </trkpt>
      <trkpt lat="39.3043170" lon="-0.7682050">
        <ele>800.0</ele>
        <time>2018-09-16T10:25:50Z</time>
      </trkpt>
      <trkpt lat="39.3043220" lon="-0.7681720">
        <ele>800.0</ele>
        <time>2018-09-16T10:25:51Z</time>
      </trkpt>
      <trkpt lat="39.3043220" lon="-0.7681720">
        <ele>800.0</ele>
        <time>2018-09-16T10:25:52Z</time>
      </trkpt>
      <trkpt lat="39.3043170" lon="-0.7681320">
        <ele>800.0</ele>
        <time>2018-09-16T10:25:53Z</time>
      </trkpt>
      <trkpt lat="39.3043180" lon="-0.7681180">
        <ele>800.0</ele>
        <time>2018-09-16T10:25:54Z</time>
      </trkpt>
      <trkpt lat="39.3043180" lon="-0.7681050">
        <ele>801.0</ele>
        <time>2018-09-16T10:25:55Z</time>
      </trkpt>
      <trkpt lat="39.3043180" lon="-0.7681050">
        <ele>801.0</ele>
        <time>2018-09-16T10:25:56Z</time>
      </trkpt>
      <trkpt lat="39.3043200" lon="-0.7680750">
        <ele>801.0</ele>
        <time>2018-09-16T10:25:57Z</time>
      </trkpt>
      <trkpt lat="39.3043220" lon="-0.7680600">
        <ele>801.0</ele>
        <time>2018-09-16T10:25:58Z</time>
      </trkpt>
      <trkpt lat="39.3043220" lon="-0.7680450">
        <ele>802.0</ele>
        <time>2018-09-16T10:25:59Z</time>
      </trkpt>
      <trkpt lat="39.3043220" lon="-0.7680450">
        <ele>802.0</ele>
        <time>2018-09-16T10:26:00Z</time>
      </trkpt>
      <trkpt lat="39.3043270" lon="-0.7680100">
        <ele>802.0</ele>
        <time>2018-09-16T10:26:01Z</time>
      </trkpt>
      <trkpt lat="39.3043270" lon="-0.7680100">
        <ele>802.0</ele>
        <time>2018-09-16T10:26:02Z</time>
      </trkpt>
      <trkpt lat="39.3043250" lon="-0.7679820">
        <ele>802.0</ele>
        <time>2018-09-16T10:26:03Z</time>
      </trkpt>
      <trkpt lat="39.3043250" lon="-0.7679820">
        <ele>803.0</ele>
        <time>2018-09-16T10:26:04Z</time>
      </trkpt>
      <trkpt lat="39.3043200" lon="-0.7679470">
        <ele>803.0</ele>
        <time>2018-09-16T10:26:05Z</time>
      </trkpt>
      <trkpt lat="39.3043200" lon="-0.7679470">
        <ele>803.0</ele>
        <time>2018-09-16T10:26:06Z</time>
      </trkpt>
      <trkpt lat="39.3043200" lon="-0.7679170">
        <ele>803.0</ele>
        <time>2018-09-16T10:26:07Z</time>
      </trkpt>
      <trkpt lat="39.3043200" lon="-0.7679170">
        <ele>803.0</ele>
        <time>2018-09-16T10:26:08Z</time>
      </trkpt>
      <trkpt lat="39.3043170" lon="-0.7678880">
        <ele>803.0</ele>
        <time>2018-09-16T10:26:09Z</time>
      </trkpt>
      <trkpt lat="39.3043170" lon="-0.7678880">
        <ele>804.0</ele>
        <time>2018-09-16T10:26:10Z</time>
      </trkpt>
      <trkpt lat="39.3043180" lon="-0.7678550">
        <ele>804.0</ele>
        <time>2018-09-16T10:26:11Z</time>
      </trkpt>
      <trkpt lat="39.3043180" lon="-0.7678550">
        <ele>804.0</ele>
        <time>2018-09-16T10:26:12Z</time>
      </trkpt>
      <trkpt lat="39.3043220" lon="-0.7678220">
        <ele>804.0</ele>
        <time>2018-09-16T10:26:13Z</time>
      </trkpt>
      <trkpt lat="39.3043220" lon="-0.7678220">
        <ele>804.0</ele>
        <time>2018-09-16T10:26:14Z</time>
      </trkpt>
      <trkpt lat="39.3043170" lon="-0.7677920">
        <ele>804.0</ele>
        <time>2018-09-16T10:26:15Z</time>
      </trkpt>
      <trkpt lat="39.3043170" lon="-0.7677920">
        <ele>804.0</ele>
        <time>2018-09-16T10:26:16Z</time>
      </trkpt>
      <trkpt lat="39.3043180" lon="-0.7677600">
        <ele>804.0</ele>
        <time>2018-09-16T10:26:17Z</time>
      </trkpt>
      <trkpt lat="39.3043180" lon="-0.7677600">
        <ele>804.0</ele>
        <time>2018-09-16T10:26:18Z</time>
      </trkpt>
      <trkpt lat="39.3043150" lon="-0.7677330">
        <ele>805.0</ele>
        <time>2018-09-16T10:26:19Z</time>
      </trkpt>
      <trkpt lat="39.3043150" lon="-0.7677330">
        <ele>805.0</ele>
        <time>2018-09-16T10:26:20Z</time>
      </trkpt>
      <trkpt lat="39.3043050" lon="-0.7677020">
        <ele>805.0</ele>
        <time>2018-09-16T10:26:21Z</time>
      </trkpt>
      <trkpt lat="39.3043050" lon="-0.7677020">
        <ele>805.0</ele>
        <time>2018-09-16T10:26:22Z</time>
      </trkpt>
      <trkpt lat="39.3042970" lon="-0.7676650">
        <ele>805.0</ele>
        <time>2018-09-16T10:26:23Z</time>
      </trkpt>
      <trkpt lat="39.3042970" lon="-0.7676650">
        <ele>805.0</ele>
        <time>2018-09-16T10:26:24Z</time>
      </trkpt>
      <trkpt lat="39.3042930" lon="-0.7676270">
        <ele>805.0</ele>
        <time>2018-09-16T10:26:25Z</time>
      </trkpt>
      <trkpt lat="39.3042930" lon="-0.7676270">
        <ele>805.0</ele>
        <time>2018-09-16T10:26:26Z</time>
      </trkpt>
      <trkpt lat="39.3042920" lon="-0.7675900">
        <ele>806.0</ele>
        <time>2018-09-16T10:26:27Z</time>
      </trkpt>
      <trkpt lat="39.3042880" lon="-0.7675720">
        <ele>806.0</ele>
        <time>2018-09-16T10:26:28Z</time>
      </trkpt>
      <trkpt lat="39.3042880" lon="-0.7675720">
        <ele>806.0</ele>
        <time>2018-09-16T10:26:29Z</time>
      </trkpt>
      <trkpt lat="39.3042830" lon="-0.7675330">
        <ele>806.0</ele>
        <time>2018-09-16T10:26:30Z</time>
      </trkpt>
      <trkpt lat="39.3042820" lon="-0.7675150">
        <ele>806.0</ele>
        <time>2018-09-16T10:26:31Z</time>
      </trkpt>
      <trkpt lat="39.3042820" lon="-0.7675150">
        <ele>806.0</ele>
        <time>2018-09-16T10:26:32Z</time>
      </trkpt>
      <trkpt lat="39.3042780" lon="-0.7674750">
        <ele>806.0</ele>
        <time>2018-09-16T10:26:33Z</time>
      </trkpt>
      <trkpt lat="39.3042780" lon="-0.7674750">
        <ele>807.0</ele>
        <time>2018-09-16T10:26:34Z</time>
      </trkpt>
      <trkpt lat="39.3042750" lon="-0.7674380">
        <ele>807.0</ele>
        <time>2018-09-16T10:26:35Z</time>
      </trkpt>
      <trkpt lat="39.3042750" lon="-0.7674380">
        <ele>807.0</ele>
        <time>2018-09-16T10:26:36Z</time>
      </trkpt>
      <trkpt lat="39.3042680" lon="-0.7674020">
        <ele>807.0</ele>
        <time>2018-09-16T10:26:37Z</time>
      </trkpt>
      <trkpt lat="39.3042680" lon="-0.7674020">
        <ele>808.0</ele>
        <time>2018-09-16T10:26:38Z</time>
      </trkpt>
      <trkpt lat="39.3042620" lon="-0.7673670">
        <ele>808.0</ele>
        <time>2018-09-16T10:26:39Z</time>
      </trkpt>
      <trkpt lat="39.3042570" lon="-0.7673500">
        <ele>808.0</ele>
        <time>2018-09-16T10:26:40Z</time>
      </trkpt>
      <trkpt lat="39.3042570" lon="-0.7673500">
        <ele>808.0</ele>
        <time>2018-09-16T10:26:41Z</time>
      </trkpt>
      <trkpt lat="39.3042470" lon="-0.7673130">
        <ele>809.0</ele>
        <time>2018-09-16T10:26:42Z</time>
      </trkpt>
      <trkpt lat="39.3042470" lon="-0.7673130">
        <ele>809.0</ele>
        <time>2018-09-16T10:26:43Z</time>
      </trkpt>
      <trkpt lat="39.3042420" lon="-0.7672770">
        <ele>809.0</ele>
        <time>2018-09-16T10:26:44Z</time>
      </trkpt>
      <trkpt lat="39.3042420" lon="-0.7672770">
        <ele>809.0</ele>
        <time>2018-09-16T10:26:45Z</time>
      </trkpt>
      <trkpt lat="39.3042370" lon="-0.7672350">
        <ele>809.0</ele>
        <time>2018-09-16T10:26:46Z</time>
      </trkpt>
      <trkpt lat="39.3042370" lon="-0.7672350">
        <ele>809.0</ele>
        <time>2018-09-16T10:26:47Z</time>
      </trkpt>
      <trkpt lat="39.3042270" lon="-0.7671930">
        <ele>810.0</ele>
        <time>2018-09-16T10:26:48Z</time>
      </trkpt>
      <trkpt lat="39.3042270" lon="-0.7671930">
        <ele>810.0</ele>
        <time>2018-09-16T10:26:49Z</time>
      </trkpt>
      <trkpt lat="39.3042200" lon="-0.7671520">
        <ele>810.0</ele>
        <time>2018-09-16T10:26:50Z</time>
      </trkpt>
      <trkpt lat="39.3042180" lon="-0.7671320">
        <ele>810.0</ele>
        <time>2018-09-16T10:26:51Z</time>
      </trkpt>
      <trkpt lat="39.3042170" lon="-0.7671100">
        <ele>811.0</ele>
        <time>2018-09-16T10:26:52Z</time>
      </trkpt>
      <trkpt lat="39.3042170" lon="-0.7671100">
        <ele>811.0</ele>
        <time>2018-09-16T10:26:53Z</time>
      </trkpt>
      <trkpt lat="39.3042100" lon="-0.7670670">
        <ele>811.0</ele>
        <time>2018-09-16T10:26:54Z</time>
      </trkpt>
      <trkpt lat="39.3042070" lon="-0.7670470">
        <ele>811.0</ele>
        <time>2018-09-16T10:26:55Z</time>
      </trkpt>
      <trkpt lat="39.3042070" lon="-0.7670470">
        <ele>811.0</ele>
        <time>2018-09-16T10:26:56Z</time>
      </trkpt>
      <trkpt lat="39.3041980" lon="-0.7670030">
        <ele>812.0</ele>
        <time>2018-09-16T10:26:57Z</time>
      </trkpt>
      <trkpt lat="39.3041970" lon="-0.7669820">
        <ele>812.0</ele>
        <time>2018-09-16T10:26:58Z</time>
      </trkpt>
      <trkpt lat="39.3041920" lon="-0.7669580">
        <ele>812.0</ele>
        <time>2018-09-16T10:26:59Z</time>
      </trkpt>
      <trkpt lat="39.3041920" lon="-0.7669580">
        <ele>812.0</ele>
        <time>2018-09-16T10:27:00Z</time>
      </trkpt>
      <trkpt lat="39.3041820" lon="-0.7669120">
        <ele>812.0</ele>
        <time>2018-09-16T10:27:01Z</time>
      </trkpt>
      <trkpt lat="39.3041820" lon="-0.7669120">
        <ele>812.0</ele>
        <time>2018-09-16T10:27:02Z</time>
      </trkpt>
      <trkpt lat="39.3041720" lon="-0.7668650">
        <ele>812.0</ele>
        <time>2018-09-16T10:27:03Z</time>
      </trkpt>
      <trkpt lat="39.3041720" lon="-0.7668650">
        <ele>812.0</ele>
        <time>2018-09-16T10:27:04Z</time>
      </trkpt>
      <trkpt lat="39.3041650" lon="-0.7668170">
        <ele>812.0</ele>
        <time>2018-09-16T10:27:05Z</time>
      </trkpt>
      <trkpt lat="39.3041650" lon="-0.7668170">
        <ele>812.0</ele>
        <time>2018-09-16T10:27:06Z</time>
      </trkpt>
      <trkpt lat="39.3041620" lon="-0.7667680">
        <ele>812.0</ele>
        <time>2018-09-16T10:27:07Z</time>
      </trkpt>
      <trkpt lat="39.3041620" lon="-0.7667680">
        <ele>812.0</ele>
        <time>2018-09-16T10:27:08Z</time>
      </trkpt>
      <trkpt lat="39.3042250" lon="-0.7666880">
        <ele>812.0</ele>
        <time>2018-09-16T10:31:34Z</time>
      </trkpt>
      <trkpt lat="39.3042250" lon="-0.7666880">
        <ele>812.0</ele>
        <time>2018-09-16T10:31:35Z</time>
      </trkpt>
      <trkpt lat="39.3042400" lon="-0.7667180">
        <ele>812.0</ele>
        <time>2018-09-16T10:31:36Z</time>
      </trkpt>
      <trkpt lat="39.3042530" lon="-0.7667400">
        <ele>812.0</ele>
        <time>2018-09-16T10:31:37Z</time>
      </trkpt>
      <trkpt lat="39.3042570" lon="-0.7667500">
        <ele>812.0</ele>
        <time>2018-09-16T10:31:38Z</time>
      </trkpt>
      <trkpt lat="39.3042600" lon="-0.7667600">
        <ele>813.0</ele>
        <time>2018-09-16T10:31:39Z</time>
      </trkpt>
      <trkpt lat="39.3042600" lon="-0.7667600">
        <ele>813.0</ele>
        <time>2018-09-16T10:31:40Z</time>
      </trkpt>
      <trkpt lat="39.3042700" lon="-0.7667880">
        <ele>813.0</ele>
        <time>2018-09-16T10:31:41Z</time>
      </trkpt>
      <trkpt lat="39.3042730" lon="-0.7668030">
        <ele>813.0</ele>
        <time>2018-09-16T10:31:42Z</time>
      </trkpt>
      <trkpt lat="39.3042730" lon="-0.7668030">
        <ele>813.0</ele>
        <time>2018-09-16T10:31:43Z</time>
      </trkpt>
      <trkpt lat="39.3042800" lon="-0.7668300">
        <ele>814.0</ele>
        <time>2018-09-16T10:31:44Z</time>
      </trkpt>
      <trkpt lat="39.3042800" lon="-0.7668300">
        <ele>814.0</ele>
        <time>2018-09-16T10:31:45Z</time>
      </trkpt>
      <trkpt lat="39.3042830" lon="-0.7668450">
        <ele>814.0</ele>
        <time>2018-09-16T10:31:46Z</time>
      </trkpt>
      <trkpt lat="39.3042850" lon="-0.7668580">
        <ele>814.0</ele>
        <time>2018-09-16T10:31:47Z</time>
      </trkpt>
      <trkpt lat="39.3042850" lon="-0.7668580">
        <ele>814.0</ele>
        <time>2018-09-16T10:31:48Z</time>
      </trkpt>
      <trkpt lat="39.3042930" lon="-0.7668850">
        <ele>814.0</ele>
        <time>2018-09-16T10:31:49Z</time>
      </trkpt>
      <trkpt lat="39.3042930" lon="-0.7668850">
        <ele>815.0</ele>
        <time>2018-09-16T10:31:50Z</time>
      </trkpt>
      <trkpt lat="39.3043020" lon="-0.7669150">
        <ele>815.0</ele>
        <time>2018-09-16T10:31:51Z</time>
      </trkpt>
      <trkpt lat="39.3043070" lon="-0.7669300">
        <ele>815.0</ele>
        <time>2018-09-16T10:31:52Z</time>
      </trkpt>
      <trkpt lat="39.3043120" lon="-0.7669440">
        <ele>815.0</ele>
        <time>2018-09-16T10:31:53Z</time>
      </trkpt>
      <trkpt lat="39.3043170" lon="-0.7669590">
        <ele>815.0</ele>
        <time>2018-09-16T10:31:54Z</time>
      </trkpt>
      <trkpt lat="39.3043220" lon="-0.7669740">
        <ele>815.0</ele>
        <time>2018-09-16T10:31:55Z</time>
      </trkpt>
      <trkpt lat="39.3043270" lon="-0.7669880">
        <ele>816.0</ele>
        <time>2018-09-16T10:31:56Z</time>
      </trkpt>
      <trkpt lat="39.3043320" lon="-0.7670030">
        <ele>816.0</ele>
        <time>2018-09-16T10:31:57Z</time>
      </trkpt>
      <trkpt lat="39.3043370" lon="-0.7670180">
        <ele>816.0</ele>
        <time>2018-09-16T10:31:58Z</time>
      </trkpt>
      <trkpt lat="39.3043370" lon="-0.7670180">
        <ele>816.0</ele>
        <time>2018-09-16T10:31:59Z</time>
      </trkpt>
      <trkpt lat="39.3043470" lon="-0.7670520">
        <ele>816.0</ele>
        <time>2018-09-16T10:32:00Z</time>
      </trkpt>
      <trkpt lat="39.3043520" lon="-0.7670680">
        <ele>816.0</ele>
        <time>2018-09-16T10:32:01Z</time>
      </trkpt>
      <trkpt lat="39.3043520" lon="-0.7670680">
        <ele>816.0</ele>
        <time>2018-09-16T10:32:02Z</time>
      </trkpt>
      <trkpt lat="39.3043650" lon="-0.7671000">
        <ele>816.0</ele>
        <time>2018-09-16T10:32:03Z</time>
      </trkpt>
      <trkpt lat="39.3043650" lon="-0.7671000">
        <ele>816.0</ele>
        <time>2018-09-16T10:32:04Z</time>
      </trkpt>
      <trkpt lat="39.3043800" lon="-0.7671300">
        <ele>816.0</ele>
        <time>2018-09-16T10:32:05Z</time>
      </trkpt>
      <trkpt lat="39.3043800" lon="-0.7671300">
        <ele>817.0</ele>
        <time>2018-09-16T10:32:06Z</time>
      </trkpt>
      <trkpt lat="39.3043970" lon="-0.7671620">
        <ele>817.0</ele>
        <time>2018-09-16T10:32:07Z</time>
      </trkpt>
      <trkpt lat="39.3043970" lon="-0.7671620">
        <ele>817.0</ele>
        <time>2018-09-16T10:32:08Z</time>
      </trkpt>
      <trkpt lat="39.3044130" lon="-0.7671980">
        <ele>817.0</ele>
        <time>2018-09-16T10:32:09Z</time>
      </trkpt>
      <trkpt lat="39.3044130" lon="-0.7671980">
        <ele>817.0</ele>
        <time>2018-09-16T10:32:10Z</time>
      </trkpt>
      <trkpt lat="39.3044300" lon="-0.7672350">
        <ele>817.0</ele>
        <time>2018-09-16T10:32:11Z</time>
      </trkpt>
      <trkpt lat="39.3044370" lon="-0.7672520">
        <ele>817.0</ele>
        <time>2018-09-16T10:32:12Z</time>
      </trkpt>
      <trkpt lat="39.3044370" lon="-0.7672520">
        <ele>818.0</ele>
        <time>2018-09-16T10:32:13Z</time>
      </trkpt>
      <trkpt lat="39.3044520" lon="-0.7672850">
        <ele>818.0</ele>
        <time>2018-09-16T10:32:14Z</time>
      </trkpt>
      <trkpt lat="39.3044520" lon="-0.7672850">
        <ele>818.0</ele>
        <time>2018-09-16T10:32:15Z</time>
      </trkpt>
      <trkpt lat="39.3044650" lon="-0.7673230">
        <ele>818.0</ele>
        <time>2018-09-16T10:32:16Z</time>
      </trkpt>
      <trkpt lat="39.3044650" lon="-0.7673230">
        <ele>818.0</ele>
        <time>2018-09-16T10:32:17Z</time>
      </trkpt>
      <trkpt lat="39.3044800" lon="-0.7673550">
        <ele>818.0</ele>
        <time>2018-09-16T10:32:18Z</time>
      </trkpt>
      <trkpt lat="39.3044850" lon="-0.7673700">
        <ele>819.0</ele>
        <time>2018-09-16T10:32:19Z</time>
      </trkpt>
      <trkpt lat="39.3044850" lon="-0.7673700">
        <ele>819.0</ele>
        <time>2018-09-16T10:32:20Z</time>
      </trkpt>
      <trkpt lat="39.3044970" lon="-0.7673980">
        <ele>819.0</ele>
        <time>2018-09-16T10:32:21Z</time>
      </trkpt>
      <trkpt lat="39.3044970" lon="-0.7673980">
        <ele>819.0</ele>
        <time>2018-09-16T10:32:22Z</time>
      </trkpt>
      <trkpt lat="39.3045080" lon="-0.7674280">
        <ele>819.0</ele>
        <time>2018-09-16T10:32:23Z</time>
      </trkpt>
      <trkpt lat="39.3045130" lon="-0.7674420">
        <ele>820.0</ele>
        <time>2018-09-16T10:32:24Z</time>
      </trkpt>
      <trkpt lat="39.3045130" lon="-0.7674420">
        <ele>820.0</ele>
        <time>2018-09-16T10:32:25Z</time>
      </trkpt>
      <trkpt lat="39.3045230" lon="-0.7674720">
        <ele>820.0</ele>
        <time>2018-09-16T10:32:26Z</time>
      </trkpt>
      <trkpt lat="39.3045280" lon="-0.7674850">
        <ele>820.0</ele>
        <time>2018-09-16T10:32:27Z</time>
      </trkpt>
      <trkpt lat="39.3045280" lon="-0.7674850">
        <ele>821.0</ele>
        <time>2018-09-16T10:32:28Z</time>
      </trkpt>
      <trkpt lat="39.3045370" lon="-0.7675180">
        <ele>821.0</ele>
        <time>2018-09-16T10:32:29Z</time>
      </trkpt>
      <trkpt lat="39.3045450" lon="-0.7675390">
        <ele>821.0</ele>
        <time>2018-09-16T10:32:30Z</time>
      </trkpt>
      <trkpt lat="39.3045520" lon="-0.7675600">
        <ele>821.0</ele>
        <time>2018-09-16T10:32:31Z</time>
      </trkpt>
      <trkpt lat="39.3045600" lon="-0.7675800">
        <ele>821.0</ele>
        <time>2018-09-16T10:32:32Z</time>
      </trkpt>
      <trkpt lat="39.3045670" lon="-0.7676010">
        <ele>821.0</ele>
        <time>2018-09-16T10:32:33Z</time>
      </trkpt>
      <trkpt lat="39.3045750" lon="-0.7676220">
        <ele>821.0</ele>
        <time>2018-09-16T10:32:34Z</time>
      </trkpt>
      <trkpt lat="39.3045820" lon="-0.7676430">
        <ele>821.0</ele>
        <time>2018-09-16T10:32:35Z</time>
      </trkpt>
      <trkpt lat="39.3045820" lon="-0.7676430">
        <ele>821.0</ele>
        <time>2018-09-16T10:32:36Z</time>
      </trkpt>
      <trkpt lat="39.3045970" lon="-0.7676950">
        <ele>821.0</ele>
        <time>2018-09-16T10:32:37Z</time>
      </trkpt>
      <trkpt lat="39.3045970" lon="-0.7676950">
        <ele>822.0</ele>
        <time>2018-09-16T10:32:38Z</time>
      </trkpt>
      <trkpt lat="39.3046150" lon="-0.7677430">
        <ele>822.0</ele>
        <time>2018-09-16T10:32:39Z</time>
      </trkpt>
      <trkpt lat="39.3046150" lon="-0.7677430">
        <ele>822.0</ele>
        <time>2018-09-16T10:32:40Z</time>
      </trkpt>
      <trkpt lat="39.3046300" lon="-0.7677920">
        <ele>822.0</ele>
        <time>2018-09-16T10:32:41Z</time>
      </trkpt>
      <trkpt lat="39.3046300" lon="-0.7677920">
        <ele>823.0</ele>
        <time>2018-09-16T10:32:42Z</time>
      </trkpt>
      <trkpt lat="39.3046470" lon="-0.7678490">
        <ele>823.0</ele>
        <time>2018-09-16T10:32:43Z</time>
      </trkpt>
      <trkpt lat="39.3046510" lon="-0.7678600">
        <ele>823.0</ele>
        <time>2018-09-16T10:32:44Z</time>
      </trkpt>
      <trkpt lat="39.3046550" lon="-0.7678720">
        <ele>823.0</ele>
        <time>2018-09-16T10:32:45Z</time>
      </trkpt>
      <trkpt lat="39.3046620" lon="-0.7678900">
        <ele>824.0</ele>
        <time>2018-09-16T10:32:46Z</time>
      </trkpt>
      <trkpt lat="39.3046620" lon="-0.7678900">
        <ele>824.0</ele>
        <time>2018-09-16T10:32:47Z</time>
      </trkpt>
      <trkpt lat="39.3046720" lon="-0.7679300">
        <ele>825.0</ele>
        <time>2018-09-16T10:32:48Z</time>
      </trkpt>
      <trkpt lat="39.3046750" lon="-0.7679480">
        <ele>825.0</ele>
        <time>2018-09-16T10:32:49Z</time>
      </trkpt>
      <trkpt lat="39.3046750" lon="-0.7679480">
        <ele>825.0</ele>
        <time>2018-09-16T10:32:50Z</time>
      </trkpt>
      <trkpt lat="39.3046850" lon="-0.7679900">
        <ele>825.0</ele>
        <time>2018-09-16T10:32:51Z</time>
      </trkpt>
      <trkpt lat="39.3046850" lon="-0.7679900">
        <ele>826.0</ele>
        <time>2018-09-16T10:32:52Z</time>
      </trkpt>
      <trkpt lat="39.3046950" lon="-0.7680320">
        <ele>826.0</ele>
        <time>2018-09-16T10:32:53Z</time>
      </trkpt>
      <trkpt lat="39.3046950" lon="-0.7680320">
        <ele>826.0</ele>
        <time>2018-09-16T10:32:54Z</time>
      </trkpt>
      <trkpt lat="39.3047000" lon="-0.7680770">
        <ele>826.0</ele>
        <time>2018-09-16T10:32:55Z</time>
      </trkpt>
      <trkpt lat="39.3047000" lon="-0.7680770">
        <ele>826.0</ele>
        <time>2018-09-16T10:32:56Z</time>
      </trkpt>
      <trkpt lat="39.3047130" lon="-0.7681180">
        <ele>826.0</ele>
        <time>2018-09-16T10:32:57Z</time>
      </trkpt>
      <trkpt lat="39.3047130" lon="-0.7681180">
        <ele>826.0</ele>
        <time>2018-09-16T10:32:58Z</time>
      </trkpt>
      <trkpt lat="39.3047230" lon="-0.7681600">
        <ele>826.0</ele>
        <time>2018-09-16T10:32:59Z</time>
      </trkpt>
      <trkpt lat="39.3047230" lon="-0.7681600">
        <ele>826.0</ele>
        <time>2018-09-16T10:33:00Z</time>
      </trkpt>
      <trkpt lat="39.3047320" lon="-0.7681980">
        <ele>826.0</ele>
        <time>2018-09-16T10:33:01Z</time>
      </trkpt>
      <trkpt lat="39.3047320" lon="-0.7681980">
        <ele>826.0</ele>
        <time>2018-09-16T10:33:02Z</time>
      </trkpt>
      <trkpt lat="39.3047400" lon="-0.7682380">
        <ele>826.0</ele>
        <time>2018-09-16T10:33:03Z</time>
      </trkpt>
      <trkpt lat="39.3047400" lon="-0.7682380">
        <ele>828.0</ele>
        <time>2018-09-16T10:33:04Z</time>
      </trkpt>
      <trkpt lat="39.3047470" lon="-0.7682780">
        <ele>828.0</ele>
        <time>2018-09-16T10:33:05Z</time>
      </trkpt>
      <trkpt lat="39.3047480" lon="-0.7683000">
        <ele>828.0</ele>
        <time>2018-09-16T10:33:06Z</time>
      </trkpt>
      <trkpt lat="39.3047500" lon="-0.7683220">
        <ele>828.0</ele>
        <time>2018-09-16T10:33:07Z</time>
      </trkpt>
      <trkpt lat="39.3047500" lon="-0.7683220">
        <ele>828.0</ele>
        <time>2018-09-16T10:33:08Z</time>
      </trkpt>
      <trkpt lat="39.3047500" lon="-0.7683650">
        <ele>828.0</ele>
        <time>2018-09-16T10:33:09Z</time>
      </trkpt>
      <trkpt lat="39.3047530" lon="-0.7683870">
        <ele>828.0</ele>
        <time>2018-09-16T10:33:10Z</time>
      </trkpt>
      <trkpt lat="39.3047530" lon="-0.7683870">
        <ele>828.0</ele>
        <time>2018-09-16T10:33:11Z</time>
      </trkpt>
      <trkpt lat="39.3047530" lon="-0.7684280">
        <ele>829.0</ele>
        <time>2018-09-16T10:33:12Z</time>
      </trkpt>
      <trkpt lat="39.3047550" lon="-0.7684470">
        <ele>829.0</ele>
        <time>2018-09-16T10:33:13Z</time>
      </trkpt>
      <trkpt lat="39.3047550" lon="-0.7684470">
        <ele>829.0</ele>
        <time>2018-09-16T10:33:14Z</time>
      </trkpt>
      <trkpt lat="39.3047570" lon="-0.7684850">
        <ele>829.0</ele>
        <time>2018-09-16T10:33:15Z</time>
      </trkpt>
      <trkpt lat="39.3047570" lon="-0.7685050">
        <ele>829.0</ele>
        <time>2018-09-16T10:33:16Z</time>
      </trkpt>
      <trkpt lat="39.3047580" lon="-0.7685230">
        <ele>829.0</ele>
        <time>2018-09-16T10:33:17Z</time>
      </trkpt>
      <trkpt lat="39.3047580" lon="-0.7685230">
        <ele>830.0</ele>
        <time>2018-09-16T10:33:18Z</time>
      </trkpt>
      <trkpt lat="39.3047580" lon="-0.7685630">
        <ele>830.0</ele>
        <time>2018-09-16T10:33:19Z</time>
      </trkpt>
      <trkpt lat="39.3047580" lon="-0.7685630">
        <ele>830.0</ele>
        <time>2018-09-16T10:33:20Z</time>
      </trkpt>
      <trkpt lat="39.3047570" lon="-0.7686050">
        <ele>831.0</ele>
        <time>2018-09-16T10:33:21Z</time>
      </trkpt>
      <trkpt lat="39.3047570" lon="-0.7686050">
        <ele>831.0</ele>
        <time>2018-09-16T10:33:22Z</time>
      </trkpt>
      <trkpt lat="39.3047550" lon="-0.7686430">
        <ele>831.0</ele>
        <time>2018-09-16T10:33:23Z</time>
      </trkpt>
      <trkpt lat="39.3047550" lon="-0.7686430">
        <ele>831.0</ele>
        <time>2018-09-16T10:33:24Z</time>
      </trkpt>
      <trkpt lat="39.3047520" lon="-0.7686850">
        <ele>831.0</ele>
        <time>2018-09-16T10:33:25Z</time>
      </trkpt>
      <trkpt lat="39.3047520" lon="-0.7686850">
        <ele>831.0</ele>
        <time>2018-09-16T10:33:26Z</time>
      </trkpt>
      <trkpt lat="39.3047530" lon="-0.7687250">
        <ele>831.0</ele>
        <time>2018-09-16T10:33:27Z</time>
      </trkpt>
      <trkpt lat="39.3047530" lon="-0.7687250">
        <ele>831.0</ele>
        <time>2018-09-16T10:33:28Z</time>
      </trkpt>
      <trkpt lat="39.3047520" lon="-0.7687650">
        <ele>831.0</ele>
        <time>2018-09-16T10:33:29Z</time>
      </trkpt>
      <trkpt lat="39.3047520" lon="-0.7687650">
        <ele>831.0</ele>
        <time>2018-09-16T10:33:30Z</time>
      </trkpt>
      <trkpt lat="39.3047420" lon="-0.7688030">
        <ele>831.0</ele>
        <time>2018-09-16T10:33:31Z</time>
      </trkpt>
      <trkpt lat="39.3047420" lon="-0.7688030">
        <ele>831.0</ele>
        <time>2018-09-16T10:33:32Z</time>
      </trkpt>
      <trkpt lat="39.3047350" lon="-0.7688400">
        <ele>831.0</ele>
        <time>2018-09-16T10:33:33Z</time>
      </trkpt>
      <trkpt lat="39.3047300" lon="-0.7688580">
        <ele>831.0</ele>
        <time>2018-09-16T10:33:34Z</time>
      </trkpt>
      <trkpt lat="39.3047300" lon="-0.7688580">
        <ele>831.0</ele>
        <time>2018-09-16T10:33:35Z</time>
      </trkpt>
      <trkpt lat="39.3047180" lon="-0.7688970">
        <ele>831.0</ele>
        <time>2018-09-16T10:33:36Z</time>
      </trkpt>
      <trkpt lat="39.3047180" lon="-0.7688970">
        <ele>833.0</ele>
        <time>2018-09-16T10:33:37Z</time>
      </trkpt>
      <trkpt lat="39.3047070" lon="-0.7689350">
        <ele>833.0</ele>
        <time>2018-09-16T10:33:38Z</time>
      </trkpt>
      <trkpt lat="39.3047020" lon="-0.7689550">
        <ele>833.0</ele>
        <time>2018-09-16T10:33:39Z</time>
      </trkpt>
      <trkpt lat="39.3047020" lon="-0.7689550">
        <ele>833.0</ele>
        <time>2018-09-16T10:33:40Z</time>
      </trkpt>
      <trkpt lat="39.3046920" lon="-0.7689950">
        <ele>833.0</ele>
        <time>2018-09-16T10:33:41Z</time>
      </trkpt>
      <trkpt lat="39.3046880" lon="-0.7690170">
        <ele>833.0</ele>
        <time>2018-09-16T10:33:42Z</time>
      </trkpt>
      <trkpt lat="39.3046880" lon="-0.7690170">
        <ele>833.0</ele>
        <time>2018-09-16T10:33:43Z</time>
      </trkpt>
      <trkpt lat="39.3046780" lon="-0.7690570">
        <ele>833.0</ele>
        <time>2018-09-16T10:33:44Z</time>
      </trkpt>
      <trkpt lat="39.3046730" lon="-0.7690770">
        <ele>833.0</ele>
        <time>2018-09-16T10:33:45Z</time>
      </trkpt>
      <trkpt lat="39.3046730" lon="-0.7690770">
        <ele>834.0</ele>
        <time>2018-09-16T10:33:46Z</time>
      </trkpt>
      <trkpt lat="39.3046620" lon="-0.7691130">
        <ele>834.0</ele>
        <time>2018-09-16T10:33:47Z</time>
      </trkpt>
      <trkpt lat="39.3046570" lon="-0.7691320">
        <ele>834.0</ele>
        <time>2018-09-16T10:33:48Z</time>
      </trkpt>
      <trkpt lat="39.3046480" lon="-0.7691500">
        <ele>834.0</ele>
        <time>2018-09-16T10:33:49Z</time>
      </trkpt>
      <trkpt lat="39.3046480" lon="-0.7691500">
        <ele>834.0</ele>
        <time>2018-09-16T10:33:50Z</time>
      </trkpt>
      <trkpt lat="39.3046400" lon="-0.7691830">
        <ele>834.0</ele>
        <time>2018-09-16T10:33:51Z</time>
      </trkpt>
      <trkpt lat="39.3046400" lon="-0.7691830">
        <ele>835.0</ele>
        <time>2018-09-16T10:33:52Z</time>
      </trkpt>
      <trkpt lat="39.3046370" lon="-0.7692170">
        <ele>835.0</ele>
        <time>2018-09-16T10:33:53Z</time>
      </trkpt>
      <trkpt lat="39.3046370" lon="-0.7692170">
        <ele>835.0</ele>
        <time>2018-09-16T10:33:54Z</time>
      </trkpt>
      <trkpt lat="39.3046350" lon="-0.7692470">
        <ele>835.0</ele>
        <time>2018-09-16T10:33:55Z</time>
      </trkpt>
      <trkpt lat="39.3046350" lon="-0.7692470">
        <ele>836.0</ele>
        <time>2018-09-16T10:33:56Z</time>
      </trkpt>
      <trkpt lat="39.3046300" lon="-0.7692780">
        <ele>836.0</ele>
        <time>2018-09-16T10:33:57Z</time>
      </trkpt>
      <trkpt lat="39.3046300" lon="-0.7692780">
        <ele>836.0</ele>
        <time>2018-09-16T10:33:58Z</time>
      </trkpt>
      <trkpt lat="39.3046270" lon="-0.7693170">
        <ele>836.0</ele>
        <time>2018-09-16T10:33:59Z</time>
      </trkpt>
      <trkpt lat="39.3046270" lon="-0.7693170">
        <ele>836.0</ele>
        <time>2018-09-16T10:34:00Z</time>
      </trkpt>
      <trkpt lat="39.3046250" lon="-0.7693550">
        <ele>836.0</ele>
        <time>2018-09-16T10:34:01Z</time>
      </trkpt>
      <trkpt lat="39.3046250" lon="-0.7693550">
        <ele>837.0</ele>
        <time>2018-09-16T10:34:02Z</time>
      </trkpt>
      <trkpt lat="39.3046250" lon="-0.7693920">
        <ele>837.0</ele>
        <time>2018-09-16T10:34:03Z</time>
      </trkpt>
      <trkpt lat="39.3046250" lon="-0.7693920">
        <ele>837.0</ele>
        <time>2018-09-16T10:34:04Z</time>
      </trkpt>
      <trkpt lat="39.3046280" lon="-0.7694280">
        <ele>837.0</ele>
        <time>2018-09-16T10:34:05Z</time>
      </trkpt>
      <trkpt lat="39.3046280" lon="-0.7694280">
        <ele>838.0</ele>
        <time>2018-09-16T10:34:06Z</time>
      </trkpt>
      <trkpt lat="39.3046330" lon="-0.7694630">
        <ele>838.0</ele>
        <time>2018-09-16T10:34:07Z</time>
      </trkpt>
      <trkpt lat="39.3046330" lon="-0.7694630">
        <ele>838.0</ele>
        <time>2018-09-16T10:34:08Z</time>
      </trkpt>
      <trkpt lat="39.3046400" lon="-0.7694980">
        <ele>838.0</ele>
        <time>2018-09-16T10:34:09Z</time>
      </trkpt>
      <trkpt lat="39.3046400" lon="-0.7694980">
        <ele>839.0</ele>
        <time>2018-09-16T10:34:10Z</time>
      </trkpt>
      <trkpt lat="39.3046470" lon="-0.7695320">
        <ele>839.0</ele>
        <time>2018-09-16T10:34:11Z</time>
      </trkpt>
      <trkpt lat="39.3046470" lon="-0.7695320">
        <ele>839.0</ele>
        <time>2018-09-16T10:34:12Z</time>
      </trkpt>
      <trkpt lat="39.3046600" lon="-0.7695630">
        <ele>840.0</ele>
        <time>2018-09-16T10:34:13Z</time>
      </trkpt>
      <trkpt lat="39.3046600" lon="-0.7695630">
        <ele>840.0</ele>
        <time>2018-09-16T10:34:14Z</time>
      </trkpt>
      <trkpt lat="39.3046700" lon="-0.7696000">
        <ele>840.0</ele>
        <time>2018-09-16T10:34:15Z</time>
      </trkpt>
      <trkpt lat="39.3046750" lon="-0.7696180">
        <ele>840.0</ele>
        <time>2018-09-16T10:34:16Z</time>
      </trkpt>
      <trkpt lat="39.3046820" lon="-0.7696330">
        <ele>840.0</ele>
        <time>2018-09-16T10:34:17Z</time>
      </trkpt>
      <trkpt lat="39.3046820" lon="-0.7696330">
        <ele>840.0</ele>
        <time>2018-09-16T10:34:18Z</time>
      </trkpt>
      <trkpt lat="39.3046980" lon="-0.7696630">
        <ele>841.0</ele>
        <time>2018-09-16T10:34:19Z</time>
      </trkpt>
      <trkpt lat="39.3046980" lon="-0.7696630">
        <ele>841.0</ele>
        <time>2018-09-16T10:34:20Z</time>
      </trkpt>
      <trkpt lat="39.3047100" lon="-0.7696950">
        <ele>841.0</ele>
        <time>2018-09-16T10:34:21Z</time>
      </trkpt>
      <trkpt lat="39.3047180" lon="-0.7697120">
        <ele>841.0</ele>
        <time>2018-09-16T10:34:22Z</time>
      </trkpt>
      <trkpt lat="39.3047270" lon="-0.7697280">
        <ele>842.0</ele>
        <time>2018-09-16T10:34:23Z</time>
      </trkpt>
      <trkpt lat="39.3047270" lon="-0.7697280">
        <ele>842.0</ele>
        <time>2018-09-16T10:34:24Z</time>
      </trkpt>
      <trkpt lat="39.3047400" lon="-0.7697620">
        <ele>842.0</ele>
        <time>2018-09-16T10:34:25Z</time>
      </trkpt>
      <trkpt lat="39.3047400" lon="-0.7697620">
        <ele>842.0</ele>
        <time>2018-09-16T10:34:26Z</time>
      </trkpt>
      <trkpt lat="39.3047520" lon="-0.7697950">
        <ele>843.0</ele>
        <time>2018-09-16T10:34:27Z</time>
      </trkpt>
      <trkpt lat="39.3047520" lon="-0.7697950">
        <ele>843.0</ele>
        <time>2018-09-16T10:34:28Z</time>
      </trkpt>
      <trkpt lat="39.3047650" lon="-0.7698300">
        <ele>843.0</ele>
        <time>2018-09-16T10:34:29Z</time>
      </trkpt>
      <trkpt lat="39.3047650" lon="-0.7698300">
        <ele>843.0</ele>
        <time>2018-09-16T10:34:30Z</time>
      </trkpt>
      <trkpt lat="39.3047770" lon="-0.7698650">
        <ele>844.0</ele>
        <time>2018-09-16T10:34:31Z</time>
      </trkpt>
      <trkpt lat="39.3047770" lon="-0.7698650">
        <ele>844.0</ele>
        <time>2018-09-16T10:34:32Z</time>
      </trkpt>
      <trkpt lat="39.3047920" lon="-0.7699020">
        <ele>844.0</ele>
        <time>2018-09-16T10:34:33Z</time>
      </trkpt>
      <trkpt lat="39.3047980" lon="-0.7699200">
        <ele>844.0</ele>
        <time>2018-09-16T10:34:34Z</time>
      </trkpt>
      <trkpt lat="39.3047980" lon="-0.7699200">
        <ele>844.0</ele>
        <time>2018-09-16T10:34:35Z</time>
      </trkpt>
      <trkpt lat="39.3048100" lon="-0.7699550">
        <ele>844.0</ele>
        <time>2018-09-16T10:34:36Z</time>
      </trkpt>
      <trkpt lat="39.3048150" lon="-0.7699730">
        <ele>844.0</ele>
        <time>2018-09-16T10:34:37Z</time>
      </trkpt>
      <trkpt lat="39.3048150" lon="-0.7699730">
        <ele>844.0</ele>
        <time>2018-09-16T10:34:38Z</time>
      </trkpt>
      <trkpt lat="39.3048230" lon="-0.7700080">
        <ele>844.0</ele>
        <time>2018-09-16T10:34:39Z</time>
      </trkpt>
      <trkpt lat="39.3048230" lon="-0.7700080">
        <ele>844.0</ele>
        <time>2018-09-16T10:34:40Z</time>
      </trkpt>
      <trkpt lat="39.3048300" lon="-0.7700450">
        <ele>844.0</ele>
        <time>2018-09-16T10:34:41Z</time>
      </trkpt>
      <trkpt lat="39.3048300" lon="-0.7700450">
        <ele>845.0</ele>
        <time>2018-09-16T10:34:42Z</time>
      </trkpt>
      <trkpt lat="39.3048450" lon="-0.7700770">
        <ele>845.0</ele>
        <time>2018-09-16T10:34:43Z</time>
      </trkpt>
      <trkpt lat="39.3048520" lon="-0.7700930">
        <ele>845.0</ele>
        <time>2018-09-16T10:34:44Z</time>
      </trkpt>
      <trkpt lat="39.3048520" lon="-0.7700930">
        <ele>845.0</ele>
        <time>2018-09-16T10:34:45Z</time>
      </trkpt>
      <trkpt lat="39.3048620" lon="-0.7701230">
        <ele>845.0</ele>
        <time>2018-09-16T10:34:46Z</time>
      </trkpt>
      <trkpt lat="39.3048620" lon="-0.7701230">
        <ele>845.0</ele>
        <time>2018-09-16T10:34:47Z</time>
      </trkpt>
      <trkpt lat="39.3048650" lon="-0.7701550">
        <ele>846.0</ele>
        <time>2018-09-16T10:34:48Z</time>
      </trkpt>
      <trkpt lat="39.3048700" lon="-0.7701720">
        <ele>846.0</ele>
        <time>2018-09-16T10:34:49Z</time>
      </trkpt>
      <trkpt lat="39.3048700" lon="-0.7701720">
        <ele>846.0</ele>
        <time>2018-09-16T10:34:50Z</time>
      </trkpt>
      <trkpt lat="39.3048830" lon="-0.7702050">
        <ele>846.0</ele>
        <time>2018-09-16T10:34:51Z</time>
      </trkpt>
      <trkpt lat="39.3048830" lon="-0.7702050">
        <ele>847.0</ele>
        <time>2018-09-16T10:34:52Z</time>
      </trkpt>
      <trkpt lat="39.3048930" lon="-0.7702400">
        <ele>847.0</ele>
        <time>2018-09-16T10:34:53Z</time>
      </trkpt>
      <trkpt lat="39.3048970" lon="-0.7702580">
        <ele>847.0</ele>
        <time>2018-09-16T10:34:54Z</time>
      </trkpt>
      <trkpt lat="39.3049000" lon="-0.7702780">
        <ele>847.0</ele>
        <time>2018-09-16T10:34:55Z</time>
      </trkpt>
      <trkpt lat="39.3049000" lon="-0.7702780">
        <ele>848.0</ele>
        <time>2018-09-16T10:34:56Z</time>
      </trkpt>
      <trkpt lat="39.3049130" lon="-0.7703080">
        <ele>848.0</ele>
        <time>2018-09-16T10:34:57Z</time>
      </trkpt>
      <trkpt lat="39.3049130" lon="-0.7703080">
        <ele>848.0</ele>
        <time>2018-09-16T10:34:58Z</time>
      </trkpt>
      <trkpt lat="39.3049280" lon="-0.7703370">
        <ele>849.0</ele>
        <time>2018-09-16T10:34:59Z</time>
      </trkpt>
      <trkpt lat="39.3049280" lon="-0.7703370">
        <ele>849.0</ele>
        <time>2018-09-16T10:35:00Z</time>
      </trkpt>
      <trkpt lat="39.3049330" lon="-0.7703650">
        <ele>849.0</ele>
        <time>2018-09-16T10:35:01Z</time>
      </trkpt>
      <trkpt lat="39.3049330" lon="-0.7703650">
        <ele>849.0</ele>
        <time>2018-09-16T10:35:02Z</time>
      </trkpt>
      <trkpt lat="39.3049400" lon="-0.7703930">
        <ele>849.0</ele>
        <time>2018-09-16T10:35:03Z</time>
      </trkpt>
      <trkpt lat="39.3049400" lon="-0.7703930">
        <ele>849.0</ele>
        <time>2018-09-16T10:35:04Z</time>
      </trkpt>
      <trkpt lat="39.3049530" lon="-0.7704270">
        <ele>850.0</ele>
        <time>2018-09-16T10:35:05Z</time>
      </trkpt>
      <trkpt lat="39.3049530" lon="-0.7704270">
        <ele>850.0</ele>
        <time>2018-09-16T10:35:06Z</time>
      </trkpt>
      <trkpt lat="39.3049630" lon="-0.7704580">
        <ele>850.0</ele>
        <time>2018-09-16T10:35:07Z</time>
      </trkpt>
      <trkpt lat="39.3049630" lon="-0.7704580">
        <ele>851.0</ele>
        <time>2018-09-16T10:35:08Z</time>
      </trkpt>
      <trkpt lat="39.3049750" lon="-0.7704900">
        <ele>851.0</ele>
        <time>2018-09-16T10:35:09Z</time>
      </trkpt>
      <trkpt lat="39.3049750" lon="-0.7704900">
        <ele>851.0</ele>
        <time>2018-09-16T10:35:10Z</time>
      </trkpt>
      <trkpt lat="39.3049900" lon="-0.7705200">
        <ele>851.0</ele>
        <time>2018-09-16T10:35:11Z</time>
      </trkpt>
      <trkpt lat="39.3049900" lon="-0.7705200">
        <ele>852.0</ele>
        <time>2018-09-16T10:35:12Z</time>
      </trkpt>
      <trkpt lat="39.3050000" lon="-0.7705480">
        <ele>852.0</ele>
        <time>2018-09-16T10:35:13Z</time>
      </trkpt>
      <trkpt lat="39.3050020" lon="-0.7705580">
        <ele>852.0</ele>
        <time>2018-09-16T10:35:14Z</time>
      </trkpt>
      <trkpt lat="39.3050020" lon="-0.7705580">
        <ele>852.0</ele>
        <time>2018-09-16T10:35:15Z</time>
      </trkpt>
      <trkpt lat="39.3050070" lon="-0.7705820">
        <ele>853.0</ele>
        <time>2018-09-16T10:35:16Z</time>
      </trkpt>
      <trkpt lat="39.3050070" lon="-0.7705820">
        <ele>853.0</ele>
        <time>2018-09-16T10:35:17Z</time>
      </trkpt>
      <trkpt lat="39.3050130" lon="-0.7706130">
        <ele>853.0</ele>
        <time>2018-09-16T10:35:18Z</time>
      </trkpt>
      <trkpt lat="39.3050200" lon="-0.7706300">
        <ele>853.0</ele>
        <time>2018-09-16T10:35:19Z</time>
      </trkpt>
      <trkpt lat="39.3050200" lon="-0.7706300">
        <ele>854.0</ele>
        <time>2018-09-16T10:35:20Z</time>
      </trkpt>
      <trkpt lat="39.3050320" lon="-0.7706620">
        <ele>854.0</ele>
        <time>2018-09-16T10:35:21Z</time>
      </trkpt>
      <trkpt lat="39.3050320" lon="-0.7706620">
        <ele>854.0</ele>
        <time>2018-09-16T10:35:22Z</time>
      </trkpt>
      <trkpt lat="39.3050380" lon="-0.7706970">
        <ele>854.0</ele>
        <time>2018-09-16T10:35:23Z</time>
      </trkpt>
      <trkpt lat="39.3050380" lon="-0.7706970">
        <ele>854.0</ele>
        <time>2018-09-16T10:35:24Z</time>
      </trkpt>
      <trkpt lat="39.3050450" lon="-0.7707300">
        <ele>855.0</ele>
        <time>2018-09-16T10:35:25Z</time>
      </trkpt>
      <trkpt lat="39.3050450" lon="-0.7707300">
        <ele>855.0</ele>
        <time>2018-09-16T10:35:26Z</time>
      </trkpt>
      <trkpt lat="39.3050550" lon="-0.7707650">
        <ele>856.0</ele>
        <time>2018-09-16T10:35:27Z</time>
      </trkpt>
      <trkpt lat="39.3050580" lon="-0.7707830">
        <ele>856.0</ele>
        <time>2018-09-16T10:35:28Z</time>
      </trkpt>
      <trkpt lat="39.3050580" lon="-0.7707830">
        <ele>856.0</ele>
        <time>2018-09-16T10:35:29Z</time>
      </trkpt>
      <trkpt lat="39.3050630" lon="-0.7708180">
        <ele>856.0</ele>
        <time>2018-09-16T10:35:30Z</time>
      </trkpt>
      <trkpt lat="39.3050680" lon="-0.7708370">
        <ele>856.0</ele>
        <time>2018-09-16T10:35:31Z</time>
      </trkpt>
      <trkpt lat="39.3050680" lon="-0.7708370">
        <ele>856.0</ele>
        <time>2018-09-16T10:35:32Z</time>
      </trkpt>
      <trkpt lat="39.3050780" lon="-0.7708670">
        <ele>857.0</ele>
        <time>2018-09-16T10:35:33Z</time>
      </trkpt>
      <trkpt lat="39.3050780" lon="-0.7708670">
        <ele>857.0</ele>
        <time>2018-09-16T10:35:34Z</time>
      </trkpt>
      <trkpt lat="39.3050830" lon="-0.7708950">
        <ele>857.0</ele>
        <time>2018-09-16T10:35:35Z</time>
      </trkpt>
      <trkpt lat="39.3050850" lon="-0.7709100">
        <ele>857.0</ele>
        <time>2018-09-16T10:35:36Z</time>
      </trkpt>
      <trkpt lat="39.3050870" lon="-0.7709230">
        <ele>858.0</ele>
        <time>2018-09-16T10:35:37Z</time>
      </trkpt>
      <trkpt lat="39.3050870" lon="-0.7709230">
        <ele>858.0</ele>
        <time>2018-09-16T10:35:38Z</time>
      </trkpt>
      <trkpt lat="39.3050900" lon="-0.7709480">
        <ele>858.0</ele>
        <time>2018-09-16T10:35:39Z</time>
      </trkpt>
      <trkpt lat="39.3050900" lon="-0.7709480">
        <ele>858.0</ele>
        <time>2018-09-16T10:35:40Z</time>
      </trkpt>
      <trkpt lat="39.3050950" lon="-0.7709770">
        <ele>858.0</ele>
        <time>2018-09-16T10:35:41Z</time>
      </trkpt>
      <trkpt lat="39.3050970" lon="-0.7709920">
        <ele>858.0</ele>
        <time>2018-09-16T10:35:42Z</time>
      </trkpt>
      <trkpt lat="39.3050970" lon="-0.7709920">
        <ele>858.0</ele>
        <time>2018-09-16T10:35:43Z</time>
      </trkpt>
      <trkpt lat="39.3050970" lon="-0.7710250">
        <ele>858.0</ele>
        <time>2018-09-16T10:35:44Z</time>
      </trkpt>
      <trkpt lat="39.3050950" lon="-0.7710420">
        <ele>859.0</ele>
        <time>2018-09-16T10:35:45Z</time>
      </trkpt>
      <trkpt lat="39.3050950" lon="-0.7710420">
        <ele>859.0</ele>
        <time>2018-09-16T10:35:46Z</time>
      </trkpt>
      <trkpt lat="39.3050900" lon="-0.7710750">
        <ele>859.0</ele>
        <time>2018-09-16T10:35:47Z</time>
      </trkpt>
      <trkpt lat="39.3050900" lon="-0.7710750">
        <ele>859.0</ele>
        <time>2018-09-16T10:35:48Z</time>
      </trkpt>
      <trkpt lat="39.3050850" lon="-0.7711100">
        <ele>859.0</ele>
        <time>2018-09-16T10:35:49Z</time>
      </trkpt>
      <trkpt lat="39.3050850" lon="-0.7711100">
        <ele>859.0</ele>
        <time>2018-09-16T10:35:50Z</time>
      </trkpt>
      <trkpt lat="39.3050800" lon="-0.7711470">
        <ele>860.0</ele>
        <time>2018-09-16T10:35:51Z</time>
      </trkpt>
      <trkpt lat="39.3050800" lon="-0.7711470">
        <ele>860.0</ele>
        <time>2018-09-16T10:35:52Z</time>
      </trkpt>
      <trkpt lat="39.3050730" lon="-0.7711850">
        <ele>860.0</ele>
        <time>2018-09-16T10:35:53Z</time>
      </trkpt>
      <trkpt lat="39.3050730" lon="-0.7711850">
        <ele>860.0</ele>
        <time>2018-09-16T10:35:54Z</time>
      </trkpt>
      <trkpt lat="39.3050670" lon="-0.7712200">
        <ele>861.0</ele>
        <time>2018-09-16T10:35:55Z</time>
      </trkpt>
      <trkpt lat="39.3050670" lon="-0.7712200">
        <ele>861.0</ele>
        <time>2018-09-16T10:35:56Z</time>
      </trkpt>
      <trkpt lat="39.3050670" lon="-0.7712530">
        <ele>861.0</ele>
        <time>2018-09-16T10:35:57Z</time>
      </trkpt>
      <trkpt lat="39.3050670" lon="-0.7712530">
        <ele>861.0</ele>
        <time>2018-09-16T10:35:58Z</time>
      </trkpt>
      <trkpt lat="39.3050580" lon="-0.7712880">
        <ele>861.0</ele>
        <time>2018-09-16T10:35:59Z</time>
      </trkpt>
      <trkpt lat="39.3050580" lon="-0.7712880">
        <ele>861.0</ele>
        <time>2018-09-16T10:36:00Z</time>
      </trkpt>
      <trkpt lat="39.3050520" lon="-0.7713230">
        <ele>861.0</ele>
        <time>2018-09-16T10:36:01Z</time>
      </trkpt>
      <trkpt lat="39.3050520" lon="-0.7713230">
        <ele>862.0</ele>
        <time>2018-09-16T10:36:02Z</time>
      </trkpt>
      <trkpt lat="39.3050470" lon="-0.7713520">
        <ele>862.0</ele>
        <time>2018-09-16T10:36:03Z</time>
      </trkpt>
      <trkpt lat="39.3050470" lon="-0.7713520">
        <ele>862.0</ele>
        <time>2018-09-16T10:36:04Z</time>
      </trkpt>
      <trkpt lat="39.3050380" lon="-0.7713820">
        <ele>862.0</ele>
        <time>2018-09-16T10:36:05Z</time>
      </trkpt>
      <trkpt lat="39.3050380" lon="-0.7713820">
        <ele>862.0</ele>
        <time>2018-09-16T10:36:06Z</time>
      </trkpt>
      <trkpt lat="39.3050320" lon="-0.7714130">
        <ele>862.0</ele>
        <time>2018-09-16T10:36:07Z</time>
      </trkpt>
      <trkpt lat="39.3050320" lon="-0.7714130">
        <ele>863.0</ele>
        <time>2018-09-16T10:36:08Z</time>
      </trkpt>
      <trkpt lat="39.3050270" lon="-0.7714470">
        <ele>863.0</ele>
        <time>2018-09-16T10:36:09Z</time>
      </trkpt>
      <trkpt lat="39.3050230" lon="-0.7714650">
        <ele>863.0</ele>
        <time>2018-09-16T10:36:10Z</time>
      </trkpt>
      <trkpt lat="39.3050230" lon="-0.7714650">
        <ele>863.0</ele>
        <time>2018-09-16T10:36:11Z</time>
      </trkpt>
      <trkpt lat="39.3050150" lon="-0.7715030">
        <ele>863.0</ele>
        <time>2018-09-16T10:36:12Z</time>
      </trkpt>
      <trkpt lat="39.3050130" lon="-0.7715230">
        <ele>863.0</ele>
        <time>2018-09-16T10:36:13Z</time>
      </trkpt>
      <trkpt lat="39.3050120" lon="-0.7715430">
        <ele>864.0</ele>
        <time>2018-09-16T10:36:14Z</time>
      </trkpt>
      <trkpt lat="39.3050120" lon="-0.7715430">
        <ele>864.0</ele>
        <time>2018-09-16T10:36:15Z</time>
      </trkpt>
      <trkpt lat="39.3050080" lon="-0.7715800">
        <ele>864.0</ele>
        <time>2018-09-16T10:36:16Z</time>
      </trkpt>
      <trkpt lat="39.3050080" lon="-0.7715800">
        <ele>864.0</ele>
        <time>2018-09-16T10:36:17Z</time>
      </trkpt>
      <trkpt lat="39.3050100" lon="-0.7716180">
        <ele>864.0</ele>
        <time>2018-09-16T10:36:18Z</time>
      </trkpt>
      <trkpt lat="39.3050080" lon="-0.7716370">
        <ele>864.0</ele>
        <time>2018-09-16T10:36:19Z</time>
      </trkpt>
      <trkpt lat="39.3050080" lon="-0.7716370">
        <ele>864.0</ele>
        <time>2018-09-16T10:36:20Z</time>
      </trkpt>
      <trkpt lat="39.3050070" lon="-0.7716750">
        <ele>864.0</ele>
        <time>2018-09-16T10:36:21Z</time>
      </trkpt>
      <trkpt lat="39.3050030" lon="-0.7716930">
        <ele>864.0</ele>
        <time>2018-09-16T10:36:22Z</time>
      </trkpt>
      <trkpt lat="39.3050030" lon="-0.7716930">
        <ele>864.0</ele>
        <time>2018-09-16T10:36:23Z</time>
      </trkpt>
      <trkpt lat="39.3050000" lon="-0.7717330">
        <ele>864.0</ele>
        <time>2018-09-16T10:36:24Z</time>
      </trkpt>
      <trkpt lat="39.3050000" lon="-0.7717330">
        <ele>864.0</ele>
        <time>2018-09-16T10:36:25Z</time>
      </trkpt>
      <trkpt lat="39.3049980" lon="-0.7717730">
        <ele>864.0</ele>
        <time>2018-09-16T10:36:26Z</time>
      </trkpt>
      <trkpt lat="39.3049980" lon="-0.7717730">
        <ele>865.0</ele>
        <time>2018-09-16T10:36:27Z</time>
      </trkpt>
      <trkpt lat="39.3050020" lon="-0.7718120">
        <ele>865.0</ele>
        <time>2018-09-16T10:36:28Z</time>
      </trkpt>
      <trkpt lat="39.3050030" lon="-0.7718320">
        <ele>865.0</ele>
        <time>2018-09-16T10:36:29Z</time>
      </trkpt>
      <trkpt lat="39.3050030" lon="-0.7718320">
        <ele>865.0</ele>
        <time>2018-09-16T10:36:30Z</time>
      </trkpt>
      <trkpt lat="39.3050100" lon="-0.7718720">
        <ele>865.0</ele>
        <time>2018-09-16T10:36:31Z</time>
      </trkpt>
      <trkpt lat="39.3050100" lon="-0.7718720">
        <ele>865.0</ele>
        <time>2018-09-16T10:36:32Z</time>
      </trkpt>
      <trkpt lat="39.3050150" lon="-0.7719130">
        <ele>865.0</ele>
        <time>2018-09-16T10:36:33Z</time>
      </trkpt>
      <trkpt lat="39.3050150" lon="-0.7719130">
        <ele>865.0</ele>
        <time>2018-09-16T10:36:34Z</time>
      </trkpt>
      <trkpt lat="39.3050180" lon="-0.7719530">
        <ele>866.0</ele>
        <time>2018-09-16T10:36:35Z</time>
      </trkpt>
      <trkpt lat="39.3050180" lon="-0.7719530">
        <ele>866.0</ele>
        <time>2018-09-16T10:36:36Z</time>
      </trkpt>
      <trkpt lat="39.3050230" lon="-0.7719950">
        <ele>866.0</ele>
        <time>2018-09-16T10:36:37Z</time>
      </trkpt>
      <trkpt lat="39.3050230" lon="-0.7719950">
        <ele>866.0</ele>
        <time>2018-09-16T10:36:38Z</time>
      </trkpt>
      <trkpt lat="39.3050300" lon="-0.7720330">
        <ele>866.0</ele>
        <time>2018-09-16T10:36:39Z</time>
      </trkpt>
      <trkpt lat="39.3050300" lon="-0.7720330">
        <ele>866.0</ele>
        <time>2018-09-16T10:36:40Z</time>
      </trkpt>
      <trkpt lat="39.3050370" lon="-0.7720680">
        <ele>866.0</ele>
        <time>2018-09-16T10:36:41Z</time>
      </trkpt>
      <trkpt lat="39.3050370" lon="-0.7720680">
        <ele>866.0</ele>
        <time>2018-09-16T10:36:42Z</time>
      </trkpt>
      <trkpt lat="39.3050450" lon="-0.7721000">
        <ele>867.0</ele>
        <time>2018-09-16T10:36:43Z</time>
      </trkpt>
      <trkpt lat="39.3050450" lon="-0.7721000">
        <ele>867.0</ele>
        <time>2018-09-16T10:36:44Z</time>
      </trkpt>
      <trkpt lat="39.3050520" lon="-0.7721380">
        <ele>867.0</ele>
        <time>2018-09-16T10:36:45Z</time>
      </trkpt>
      <trkpt lat="39.3050520" lon="-0.7721380">
        <ele>867.0</ele>
        <time>2018-09-16T10:36:46Z</time>
      </trkpt>
      <trkpt lat="39.3050580" lon="-0.7721720">
        <ele>867.0</ele>
        <time>2018-09-16T10:36:47Z</time>
      </trkpt>
      <trkpt lat="39.3050620" lon="-0.7721900">
        <ele>867.0</ele>
        <time>2018-09-16T10:36:48Z</time>
      </trkpt>
      <trkpt lat="39.3050620" lon="-0.7721900">
        <ele>867.0</ele>
        <time>2018-09-16T10:36:49Z</time>
      </trkpt>
      <trkpt lat="39.3050680" lon="-0.7722280">
        <ele>868.0</ele>
        <time>2018-09-16T10:36:50Z</time>
      </trkpt>
      <trkpt lat="39.3050680" lon="-0.7722280">
        <ele>868.0</ele>
        <time>2018-09-16T10:36:51Z</time>
      </trkpt>
      <trkpt lat="39.3050800" lon="-0.7722630">
        <ele>868.0</ele>
        <time>2018-09-16T10:36:52Z</time>
      </trkpt>
      <trkpt lat="39.3050800" lon="-0.7722630">
        <ele>868.0</ele>
        <time>2018-09-16T10:36:53Z</time>
      </trkpt>
      <trkpt lat="39.3050900" lon="-0.7723000">
        <ele>868.0</ele>
        <time>2018-09-16T10:36:54Z</time>
      </trkpt>
      <trkpt lat="39.3050950" lon="-0.7723200">
        <ele>868.0</ele>
        <time>2018-09-16T10:36:55Z</time>
      </trkpt>
      <trkpt lat="39.3050950" lon="-0.7723200">
        <ele>869.0</ele>
        <time>2018-09-16T10:36:56Z</time>
      </trkpt>
      <trkpt lat="39.3051030" lon="-0.7723570">
        <ele>869.0</ele>
        <time>2018-09-16T10:36:57Z</time>
      </trkpt>
      <trkpt lat="39.3051050" lon="-0.7723780">
        <ele>869.0</ele>
        <time>2018-09-16T10:36:58Z</time>
      </trkpt>
      <trkpt lat="39.3051050" lon="-0.7723780">
        <ele>869.0</ele>
        <time>2018-09-16T10:36:59Z</time>
      </trkpt>
      <trkpt lat="39.3051120" lon="-0.7724180">
        <ele>869.0</ele>
        <time>2018-09-16T10:37:00Z</time>
      </trkpt>
      <trkpt lat="39.3051170" lon="-0.7724380">
        <ele>869.0</ele>
        <time>2018-09-16T10:37:01Z</time>
      </trkpt>
      <trkpt lat="39.3051170" lon="-0.7724380">
        <ele>869.0</ele>
        <time>2018-09-16T10:37:02Z</time>
      </trkpt>
      <trkpt lat="39.3051270" lon="-0.7724770">
        <ele>869.0</ele>
        <time>2018-09-16T10:37:03Z</time>
      </trkpt>
      <trkpt lat="39.3051300" lon="-0.7724950">
        <ele>870.0</ele>
        <time>2018-09-16T10:37:04Z</time>
      </trkpt>
      <trkpt lat="39.3051300" lon="-0.7724950">
        <ele>870.0</ele>
        <time>2018-09-16T10:37:05Z</time>
      </trkpt>
      <trkpt lat="39.3051380" lon="-0.7725350">
        <ele>870.0</ele>
        <time>2018-09-16T10:37:06Z</time>
      </trkpt>
      <trkpt lat="39.3051450" lon="-0.7725550">
        <ele>870.0</ele>
        <time>2018-09-16T10:37:07Z</time>
      </trkpt>
      <trkpt lat="39.3051450" lon="-0.7725550">
        <ele>871.0</ele>
        <time>2018-09-16T10:37:08Z</time>
      </trkpt>
      <trkpt lat="39.3051530" lon="-0.7725950">
        <ele>871.0</ele>
        <time>2018-09-16T10:37:09Z</time>
      </trkpt>
      <trkpt lat="39.3051530" lon="-0.7725950">
        <ele>871.0</ele>
        <time>2018-09-16T10:37:10Z</time>
      </trkpt>
      <trkpt lat="39.3051620" lon="-0.7726350">
        <ele>871.0</ele>
        <time>2018-09-16T10:37:11Z</time>
      </trkpt>
      <trkpt lat="39.3051620" lon="-0.7726350">
        <ele>871.0</ele>
        <time>2018-09-16T10:37:12Z</time>
      </trkpt>
      <trkpt lat="39.3051700" lon="-0.7726770">
        <ele>871.0</ele>
        <time>2018-09-16T10:37:13Z</time>
      </trkpt>
      <trkpt lat="39.3051700" lon="-0.7726770">
        <ele>871.0</ele>
        <time>2018-09-16T10:37:14Z</time>
      </trkpt>
      <trkpt lat="39.3051820" lon="-0.7727170">
        <ele>871.0</ele>
        <time>2018-09-16T10:37:15Z</time>
      </trkpt>
      <trkpt lat="39.3051820" lon="-0.7727170">
        <ele>871.0</ele>
        <time>2018-09-16T10:37:16Z</time>
      </trkpt>
      <trkpt lat="39.3051880" lon="-0.7727570">
        <ele>871.0</ele>
        <time>2018-09-16T10:37:17Z</time>
      </trkpt>
      <trkpt lat="39.3051880" lon="-0.7727570">
        <ele>872.0</ele>
        <time>2018-09-16T10:37:18Z</time>
      </trkpt>
      <trkpt lat="39.3051920" lon="-0.7727980">
        <ele>872.0</ele>
        <time>2018-09-16T10:37:19Z</time>
      </trkpt>
      <trkpt lat="39.3051920" lon="-0.7727980">
        <ele>872.0</ele>
        <time>2018-09-16T10:37:20Z</time>
      </trkpt>
      <trkpt lat="39.3051950" lon="-0.7728400">
        <ele>872.0</ele>
        <time>2018-09-16T10:37:21Z</time>
      </trkpt>
      <trkpt lat="39.3051950" lon="-0.7728400">
        <ele>872.0</ele>
        <time>2018-09-16T10:37:22Z</time>
      </trkpt>
      <trkpt lat="39.3051980" lon="-0.7728780">
        <ele>872.0</ele>
        <time>2018-09-16T10:37:23Z</time>
      </trkpt>
      <trkpt lat="39.3051980" lon="-0.7728970">
        <ele>872.0</ele>
        <time>2018-09-16T10:37:24Z</time>
      </trkpt>
      <trkpt lat="39.3051980" lon="-0.7728970">
        <ele>873.0</ele>
        <time>2018-09-16T10:37:25Z</time>
      </trkpt>
      <trkpt lat="39.3052000" lon="-0.7729350">
        <ele>873.0</ele>
        <time>2018-09-16T10:37:26Z</time>
      </trkpt>
      <trkpt lat="39.3052000" lon="-0.7729350">
        <ele>873.0</ele>
        <time>2018-09-16T10:37:27Z</time>
      </trkpt>
      <trkpt lat="39.3052020" lon="-0.7729700">
        <ele>873.0</ele>
        <time>2018-09-16T10:37:28Z</time>
      </trkpt>
      <trkpt lat="39.3052030" lon="-0.7729880">
        <ele>874.0</ele>
        <time>2018-09-16T10:37:29Z</time>
      </trkpt>
      <trkpt lat="39.3052030" lon="-0.7729880">
        <ele>874.0</ele>
        <time>2018-09-16T10:37:30Z</time>
      </trkpt>
      <trkpt lat="39.3052080" lon="-0.7730280">
        <ele>874.0</ele>
        <time>2018-09-16T10:37:31Z</time>
      </trkpt>
      <trkpt lat="39.3052080" lon="-0.7730280">
        <ele>874.0</ele>
        <time>2018-09-16T10:37:32Z</time>
      </trkpt>
      <trkpt lat="39.3052100" lon="-0.7730670">
        <ele>875.0</ele>
        <time>2018-09-16T10:37:33Z</time>
      </trkpt>
      <trkpt lat="39.3052130" lon="-0.7730850">
        <ele>875.0</ele>
        <time>2018-09-16T10:37:34Z</time>
      </trkpt>
      <trkpt lat="39.3052130" lon="-0.7730850">
        <ele>875.0</ele>
        <time>2018-09-16T10:37:35Z</time>
      </trkpt>
      <trkpt lat="39.3052230" lon="-0.7731200">
        <ele>875.0</ele>
        <time>2018-09-16T10:37:36Z</time>
      </trkpt>
      <trkpt lat="39.3052280" lon="-0.7731380">
        <ele>875.0</ele>
        <time>2018-09-16T10:37:37Z</time>
      </trkpt>
      <trkpt lat="39.3052280" lon="-0.7731380">
        <ele>875.0</ele>
        <time>2018-09-16T10:37:38Z</time>
      </trkpt>
      <trkpt lat="39.3052400" lon="-0.7731770">
        <ele>876.0</ele>
        <time>2018-09-16T10:37:39Z</time>
      </trkpt>
      <trkpt lat="39.3052470" lon="-0.7731930">
        <ele>876.0</ele>
        <time>2018-09-16T10:37:40Z</time>
      </trkpt>
      <trkpt lat="39.3052470" lon="-0.7731930">
        <ele>876.0</ele>
        <time>2018-09-16T10:37:41Z</time>
      </trkpt>
      <trkpt lat="39.3052600" lon="-0.7732300">
        <ele>877.0</ele>
        <time>2018-09-16T10:37:42Z</time>
      </trkpt>
      <trkpt lat="39.3052630" lon="-0.7732480">
        <ele>877.0</ele>
        <time>2018-09-16T10:37:43Z</time>
      </trkpt>
      <trkpt lat="39.3052630" lon="-0.7732480">
        <ele>877.0</ele>
        <time>2018-09-16T10:37:44Z</time>
      </trkpt>
      <trkpt lat="39.3052730" lon="-0.7732830">
        <ele>877.0</ele>
        <time>2018-09-16T10:37:45Z</time>
      </trkpt>
      <trkpt lat="39.3052730" lon="-0.7732830">
        <ele>878.0</ele>
        <time>2018-09-16T10:37:46Z</time>
      </trkpt>
      <trkpt lat="39.3052830" lon="-0.7733200">
        <ele>878.0</ele>
        <time>2018-09-16T10:37:47Z</time>
      </trkpt>
      <trkpt lat="39.3052830" lon="-0.7733200">
        <ele>878.0</ele>
        <time>2018-09-16T10:37:48Z</time>
      </trkpt>
      <trkpt lat="39.3052930" lon="-0.7733570">
        <ele>878.0</ele>
        <time>2018-09-16T10:37:49Z</time>
      </trkpt>
      <trkpt lat="39.3052930" lon="-0.7733570">
        <ele>878.0</ele>
        <time>2018-09-16T10:37:50Z</time>
      </trkpt>
      <trkpt lat="39.3053000" lon="-0.7733930">
        <ele>878.0</ele>
        <time>2018-09-16T10:37:51Z</time>
      </trkpt>
      <trkpt lat="39.3053000" lon="-0.7733930">
        <ele>878.0</ele>
        <time>2018-09-16T10:37:52Z</time>
      </trkpt>
      <trkpt lat="39.3053120" lon="-0.7734320">
        <ele>878.0</ele>
        <time>2018-09-16T10:37:53Z</time>
      </trkpt>
      <trkpt lat="39.3053180" lon="-0.7734500">
        <ele>879.0</ele>
        <time>2018-09-16T10:37:54Z</time>
      </trkpt>
      <trkpt lat="39.3053270" lon="-0.7734670">
        <ele>879.0</ele>
        <time>2018-09-16T10:37:55Z</time>
      </trkpt>
      <trkpt lat="39.3053270" lon="-0.7734670">
        <ele>879.0</ele>
        <time>2018-09-16T10:37:56Z</time>
      </trkpt>
      <trkpt lat="39.3053420" lon="-0.7735020">
        <ele>879.0</ele>
        <time>2018-09-16T10:37:57Z</time>
      </trkpt>
      <trkpt lat="39.3053480" lon="-0.7735200">
        <ele>880.0</ele>
        <time>2018-09-16T10:37:58Z</time>
      </trkpt>
      <trkpt lat="39.3053480" lon="-0.7735200">
        <ele>880.0</ele>
        <time>2018-09-16T10:37:59Z</time>
      </trkpt>
      <trkpt lat="39.3053630" lon="-0.7735580">
        <ele>880.0</ele>
        <time>2018-09-16T10:38:00Z</time>
      </trkpt>
      <trkpt lat="39.3053720" lon="-0.7735770">
        <ele>880.0</ele>
        <time>2018-09-16T10:38:01Z</time>
      </trkpt>
      <trkpt lat="39.3053720" lon="-0.7735770">
        <ele>881.0</ele>
        <time>2018-09-16T10:38:02Z</time>
      </trkpt>
      <trkpt lat="39.3053830" lon="-0.7736130">
        <ele>881.0</ele>
        <time>2018-09-16T10:38:03Z</time>
      </trkpt>
      <trkpt lat="39.3053900" lon="-0.7736320">
        <ele>881.0</ele>
        <time>2018-09-16T10:38:04Z</time>
      </trkpt>
      <trkpt lat="39.3053900" lon="-0.7736320">
        <ele>881.0</ele>
        <time>2018-09-16T10:38:05Z</time>
      </trkpt>
      <trkpt lat="39.3054020" lon="-0.7736680">
        <ele>882.0</ele>
        <time>2018-09-16T10:38:06Z</time>
      </trkpt>
      <trkpt lat="39.3054070" lon="-0.7736870">
        <ele>882.0</ele>
        <time>2018-09-16T10:38:07Z</time>
      </trkpt>
      <trkpt lat="39.3054070" lon="-0.7736870">
        <ele>882.0</ele>
        <time>2018-09-16T10:38:08Z</time>
      </trkpt>
      <trkpt lat="39.3054180" lon="-0.7737220">
        <ele>882.0</ele>
        <time>2018-09-16T10:38:09Z</time>
      </trkpt>
      <trkpt lat="39.3054180" lon="-0.7737220">
        <ele>883.0</ele>
        <time>2018-09-16T10:38:10Z</time>
      </trkpt>
      <trkpt lat="39.3054280" lon="-0.7737570">
        <ele>883.0</ele>
        <time>2018-09-16T10:38:11Z</time>
      </trkpt>
      <trkpt lat="39.3054280" lon="-0.7737570">
        <ele>883.0</ele>
        <time>2018-09-16T10:38:12Z</time>
      </trkpt>
      <trkpt lat="39.3054330" lon="-0.7737930">
        <ele>883.0</ele>
        <time>2018-09-16T10:38:13Z</time>
      </trkpt>
      <trkpt lat="39.3054330" lon="-0.7737930">
        <ele>883.0</ele>
        <time>2018-09-16T10:38:14Z</time>
      </trkpt>
      <trkpt lat="39.3054420" lon="-0.7738230">
        <ele>883.0</ele>
        <time>2018-09-16T10:38:15Z</time>
      </trkpt>
      <trkpt lat="39.3054420" lon="-0.7738230">
        <ele>884.0</ele>
        <time>2018-09-16T10:38:16Z</time>
      </trkpt>
      <trkpt lat="39.3054480" lon="-0.7738550">
        <ele>884.0</ele>
        <time>2018-09-16T10:38:17Z</time>
      </trkpt>
      <trkpt lat="39.3054480" lon="-0.7738550">
        <ele>884.0</ele>
        <time>2018-09-16T10:38:18Z</time>
      </trkpt>
      <trkpt lat="39.3054550" lon="-0.7738820">
        <ele>884.0</ele>
        <time>2018-09-16T10:38:19Z</time>
      </trkpt>
      <trkpt lat="39.3054550" lon="-0.7738820">
        <ele>885.0</ele>
        <time>2018-09-16T10:38:20Z</time>
      </trkpt>
      <trkpt lat="39.3054580" lon="-0.7739130">
        <ele>885.0</ele>
        <time>2018-09-16T10:38:21Z</time>
      </trkpt>
      <trkpt lat="39.3054580" lon="-0.7739130">
        <ele>885.0</ele>
        <time>2018-09-16T10:38:22Z</time>
      </trkpt>
      <trkpt lat="39.3054550" lon="-0.7739480">
        <ele>885.0</ele>
        <time>2018-09-16T10:38:23Z</time>
      </trkpt>
      <trkpt lat="39.3054550" lon="-0.7739480">
        <ele>885.0</ele>
        <time>2018-09-16T10:38:24Z</time>
      </trkpt>
      <trkpt lat="39.3054550" lon="-0.7739820">
        <ele>885.0</ele>
        <time>2018-09-16T10:38:25Z</time>
      </trkpt>
      <trkpt lat="39.3054550" lon="-0.7739820">
        <ele>886.0</ele>
        <time>2018-09-16T10:38:26Z</time>
      </trkpt>
      <trkpt lat="39.3054600" lon="-0.7740150">
        <ele>886.0</ele>
        <time>2018-09-16T10:38:27Z</time>
      </trkpt>
      <trkpt lat="39.3054600" lon="-0.7740150">
        <ele>886.0</ele>
        <time>2018-09-16T10:38:28Z</time>
      </trkpt>
      <trkpt lat="39.3054670" lon="-0.7740520">
        <ele>886.0</ele>
        <time>2018-09-16T10:38:29Z</time>
      </trkpt>
      <trkpt lat="39.3054670" lon="-0.7740520">
        <ele>886.0</ele>
        <time>2018-09-16T10:38:30Z</time>
      </trkpt>
      <trkpt lat="39.3054670" lon="-0.7740920">
        <ele>886.0</ele>
        <time>2018-09-16T10:38:31Z</time>
      </trkpt>
      <trkpt lat="39.3054670" lon="-0.7740920">
        <ele>886.0</ele>
        <time>2018-09-16T10:38:32Z</time>
      </trkpt>
      <trkpt lat="39.3054680" lon="-0.7741320">
        <ele>886.0</ele>
        <time>2018-09-16T10:38:33Z</time>
      </trkpt>
      <trkpt lat="39.3054680" lon="-0.7741320">
        <ele>886.0</ele>
        <time>2018-09-16T10:38:34Z</time>
      </trkpt>
      <trkpt lat="39.3054750" lon="-0.7741680">
        <ele>886.0</ele>
        <time>2018-09-16T10:38:35Z</time>
      </trkpt>
      <trkpt lat="39.3054750" lon="-0.7741680">
        <ele>886.0</ele>
        <time>2018-09-16T10:38:36Z</time>
      </trkpt>
      <trkpt lat="39.3054820" lon="-0.7742070">
        <ele>887.0</ele>
        <time>2018-09-16T10:38:37Z</time>
      </trkpt>
      <trkpt lat="39.3054820" lon="-0.7742070">
        <ele>887.0</ele>
        <time>2018-09-16T10:38:38Z</time>
      </trkpt>
      <trkpt lat="39.3054870" lon="-0.7742480">
        <ele>887.0</ele>
        <time>2018-09-16T10:38:39Z</time>
      </trkpt>
      <trkpt lat="39.3054870" lon="-0.7742480">
        <ele>887.0</ele>
        <time>2018-09-16T10:38:40Z</time>
      </trkpt>
      <trkpt lat="39.3054880" lon="-0.7742920">
        <ele>887.0</ele>
        <time>2018-09-16T10:38:41Z</time>
      </trkpt>
      <trkpt lat="39.3054880" lon="-0.7742920">
        <ele>887.0</ele>
        <time>2018-09-16T10:38:42Z</time>
      </trkpt>
      <trkpt lat="39.3054930" lon="-0.7743380">
        <ele>887.0</ele>
        <time>2018-09-16T10:38:43Z</time>
      </trkpt>
      <trkpt lat="39.3054930" lon="-0.7743380">
        <ele>887.0</ele>
        <time>2018-09-16T10:38:44Z</time>
      </trkpt>
      <trkpt lat="39.3055030" lon="-0.7743820">
        <ele>887.0</ele>
        <time>2018-09-16T10:38:45Z</time>
      </trkpt>
      <trkpt lat="39.3055030" lon="-0.7743820">
        <ele>887.0</ele>
        <time>2018-09-16T10:38:46Z</time>
      </trkpt>
      <trkpt lat="39.3055130" lon="-0.7744280">
        <ele>887.0</ele>
        <time>2018-09-16T10:38:47Z</time>
      </trkpt>
      <trkpt lat="39.3055170" lon="-0.7744520">
        <ele>887.0</ele>
        <time>2018-09-16T10:38:48Z</time>
      </trkpt>
      <trkpt lat="39.3055200" lon="-0.7744770">
        <ele>887.0</ele>
        <time>2018-09-16T10:38:49Z</time>
      </trkpt>
      <trkpt lat="39.3055200" lon="-0.7744770">
        <ele>887.0</ele>
        <time>2018-09-16T10:38:50Z</time>
      </trkpt>
      <trkpt lat="39.3055230" lon="-0.7745270">
        <ele>887.0</ele>
        <time>2018-09-16T10:38:51Z</time>
      </trkpt>
      <trkpt lat="39.3055230" lon="-0.7745270">
        <ele>887.0</ele>
        <time>2018-09-16T10:38:52Z</time>
      </trkpt>
      <trkpt lat="39.3055230" lon="-0.7745750">
        <ele>887.0</ele>
        <time>2018-09-16T10:38:53Z</time>
      </trkpt>
      <trkpt lat="39.3055230" lon="-0.7745750">
        <ele>887.0</ele>
        <time>2018-09-16T10:38:54Z</time>
      </trkpt>
      <trkpt lat="39.3055270" lon="-0.7746250">
        <ele>887.0</ele>
        <time>2018-09-16T10:38:55Z</time>
      </trkpt>
      <trkpt lat="39.3055270" lon="-0.7746250">
        <ele>887.0</ele>
        <time>2018-09-16T10:38:56Z</time>
      </trkpt>
      <trkpt lat="39.3055250" lon="-0.7746720">
        <ele>887.0</ele>
        <time>2018-09-16T10:38:57Z</time>
      </trkpt>
      <trkpt lat="39.3055230" lon="-0.7746970">
        <ele>887.0</ele>
        <time>2018-09-16T10:38:58Z</time>
      </trkpt>
      <trkpt lat="39.3055230" lon="-0.7746970">
        <ele>888.0</ele>
        <time>2018-09-16T10:38:59Z</time>
      </trkpt>
      <trkpt lat="39.3055230" lon="-0.7747480">
        <ele>888.0</ele>
        <time>2018-09-16T10:39:00Z</time>
      </trkpt>
      <trkpt lat="39.3055220" lon="-0.7747750">
        <ele>888.0</ele>
        <time>2018-09-16T10:39:01Z</time>
      </trkpt>
      <trkpt lat="39.3055220" lon="-0.7747750">
        <ele>888.0</ele>
        <time>2018-09-16T10:39:02Z</time>
      </trkpt>
      <trkpt lat="39.3055220" lon="-0.7748330">
        <ele>888.0</ele>
        <time>2018-09-16T10:39:03Z</time>
      </trkpt>
      <trkpt lat="39.3055220" lon="-0.7748330">
        <ele>888.0</ele>
        <time>2018-09-16T10:39:04Z</time>
      </trkpt>
      <trkpt lat="39.3055200" lon="-0.7748900">
        <ele>888.0</ele>
        <time>2018-09-16T10:39:05Z</time>
      </trkpt>
      <trkpt lat="39.3055180" lon="-0.7749180">
        <ele>888.0</ele>
        <time>2018-09-16T10:39:06Z</time>
      </trkpt>
      <trkpt lat="39.3055180" lon="-0.7749180">
        <ele>888.0</ele>
        <time>2018-09-16T10:39:07Z</time>
      </trkpt>
      <trkpt lat="39.3055120" lon="-0.7749770">
        <ele>888.0</ele>
        <time>2018-09-16T10:39:08Z</time>
      </trkpt>
      <trkpt lat="39.3055120" lon="-0.7749770">
        <ele>888.0</ele>
        <time>2018-09-16T10:39:09Z</time>
      </trkpt>
      <trkpt lat="39.3055030" lon="-0.7750400">
        <ele>889.0</ele>
        <time>2018-09-16T10:39:10Z</time>
      </trkpt>
      <trkpt lat="39.3055030" lon="-0.7750400">
        <ele>889.0</ele>
        <time>2018-09-16T10:39:11Z</time>
      </trkpt>
      <trkpt lat="39.3054930" lon="-0.7750970">
        <ele>889.0</ele>
        <time>2018-09-16T10:39:12Z</time>
      </trkpt>
      <trkpt lat="39.3054920" lon="-0.7751220">
        <ele>889.0</ele>
        <time>2018-09-16T10:39:13Z</time>
      </trkpt>
      <trkpt lat="39.3054920" lon="-0.7751220">
        <ele>889.0</ele>
        <time>2018-09-16T10:39:14Z</time>
      </trkpt>
      <trkpt lat="39.3054850" lon="-0.7751780">
        <ele>889.0</ele>
        <time>2018-09-16T10:39:15Z</time>
      </trkpt>
      <trkpt lat="39.3054800" lon="-0.7752050">
        <ele>890.0</ele>
        <time>2018-09-16T10:39:16Z</time>
      </trkpt>
      <trkpt lat="39.3054800" lon="-0.7752050">
        <ele>890.0</ele>
        <time>2018-09-16T10:39:17Z</time>
      </trkpt>
      <trkpt lat="39.3054670" lon="-0.7752470">
        <ele>890.0</ele>
        <time>2018-09-16T10:39:18Z</time>
      </trkpt>
      <trkpt lat="39.3054670" lon="-0.7752470">
        <ele>890.0</ele>
        <time>2018-09-16T10:39:19Z</time>
      </trkpt>
      <trkpt lat="39.3054550" lon="-0.7752720">
        <ele>890.0</ele>
        <time>2018-09-16T10:39:20Z</time>
      </trkpt>
      <trkpt lat="39.3054530" lon="-0.7752920">
        <ele>890.0</ele>
        <time>2018-09-16T10:39:21Z</time>
      </trkpt>
      <trkpt lat="39.3054510" lon="-0.7753200">
        <ele>890.0</ele>
        <time>2018-09-16T10:39:22Z</time>
      </trkpt>
      <trkpt lat="39.3054480" lon="-0.7753470">
        <ele>890.0</ele>
        <time>2018-09-16T10:39:23Z</time>
      </trkpt>
      <trkpt lat="39.3054480" lon="-0.7753700">
        <ele>891.0</ele>
        <time>2018-09-16T10:39:24Z</time>
      </trkpt>
      <trkpt lat="39.3054480" lon="-0.7753700">
        <ele>891.0</ele>
        <time>2018-09-16T10:39:25Z</time>
      </trkpt>
      <trkpt lat="39.3054540" lon="-0.7754360">
        <ele>891.0</ele>
        <time>2018-09-16T10:39:26Z</time>
      </trkpt>
      <trkpt lat="39.3054550" lon="-0.7754500">
        <ele>891.0</ele>
        <time>2018-09-16T10:39:27Z</time>
      </trkpt>
      <trkpt lat="39.3054570" lon="-0.7754770">
        <ele>891.0</ele>
        <time>2018-09-16T10:39:28Z</time>
      </trkpt>
      <trkpt lat="39.3054570" lon="-0.7754770">
        <ele>891.0</ele>
        <time>2018-09-16T10:39:29Z</time>
      </trkpt>
      <trkpt lat="39.3054550" lon="-0.7755300">
        <ele>891.0</ele>
        <time>2018-09-16T10:39:30Z</time>
      </trkpt>
      <trkpt lat="39.3054550" lon="-0.7755550">
        <ele>891.0</ele>
        <time>2018-09-16T10:39:31Z</time>
      </trkpt>
      <trkpt lat="39.3054550" lon="-0.7755550">
        <ele>891.0</ele>
        <time>2018-09-16T10:39:32Z</time>
      </trkpt>
      <trkpt lat="39.3054480" lon="-0.7756150">
        <ele>891.0</ele>
        <time>2018-09-16T10:39:33Z</time>
      </trkpt>
      <trkpt lat="39.3054450" lon="-0.7756450">
        <ele>891.0</ele>
        <time>2018-09-16T10:39:34Z</time>
      </trkpt>
      <trkpt lat="39.3054420" lon="-0.7756730">
        <ele>892.0</ele>
        <time>2018-09-16T10:39:35Z</time>
      </trkpt>
      <trkpt lat="39.3054420" lon="-0.7756730">
        <ele>892.0</ele>
        <time>2018-09-16T10:39:36Z</time>
      </trkpt>
      <trkpt lat="39.3054400" lon="-0.7757230">
        <ele>892.0</ele>
        <time>2018-09-16T10:39:37Z</time>
      </trkpt>
      <trkpt lat="39.3054400" lon="-0.7757230">
        <ele>892.0</ele>
        <time>2018-09-16T10:39:38Z</time>
      </trkpt>
      <trkpt lat="39.3054380" lon="-0.7757770">
        <ele>893.0</ele>
        <time>2018-09-16T10:39:39Z</time>
      </trkpt>
      <trkpt lat="39.3054380" lon="-0.7757770">
        <ele>893.0</ele>
        <time>2018-09-16T10:39:40Z</time>
      </trkpt>
      <trkpt lat="39.3054330" lon="-0.7758230">
        <ele>893.0</ele>
        <time>2018-09-16T10:39:41Z</time>
      </trkpt>
      <trkpt lat="39.3054330" lon="-0.7758230">
        <ele>893.0</ele>
        <time>2018-09-16T10:39:42Z</time>
      </trkpt>
      <trkpt lat="39.3054300" lon="-0.7758770">
        <ele>893.0</ele>
        <time>2018-09-16T10:39:43Z</time>
      </trkpt>
      <trkpt lat="39.3054300" lon="-0.7758770">
        <ele>893.0</ele>
        <time>2018-09-16T10:39:44Z</time>
      </trkpt>
      <trkpt lat="39.3054270" lon="-0.7759320">
        <ele>894.0</ele>
        <time>2018-09-16T10:39:45Z</time>
      </trkpt>
      <trkpt lat="39.3054250" lon="-0.7759580">
        <ele>894.0</ele>
        <time>2018-09-16T10:39:46Z</time>
      </trkpt>
      <trkpt lat="39.3054250" lon="-0.7759580">
        <ele>894.0</ele>
        <time>2018-09-16T10:39:47Z</time>
      </trkpt>
      <trkpt lat="39.3054250" lon="-0.7760120">
        <ele>894.0</ele>
        <time>2018-09-16T10:39:48Z</time>
      </trkpt>
      <trkpt lat="39.3054250" lon="-0.7760350">
        <ele>894.0</ele>
        <time>2018-09-16T10:39:49Z</time>
      </trkpt>
      <trkpt lat="39.3054250" lon="-0.7760350">
        <ele>894.0</ele>
        <time>2018-09-16T10:39:50Z</time>
      </trkpt>
      <trkpt lat="39.3054230" lon="-0.7760830">
        <ele>894.0</ele>
        <time>2018-09-16T10:39:51Z</time>
      </trkpt>
      <trkpt lat="39.3054230" lon="-0.7761070">
        <ele>894.0</ele>
        <time>2018-09-16T10:39:52Z</time>
      </trkpt>
      <trkpt lat="39.3054220" lon="-0.7761320">
        <ele>895.0</ele>
        <time>2018-09-16T10:39:53Z</time>
      </trkpt>
      <trkpt lat="39.3054220" lon="-0.7761320">
        <ele>895.0</ele>
        <time>2018-09-16T10:39:54Z</time>
      </trkpt>
      <trkpt lat="39.3054250" lon="-0.7761850">
        <ele>895.0</ele>
        <time>2018-09-16T10:39:55Z</time>
      </trkpt>
      <trkpt lat="39.3054250" lon="-0.7761850">
        <ele>895.0</ele>
        <time>2018-09-16T10:39:56Z</time>
      </trkpt>
      <trkpt lat="39.3054300" lon="-0.7762300">
        <ele>896.0</ele>
        <time>2018-09-16T10:39:57Z</time>
      </trkpt>
      <trkpt lat="39.3054300" lon="-0.7762300">
        <ele>896.0</ele>
        <time>2018-09-16T10:39:58Z</time>
      </trkpt>
      <trkpt lat="39.3054320" lon="-0.7762680">
        <ele>896.0</ele>
        <time>2018-09-16T10:39:59Z</time>
      </trkpt>
      <trkpt lat="39.3054320" lon="-0.7762680">
        <ele>896.0</ele>
        <time>2018-09-16T10:40:00Z</time>
      </trkpt>
      <trkpt lat="39.3054320" lon="-0.7763100">
        <ele>896.0</ele>
        <time>2018-09-16T10:40:01Z</time>
      </trkpt>
      <trkpt lat="39.3054320" lon="-0.7763100">
        <ele>896.0</ele>
        <time>2018-09-16T10:40:02Z</time>
      </trkpt>
      <trkpt lat="39.3054300" lon="-0.7763480">
        <ele>897.0</ele>
        <time>2018-09-16T10:40:03Z</time>
      </trkpt>
      <trkpt lat="39.3054300" lon="-0.7763670">
        <ele>897.0</ele>
        <time>2018-09-16T10:40:04Z</time>
      </trkpt>
      <trkpt lat="39.3054300" lon="-0.7763670">
        <ele>897.0</ele>
        <time>2018-09-16T10:40:05Z</time>
      </trkpt>
      <trkpt lat="39.3054350" lon="-0.7764100">
        <ele>897.0</ele>
        <time>2018-09-16T10:40:06Z</time>
      </trkpt>
      <trkpt lat="39.3054370" lon="-0.7764270">
        <ele>897.0</ele>
        <time>2018-09-16T10:40:07Z</time>
      </trkpt>
      <trkpt lat="39.3054370" lon="-0.7764270">
        <ele>897.0</ele>
        <time>2018-09-16T10:40:08Z</time>
      </trkpt>
      <trkpt lat="39.3054280" lon="-0.7764620">
        <ele>897.0</ele>
        <time>2018-09-16T10:40:09Z</time>
      </trkpt>
      <trkpt lat="39.3054280" lon="-0.7764620">
        <ele>897.0</ele>
        <time>2018-09-16T10:40:10Z</time>
      </trkpt>
      <trkpt lat="39.3054230" lon="-0.7765070">
        <ele>898.0</ele>
        <time>2018-09-16T10:40:11Z</time>
      </trkpt>
      <trkpt lat="39.3054230" lon="-0.7765070">
        <ele>898.0</ele>
        <time>2018-09-16T10:40:12Z</time>
      </trkpt>
      <trkpt lat="39.3054250" lon="-0.7765480">
        <ele>898.0</ele>
        <time>2018-09-16T10:40:13Z</time>
      </trkpt>
      <trkpt lat="39.3054250" lon="-0.7765480">
        <ele>898.0</ele>
        <time>2018-09-16T10:40:14Z</time>
      </trkpt>
      <trkpt lat="39.3054250" lon="-0.7765850">
        <ele>899.0</ele>
        <time>2018-09-16T10:40:15Z</time>
      </trkpt>
      <trkpt lat="39.3054250" lon="-0.7765850">
        <ele>899.0</ele>
        <time>2018-09-16T10:40:16Z</time>
      </trkpt>
      <trkpt lat="39.3054180" lon="-0.7766220">
        <ele>899.0</ele>
        <time>2018-09-16T10:40:17Z</time>
      </trkpt>
      <trkpt lat="39.3054180" lon="-0.7766220">
        <ele>899.0</ele>
        <time>2018-09-16T10:40:18Z</time>
      </trkpt>
      <trkpt lat="39.3054100" lon="-0.7766570">
        <ele>899.0</ele>
        <time>2018-09-16T10:40:19Z</time>
      </trkpt>
      <trkpt lat="39.3054100" lon="-0.7766570">
        <ele>899.0</ele>
        <time>2018-09-16T10:40:20Z</time>
      </trkpt>
      <trkpt lat="39.3054030" lon="-0.7766970">
        <ele>899.0</ele>
        <time>2018-09-16T10:40:21Z</time>
      </trkpt>
      <trkpt lat="39.3054000" lon="-0.7767180">
        <ele>900.0</ele>
        <time>2018-09-16T10:40:22Z</time>
      </trkpt>
      <trkpt lat="39.3054000" lon="-0.7767180">
        <ele>900.0</ele>
        <time>2018-09-16T10:40:23Z</time>
      </trkpt>
      <trkpt lat="39.3054000" lon="-0.7767700">
        <ele>901.0</ele>
        <time>2018-09-16T10:40:24Z</time>
      </trkpt>
      <trkpt lat="39.3054000" lon="-0.7767700">
        <ele>901.0</ele>
        <time>2018-09-16T10:40:25Z</time>
      </trkpt>
      <trkpt lat="39.3053980" lon="-0.7768230">
        <ele>901.0</ele>
        <time>2018-09-16T10:40:26Z</time>
      </trkpt>
      <trkpt lat="39.3053980" lon="-0.7768230">
        <ele>901.0</ele>
        <time>2018-09-16T10:40:27Z</time>
      </trkpt>
      <trkpt lat="39.3053880" lon="-0.7768700">
        <ele>901.0</ele>
        <time>2018-09-16T10:40:28Z</time>
      </trkpt>
      <trkpt lat="39.3053870" lon="-0.7768970">
        <ele>901.0</ele>
        <time>2018-09-16T10:40:29Z</time>
      </trkpt>
      <trkpt lat="39.3053870" lon="-0.7768970">
        <ele>902.0</ele>
        <time>2018-09-16T10:40:30Z</time>
      </trkpt>
      <trkpt lat="39.3053870" lon="-0.7769470">
        <ele>902.0</ele>
        <time>2018-09-16T10:40:31Z</time>
      </trkpt>
      <trkpt lat="39.3053870" lon="-0.7769470">
        <ele>902.0</ele>
        <time>2018-09-16T10:40:32Z</time>
      </trkpt>
      <trkpt lat="39.3053770" lon="-0.7769930">
        <ele>902.0</ele>
        <time>2018-09-16T10:40:33Z</time>
      </trkpt>
      <trkpt lat="39.3053730" lon="-0.7770130">
        <ele>902.0</ele>
        <time>2018-09-16T10:40:34Z</time>
      </trkpt>
      <trkpt lat="39.3053730" lon="-0.7770130">
        <ele>902.0</ele>
        <time>2018-09-16T10:40:35Z</time>
      </trkpt>
      <trkpt lat="39.3053670" lon="-0.7770650">
        <ele>902.0</ele>
        <time>2018-09-16T10:40:36Z</time>
      </trkpt>
      <trkpt lat="39.3053630" lon="-0.7770900">
        <ele>902.0</ele>
        <time>2018-09-16T10:40:37Z</time>
      </trkpt>
      <trkpt lat="39.3053630" lon="-0.7770900">
        <ele>902.0</ele>
        <time>2018-09-16T10:40:38Z</time>
      </trkpt>
      <trkpt lat="39.3053530" lon="-0.7771330">
        <ele>902.0</ele>
        <time>2018-09-16T10:40:39Z</time>
      </trkpt>
      <trkpt lat="39.3053530" lon="-0.7771330">
        <ele>902.0</ele>
        <time>2018-09-16T10:40:40Z</time>
      </trkpt>
      <trkpt lat="39.3053520" lon="-0.7771800">
        <ele>902.0</ele>
        <time>2018-09-16T10:40:41Z</time>
      </trkpt>
      <trkpt lat="39.3053470" lon="-0.7772020">
        <ele>904.0</ele>
        <time>2018-09-16T10:40:42Z</time>
      </trkpt>
      <trkpt lat="39.3053470" lon="-0.7772020">
        <ele>904.0</ele>
        <time>2018-09-16T10:40:43Z</time>
      </trkpt>
      <trkpt lat="39.3053430" lon="-0.7772480">
        <ele>904.0</ele>
        <time>2018-09-16T10:40:44Z</time>
      </trkpt>
      <trkpt lat="39.3053430" lon="-0.7772480">
        <ele>904.0</ele>
        <time>2018-09-16T10:40:45Z</time>
      </trkpt>
      <trkpt lat="39.3053430" lon="-0.7772980">
        <ele>904.0</ele>
        <time>2018-09-16T10:40:46Z</time>
      </trkpt>
      <trkpt lat="39.3053430" lon="-0.7772980">
        <ele>905.0</ele>
        <time>2018-09-16T10:40:47Z</time>
      </trkpt>
      <trkpt lat="39.3053380" lon="-0.7773430">
        <ele>905.0</ele>
        <time>2018-09-16T10:40:48Z</time>
      </trkpt>
      <trkpt lat="39.3053350" lon="-0.7773700">
        <ele>905.0</ele>
        <time>2018-09-16T10:40:49Z</time>
      </trkpt>
      <trkpt lat="39.3053350" lon="-0.7773700">
        <ele>905.0</ele>
        <time>2018-09-16T10:40:50Z</time>
      </trkpt>
      <trkpt lat="39.3053250" lon="-0.7774180">
        <ele>906.0</ele>
        <time>2018-09-16T10:40:51Z</time>
      </trkpt>
      <trkpt lat="39.3053220" lon="-0.7774420">
        <ele>906.0</ele>
        <time>2018-09-16T10:40:52Z</time>
      </trkpt>
      <trkpt lat="39.3053180" lon="-0.7774620">
        <ele>906.0</ele>
        <time>2018-09-16T10:40:53Z</time>
      </trkpt>
      <trkpt lat="39.3053180" lon="-0.7774620">
        <ele>906.0</ele>
        <time>2018-09-16T10:40:54Z</time>
      </trkpt>
      <trkpt lat="39.3053080" lon="-0.7775100">
        <ele>907.0</ele>
        <time>2018-09-16T10:40:55Z</time>
      </trkpt>
      <trkpt lat="39.3053080" lon="-0.7775100">
        <ele>907.0</ele>
        <time>2018-09-16T10:40:56Z</time>
      </trkpt>
      <trkpt lat="39.3053020" lon="-0.7775530">
        <ele>907.0</ele>
        <time>2018-09-16T10:40:57Z</time>
      </trkpt>
      <trkpt lat="39.3052970" lon="-0.7775770">
        <ele>907.0</ele>
        <time>2018-09-16T10:40:58Z</time>
      </trkpt>
      <trkpt lat="39.3052970" lon="-0.7775770">
        <ele>908.0</ele>
        <time>2018-09-16T10:40:59Z</time>
      </trkpt>
      <trkpt lat="39.3052870" lon="-0.7776220">
        <ele>908.0</ele>
        <time>2018-09-16T10:41:00Z</time>
      </trkpt>
      <trkpt lat="39.3052830" lon="-0.7776400">
        <ele>908.0</ele>
        <time>2018-09-16T10:41:01Z</time>
      </trkpt>
      <trkpt lat="39.3052830" lon="-0.7776400">
        <ele>908.0</ele>
        <time>2018-09-16T10:41:02Z</time>
      </trkpt>
      <trkpt lat="39.3052720" lon="-0.7776880">
        <ele>908.0</ele>
        <time>2018-09-16T10:41:03Z</time>
      </trkpt>
      <trkpt lat="39.3052650" lon="-0.7777150">
        <ele>908.0</ele>
        <time>2018-09-16T10:41:04Z</time>
      </trkpt>
      <trkpt lat="39.3052580" lon="-0.7777400">
        <ele>908.0</ele>
        <time>2018-09-16T10:41:05Z</time>
      </trkpt>
      <trkpt lat="39.3052580" lon="-0.7777400">
        <ele>908.0</ele>
        <time>2018-09-16T10:41:06Z</time>
      </trkpt>
      <trkpt lat="39.3052500" lon="-0.7777780">
        <ele>908.0</ele>
        <time>2018-09-16T10:41:07Z</time>
      </trkpt>
      <trkpt lat="39.3052500" lon="-0.7777780">
        <ele>908.0</ele>
        <time>2018-09-16T10:41:08Z</time>
      </trkpt>
      <trkpt lat="39.3052400" lon="-0.7778180">
        <ele>908.0</ele>
        <time>2018-09-16T10:41:09Z</time>
      </trkpt>
      <trkpt lat="39.3052400" lon="-0.7778180">
        <ele>909.0</ele>
        <time>2018-09-16T10:41:10Z</time>
      </trkpt>
      <trkpt lat="39.3052330" lon="-0.7778580">
        <ele>909.0</ele>
        <time>2018-09-16T10:41:11Z</time>
      </trkpt>
      <trkpt lat="39.3052330" lon="-0.7778580">
        <ele>909.0</ele>
        <time>2018-09-16T10:41:12Z</time>
      </trkpt>
      <trkpt lat="39.3052320" lon="-0.7779020">
        <ele>909.0</ele>
        <time>2018-09-16T10:41:13Z</time>
      </trkpt>
      <trkpt lat="39.3052320" lon="-0.7779020">
        <ele>910.0</ele>
        <time>2018-09-16T10:41:14Z</time>
      </trkpt>
      <trkpt lat="39.3052250" lon="-0.7779420">
        <ele>910.0</ele>
        <time>2018-09-16T10:41:15Z</time>
      </trkpt>
      <trkpt lat="39.3052200" lon="-0.7779570">
        <ele>910.0</ele>
        <time>2018-09-16T10:41:16Z</time>
      </trkpt>
      <trkpt lat="39.3052200" lon="-0.7779570">
        <ele>910.0</ele>
        <time>2018-09-16T10:41:17Z</time>
      </trkpt>
      <trkpt lat="39.3052130" lon="-0.7779870">
        <ele>911.0</ele>
        <time>2018-09-16T10:41:18Z</time>
      </trkpt>
      <trkpt lat="39.3052120" lon="-0.7780020">
        <ele>911.0</ele>
        <time>2018-09-16T10:41:19Z</time>
      </trkpt>
      <trkpt lat="39.3052120" lon="-0.7780020">
        <ele>911.0</ele>
        <time>2018-09-16T10:41:20Z</time>
      </trkpt>
      <trkpt lat="39.3052100" lon="-0.7780370">
        <ele>911.0</ele>
        <time>2018-09-16T10:41:21Z</time>
      </trkpt>
      <trkpt lat="39.3052080" lon="-0.7780520">
        <ele>911.0</ele>
        <time>2018-09-16T10:41:22Z</time>
      </trkpt>
      <trkpt lat="39.3052080" lon="-0.7780520">
        <ele>911.0</ele>
        <time>2018-09-16T10:41:23Z</time>
      </trkpt>
      <trkpt lat="39.3052120" lon="-0.7780870">
        <ele>912.0</ele>
        <time>2018-09-16T10:41:24Z</time>
      </trkpt>
      <trkpt lat="39.3052120" lon="-0.7780870">
        <ele>912.0</ele>
        <time>2018-09-16T10:41:25Z</time>
      </trkpt>
      <trkpt lat="39.3052130" lon="-0.7781220">
        <ele>912.0</ele>
        <time>2018-09-16T10:41:26Z</time>
      </trkpt>
      <trkpt lat="39.3052130" lon="-0.7781220">
        <ele>912.0</ele>
        <time>2018-09-16T10:41:27Z</time>
      </trkpt>
      <trkpt lat="39.3052170" lon="-0.7781550">
        <ele>913.0</ele>
        <time>2018-09-16T10:41:28Z</time>
      </trkpt>
      <trkpt lat="39.3052170" lon="-0.7781550">
        <ele>913.0</ele>
        <time>2018-09-16T10:41:29Z</time>
      </trkpt>
      <trkpt lat="39.3052130" lon="-0.7781870">
        <ele>913.0</ele>
        <time>2018-09-16T10:58:03Z</time>
      </trkpt>
      <trkpt lat="39.3052130" lon="-0.7781870">
        <ele>913.0</ele>
        <time>2018-09-16T10:58:04Z</time>
      </trkpt>
      <trkpt lat="39.3051850" lon="-0.7781870">
        <ele>913.0</ele>
        <time>2018-09-16T10:58:05Z</time>
      </trkpt>
      <trkpt lat="39.3051850" lon="-0.7781870">
        <ele>913.0</ele>
        <time>2018-09-16T10:58:06Z</time>
      </trkpt>
      <trkpt lat="39.3051980" lon="-0.7781730">
        <ele>913.0</ele>
        <time>2018-09-16T10:58:07Z</time>
      </trkpt>
      <trkpt lat="39.3051980" lon="-0.7781730">
        <ele>913.0</ele>
        <time>2018-09-16T10:58:08Z</time>
      </trkpt>
      <trkpt lat="39.3052030" lon="-0.7781380">
        <ele>913.0</ele>
        <time>2018-09-16T10:58:09Z</time>
      </trkpt>
      <trkpt lat="39.3052030" lon="-0.7781180">
        <ele>913.0</ele>
        <time>2018-09-16T10:58:10Z</time>
      </trkpt>
      <trkpt lat="39.3052030" lon="-0.7781180">
        <ele>913.0</ele>
        <time>2018-09-16T10:58:11Z</time>
      </trkpt>
      <trkpt lat="39.3052050" lon="-0.7780820">
        <ele>913.0</ele>
        <time>2018-09-16T10:58:12Z</time>
      </trkpt>
      <trkpt lat="39.3052070" lon="-0.7780570">
        <ele>913.0</ele>
        <time>2018-09-16T10:58:13Z</time>
      </trkpt>
      <trkpt lat="39.3052070" lon="-0.7780570">
        <ele>913.0</ele>
        <time>2018-09-16T10:58:14Z</time>
      </trkpt>
      <trkpt lat="39.3052120" lon="-0.7779730">
        <ele>913.0</ele>
        <time>2018-09-16T10:58:15Z</time>
      </trkpt>
      <trkpt lat="39.3052180" lon="-0.7779120">
        <ele>912.0</ele>
        <time>2018-09-16T10:58:16Z</time>
      </trkpt>
      <trkpt lat="39.3052180" lon="-0.7779120">
        <ele>912.0</ele>
        <time>2018-09-16T10:58:17Z</time>
      </trkpt>
      <trkpt lat="39.3052480" lon="-0.7777620">
        <ele>912.0</ele>
        <time>2018-09-16T10:58:18Z</time>
      </trkpt>
      <trkpt lat="39.3052680" lon="-0.7776730">
        <ele>912.0</ele>
        <time>2018-09-16T10:58:19Z</time>
      </trkpt>
      <trkpt lat="39.3052680" lon="-0.7776730">
        <ele>911.0</ele>
        <time>2018-09-16T10:58:20Z</time>
      </trkpt>
      <trkpt lat="39.3053080" lon="-0.7774700">
        <ele>911.0</ele>
        <time>2018-09-16T10:58:21Z</time>
      </trkpt>
      <trkpt lat="39.3053080" lon="-0.7774700">
        <ele>910.0</ele>
        <time>2018-09-16T10:58:22Z</time>
      </trkpt>
      <trkpt lat="39.3053380" lon="-0.7772380">
        <ele>910.0</ele>
        <time>2018-09-16T10:58:23Z</time>
      </trkpt>
      <trkpt lat="39.3053380" lon="-0.7772380">
        <ele>909.0</ele>
        <time>2018-09-16T10:58:24Z</time>
      </trkpt>
      <trkpt lat="39.3053670" lon="-0.7769820">
        <ele>909.0</ele>
        <time>2018-09-16T10:58:25Z</time>
      </trkpt>
      <trkpt lat="39.3053670" lon="-0.7769820">
        <ele>907.0</ele>
        <time>2018-09-16T10:58:26Z</time>
      </trkpt>
      <trkpt lat="39.3053930" lon="-0.7767070">
        <ele>907.0</ele>
        <time>2018-09-16T10:58:27Z</time>
      </trkpt>
      <trkpt lat="39.3053930" lon="-0.7767070">
        <ele>906.0</ele>
        <time>2018-09-16T10:58:28Z</time>
      </trkpt>
      <trkpt lat="39.3054120" lon="-0.7764170">
        <ele>906.0</ele>
        <time>2018-09-16T10:58:29Z</time>
      </trkpt>
      <trkpt lat="39.3054120" lon="-0.7764170">
        <ele>904.0</ele>
        <time>2018-09-16T10:58:30Z</time>
      </trkpt>
      <trkpt lat="39.3054080" lon="-0.7761050">
        <ele>902.0</ele>
        <time>2018-09-16T10:58:31Z</time>
      </trkpt>
      <trkpt lat="39.3054080" lon="-0.7761050">
        <ele>902.0</ele>
        <time>2018-09-16T10:58:32Z</time>
      </trkpt>
      <trkpt lat="39.3054150" lon="-0.7757820">
        <ele>901.0</ele>
        <time>2018-09-16T10:58:33Z</time>
      </trkpt>
      <trkpt lat="39.3054150" lon="-0.7757820">
        <ele>901.0</ele>
        <time>2018-09-16T10:58:34Z</time>
      </trkpt>
      <trkpt lat="39.3054300" lon="-0.7754980">
        <ele>898.0</ele>
        <time>2018-09-16T10:58:35Z</time>
      </trkpt>
      <trkpt lat="39.3054400" lon="-0.7754000">
        <ele>898.0</ele>
        <time>2018-09-16T10:58:36Z</time>
      </trkpt>
      <trkpt lat="39.3054400" lon="-0.7754000">
        <ele>895.0</ele>
        <time>2018-09-16T10:58:37Z</time>
      </trkpt>
      <trkpt lat="39.3054170" lon="-0.7753330">
        <ele>895.0</ele>
        <time>2018-09-16T10:58:38Z</time>
      </trkpt>
      <trkpt lat="39.3054170" lon="-0.7753330">
        <ele>893.0</ele>
        <time>2018-09-16T10:58:39Z</time>
      </trkpt>
      <trkpt lat="39.3053950" lon="-0.7753320">
        <ele>893.0</ele>
        <time>2018-09-16T10:58:40Z</time>
      </trkpt>
      <trkpt lat="39.3053950" lon="-0.7753320">
        <ele>892.0</ele>
        <time>2018-09-16T10:58:41Z</time>
      </trkpt>
      <trkpt lat="39.3053870" lon="-0.7753130">
        <ele>892.0</ele>
        <time>2018-09-16T10:58:42Z</time>
      </trkpt>
      <trkpt lat="39.3053880" lon="-0.7753010">
        <ele>892.0</ele>
        <time>2018-09-16T10:58:43Z</time>
      </trkpt>
      <trkpt lat="39.3053930" lon="-0.7752960">
        <ele>892.0</ele>
        <time>2018-09-16T10:58:44Z</time>
      </trkpt>
      <trkpt lat="39.3053980" lon="-0.7752900">
        <ele>891.0</ele>
        <time>2018-09-16T10:58:45Z</time>
      </trkpt>
      <trkpt lat="39.3054100" lon="-0.7752880">
        <ele>891.0</ele>
        <time>2018-09-16T10:58:46Z</time>
      </trkpt>
      <trkpt lat="39.3054220" lon="-0.7752900">
        <ele>891.0</ele>
        <time>2018-09-16T10:58:47Z</time>
      </trkpt>
      <trkpt lat="39.3054220" lon="-0.7752900">
        <ele>891.0</ele>
        <time>2018-09-16T10:58:48Z</time>
      </trkpt>
      <trkpt lat="39.3054550" lon="-0.7752520">
        <ele>891.0</ele>
        <time>2018-09-16T10:58:49Z</time>
      </trkpt>
      <trkpt lat="39.3054620" lon="-0.7752270">
        <ele>891.0</ele>
        <time>2018-09-16T10:58:50Z</time>
      </trkpt>
      <trkpt lat="39.3054690" lon="-0.7752010">
        <ele>891.0</ele>
        <time>2018-09-16T10:58:51Z</time>
      </trkpt>
      <trkpt lat="39.3054750" lon="-0.7751750">
        <ele>891.0</ele>
        <time>2018-09-16T10:58:52Z</time>
      </trkpt>
      <trkpt lat="39.3054820" lon="-0.7751500">
        <ele>891.0</ele>
        <time>2018-09-16T10:58:53Z</time>
      </trkpt>
      <trkpt lat="39.3054890" lon="-0.7751240">
        <ele>891.0</ele>
        <time>2018-09-16T10:58:54Z</time>
      </trkpt>
      <trkpt lat="39.3055030" lon="-0.7750430">
        <ele>890.0</ele>
        <time>2018-09-16T10:58:55Z</time>
      </trkpt>
      <trkpt lat="39.3055030" lon="-0.7750430">
        <ele>890.0</ele>
        <time>2018-09-16T10:58:56Z</time>
      </trkpt>
      <trkpt lat="39.3055250" lon="-0.7749100">
        <ele>890.0</ele>
        <time>2018-09-16T10:58:57Z</time>
      </trkpt>
      <trkpt lat="39.3055320" lon="-0.7748470">
        <ele>890.0</ele>
        <time>2018-09-16T10:58:58Z</time>
      </trkpt>
      <trkpt lat="39.3055320" lon="-0.7748470">
        <ele>890.0</ele>
        <time>2018-09-16T10:58:59Z</time>
      </trkpt>
      <trkpt lat="39.3055370" lon="-0.7747170">
        <ele>888.0</ele>
        <time>2018-09-16T10:59:00Z</time>
      </trkpt>
      <trkpt lat="39.3055370" lon="-0.7746520">
        <ele>888.0</ele>
        <time>2018-09-16T10:59:01Z</time>
      </trkpt>
      <trkpt lat="39.3055330" lon="-0.7745870">
        <ele>888.0</ele>
        <time>2018-09-16T10:59:02Z</time>
      </trkpt>
      <trkpt lat="39.3055330" lon="-0.7745870">
        <ele>888.0</ele>
        <time>2018-09-16T10:59:03Z</time>
      </trkpt>
      <trkpt lat="39.3055180" lon="-0.7744450">
        <ele>888.0</ele>
        <time>2018-09-16T10:59:04Z</time>
      </trkpt>
      <trkpt lat="39.3055180" lon="-0.7744450">
        <ele>888.0</ele>
        <time>2018-09-16T10:59:05Z</time>
      </trkpt>
      <trkpt lat="39.3054970" lon="-0.7742970">
        <ele>888.0</ele>
        <time>2018-09-16T10:59:06Z</time>
      </trkpt>
      <trkpt lat="39.3054880" lon="-0.7742150">
        <ele>888.0</ele>
        <time>2018-09-16T10:59:07Z</time>
      </trkpt>
      <trkpt lat="39.3054880" lon="-0.7742150">
        <ele>888.0</ele>
        <time>2018-09-16T10:59:08Z</time>
      </trkpt>
      <trkpt lat="39.3054720" lon="-0.7740420">
        <ele>888.0</ele>
        <time>2018-09-16T10:59:09Z</time>
      </trkpt>
      <trkpt lat="39.3054720" lon="-0.7740420">
        <ele>888.0</ele>
        <time>2018-09-16T10:59:10Z</time>
      </trkpt>
      <trkpt lat="39.3054500" lon="-0.7738530">
        <ele>888.0</ele>
        <time>2018-09-16T10:59:11Z</time>
      </trkpt>
      <trkpt lat="39.3054500" lon="-0.7738530">
        <ele>887.0</ele>
        <time>2018-09-16T10:59:12Z</time>
      </trkpt>
      <trkpt lat="39.3053930" lon="-0.7736580">
        <ele>887.0</ele>
        <time>2018-09-16T10:59:13Z</time>
      </trkpt>
      <trkpt lat="39.3053930" lon="-0.7736580">
        <ele>886.0</ele>
        <time>2018-09-16T10:59:14Z</time>
      </trkpt>
      <trkpt lat="39.3053200" lon="-0.7734470">
        <ele>886.0</ele>
        <time>2018-09-16T10:59:15Z</time>
      </trkpt>
      <trkpt lat="39.3053200" lon="-0.7734470">
        <ele>885.0</ele>
        <time>2018-09-16T10:59:16Z</time>
      </trkpt>
      <trkpt lat="39.3052500" lon="-0.7732420">
        <ele>885.0</ele>
        <time>2018-09-16T10:59:17Z</time>
      </trkpt>
      <trkpt lat="39.3052230" lon="-0.7731400">
        <ele>883.0</ele>
        <time>2018-09-16T10:59:18Z</time>
      </trkpt>
      <trkpt lat="39.3052000" lon="-0.7730300">
        <ele>883.0</ele>
        <time>2018-09-16T10:59:19Z</time>
      </trkpt>
      <trkpt lat="39.3052000" lon="-0.7730300">
        <ele>882.0</ele>
        <time>2018-09-16T10:59:20Z</time>
      </trkpt>
      <trkpt lat="39.3051670" lon="-0.7727720">
        <ele>882.0</ele>
        <time>2018-09-16T10:59:21Z</time>
      </trkpt>
      <trkpt lat="39.3051450" lon="-0.7726370">
        <ele>880.0</ele>
        <time>2018-09-16T10:59:22Z</time>
      </trkpt>
      <trkpt lat="39.3051450" lon="-0.7726370">
        <ele>878.0</ele>
        <time>2018-09-16T10:59:23Z</time>
      </trkpt>
      <trkpt lat="39.3050830" lon="-0.7723630">
        <ele>878.0</ele>
        <time>2018-09-16T10:59:24Z</time>
      </trkpt>
      <trkpt lat="39.3050500" lon="-0.7722250">
        <ele>876.0</ele>
        <time>2018-09-16T10:59:25Z</time>
      </trkpt>
      <trkpt lat="39.3050500" lon="-0.7722250">
        <ele>876.0</ele>
        <time>2018-09-16T10:59:26Z</time>
      </trkpt>
      <trkpt lat="39.3050050" lon="-0.7719470">
        <ele>873.0</ele>
        <time>2018-09-16T10:59:27Z</time>
      </trkpt>
      <trkpt lat="39.3050050" lon="-0.7719470">
        <ele>873.0</ele>
        <time>2018-09-16T10:59:28Z</time>
      </trkpt>
      <trkpt lat="39.3049980" lon="-0.7716720">
        <ele>872.0</ele>
        <time>2018-09-16T10:59:29Z</time>
      </trkpt>
      <trkpt lat="39.3049980" lon="-0.7716720">
        <ele>872.0</ele>
        <time>2018-09-16T10:59:30Z</time>
      </trkpt>
      <trkpt lat="39.3050180" lon="-0.7714100">
        <ele>870.0</ele>
        <time>2018-09-16T10:59:31Z</time>
      </trkpt>
      <trkpt lat="39.3050380" lon="-0.7712830">
        <ele>870.0</ele>
        <time>2018-09-16T10:59:32Z</time>
      </trkpt>
      <trkpt lat="39.3050380" lon="-0.7712830">
        <ele>868.0</ele>
        <time>2018-09-16T10:59:33Z</time>
      </trkpt>
      <trkpt lat="39.3050770" lon="-0.7710700">
        <ele>868.0</ele>
        <time>2018-09-16T10:59:34Z</time>
      </trkpt>
      <trkpt lat="39.3050800" lon="-0.7709750">
        <ele>865.0</ele>
        <time>2018-09-16T10:59:35Z</time>
      </trkpt>
      <trkpt lat="39.3050800" lon="-0.7709750">
        <ele>865.0</ele>
        <time>2018-09-16T10:59:36Z</time>
      </trkpt>
      <trkpt lat="39.3050480" lon="-0.7707880">
        <ele>861.0</ele>
        <time>2018-09-16T10:59:37Z</time>
      </trkpt>
      <trkpt lat="39.3050480" lon="-0.7707880">
        <ele>861.0</ele>
        <time>2018-09-16T10:59:38Z</time>
      </trkpt>
      <trkpt lat="39.3050000" lon="-0.7705880">
        <ele>859.0</ele>
        <time>2018-09-16T10:59:39Z</time>
      </trkpt>
      <trkpt lat="39.3050000" lon="-0.7705880">
        <ele>859.0</ele>
        <time>2018-09-16T10:59:40Z</time>
      </trkpt>
      <trkpt lat="39.3049450" lon="-0.7703970">
        <ele>858.0</ele>
        <time>2018-09-16T10:59:41Z</time>
      </trkpt>
      <trkpt lat="39.3049450" lon="-0.7703970">
        <ele>858.0</ele>
        <time>2018-09-16T10:59:42Z</time>
      </trkpt>
      <trkpt lat="39.3048780" lon="-0.7701920">
        <ele>856.0</ele>
        <time>2018-09-16T10:59:43Z</time>
      </trkpt>
      <trkpt lat="39.3048780" lon="-0.7701920">
        <ele>856.0</ele>
        <time>2018-09-16T10:59:44Z</time>
      </trkpt>
      <trkpt lat="39.3048030" lon="-0.7699600">
        <ele>854.0</ele>
        <time>2018-09-16T10:59:45Z</time>
      </trkpt>
      <trkpt lat="39.3047620" lon="-0.7698380">
        <ele>854.0</ele>
        <time>2018-09-16T10:59:46Z</time>
      </trkpt>
      <trkpt lat="39.3047620" lon="-0.7698380">
        <ele>851.0</ele>
        <time>2018-09-16T10:59:47Z</time>
      </trkpt>
      <trkpt lat="39.3046850" lon="-0.7696280">
        <ele>848.0</ele>
        <time>2018-09-16T10:59:48Z</time>
      </trkpt>
      <trkpt lat="39.3046570" lon="-0.7695300">
        <ele>848.0</ele>
        <time>2018-09-16T10:59:49Z</time>
      </trkpt>
      <trkpt lat="39.3046570" lon="-0.7695300">
        <ele>845.0</ele>
        <time>2018-09-16T10:59:50Z</time>
      </trkpt>
      <trkpt lat="39.3046220" lon="-0.7693230">
        <ele>845.0</ele>
        <time>2018-09-16T10:59:51Z</time>
      </trkpt>
      <trkpt lat="39.3046220" lon="-0.7693230">
        <ele>844.0</ele>
        <time>2018-09-16T10:59:52Z</time>
      </trkpt>
      <trkpt lat="39.3046430" lon="-0.7691080">
        <ele>844.0</ele>
        <time>2018-09-16T10:59:53Z</time>
      </trkpt>
      <trkpt lat="39.3046430" lon="-0.7691080">
        <ele>842.0</ele>
        <time>2018-09-16T10:59:54Z</time>
      </trkpt>
      <trkpt lat="39.3047070" lon="-0.7688850">
        <ele>842.0</ele>
        <time>2018-09-16T10:59:55Z</time>
      </trkpt>
      <trkpt lat="39.3047070" lon="-0.7688850">
        <ele>839.0</ele>
        <time>2018-09-16T10:59:56Z</time>
      </trkpt>
      <trkpt lat="39.3047480" lon="-0.7686430">
        <ele>839.0</ele>
        <time>2018-09-16T10:59:57Z</time>
      </trkpt>
      <trkpt lat="39.3047480" lon="-0.7686430">
        <ele>837.0</ele>
        <time>2018-09-16T10:59:58Z</time>
      </trkpt>
      <trkpt lat="39.3047430" lon="-0.7683750">
        <ele>837.0</ele>
        <time>2018-09-16T10:59:59Z</time>
      </trkpt>
      <trkpt lat="39.3047280" lon="-0.7682370">
        <ele>836.0</ele>
        <time>2018-09-16T11:00:00Z</time>
      </trkpt>
      <trkpt lat="39.3047080" lon="-0.7681020">
        <ele>836.0</ele>
        <time>2018-09-16T11:00:01Z</time>
      </trkpt>
      <trkpt lat="39.3047080" lon="-0.7681020">
        <ele>834.0</ele>
        <time>2018-09-16T11:00:02Z</time>
      </trkpt>
      <trkpt lat="39.3046430" lon="-0.7678380">
        <ele>834.0</ele>
        <time>2018-09-16T11:00:03Z</time>
      </trkpt>
      <trkpt lat="39.3046430" lon="-0.7678380">
        <ele>834.0</ele>
        <time>2018-09-16T11:00:04Z</time>
      </trkpt>
      <trkpt lat="39.3045550" lon="-0.7675680">
        <ele>834.0</ele>
        <time>2018-09-16T11:00:05Z</time>
      </trkpt>
      <trkpt lat="39.3045100" lon="-0.7674370">
        <ele>831.0</ele>
        <time>2018-09-16T11:00:06Z</time>
      </trkpt>
      <trkpt lat="39.3044600" lon="-0.7673130">
        <ele>831.0</ele>
        <time>2018-09-16T11:00:07Z</time>
      </trkpt>
      <trkpt lat="39.3044600" lon="-0.7673130">
        <ele>828.0</ele>
        <time>2018-09-16T11:00:08Z</time>
      </trkpt>
      <trkpt lat="39.3043650" lon="-0.7670930">
        <ele>828.0</ele>
        <time>2018-09-16T11:00:09Z</time>
      </trkpt>
      <trkpt lat="39.3043650" lon="-0.7670930">
        <ele>826.0</ele>
        <time>2018-09-16T11:00:10Z</time>
      </trkpt>
      <trkpt lat="39.3042950" lon="-0.7669070">
        <ele>826.0</ele>
        <time>2018-09-16T11:00:11Z</time>
      </trkpt>
      <trkpt lat="39.3042950" lon="-0.7669070">
        <ele>824.0</ele>
        <time>2018-09-16T11:00:12Z</time>
      </trkpt>
      <trkpt lat="39.3042400" lon="-0.7667670">
        <ele>824.0</ele>
        <time>2018-09-16T11:00:13Z</time>
      </trkpt>
      <trkpt lat="39.3042160" lon="-0.7667670">
        <ele>820.0</ele>
        <time>2018-09-16T11:00:14Z</time>
      </trkpt>
      <trkpt lat="39.3041920" lon="-0.7667670">
        <ele>818.0</ele>
        <time>2018-09-16T11:00:15Z</time>
      </trkpt>
      <trkpt lat="39.3041920" lon="-0.7667670">
        <ele>818.0</ele>
        <time>2018-09-16T11:00:16Z</time>
      </trkpt>
      <trkpt lat="39.3041820" lon="-0.7668720">
        <ele>816.0</ele>
        <time>2018-09-16T11:00:17Z</time>
      </trkpt>
      <trkpt lat="39.3041820" lon="-0.7668720">
        <ele>816.0</ele>
        <time>2018-09-16T11:00:18Z</time>
      </trkpt>
      <trkpt lat="39.3042030" lon="-0.7669870">
        <ele>815.0</ele>
        <time>2018-09-16T11:00:19Z</time>
      </trkpt>
      <trkpt lat="39.3042030" lon="-0.7669870">
        <ele>815.0</ele>
        <time>2018-09-16T11:00:20Z</time>
      </trkpt>
      <trkpt lat="39.3042230" lon="-0.7671080">
        <ele>815.0</ele>
        <time>2018-09-16T11:00:21Z</time>
      </trkpt>
      <trkpt lat="39.3042330" lon="-0.7671830">
        <ele>815.0</ele>
        <time>2018-09-16T11:00:22Z</time>
      </trkpt>
      <trkpt lat="39.3042330" lon="-0.7671830">
        <ele>813.0</ele>
        <time>2018-09-16T11:00:23Z</time>
      </trkpt>
      <trkpt lat="39.3042620" lon="-0.7673550">
        <ele>813.0</ele>
        <time>2018-09-16T11:00:24Z</time>
      </trkpt>
      <trkpt lat="39.3042750" lon="-0.7674550">
        <ele>812.0</ele>
        <time>2018-09-16T11:00:25Z</time>
      </trkpt>
      <trkpt lat="39.3042750" lon="-0.7674550">
        <ele>812.0</ele>
        <time>2018-09-16T11:00:26Z</time>
      </trkpt>
      <trkpt lat="39.3042980" lon="-0.7676900">
        <ele>811.0</ele>
        <time>2018-09-16T11:00:27Z</time>
      </trkpt>
      <trkpt lat="39.3042980" lon="-0.7676900">
        <ele>811.0</ele>
        <time>2018-09-16T11:00:28Z</time>
      </trkpt>
      <trkpt lat="39.3043120" lon="-0.7679330">
        <ele>809.0</ele>
        <time>2018-09-16T11:00:29Z</time>
      </trkpt>
      <trkpt lat="39.3043120" lon="-0.7679330">
        <ele>809.0</ele>
        <time>2018-09-16T11:00:30Z</time>
      </trkpt>
      <trkpt lat="39.3042950" lon="-0.7681820">
        <ele>807.0</ele>
        <time>2018-09-16T11:00:31Z</time>
      </trkpt>
      <trkpt lat="39.3042950" lon="-0.7681820">
        <ele>807.0</ele>
        <time>2018-09-16T11:00:32Z</time>
      </trkpt>
      <trkpt lat="39.3042320" lon="-0.7684430">
        <ele>805.0</ele>
        <time>2018-09-16T11:00:33Z</time>
      </trkpt>
      <trkpt lat="39.3042320" lon="-0.7684430">
        <ele>805.0</ele>
        <time>2018-09-16T11:00:34Z</time>
      </trkpt>
      <trkpt lat="39.3041130" lon="-0.7686900">
        <ele>803.0</ele>
        <time>2018-09-16T11:00:35Z</time>
      </trkpt>
      <trkpt lat="39.3041130" lon="-0.7686900">
        <ele>803.0</ele>
        <time>2018-09-16T11:00:36Z</time>
      </trkpt>
      <trkpt lat="39.3039680" lon="-0.7689220">
        <ele>802.0</ele>
        <time>2018-09-16T11:00:37Z</time>
      </trkpt>
      <trkpt lat="39.3039680" lon="-0.7689220">
        <ele>802.0</ele>
        <time>2018-09-16T11:00:38Z</time>
      </trkpt>
      <trkpt lat="39.3038280" lon="-0.7691320">
        <ele>800.0</ele>
        <time>2018-09-16T11:00:39Z</time>
      </trkpt>
      <trkpt lat="39.3038280" lon="-0.7691320">
        <ele>797.0</ele>
        <time>2018-09-16T11:00:40Z</time>
      </trkpt>
      <trkpt lat="39.3036950" lon="-0.7693230">
        <ele>797.0</ele>
        <time>2018-09-16T11:00:41Z</time>
      </trkpt>
      <trkpt lat="39.3036950" lon="-0.7693230">
        <ele>794.0</ele>
        <time>2018-09-16T11:00:42Z</time>
      </trkpt>
      <trkpt lat="39.3035930" lon="-0.7694650">
        <ele>794.0</ele>
        <time>2018-09-16T11:00:43Z</time>
      </trkpt>
      <trkpt lat="39.3035930" lon="-0.7694650">
        <ele>791.0</ele>
        <time>2018-09-16T11:00:44Z</time>
      </trkpt>
      <trkpt lat="39.3035500" lon="-0.7695750">
        <ele>791.0</ele>
        <time>2018-09-16T11:00:45Z</time>
      </trkpt>
      <trkpt lat="39.3035500" lon="-0.7695750">
        <ele>789.0</ele>
        <time>2018-09-16T11:00:46Z</time>
      </trkpt>
      <trkpt lat="39.3035720" lon="-0.7696870">
        <ele>789.0</ele>
        <time>2018-09-16T11:00:47Z</time>
      </trkpt>
      <trkpt lat="39.3035720" lon="-0.7696870">
        <ele>787.0</ele>
        <time>2018-09-16T11:00:48Z</time>
      </trkpt>
      <trkpt lat="39.3036350" lon="-0.7698070">
        <ele>787.0</ele>
        <time>2018-09-16T11:00:49Z</time>
      </trkpt>
      <trkpt lat="39.3036350" lon="-0.7698070">
        <ele>787.0</ele>
        <time>2018-09-16T11:00:50Z</time>
      </trkpt>
      <trkpt lat="39.3037030" lon="-0.7699500">
        <ele>787.0</ele>
        <time>2018-09-16T11:00:51Z</time>
      </trkpt>
      <trkpt lat="39.3037030" lon="-0.7699500">
        <ele>787.0</ele>
        <time>2018-09-16T11:00:52Z</time>
      </trkpt>
      <trkpt lat="39.3037800" lon="-0.7701120">
        <ele>787.0</ele>
        <time>2018-09-16T11:00:53Z</time>
      </trkpt>
      <trkpt lat="39.3037800" lon="-0.7701120">
        <ele>785.0</ele>
        <time>2018-09-16T11:00:54Z</time>
      </trkpt>
      <trkpt lat="39.3038600" lon="-0.7702780">
        <ele>785.0</ele>
        <time>2018-09-16T11:00:55Z</time>
      </trkpt>
      <trkpt lat="39.3038600" lon="-0.7702780">
        <ele>783.0</ele>
        <time>2018-09-16T11:00:56Z</time>
      </trkpt>
      <trkpt lat="39.3039300" lon="-0.7704380">
        <ele>783.0</ele>
        <time>2018-09-16T11:00:57Z</time>
      </trkpt>
      <trkpt lat="39.3039300" lon="-0.7704380">
        <ele>782.0</ele>
        <time>2018-09-16T11:00:58Z</time>
      </trkpt>
      <trkpt lat="39.3039600" lon="-0.7706180">
        <ele>782.0</ele>
        <time>2018-09-16T11:00:59Z</time>
      </trkpt>
      <trkpt lat="39.3039600" lon="-0.7706180">
        <ele>780.0</ele>
        <time>2018-09-16T11:01:00Z</time>
      </trkpt>
      <trkpt lat="39.3039480" lon="-0.7708330">
        <ele>780.0</ele>
        <time>2018-09-16T11:01:01Z</time>
      </trkpt>
      <trkpt lat="39.3039480" lon="-0.7708330">
        <ele>779.0</ele>
        <time>2018-09-16T11:01:02Z</time>
      </trkpt>
      <trkpt lat="39.3039080" lon="-0.7710550">
        <ele>779.0</ele>
        <time>2018-09-16T11:01:03Z</time>
      </trkpt>
      <trkpt lat="39.3039080" lon="-0.7710550">
        <ele>778.0</ele>
        <time>2018-09-16T11:01:04Z</time>
      </trkpt>
      <trkpt lat="39.3038250" lon="-0.7712830">
        <ele>778.0</ele>
        <time>2018-09-16T11:01:05Z</time>
      </trkpt>
      <trkpt lat="39.3037730" lon="-0.7713930">
        <ele>776.0</ele>
        <time>2018-09-16T11:01:06Z</time>
      </trkpt>
      <trkpt lat="39.3037730" lon="-0.7713930">
        <ele>775.0</ele>
        <time>2018-09-16T11:01:07Z</time>
      </trkpt>
      <trkpt lat="39.3036730" lon="-0.7715900">
        <ele>775.0</ele>
        <time>2018-09-16T11:01:08Z</time>
      </trkpt>
      <trkpt lat="39.3036730" lon="-0.7715900">
        <ele>772.0</ele>
        <time>2018-09-16T11:01:09Z</time>
      </trkpt>
      <trkpt lat="39.3035880" lon="-0.7717520">
        <ele>772.0</ele>
        <time>2018-09-16T11:01:10Z</time>
      </trkpt>
      <trkpt lat="39.3035550" lon="-0.7718230">
        <ele>770.0</ele>
        <time>2018-09-16T11:01:11Z</time>
      </trkpt>
      <trkpt lat="39.3035550" lon="-0.7718230">
        <ele>770.0</ele>
        <time>2018-09-16T11:01:12Z</time>
      </trkpt>
      <trkpt lat="39.3035250" lon="-0.7719580">
        <ele>768.0</ele>
        <time>2018-09-16T11:01:13Z</time>
      </trkpt>
      <trkpt lat="39.3035250" lon="-0.7719580">
        <ele>768.0</ele>
        <time>2018-09-16T11:01:14Z</time>
      </trkpt>
      <trkpt lat="39.3035270" lon="-0.7721270">
        <ele>767.0</ele>
        <time>2018-09-16T11:01:15Z</time>
      </trkpt>
      <trkpt lat="39.3035170" lon="-0.7722100">
        <ele>767.0</ele>
        <time>2018-09-16T11:01:16Z</time>
      </trkpt>
      <trkpt lat="39.3035170" lon="-0.7722100">
        <ele>765.0</ele>
        <time>2018-09-16T11:01:17Z</time>
      </trkpt>
      <trkpt lat="39.3034730" lon="-0.7723530">
        <ele>765.0</ele>
        <time>2018-09-16T11:01:18Z</time>
      </trkpt>
      <trkpt lat="39.3034730" lon="-0.7723530">
        <ele>763.0</ele>
        <time>2018-09-16T11:01:19Z</time>
      </trkpt>
      <trkpt lat="39.3033800" lon="-0.7724570">
        <ele>763.0</ele>
        <time>2018-09-16T11:01:20Z</time>
      </trkpt>
      <trkpt lat="39.3033800" lon="-0.7724570">
        <ele>762.0</ele>
        <time>2018-09-16T11:01:21Z</time>
      </trkpt>
      <trkpt lat="39.3032620" lon="-0.7725370">
        <ele>762.0</ele>
        <time>2018-09-16T11:01:22Z</time>
      </trkpt>
      <trkpt lat="39.3032000" lon="-0.7725780">
        <ele>760.0</ele>
        <time>2018-09-16T11:01:23Z</time>
      </trkpt>
      <trkpt lat="39.3032000" lon="-0.7725780">
        <ele>760.0</ele>
        <time>2018-09-16T11:01:24Z</time>
      </trkpt>
      <trkpt lat="39.3030730" lon="-0.7726650">
        <ele>759.0</ele>
        <time>2018-09-16T11:01:25Z</time>
      </trkpt>
      <trkpt lat="39.3030730" lon="-0.7726650">
        <ele>759.0</ele>
        <time>2018-09-16T11:01:26Z</time>
      </trkpt>
      <trkpt lat="39.3029670" lon="-0.7727550">
        <ele>758.0</ele>
        <time>2018-09-16T11:01:27Z</time>
      </trkpt>
      <trkpt lat="39.3029300" lon="-0.7728020">
        <ele>758.0</ele>
        <time>2018-09-16T11:01:28Z</time>
      </trkpt>
      <trkpt lat="39.3029300" lon="-0.7728020">
        <ele>756.0</ele>
        <time>2018-09-16T11:01:29Z</time>
      </trkpt>
      <trkpt lat="39.3029030" lon="-0.7729100">
        <ele>756.0</ele>
        <time>2018-09-16T11:01:30Z</time>
      </trkpt>
      <trkpt lat="39.3029150" lon="-0.7729750">
        <ele>755.0</ele>
        <time>2018-09-16T11:01:31Z</time>
      </trkpt>
      <trkpt lat="39.3029150" lon="-0.7729750">
        <ele>755.0</ele>
        <time>2018-09-16T11:01:32Z</time>
      </trkpt>
      <trkpt lat="39.3029670" lon="-0.7731250">
        <ele>755.0</ele>
        <time>2018-09-16T11:01:33Z</time>
      </trkpt>
      <trkpt lat="39.3029670" lon="-0.7731250">
        <ele>753.0</ele>
        <time>2018-09-16T11:01:34Z</time>
      </trkpt>
      <trkpt lat="39.3030330" lon="-0.7732970">
        <ele>753.0</ele>
        <time>2018-09-16T11:01:35Z</time>
      </trkpt>
      <trkpt lat="39.3030330" lon="-0.7732970">
        <ele>752.0</ele>
        <time>2018-09-16T11:01:36Z</time>
      </trkpt>
      <trkpt lat="39.3031050" lon="-0.7734870">
        <ele>752.0</ele>
        <time>2018-09-16T11:01:37Z</time>
      </trkpt>
      <trkpt lat="39.3031050" lon="-0.7734870">
        <ele>751.0</ele>
        <time>2018-09-16T11:01:38Z</time>
      </trkpt>
      <trkpt lat="39.3031650" lon="-0.7736830">
        <ele>751.0</ele>
        <time>2018-09-16T11:01:39Z</time>
      </trkpt>
      <trkpt lat="39.3031650" lon="-0.7736830">
        <ele>749.0</ele>
        <time>2018-09-16T11:01:40Z</time>
      </trkpt>
      <trkpt lat="39.3031970" lon="-0.7738500">
        <ele>749.0</ele>
        <time>2018-09-16T11:01:41Z</time>
      </trkpt>
      <trkpt lat="39.3031970" lon="-0.7738500">
        <ele>748.0</ele>
        <time>2018-09-16T11:01:42Z</time>
      </trkpt>
      <trkpt lat="39.3031630" lon="-0.7739820">
        <ele>748.0</ele>
        <time>2018-09-16T11:01:43Z</time>
      </trkpt>
      <trkpt lat="39.3031630" lon="-0.7739820">
        <ele>747.0</ele>
        <time>2018-09-16T11:01:44Z</time>
      </trkpt>
      <trkpt lat="39.3030670" lon="-0.7740480">
        <ele>747.0</ele>
        <time>2018-09-16T11:01:45Z</time>
      </trkpt>
      <trkpt lat="39.3030670" lon="-0.7740480">
        <ele>746.0</ele>
        <time>2018-09-16T11:01:46Z</time>
      </trkpt>
      <trkpt lat="39.3029380" lon="-0.7740730">
        <ele>746.0</ele>
        <time>2018-09-16T11:01:47Z</time>
      </trkpt>
      <trkpt lat="39.3029380" lon="-0.7740730">
        <ele>745.0</ele>
        <time>2018-09-16T11:01:48Z</time>
      </trkpt>
      <trkpt lat="39.3028050" lon="-0.7741100">
        <ele>745.0</ele>
        <time>2018-09-16T11:01:49Z</time>
      </trkpt>
      <trkpt lat="39.3028050" lon="-0.7741100">
        <ele>744.0</ele>
        <time>2018-09-16T11:01:50Z</time>
      </trkpt>
      <trkpt lat="39.3026950" lon="-0.7741770">
        <ele>744.0</ele>
        <time>2018-09-16T11:01:51Z</time>
      </trkpt>
      <trkpt lat="39.3026470" lon="-0.7742270">
        <ele>742.0</ele>
        <time>2018-09-16T11:01:52Z</time>
      </trkpt>
      <trkpt lat="39.3026470" lon="-0.7742270">
        <ele>742.0</ele>
        <time>2018-09-16T11:01:53Z</time>
      </trkpt>
      <trkpt lat="39.3025570" lon="-0.7743570">
        <ele>741.0</ele>
        <time>2018-09-16T11:01:54Z</time>
      </trkpt>
      <trkpt lat="39.3025130" lon="-0.7744380">
        <ele>741.0</ele>
        <time>2018-09-16T11:01:55Z</time>
      </trkpt>
      <trkpt lat="39.3025130" lon="-0.7744380">
        <ele>740.0</ele>
        <time>2018-09-16T11:01:56Z</time>
      </trkpt>
      <trkpt lat="39.3024170" lon="-0.7746220">
        <ele>740.0</ele>
        <time>2018-09-16T11:01:57Z</time>
      </trkpt>
      <trkpt lat="39.3024170" lon="-0.7746220">
        <ele>740.0</ele>
        <time>2018-09-16T11:01:58Z</time>
      </trkpt>
      <trkpt lat="39.3023080" lon="-0.7747980">
        <ele>738.0</ele>
        <time>2018-09-16T11:01:59Z</time>
      </trkpt>
      <trkpt lat="39.3023080" lon="-0.7747980">
        <ele>738.0</ele>
        <time>2018-09-16T11:02:00Z</time>
      </trkpt>
      <trkpt lat="39.3021920" lon="-0.7749320">
        <ele>737.0</ele>
        <time>2018-09-16T11:02:01Z</time>
      </trkpt>
      <trkpt lat="39.3021920" lon="-0.7749320">
        <ele>737.0</ele>
        <time>2018-09-16T11:02:02Z</time>
      </trkpt>
      <trkpt lat="39.3020970" lon="-0.7750230">
        <ele>736.0</ele>
        <time>2018-09-16T11:02:03Z</time>
      </trkpt>
      <trkpt lat="39.3020970" lon="-0.7750230">
        <ele>736.0</ele>
        <time>2018-09-16T11:02:04Z</time>
      </trkpt>
      <trkpt lat="39.3020200" lon="-0.7751120">
        <ele>735.0</ele>
        <time>2018-09-16T11:02:05Z</time>
      </trkpt>
      <trkpt lat="39.3020200" lon="-0.7751120">
        <ele>735.0</ele>
        <time>2018-09-16T11:02:06Z</time>
      </trkpt>
      <trkpt lat="39.3019800" lon="-0.7752180">
        <ele>734.0</ele>
        <time>2018-09-16T11:02:07Z</time>
      </trkpt>
      <trkpt lat="39.3019800" lon="-0.7752180">
        <ele>734.0</ele>
        <time>2018-09-16T11:02:08Z</time>
      </trkpt>
      <trkpt lat="39.3019630" lon="-0.7753470">
        <ele>733.0</ele>
        <time>2018-09-16T11:02:09Z</time>
      </trkpt>
      <trkpt lat="39.3019630" lon="-0.7753470">
        <ele>733.0</ele>
        <time>2018-09-16T11:02:10Z</time>
      </trkpt>
      <trkpt lat="39.3019450" lon="-0.7754950">
        <ele>731.0</ele>
        <time>2018-09-16T11:02:11Z</time>
      </trkpt>
      <trkpt lat="39.3019450" lon="-0.7754950">
        <ele>731.0</ele>
        <time>2018-09-16T11:02:12Z</time>
      </trkpt>
      <trkpt lat="39.3019520" lon="-0.7756320">
        <ele>729.0</ele>
        <time>2018-09-16T11:02:13Z</time>
      </trkpt>
      <trkpt lat="39.3019520" lon="-0.7756320">
        <ele>729.0</ele>
        <time>2018-09-16T11:02:14Z</time>
      </trkpt>
      <trkpt lat="39.3020320" lon="-0.7757430">
        <ele>728.0</ele>
        <time>2018-09-16T11:02:15Z</time>
      </trkpt>
      <trkpt lat="39.3020320" lon="-0.7757430">
        <ele>728.0</ele>
        <time>2018-09-16T11:02:16Z</time>
      </trkpt>
      <trkpt lat="39.3021220" lon="-0.7758420">
        <ele>727.0</ele>
        <time>2018-09-16T11:02:17Z</time>
      </trkpt>
      <trkpt lat="39.3021680" lon="-0.7758930">
        <ele>727.0</ele>
        <time>2018-09-16T11:02:18Z</time>
      </trkpt>
      <trkpt lat="39.3021680" lon="-0.7758930">
        <ele>727.0</ele>
        <time>2018-09-16T11:02:19Z</time>
      </trkpt>
      <trkpt lat="39.3022520" lon="-0.7760050">
        <ele>727.0</ele>
        <time>2018-09-16T11:02:20Z</time>
      </trkpt>
      <trkpt lat="39.3022520" lon="-0.7760050">
        <ele>727.0</ele>
        <time>2018-09-16T11:02:21Z</time>
      </trkpt>
      <trkpt lat="39.3023020" lon="-0.7761420">
        <ele>727.0</ele>
        <time>2018-09-16T11:02:22Z</time>
      </trkpt>
      <trkpt lat="39.3023050" lon="-0.7762170">
        <ele>727.0</ele>
        <time>2018-09-16T11:02:23Z</time>
      </trkpt>
      <trkpt lat="39.3023050" lon="-0.7762170">
        <ele>727.0</ele>
        <time>2018-09-16T11:02:24Z</time>
      </trkpt>
      <trkpt lat="39.3022380" lon="-0.7763470">
        <ele>726.0</ele>
        <time>2018-09-16T11:02:25Z</time>
      </trkpt>
      <trkpt lat="39.3022380" lon="-0.7763470">
        <ele>726.0</ele>
        <time>2018-09-16T11:02:26Z</time>
      </trkpt>
      <trkpt lat="39.3021620" lon="-0.7764650">
        <ele>726.0</ele>
        <time>2018-09-16T11:02:27Z</time>
      </trkpt>
      <trkpt lat="39.3021380" lon="-0.7765350">
        <ele>724.0</ele>
        <time>2018-09-16T11:02:28Z</time>
      </trkpt>
      <trkpt lat="39.3021380" lon="-0.7765350">
        <ele>724.0</ele>
        <time>2018-09-16T11:02:29Z</time>
      </trkpt>
      <trkpt lat="39.3021470" lon="-0.7766820">
        <ele>724.0</ele>
        <time>2018-09-16T11:02:30Z</time>
      </trkpt>
      <trkpt lat="39.3021670" lon="-0.7767480">
        <ele>724.0</ele>
        <time>2018-09-16T11:02:31Z</time>
      </trkpt>
      <trkpt lat="39.3021670" lon="-0.7767480">
        <ele>723.0</ele>
        <time>2018-09-16T11:02:32Z</time>
      </trkpt>
      <trkpt lat="39.3022020" lon="-0.7768550">
        <ele>723.0</ele>
        <time>2018-09-16T11:02:33Z</time>
      </trkpt>
      <trkpt lat="39.3022020" lon="-0.7768550">
        <ele>722.0</ele>
        <time>2018-09-16T11:02:34Z</time>
      </trkpt>
      <trkpt lat="39.3022170" lon="-0.7769520">
        <ele>722.0</ele>
        <time>2018-09-16T11:02:35Z</time>
      </trkpt>
      <trkpt lat="39.3022120" lon="-0.7769880">
        <ele>722.0</ele>
        <time>2018-09-16T11:02:36Z</time>
      </trkpt>
      <trkpt lat="39.3022000" lon="-0.7770170">
        <ele>722.0</ele>
        <time>2018-09-16T11:02:37Z</time>
      </trkpt>
      <trkpt lat="39.3021830" lon="-0.7770320">
        <ele>722.0</ele>
        <time>2018-09-16T11:02:38Z</time>
      </trkpt>
      <trkpt lat="39.3021650" lon="-0.7770470">
        <ele>722.0</ele>
        <time>2018-09-16T11:02:39Z</time>
      </trkpt>
      <trkpt lat="39.3021500" lon="-0.7770580">
        <ele>721.0</ele>
        <time>2018-09-16T11:02:40Z</time>
      </trkpt>
      <trkpt lat="39.3021500" lon="-0.7770580">
        <ele>721.0</ele>
        <time>2018-09-16T11:02:41Z</time>
      </trkpt>
      <trkpt lat="39.3021190" lon="-0.7770720">
        <ele>721.0</ele>
        <time>2018-09-16T11:02:42Z</time>
      </trkpt>
      <trkpt lat="39.3021120" lon="-0.7770740">
        <ele>721.0</ele>
        <time>2018-09-16T11:02:43Z</time>
      </trkpt>
      <trkpt lat="39.3021040" lon="-0.7770760">
        <ele>721.0</ele>
        <time>2018-09-16T11:02:44Z</time>
      </trkpt>
      <trkpt lat="39.3020960" lon="-0.7770780">
        <ele>721.0</ele>
        <time>2018-09-16T11:02:45Z</time>
      </trkpt>
      <trkpt lat="39.3020890" lon="-0.7770800">
        <ele>720.0</ele>
        <time>2018-09-16T11:03:18Z</time>
      </trkpt>
      <trkpt lat="39.3020810" lon="-0.7770820">
        <ele>720.0</ele>
        <time>2018-09-16T11:03:19Z</time>
      </trkpt>
      <trkpt lat="39.3020730" lon="-0.7770840">
        <ele>720.0</ele>
        <time>2018-09-16T11:03:20Z</time>
      </trkpt>
      <trkpt lat="39.3020650" lon="-0.7770860">
        <ele>720.0</ele>
        <time>2018-09-16T11:03:21Z</time>
      </trkpt>
      <trkpt lat="39.3020580" lon="-0.7770880">
        <ele>720.0</ele>
        <time>2018-09-16T11:03:22Z</time>
      </trkpt>
      <trkpt lat="39.3020500" lon="-0.7770900">
        <ele>720.0</ele>
        <time>2018-09-16T11:03:23Z</time>
      </trkpt>
      <trkpt lat="39.3020250" lon="-0.7770920">
        <ele>721.0</ele>
        <time>2018-09-16T11:03:24Z</time>
      </trkpt>
      <trkpt lat="39.3019980" lon="-0.7770900">
        <ele>721.0</ele>
        <time>2018-09-16T11:03:25Z</time>
      </trkpt>
      <trkpt lat="39.3019980" lon="-0.7770900">
        <ele>721.0</ele>
        <time>2018-09-16T11:03:26Z</time>
      </trkpt>
      <trkpt lat="39.3019330" lon="-0.7770780">
        <ele>721.0</ele>
        <time>2018-09-16T11:03:27Z</time>
      </trkpt>
      <trkpt lat="39.3019330" lon="-0.7770780">
        <ele>721.0</ele>
        <time>2018-09-16T11:03:28Z</time>
      </trkpt>
      <trkpt lat="39.3018520" lon="-0.7770480">
        <ele>721.0</ele>
        <time>2018-09-16T11:03:29Z</time>
      </trkpt>
      <trkpt lat="39.3018030" lon="-0.7770280">
        <ele>721.0</ele>
        <time>2018-09-16T11:03:30Z</time>
      </trkpt>
      <trkpt lat="39.3017520" lon="-0.7770070">
        <ele>721.0</ele>
        <time>2018-09-16T11:03:31Z</time>
      </trkpt>
      <trkpt lat="39.3017520" lon="-0.7770070">
        <ele>720.0</ele>
        <time>2018-09-16T11:03:32Z</time>
      </trkpt>
      <trkpt lat="39.3016370" lon="-0.7769500">
        <ele>720.0</ele>
        <time>2018-09-16T11:03:33Z</time>
      </trkpt>
      <trkpt lat="39.3016370" lon="-0.7769500">
        <ele>720.0</ele>
        <time>2018-09-16T11:03:34Z</time>
      </trkpt>
      <trkpt lat="39.3015130" lon="-0.7768830">
        <ele>720.0</ele>
        <time>2018-09-16T11:03:35Z</time>
      </trkpt>
      <trkpt lat="39.3015130" lon="-0.7768830">
        <ele>720.0</ele>
        <time>2018-09-16T11:03:36Z</time>
      </trkpt>
      <trkpt lat="39.3013820" lon="-0.7768130">
        <ele>720.0</ele>
        <time>2018-09-16T11:03:37Z</time>
      </trkpt>
      <trkpt lat="39.3013220" lon="-0.7767700">
        <ele>719.0</ele>
        <time>2018-09-16T11:03:38Z</time>
      </trkpt>
      <trkpt lat="39.3013220" lon="-0.7767700">
        <ele>719.0</ele>
        <time>2018-09-16T11:03:39Z</time>
      </trkpt>
      <trkpt lat="39.3012100" lon="-0.7766770">
        <ele>718.0</ele>
        <time>2018-09-16T11:03:40Z</time>
      </trkpt>
      <trkpt lat="39.3011550" lon="-0.7766300">
        <ele>718.0</ele>
        <time>2018-09-16T11:03:41Z</time>
      </trkpt>
      <trkpt lat="39.3011550" lon="-0.7766300">
        <ele>718.0</ele>
        <time>2018-09-16T11:03:42Z</time>
      </trkpt>
      <trkpt lat="39.3010430" lon="-0.7765670">
        <ele>718.0</ele>
        <time>2018-09-16T11:03:43Z</time>
      </trkpt>
      <trkpt lat="39.3010430" lon="-0.7765670">
        <ele>718.0</ele>
        <time>2018-09-16T11:03:44Z</time>
      </trkpt>
      <trkpt lat="39.3009350" lon="-0.7765680">
        <ele>718.0</ele>
        <time>2018-09-16T11:03:45Z</time>
      </trkpt>
      <trkpt lat="39.3009350" lon="-0.7765680">
        <ele>717.0</ele>
        <time>2018-09-16T11:03:46Z</time>
      </trkpt>
      <trkpt lat="39.3008120" lon="-0.7766120">
        <ele>717.0</ele>
        <time>2018-09-16T11:03:47Z</time>
      </trkpt>
      <trkpt lat="39.3008120" lon="-0.7766120">
        <ele>716.0</ele>
        <time>2018-09-16T11:03:48Z</time>
      </trkpt>
      <trkpt lat="39.3006830" lon="-0.7766680">
        <ele>715.0</ele>
        <time>2018-09-16T11:03:49Z</time>
      </trkpt>
      <trkpt lat="39.3006830" lon="-0.7766680">
        <ele>715.0</ele>
        <time>2018-09-16T11:03:50Z</time>
      </trkpt>
      <trkpt lat="39.3005750" lon="-0.7767230">
        <ele>713.0</ele>
        <time>2018-09-16T11:03:51Z</time>
      </trkpt>
      <trkpt lat="39.3005750" lon="-0.7767230">
        <ele>713.0</ele>
        <time>2018-09-16T11:03:52Z</time>
      </trkpt>
      <trkpt lat="39.3005000" lon="-0.7768150">
        <ele>712.0</ele>
        <time>2018-09-16T11:03:53Z</time>
      </trkpt>
      <trkpt lat="39.3004800" lon="-0.7768770">
        <ele>712.0</ele>
        <time>2018-09-16T11:03:54Z</time>
      </trkpt>
      <trkpt lat="39.3004800" lon="-0.7768770">
        <ele>712.0</ele>
        <time>2018-09-16T11:03:55Z</time>
      </trkpt>
      <trkpt lat="39.3004820" lon="-0.7770030">
        <ele>712.0</ele>
        <time>2018-09-16T11:03:56Z</time>
      </trkpt>
      <trkpt lat="39.3004820" lon="-0.7770030">
        <ele>710.0</ele>
        <time>2018-09-16T11:03:57Z</time>
      </trkpt>
      <trkpt lat="39.3005350" lon="-0.7771130">
        <ele>710.0</ele>
        <time>2018-09-16T11:03:58Z</time>
      </trkpt>
      <trkpt lat="39.3005350" lon="-0.7771130">
        <ele>709.0</ele>
        <time>2018-09-16T11:03:59Z</time>
      </trkpt>
      <trkpt lat="39.3006200" lon="-0.7771920">
        <ele>709.0</ele>
        <time>2018-09-16T11:04:00Z</time>
      </trkpt>
      <trkpt lat="39.3006720" lon="-0.7772270">
        <ele>708.0</ele>
        <time>2018-09-16T11:04:01Z</time>
      </trkpt>
      <trkpt lat="39.3006720" lon="-0.7772270">
        <ele>708.0</ele>
        <time>2018-09-16T11:04:02Z</time>
      </trkpt>
      <trkpt lat="39.3007850" lon="-0.7773330">
        <ele>707.0</ele>
        <time>2018-09-16T11:04:03Z</time>
      </trkpt>
      <trkpt lat="39.3008470" lon="-0.7773980">
        <ele>707.0</ele>
        <time>2018-09-16T11:04:04Z</time>
      </trkpt>
      <trkpt lat="39.3008470" lon="-0.7773980">
        <ele>706.0</ele>
        <time>2018-09-16T11:04:05Z</time>
      </trkpt>
      <trkpt lat="39.3009650" lon="-0.7775600">
        <ele>706.0</ele>
        <time>2018-09-16T11:04:06Z</time>
      </trkpt>
      <trkpt lat="39.3010070" lon="-0.7776530">
        <ele>705.0</ele>
        <time>2018-09-16T11:04:07Z</time>
      </trkpt>
      <trkpt lat="39.3010070" lon="-0.7776530">
        <ele>705.0</ele>
        <time>2018-09-16T11:04:08Z</time>
      </trkpt>
      <trkpt lat="39.3010520" lon="-0.7778400">
        <ele>703.0</ele>
        <time>2018-09-16T11:04:09Z</time>
      </trkpt>
      <trkpt lat="39.3010570" lon="-0.7779300">
        <ele>703.0</ele>
        <time>2018-09-16T11:04:10Z</time>
      </trkpt>
      <trkpt lat="39.3010570" lon="-0.7779300">
        <ele>701.0</ele>
        <time>2018-09-16T11:04:11Z</time>
      </trkpt>
      <trkpt lat="39.3010120" lon="-0.7780880">
        <ele>701.0</ele>
        <time>2018-09-16T11:04:12Z</time>
      </trkpt>
      <trkpt lat="39.3009770" lon="-0.7781570">
        <ele>699.0</ele>
        <time>2018-09-16T11:04:13Z</time>
      </trkpt>
      <trkpt lat="39.3009770" lon="-0.7781570">
        <ele>699.0</ele>
        <time>2018-09-16T11:04:14Z</time>
      </trkpt>
      <trkpt lat="39.3009150" lon="-0.7782880">
        <ele>698.0</ele>
        <time>2018-09-16T11:04:15Z</time>
      </trkpt>
      <trkpt lat="39.3009000" lon="-0.7783530">
        <ele>697.0</ele>
        <time>2018-09-16T11:04:16Z</time>
      </trkpt>
      <trkpt lat="39.3009000" lon="-0.7783530">
        <ele>697.0</ele>
        <time>2018-09-16T11:04:17Z</time>
      </trkpt>
      <trkpt lat="39.3008800" lon="-0.7784700">
        <ele>696.0</ele>
        <time>2018-09-16T11:04:18Z</time>
      </trkpt>
      <trkpt lat="39.3008770" lon="-0.7785280">
        <ele>696.0</ele>
        <time>2018-09-16T11:04:19Z</time>
      </trkpt>
      <trkpt lat="39.3008770" lon="-0.7785280">
        <ele>694.0</ele>
        <time>2018-09-16T11:04:20Z</time>
      </trkpt>
      <trkpt lat="39.3008930" lon="-0.7786420">
        <ele>694.0</ele>
        <time>2018-09-16T11:04:21Z</time>
      </trkpt>
      <trkpt lat="39.3009050" lon="-0.7787080">
        <ele>693.0</ele>
        <time>2018-09-16T11:04:22Z</time>
      </trkpt>
      <trkpt lat="39.3009050" lon="-0.7787080">
        <ele>693.0</ele>
        <time>2018-09-16T11:04:23Z</time>
      </trkpt>
      <trkpt lat="39.3009020" lon="-0.7788500">
        <ele>692.0</ele>
        <time>2018-09-16T11:04:24Z</time>
      </trkpt>
      <trkpt lat="39.3008880" lon="-0.7789180">
        <ele>692.0</ele>
        <time>2018-09-16T11:04:25Z</time>
      </trkpt>
      <trkpt lat="39.3008880" lon="-0.7789180">
        <ele>692.0</ele>
        <time>2018-09-16T11:04:26Z</time>
      </trkpt>
      <trkpt lat="39.3008280" lon="-0.7790170">
        <ele>692.0</ele>
        <time>2018-09-16T11:04:27Z</time>
      </trkpt>
      <trkpt lat="39.3008280" lon="-0.7790170">
        <ele>691.0</ele>
        <time>2018-09-16T11:04:28Z</time>
      </trkpt>
      <trkpt lat="39.3007320" lon="-0.7790720">
        <ele>691.0</ele>
        <time>2018-09-16T11:04:29Z</time>
      </trkpt>
      <trkpt lat="39.3007320" lon="-0.7790720">
        <ele>691.0</ele>
        <time>2018-09-16T11:04:30Z</time>
      </trkpt>
      <trkpt lat="39.3006030" lon="-0.7791150">
        <ele>691.0</ele>
        <time>2018-09-16T11:04:31Z</time>
      </trkpt>
      <trkpt lat="39.3006030" lon="-0.7791150">
        <ele>691.0</ele>
        <time>2018-09-16T11:04:32Z</time>
      </trkpt>
      <trkpt lat="39.3004530" lon="-0.7791280">
        <ele>690.0</ele>
        <time>2018-09-16T11:04:33Z</time>
      </trkpt>
      <trkpt lat="39.3004530" lon="-0.7791280">
        <ele>690.0</ele>
        <time>2018-09-16T11:04:34Z</time>
      </trkpt>
      <trkpt lat="39.3003000" lon="-0.7790950">
        <ele>689.0</ele>
        <time>2018-09-16T11:04:35Z</time>
      </trkpt>
      <trkpt lat="39.3003000" lon="-0.7790950">
        <ele>689.0</ele>
        <time>2018-09-16T11:04:36Z</time>
      </trkpt>
      <trkpt lat="39.3001650" lon="-0.7790350">
        <ele>687.0</ele>
        <time>2018-09-16T11:04:37Z</time>
      </trkpt>
      <trkpt lat="39.3001650" lon="-0.7790350">
        <ele>687.0</ele>
        <time>2018-09-16T11:04:38Z</time>
      </trkpt>
      <trkpt lat="39.3000730" lon="-0.7790200">
        <ele>686.0</ele>
        <time>2018-09-16T11:04:39Z</time>
      </trkpt>
      <trkpt lat="39.3000730" lon="-0.7790200">
        <ele>686.0</ele>
        <time>2018-09-16T11:04:40Z</time>
      </trkpt>
      <trkpt lat="39.2999930" lon="-0.7790630">
        <ele>684.0</ele>
        <time>2018-09-16T11:04:41Z</time>
      </trkpt>
      <trkpt lat="39.2999930" lon="-0.7790630">
        <ele>683.0</ele>
        <time>2018-09-16T11:04:42Z</time>
      </trkpt>
      <trkpt lat="39.2999030" lon="-0.7791480">
        <ele>683.0</ele>
        <time>2018-09-16T11:04:43Z</time>
      </trkpt>
      <trkpt lat="39.2999030" lon="-0.7791480">
        <ele>682.0</ele>
        <time>2018-09-16T11:04:44Z</time>
      </trkpt>
      <trkpt lat="39.2997930" lon="-0.7792580">
        <ele>682.0</ele>
        <time>2018-09-16T11:04:45Z</time>
      </trkpt>
      <trkpt lat="39.2997930" lon="-0.7792580">
        <ele>681.0</ele>
        <time>2018-09-16T11:04:46Z</time>
      </trkpt>
      <trkpt lat="39.2996650" lon="-0.7793620">
        <ele>681.0</ele>
        <time>2018-09-16T11:04:47Z</time>
      </trkpt>
      <trkpt lat="39.2996650" lon="-0.7793620">
        <ele>679.0</ele>
        <time>2018-09-16T11:04:48Z</time>
      </trkpt>
      <trkpt lat="39.2995570" lon="-0.7794600">
        <ele>679.0</ele>
        <time>2018-09-16T11:04:49Z</time>
      </trkpt>
      <trkpt lat="39.2995570" lon="-0.7794600">
        <ele>678.0</ele>
        <time>2018-09-16T11:04:50Z</time>
      </trkpt>
      <trkpt lat="39.2994570" lon="-0.7795830">
        <ele>678.0</ele>
        <time>2018-09-16T11:04:51Z</time>
      </trkpt>
      <trkpt lat="39.2994020" lon="-0.7796430">
        <ele>676.0</ele>
        <time>2018-09-16T11:04:52Z</time>
      </trkpt>
      <trkpt lat="39.2993330" lon="-0.7796850">
        <ele>676.0</ele>
        <time>2018-09-16T11:04:53Z</time>
      </trkpt>
      <trkpt lat="39.2993330" lon="-0.7796850">
        <ele>675.0</ele>
        <time>2018-09-16T11:04:54Z</time>
      </trkpt>
      <trkpt lat="39.2991780" lon="-0.7796970">
        <ele>675.0</ele>
        <time>2018-09-16T11:04:55Z</time>
      </trkpt>
      <trkpt lat="39.2991780" lon="-0.7796970">
        <ele>674.0</ele>
        <time>2018-09-16T11:04:56Z</time>
      </trkpt>
      <trkpt lat="39.2990170" lon="-0.7796750">
        <ele>674.0</ele>
        <time>2018-09-16T11:04:57Z</time>
      </trkpt>
      <trkpt lat="39.2990170" lon="-0.7796750">
        <ele>673.0</ele>
        <time>2018-09-16T11:04:58Z</time>
      </trkpt>
      <trkpt lat="39.2988650" lon="-0.7797120">
        <ele>673.0</ele>
        <time>2018-09-16T11:04:59Z</time>
      </trkpt>
      <trkpt lat="39.2987900" lon="-0.7797480">
        <ele>673.0</ele>
        <time>2018-09-16T11:05:00Z</time>
      </trkpt>
      <trkpt lat="39.2987900" lon="-0.7797480">
        <ele>671.0</ele>
        <time>2018-09-16T11:05:01Z</time>
      </trkpt>
      <trkpt lat="39.2986430" lon="-0.7798430">
        <ele>671.0</ele>
        <time>2018-09-16T11:05:02Z</time>
      </trkpt>
      <trkpt lat="39.2986430" lon="-0.7798430">
        <ele>668.0</ele>
        <time>2018-09-16T11:05:03Z</time>
      </trkpt>
      <trkpt lat="39.2985000" lon="-0.7799700">
        <ele>668.0</ele>
        <time>2018-09-16T11:05:04Z</time>
      </trkpt>
      <trkpt lat="39.2984300" lon="-0.7800320">
        <ele>667.0</ele>
        <time>2018-09-16T11:05:05Z</time>
      </trkpt>
      <trkpt lat="39.2984300" lon="-0.7800320">
        <ele>667.0</ele>
        <time>2018-09-16T11:05:06Z</time>
      </trkpt>
      <trkpt lat="39.2983030" lon="-0.7801180">
        <ele>665.0</ele>
        <time>2018-09-16T11:05:07Z</time>
      </trkpt>
      <trkpt lat="39.2983030" lon="-0.7801180">
        <ele>663.0</ele>
        <time>2018-09-16T11:05:08Z</time>
      </trkpt>
      <trkpt lat="39.2981630" lon="-0.7801230">
        <ele>663.0</ele>
        <time>2018-09-16T11:05:09Z</time>
      </trkpt>
      <trkpt lat="39.2981630" lon="-0.7801230">
        <ele>662.0</ele>
        <time>2018-09-16T11:05:10Z</time>
      </trkpt>
      <trkpt lat="39.2980450" lon="-0.7801420">
        <ele>662.0</ele>
        <time>2018-09-16T11:05:11Z</time>
      </trkpt>
      <trkpt lat="39.2980450" lon="-0.7801420">
        <ele>660.0</ele>
        <time>2018-09-16T11:05:12Z</time>
      </trkpt>
      <trkpt lat="39.2979420" lon="-0.7802230">
        <ele>660.0</ele>
        <time>2018-09-16T11:05:13Z</time>
      </trkpt>
      <trkpt lat="39.2979420" lon="-0.7802230">
        <ele>659.0</ele>
        <time>2018-09-16T11:05:14Z</time>
      </trkpt>
      <trkpt lat="39.2978320" lon="-0.7803470">
        <ele>659.0</ele>
        <time>2018-09-16T11:05:15Z</time>
      </trkpt>
      <trkpt lat="39.2978320" lon="-0.7803470">
        <ele>658.0</ele>
        <time>2018-09-16T11:05:16Z</time>
      </trkpt>
      <trkpt lat="39.2977320" lon="-0.7804680">
        <ele>658.0</ele>
        <time>2018-09-16T11:05:17Z</time>
      </trkpt>
      <trkpt lat="39.2976850" lon="-0.7805280">
        <ele>656.0</ele>
        <time>2018-09-16T11:05:18Z</time>
      </trkpt>
      <trkpt lat="39.2976420" lon="-0.7805900">
        <ele>656.0</ele>
        <time>2018-09-16T11:05:19Z</time>
      </trkpt>
      <trkpt lat="39.2976420" lon="-0.7805900">
        <ele>654.0</ele>
        <time>2018-09-16T11:05:20Z</time>
      </trkpt>
      <trkpt lat="39.2975580" lon="-0.7807320">
        <ele>654.0</ele>
        <time>2018-09-16T11:05:21Z</time>
      </trkpt>
      <trkpt lat="39.2975220" lon="-0.7808080">
        <ele>653.0</ele>
        <time>2018-09-16T11:05:22Z</time>
      </trkpt>
      <trkpt lat="39.2975220" lon="-0.7808080">
        <ele>653.0</ele>
        <time>2018-09-16T11:05:23Z</time>
      </trkpt>
      <trkpt lat="39.2974770" lon="-0.7809800">
        <ele>651.0</ele>
        <time>2018-09-16T11:05:24Z</time>
      </trkpt>
      <trkpt lat="39.2974700" lon="-0.7810750">
        <ele>651.0</ele>
        <time>2018-09-16T11:05:25Z</time>
      </trkpt>
      <trkpt lat="39.2974700" lon="-0.7810750">
        <ele>650.0</ele>
        <time>2018-09-16T11:05:26Z</time>
      </trkpt>
      <trkpt lat="39.2974770" lon="-0.7812880">
        <ele>650.0</ele>
        <time>2018-09-16T11:05:27Z</time>
      </trkpt>
      <trkpt lat="39.2974730" lon="-0.7813970">
        <ele>648.0</ele>
        <time>2018-09-16T11:05:28Z</time>
      </trkpt>
      <trkpt lat="39.2974730" lon="-0.7813970">
        <ele>648.0</ele>
        <time>2018-09-16T11:05:29Z</time>
      </trkpt>
      <trkpt lat="39.2974350" lon="-0.7815680">
        <ele>646.0</ele>
        <time>2018-09-16T11:05:30Z</time>
      </trkpt>
      <trkpt lat="39.2974100" lon="-0.7816230">
        <ele>646.0</ele>
        <time>2018-09-16T11:05:31Z</time>
      </trkpt>
      <trkpt lat="39.2974100" lon="-0.7816230">
        <ele>646.0</ele>
        <time>2018-09-16T11:05:32Z</time>
      </trkpt>
      <trkpt lat="39.2973430" lon="-0.7816720">
        <ele>646.0</ele>
        <time>2018-09-16T11:05:33Z</time>
      </trkpt>
      <trkpt lat="39.2972980" lon="-0.7816700">
        <ele>645.0</ele>
        <time>2018-09-16T11:05:34Z</time>
      </trkpt>
      <trkpt lat="39.2972980" lon="-0.7816700">
        <ele>645.0</ele>
        <time>2018-09-16T11:05:35Z</time>
      </trkpt>
      <trkpt lat="39.2972070" lon="-0.7816200">
        <ele>645.0</ele>
        <time>2018-09-16T11:05:36Z</time>
      </trkpt>
      <trkpt lat="39.2971580" lon="-0.7815830">
        <ele>643.0</ele>
        <time>2018-09-16T11:05:37Z</time>
      </trkpt>
      <trkpt lat="39.2971580" lon="-0.7815830">
        <ele>643.0</ele>
        <time>2018-09-16T11:05:38Z</time>
      </trkpt>
      <trkpt lat="39.2970470" lon="-0.7815270">
        <ele>643.0</ele>
        <time>2018-09-16T11:05:39Z</time>
      </trkpt>
      <trkpt lat="39.2970470" lon="-0.7815270">
        <ele>643.0</ele>
        <time>2018-09-16T11:05:40Z</time>
      </trkpt>
      <trkpt lat="39.2969400" lon="-0.7814930">
        <ele>641.0</ele>
        <time>2018-09-16T11:05:41Z</time>
      </trkpt>
      <trkpt lat="39.2969400" lon="-0.7814930">
        <ele>641.0</ele>
        <time>2018-09-16T11:05:42Z</time>
      </trkpt>
      <trkpt lat="39.2968730" lon="-0.7814320">
        <ele>640.0</ele>
        <time>2018-09-16T11:05:43Z</time>
      </trkpt>
      <trkpt lat="39.2968730" lon="-0.7814320">
        <ele>640.0</ele>
        <time>2018-09-16T11:05:44Z</time>
      </trkpt>
      <trkpt lat="39.2968480" lon="-0.7813320">
        <ele>639.0</ele>
        <time>2018-09-16T11:05:45Z</time>
      </trkpt>
      <trkpt lat="39.2968470" lon="-0.7812750">
        <ele>639.0</ele>
        <time>2018-09-16T11:05:46Z</time>
      </trkpt>
      <trkpt lat="39.2968470" lon="-0.7812750">
        <ele>639.0</ele>
        <time>2018-09-16T11:05:47Z</time>
      </trkpt>
      <trkpt lat="39.2968630" lon="-0.7811400">
        <ele>639.0</ele>
        <time>2018-09-16T11:05:48Z</time>
      </trkpt>
      <trkpt lat="39.2968800" lon="-0.7810700">
        <ele>639.0</ele>
        <time>2018-09-16T11:05:49Z</time>
      </trkpt>
      <trkpt lat="39.2968800" lon="-0.7810700">
        <ele>639.0</ele>
        <time>2018-09-16T11:05:50Z</time>
      </trkpt>
      <trkpt lat="39.2969180" lon="-0.7809300">
        <ele>638.0</ele>
        <time>2018-09-16T11:05:51Z</time>
      </trkpt>
      <trkpt lat="39.2969380" lon="-0.7808620">
        <ele>638.0</ele>
        <time>2018-09-16T11:05:52Z</time>
      </trkpt>
      <trkpt lat="39.2969380" lon="-0.7808620">
        <ele>638.0</ele>
        <time>2018-09-16T11:05:53Z</time>
      </trkpt>
      <trkpt lat="39.2969700" lon="-0.7807280">
        <ele>638.0</ele>
        <time>2018-09-16T11:05:54Z</time>
      </trkpt>
      <trkpt lat="39.2969870" lon="-0.7806650">
        <ele>638.0</ele>
        <time>2018-09-16T11:05:55Z</time>
      </trkpt>
      <trkpt lat="39.2969870" lon="-0.7806650">
        <ele>638.0</ele>
        <time>2018-09-16T11:05:56Z</time>
      </trkpt>
      <trkpt lat="39.2970130" lon="-0.7805430">
        <ele>638.0</ele>
        <time>2018-09-16T11:05:57Z</time>
      </trkpt>
      <trkpt lat="39.2970130" lon="-0.7805430">
        <ele>638.0</ele>
        <time>2018-09-16T11:05:58Z</time>
      </trkpt>
      <trkpt lat="39.2970370" lon="-0.7804350">
        <ele>638.0</ele>
        <time>2018-09-16T11:05:59Z</time>
      </trkpt>
      <trkpt lat="39.2970370" lon="-0.7804350">
        <ele>638.0</ele>
        <time>2018-09-16T11:06:00Z</time>
      </trkpt>
      <trkpt lat="39.2970550" lon="-0.7803550">
        <ele>638.0</ele>
        <time>2018-09-16T11:06:01Z</time>
      </trkpt>
      <trkpt lat="39.2970550" lon="-0.7803550">
        <ele>638.0</ele>
        <time>2018-09-16T11:06:02Z</time>
      </trkpt>
      <trkpt lat="39.2970730" lon="-0.7802900">
        <ele>638.0</ele>
        <time>2018-09-16T11:06:03Z</time>
      </trkpt>
      <trkpt lat="39.2970730" lon="-0.7802900">
        <ele>638.0</ele>
        <time>2018-09-16T11:06:04Z</time>
      </trkpt>
      <trkpt lat="39.2970920" lon="-0.7802320">
        <ele>638.0</ele>
        <time>2018-09-16T11:06:05Z</time>
      </trkpt>
      <trkpt lat="39.2970920" lon="-0.7802320">
        <ele>638.0</ele>
        <time>2018-09-16T11:06:06Z</time>
      </trkpt>
      <trkpt lat="39.2971100" lon="-0.7801720">
        <ele>638.0</ele>
        <time>2018-09-16T11:06:07Z</time>
      </trkpt>
      <trkpt lat="39.2971100" lon="-0.7801720">
        <ele>638.0</ele>
        <time>2018-09-16T11:06:08Z</time>
      </trkpt>
      <trkpt lat="39.2971250" lon="-0.7801030">
        <ele>638.0</ele>
        <time>2018-09-16T11:06:09Z</time>
      </trkpt>
      <trkpt lat="39.2971250" lon="-0.7801030">
        <ele>638.0</ele>
        <time>2018-09-16T11:06:10Z</time>
      </trkpt>
      <trkpt lat="39.2971400" lon="-0.7800230">
        <ele>638.0</ele>
        <time>2018-09-16T11:06:11Z</time>
      </trkpt>
      <trkpt lat="39.2971400" lon="-0.7800230">
        <ele>638.0</ele>
        <time>2018-09-16T11:06:12Z</time>
      </trkpt>
      <trkpt lat="39.2971600" lon="-0.7799330">
        <ele>638.0</ele>
        <time>2018-09-16T11:06:13Z</time>
      </trkpt>
      <trkpt lat="39.2971600" lon="-0.7799330">
        <ele>638.0</ele>
        <time>2018-09-16T11:06:14Z</time>
      </trkpt>
      <trkpt lat="39.2971780" lon="-0.7798300">
        <ele>638.0</ele>
        <time>2018-09-16T11:06:15Z</time>
      </trkpt>
      <trkpt lat="39.2971920" lon="-0.7797750">
        <ele>637.0</ele>
        <time>2018-09-16T11:06:16Z</time>
      </trkpt>
      <trkpt lat="39.2972080" lon="-0.7797200">
        <ele>637.0</ele>
        <time>2018-09-16T11:06:17Z</time>
      </trkpt>
      <trkpt lat="39.2972080" lon="-0.7797200">
        <ele>637.0</ele>
        <time>2018-09-16T11:06:18Z</time>
      </trkpt>
      <trkpt lat="39.2972470" lon="-0.7796100">
        <ele>637.0</ele>
        <time>2018-09-16T11:06:19Z</time>
      </trkpt>
      <trkpt lat="39.2972470" lon="-0.7796100">
        <ele>636.0</ele>
        <time>2018-09-16T11:06:20Z</time>
      </trkpt>
      <trkpt lat="39.2972900" lon="-0.7794950">
        <ele>636.0</ele>
        <time>2018-09-16T11:06:21Z</time>
      </trkpt>
      <trkpt lat="39.2972900" lon="-0.7794950">
        <ele>636.0</ele>
        <time>2018-09-16T11:06:22Z</time>
      </trkpt>
      <trkpt lat="39.2973280" lon="-0.7793820">
        <ele>636.0</ele>
        <time>2018-09-16T11:06:23Z</time>
      </trkpt>
      <trkpt lat="39.2973430" lon="-0.7793280">
        <ele>636.0</ele>
        <time>2018-09-16T11:06:24Z</time>
      </trkpt>
      <trkpt lat="39.2973580" lon="-0.7792770">
        <ele>636.0</ele>
        <time>2018-09-16T11:06:25Z</time>
      </trkpt>
      <trkpt lat="39.2973580" lon="-0.7792770">
        <ele>636.0</ele>
        <time>2018-09-16T11:06:26Z</time>
      </trkpt>
      <trkpt lat="39.2973900" lon="-0.7791770">
        <ele>636.0</ele>
        <time>2018-09-16T11:06:27Z</time>
      </trkpt>
      <trkpt lat="39.2973900" lon="-0.7791770">
        <ele>636.0</ele>
        <time>2018-09-16T11:06:28Z</time>
      </trkpt>
      <trkpt lat="39.2974200" lon="-0.7790750">
        <ele>636.0</ele>
        <time>2018-09-16T11:06:29Z</time>
      </trkpt>
      <trkpt lat="39.2974200" lon="-0.7790750">
        <ele>636.0</ele>
        <time>2018-09-16T11:06:30Z</time>
      </trkpt>
      <trkpt lat="39.2974470" lon="-0.7789770">
        <ele>636.0</ele>
        <time>2018-09-16T11:06:31Z</time>
      </trkpt>
      <trkpt lat="39.2974470" lon="-0.7789770">
        <ele>636.0</ele>
        <time>2018-09-16T11:06:32Z</time>
      </trkpt>
      <trkpt lat="39.2974670" lon="-0.7788780">
        <ele>636.0</ele>
        <time>2018-09-16T11:06:33Z</time>
      </trkpt>
      <trkpt lat="39.2974750" lon="-0.7788280">
        <ele>636.0</ele>
        <time>2018-09-16T11:06:34Z</time>
      </trkpt>
      <trkpt lat="39.2974750" lon="-0.7788280">
        <ele>636.0</ele>
        <time>2018-09-16T11:06:35Z</time>
      </trkpt>
      <trkpt lat="39.2974820" lon="-0.7787200">
        <ele>636.0</ele>
        <time>2018-09-16T11:06:36Z</time>
      </trkpt>
      <trkpt lat="39.2974830" lon="-0.7786630">
        <ele>636.0</ele>
        <time>2018-09-16T11:06:37Z</time>
      </trkpt>
      <trkpt lat="39.2974830" lon="-0.7786630">
        <ele>636.0</ele>
        <time>2018-09-16T11:06:38Z</time>
      </trkpt>
      <trkpt lat="39.2974950" lon="-0.7785480">
        <ele>636.0</ele>
        <time>2018-09-16T11:06:39Z</time>
      </trkpt>
      <trkpt lat="39.2975080" lon="-0.7784930">
        <ele>636.0</ele>
        <time>2018-09-16T11:06:40Z</time>
      </trkpt>
      <trkpt lat="39.2975250" lon="-0.7784400">
        <ele>636.0</ele>
        <time>2018-09-16T11:06:41Z</time>
      </trkpt>
      <trkpt lat="39.2975250" lon="-0.7784400">
        <ele>636.0</ele>
        <time>2018-09-16T11:06:42Z</time>
      </trkpt>
      <trkpt lat="39.2975630" lon="-0.7783420">
        <ele>636.0</ele>
        <time>2018-09-16T11:06:43Z</time>
      </trkpt>
      <trkpt lat="39.2975630" lon="-0.7783420">
        <ele>636.0</ele>
        <time>2018-09-16T11:06:44Z</time>
      </trkpt>
      <trkpt lat="39.2976020" lon="-0.7782500">
        <ele>636.0</ele>
        <time>2018-09-16T11:06:45Z</time>
      </trkpt>
      <trkpt lat="39.2976020" lon="-0.7782500">
        <ele>636.0</ele>
        <time>2018-09-16T11:06:46Z</time>
      </trkpt>
      <trkpt lat="39.2976330" lon="-0.7781570">
        <ele>636.0</ele>
        <time>2018-09-16T11:06:47Z</time>
      </trkpt>
      <trkpt lat="39.2976450" lon="-0.7781070">
        <ele>636.0</ele>
        <time>2018-09-16T11:06:48Z</time>
      </trkpt>
      <trkpt lat="39.2976530" lon="-0.7780570">
        <ele>636.0</ele>
        <time>2018-09-16T11:06:49Z</time>
      </trkpt>
      <trkpt lat="39.2976530" lon="-0.7780570">
        <ele>636.0</ele>
        <time>2018-09-16T11:06:50Z</time>
      </trkpt>
      <trkpt lat="39.2976750" lon="-0.7779520">
        <ele>636.0</ele>
        <time>2018-09-16T11:06:51Z</time>
      </trkpt>
      <trkpt lat="39.2976750" lon="-0.7779520">
        <ele>636.0</ele>
        <time>2018-09-16T11:06:52Z</time>
      </trkpt>
      <trkpt lat="39.2976900" lon="-0.7778420">
        <ele>636.0</ele>
        <time>2018-09-16T11:06:53Z</time>
      </trkpt>
      <trkpt lat="39.2977000" lon="-0.7777850">
        <ele>636.0</ele>
        <time>2018-09-16T11:06:54Z</time>
      </trkpt>
      <trkpt lat="39.2977080" lon="-0.7777270">
        <ele>636.0</ele>
        <time>2018-09-16T11:06:55Z</time>
      </trkpt>
      <trkpt lat="39.2977080" lon="-0.7777270">
        <ele>636.0</ele>
        <time>2018-09-16T11:06:56Z</time>
      </trkpt>
      <trkpt lat="39.2977250" lon="-0.7776100">
        <ele>636.0</ele>
        <time>2018-09-16T11:06:57Z</time>
      </trkpt>
      <trkpt lat="39.2977380" lon="-0.7775500">
        <ele>636.0</ele>
        <time>2018-09-16T11:06:58Z</time>
      </trkpt>
      <trkpt lat="39.2977380" lon="-0.7775500">
        <ele>636.0</ele>
        <time>2018-09-16T11:06:59Z</time>
      </trkpt>
      <trkpt lat="39.2977720" lon="-0.7774300">
        <ele>636.0</ele>
        <time>2018-09-16T11:07:00Z</time>
      </trkpt>
      <trkpt lat="39.2977970" lon="-0.7773700">
        <ele>636.0</ele>
        <time>2018-09-16T11:07:01Z</time>
      </trkpt>
      <trkpt lat="39.2977970" lon="-0.7773700">
        <ele>636.0</ele>
        <time>2018-09-16T11:07:02Z</time>
      </trkpt>
      <trkpt lat="39.2978470" lon="-0.7772320">
        <ele>636.0</ele>
        <time>2018-09-16T11:07:03Z</time>
      </trkpt>
      <trkpt lat="39.2978470" lon="-0.7772320">
        <ele>635.0</ele>
        <time>2018-09-16T11:07:04Z</time>
      </trkpt>
      <trkpt lat="39.2978880" lon="-0.7770650">
        <ele>635.0</ele>
        <time>2018-09-16T11:07:05Z</time>
      </trkpt>
      <trkpt lat="39.2979020" lon="-0.7769780">
        <ele>635.0</ele>
        <time>2018-09-16T11:07:06Z</time>
      </trkpt>
      <trkpt lat="39.2979130" lon="-0.7768900">
        <ele>635.0</ele>
        <time>2018-09-16T11:07:07Z</time>
      </trkpt>
      <trkpt lat="39.2979130" lon="-0.7768900">
        <ele>634.0</ele>
        <time>2018-09-16T11:07:08Z</time>
      </trkpt>
      <trkpt lat="39.2979250" lon="-0.7767180">
        <ele>634.0</ele>
        <time>2018-09-16T11:07:09Z</time>
      </trkpt>
      <trkpt lat="39.2979250" lon="-0.7767180">
        <ele>634.0</ele>
        <time>2018-09-16T11:07:10Z</time>
      </trkpt>
      <trkpt lat="39.2979380" lon="-0.7765500">
        <ele>634.0</ele>
        <time>2018-09-16T11:07:11Z</time>
      </trkpt>
      <trkpt lat="39.2979380" lon="-0.7765500">
        <ele>634.0</ele>
        <time>2018-09-16T11:07:12Z</time>
      </trkpt>
      <trkpt lat="39.2979580" lon="-0.7763780">
        <ele>634.0</ele>
        <time>2018-09-16T11:07:13Z</time>
      </trkpt>
      <trkpt lat="39.2979580" lon="-0.7763780">
        <ele>634.0</ele>
        <time>2018-09-16T11:07:14Z</time>
      </trkpt>
      <trkpt lat="39.2979820" lon="-0.7762180">
        <ele>634.0</ele>
        <time>2018-09-16T11:07:15Z</time>
      </trkpt>
      <trkpt lat="39.2979820" lon="-0.7762180">
        <ele>634.0</ele>
        <time>2018-09-16T11:07:16Z</time>
      </trkpt>
      <trkpt lat="39.2980170" lon="-0.7760650">
        <ele>634.0</ele>
        <time>2018-09-16T11:07:17Z</time>
      </trkpt>
      <trkpt lat="39.2980170" lon="-0.7760650">
        <ele>634.0</ele>
        <time>2018-09-16T11:07:18Z</time>
      </trkpt>
      <trkpt lat="39.2980530" lon="-0.7759250">
        <ele>634.0</ele>
        <time>2018-09-16T11:07:19Z</time>
      </trkpt>
      <trkpt lat="39.2980530" lon="-0.7759250">
        <ele>634.0</ele>
        <time>2018-09-16T11:07:20Z</time>
      </trkpt>
      <trkpt lat="39.2980830" lon="-0.7757900">
        <ele>634.0</ele>
        <time>2018-09-16T11:07:21Z</time>
      </trkpt>
      <trkpt lat="39.2980830" lon="-0.7757900">
        <ele>634.0</ele>
        <time>2018-09-16T11:07:22Z</time>
      </trkpt>
      <trkpt lat="39.2980970" lon="-0.7756600">
        <ele>634.0</ele>
        <time>2018-09-16T11:07:23Z</time>
      </trkpt>
      <trkpt lat="39.2980970" lon="-0.7756600">
        <ele>634.0</ele>
        <time>2018-09-16T11:07:24Z</time>
      </trkpt>
      <trkpt lat="39.2980950" lon="-0.7755280">
        <ele>634.0</ele>
        <time>2018-09-16T11:07:25Z</time>
      </trkpt>
      <trkpt lat="39.2980950" lon="-0.7755280">
        <ele>633.0</ele>
        <time>2018-09-16T11:07:26Z</time>
      </trkpt>
      <trkpt lat="39.2980920" lon="-0.7753880">
        <ele>633.0</ele>
        <time>2018-09-16T11:07:27Z</time>
      </trkpt>
      <trkpt lat="39.2980920" lon="-0.7753880">
        <ele>633.0</ele>
        <time>2018-09-16T11:07:28Z</time>
      </trkpt>
      <trkpt lat="39.2980930" lon="-0.7752370">
        <ele>633.0</ele>
        <time>2018-09-16T11:07:29Z</time>
      </trkpt>
      <trkpt lat="39.2980930" lon="-0.7752370">
        <ele>633.0</ele>
        <time>2018-09-16T11:07:30Z</time>
      </trkpt>
      <trkpt lat="39.2981180" lon="-0.7750870">
        <ele>633.0</ele>
        <time>2018-09-16T11:07:31Z</time>
      </trkpt>
      <trkpt lat="39.2981180" lon="-0.7750870">
        <ele>633.0</ele>
        <time>2018-09-16T11:07:32Z</time>
      </trkpt>
      <trkpt lat="39.2981580" lon="-0.7749550">
        <ele>633.0</ele>
        <time>2018-09-16T11:07:33Z</time>
      </trkpt>
      <trkpt lat="39.2981580" lon="-0.7749550">
        <ele>633.0</ele>
        <time>2018-09-16T11:07:34Z</time>
      </trkpt>
      <trkpt lat="39.2981900" lon="-0.7748380">
        <ele>633.0</ele>
        <time>2018-09-16T11:07:35Z</time>
      </trkpt>
      <trkpt lat="39.2982050" lon="-0.7747820">
        <ele>633.0</ele>
        <time>2018-09-16T11:07:36Z</time>
      </trkpt>
      <trkpt lat="39.2982180" lon="-0.7747250">
        <ele>633.0</ele>
        <time>2018-09-16T11:07:37Z</time>
      </trkpt>
      <trkpt lat="39.2982180" lon="-0.7747250">
        <ele>633.0</ele>
        <time>2018-09-16T11:07:38Z</time>
      </trkpt>
      <trkpt lat="39.2982250" lon="-0.7746100">
        <ele>633.0</ele>
        <time>2018-09-16T11:07:39Z</time>
      </trkpt>
      <trkpt lat="39.2982280" lon="-0.7745620">
        <ele>633.0</ele>
        <time>2018-09-16T11:07:40Z</time>
      </trkpt>
      <trkpt lat="39.2982350" lon="-0.7745200">
        <ele>633.0</ele>
        <time>2018-09-16T11:07:41Z</time>
      </trkpt>
      <trkpt lat="39.2982350" lon="-0.7745200">
        <ele>633.0</ele>
        <time>2018-09-16T11:07:42Z</time>
      </trkpt>
      <trkpt lat="39.2982450" lon="-0.7744420">
        <ele>633.0</ele>
        <time>2018-09-16T11:07:43Z</time>
      </trkpt>
      <trkpt lat="39.2982450" lon="-0.7744420">
        <ele>633.0</ele>
        <time>2018-09-16T11:07:44Z</time>
      </trkpt>
      <trkpt lat="39.2982300" lon="-0.7743620">
        <ele>633.0</ele>
        <time>2018-09-16T11:07:45Z</time>
      </trkpt>
      <trkpt lat="39.2982200" lon="-0.7743220">
        <ele>634.0</ele>
        <time>2018-09-16T11:07:46Z</time>
      </trkpt>
      <trkpt lat="39.2982200" lon="-0.7743220">
        <ele>634.0</ele>
        <time>2018-09-16T11:07:47Z</time>
      </trkpt>
      <trkpt lat="39.2982080" lon="-0.7742400">
        <ele>634.0</ele>
        <time>2018-09-16T11:07:48Z</time>
      </trkpt>
      <trkpt lat="39.2982070" lon="-0.7742020">
        <ele>634.0</ele>
        <time>2018-09-16T11:07:49Z</time>
      </trkpt>
      <trkpt lat="39.2982070" lon="-0.7742020">
        <ele>635.0</ele>
        <time>2018-09-16T11:07:50Z</time>
      </trkpt>
      <trkpt lat="39.2982130" lon="-0.7741300">
        <ele>635.0</ele>
        <time>2018-09-16T11:07:51Z</time>
      </trkpt>
      <trkpt lat="39.2982130" lon="-0.7741300">
        <ele>635.0</ele>
        <time>2018-09-16T11:07:52Z</time>
      </trkpt>
      <trkpt lat="39.2982270" lon="-0.7740620">
        <ele>635.0</ele>
        <time>2018-09-16T11:07:53Z</time>
      </trkpt>
      <trkpt lat="39.2982370" lon="-0.7740280">
        <ele>635.0</ele>
        <time>2018-09-16T11:07:54Z</time>
      </trkpt>
      <trkpt lat="39.2982480" lon="-0.7739930">
        <ele>635.0</ele>
        <time>2018-09-16T11:07:55Z</time>
      </trkpt>
      <trkpt lat="39.2982480" lon="-0.7739930">
        <ele>636.0</ele>
        <time>2018-09-16T11:07:56Z</time>
      </trkpt>
      <trkpt lat="39.2982680" lon="-0.7739220">
        <ele>636.0</ele>
        <time>2018-09-16T11:07:57Z</time>
      </trkpt>
      <trkpt lat="39.2982680" lon="-0.7739220">
        <ele>636.0</ele>
        <time>2018-09-16T11:07:58Z</time>
      </trkpt>
      <trkpt lat="39.2982730" lon="-0.7738500">
        <ele>636.0</ele>
        <time>2018-09-16T11:07:59Z</time>
      </trkpt>
      <trkpt lat="39.2982730" lon="-0.7738500">
        <ele>637.0</ele>
        <time>2018-09-16T11:08:00Z</time>
      </trkpt>
      <trkpt lat="39.2982770" lon="-0.7737820">
        <ele>637.0</ele>
        <time>2018-09-16T11:08:01Z</time>
      </trkpt>
      <trkpt lat="39.2982770" lon="-0.7737820">
        <ele>637.0</ele>
        <time>2018-09-16T11:08:02Z</time>
      </trkpt>
      <trkpt lat="39.2982750" lon="-0.7737100">
        <ele>637.0</ele>
        <time>2018-09-16T11:08:03Z</time>
      </trkpt>
      <trkpt lat="39.2982750" lon="-0.7737100">
        <ele>637.0</ele>
        <time>2018-09-16T11:08:04Z</time>
      </trkpt>
      <trkpt lat="39.2982780" lon="-0.7736200">
        <ele>637.0</ele>
        <time>2018-09-16T11:08:05Z</time>
      </trkpt>
      <trkpt lat="39.2982780" lon="-0.7736200">
        <ele>637.0</ele>
        <time>2018-09-16T11:08:06Z</time>
      </trkpt>
      <trkpt lat="39.2982900" lon="-0.7735200">
        <ele>637.0</ele>
        <time>2018-09-16T11:08:07Z</time>
      </trkpt>
      <trkpt lat="39.2982900" lon="-0.7735200">
        <ele>637.0</ele>
        <time>2018-09-16T11:08:08Z</time>
      </trkpt>
      <trkpt lat="39.2983130" lon="-0.7734050">
        <ele>637.0</ele>
        <time>2018-09-16T11:08:09Z</time>
      </trkpt>
      <trkpt lat="39.2983130" lon="-0.7734050">
        <ele>637.0</ele>
        <time>2018-09-16T11:08:10Z</time>
      </trkpt>
      <trkpt lat="39.2983230" lon="-0.7732820">
        <ele>637.0</ele>
        <time>2018-09-16T11:08:11Z</time>
      </trkpt>
      <trkpt lat="39.2983230" lon="-0.7732820">
        <ele>636.0</ele>
        <time>2018-09-16T11:08:12Z</time>
      </trkpt>
      <trkpt lat="39.2982930" lon="-0.7731430">
        <ele>636.0</ele>
        <time>2018-09-16T11:08:13Z</time>
      </trkpt>
      <trkpt lat="39.2982930" lon="-0.7731430">
        <ele>635.0</ele>
        <time>2018-09-16T11:08:14Z</time>
      </trkpt>
      <trkpt lat="39.2982250" lon="-0.7729980">
        <ele>635.0</ele>
        <time>2018-09-16T11:08:15Z</time>
      </trkpt>
      <trkpt lat="39.2981880" lon="-0.7729220">
        <ele>633.0</ele>
        <time>2018-09-16T11:08:16Z</time>
      </trkpt>
      <trkpt lat="39.2981880" lon="-0.7729220">
        <ele>633.0</ele>
        <time>2018-09-16T11:08:17Z</time>
      </trkpt>
      <trkpt lat="39.2981370" lon="-0.7727400">
        <ele>632.0</ele>
        <time>2018-09-16T11:08:18Z</time>
      </trkpt>
      <trkpt lat="39.2981250" lon="-0.7726430">
        <ele>632.0</ele>
        <time>2018-09-16T11:08:19Z</time>
      </trkpt>
      <trkpt lat="39.2981250" lon="-0.7726430">
        <ele>629.0</ele>
        <time>2018-09-16T11:08:20Z</time>
      </trkpt>
      <trkpt lat="39.2981500" lon="-0.7724470">
        <ele>629.0</ele>
        <time>2018-09-16T11:08:21Z</time>
      </trkpt>
      <trkpt lat="39.2981500" lon="-0.7724470">
        <ele>626.0</ele>
        <time>2018-09-16T11:08:22Z</time>
      </trkpt>
      <trkpt lat="39.2981820" lon="-0.7722500">
        <ele>626.0</ele>
        <time>2018-09-16T11:08:23Z</time>
      </trkpt>
      <trkpt lat="39.2981820" lon="-0.7722500">
        <ele>625.0</ele>
        <time>2018-09-16T11:08:24Z</time>
      </trkpt>
      <trkpt lat="39.2982030" lon="-0.7720750">
        <ele>625.0</ele>
        <time>2018-09-16T11:08:25Z</time>
      </trkpt>
      <trkpt lat="39.2982030" lon="-0.7720750">
        <ele>624.0</ele>
        <time>2018-09-16T11:08:26Z</time>
      </trkpt>
      <trkpt lat="39.2982380" lon="-0.7719130">
        <ele>624.0</ele>
        <time>2018-09-16T11:08:27Z</time>
      </trkpt>
      <trkpt lat="39.2982650" lon="-0.7718400">
        <ele>624.0</ele>
        <time>2018-09-16T11:08:28Z</time>
      </trkpt>
      <trkpt lat="39.2982650" lon="-0.7718400">
        <ele>624.0</ele>
        <time>2018-09-16T11:08:29Z</time>
      </trkpt>
      <trkpt lat="39.2983180" lon="-0.7717050">
        <ele>624.0</ele>
        <time>2018-09-16T11:08:30Z</time>
      </trkpt>
      <trkpt lat="39.2983430" lon="-0.7716450">
        <ele>624.0</ele>
        <time>2018-09-16T11:08:31Z</time>
      </trkpt>
      <trkpt lat="39.2983430" lon="-0.7716450">
        <ele>625.0</ele>
        <time>2018-09-16T11:08:32Z</time>
      </trkpt>
      <trkpt lat="39.2983750" lon="-0.7715280">
        <ele>625.0</ele>
        <time>2018-09-16T11:08:33Z</time>
      </trkpt>
      <trkpt lat="39.2983900" lon="-0.7714730">
        <ele>625.0</ele>
        <time>2018-09-16T11:08:34Z</time>
      </trkpt>
      <trkpt lat="39.2983900" lon="-0.7714730">
        <ele>625.0</ele>
        <time>2018-09-16T11:08:35Z</time>
      </trkpt>
      <trkpt lat="39.2984170" lon="-0.7713670">
        <ele>626.0</ele>
        <time>2018-09-16T11:08:36Z</time>
      </trkpt>
      <trkpt lat="39.2984300" lon="-0.7713130">
        <ele>626.0</ele>
        <time>2018-09-16T11:08:37Z</time>
      </trkpt>
      <trkpt lat="39.2984300" lon="-0.7713130">
        <ele>626.0</ele>
        <time>2018-09-16T11:08:38Z</time>
      </trkpt>
      <trkpt lat="39.2984520" lon="-0.7712070">
        <ele>626.0</ele>
        <time>2018-09-16T11:08:39Z</time>
      </trkpt>
      <trkpt lat="39.2984520" lon="-0.7712070">
        <ele>626.0</ele>
        <time>2018-09-16T11:08:40Z</time>
      </trkpt>
      <trkpt lat="39.2984630" lon="-0.7711070">
        <ele>626.0</ele>
        <time>2018-09-16T11:08:41Z</time>
      </trkpt>
      <trkpt lat="39.2984630" lon="-0.7711070">
        <ele>626.0</ele>
        <time>2018-09-16T11:08:42Z</time>
      </trkpt>
      <trkpt lat="39.2984630" lon="-0.7710070">
        <ele>626.0</ele>
        <time>2018-09-16T11:08:43Z</time>
      </trkpt>
      <trkpt lat="39.2984630" lon="-0.7710070">
        <ele>626.0</ele>
        <time>2018-09-16T11:08:44Z</time>
      </trkpt>
      <trkpt lat="39.2984480" lon="-0.7708870">
        <ele>626.0</ele>
        <time>2018-09-16T11:08:45Z</time>
      </trkpt>
      <trkpt lat="39.2984480" lon="-0.7708870">
        <ele>626.0</ele>
        <time>2018-09-16T11:08:46Z</time>
      </trkpt>
      <trkpt lat="39.2984420" lon="-0.7707580">
        <ele>626.0</ele>
        <time>2018-09-16T11:08:47Z</time>
      </trkpt>
      <trkpt lat="39.2984420" lon="-0.7707580">
        <ele>626.0</ele>
        <time>2018-09-16T11:08:48Z</time>
      </trkpt>
      <trkpt lat="39.2984470" lon="-0.7706370">
        <ele>626.0</ele>
        <time>2018-09-16T11:08:49Z</time>
      </trkpt>
      <trkpt lat="39.2984470" lon="-0.7706370">
        <ele>626.0</ele>
        <time>2018-09-16T11:08:50Z</time>
      </trkpt>
      <trkpt lat="39.2984550" lon="-0.7705250">
        <ele>626.0</ele>
        <time>2018-09-16T11:08:51Z</time>
      </trkpt>
      <trkpt lat="39.2984630" lon="-0.7704730">
        <ele>626.0</ele>
        <time>2018-09-16T11:08:52Z</time>
      </trkpt>
      <trkpt lat="39.2984630" lon="-0.7704730">
        <ele>626.0</ele>
        <time>2018-09-16T11:08:53Z</time>
      </trkpt>
      <trkpt lat="39.2984750" lon="-0.7703700">
        <ele>626.0</ele>
        <time>2018-09-16T11:08:54Z</time>
      </trkpt>
      <trkpt lat="39.2984820" lon="-0.7703180">
        <ele>626.0</ele>
        <time>2018-09-16T11:08:55Z</time>
      </trkpt>
      <trkpt lat="39.2984820" lon="-0.7703180">
        <ele>626.0</ele>
        <time>2018-09-16T11:08:56Z</time>
      </trkpt>
      <trkpt lat="39.2984950" lon="-0.7702180">
        <ele>626.0</ele>
        <time>2018-09-16T11:08:57Z</time>
      </trkpt>
      <trkpt lat="39.2984950" lon="-0.7702180">
        <ele>626.0</ele>
        <time>2018-09-16T11:08:58Z</time>
      </trkpt>
      <trkpt lat="39.2985000" lon="-0.7701300">
        <ele>626.0</ele>
        <time>2018-09-16T11:08:59Z</time>
      </trkpt>
      <trkpt lat="39.2985000" lon="-0.7701300">
        <ele>626.0</ele>
        <time>2018-09-16T11:09:00Z</time>
      </trkpt>
      <trkpt lat="39.2984970" lon="-0.7700450">
        <ele>626.0</ele>
        <time>2018-09-16T11:09:01Z</time>
      </trkpt>
      <trkpt lat="39.2984970" lon="-0.7700450">
        <ele>626.0</ele>
        <time>2018-09-16T11:09:02Z</time>
      </trkpt>
      <trkpt lat="39.2984920" lon="-0.7699650">
        <ele>627.0</ele>
        <time>2018-09-16T11:09:03Z</time>
      </trkpt>
      <trkpt lat="39.2984920" lon="-0.7699650">
        <ele>627.0</ele>
        <time>2018-09-16T11:09:04Z</time>
      </trkpt>
      <trkpt lat="39.2984970" lon="-0.7698900">
        <ele>627.0</ele>
        <time>2018-09-16T11:09:05Z</time>
      </trkpt>
      <trkpt lat="39.2984970" lon="-0.7698900">
        <ele>627.0</ele>
        <time>2018-09-16T11:09:06Z</time>
      </trkpt>
      <trkpt lat="39.2985180" lon="-0.7698130">
        <ele>627.0</ele>
        <time>2018-09-16T11:09:07Z</time>
      </trkpt>
      <trkpt lat="39.2985180" lon="-0.7698130">
        <ele>627.0</ele>
        <time>2018-09-16T11:09:08Z</time>
      </trkpt>
      <trkpt lat="39.2985420" lon="-0.7697270">
        <ele>627.0</ele>
        <time>2018-09-16T11:09:09Z</time>
      </trkpt>
      <trkpt lat="39.2985420" lon="-0.7697270">
        <ele>627.0</ele>
        <time>2018-09-16T11:09:10Z</time>
      </trkpt>
      <trkpt lat="39.2985650" lon="-0.7696320">
        <ele>627.0</ele>
        <time>2018-09-16T11:09:11Z</time>
      </trkpt>
      <trkpt lat="39.2985650" lon="-0.7696320">
        <ele>627.0</ele>
        <time>2018-09-16T11:09:12Z</time>
      </trkpt>
      <trkpt lat="39.2986120" lon="-0.7695550">
        <ele>627.0</ele>
        <time>2018-09-16T11:09:13Z</time>
      </trkpt>
      <trkpt lat="39.2986120" lon="-0.7695550">
        <ele>627.0</ele>
        <time>2018-09-16T11:09:14Z</time>
      </trkpt>
      <trkpt lat="39.2986870" lon="-0.7694950">
        <ele>627.0</ele>
        <time>2018-09-16T11:09:15Z</time>
      </trkpt>
      <trkpt lat="39.2986870" lon="-0.7694950">
        <ele>627.0</ele>
        <time>2018-09-16T11:09:16Z</time>
      </trkpt>
      <trkpt lat="39.2987680" lon="-0.7694430">
        <ele>627.0</ele>
        <time>2018-09-16T11:09:17Z</time>
      </trkpt>
      <trkpt lat="39.2987680" lon="-0.7694430">
        <ele>627.0</ele>
        <time>2018-09-16T11:09:18Z</time>
      </trkpt>
      <trkpt lat="39.2988500" lon="-0.7694050">
        <ele>627.0</ele>
        <time>2018-09-16T11:09:19Z</time>
      </trkpt>
      <trkpt lat="39.2988500" lon="-0.7694050">
        <ele>627.0</ele>
        <time>2018-09-16T11:09:20Z</time>
      </trkpt>
      <trkpt lat="39.2989380" lon="-0.7693800">
        <ele>627.0</ele>
        <time>2018-09-16T11:09:21Z</time>
      </trkpt>
      <trkpt lat="39.2989380" lon="-0.7693800">
        <ele>627.0</ele>
        <time>2018-09-16T11:09:22Z</time>
      </trkpt>
      <trkpt lat="39.2990420" lon="-0.7693350">
        <ele>627.0</ele>
        <time>2018-09-16T11:09:23Z</time>
      </trkpt>
      <trkpt lat="39.2990830" lon="-0.7692820">
        <ele>625.0</ele>
        <time>2018-09-16T11:09:24Z</time>
      </trkpt>
      <trkpt lat="39.2990980" lon="-0.7692080">
        <ele>625.0</ele>
        <time>2018-09-16T11:09:25Z</time>
      </trkpt>
      <trkpt lat="39.2990980" lon="-0.7692080">
        <ele>624.0</ele>
        <time>2018-09-16T11:09:26Z</time>
      </trkpt>
      <trkpt lat="39.2990730" lon="-0.7690550">
        <ele>624.0</ele>
        <time>2018-09-16T11:09:27Z</time>
      </trkpt>
      <trkpt lat="39.2990730" lon="-0.7690550">
        <ele>623.0</ele>
        <time>2018-09-16T11:09:28Z</time>
      </trkpt>
      <trkpt lat="39.2990420" lon="-0.7689220">
        <ele>623.0</ele>
        <time>2018-09-16T11:09:29Z</time>
      </trkpt>
      <trkpt lat="39.2990420" lon="-0.7689220">
        <ele>622.0</ele>
        <time>2018-09-16T11:09:30Z</time>
      </trkpt>
      <trkpt lat="39.2990020" lon="-0.7687620">
        <ele>622.0</ele>
        <time>2018-09-16T11:09:31Z</time>
      </trkpt>
      <trkpt lat="39.2990020" lon="-0.7687620">
        <ele>622.0</ele>
        <time>2018-09-16T11:09:32Z</time>
      </trkpt>
      <trkpt lat="39.2989400" lon="-0.7685680">
        <ele>621.0</ele>
        <time>2018-09-16T11:09:33Z</time>
      </trkpt>
      <trkpt lat="39.2989400" lon="-0.7685680">
        <ele>621.0</ele>
        <time>2018-09-16T11:09:34Z</time>
      </trkpt>
      <trkpt lat="39.2988430" lon="-0.7683920">
        <ele>620.0</ele>
        <time>2018-09-16T11:09:35Z</time>
      </trkpt>
      <trkpt lat="39.2987900" lon="-0.7683080">
        <ele>620.0</ele>
        <time>2018-09-16T11:09:36Z</time>
      </trkpt>
      <trkpt lat="39.2987380" lon="-0.7682230">
        <ele>620.0</ele>
        <time>2018-09-16T11:09:37Z</time>
      </trkpt>
      <trkpt lat="39.2987380" lon="-0.7682230">
        <ele>620.0</ele>
        <time>2018-09-16T11:09:38Z</time>
      </trkpt>
      <trkpt lat="39.2986430" lon="-0.7680420">
        <ele>619.0</ele>
        <time>2018-09-16T11:09:39Z</time>
      </trkpt>
      <trkpt lat="39.2986430" lon="-0.7680420">
        <ele>619.0</ele>
        <time>2018-09-16T11:09:40Z</time>
      </trkpt>
      <trkpt lat="39.2985500" lon="-0.7678620">
        <ele>618.0</ele>
        <time>2018-09-16T11:09:41Z</time>
      </trkpt>
      <trkpt lat="39.2985500" lon="-0.7678620">
        <ele>618.0</ele>
        <time>2018-09-16T11:09:42Z</time>
      </trkpt>
      <trkpt lat="39.2984600" lon="-0.7676920">
        <ele>618.0</ele>
        <time>2018-09-16T11:09:43Z</time>
      </trkpt>
      <trkpt lat="39.2984600" lon="-0.7676920">
        <ele>618.0</ele>
        <time>2018-09-16T11:09:44Z</time>
      </trkpt>
      <trkpt lat="39.2983630" lon="-0.7675320">
        <ele>617.0</ele>
        <time>2018-09-16T11:09:45Z</time>
      </trkpt>
      <trkpt lat="39.2983170" lon="-0.7674550">
        <ele>617.0</ele>
        <time>2018-09-16T11:09:46Z</time>
      </trkpt>
      <trkpt lat="39.2983170" lon="-0.7674550">
        <ele>617.0</ele>
        <time>2018-09-16T11:09:47Z</time>
      </trkpt>
      <trkpt lat="39.2982420" lon="-0.7673150">
        <ele>617.0</ele>
        <time>2018-09-16T11:09:48Z</time>
      </trkpt>
      <trkpt lat="39.2982170" lon="-0.7672400">
        <ele>618.0</ele>
        <time>2018-09-16T11:09:49Z</time>
      </trkpt>
      <trkpt lat="39.2982170" lon="-0.7672400">
        <ele>618.0</ele>
        <time>2018-09-16T11:09:50Z</time>
      </trkpt>
      <trkpt lat="39.2981670" lon="-0.7670970">
        <ele>618.0</ele>
        <time>2018-09-16T11:09:51Z</time>
      </trkpt>
      <trkpt lat="39.2981670" lon="-0.7670970">
        <ele>618.0</ele>
        <time>2018-09-16T11:09:52Z</time>
      </trkpt>
      <trkpt lat="39.2981120" lon="-0.7669570">
        <ele>618.0</ele>
        <time>2018-09-16T11:09:53Z</time>
      </trkpt>
      <trkpt lat="39.2980800" lon="-0.7668870">
        <ele>618.0</ele>
        <time>2018-09-16T11:09:54Z</time>
      </trkpt>
      <trkpt lat="39.2980420" lon="-0.7668130">
        <ele>617.0</ele>
        <time>2018-09-16T11:09:55Z</time>
      </trkpt>
      <trkpt lat="39.2980420" lon="-0.7668130">
        <ele>617.0</ele>
        <time>2018-09-16T11:09:56Z</time>
      </trkpt>
      <trkpt lat="39.2979780" lon="-0.7666430">
        <ele>617.0</ele>
        <time>2018-09-16T11:09:57Z</time>
      </trkpt>
      <trkpt lat="39.2979780" lon="-0.7666430">
        <ele>616.0</ele>
        <time>2018-09-16T11:09:58Z</time>
      </trkpt>
      <trkpt lat="39.2979170" lon="-0.7664820">
        <ele>616.0</ele>
        <time>2018-09-16T11:09:59Z</time>
      </trkpt>
      <trkpt lat="39.2979170" lon="-0.7664820">
        <ele>615.0</ele>
        <time>2018-09-16T11:10:00Z</time>
      </trkpt>
      <trkpt lat="39.2978450" lon="-0.7663130">
        <ele>615.0</ele>
        <time>2018-09-16T11:10:01Z</time>
      </trkpt>
      <trkpt lat="39.2978450" lon="-0.7663130">
        <ele>615.0</ele>
        <time>2018-09-16T11:10:02Z</time>
      </trkpt>
      <trkpt lat="39.2978070" lon="-0.7661280">
        <ele>615.0</ele>
        <time>2018-09-16T11:10:03Z</time>
      </trkpt>
      <trkpt lat="39.2978070" lon="-0.7661280">
        <ele>614.0</ele>
        <time>2018-09-16T11:10:04Z</time>
      </trkpt>
      <trkpt lat="39.2977930" lon="-0.7659370">
        <ele>614.0</ele>
        <time>2018-09-16T11:10:05Z</time>
      </trkpt>
      <trkpt lat="39.2977930" lon="-0.7659370">
        <ele>614.0</ele>
        <time>2018-09-16T11:10:06Z</time>
      </trkpt>
      <trkpt lat="39.2977670" lon="-0.7657530">
        <ele>614.0</ele>
        <time>2018-09-16T11:10:07Z</time>
      </trkpt>
      <trkpt lat="39.2977670" lon="-0.7657530">
        <ele>614.0</ele>
        <time>2018-09-16T11:10:08Z</time>
      </trkpt>
      <trkpt lat="39.2977120" lon="-0.7655980">
        <ele>614.0</ele>
        <time>2018-09-16T11:10:09Z</time>
      </trkpt>
      <trkpt lat="39.2977120" lon="-0.7655980">
        <ele>612.0</ele>
        <time>2018-09-16T11:10:10Z</time>
      </trkpt>
      <trkpt lat="39.2976200" lon="-0.7654770">
        <ele>612.0</ele>
        <time>2018-09-16T11:10:11Z</time>
      </trkpt>
      <trkpt lat="39.2976200" lon="-0.7654770">
        <ele>611.0</ele>
        <time>2018-09-16T11:10:12Z</time>
      </trkpt>
      <trkpt lat="39.2975100" lon="-0.7653920">
        <ele>611.0</ele>
        <time>2018-09-16T11:10:13Z</time>
      </trkpt>
      <trkpt lat="39.2975100" lon="-0.7653920">
        <ele>610.0</ele>
        <time>2018-09-16T11:10:14Z</time>
      </trkpt>
      <trkpt lat="39.2973830" lon="-0.7653530">
        <ele>610.0</ele>
        <time>2018-09-16T11:10:15Z</time>
      </trkpt>
      <trkpt lat="39.2973830" lon="-0.7653530">
        <ele>610.0</ele>
        <time>2018-09-16T11:10:16Z</time>
      </trkpt>
      <trkpt lat="39.2972370" lon="-0.7653520">
        <ele>610.0</ele>
        <time>2018-09-16T11:10:17Z</time>
      </trkpt>
      <trkpt lat="39.2972370" lon="-0.7653520">
        <ele>610.0</ele>
        <time>2018-09-16T11:10:18Z</time>
      </trkpt>
      <trkpt lat="39.2970820" lon="-0.7653430">
        <ele>610.0</ele>
        <time>2018-09-16T11:10:19Z</time>
      </trkpt>
      <trkpt lat="39.2970820" lon="-0.7653430">
        <ele>609.0</ele>
        <time>2018-09-16T11:10:20Z</time>
      </trkpt>
      <trkpt lat="39.2969180" lon="-0.7653450">
        <ele>609.0</ele>
        <time>2018-09-16T11:10:21Z</time>
      </trkpt>
      <trkpt lat="39.2969180" lon="-0.7653450">
        <ele>608.0</ele>
        <time>2018-09-16T11:10:22Z</time>
      </trkpt>
      <trkpt lat="39.2967630" lon="-0.7653650">
        <ele>608.0</ele>
        <time>2018-09-16T11:10:23Z</time>
      </trkpt>
      <trkpt lat="39.2966870" lon="-0.7653800">
        <ele>607.0</ele>
        <time>2018-09-16T11:10:24Z</time>
      </trkpt>
      <trkpt lat="39.2966130" lon="-0.7653980">
        <ele>605.0</ele>
        <time>2018-09-16T11:10:25Z</time>
      </trkpt>
      <trkpt lat="39.2966130" lon="-0.7653980">
        <ele>605.0</ele>
        <time>2018-09-16T11:10:26Z</time>
      </trkpt>
      <trkpt lat="39.2964670" lon="-0.7654480">
        <ele>604.0</ele>
        <time>2018-09-16T11:10:27Z</time>
      </trkpt>
      <trkpt lat="39.2964120" lon="-0.7654630">
        <ele>604.0</ele>
        <time>2018-09-16T11:10:28Z</time>
      </trkpt>
      <trkpt lat="39.2964120" lon="-0.7654630">
        <ele>602.0</ele>
        <time>2018-09-16T11:10:29Z</time>
      </trkpt>
      <trkpt lat="39.2963150" lon="-0.7654420">
        <ele>602.0</ele>
        <time>2018-09-16T11:10:30Z</time>
      </trkpt>
      <trkpt lat="39.2962650" lon="-0.7654150">
        <ele>600.0</ele>
        <time>2018-09-16T11:10:31Z</time>
      </trkpt>
      <trkpt lat="39.2962650" lon="-0.7654150">
        <ele>600.0</ele>
        <time>2018-09-16T11:10:32Z</time>
      </trkpt>
      <trkpt lat="39.2961550" lon="-0.7653550">
        <ele>599.0</ele>
        <time>2018-09-16T11:10:33Z</time>
      </trkpt>
      <trkpt lat="39.2960920" lon="-0.7653350">
        <ele>599.0</ele>
        <time>2018-09-16T11:10:34Z</time>
      </trkpt>
      <trkpt lat="39.2960920" lon="-0.7653350">
        <ele>599.0</ele>
        <time>2018-09-16T11:10:35Z</time>
      </trkpt>
      <trkpt lat="39.2959520" lon="-0.7653220">
        <ele>599.0</ele>
        <time>2018-09-16T11:10:36Z</time>
      </trkpt>
      <trkpt lat="39.2958800" lon="-0.7653270">
        <ele>597.0</ele>
        <time>2018-09-16T11:10:37Z</time>
      </trkpt>
      <trkpt lat="39.2958800" lon="-0.7653270">
        <ele>597.0</ele>
        <time>2018-09-16T11:10:38Z</time>
      </trkpt>
      <trkpt lat="39.2957400" lon="-0.7653500">
        <ele>597.0</ele>
        <time>2018-09-16T11:10:39Z</time>
      </trkpt>
      <trkpt lat="39.2957400" lon="-0.7653500">
        <ele>597.0</ele>
        <time>2018-09-16T11:10:40Z</time>
      </trkpt>
      <trkpt lat="39.2956020" lon="-0.7653300">
        <ele>597.0</ele>
        <time>2018-09-16T11:10:41Z</time>
      </trkpt>
      <trkpt lat="39.2956020" lon="-0.7653300">
        <ele>597.0</ele>
        <time>2018-09-16T11:10:42Z</time>
      </trkpt>
      <trkpt lat="39.2954620" lon="-0.7653080">
        <ele>597.0</ele>
        <time>2018-09-16T11:10:43Z</time>
      </trkpt>
      <trkpt lat="39.2954620" lon="-0.7653080">
        <ele>597.0</ele>
        <time>2018-09-16T11:10:44Z</time>
      </trkpt>
      <trkpt lat="39.2953380" lon="-0.7653400">
        <ele>597.0</ele>
        <time>2018-09-16T11:10:45Z</time>
      </trkpt>
      <trkpt lat="39.2952870" lon="-0.7653800">
        <ele>597.0</ele>
        <time>2018-09-16T11:10:46Z</time>
      </trkpt>
      <trkpt lat="39.2952870" lon="-0.7653800">
        <ele>597.0</ele>
        <time>2018-09-16T11:10:47Z</time>
      </trkpt>
      <trkpt lat="39.2951980" lon="-0.7654800">
        <ele>597.0</ele>
        <time>2018-09-16T11:10:48Z</time>
      </trkpt>
      <trkpt lat="39.2951980" lon="-0.7654800">
        <ele>597.0</ele>
        <time>2018-09-16T11:10:49Z</time>
      </trkpt>
      <trkpt lat="39.2951200" lon="-0.7655920">
        <ele>597.0</ele>
        <time>2018-09-16T11:10:50Z</time>
      </trkpt>
      <trkpt lat="39.2951200" lon="-0.7655920">
        <ele>597.0</ele>
        <time>2018-09-16T11:10:51Z</time>
      </trkpt>
      <trkpt lat="39.2950300" lon="-0.7656850">
        <ele>597.0</ele>
        <time>2018-09-16T11:10:52Z</time>
      </trkpt>
      <trkpt lat="39.2950300" lon="-0.7656850">
        <ele>597.0</ele>
        <time>2018-09-16T11:10:53Z</time>
      </trkpt>
      <trkpt lat="39.2949220" lon="-0.7657380">
        <ele>597.0</ele>
        <time>2018-09-16T11:10:54Z</time>
      </trkpt>
      <trkpt lat="39.2948570" lon="-0.7657450">
        <ele>597.0</ele>
        <time>2018-09-16T11:10:55Z</time>
      </trkpt>
      <trkpt lat="39.2948570" lon="-0.7657450">
        <ele>597.0</ele>
        <time>2018-09-16T11:10:56Z</time>
      </trkpt>
      <trkpt lat="39.2947120" lon="-0.7657450">
        <ele>596.0</ele>
        <time>2018-09-16T11:10:57Z</time>
      </trkpt>
      <trkpt lat="39.2946320" lon="-0.7657480">
        <ele>596.0</ele>
        <time>2018-09-16T11:10:58Z</time>
      </trkpt>
      <trkpt lat="39.2946320" lon="-0.7657480">
        <ele>595.0</ele>
        <time>2018-09-16T11:10:59Z</time>
      </trkpt>
      <trkpt lat="39.2944620" lon="-0.7657580">
        <ele>595.0</ele>
        <time>2018-09-16T11:11:00Z</time>
      </trkpt>
      <trkpt lat="39.2943720" lon="-0.7657650">
        <ele>594.0</ele>
        <time>2018-09-16T11:11:01Z</time>
      </trkpt>
      <trkpt lat="39.2943720" lon="-0.7657650">
        <ele>594.0</ele>
        <time>2018-09-16T11:11:02Z</time>
      </trkpt>
      <trkpt lat="39.2941830" lon="-0.7657800">
        <ele>593.0</ele>
        <time>2018-09-16T11:11:03Z</time>
      </trkpt>
      <trkpt lat="39.2940920" lon="-0.7657850">
        <ele>593.0</ele>
        <time>2018-09-16T11:11:04Z</time>
      </trkpt>
      <trkpt lat="39.2940920" lon="-0.7657850">
        <ele>591.0</ele>
        <time>2018-09-16T11:11:05Z</time>
      </trkpt>
      <trkpt lat="39.2939250" lon="-0.7657720">
        <ele>591.0</ele>
        <time>2018-09-16T11:11:06Z</time>
      </trkpt>
      <trkpt lat="39.2939250" lon="-0.7657720">
        <ele>589.0</ele>
        <time>2018-09-16T11:11:07Z</time>
      </trkpt>
      <trkpt lat="39.2937650" lon="-0.7657280">
        <ele>589.0</ele>
        <time>2018-09-16T11:11:08Z</time>
      </trkpt>
      <trkpt lat="39.2937650" lon="-0.7657280">
        <ele>588.0</ele>
        <time>2018-09-16T11:11:09Z</time>
      </trkpt>
      <trkpt lat="39.2936100" lon="-0.7656380">
        <ele>588.0</ele>
        <time>2018-09-16T11:11:10Z</time>
      </trkpt>
      <trkpt lat="39.2936100" lon="-0.7656380">
        <ele>588.0</ele>
        <time>2018-09-16T11:11:11Z</time>
      </trkpt>
      <trkpt lat="39.2934570" lon="-0.7655130">
        <ele>586.0</ele>
        <time>2018-09-16T11:11:12Z</time>
      </trkpt>
      <trkpt lat="39.2933800" lon="-0.7654550">
        <ele>586.0</ele>
        <time>2018-09-16T11:11:13Z</time>
      </trkpt>
      <trkpt lat="39.2933800" lon="-0.7654550">
        <ele>585.0</ele>
        <time>2018-09-16T11:11:14Z</time>
      </trkpt>
      <trkpt lat="39.2932320" lon="-0.7653520">
        <ele>585.0</ele>
        <time>2018-09-16T11:11:15Z</time>
      </trkpt>
      <trkpt lat="39.2931480" lon="-0.7653130">
        <ele>583.0</ele>
        <time>2018-09-16T11:11:16Z</time>
      </trkpt>
      <trkpt lat="39.2931480" lon="-0.7653130">
        <ele>582.0</ele>
        <time>2018-09-16T11:11:17Z</time>
      </trkpt>
      <trkpt lat="39.2929900" lon="-0.7652620">
        <ele>582.0</ele>
        <time>2018-09-16T11:11:18Z</time>
      </trkpt>
      <trkpt lat="39.2929220" lon="-0.7652420">
        <ele>579.0</ele>
        <time>2018-09-16T11:11:19Z</time>
      </trkpt>
      <trkpt lat="39.2929220" lon="-0.7652420">
        <ele>579.0</ele>
        <time>2018-09-16T11:11:20Z</time>
      </trkpt>
      <trkpt lat="39.2928030" lon="-0.7651700">
        <ele>577.0</ele>
        <time>2018-09-16T11:11:21Z</time>
      </trkpt>
      <trkpt lat="39.2927450" lon="-0.7651100">
        <ele>577.0</ele>
        <time>2018-09-16T11:11:22Z</time>
      </trkpt>
      <trkpt lat="39.2927450" lon="-0.7651100">
        <ele>576.0</ele>
        <time>2018-09-16T11:11:23Z</time>
      </trkpt>
      <trkpt lat="39.2926420" lon="-0.7649580">
        <ele>576.0</ele>
        <time>2018-09-16T11:11:24Z</time>
      </trkpt>
      <trkpt lat="39.2926420" lon="-0.7649580">
        <ele>574.0</ele>
        <time>2018-09-16T11:11:25Z</time>
      </trkpt>
      <trkpt lat="39.2925470" lon="-0.7647870">
        <ele>574.0</ele>
        <time>2018-09-16T11:11:26Z</time>
      </trkpt>
      <trkpt lat="39.2925470" lon="-0.7647870">
        <ele>573.0</ele>
        <time>2018-09-16T11:11:27Z</time>
      </trkpt>
      <trkpt lat="39.2924480" lon="-0.7646200">
        <ele>573.0</ele>
        <time>2018-09-16T11:11:28Z</time>
      </trkpt>
      <trkpt lat="39.2924480" lon="-0.7646200">
        <ele>572.0</ele>
        <time>2018-09-16T11:11:29Z</time>
      </trkpt>
      <trkpt lat="39.2923330" lon="-0.7644600">
        <ele>572.0</ele>
        <time>2018-09-16T11:11:30Z</time>
      </trkpt>
      <trkpt lat="39.2922670" lon="-0.7643850">
        <ele>571.0</ele>
        <time>2018-09-16T11:11:31Z</time>
      </trkpt>
      <trkpt lat="39.2922670" lon="-0.7643850">
        <ele>571.0</ele>
        <time>2018-09-16T11:11:32Z</time>
      </trkpt>
      <trkpt lat="39.2921130" lon="-0.7642280">
        <ele>570.0</ele>
        <time>2018-09-16T11:11:33Z</time>
      </trkpt>
      <trkpt lat="39.2920380" lon="-0.7641530">
        <ele>570.0</ele>
        <time>2018-09-16T11:11:34Z</time>
      </trkpt>
      <trkpt lat="39.2920380" lon="-0.7641530">
        <ele>567.0</ele>
        <time>2018-09-16T11:11:35Z</time>
      </trkpt>
      <trkpt lat="39.2919050" lon="-0.7640300">
        <ele>567.0</ele>
        <time>2018-09-16T11:11:36Z</time>
      </trkpt>
      <trkpt lat="39.2918450" lon="-0.7639730">
        <ele>565.0</ele>
        <time>2018-09-16T11:11:37Z</time>
      </trkpt>
      <trkpt lat="39.2918450" lon="-0.7639730">
        <ele>565.0</ele>
        <time>2018-09-16T11:11:38Z</time>
      </trkpt>
      <trkpt lat="39.2917350" lon="-0.7638520">
        <ele>562.0</ele>
        <time>2018-09-16T11:11:39Z</time>
      </trkpt>
      <trkpt lat="39.2917350" lon="-0.7638520">
        <ele>562.0</ele>
        <time>2018-09-16T11:11:40Z</time>
      </trkpt>
      <trkpt lat="39.2916180" lon="-0.7637480">
        <ele>560.0</ele>
        <time>2018-09-16T11:11:41Z</time>
      </trkpt>
      <trkpt lat="39.2916180" lon="-0.7637480">
        <ele>560.0</ele>
        <time>2018-09-16T11:11:42Z</time>
      </trkpt>
      <trkpt lat="39.2914870" lon="-0.7637000">
        <ele>558.0</ele>
        <time>2018-09-16T11:11:43Z</time>
      </trkpt>
      <trkpt lat="39.2914870" lon="-0.7637000">
        <ele>556.0</ele>
        <time>2018-09-16T11:11:44Z</time>
      </trkpt>
      <trkpt lat="39.2913520" lon="-0.7636670">
        <ele>556.0</ele>
        <time>2018-09-16T11:11:45Z</time>
      </trkpt>
      <trkpt lat="39.2913520" lon="-0.7636670">
        <ele>555.0</ele>
        <time>2018-09-16T11:11:46Z</time>
      </trkpt>
      <trkpt lat="39.2912330" lon="-0.7635680">
        <ele>555.0</ele>
        <time>2018-09-16T11:11:47Z</time>
      </trkpt>
      <trkpt lat="39.2912330" lon="-0.7635680">
        <ele>554.0</ele>
        <time>2018-09-16T11:11:48Z</time>
      </trkpt>
      <trkpt lat="39.2911170" lon="-0.7634300">
        <ele>554.0</ele>
        <time>2018-09-16T11:11:49Z</time>
      </trkpt>
      <trkpt lat="39.2911170" lon="-0.7634300">
        <ele>554.0</ele>
        <time>2018-09-16T11:11:50Z</time>
      </trkpt>
      <trkpt lat="39.2909830" lon="-0.7632830">
        <ele>554.0</ele>
        <time>2018-09-16T11:11:51Z</time>
      </trkpt>
      <trkpt lat="39.2909830" lon="-0.7632830">
        <ele>553.0</ele>
        <time>2018-09-16T11:11:52Z</time>
      </trkpt>
      <trkpt lat="39.2908480" lon="-0.7631330">
        <ele>553.0</ele>
        <time>2018-09-16T11:11:53Z</time>
      </trkpt>
      <trkpt lat="39.2908480" lon="-0.7631330">
        <ele>552.0</ele>
        <time>2018-09-16T11:11:54Z</time>
      </trkpt>
      <trkpt lat="39.2906900" lon="-0.7630370">
        <ele>552.0</ele>
        <time>2018-09-16T11:11:55Z</time>
      </trkpt>
      <trkpt lat="39.2906900" lon="-0.7630370">
        <ele>551.0</ele>
        <time>2018-09-16T11:11:56Z</time>
      </trkpt>
      <trkpt lat="39.2905250" lon="-0.7629670">
        <ele>551.0</ele>
        <time>2018-09-16T11:11:57Z</time>
      </trkpt>
      <trkpt lat="39.2904450" lon="-0.7629170">
        <ele>551.0</ele>
        <time>2018-09-16T11:11:58Z</time>
      </trkpt>
      <trkpt lat="39.2904450" lon="-0.7629170">
        <ele>551.0</ele>
        <time>2018-09-16T11:11:59Z</time>
      </trkpt>
      <trkpt lat="39.2902900" lon="-0.7628000">
        <ele>550.0</ele>
        <time>2018-09-16T11:12:00Z</time>
      </trkpt>
      <trkpt lat="39.2902130" lon="-0.7627400">
        <ele>550.0</ele>
        <time>2018-09-16T11:12:01Z</time>
      </trkpt>
      <trkpt lat="39.2902130" lon="-0.7627400">
        <ele>550.0</ele>
        <time>2018-09-16T11:12:02Z</time>
      </trkpt>
      <trkpt lat="39.2900550" lon="-0.7626420">
        <ele>550.0</ele>
        <time>2018-09-16T11:12:03Z</time>
      </trkpt>
      <trkpt lat="39.2900550" lon="-0.7626420">
        <ele>549.0</ele>
        <time>2018-09-16T11:12:04Z</time>
      </trkpt>
      <trkpt lat="39.2899030" lon="-0.7625570">
        <ele>549.0</ele>
        <time>2018-09-16T11:12:05Z</time>
      </trkpt>
      <trkpt lat="39.2899030" lon="-0.7625570">
        <ele>549.0</ele>
        <time>2018-09-16T11:12:06Z</time>
      </trkpt>
      <trkpt lat="39.2897730" lon="-0.7624700">
        <ele>549.0</ele>
        <time>2018-09-16T11:12:07Z</time>
      </trkpt>
      <trkpt lat="39.2897730" lon="-0.7624700">
        <ele>549.0</ele>
        <time>2018-09-16T11:12:08Z</time>
      </trkpt>
      <trkpt lat="39.2896820" lon="-0.7623520">
        <ele>549.0</ele>
        <time>2018-09-16T11:12:09Z</time>
      </trkpt>
      <trkpt lat="39.2896820" lon="-0.7623520">
        <ele>549.0</ele>
        <time>2018-09-16T11:12:10Z</time>
      </trkpt>
      <trkpt lat="39.2896150" lon="-0.7622300">
        <ele>549.0</ele>
        <time>2018-09-16T11:12:11Z</time>
      </trkpt>
      <trkpt lat="39.2895900" lon="-0.7621680">
        <ele>549.0</ele>
        <time>2018-09-16T11:12:12Z</time>
      </trkpt>
      <trkpt lat="39.2895700" lon="-0.7621080">
        <ele>549.0</ele>
        <time>2018-09-16T11:12:13Z</time>
      </trkpt>
      <trkpt lat="39.2895700" lon="-0.7621080">
        <ele>549.0</ele>
        <time>2018-09-16T11:12:14Z</time>
      </trkpt>
      <trkpt lat="39.2895400" lon="-0.7619930">
        <ele>549.0</ele>
        <time>2018-09-16T11:12:15Z</time>
      </trkpt>
      <trkpt lat="39.2895400" lon="-0.7619930">
        <ele>549.0</ele>
        <time>2018-09-16T11:12:16Z</time>
      </trkpt>
      <trkpt lat="39.2895100" lon="-0.7618770">
        <ele>548.0</ele>
        <time>2018-09-16T11:12:17Z</time>
      </trkpt>
      <trkpt lat="39.2894970" lon="-0.7618180">
        <ele>548.0</ele>
        <time>2018-09-16T11:12:18Z</time>
      </trkpt>
      <trkpt lat="39.2894820" lon="-0.7617580">
        <ele>548.0</ele>
        <time>2018-09-16T11:12:19Z</time>
      </trkpt>
      <trkpt lat="39.2894820" lon="-0.7617580">
        <ele>548.0</ele>
        <time>2018-09-16T11:12:20Z</time>
      </trkpt>
      <trkpt lat="39.2894550" lon="-0.7616280">
        <ele>548.0</ele>
        <time>2018-09-16T11:12:21Z</time>
      </trkpt>
      <trkpt lat="39.2894450" lon="-0.7615620">
        <ele>548.0</ele>
        <time>2018-09-16T11:12:22Z</time>
      </trkpt>
      <trkpt lat="39.2894450" lon="-0.7615620">
        <ele>548.0</ele>
        <time>2018-09-16T11:12:23Z</time>
      </trkpt>
      <trkpt lat="39.2894320" lon="-0.7614220">
        <ele>548.0</ele>
        <time>2018-09-16T11:12:24Z</time>
      </trkpt>
      <trkpt lat="39.2894250" lon="-0.7613480">
        <ele>548.0</ele>
        <time>2018-09-16T11:12:25Z</time>
      </trkpt>
      <trkpt lat="39.2894250" lon="-0.7613480">
        <ele>548.0</ele>
        <time>2018-09-16T11:12:26Z</time>
      </trkpt>
      <trkpt lat="39.2894020" lon="-0.7611950">
        <ele>547.0</ele>
        <time>2018-09-16T11:12:27Z</time>
      </trkpt>
      <trkpt lat="39.2894020" lon="-0.7611950">
        <ele>547.0</ele>
        <time>2018-09-16T11:12:28Z</time>
      </trkpt>
      <trkpt lat="39.2893720" lon="-0.7610430">
        <ele>547.0</ele>
        <time>2018-09-16T11:12:29Z</time>
      </trkpt>
      <trkpt lat="39.2893720" lon="-0.7610430">
        <ele>547.0</ele>
        <time>2018-09-16T11:12:30Z</time>
      </trkpt>
      <trkpt lat="39.2893670" lon="-0.7608820">
        <ele>546.0</ele>
        <time>2018-09-16T11:12:31Z</time>
      </trkpt>
      <trkpt lat="39.2893670" lon="-0.7608820">
        <ele>546.0</ele>
        <time>2018-09-16T11:12:32Z</time>
      </trkpt>
      <trkpt lat="39.2893820" lon="-0.7607150">
        <ele>546.0</ele>
        <time>2018-09-16T11:12:33Z</time>
      </trkpt>
      <trkpt lat="39.2893830" lon="-0.7606380">
        <ele>546.0</ele>
        <time>2018-09-16T11:12:34Z</time>
      </trkpt>
      <trkpt lat="39.2893830" lon="-0.7606380">
        <ele>545.0</ele>
        <time>2018-09-16T11:12:35Z</time>
      </trkpt>
      <trkpt lat="39.2893570" lon="-0.7604950">
        <ele>544.0</ele>
        <time>2018-09-16T11:12:36Z</time>
      </trkpt>
      <trkpt lat="39.2893280" lon="-0.7604300">
        <ele>544.0</ele>
        <time>2018-09-16T11:12:37Z</time>
      </trkpt>
      <trkpt lat="39.2893280" lon="-0.7604300">
        <ele>543.0</ele>
        <time>2018-09-16T11:12:38Z</time>
      </trkpt>
      <trkpt lat="39.2892750" lon="-0.7603230">
        <ele>543.0</ele>
        <time>2018-09-16T11:12:39Z</time>
      </trkpt>
      <trkpt lat="39.2892750" lon="-0.7603230">
        <ele>542.0</ele>
        <time>2018-09-16T11:12:40Z</time>
      </trkpt>
      <trkpt lat="39.2892250" lon="-0.7602600">
        <ele>542.0</ele>
        <time>2018-09-16T11:12:41Z</time>
      </trkpt>
      <trkpt lat="39.2892250" lon="-0.7602600">
        <ele>541.0</ele>
        <time>2018-09-16T11:12:42Z</time>
      </trkpt>
      <trkpt lat="39.2891780" lon="-0.7602270">
        <ele>541.0</ele>
        <time>2018-09-16T11:12:43Z</time>
      </trkpt>
      <trkpt lat="39.2891780" lon="-0.7602270">
        <ele>540.0</ele>
        <time>2018-09-16T11:12:44Z</time>
      </trkpt>
      <trkpt lat="39.2891420" lon="-0.7602320">
        <ele>540.0</ele>
        <time>2018-09-16T11:12:45Z</time>
      </trkpt>
      <trkpt lat="39.2891420" lon="-0.7602320">
        <ele>539.0</ele>
        <time>2018-09-16T11:12:46Z</time>
      </trkpt>
      <trkpt lat="39.2891280" lon="-0.7602370">
        <ele>539.0</ele>
        <time>2018-09-16T11:12:47Z</time>
      </trkpt>
      <trkpt lat="39.2891280" lon="-0.7602370">
        <ele>539.0</ele>
        <time>2018-09-16T11:12:48Z</time>
      </trkpt>
      <trkpt lat="39.2891250" lon="-0.7602400">
        <ele>539.0</ele>
        <time>2018-09-16T11:12:49Z</time>
      </trkpt>
      <trkpt lat="39.2891250" lon="-0.7602400">
        <ele>538.0</ele>
        <time>2018-09-16T11:12:50Z</time>
      </trkpt>
      <trkpt lat="39.2891250" lon="-0.7602380">
        <ele>538.0</ele>
        <time>2018-09-16T11:12:51Z</time>
      </trkpt>
      <trkpt lat="39.2891250" lon="-0.7602380">
        <ele>538.0</ele>
        <time>2018-09-16T11:12:52Z</time>
      </trkpt>
      <trkpt lat="39.2891250" lon="-0.7602380">
        <ele>538.0</ele>
        <time>2018-09-16T11:12:53Z</time>
      </trkpt>
      <trkpt lat="39.2891250" lon="-0.7602380">
        <ele>538.0</ele>
        <time>2018-09-16T11:12:54Z</time>
      </trkpt>
      <trkpt lat="39.2891250" lon="-0.7602380">
        <ele>538.0</ele>
        <time>2018-09-16T11:12:55Z</time>
      </trkpt>
      <trkpt lat="39.2891250" lon="-0.7602380">
        <ele>538.0</ele>
        <time>2018-09-16T11:12:56Z</time>
      </trkpt>
      <trkpt lat="39.2891250" lon="-0.7602380">
        <ele>538.0</ele>
        <time>2018-09-16T11:12:57Z</time>
      </trkpt>
      <trkpt lat="39.2891250" lon="-0.7602380">
        <ele>538.0</ele>
        <time>2018-09-16T11:14:38Z</time>
      </trkpt>
      <trkpt lat="39.2891070" lon="-0.7602600">
        <ele>537.0</ele>
        <time>2018-09-16T11:14:39Z</time>
      </trkpt>
      <trkpt lat="39.2891070" lon="-0.7602600">
        <ele>537.0</ele>
        <time>2018-09-16T11:14:40Z</time>
      </trkpt>
      <trkpt lat="39.2891070" lon="-0.7602600">
        <ele>534.0</ele>
        <time>2018-09-16T11:14:41Z</time>
      </trkpt>
      <trkpt lat="39.2891070" lon="-0.7602600">
        <ele>534.0</ele>
        <time>2018-09-16T11:14:42Z</time>
      </trkpt>
      <trkpt lat="39.2890820" lon="-0.7602980">
        <ele>536.0</ele>
        <time>2018-09-16T11:14:43Z</time>
      </trkpt>
      <trkpt lat="39.2890610" lon="-0.7603250">
        <ele>536.0</ele>
        <time>2018-09-16T11:14:44Z</time>
      </trkpt>
      <trkpt lat="39.2890400" lon="-0.7603520">
        <ele>537.0</ele>
        <time>2018-09-16T11:14:45Z</time>
      </trkpt>
      <trkpt lat="39.2890400" lon="-0.7603520">
        <ele>537.0</ele>
        <time>2018-09-16T11:14:46Z</time>
      </trkpt>
      <trkpt lat="39.2890020" lon="-0.7604300">
        <ele>537.0</ele>
        <time>2018-09-16T11:14:47Z</time>
      </trkpt>
      <trkpt lat="39.2889850" lon="-0.7604770">
        <ele>537.0</ele>
        <time>2018-09-16T11:14:48Z</time>
      </trkpt>
      <trkpt lat="39.2889850" lon="-0.7604770">
        <ele>537.0</ele>
        <time>2018-09-16T11:14:49Z</time>
      </trkpt>
      <trkpt lat="39.2889550" lon="-0.7605900">
        <ele>537.0</ele>
        <time>2018-09-16T11:14:50Z</time>
      </trkpt>
      <trkpt lat="39.2889350" lon="-0.7606500">
        <ele>537.0</ele>
        <time>2018-09-16T11:14:51Z</time>
      </trkpt>
      <trkpt lat="39.2889030" lon="-0.7607100">
        <ele>537.0</ele>
        <time>2018-09-16T11:14:52Z</time>
      </trkpt>
      <trkpt lat="39.2889030" lon="-0.7607100">
        <ele>537.0</ele>
        <time>2018-09-16T11:14:53Z</time>
      </trkpt>
      <trkpt lat="39.2888250" lon="-0.7607950">
        <ele>536.0</ele>
        <time>2018-09-16T11:14:54Z</time>
      </trkpt>
      <trkpt lat="39.2887770" lon="-0.7608170">
        <ele>536.0</ele>
        <time>2018-09-16T11:14:55Z</time>
      </trkpt>
      <trkpt lat="39.2887770" lon="-0.7608170">
        <ele>536.0</ele>
        <time>2018-09-16T11:14:56Z</time>
      </trkpt>
      <trkpt lat="39.2886780" lon="-0.7608280">
        <ele>536.0</ele>
        <time>2018-09-16T11:14:57Z</time>
      </trkpt>
      <trkpt lat="39.2886780" lon="-0.7608280">
        <ele>536.0</ele>
        <time>2018-09-16T11:14:58Z</time>
      </trkpt>
      <trkpt lat="39.2885820" lon="-0.7608230">
        <ele>536.0</ele>
        <time>2018-09-16T11:14:59Z</time>
      </trkpt>
      <trkpt lat="39.2885820" lon="-0.7608230">
        <ele>536.0</ele>
        <time>2018-09-16T11:15:00Z</time>
      </trkpt>
      <trkpt lat="39.2884950" lon="-0.7607870">
        <ele>536.0</ele>
        <time>2018-09-16T11:15:01Z</time>
      </trkpt>
      <trkpt lat="39.2884950" lon="-0.7607870">
        <ele>535.0</ele>
        <time>2018-09-16T11:15:02Z</time>
      </trkpt>
      <trkpt lat="39.2883950" lon="-0.7607380">
        <ele>535.0</ele>
        <time>2018-09-16T11:15:03Z</time>
      </trkpt>
      <trkpt lat="39.2883380" lon="-0.7607220">
        <ele>535.0</ele>
        <time>2018-09-16T11:15:04Z</time>
      </trkpt>
      <trkpt lat="39.2883380" lon="-0.7607220">
        <ele>535.0</ele>
        <time>2018-09-16T11:15:05Z</time>
      </trkpt>
      <trkpt lat="39.2882270" lon="-0.7606950">
        <ele>533.0</ele>
        <time>2018-09-16T11:15:06Z</time>
      </trkpt>
      <trkpt lat="39.2881750" lon="-0.7606900">
        <ele>533.0</ele>
        <time>2018-09-16T11:15:07Z</time>
      </trkpt>
      <trkpt lat="39.2881750" lon="-0.7606900">
        <ele>532.0</ele>
        <time>2018-09-16T11:15:08Z</time>
      </trkpt>
      <trkpt lat="39.2880830" lon="-0.7606820">
        <ele>532.0</ele>
        <time>2018-09-16T11:15:09Z</time>
      </trkpt>
      <trkpt lat="39.2880830" lon="-0.7606820">
        <ele>530.0</ele>
        <time>2018-09-16T11:15:10Z</time>
      </trkpt>
      <trkpt lat="39.2880050" lon="-0.7606850">
        <ele>530.0</ele>
        <time>2018-09-16T11:15:11Z</time>
      </trkpt>
      <trkpt lat="39.2880050" lon="-0.7606850">
        <ele>530.0</ele>
        <time>2018-09-16T11:15:12Z</time>
      </trkpt>
      <trkpt lat="39.2879380" lon="-0.7606870">
        <ele>530.0</ele>
        <time>2018-09-16T11:15:13Z</time>
      </trkpt>
      <trkpt lat="39.2879150" lon="-0.7606880">
        <ele>529.0</ele>
        <time>2018-09-16T11:15:14Z</time>
      </trkpt>
      <trkpt lat="39.2879150" lon="-0.7606880">
        <ele>529.0</ele>
        <time>2018-09-16T11:15:15Z</time>
      </trkpt>
      <trkpt lat="39.2878970" lon="-0.7606830">
        <ele>528.0</ele>
        <time>2018-09-16T11:15:16Z</time>
      </trkpt>
      <trkpt lat="39.2878930" lon="-0.7606830">
        <ele>528.0</ele>
        <time>2018-09-16T11:15:17Z</time>
      </trkpt>
      <trkpt lat="39.2878880" lon="-0.7606820">
        <ele>528.0</ele>
        <time>2018-09-16T11:15:18Z</time>
      </trkpt>
      <trkpt lat="39.2878840" lon="-0.7606820">
        <ele>528.0</ele>
        <time>2018-09-16T11:15:19Z</time>
      </trkpt>
      <trkpt lat="39.2878790" lon="-0.7606810">
        <ele>527.0</ele>
        <time>2018-09-16T11:15:20Z</time>
      </trkpt>
      <trkpt lat="39.2878750" lon="-0.7606810">
        <ele>527.0</ele>
        <time>2018-09-16T11:15:21Z</time>
      </trkpt>
      <trkpt lat="39.2878710" lon="-0.7606810">
        <ele>527.0</ele>
        <time>2018-09-16T11:15:22Z</time>
      </trkpt>
      <trkpt lat="39.2878660" lon="-0.7606800">
        <ele>527.0</ele>
        <time>2018-09-16T11:15:23Z</time>
      </trkpt>
      <trkpt lat="39.2878620" lon="-0.7606800">
        <ele>527.0</ele>
        <time>2018-09-16T11:15:24Z</time>
      </trkpt>
      <trkpt lat="39.2878580" lon="-0.7606800">
        <ele>527.0</ele>
        <time>2018-09-16T11:15:25Z</time>
      </trkpt>
      <trkpt lat="39.2878530" lon="-0.7606790">
        <ele>527.0</ele>
        <time>2018-09-16T11:15:26Z</time>
      </trkpt>
      <trkpt lat="39.2878490" lon="-0.7606790">
        <ele>527.0</ele>
        <time>2018-09-16T11:15:27Z</time>
      </trkpt>
      <trkpt lat="39.2878440" lon="-0.7606780">
        <ele>527.0</ele>
        <time>2018-09-16T11:15:28Z</time>
      </trkpt>
      <trkpt lat="39.2878400" lon="-0.7606780">
        <ele>527.0</ele>
        <time>2018-09-16T11:15:29Z</time>
      </trkpt>
      <trkpt lat="39.2878360" lon="-0.7606780">
        <ele>527.0</ele>
        <time>2018-09-16T11:15:30Z</time>
      </trkpt>
      <trkpt lat="39.2878310" lon="-0.7606770">
        <ele>527.0</ele>
        <time>2018-09-16T11:15:31Z</time>
      </trkpt>
      <trkpt lat="39.2878270" lon="-0.7606770">
        <ele>527.0</ele>
        <time>2018-09-16T11:15:32Z</time>
      </trkpt>
      <trkpt lat="39.2878230" lon="-0.7606770">
        <ele>527.0</ele>
        <time>2018-09-16T11:15:33Z</time>
      </trkpt>
      <trkpt lat="39.2878180" lon="-0.7606760">
        <ele>527.0</ele>
        <time>2018-09-16T11:15:34Z</time>
      </trkpt>
      <trkpt lat="39.2878140" lon="-0.7606760">
        <ele>527.0</ele>
        <time>2018-09-16T11:15:35Z</time>
      </trkpt>
      <trkpt lat="39.2878090" lon="-0.7606750">
        <ele>527.0</ele>
        <time>2018-09-16T11:16:28Z</time>
      </trkpt>
      <trkpt lat="39.2878050" lon="-0.7606750">
        <ele>526.0</ele>
        <time>2018-09-16T11:16:29Z</time>
      </trkpt>
      <trkpt lat="39.2877270" lon="-0.7606680">
        <ele>526.0</ele>
        <time>2018-09-16T11:16:30Z</time>
      </trkpt>
      <trkpt lat="39.2877270" lon="-0.7606680">
        <ele>526.0</ele>
        <time>2018-09-16T11:16:31Z</time>
      </trkpt>
      <trkpt lat="39.2877270" lon="-0.7606680">
        <ele>526.0</ele>
        <time>2018-09-16T11:16:32Z</time>
      </trkpt>
      <trkpt lat="39.2877080" lon="-0.7606370">
        <ele>526.0</ele>
        <time>2018-09-16T11:16:33Z</time>
      </trkpt>
      <trkpt lat="39.2876980" lon="-0.7606070">
        <ele>526.0</ele>
        <time>2018-09-16T11:16:34Z</time>
      </trkpt>
      <trkpt lat="39.2876880" lon="-0.7605780">
        <ele>526.0</ele>
        <time>2018-09-16T11:16:35Z</time>
      </trkpt>
      <trkpt lat="39.2876880" lon="-0.7605780">
        <ele>526.0</ele>
        <time>2018-09-16T11:16:36Z</time>
      </trkpt>
      <trkpt lat="39.2876930" lon="-0.7605050">
        <ele>526.0</ele>
        <time>2018-09-16T11:16:37Z</time>
      </trkpt>
      <trkpt lat="39.2876950" lon="-0.7604670">
        <ele>526.0</ele>
        <time>2018-09-16T11:16:38Z</time>
      </trkpt>
      <trkpt lat="39.2876950" lon="-0.7604670">
        <ele>526.0</ele>
        <time>2018-09-16T11:16:39Z</time>
      </trkpt>
      <trkpt lat="39.2876970" lon="-0.7603930">
        <ele>526.0</ele>
        <time>2018-09-16T11:16:40Z</time>
      </trkpt>
      <trkpt lat="39.2876980" lon="-0.7603530">
        <ele>526.0</ele>
        <time>2018-09-16T11:16:41Z</time>
      </trkpt>
      <trkpt lat="39.2876980" lon="-0.7603530">
        <ele>526.0</ele>
        <time>2018-09-16T11:16:42Z</time>
      </trkpt>
      <trkpt lat="39.2876970" lon="-0.7602780">
        <ele>526.0</ele>
        <time>2018-09-16T11:16:43Z</time>
      </trkpt>
      <trkpt lat="39.2876970" lon="-0.7602780">
        <ele>527.0</ele>
        <time>2018-09-16T11:16:44Z</time>
      </trkpt>
      <trkpt lat="39.2876970" lon="-0.7602000">
        <ele>527.0</ele>
        <time>2018-09-16T11:16:45Z</time>
      </trkpt>
      <trkpt lat="39.2876970" lon="-0.7602000">
        <ele>527.0</ele>
        <time>2018-09-16T11:16:46Z</time>
      </trkpt>
      <trkpt lat="39.2876970" lon="-0.7601220">
        <ele>527.0</ele>
        <time>2018-09-16T11:16:47Z</time>
      </trkpt>
      <trkpt lat="39.2876970" lon="-0.7601220">
        <ele>528.0</ele>
        <time>2018-09-16T11:16:48Z</time>
      </trkpt>
      <trkpt lat="39.2876920" lon="-0.7600280">
        <ele>528.0</ele>
        <time>2018-09-16T11:16:49Z</time>
      </trkpt>
      <trkpt lat="39.2876920" lon="-0.7600280">
        <ele>528.0</ele>
        <time>2018-09-16T11:16:50Z</time>
      </trkpt>
      <trkpt lat="39.2876850" lon="-0.7599350">
        <ele>528.0</ele>
        <time>2018-09-16T11:16:51Z</time>
      </trkpt>
      <trkpt lat="39.2876850" lon="-0.7599350">
        <ele>528.0</ele>
        <time>2018-09-16T11:16:52Z</time>
      </trkpt>
      <trkpt lat="39.2876750" lon="-0.7598500">
        <ele>528.0</ele>
        <time>2018-09-16T11:16:53Z</time>
      </trkpt>
      <trkpt lat="39.2876730" lon="-0.7598100">
        <ele>528.0</ele>
        <time>2018-09-16T11:16:54Z</time>
      </trkpt>
      <trkpt lat="39.2876720" lon="-0.7597670">
        <ele>528.0</ele>
        <time>2018-09-16T11:16:55Z</time>
      </trkpt>
      <trkpt lat="39.2876720" lon="-0.7597670">
        <ele>528.0</ele>
        <time>2018-09-16T11:16:56Z</time>
      </trkpt>
      <trkpt lat="39.2876700" lon="-0.7596730">
        <ele>528.0</ele>
        <time>2018-09-16T11:16:57Z</time>
      </trkpt>
      <trkpt lat="39.2876700" lon="-0.7596230">
        <ele>528.0</ele>
        <time>2018-09-16T11:16:58Z</time>
      </trkpt>
      <trkpt lat="39.2876700" lon="-0.7596230">
        <ele>528.0</ele>
        <time>2018-09-16T11:16:59Z</time>
      </trkpt>
      <trkpt lat="39.2876700" lon="-0.7595200">
        <ele>528.0</ele>
        <time>2018-09-16T11:17:00Z</time>
      </trkpt>
      <trkpt lat="39.2876700" lon="-0.7594700">
        <ele>528.0</ele>
        <time>2018-09-16T11:17:01Z</time>
      </trkpt>
      <trkpt lat="39.2876700" lon="-0.7594700">
        <ele>528.0</ele>
        <time>2018-09-16T11:17:02Z</time>
      </trkpt>
      <trkpt lat="39.2876680" lon="-0.7593700">
        <ele>528.0</ele>
        <time>2018-09-16T11:17:03Z</time>
      </trkpt>
      <trkpt lat="39.2876650" lon="-0.7593220">
        <ele>528.0</ele>
        <time>2018-09-16T11:17:04Z</time>
      </trkpt>
      <trkpt lat="39.2876650" lon="-0.7593220">
        <ele>528.0</ele>
        <time>2018-09-16T11:17:05Z</time>
      </trkpt>
      <trkpt lat="39.2876620" lon="-0.7592370">
        <ele>528.0</ele>
        <time>2018-09-16T11:17:06Z</time>
      </trkpt>
      <trkpt lat="39.2876600" lon="-0.7592020">
        <ele>528.0</ele>
        <time>2018-09-16T11:17:07Z</time>
      </trkpt>
      <trkpt lat="39.2876600" lon="-0.7592020">
        <ele>528.0</ele>
        <time>2018-09-16T11:17:08Z</time>
      </trkpt>
      <trkpt lat="39.2876530" lon="-0.7591480">
        <ele>527.0</ele>
        <time>2018-09-16T11:17:09Z</time>
      </trkpt>
      <trkpt lat="39.2876530" lon="-0.7591480">
        <ele>527.0</ele>
        <time>2018-09-16T11:17:10Z</time>
      </trkpt>
      <trkpt lat="39.2876520" lon="-0.7591400">
        <ele>527.0</ele>
        <time>2018-09-16T11:17:11Z</time>
      </trkpt>
      <trkpt lat="39.2876520" lon="-0.7591420">
        <ele>527.0</ele>
        <time>2018-09-16T11:17:12Z</time>
      </trkpt>
      <trkpt lat="39.2876520" lon="-0.7591420">
        <ele>527.0</ele>
        <time>2018-09-16T11:17:13Z</time>
      </trkpt>
      <trkpt lat="39.2876520" lon="-0.7591420">
        <ele>527.0</ele>
        <time>2018-09-16T11:17:14Z</time>
      </trkpt>
      <trkpt lat="39.2876520" lon="-0.7591420">
        <ele>527.0</ele>
        <time>2018-09-16T11:17:15Z</time>
      </trkpt>
      <trkpt lat="39.2876520" lon="-0.7591420">
        <ele>527.0</ele>
        <time>2018-09-16T11:17:16Z</time>
      </trkpt>
      <trkpt lat="39.2876520" lon="-0.7591420">
        <ele>527.0</ele>
        <time>2018-09-16T11:17:17Z</time>
      </trkpt>
      <trkpt lat="39.2876520" lon="-0.7591420">
        <ele>527.0</ele>
        <time>2018-09-16T11:17:18Z</time>
      </trkpt>
      <trkpt lat="39.2876520" lon="-0.7591420">
        <ele>527.0</ele>
        <time>2018-09-16T11:17:19Z</time>
      </trkpt>
      <trkpt lat="39.2876520" lon="-0.7591420">
        <ele>527.0</ele>
        <time>2018-09-16T11:17:20Z</time>
      </trkpt>
      <trkpt lat="39.2876520" lon="-0.7591420">
        <ele>527.0</ele>
        <time>2018-09-16T11:17:21Z</time>
      </trkpt>
      <trkpt lat="39.2876520" lon="-0.7591420">
        <ele>527.0</ele>
        <time>2018-09-16T11:17:22Z</time>
      </trkpt>
      <trkpt lat="39.2876520" lon="-0.7591420">
        <ele>527.0</ele>
        <time>2018-09-16T11:17:23Z</time>
      </trkpt>
      <trkpt lat="39.2876520" lon="-0.7591420">
        <ele>527.0</ele>
        <time>2018-09-16T11:17:24Z</time>
      </trkpt>
      <trkpt lat="39.2876520" lon="-0.7591420">
        <ele>527.0</ele>
        <time>2018-09-16T11:17:25Z</time>
      </trkpt>
      <trkpt lat="39.2876520" lon="-0.7591420">
        <ele>527.0</ele>
        <time>2018-09-16T11:17:26Z</time>
      </trkpt>
      <trkpt lat="39.2876520" lon="-0.7591420">
        <ele>527.0</ele>
        <time>2018-09-16T11:17:27Z</time>
      </trkpt>
      <trkpt lat="39.2876520" lon="-0.7591420">
        <ele>527.0</ele>
        <time>2018-09-16T11:17:28Z</time>
      </trkpt>
      <trkpt lat="39.2876520" lon="-0.7591420">
        <ele>526.0</ele>
        <time>2018-09-16T11:17:29Z</time>
      </trkpt>
      <trkpt lat="39.2876520" lon="-0.7591420">
        <ele>526.0</ele>
        <time>2018-09-16T11:17:30Z</time>
      </trkpt>
      <trkpt lat="39.2876520" lon="-0.7591420">
        <ele>526.0</ele>
        <time>2018-09-16T11:17:31Z</time>
      </trkpt>
      <trkpt lat="39.2876520" lon="-0.7591420">
        <ele>526.0</ele>
        <time>2018-09-16T11:17:32Z</time>
      </trkpt>
      <trkpt lat="39.2876520" lon="-0.7591420">
        <ele>526.0</ele>
        <time>2018-09-16T11:17:33Z</time>
      </trkpt>
      <trkpt lat="39.2876520" lon="-0.7591420">
        <ele>526.0</ele>
        <time>2018-09-16T11:17:34Z</time>
      </trkpt>
      <trkpt lat="39.2876520" lon="-0.7591420">
        <ele>526.0</ele>
        <time>2018-09-16T11:17:35Z</time>
      </trkpt>
      <trkpt lat="39.2876520" lon="-0.7591420">
        <ele>526.0</ele>
        <time>2018-09-16T11:17:36Z</time>
      </trkpt>
      <trkpt lat="39.2876520" lon="-0.7591420">
        <ele>526.0</ele>
        <time>2018-09-16T11:17:37Z</time>
      </trkpt>
      <trkpt lat="39.2876520" lon="-0.7591420">
        <ele>526.0</ele>
        <time>2018-09-16T11:17:38Z</time>
      </trkpt>
      <trkpt lat="39.2876630" lon="-0.7591170">
        <ele>526.0</ele>
        <time>2018-09-16T11:17:39Z</time>
      </trkpt>
      <trkpt lat="39.2876630" lon="-0.7590910">
        <ele>526.0</ele>
        <time>2018-09-16T11:17:40Z</time>
      </trkpt>
      <trkpt lat="39.2876620" lon="-0.7590650">
        <ele>526.0</ele>
        <time>2018-09-16T11:17:41Z</time>
      </trkpt>
      <trkpt lat="39.2876620" lon="-0.7590650">
        <ele>526.0</ele>
        <time>2018-09-16T11:17:42Z</time>
      </trkpt>
      <trkpt lat="39.2876650" lon="-0.7590050">
        <ele>526.0</ele>
        <time>2018-09-16T11:17:43Z</time>
      </trkpt>
      <trkpt lat="39.2876650" lon="-0.7590050">
        <ele>526.0</ele>
        <time>2018-09-16T11:17:44Z</time>
      </trkpt>
      <trkpt lat="39.2876630" lon="-0.7589330">
        <ele>526.0</ele>
        <time>2018-09-16T11:17:45Z</time>
      </trkpt>
      <trkpt lat="39.2876630" lon="-0.7589330">
        <ele>526.0</ele>
        <time>2018-09-16T11:17:46Z</time>
      </trkpt>
      <trkpt lat="39.2876580" lon="-0.7588600">
        <ele>526.0</ele>
        <time>2018-09-16T11:17:47Z</time>
      </trkpt>
      <trkpt lat="39.2876570" lon="-0.7588220">
        <ele>526.0</ele>
        <time>2018-09-16T11:17:48Z</time>
      </trkpt>
      <trkpt lat="39.2876550" lon="-0.7587830">
        <ele>526.0</ele>
        <time>2018-09-16T11:17:49Z</time>
      </trkpt>
      <trkpt lat="39.2876550" lon="-0.7587830">
        <ele>526.0</ele>
        <time>2018-09-16T11:17:50Z</time>
      </trkpt>
      <trkpt lat="39.2876520" lon="-0.7587070">
        <ele>526.0</ele>
        <time>2018-09-16T11:17:51Z</time>
      </trkpt>
      <trkpt lat="39.2876530" lon="-0.7586680">
        <ele>526.0</ele>
        <time>2018-09-16T11:17:52Z</time>
      </trkpt>
      <trkpt lat="39.2876530" lon="-0.7586680">
        <ele>526.0</ele>
        <time>2018-09-16T11:17:53Z</time>
      </trkpt>
      <trkpt lat="39.2876530" lon="-0.7585850">
        <ele>526.0</ele>
        <time>2018-09-16T11:17:54Z</time>
      </trkpt>
      <trkpt lat="39.2876520" lon="-0.7585380">
        <ele>526.0</ele>
        <time>2018-09-16T11:17:55Z</time>
      </trkpt>
      <trkpt lat="39.2876520" lon="-0.7585380">
        <ele>526.0</ele>
        <time>2018-09-16T11:17:56Z</time>
      </trkpt>
      <trkpt lat="39.2876450" lon="-0.7584430">
        <ele>526.0</ele>
        <time>2018-09-16T11:17:57Z</time>
      </trkpt>
      <trkpt lat="39.2876450" lon="-0.7584430">
        <ele>526.0</ele>
        <time>2018-09-16T11:17:58Z</time>
      </trkpt>
      <trkpt lat="39.2876430" lon="-0.7583470">
        <ele>526.0</ele>
        <time>2018-09-16T11:17:59Z</time>
      </trkpt>
      <trkpt lat="39.2876430" lon="-0.7583470">
        <ele>526.0</ele>
        <time>2018-09-16T11:18:00Z</time>
      </trkpt>
      <trkpt lat="39.2876420" lon="-0.7582430">
        <ele>526.0</ele>
        <time>2018-09-16T11:18:01Z</time>
      </trkpt>
      <trkpt lat="39.2876420" lon="-0.7582430">
        <ele>526.0</ele>
        <time>2018-09-16T11:18:02Z</time>
      </trkpt>
      <trkpt lat="39.2876370" lon="-0.7581350">
        <ele>526.0</ele>
        <time>2018-09-16T11:18:03Z</time>
      </trkpt>
      <trkpt lat="39.2876330" lon="-0.7580780">
        <ele>526.0</ele>
        <time>2018-09-16T11:18:04Z</time>
      </trkpt>
      <trkpt lat="39.2876300" lon="-0.7580230">
        <ele>527.0</ele>
        <time>2018-09-16T11:18:05Z</time>
      </trkpt>
      <trkpt lat="39.2876300" lon="-0.7580230">
        <ele>527.0</ele>
        <time>2018-09-16T11:18:06Z</time>
      </trkpt>
      <trkpt lat="39.2876270" lon="-0.7579120">
        <ele>527.0</ele>
        <time>2018-09-16T11:18:07Z</time>
      </trkpt>
      <trkpt lat="39.2876270" lon="-0.7579120">
        <ele>527.0</ele>
        <time>2018-09-16T11:18:08Z</time>
      </trkpt>
      <trkpt lat="39.2876270" lon="-0.7578030">
        <ele>527.0</ele>
        <time>2018-09-16T11:18:09Z</time>
      </trkpt>
      <trkpt lat="39.2876270" lon="-0.7578030">
        <ele>527.0</ele>
        <time>2018-09-16T11:18:10Z</time>
      </trkpt>
      <trkpt lat="39.2876220" lon="-0.7576950">
        <ele>527.0</ele>
        <time>2018-09-16T11:18:11Z</time>
      </trkpt>
      <trkpt lat="39.2876180" lon="-0.7576400">
        <ele>527.0</ele>
        <time>2018-09-16T11:18:12Z</time>
      </trkpt>
      <trkpt lat="39.2876170" lon="-0.7575850">
        <ele>527.0</ele>
        <time>2018-09-16T11:18:13Z</time>
      </trkpt>
      <trkpt lat="39.2876170" lon="-0.7575850">
        <ele>527.0</ele>
        <time>2018-09-16T11:18:14Z</time>
      </trkpt>
      <trkpt lat="39.2876150" lon="-0.7574750">
        <ele>527.0</ele>
        <time>2018-09-16T11:18:15Z</time>
      </trkpt>
      <trkpt lat="39.2876150" lon="-0.7574750">
        <ele>527.0</ele>
        <time>2018-09-16T11:18:16Z</time>
      </trkpt>
      <trkpt lat="39.2876120" lon="-0.7573620">
        <ele>527.0</ele>
        <time>2018-09-16T11:18:17Z</time>
      </trkpt>
      <trkpt lat="39.2876080" lon="-0.7573030">
        <ele>527.0</ele>
        <time>2018-09-16T11:18:18Z</time>
      </trkpt>
      <trkpt lat="39.2876080" lon="-0.7573030">
        <ele>527.0</ele>
        <time>2018-09-16T11:18:19Z</time>
      </trkpt>
      <trkpt lat="39.2876030" lon="-0.7571880">
        <ele>527.0</ele>
        <time>2018-09-16T11:18:20Z</time>
      </trkpt>
      <trkpt lat="39.2876030" lon="-0.7571280">
        <ele>527.0</ele>
        <time>2018-09-16T11:18:21Z</time>
      </trkpt>
      <trkpt lat="39.2876030" lon="-0.7571280">
        <ele>527.0</ele>
        <time>2018-09-16T11:18:22Z</time>
      </trkpt>
      <trkpt lat="39.2876000" lon="-0.7570120">
        <ele>527.0</ele>
        <time>2018-09-16T11:18:23Z</time>
      </trkpt>
      <trkpt lat="39.2875980" lon="-0.7569530">
        <ele>527.0</ele>
        <time>2018-09-16T11:18:24Z</time>
      </trkpt>
      <trkpt lat="39.2875970" lon="-0.7568950">
        <ele>527.0</ele>
        <time>2018-09-16T11:18:25Z</time>
      </trkpt>
      <trkpt lat="39.2875970" lon="-0.7568950">
        <ele>527.0</ele>
        <time>2018-09-16T11:18:26Z</time>
      </trkpt>
      <trkpt lat="39.2875950" lon="-0.7567750">
        <ele>527.0</ele>
        <time>2018-09-16T11:18:27Z</time>
      </trkpt>
      <trkpt lat="39.2875950" lon="-0.7567750">
        <ele>527.0</ele>
        <time>2018-09-16T11:18:28Z</time>
      </trkpt>
      <trkpt lat="39.2875920" lon="-0.7566380">
        <ele>527.0</ele>
        <time>2018-09-16T11:18:29Z</time>
      </trkpt>
      <trkpt lat="39.2875920" lon="-0.7566380">
        <ele>527.0</ele>
        <time>2018-09-16T11:18:30Z</time>
      </trkpt>
      <trkpt lat="39.2875870" lon="-0.7564770">
        <ele>527.0</ele>
        <time>2018-09-16T11:18:31Z</time>
      </trkpt>
      <trkpt lat="39.2875870" lon="-0.7564770">
        <ele>527.0</ele>
        <time>2018-09-16T11:18:32Z</time>
      </trkpt>
      <trkpt lat="39.2875800" lon="-0.7562920">
        <ele>527.0</ele>
        <time>2018-09-16T11:18:33Z</time>
      </trkpt>
      <trkpt lat="39.2875800" lon="-0.7562920">
        <ele>527.0</ele>
        <time>2018-09-16T11:18:34Z</time>
      </trkpt>
      <trkpt lat="39.2875800" lon="-0.7560850">
        <ele>527.0</ele>
        <time>2018-09-16T11:18:35Z</time>
      </trkpt>
      <trkpt lat="39.2875800" lon="-0.7560850">
        <ele>527.0</ele>
        <time>2018-09-16T11:18:36Z</time>
      </trkpt>
      <trkpt lat="39.2875980" lon="-0.7558650">
        <ele>525.0</ele>
        <time>2018-09-16T11:18:37Z</time>
      </trkpt>
      <trkpt lat="39.2875980" lon="-0.7558650">
        <ele>525.0</ele>
        <time>2018-09-16T11:18:38Z</time>
      </trkpt>
      <trkpt lat="39.2876570" lon="-0.7556350">
        <ele>525.0</ele>
        <time>2018-09-16T11:18:39Z</time>
      </trkpt>
      <trkpt lat="39.2876570" lon="-0.7556350">
        <ele>525.0</ele>
        <time>2018-09-16T11:18:40Z</time>
      </trkpt>
      <trkpt lat="39.2877500" lon="-0.7554050">
        <ele>523.0</ele>
        <time>2018-09-16T11:18:41Z</time>
      </trkpt>
      <trkpt lat="39.2877500" lon="-0.7554050">
        <ele>523.0</ele>
        <time>2018-09-16T11:18:42Z</time>
      </trkpt>
      <trkpt lat="39.2878020" lon="-0.7551420">
        <ele>522.0</ele>
        <time>2018-09-16T11:18:43Z</time>
      </trkpt>
      <trkpt lat="39.2877950" lon="-0.7550030">
        <ele>522.0</ele>
        <time>2018-09-16T11:18:44Z</time>
      </trkpt>
      <trkpt lat="39.2877950" lon="-0.7550030">
        <ele>520.0</ele>
        <time>2018-09-16T11:18:45Z</time>
      </trkpt>
      <trkpt lat="39.2877480" lon="-0.7547470">
        <ele>520.0</ele>
        <time>2018-09-16T11:18:46Z</time>
      </trkpt>
      <trkpt lat="39.2877070" lon="-0.7546370">
        <ele>519.0</ele>
        <time>2018-09-16T11:18:47Z</time>
      </trkpt>
      <trkpt lat="39.2877070" lon="-0.7546370">
        <ele>519.0</ele>
        <time>2018-09-16T11:18:48Z</time>
      </trkpt>
      <trkpt lat="39.2875950" lon="-0.7544480">
        <ele>519.0</ele>
        <time>2018-09-16T11:18:49Z</time>
      </trkpt>
      <trkpt lat="39.2875350" lon="-0.7543650">
        <ele>519.0</ele>
        <time>2018-09-16T11:18:50Z</time>
      </trkpt>
      <trkpt lat="39.2875350" lon="-0.7543650">
        <ele>518.0</ele>
        <time>2018-09-16T11:18:51Z</time>
      </trkpt>
      <trkpt lat="39.2874180" lon="-0.7542000">
        <ele>518.0</ele>
        <time>2018-09-16T11:18:52Z</time>
      </trkpt>
      <trkpt lat="39.2874180" lon="-0.7542000">
        <ele>518.0</ele>
        <time>2018-09-16T11:18:53Z</time>
      </trkpt>
      <trkpt lat="39.2873220" lon="-0.7540220">
        <ele>518.0</ele>
        <time>2018-09-16T11:18:54Z</time>
      </trkpt>
      <trkpt lat="39.2872820" lon="-0.7539280">
        <ele>518.0</ele>
        <time>2018-09-16T11:18:55Z</time>
      </trkpt>
      <trkpt lat="39.2872820" lon="-0.7539280">
        <ele>518.0</ele>
        <time>2018-09-16T11:18:56Z</time>
      </trkpt>
      <trkpt lat="39.2872150" lon="-0.7537380">
        <ele>518.0</ele>
        <time>2018-09-16T11:18:57Z</time>
      </trkpt>
      <trkpt lat="39.2872150" lon="-0.7537380">
        <ele>517.0</ele>
        <time>2018-09-16T11:18:58Z</time>
      </trkpt>
      <trkpt lat="39.2871500" lon="-0.7535550">
        <ele>517.0</ele>
        <time>2018-09-16T11:18:59Z</time>
      </trkpt>
      <trkpt lat="39.2871500" lon="-0.7535550">
        <ele>517.0</ele>
        <time>2018-09-16T11:19:00Z</time>
      </trkpt>
      <trkpt lat="39.2870900" lon="-0.7533780">
        <ele>517.0</ele>
        <time>2018-09-16T11:19:01Z</time>
      </trkpt>
      <trkpt lat="39.2870900" lon="-0.7533780">
        <ele>517.0</ele>
        <time>2018-09-16T11:19:02Z</time>
      </trkpt>
      <trkpt lat="39.2870230" lon="-0.7532250">
        <ele>517.0</ele>
        <time>2018-09-16T11:19:03Z</time>
      </trkpt>
      <trkpt lat="39.2869880" lon="-0.7531530">
        <ele>517.0</ele>
        <time>2018-09-16T11:19:04Z</time>
      </trkpt>
      <trkpt lat="39.2869880" lon="-0.7531530">
        <ele>517.0</ele>
        <time>2018-09-16T11:19:05Z</time>
      </trkpt>
      <trkpt lat="39.2869180" lon="-0.7530200">
        <ele>517.0</ele>
        <time>2018-09-16T11:19:06Z</time>
      </trkpt>
      <trkpt lat="39.2868830" lon="-0.7529550">
        <ele>517.0</ele>
        <time>2018-09-16T11:19:07Z</time>
      </trkpt>
      <trkpt lat="39.2868830" lon="-0.7529550">
        <ele>518.0</ele>
        <time>2018-09-16T11:19:08Z</time>
      </trkpt>
      <trkpt lat="39.2868220" lon="-0.7528250">
        <ele>518.0</ele>
        <time>2018-09-16T11:19:09Z</time>
      </trkpt>
      <trkpt lat="39.2868220" lon="-0.7528250">
        <ele>518.0</ele>
        <time>2018-09-16T11:19:10Z</time>
      </trkpt>
      <trkpt lat="39.2867780" lon="-0.7526870">
        <ele>518.0</ele>
        <time>2018-09-16T11:19:11Z</time>
      </trkpt>
      <trkpt lat="39.2867780" lon="-0.7526870">
        <ele>518.0</ele>
        <time>2018-09-16T11:19:12Z</time>
      </trkpt>
      <trkpt lat="39.2867580" lon="-0.7525420">
        <ele>518.0</ele>
        <time>2018-09-16T11:19:13Z</time>
      </trkpt>
      <trkpt lat="39.2867580" lon="-0.7525420">
        <ele>518.0</ele>
        <time>2018-09-16T11:19:14Z</time>
      </trkpt>
      <trkpt lat="39.2867520" lon="-0.7523930">
        <ele>518.0</ele>
        <time>2018-09-16T11:19:15Z</time>
      </trkpt>
      <trkpt lat="39.2867520" lon="-0.7523930">
        <ele>518.0</ele>
        <time>2018-09-16T11:19:16Z</time>
      </trkpt>
      <trkpt lat="39.2867470" lon="-0.7522500">
        <ele>518.0</ele>
        <time>2018-09-16T11:19:17Z</time>
      </trkpt>
      <trkpt lat="39.2867470" lon="-0.7522500">
        <ele>518.0</ele>
        <time>2018-09-16T11:19:18Z</time>
      </trkpt>
      <trkpt lat="39.2867350" lon="-0.7521130">
        <ele>518.0</ele>
        <time>2018-09-16T11:19:19Z</time>
      </trkpt>
      <trkpt lat="39.2867350" lon="-0.7521130">
        <ele>518.0</ele>
        <time>2018-09-16T11:19:20Z</time>
      </trkpt>
      <trkpt lat="39.2867120" lon="-0.7519830">
        <ele>518.0</ele>
        <time>2018-09-16T11:19:21Z</time>
      </trkpt>
      <trkpt lat="39.2867120" lon="-0.7519830">
        <ele>520.0</ele>
        <time>2018-09-16T11:19:22Z</time>
      </trkpt>
      <trkpt lat="39.2866780" lon="-0.7518680">
        <ele>520.0</ele>
        <time>2018-09-16T11:19:23Z</time>
      </trkpt>
      <trkpt lat="39.2866780" lon="-0.7518680">
        <ele>520.0</ele>
        <time>2018-09-16T11:19:24Z</time>
      </trkpt>
      <trkpt lat="39.2866350" lon="-0.7517600">
        <ele>520.0</ele>
        <time>2018-09-16T11:19:25Z</time>
      </trkpt>
      <trkpt lat="39.2866350" lon="-0.7517600">
        <ele>520.0</ele>
        <time>2018-09-16T11:19:26Z</time>
      </trkpt>
      <trkpt lat="39.2865870" lon="-0.7516520">
        <ele>520.0</ele>
        <time>2018-09-16T11:19:27Z</time>
      </trkpt>
      <trkpt lat="39.2865870" lon="-0.7516520">
        <ele>520.0</ele>
        <time>2018-09-16T11:19:28Z</time>
      </trkpt>
      <trkpt lat="39.2865330" lon="-0.7515450">
        <ele>520.0</ele>
        <time>2018-09-16T11:19:29Z</time>
      </trkpt>
      <trkpt lat="39.2865330" lon="-0.7515450">
        <ele>520.0</ele>
        <time>2018-09-16T11:19:30Z</time>
      </trkpt>
      <trkpt lat="39.2864850" lon="-0.7514330">
        <ele>520.0</ele>
        <time>2018-09-16T11:19:31Z</time>
      </trkpt>
      <trkpt lat="39.2864850" lon="-0.7514330">
        <ele>520.0</ele>
        <time>2018-09-16T11:19:32Z</time>
      </trkpt>
      <trkpt lat="39.2864450" lon="-0.7513180">
        <ele>520.0</ele>
        <time>2018-09-16T11:19:33Z</time>
      </trkpt>
      <trkpt lat="39.2864450" lon="-0.7513180">
        <ele>520.0</ele>
        <time>2018-09-16T11:19:34Z</time>
      </trkpt>
      <trkpt lat="39.2864150" lon="-0.7511980">
        <ele>520.0</ele>
        <time>2018-09-16T11:19:35Z</time>
      </trkpt>
      <trkpt lat="39.2864150" lon="-0.7511980">
        <ele>520.0</ele>
        <time>2018-09-16T11:19:36Z</time>
      </trkpt>
      <trkpt lat="39.2863870" lon="-0.7510800">
        <ele>520.0</ele>
        <time>2018-09-16T11:19:37Z</time>
      </trkpt>
      <trkpt lat="39.2863870" lon="-0.7510800">
        <ele>520.0</ele>
        <time>2018-09-16T11:19:38Z</time>
      </trkpt>
      <trkpt lat="39.2863600" lon="-0.7509580">
        <ele>520.0</ele>
        <time>2018-09-16T11:19:39Z</time>
      </trkpt>
      <trkpt lat="39.2863600" lon="-0.7509580">
        <ele>520.0</ele>
        <time>2018-09-16T11:19:40Z</time>
      </trkpt>
      <trkpt lat="39.2863330" lon="-0.7508370">
        <ele>520.0</ele>
        <time>2018-09-16T11:19:41Z</time>
      </trkpt>
      <trkpt lat="39.2863220" lon="-0.7507770">
        <ele>520.0</ele>
        <time>2018-09-16T11:19:42Z</time>
      </trkpt>
      <trkpt lat="39.2863080" lon="-0.7507170">
        <ele>520.0</ele>
        <time>2018-09-16T11:19:43Z</time>
      </trkpt>
      <trkpt lat="39.2863080" lon="-0.7507170">
        <ele>520.0</ele>
        <time>2018-09-16T11:19:44Z</time>
      </trkpt>
      <trkpt lat="39.2862830" lon="-0.7506000">
        <ele>520.0</ele>
        <time>2018-09-16T11:19:45Z</time>
      </trkpt>
      <trkpt lat="39.2862830" lon="-0.7506000">
        <ele>520.0</ele>
        <time>2018-09-16T11:19:46Z</time>
      </trkpt>
      <trkpt lat="39.2862630" lon="-0.7504850">
        <ele>521.0</ele>
        <time>2018-09-16T11:19:47Z</time>
      </trkpt>
      <trkpt lat="39.2862630" lon="-0.7504850">
        <ele>521.0</ele>
        <time>2018-09-16T11:19:48Z</time>
      </trkpt>
      <trkpt lat="39.2862470" lon="-0.7503730">
        <ele>521.0</ele>
        <time>2018-09-16T11:19:49Z</time>
      </trkpt>
      <trkpt lat="39.2862470" lon="-0.7503730">
        <ele>521.0</ele>
        <time>2018-09-16T11:19:50Z</time>
      </trkpt>
      <trkpt lat="39.2862330" lon="-0.7502630">
        <ele>521.0</ele>
        <time>2018-09-16T11:19:51Z</time>
      </trkpt>
      <trkpt lat="39.2862330" lon="-0.7502630">
        <ele>521.0</ele>
        <time>2018-09-16T11:19:52Z</time>
      </trkpt>
      <trkpt lat="39.2862230" lon="-0.7501570">
        <ele>521.0</ele>
        <time>2018-09-16T11:19:53Z</time>
      </trkpt>
      <trkpt lat="39.2862230" lon="-0.7501570">
        <ele>521.0</ele>
        <time>2018-09-16T11:19:54Z</time>
      </trkpt>
      <trkpt lat="39.2862150" lon="-0.7500530">
        <ele>521.0</ele>
        <time>2018-09-16T11:19:55Z</time>
      </trkpt>
      <trkpt lat="39.2862150" lon="-0.7500530">
        <ele>522.0</ele>
        <time>2018-09-16T11:19:56Z</time>
      </trkpt>
      <trkpt lat="39.2862050" lon="-0.7499530">
        <ele>522.0</ele>
        <time>2018-09-16T11:19:57Z</time>
      </trkpt>
      <trkpt lat="39.2862050" lon="-0.7499530">
        <ele>522.0</ele>
        <time>2018-09-16T11:19:58Z</time>
      </trkpt>
      <trkpt lat="39.2861950" lon="-0.7498570">
        <ele>522.0</ele>
        <time>2018-09-16T11:19:59Z</time>
      </trkpt>
      <trkpt lat="39.2861950" lon="-0.7498570">
        <ele>523.0</ele>
        <time>2018-09-16T11:20:00Z</time>
      </trkpt>
      <trkpt lat="39.2861830" lon="-0.7497620">
        <ele>523.0</ele>
        <time>2018-09-16T11:20:01Z</time>
      </trkpt>
      <trkpt lat="39.2861830" lon="-0.7497620">
        <ele>523.0</ele>
        <time>2018-09-16T11:20:02Z</time>
      </trkpt>
      <trkpt lat="39.2861730" lon="-0.7496650">
        <ele>523.0</ele>
        <time>2018-09-16T11:20:03Z</time>
      </trkpt>
      <trkpt lat="39.2861670" lon="-0.7496170">
        <ele>524.0</ele>
        <time>2018-09-16T11:20:04Z</time>
      </trkpt>
      <trkpt lat="39.2861670" lon="-0.7496170">
        <ele>524.0</ele>
        <time>2018-09-16T11:20:05Z</time>
      </trkpt>
      <trkpt lat="39.2861570" lon="-0.7495230">
        <ele>524.0</ele>
        <time>2018-09-16T11:20:06Z</time>
      </trkpt>
      <trkpt lat="39.2861480" lon="-0.7494750">
        <ele>524.0</ele>
        <time>2018-09-16T11:20:07Z</time>
      </trkpt>
      <trkpt lat="39.2861480" lon="-0.7494750">
        <ele>524.0</ele>
        <time>2018-09-16T11:20:08Z</time>
      </trkpt>
      <trkpt lat="39.2861370" lon="-0.7493780">
        <ele>524.0</ele>
        <time>2018-09-16T11:20:09Z</time>
      </trkpt>
      <trkpt lat="39.2861370" lon="-0.7493780">
        <ele>525.0</ele>
        <time>2018-09-16T11:20:10Z</time>
      </trkpt>
      <trkpt lat="39.2861250" lon="-0.7492820">
        <ele>525.0</ele>
        <time>2018-09-16T11:20:11Z</time>
      </trkpt>
      <trkpt lat="39.2861250" lon="-0.7492820">
        <ele>525.0</ele>
        <time>2018-09-16T11:20:12Z</time>
      </trkpt>
      <trkpt lat="39.2861150" lon="-0.7491880">
        <ele>525.0</ele>
        <time>2018-09-16T11:20:13Z</time>
      </trkpt>
      <trkpt lat="39.2861150" lon="-0.7491880">
        <ele>525.0</ele>
        <time>2018-09-16T11:20:14Z</time>
      </trkpt>
      <trkpt lat="39.2861070" lon="-0.7490880">
        <ele>525.0</ele>
        <time>2018-09-16T11:20:15Z</time>
      </trkpt>
      <trkpt lat="39.2861020" lon="-0.7490380">
        <ele>525.0</ele>
        <time>2018-09-16T11:20:16Z</time>
      </trkpt>
      <trkpt lat="39.2861020" lon="-0.7490380">
        <ele>525.0</ele>
        <time>2018-09-16T11:20:17Z</time>
      </trkpt>
      <trkpt lat="39.2860920" lon="-0.7489350">
        <ele>525.0</ele>
        <time>2018-09-16T11:20:18Z</time>
      </trkpt>
      <trkpt lat="39.2860880" lon="-0.7488820">
        <ele>525.0</ele>
        <time>2018-09-16T11:20:19Z</time>
      </trkpt>
      <trkpt lat="39.2860880" lon="-0.7488820">
        <ele>525.0</ele>
        <time>2018-09-16T11:20:20Z</time>
      </trkpt>
      <trkpt lat="39.2860780" lon="-0.7487800">
        <ele>525.0</ele>
        <time>2018-09-16T11:20:21Z</time>
      </trkpt>
      <trkpt lat="39.2860780" lon="-0.7487800">
        <ele>525.0</ele>
        <time>2018-09-16T11:20:22Z</time>
      </trkpt>
      <trkpt lat="39.2860680" lon="-0.7486750">
        <ele>525.0</ele>
        <time>2018-09-16T11:20:23Z</time>
      </trkpt>
      <trkpt lat="39.2860630" lon="-0.7486230">
        <ele>525.0</ele>
        <time>2018-09-16T11:20:24Z</time>
      </trkpt>
      <trkpt lat="39.2860580" lon="-0.7485720">
        <ele>525.0</ele>
        <time>2018-09-16T11:20:25Z</time>
      </trkpt>
      <trkpt lat="39.2860580" lon="-0.7485720">
        <ele>525.0</ele>
        <time>2018-09-16T11:20:26Z</time>
      </trkpt>
      <trkpt lat="39.2860530" lon="-0.7484700">
        <ele>525.0</ele>
        <time>2018-09-16T11:20:27Z</time>
      </trkpt>
      <trkpt lat="39.2860520" lon="-0.7484180">
        <ele>525.0</ele>
        <time>2018-09-16T11:20:28Z</time>
      </trkpt>
      <trkpt lat="39.2860520" lon="-0.7484180">
        <ele>526.0</ele>
        <time>2018-09-16T11:20:29Z</time>
      </trkpt>
      <trkpt lat="39.2860520" lon="-0.7483130">
        <ele>526.0</ele>
        <time>2018-09-16T11:20:30Z</time>
      </trkpt>
      <trkpt lat="39.2860500" lon="-0.7482620">
        <ele>526.0</ele>
        <time>2018-09-16T11:20:31Z</time>
      </trkpt>
      <trkpt lat="39.2860500" lon="-0.7482620">
        <ele>526.0</ele>
        <time>2018-09-16T11:20:32Z</time>
      </trkpt>
      <trkpt lat="39.2860500" lon="-0.7481630">
        <ele>526.0</ele>
        <time>2018-09-16T11:20:33Z</time>
      </trkpt>
      <trkpt lat="39.2860520" lon="-0.7481170">
        <ele>526.0</ele>
        <time>2018-09-16T11:20:34Z</time>
      </trkpt>
      <trkpt lat="39.2860520" lon="-0.7480680">
        <ele>526.0</ele>
        <time>2018-09-16T11:20:35Z</time>
      </trkpt>
      <trkpt lat="39.2860520" lon="-0.7480680">
        <ele>527.0</ele>
        <time>2018-09-16T11:20:36Z</time>
      </trkpt>
      <trkpt lat="39.2860530" lon="-0.7479680">
        <ele>527.0</ele>
        <time>2018-09-16T11:20:37Z</time>
      </trkpt>
      <trkpt lat="39.2860530" lon="-0.7479680">
        <ele>527.0</ele>
        <time>2018-09-16T11:20:38Z</time>
      </trkpt>
      <trkpt lat="39.2860550" lon="-0.7478630">
        <ele>527.0</ele>
        <time>2018-09-16T11:20:39Z</time>
      </trkpt>
      <trkpt lat="39.2860550" lon="-0.7478630">
        <ele>527.0</ele>
        <time>2018-09-16T11:20:40Z</time>
      </trkpt>
      <trkpt lat="39.2860550" lon="-0.7477550">
        <ele>527.0</ele>
        <time>2018-09-16T11:20:41Z</time>
      </trkpt>
      <trkpt lat="39.2860550" lon="-0.7477550">
        <ele>527.0</ele>
        <time>2018-09-16T11:20:42Z</time>
      </trkpt>
      <trkpt lat="39.2860550" lon="-0.7476450">
        <ele>527.0</ele>
        <time>2018-09-16T11:20:43Z</time>
      </trkpt>
      <trkpt lat="39.2860550" lon="-0.7476450">
        <ele>527.0</ele>
        <time>2018-09-16T11:20:44Z</time>
      </trkpt>
      <trkpt lat="39.2860570" lon="-0.7475330">
        <ele>527.0</ele>
        <time>2018-09-16T11:20:45Z</time>
      </trkpt>
      <trkpt lat="39.2860570" lon="-0.7475330">
        <ele>527.0</ele>
        <time>2018-09-16T11:20:46Z</time>
      </trkpt>
      <trkpt lat="39.2860580" lon="-0.7474270">
        <ele>527.0</ele>
        <time>2018-09-16T11:20:47Z</time>
      </trkpt>
      <trkpt lat="39.2860580" lon="-0.7474270">
        <ele>527.0</ele>
        <time>2018-09-16T11:20:48Z</time>
      </trkpt>
      <trkpt lat="39.2860620" lon="-0.7473170">
        <ele>527.0</ele>
        <time>2018-09-16T11:20:49Z</time>
      </trkpt>
      <trkpt lat="39.2860620" lon="-0.7473170">
        <ele>527.0</ele>
        <time>2018-09-16T11:20:50Z</time>
      </trkpt>
      <trkpt lat="39.2860550" lon="-0.7472050">
        <ele>527.0</ele>
        <time>2018-09-16T11:20:51Z</time>
      </trkpt>
      <trkpt lat="39.2860550" lon="-0.7472050">
        <ele>527.0</ele>
        <time>2018-09-16T11:20:52Z</time>
      </trkpt>
      <trkpt lat="39.2860450" lon="-0.7470950">
        <ele>527.0</ele>
        <time>2018-09-16T11:20:53Z</time>
      </trkpt>
      <trkpt lat="39.2860400" lon="-0.7470400">
        <ele>527.0</ele>
        <time>2018-09-16T11:20:54Z</time>
      </trkpt>
      <trkpt lat="39.2860350" lon="-0.7469870">
        <ele>527.0</ele>
        <time>2018-09-16T11:20:55Z</time>
      </trkpt>
      <trkpt lat="39.2860350" lon="-0.7469870">
        <ele>527.0</ele>
        <time>2018-09-16T11:20:56Z</time>
      </trkpt>
      <trkpt lat="39.2860230" lon="-0.7468820">
        <ele>527.0</ele>
        <time>2018-09-16T11:20:57Z</time>
      </trkpt>
      <trkpt lat="39.2860150" lon="-0.7468280">
        <ele>527.0</ele>
        <time>2018-09-16T11:20:58Z</time>
      </trkpt>
      <trkpt lat="39.2860150" lon="-0.7468280">
        <ele>528.0</ele>
        <time>2018-09-16T11:20:59Z</time>
      </trkpt>
      <trkpt lat="39.2859920" lon="-0.7467230">
        <ele>528.0</ele>
        <time>2018-09-16T11:21:00Z</time>
      </trkpt>
      <trkpt lat="39.2859770" lon="-0.7466720">
        <ele>528.0</ele>
        <time>2018-09-16T11:21:01Z</time>
      </trkpt>
      <trkpt lat="39.2859770" lon="-0.7466720">
        <ele>528.0</ele>
        <time>2018-09-16T11:21:02Z</time>
      </trkpt>
      <trkpt lat="39.2859420" lon="-0.7465780">
        <ele>528.0</ele>
        <time>2018-09-16T11:21:03Z</time>
      </trkpt>
      <trkpt lat="39.2859220" lon="-0.7465330">
        <ele>529.0</ele>
        <time>2018-09-16T11:21:04Z</time>
      </trkpt>
      <trkpt lat="39.2859220" lon="-0.7465330">
        <ele>529.0</ele>
        <time>2018-09-16T11:21:05Z</time>
      </trkpt>
      <trkpt lat="39.2858770" lon="-0.7464420">
        <ele>529.0</ele>
        <time>2018-09-16T11:21:06Z</time>
      </trkpt>
      <trkpt lat="39.2858530" lon="-0.7463980">
        <ele>529.0</ele>
        <time>2018-09-16T11:21:07Z</time>
      </trkpt>
      <trkpt lat="39.2858530" lon="-0.7463980">
        <ele>529.0</ele>
        <time>2018-09-16T11:21:08Z</time>
      </trkpt>
      <trkpt lat="39.2858070" lon="-0.7463100">
        <ele>529.0</ele>
        <time>2018-09-16T11:21:09Z</time>
      </trkpt>
      <trkpt lat="39.2858070" lon="-0.7463100">
        <ele>529.0</ele>
        <time>2018-09-16T11:21:10Z</time>
      </trkpt>
      <trkpt lat="39.2857570" lon="-0.7462220">
        <ele>530.0</ele>
        <time>2018-09-16T11:21:11Z</time>
      </trkpt>
      <trkpt lat="39.2857320" lon="-0.7461780">
        <ele>530.0</ele>
        <time>2018-09-16T11:21:12Z</time>
      </trkpt>
      <trkpt lat="39.2857320" lon="-0.7461780">
        <ele>530.0</ele>
        <time>2018-09-16T11:21:13Z</time>
      </trkpt>
      <trkpt lat="39.2856820" lon="-0.7460850">
        <ele>530.0</ele>
        <time>2018-09-16T11:21:14Z</time>
      </trkpt>
      <trkpt lat="39.2856570" lon="-0.7460400">
        <ele>530.0</ele>
        <time>2018-09-16T11:21:15Z</time>
      </trkpt>
      <trkpt lat="39.2856570" lon="-0.7460400">
        <ele>530.0</ele>
        <time>2018-09-16T11:21:16Z</time>
      </trkpt>
      <trkpt lat="39.2856120" lon="-0.7459470">
        <ele>530.0</ele>
        <time>2018-09-16T11:21:17Z</time>
      </trkpt>
      <trkpt lat="39.2856120" lon="-0.7459470">
        <ele>530.0</ele>
        <time>2018-09-16T11:21:18Z</time>
      </trkpt>
      <trkpt lat="39.2855770" lon="-0.7458470">
        <ele>530.0</ele>
        <time>2018-09-16T11:21:19Z</time>
      </trkpt>
      <trkpt lat="39.2855770" lon="-0.7458470">
        <ele>530.0</ele>
        <time>2018-09-16T11:21:20Z</time>
      </trkpt>
      <trkpt lat="39.2855670" lon="-0.7457350">
        <ele>530.0</ele>
        <time>2018-09-16T11:21:21Z</time>
      </trkpt>
      <trkpt lat="39.2855780" lon="-0.7456780">
        <ele>530.0</ele>
        <time>2018-09-16T11:21:22Z</time>
      </trkpt>
      <trkpt lat="39.2855780" lon="-0.7456780">
        <ele>530.0</ele>
        <time>2018-09-16T11:21:23Z</time>
      </trkpt>
      <trkpt lat="39.2856350" lon="-0.7455850">
        <ele>531.0</ele>
        <time>2018-09-16T11:21:24Z</time>
      </trkpt>
      <trkpt lat="39.2856700" lon="-0.7455470">
        <ele>531.0</ele>
        <time>2018-09-16T11:21:25Z</time>
      </trkpt>
      <trkpt lat="39.2856700" lon="-0.7455470">
        <ele>531.0</ele>
        <time>2018-09-16T11:21:26Z</time>
      </trkpt>
      <trkpt lat="39.2857480" lon="-0.7454750">
        <ele>531.0</ele>
        <time>2018-09-16T11:21:27Z</time>
      </trkpt>
      <trkpt lat="39.2857480" lon="-0.7454750">
        <ele>531.0</ele>
        <time>2018-09-16T11:21:28Z</time>
      </trkpt>
      <trkpt lat="39.2858270" lon="-0.7454070">
        <ele>531.0</ele>
        <time>2018-09-16T11:21:29Z</time>
      </trkpt>
      <trkpt lat="39.2858650" lon="-0.7453700">
        <ele>531.0</ele>
        <time>2018-09-16T11:21:30Z</time>
      </trkpt>
      <trkpt lat="39.2858650" lon="-0.7453700">
        <ele>531.0</ele>
        <time>2018-09-16T11:21:31Z</time>
      </trkpt>
      <trkpt lat="39.2859380" lon="-0.7452980">
        <ele>531.0</ele>
        <time>2018-09-16T11:21:32Z</time>
      </trkpt>
      <trkpt lat="39.2859380" lon="-0.7452980">
        <ele>531.0</ele>
        <time>2018-09-16T11:21:33Z</time>
      </trkpt>
      <trkpt lat="39.2860000" lon="-0.7452320">
        <ele>531.0</ele>
        <time>2018-09-16T11:21:34Z</time>
      </trkpt>
      <trkpt lat="39.2860000" lon="-0.7452320">
        <ele>531.0</ele>
        <time>2018-09-16T11:21:35Z</time>
      </trkpt>
      <trkpt lat="39.2860500" lon="-0.7451770">
        <ele>531.0</ele>
        <time>2018-09-16T11:21:36Z</time>
      </trkpt>
      <trkpt lat="39.2860720" lon="-0.7451530">
        <ele>531.0</ele>
        <time>2018-09-16T11:21:37Z</time>
      </trkpt>
      <trkpt lat="39.2860720" lon="-0.7451530">
        <ele>531.0</ele>
        <time>2018-09-16T11:21:38Z</time>
      </trkpt>
      <trkpt lat="39.2861120" lon="-0.7451120">
        <ele>532.0</ele>
        <time>2018-09-16T11:21:39Z</time>
      </trkpt>
      <trkpt lat="39.2861120" lon="-0.7451120">
        <ele>532.0</ele>
        <time>2018-09-16T11:21:40Z</time>
      </trkpt>
      <trkpt lat="39.2861520" lon="-0.7450700">
        <ele>532.0</ele>
        <time>2018-09-16T11:21:41Z</time>
      </trkpt>
      <trkpt lat="39.2861720" lon="-0.7450500">
        <ele>532.0</ele>
        <time>2018-09-16T11:21:42Z</time>
      </trkpt>
      <trkpt lat="39.2861720" lon="-0.7450500">
        <ele>532.0</ele>
        <time>2018-09-16T11:21:43Z</time>
      </trkpt>
      <trkpt lat="39.2862100" lon="-0.7450030">
        <ele>532.0</ele>
        <time>2018-09-16T11:21:44Z</time>
      </trkpt>
      <trkpt lat="39.2862100" lon="-0.7450030">
        <ele>533.0</ele>
        <time>2018-09-16T11:21:45Z</time>
      </trkpt>
      <trkpt lat="39.2862480" lon="-0.7449550">
        <ele>533.0</ele>
        <time>2018-09-16T11:21:46Z</time>
      </trkpt>
      <trkpt lat="39.2862480" lon="-0.7449550">
        <ele>533.0</ele>
        <time>2018-09-16T11:21:47Z</time>
      </trkpt>
      <trkpt lat="39.2862880" lon="-0.7449050">
        <ele>533.0</ele>
        <time>2018-09-16T11:21:48Z</time>
      </trkpt>
      <trkpt lat="39.2863080" lon="-0.7448770">
        <ele>534.0</ele>
        <time>2018-09-16T11:21:49Z</time>
      </trkpt>
      <trkpt lat="39.2863080" lon="-0.7448770">
        <ele>534.0</ele>
        <time>2018-09-16T11:21:50Z</time>
      </trkpt>
      <trkpt lat="39.2863520" lon="-0.7448270">
        <ele>534.0</ele>
        <time>2018-09-16T11:21:51Z</time>
      </trkpt>
      <trkpt lat="39.2863520" lon="-0.7448270">
        <ele>534.0</ele>
        <time>2018-09-16T11:21:52Z</time>
      </trkpt>
      <trkpt lat="39.2863950" lon="-0.7447770">
        <ele>535.0</ele>
        <time>2018-09-16T11:21:53Z</time>
      </trkpt>
      <trkpt lat="39.2864270" lon="-0.7447400">
        <ele>535.0</ele>
        <time>2018-09-16T11:21:54Z</time>
      </trkpt>
      <trkpt lat="39.2864370" lon="-0.7447270">
        <ele>535.0</ele>
        <time>2018-09-16T11:21:55Z</time>
      </trkpt>
      <trkpt lat="39.2864370" lon="-0.7447270">
        <ele>535.0</ele>
        <time>2018-09-16T11:21:56Z</time>
      </trkpt>
      <trkpt lat="39.2864780" lon="-0.7446730">
        <ele>535.0</ele>
        <time>2018-09-16T11:21:57Z</time>
      </trkpt>
      <trkpt lat="39.2864980" lon="-0.7446480">
        <ele>536.0</ele>
        <time>2018-09-16T11:21:58Z</time>
      </trkpt>
      <trkpt lat="39.2864980" lon="-0.7446480">
        <ele>536.0</ele>
        <time>2018-09-16T11:21:59Z</time>
      </trkpt>
      <trkpt lat="39.2865400" lon="-0.7445950">
        <ele>536.0</ele>
        <time>2018-09-16T11:22:00Z</time>
      </trkpt>
      <trkpt lat="39.2865630" lon="-0.7445670">
        <ele>536.0</ele>
        <time>2018-09-16T11:22:01Z</time>
      </trkpt>
      <trkpt lat="39.2865630" lon="-0.7445670">
        <ele>536.0</ele>
        <time>2018-09-16T11:22:02Z</time>
      </trkpt>
      <trkpt lat="39.2866080" lon="-0.7445180">
        <ele>536.0</ele>
        <time>2018-09-16T11:22:03Z</time>
      </trkpt>
      <trkpt lat="39.2866080" lon="-0.7445180">
        <ele>537.0</ele>
        <time>2018-09-16T11:22:04Z</time>
      </trkpt>
      <trkpt lat="39.2866480" lon="-0.7444680">
        <ele>537.0</ele>
        <time>2018-09-16T11:22:05Z</time>
      </trkpt>
      <trkpt lat="39.2866480" lon="-0.7444680">
        <ele>537.0</ele>
        <time>2018-09-16T11:22:06Z</time>
      </trkpt>
      <trkpt lat="39.2866870" lon="-0.7444200">
        <ele>537.0</ele>
        <time>2018-09-16T11:22:07Z</time>
      </trkpt>
      <trkpt lat="39.2866870" lon="-0.7444200">
        <ele>538.0</ele>
        <time>2018-09-16T11:22:08Z</time>
      </trkpt>
      <trkpt lat="39.2867280" lon="-0.7443750">
        <ele>538.0</ele>
        <time>2018-09-16T11:22:09Z</time>
      </trkpt>
      <trkpt lat="39.2867280" lon="-0.7443750">
        <ele>538.0</ele>
        <time>2018-09-16T11:22:10Z</time>
      </trkpt>
      <trkpt lat="39.2867670" lon="-0.7443270">
        <ele>538.0</ele>
        <time>2018-09-16T11:22:11Z</time>
      </trkpt>
      <trkpt lat="39.2867670" lon="-0.7443270">
        <ele>539.0</ele>
        <time>2018-09-16T11:22:12Z</time>
      </trkpt>
      <trkpt lat="39.2868050" lon="-0.7442820">
        <ele>539.0</ele>
        <time>2018-09-16T11:22:13Z</time>
      </trkpt>
      <trkpt lat="39.2868250" lon="-0.7442580">
        <ele>539.0</ele>
        <time>2018-09-16T11:22:14Z</time>
      </trkpt>
      <trkpt lat="39.2868250" lon="-0.7442580">
        <ele>539.0</ele>
        <time>2018-09-16T11:22:15Z</time>
      </trkpt>
      <trkpt lat="39.2868630" lon="-0.7442130">
        <ele>539.0</ele>
        <time>2018-09-16T11:22:16Z</time>
      </trkpt>
      <trkpt lat="39.2868630" lon="-0.7442130">
        <ele>539.0</ele>
        <time>2018-09-16T11:22:17Z</time>
      </trkpt>
      <trkpt lat="39.2869020" lon="-0.7441720">
        <ele>539.0</ele>
        <time>2018-09-16T11:22:18Z</time>
      </trkpt>
      <trkpt lat="39.2869180" lon="-0.7441500">
        <ele>539.0</ele>
        <time>2018-09-16T11:22:19Z</time>
      </trkpt>
      <trkpt lat="39.2869180" lon="-0.7441500">
        <ele>540.0</ele>
        <time>2018-09-16T11:22:20Z</time>
      </trkpt>
      <trkpt lat="39.2869480" lon="-0.7441070">
        <ele>540.0</ele>
        <time>2018-09-16T11:22:21Z</time>
      </trkpt>
      <trkpt lat="39.2869650" lon="-0.7440870">
        <ele>540.0</ele>
        <time>2018-09-16T11:22:22Z</time>
      </trkpt>
      <trkpt lat="39.2869650" lon="-0.7440870">
        <ele>540.0</ele>
        <time>2018-09-16T11:22:23Z</time>
      </trkpt>
      <trkpt lat="39.2870020" lon="-0.7440450">
        <ele>540.0</ele>
        <time>2018-09-16T11:22:24Z</time>
      </trkpt>
      <trkpt lat="39.2870180" lon="-0.7440230">
        <ele>541.0</ele>
        <time>2018-09-16T11:22:25Z</time>
      </trkpt>
      <trkpt lat="39.2870180" lon="-0.7440230">
        <ele>541.0</ele>
        <time>2018-09-16T11:22:26Z</time>
      </trkpt>
      <trkpt lat="39.2870500" lon="-0.7439770">
        <ele>541.0</ele>
        <time>2018-09-16T11:22:27Z</time>
      </trkpt>
      <trkpt lat="39.2870500" lon="-0.7439770">
        <ele>541.0</ele>
        <time>2018-09-16T11:22:28Z</time>
      </trkpt>
      <trkpt lat="39.2870770" lon="-0.7439200">
        <ele>541.0</ele>
        <time>2018-09-16T11:22:29Z</time>
      </trkpt>
      <trkpt lat="39.2870770" lon="-0.7439200">
        <ele>541.0</ele>
        <time>2018-09-16T11:22:30Z</time>
      </trkpt>
      <trkpt lat="39.2871000" lon="-0.7438500">
        <ele>541.0</ele>
        <time>2018-09-16T11:22:31Z</time>
      </trkpt>
      <trkpt lat="39.2871000" lon="-0.7438500">
        <ele>542.0</ele>
        <time>2018-09-16T11:22:32Z</time>
      </trkpt>
      <trkpt lat="39.2871130" lon="-0.7437780">
        <ele>542.0</ele>
        <time>2018-09-16T11:22:33Z</time>
      </trkpt>
      <trkpt lat="39.2871130" lon="-0.7437780">
        <ele>542.0</ele>
        <time>2018-09-16T11:22:34Z</time>
      </trkpt>
      <trkpt lat="39.2871220" lon="-0.7437050">
        <ele>542.0</ele>
        <time>2018-09-16T11:22:35Z</time>
      </trkpt>
      <trkpt lat="39.2871230" lon="-0.7436700">
        <ele>542.0</ele>
        <time>2018-09-16T11:22:36Z</time>
      </trkpt>
      <trkpt lat="39.2871230" lon="-0.7436350">
        <ele>542.0</ele>
        <time>2018-09-16T11:22:37Z</time>
      </trkpt>
      <trkpt lat="39.2871230" lon="-0.7436350">
        <ele>543.0</ele>
        <time>2018-09-16T11:22:38Z</time>
      </trkpt>
      <trkpt lat="39.2871300" lon="-0.7435630">
        <ele>543.0</ele>
        <time>2018-09-16T11:22:39Z</time>
      </trkpt>
      <trkpt lat="39.2871320" lon="-0.7435280">
        <ele>543.0</ele>
        <time>2018-09-16T11:22:40Z</time>
      </trkpt>
      <trkpt lat="39.2871320" lon="-0.7435280">
        <ele>543.0</ele>
        <time>2018-09-16T11:22:41Z</time>
      </trkpt>
      <trkpt lat="39.2871280" lon="-0.7434530">
        <ele>543.0</ele>
        <time>2018-09-16T11:22:42Z</time>
      </trkpt>
      <trkpt lat="39.2871270" lon="-0.7434150">
        <ele>543.0</ele>
        <time>2018-09-16T11:22:43Z</time>
      </trkpt>
      <trkpt lat="39.2871270" lon="-0.7434150">
        <ele>544.0</ele>
        <time>2018-09-16T11:22:44Z</time>
      </trkpt>
      <trkpt lat="39.2871250" lon="-0.7433380">
        <ele>544.0</ele>
        <time>2018-09-16T11:22:45Z</time>
      </trkpt>
      <trkpt lat="39.2871250" lon="-0.7433380">
        <ele>544.0</ele>
        <time>2018-09-16T11:22:46Z</time>
      </trkpt>
      <trkpt lat="39.2871250" lon="-0.7432630">
        <ele>544.0</ele>
        <time>2018-09-16T11:22:47Z</time>
      </trkpt>
      <trkpt lat="39.2871250" lon="-0.7432630">
        <ele>545.0</ele>
        <time>2018-09-16T11:22:48Z</time>
      </trkpt>
      <trkpt lat="39.2871250" lon="-0.7431830">
        <ele>545.0</ele>
        <time>2018-09-16T11:22:49Z</time>
      </trkpt>
      <trkpt lat="39.2871250" lon="-0.7431830">
        <ele>545.0</ele>
        <time>2018-09-16T11:22:50Z</time>
      </trkpt>
      <trkpt lat="39.2871230" lon="-0.7431030">
        <ele>545.0</ele>
        <time>2018-09-16T11:22:51Z</time>
      </trkpt>
      <trkpt lat="39.2871230" lon="-0.7431030">
        <ele>545.0</ele>
        <time>2018-09-16T11:22:52Z</time>
      </trkpt>
      <trkpt lat="39.2871270" lon="-0.7430270">
        <ele>546.0</ele>
        <time>2018-09-16T11:22:53Z</time>
      </trkpt>
      <trkpt lat="39.2871280" lon="-0.7429880">
        <ele>546.0</ele>
        <time>2018-09-16T11:22:54Z</time>
      </trkpt>
      <trkpt lat="39.2871280" lon="-0.7429520">
        <ele>546.0</ele>
        <time>2018-09-16T11:22:55Z</time>
      </trkpt>
      <trkpt lat="39.2871280" lon="-0.7429520">
        <ele>546.0</ele>
        <time>2018-09-16T11:22:56Z</time>
      </trkpt>
      <trkpt lat="39.2871250" lon="-0.7428730">
        <ele>546.0</ele>
        <time>2018-09-16T11:22:57Z</time>
      </trkpt>
      <trkpt lat="39.2871220" lon="-0.7428330">
        <ele>546.0</ele>
        <time>2018-09-16T11:22:58Z</time>
      </trkpt>
      <trkpt lat="39.2871220" lon="-0.7428330">
        <ele>546.0</ele>
        <time>2018-09-16T11:22:59Z</time>
      </trkpt>
      <trkpt lat="39.2871130" lon="-0.7427520">
        <ele>546.0</ele>
        <time>2018-09-16T11:23:00Z</time>
      </trkpt>
      <trkpt lat="39.2871070" lon="-0.7427100">
        <ele>546.0</ele>
        <time>2018-09-16T11:23:01Z</time>
      </trkpt>
      <trkpt lat="39.2871070" lon="-0.7427100">
        <ele>546.0</ele>
        <time>2018-09-16T11:23:02Z</time>
      </trkpt>
      <trkpt lat="39.2870970" lon="-0.7426300">
        <ele>546.0</ele>
        <time>2018-09-16T11:23:03Z</time>
      </trkpt>
      <trkpt lat="39.2870970" lon="-0.7426300">
        <ele>546.0</ele>
        <time>2018-09-16T11:23:04Z</time>
      </trkpt>
      <trkpt lat="39.2870870" lon="-0.7425480">
        <ele>547.0</ele>
        <time>2018-09-16T11:23:05Z</time>
      </trkpt>
      <trkpt lat="39.2870870" lon="-0.7425480">
        <ele>547.0</ele>
        <time>2018-09-16T11:23:06Z</time>
      </trkpt>
      <trkpt lat="39.2870730" lon="-0.7424680">
        <ele>547.0</ele>
        <time>2018-09-16T11:23:07Z</time>
      </trkpt>
      <trkpt lat="39.2870730" lon="-0.7424680">
        <ele>547.0</ele>
        <time>2018-09-16T11:23:08Z</time>
      </trkpt>
      <trkpt lat="39.2870630" lon="-0.7423900">
        <ele>547.0</ele>
        <time>2018-09-16T11:23:09Z</time>
      </trkpt>
      <trkpt lat="39.2870630" lon="-0.7423900">
        <ele>547.0</ele>
        <time>2018-09-16T11:23:10Z</time>
      </trkpt>
      <trkpt lat="39.2870520" lon="-0.7423080">
        <ele>547.0</ele>
        <time>2018-09-16T11:23:11Z</time>
      </trkpt>
      <trkpt lat="39.2870520" lon="-0.7423080">
        <ele>547.0</ele>
        <time>2018-09-16T11:23:12Z</time>
      </trkpt>
      <trkpt lat="39.2870420" lon="-0.7422280">
        <ele>547.0</ele>
        <time>2018-09-16T11:23:13Z</time>
      </trkpt>
      <trkpt lat="39.2870420" lon="-0.7422280">
        <ele>547.0</ele>
        <time>2018-09-16T11:23:14Z</time>
      </trkpt>
      <trkpt lat="39.2870320" lon="-0.7421470">
        <ele>547.0</ele>
        <time>2018-09-16T11:23:15Z</time>
      </trkpt>
      <trkpt lat="39.2870270" lon="-0.7421050">
        <ele>547.0</ele>
        <time>2018-09-16T11:23:16Z</time>
      </trkpt>
      <trkpt lat="39.2870270" lon="-0.7421050">
        <ele>547.0</ele>
        <time>2018-09-16T11:23:17Z</time>
      </trkpt>
      <trkpt lat="39.2870170" lon="-0.7420270">
        <ele>547.0</ele>
        <time>2018-09-16T11:23:18Z</time>
      </trkpt>
      <trkpt lat="39.2870130" lon="-0.7419870">
        <ele>548.0</ele>
        <time>2018-09-16T11:23:19Z</time>
      </trkpt>
      <trkpt lat="39.2870130" lon="-0.7419870">
        <ele>548.0</ele>
        <time>2018-09-16T11:23:20Z</time>
      </trkpt>
      <trkpt lat="39.2870030" lon="-0.7419080">
        <ele>548.0</ele>
        <time>2018-09-16T11:23:21Z</time>
      </trkpt>
      <trkpt lat="39.2870020" lon="-0.7418670">
        <ele>548.0</ele>
        <time>2018-09-16T11:23:22Z</time>
      </trkpt>
      <trkpt lat="39.2870020" lon="-0.7418670">
        <ele>548.0</ele>
        <time>2018-09-16T11:23:23Z</time>
      </trkpt>
      <trkpt lat="39.2869970" lon="-0.7417820">
        <ele>548.0</ele>
        <time>2018-09-16T11:23:24Z</time>
      </trkpt>
      <trkpt lat="39.2869930" lon="-0.7417380">
        <ele>548.0</ele>
        <time>2018-09-16T11:23:25Z</time>
      </trkpt>
      <trkpt lat="39.2869930" lon="-0.7417380">
        <ele>548.0</ele>
        <time>2018-09-16T11:23:26Z</time>
      </trkpt>
      <trkpt lat="39.2869880" lon="-0.7416480">
        <ele>548.0</ele>
        <time>2018-09-16T11:23:27Z</time>
      </trkpt>
      <trkpt lat="39.2869880" lon="-0.7416480">
        <ele>548.0</ele>
        <time>2018-09-16T11:23:28Z</time>
      </trkpt>
      <trkpt lat="39.2869800" lon="-0.7415530">
        <ele>548.0</ele>
        <time>2018-09-16T11:23:29Z</time>
      </trkpt>
      <trkpt lat="39.2869800" lon="-0.7415530">
        <ele>548.0</ele>
        <time>2018-09-16T11:23:30Z</time>
      </trkpt>
      <trkpt lat="39.2869730" lon="-0.7414550">
        <ele>548.0</ele>
        <time>2018-09-16T11:23:31Z</time>
      </trkpt>
      <trkpt lat="39.2869730" lon="-0.7414550">
        <ele>548.0</ele>
        <time>2018-09-16T11:23:32Z</time>
      </trkpt>
      <trkpt lat="39.2869650" lon="-0.7413550">
        <ele>548.0</ele>
        <time>2018-09-16T11:23:33Z</time>
      </trkpt>
      <trkpt lat="39.2869600" lon="-0.7413070">
        <ele>548.0</ele>
        <time>2018-09-16T11:23:34Z</time>
      </trkpt>
      <trkpt lat="39.2869600" lon="-0.7413070">
        <ele>548.0</ele>
        <time>2018-09-16T11:23:35Z</time>
      </trkpt>
      <trkpt lat="39.2869480" lon="-0.7412080">
        <ele>548.0</ele>
        <time>2018-09-16T11:23:36Z</time>
      </trkpt>
      <trkpt lat="39.2869480" lon="-0.7412080">
        <ele>548.0</ele>
        <time>2018-09-16T11:23:37Z</time>
      </trkpt>
      <trkpt lat="39.2869370" lon="-0.7411130">
        <ele>548.0</ele>
        <time>2018-09-16T11:23:38Z</time>
      </trkpt>
      <trkpt lat="39.2869370" lon="-0.7411130">
        <ele>548.0</ele>
        <time>2018-09-16T11:23:39Z</time>
      </trkpt>
      <trkpt lat="39.2869130" lon="-0.7410250">
        <ele>548.0</ele>
        <time>2018-09-16T11:23:40Z</time>
      </trkpt>
      <trkpt lat="39.2869030" lon="-0.7409820">
        <ele>548.0</ele>
        <time>2018-09-16T11:23:41Z</time>
      </trkpt>
      <trkpt lat="39.2869030" lon="-0.7409820">
        <ele>548.0</ele>
        <time>2018-09-16T11:23:42Z</time>
      </trkpt>
      <trkpt lat="39.2868850" lon="-0.7408950">
        <ele>549.0</ele>
        <time>2018-09-16T11:23:43Z</time>
      </trkpt>
      <trkpt lat="39.2868850" lon="-0.7408950">
        <ele>549.0</ele>
        <time>2018-09-16T11:23:44Z</time>
      </trkpt>
      <trkpt lat="39.2868700" lon="-0.7408100">
        <ele>549.0</ele>
        <time>2018-09-16T11:23:45Z</time>
      </trkpt>
      <trkpt lat="39.2868700" lon="-0.7408100">
        <ele>549.0</ele>
        <time>2018-09-16T11:23:46Z</time>
      </trkpt>
      <trkpt lat="39.2868570" lon="-0.7407270">
        <ele>549.0</ele>
        <time>2018-09-16T11:23:47Z</time>
      </trkpt>
      <trkpt lat="39.2868570" lon="-0.7407270">
        <ele>549.0</ele>
        <time>2018-09-16T11:23:48Z</time>
      </trkpt>
      <trkpt lat="39.2868480" lon="-0.7406420">
        <ele>550.0</ele>
        <time>2018-09-16T11:23:49Z</time>
      </trkpt>
      <trkpt lat="39.2868480" lon="-0.7406420">
        <ele>550.0</ele>
        <time>2018-09-16T11:23:50Z</time>
      </trkpt>
      <trkpt lat="39.2868450" lon="-0.7405580">
        <ele>550.0</ele>
        <time>2018-09-16T11:23:51Z</time>
      </trkpt>
      <trkpt lat="39.2868450" lon="-0.7405580">
        <ele>550.0</ele>
        <time>2018-09-16T11:23:52Z</time>
      </trkpt>
      <trkpt lat="39.2868500" lon="-0.7404720">
        <ele>551.0</ele>
        <time>2018-09-16T11:23:53Z</time>
      </trkpt>
      <trkpt lat="39.2868500" lon="-0.7404720">
        <ele>551.0</ele>
        <time>2018-09-16T11:23:54Z</time>
      </trkpt>
      <trkpt lat="39.2868570" lon="-0.7403870">
        <ele>551.0</ele>
        <time>2018-09-16T11:23:55Z</time>
      </trkpt>
      <trkpt lat="39.2868570" lon="-0.7403870">
        <ele>551.0</ele>
        <time>2018-09-16T11:23:56Z</time>
      </trkpt>
      <trkpt lat="39.2868700" lon="-0.7403080">
        <ele>551.0</ele>
        <time>2018-09-16T11:23:57Z</time>
      </trkpt>
      <trkpt lat="39.2868700" lon="-0.7403080">
        <ele>551.0</ele>
        <time>2018-09-16T11:23:58Z</time>
      </trkpt>
      <trkpt lat="39.2868880" lon="-0.7402330">
        <ele>551.0</ele>
        <time>2018-09-16T11:23:59Z</time>
      </trkpt>
      <trkpt lat="39.2868880" lon="-0.7402330">
        <ele>551.0</ele>
        <time>2018-09-16T11:24:00Z</time>
      </trkpt>
      <trkpt lat="39.2869100" lon="-0.7401570">
        <ele>553.0</ele>
        <time>2018-09-16T11:24:01Z</time>
      </trkpt>
      <trkpt lat="39.2869100" lon="-0.7401570">
        <ele>553.0</ele>
        <time>2018-09-16T11:24:02Z</time>
      </trkpt>
      <trkpt lat="39.2869320" lon="-0.7400770">
        <ele>553.0</ele>
        <time>2018-09-16T11:24:03Z</time>
      </trkpt>
      <trkpt lat="39.2869320" lon="-0.7400770">
        <ele>553.0</ele>
        <time>2018-09-16T11:24:04Z</time>
      </trkpt>
      <trkpt lat="39.2869550" lon="-0.7400000">
        <ele>553.0</ele>
        <time>2018-09-16T11:24:05Z</time>
      </trkpt>
      <trkpt lat="39.2869550" lon="-0.7400000">
        <ele>553.0</ele>
        <time>2018-09-16T11:24:06Z</time>
      </trkpt>
      <trkpt lat="39.2869800" lon="-0.7399220">
        <ele>553.0</ele>
        <time>2018-09-16T11:24:07Z</time>
      </trkpt>
      <trkpt lat="39.2869800" lon="-0.7399220">
        <ele>553.0</ele>
        <time>2018-09-16T11:24:08Z</time>
      </trkpt>
      <trkpt lat="39.2870080" lon="-0.7398450">
        <ele>554.0</ele>
        <time>2018-09-16T11:24:09Z</time>
      </trkpt>
      <trkpt lat="39.2870230" lon="-0.7398080">
        <ele>554.0</ele>
        <time>2018-09-16T11:24:10Z</time>
      </trkpt>
      <trkpt lat="39.2870230" lon="-0.7398080">
        <ele>554.0</ele>
        <time>2018-09-16T11:24:11Z</time>
      </trkpt>
      <trkpt lat="39.2870580" lon="-0.7397370">
        <ele>554.0</ele>
        <time>2018-09-16T11:24:12Z</time>
      </trkpt>
      <trkpt lat="39.2870780" lon="-0.7396980">
        <ele>555.0</ele>
        <time>2018-09-16T11:24:13Z</time>
      </trkpt>
      <trkpt lat="39.2870780" lon="-0.7396980">
        <ele>555.0</ele>
        <time>2018-09-16T11:24:14Z</time>
      </trkpt>
      <trkpt lat="39.2871130" lon="-0.7396230">
        <ele>555.0</ele>
        <time>2018-09-16T11:24:15Z</time>
      </trkpt>
      <trkpt lat="39.2871320" lon="-0.7395830">
        <ele>555.0</ele>
        <time>2018-09-16T11:24:16Z</time>
      </trkpt>
      <trkpt lat="39.2871320" lon="-0.7395830">
        <ele>555.0</ele>
        <time>2018-09-16T11:24:17Z</time>
      </trkpt>
      <trkpt lat="39.2871670" lon="-0.7395030">
        <ele>555.0</ele>
        <time>2018-09-16T11:24:18Z</time>
      </trkpt>
      <trkpt lat="39.2871850" lon="-0.7394650">
        <ele>555.0</ele>
        <time>2018-09-16T11:24:19Z</time>
      </trkpt>
      <trkpt lat="39.2871850" lon="-0.7394650">
        <ele>555.0</ele>
        <time>2018-09-16T11:24:20Z</time>
      </trkpt>
      <trkpt lat="39.2872200" lon="-0.7393850">
        <ele>555.0</ele>
        <time>2018-09-16T11:24:21Z</time>
      </trkpt>
      <trkpt lat="39.2872350" lon="-0.7393400">
        <ele>555.0</ele>
        <time>2018-09-16T11:24:22Z</time>
      </trkpt>
      <trkpt lat="39.2872350" lon="-0.7393400">
        <ele>555.0</ele>
        <time>2018-09-16T11:24:23Z</time>
      </trkpt>
      <trkpt lat="39.2872580" lon="-0.7392450">
        <ele>555.0</ele>
        <time>2018-09-16T11:24:24Z</time>
      </trkpt>
      <trkpt lat="39.2872670" lon="-0.7391930">
        <ele>555.0</ele>
        <time>2018-09-16T11:24:25Z</time>
      </trkpt>
      <trkpt lat="39.2872670" lon="-0.7391930">
        <ele>555.0</ele>
        <time>2018-09-16T11:24:26Z</time>
      </trkpt>
      <trkpt lat="39.2872800" lon="-0.7390820">
        <ele>555.0</ele>
        <time>2018-09-16T11:24:27Z</time>
      </trkpt>
      <trkpt lat="39.2872820" lon="-0.7390200">
        <ele>555.0</ele>
        <time>2018-09-16T11:24:28Z</time>
      </trkpt>
      <trkpt lat="39.2872820" lon="-0.7390200">
        <ele>555.0</ele>
        <time>2018-09-16T11:24:29Z</time>
      </trkpt>
      <trkpt lat="39.2872750" lon="-0.7388870">
        <ele>555.0</ele>
        <time>2018-09-16T11:24:30Z</time>
      </trkpt>
      <trkpt lat="39.2872650" lon="-0.7388150">
        <ele>555.0</ele>
        <time>2018-09-16T11:24:31Z</time>
      </trkpt>
      <trkpt lat="39.2872650" lon="-0.7388150">
        <ele>555.0</ele>
        <time>2018-09-16T11:24:32Z</time>
      </trkpt>
      <trkpt lat="39.2872500" lon="-0.7386550">
        <ele>554.0</ele>
        <time>2018-09-16T11:24:33Z</time>
      </trkpt>
      <trkpt lat="39.2872430" lon="-0.7385720">
        <ele>554.0</ele>
        <time>2018-09-16T11:24:34Z</time>
      </trkpt>
      <trkpt lat="39.2872430" lon="-0.7385720">
        <ele>554.0</ele>
        <time>2018-09-16T11:24:35Z</time>
      </trkpt>
      <trkpt lat="39.2872450" lon="-0.7383980">
        <ele>554.0</ele>
        <time>2018-09-16T11:24:36Z</time>
      </trkpt>
      <trkpt lat="39.2872580" lon="-0.7383100">
        <ele>553.0</ele>
        <time>2018-09-16T11:24:37Z</time>
      </trkpt>
      <trkpt lat="39.2872580" lon="-0.7383100">
        <ele>553.0</ele>
        <time>2018-09-16T11:24:38Z</time>
      </trkpt>
      <trkpt lat="39.2873130" lon="-0.7381330">
        <ele>553.0</ele>
        <time>2018-09-16T11:24:39Z</time>
      </trkpt>
      <trkpt lat="39.2873130" lon="-0.7381330">
        <ele>553.0</ele>
        <time>2018-09-16T11:24:40Z</time>
      </trkpt>
      <trkpt lat="39.2873830" lon="-0.7379530">
        <ele>553.0</ele>
        <time>2018-09-16T11:24:41Z</time>
      </trkpt>
      <trkpt lat="39.2873830" lon="-0.7379530">
        <ele>552.0</ele>
        <time>2018-09-16T11:24:42Z</time>
      </trkpt>
      <trkpt lat="39.2874520" lon="-0.7377550">
        <ele>552.0</ele>
        <time>2018-09-16T11:24:43Z</time>
      </trkpt>
      <trkpt lat="39.2874520" lon="-0.7377550">
        <ele>551.0</ele>
        <time>2018-09-16T11:24:44Z</time>
      </trkpt>
      <trkpt lat="39.2875070" lon="-0.7375420">
        <ele>551.0</ele>
        <time>2018-09-16T11:24:45Z</time>
      </trkpt>
      <trkpt lat="39.2875070" lon="-0.7375420">
        <ele>551.0</ele>
        <time>2018-09-16T11:24:46Z</time>
      </trkpt>
      <trkpt lat="39.2875580" lon="-0.7373250">
        <ele>550.0</ele>
        <time>2018-09-16T11:24:47Z</time>
      </trkpt>
      <trkpt lat="39.2875580" lon="-0.7373250">
        <ele>550.0</ele>
        <time>2018-09-16T11:24:48Z</time>
      </trkpt>
      <trkpt lat="39.2876280" lon="-0.7371170">
        <ele>549.0</ele>
        <time>2018-09-16T11:24:49Z</time>
      </trkpt>
      <trkpt lat="39.2876280" lon="-0.7371170">
        <ele>549.0</ele>
        <time>2018-09-16T11:24:50Z</time>
      </trkpt>
      <trkpt lat="39.2877150" lon="-0.7369180">
        <ele>548.0</ele>
        <time>2018-09-16T11:24:51Z</time>
      </trkpt>
      <trkpt lat="39.2877620" lon="-0.7368270">
        <ele>548.0</ele>
        <time>2018-09-16T11:24:52Z</time>
      </trkpt>
      <trkpt lat="39.2877620" lon="-0.7368270">
        <ele>548.0</ele>
        <time>2018-09-16T11:24:53Z</time>
      </trkpt>
      <trkpt lat="39.2878500" lon="-0.7366350">
        <ele>548.0</ele>
        <time>2018-09-16T11:24:54Z</time>
      </trkpt>
      <trkpt lat="39.2878700" lon="-0.7365320">
        <ele>547.0</ele>
        <time>2018-09-16T11:24:55Z</time>
      </trkpt>
      <trkpt lat="39.2878700" lon="-0.7365320">
        <ele>547.0</ele>
        <time>2018-09-16T11:24:56Z</time>
      </trkpt>
      <trkpt lat="39.2878430" lon="-0.7363300">
        <ele>547.0</ele>
        <time>2018-09-16T11:24:57Z</time>
      </trkpt>
      <trkpt lat="39.2878430" lon="-0.7363300">
        <ele>547.0</ele>
        <time>2018-09-16T11:24:58Z</time>
      </trkpt>
      <trkpt lat="39.2878050" lon="-0.7361270">
        <ele>546.0</ele>
        <time>2018-09-16T11:24:59Z</time>
      </trkpt>
      <trkpt lat="39.2878050" lon="-0.7361270">
        <ele>546.0</ele>
        <time>2018-09-16T11:25:00Z</time>
      </trkpt>
      <trkpt lat="39.2877820" lon="-0.7359200">
        <ele>546.0</ele>
        <time>2018-09-16T11:25:01Z</time>
      </trkpt>
      <trkpt lat="39.2877820" lon="-0.7359200">
        <ele>546.0</ele>
        <time>2018-09-16T11:25:02Z</time>
      </trkpt>
      <trkpt lat="39.2877820" lon="-0.7357070">
        <ele>546.0</ele>
        <time>2018-09-16T11:25:03Z</time>
      </trkpt>
      <trkpt lat="39.2877820" lon="-0.7357070">
        <ele>545.0</ele>
        <time>2018-09-16T11:25:04Z</time>
      </trkpt>
      <trkpt lat="39.2877980" lon="-0.7354830">
        <ele>545.0</ele>
        <time>2018-09-16T11:25:05Z</time>
      </trkpt>
      <trkpt lat="39.2878050" lon="-0.7353700">
        <ele>544.0</ele>
        <time>2018-09-16T11:25:06Z</time>
      </trkpt>
      <trkpt lat="39.2878080" lon="-0.7352530">
        <ele>544.0</ele>
        <time>2018-09-16T11:25:07Z</time>
      </trkpt>
      <trkpt lat="39.2878080" lon="-0.7352530">
        <ele>544.0</ele>
        <time>2018-09-16T11:25:08Z</time>
      </trkpt>
      <trkpt lat="39.2878200" lon="-0.7350180">
        <ele>544.0</ele>
        <time>2018-09-16T11:25:09Z</time>
      </trkpt>
      <trkpt lat="39.2878200" lon="-0.7350180">
        <ele>543.0</ele>
        <time>2018-09-16T11:25:10Z</time>
      </trkpt>
      <trkpt lat="39.2878380" lon="-0.7347750">
        <ele>543.0</ele>
        <time>2018-09-16T11:25:11Z</time>
      </trkpt>
      <trkpt lat="39.2878380" lon="-0.7347750">
        <ele>542.0</ele>
        <time>2018-09-16T11:25:12Z</time>
      </trkpt>
      <trkpt lat="39.2878750" lon="-0.7345300">
        <ele>542.0</ele>
        <time>2018-09-16T11:25:13Z</time>
      </trkpt>
      <trkpt lat="39.2878750" lon="-0.7345300">
        <ele>541.0</ele>
        <time>2018-09-16T11:25:14Z</time>
      </trkpt>
      <trkpt lat="39.2879470" lon="-0.7342950">
        <ele>541.0</ele>
        <time>2018-09-16T11:25:15Z</time>
      </trkpt>
      <trkpt lat="39.2879470" lon="-0.7342950">
        <ele>541.0</ele>
        <time>2018-09-16T11:25:16Z</time>
      </trkpt>
      <trkpt lat="39.2880580" lon="-0.7340780">
        <ele>541.0</ele>
        <time>2018-09-16T11:25:17Z</time>
      </trkpt>
      <trkpt lat="39.2881170" lon="-0.7339720">
        <ele>539.0</ele>
        <time>2018-09-16T11:25:18Z</time>
      </trkpt>
      <trkpt lat="39.2881170" lon="-0.7339720">
        <ele>539.0</ele>
        <time>2018-09-16T11:25:19Z</time>
      </trkpt>
      <trkpt lat="39.2882100" lon="-0.7337370">
        <ele>538.0</ele>
        <time>2018-09-16T11:25:20Z</time>
      </trkpt>
      <trkpt lat="39.2882420" lon="-0.7336120">
        <ele>538.0</ele>
        <time>2018-09-16T11:25:21Z</time>
      </trkpt>
      <trkpt lat="39.2882420" lon="-0.7336120">
        <ele>537.0</ele>
        <time>2018-09-16T11:25:22Z</time>
      </trkpt>
      <trkpt lat="39.2882850" lon="-0.7333400">
        <ele>537.0</ele>
        <time>2018-09-16T11:25:23Z</time>
      </trkpt>
      <trkpt lat="39.2883030" lon="-0.7331980">
        <ele>536.0</ele>
        <time>2018-09-16T11:25:24Z</time>
      </trkpt>
      <trkpt lat="39.2883230" lon="-0.7330530">
        <ele>536.0</ele>
        <time>2018-09-16T11:25:25Z</time>
      </trkpt>
      <trkpt lat="39.2883230" lon="-0.7330530">
        <ele>535.0</ele>
        <time>2018-09-16T11:25:26Z</time>
      </trkpt>
      <trkpt lat="39.2883670" lon="-0.7327620">
        <ele>535.0</ele>
        <time>2018-09-16T11:25:27Z</time>
      </trkpt>
      <trkpt lat="39.2883670" lon="-0.7327620">
        <ele>534.0</ele>
        <time>2018-09-16T11:25:28Z</time>
      </trkpt>
      <trkpt lat="39.2884300" lon="-0.7324750">
        <ele>534.0</ele>
        <time>2018-09-16T11:25:29Z</time>
      </trkpt>
      <trkpt lat="39.2884770" lon="-0.7323400">
        <ele>533.0</ele>
        <time>2018-09-16T11:25:30Z</time>
      </trkpt>
      <trkpt lat="39.2884770" lon="-0.7323400">
        <ele>532.0</ele>
        <time>2018-09-16T11:25:31Z</time>
      </trkpt>
      <trkpt lat="39.2886070" lon="-0.7320920">
        <ele>532.0</ele>
        <time>2018-09-16T11:25:32Z</time>
      </trkpt>
      <trkpt lat="39.2886070" lon="-0.7320920">
        <ele>532.0</ele>
        <time>2018-09-16T11:25:33Z</time>
      </trkpt>
      <trkpt lat="39.2887650" lon="-0.7318970">
        <ele>532.0</ele>
        <time>2018-09-16T11:25:34Z</time>
      </trkpt>
      <trkpt lat="39.2887650" lon="-0.7318970">
        <ele>532.0</ele>
        <time>2018-09-16T11:25:35Z</time>
      </trkpt>
      <trkpt lat="39.2889430" lon="-0.7317530">
        <ele>532.0</ele>
        <time>2018-09-16T11:25:36Z</time>
      </trkpt>
      <trkpt lat="39.2889430" lon="-0.7317530">
        <ele>532.0</ele>
        <time>2018-09-16T11:25:37Z</time>
      </trkpt>
      <trkpt lat="39.2891300" lon="-0.7316520">
        <ele>532.0</ele>
        <time>2018-09-16T11:25:38Z</time>
      </trkpt>
      <trkpt lat="39.2891300" lon="-0.7316520">
        <ele>532.0</ele>
        <time>2018-09-16T11:25:39Z</time>
      </trkpt>
      <trkpt lat="39.2893050" lon="-0.7315500">
        <ele>532.0</ele>
        <time>2018-09-16T11:25:40Z</time>
      </trkpt>
      <trkpt lat="39.2893850" lon="-0.7314880">
        <ele>530.0</ele>
        <time>2018-09-16T11:25:41Z</time>
      </trkpt>
      <trkpt lat="39.2894570" lon="-0.7314200">
        <ele>530.0</ele>
        <time>2018-09-16T11:25:42Z</time>
      </trkpt>
      <trkpt lat="39.2894570" lon="-0.7314200">
        <ele>530.0</ele>
        <time>2018-09-16T11:25:43Z</time>
      </trkpt>
      <trkpt lat="39.2895730" lon="-0.7312650">
        <ele>530.0</ele>
        <time>2018-09-16T11:25:44Z</time>
      </trkpt>
      <trkpt lat="39.2895730" lon="-0.7312650">
        <ele>530.0</ele>
        <time>2018-09-16T11:25:45Z</time>
      </trkpt>
      <trkpt lat="39.2896580" lon="-0.7310880">
        <ele>530.0</ele>
        <time>2018-09-16T11:25:46Z</time>
      </trkpt>
      <trkpt lat="39.2896580" lon="-0.7310880">
        <ele>530.0</ele>
        <time>2018-09-16T11:25:47Z</time>
      </trkpt>
      <trkpt lat="39.2897230" lon="-0.7308930">
        <ele>530.0</ele>
        <time>2018-09-16T11:25:48Z</time>
      </trkpt>
      <trkpt lat="39.2897430" lon="-0.7307920">
        <ele>530.0</ele>
        <time>2018-09-16T11:25:49Z</time>
      </trkpt>
      <trkpt lat="39.2897430" lon="-0.7307920">
        <ele>530.0</ele>
        <time>2018-09-16T11:25:50Z</time>
      </trkpt>
      <trkpt lat="39.2897500" lon="-0.7305800">
        <ele>529.0</ele>
        <time>2018-09-16T11:25:51Z</time>
      </trkpt>
      <trkpt lat="39.2897500" lon="-0.7305800">
        <ele>529.0</ele>
        <time>2018-09-16T11:25:52Z</time>
      </trkpt>
      <trkpt lat="39.2897120" lon="-0.7303630">
        <ele>529.0</ele>
        <time>2018-09-16T11:25:53Z</time>
      </trkpt>
      <trkpt lat="39.2896750" lon="-0.7302570">
        <ele>529.0</ele>
        <time>2018-09-16T11:25:54Z</time>
      </trkpt>
      <trkpt lat="39.2896750" lon="-0.7302570">
        <ele>527.0</ele>
        <time>2018-09-16T11:25:55Z</time>
      </trkpt>
      <trkpt lat="39.2895580" lon="-0.7300650">
        <ele>527.0</ele>
        <time>2018-09-16T11:25:56Z</time>
      </trkpt>
      <trkpt lat="39.2895580" lon="-0.7300650">
        <ele>526.0</ele>
        <time>2018-09-16T11:25:57Z</time>
      </trkpt>
      <trkpt lat="39.2894000" lon="-0.7299020">
        <ele>525.0</ele>
        <time>2018-09-16T11:25:58Z</time>
      </trkpt>
      <trkpt lat="39.2894000" lon="-0.7299020">
        <ele>525.0</ele>
        <time>2018-09-16T11:25:59Z</time>
      </trkpt>
      <trkpt lat="39.2892370" lon="-0.7297400">
        <ele>524.0</ele>
        <time>2018-09-16T11:26:00Z</time>
      </trkpt>
      <trkpt lat="39.2892370" lon="-0.7297400">
        <ele>524.0</ele>
        <time>2018-09-16T11:26:01Z</time>
      </trkpt>
      <trkpt lat="39.2890970" lon="-0.7295400">
        <ele>523.0</ele>
        <time>2018-09-16T11:26:02Z</time>
      </trkpt>
      <trkpt lat="39.2890970" lon="-0.7295400">
        <ele>523.0</ele>
        <time>2018-09-16T11:26:03Z</time>
      </trkpt>
      <trkpt lat="39.2889800" lon="-0.7293130">
        <ele>523.0</ele>
        <time>2018-09-16T11:26:04Z</time>
      </trkpt>
      <trkpt lat="39.2889800" lon="-0.7293130">
        <ele>522.0</ele>
        <time>2018-09-16T11:26:05Z</time>
      </trkpt>
      <trkpt lat="39.2888780" lon="-0.7290780">
        <ele>522.0</ele>
        <time>2018-09-16T11:26:06Z</time>
      </trkpt>
      <trkpt lat="39.2888780" lon="-0.7290780">
        <ele>521.0</ele>
        <time>2018-09-16T11:26:07Z</time>
      </trkpt>
      <trkpt lat="39.2888030" lon="-0.7288350">
        <ele>521.0</ele>
        <time>2018-09-16T11:26:08Z</time>
      </trkpt>
      <trkpt lat="39.2888030" lon="-0.7288350">
        <ele>519.0</ele>
        <time>2018-09-16T11:26:09Z</time>
      </trkpt>
      <trkpt lat="39.2888070" lon="-0.7285770">
        <ele>519.0</ele>
        <time>2018-09-16T11:26:10Z</time>
      </trkpt>
      <trkpt lat="39.2888070" lon="-0.7285770">
        <ele>518.0</ele>
        <time>2018-09-16T11:26:11Z</time>
      </trkpt>
      <trkpt lat="39.2888530" lon="-0.7283130">
        <ele>518.0</ele>
        <time>2018-09-16T11:26:12Z</time>
      </trkpt>
      <trkpt lat="39.2888530" lon="-0.7283130">
        <ele>517.0</ele>
        <time>2018-09-16T11:26:13Z</time>
      </trkpt>
      <trkpt lat="39.2888520" lon="-0.7280320">
        <ele>517.0</ele>
        <time>2018-09-16T11:26:14Z</time>
      </trkpt>
      <trkpt lat="39.2888520" lon="-0.7280320">
        <ele>516.0</ele>
        <time>2018-09-16T11:26:15Z</time>
      </trkpt>
      <trkpt lat="39.2888600" lon="-0.7277370">
        <ele>516.0</ele>
        <time>2018-09-16T11:26:16Z</time>
      </trkpt>
      <trkpt lat="39.2888600" lon="-0.7277370">
        <ele>515.0</ele>
        <time>2018-09-16T11:26:17Z</time>
      </trkpt>
      <trkpt lat="39.2889070" lon="-0.7274430">
        <ele>515.0</ele>
        <time>2018-09-16T11:26:18Z</time>
      </trkpt>
      <trkpt lat="39.2889330" lon="-0.7272930">
        <ele>514.0</ele>
        <time>2018-09-16T11:26:19Z</time>
      </trkpt>
      <trkpt lat="39.2889330" lon="-0.7272930">
        <ele>514.0</ele>
        <time>2018-09-16T11:26:20Z</time>
      </trkpt>
      <trkpt lat="39.2889380" lon="-0.7269870">
        <ele>513.0</ele>
        <time>2018-09-16T11:26:21Z</time>
      </trkpt>
      <trkpt lat="39.2889330" lon="-0.7268370">
        <ele>513.0</ele>
        <time>2018-09-16T11:26:22Z</time>
      </trkpt>
      <trkpt lat="39.2889330" lon="-0.7268370">
        <ele>512.0</ele>
        <time>2018-09-16T11:26:23Z</time>
      </trkpt>
      <trkpt lat="39.2889550" lon="-0.7265500">
        <ele>511.0</ele>
        <time>2018-09-16T11:26:24Z</time>
      </trkpt>
      <trkpt lat="39.2889900" lon="-0.7264170">
        <ele>511.0</ele>
        <time>2018-09-16T11:26:25Z</time>
      </trkpt>
      <trkpt lat="39.2889900" lon="-0.7264170">
        <ele>509.0</ele>
        <time>2018-09-16T11:26:26Z</time>
      </trkpt>
      <trkpt lat="39.2891030" lon="-0.7261800">
        <ele>509.0</ele>
        <time>2018-09-16T11:26:27Z</time>
      </trkpt>
      <trkpt lat="39.2891030" lon="-0.7261800">
        <ele>508.0</ele>
        <time>2018-09-16T11:26:28Z</time>
      </trkpt>
      <trkpt lat="39.2892650" lon="-0.7260370">
        <ele>508.0</ele>
        <time>2018-09-16T11:26:29Z</time>
      </trkpt>
      <trkpt lat="39.2892650" lon="-0.7260370">
        <ele>506.0</ele>
        <time>2018-09-16T11:26:30Z</time>
      </trkpt>
      <trkpt lat="39.2894500" lon="-0.7260680">
        <ele>506.0</ele>
        <time>2018-09-16T11:26:31Z</time>
      </trkpt>
      <trkpt lat="39.2894500" lon="-0.7260680">
        <ele>505.0</ele>
        <time>2018-09-16T11:26:32Z</time>
      </trkpt>
      <trkpt lat="39.2895570" lon="-0.7262970">
        <ele>505.0</ele>
        <time>2018-09-16T11:26:33Z</time>
      </trkpt>
      <trkpt lat="39.2895570" lon="-0.7262970">
        <ele>503.0</ele>
        <time>2018-09-16T11:26:34Z</time>
      </trkpt>
      <trkpt lat="39.2896320" lon="-0.7265580">
        <ele>503.0</ele>
        <time>2018-09-16T11:26:35Z</time>
      </trkpt>
      <trkpt lat="39.2896320" lon="-0.7265580">
        <ele>502.0</ele>
        <time>2018-09-16T11:26:36Z</time>
      </trkpt>
      <trkpt lat="39.2897950" lon="-0.7266800">
        <ele>502.0</ele>
        <time>2018-09-16T11:26:37Z</time>
      </trkpt>
      <trkpt lat="39.2897950" lon="-0.7266800">
        <ele>500.0</ele>
        <time>2018-09-16T11:26:38Z</time>
      </trkpt>
      <trkpt lat="39.2899720" lon="-0.7265750">
        <ele>500.0</ele>
        <time>2018-09-16T11:26:39Z</time>
      </trkpt>
      <trkpt lat="39.2899720" lon="-0.7265750">
        <ele>498.0</ele>
        <time>2018-09-16T11:26:40Z</time>
      </trkpt>
      <trkpt lat="39.2900880" lon="-0.7263370">
        <ele>498.0</ele>
        <time>2018-09-16T11:26:41Z</time>
      </trkpt>
      <trkpt lat="39.2900880" lon="-0.7263370">
        <ele>497.0</ele>
        <time>2018-09-16T11:26:42Z</time>
      </trkpt>
      <trkpt lat="39.2902020" lon="-0.7260800">
        <ele>497.0</ele>
        <time>2018-09-16T11:26:43Z</time>
      </trkpt>
      <trkpt lat="39.2902020" lon="-0.7260800">
        <ele>495.0</ele>
        <time>2018-09-16T11:26:44Z</time>
      </trkpt>
      <trkpt lat="39.2903080" lon="-0.7258080">
        <ele>495.0</ele>
        <time>2018-09-16T11:26:45Z</time>
      </trkpt>
      <trkpt lat="39.2903080" lon="-0.7258080">
        <ele>492.0</ele>
        <time>2018-09-16T11:26:46Z</time>
      </trkpt>
      <trkpt lat="39.2903230" lon="-0.7255030">
        <ele>492.0</ele>
        <time>2018-09-16T11:26:47Z</time>
      </trkpt>
      <trkpt lat="39.2903230" lon="-0.7255030">
        <ele>490.0</ele>
        <time>2018-09-16T11:26:48Z</time>
      </trkpt>
      <trkpt lat="39.2902680" lon="-0.7251820">
        <ele>490.0</ele>
        <time>2018-09-16T11:26:49Z</time>
      </trkpt>
      <trkpt lat="39.2902680" lon="-0.7251820">
        <ele>488.0</ele>
        <time>2018-09-16T11:26:50Z</time>
      </trkpt>
      <trkpt lat="39.2902250" lon="-0.7248420">
        <ele>486.0</ele>
        <time>2018-09-16T11:26:51Z</time>
      </trkpt>
      <trkpt lat="39.2902250" lon="-0.7248420">
        <ele>486.0</ele>
        <time>2018-09-16T11:26:52Z</time>
      </trkpt>
      <trkpt lat="39.2902300" lon="-0.7244870">
        <ele>483.0</ele>
        <time>2018-09-16T11:26:53Z</time>
      </trkpt>
      <trkpt lat="39.2902300" lon="-0.7244870">
        <ele>483.0</ele>
        <time>2018-09-16T11:26:54Z</time>
      </trkpt>
      <trkpt lat="39.2902500" lon="-0.7241220">
        <ele>481.0</ele>
        <time>2018-09-16T11:26:55Z</time>
      </trkpt>
      <trkpt lat="39.2902500" lon="-0.7241220">
        <ele>481.0</ele>
        <time>2018-09-16T11:26:56Z</time>
      </trkpt>
      <trkpt lat="39.2902920" lon="-0.7237530">
        <ele>478.0</ele>
        <time>2018-09-16T11:26:57Z</time>
      </trkpt>
      <trkpt lat="39.2902920" lon="-0.7237530">
        <ele>478.0</ele>
        <time>2018-09-16T11:26:58Z</time>
      </trkpt>
      <trkpt lat="39.2904130" lon="-0.7234170">
        <ele>476.0</ele>
        <time>2018-09-16T11:26:59Z</time>
      </trkpt>
      <trkpt lat="39.2904130" lon="-0.7234170">
        <ele>476.0</ele>
        <time>2018-09-16T11:27:00Z</time>
      </trkpt>
      <trkpt lat="39.2906000" lon="-0.7231180">
        <ele>473.0</ele>
        <time>2018-09-16T11:27:01Z</time>
      </trkpt>
      <trkpt lat="39.2906000" lon="-0.7231180">
        <ele>473.0</ele>
        <time>2018-09-16T11:27:02Z</time>
      </trkpt>
      <trkpt lat="39.2907930" lon="-0.7228250">
        <ele>471.0</ele>
        <time>2018-09-16T11:27:03Z</time>
      </trkpt>
      <trkpt lat="39.2907930" lon="-0.7228250">
        <ele>471.0</ele>
        <time>2018-09-16T11:27:04Z</time>
      </trkpt>
      <trkpt lat="39.2910050" lon="-0.7225650">
        <ele>468.0</ele>
        <time>2018-09-16T11:27:05Z</time>
      </trkpt>
      <trkpt lat="39.2910050" lon="-0.7225650">
        <ele>468.0</ele>
        <time>2018-09-16T11:27:06Z</time>
      </trkpt>
      <trkpt lat="39.2912500" lon="-0.7223880">
        <ele>465.0</ele>
        <time>2018-09-16T11:27:07Z</time>
      </trkpt>
      <trkpt lat="39.2912500" lon="-0.7223880">
        <ele>465.0</ele>
        <time>2018-09-16T11:27:08Z</time>
      </trkpt>
      <trkpt lat="39.2914230" lon="-0.7221420">
        <ele>463.0</ele>
        <time>2018-09-16T11:27:09Z</time>
      </trkpt>
      <trkpt lat="39.2914230" lon="-0.7221420">
        <ele>463.0</ele>
        <time>2018-09-16T11:27:10Z</time>
      </trkpt>
      <trkpt lat="39.2915530" lon="-0.7218320">
        <ele>461.0</ele>
        <time>2018-09-16T11:27:11Z</time>
      </trkpt>
      <trkpt lat="39.2915530" lon="-0.7218320">
        <ele>461.0</ele>
        <time>2018-09-16T11:27:12Z</time>
      </trkpt>
      <trkpt lat="39.2917130" lon="-0.7215330">
        <ele>460.0</ele>
        <time>2018-09-16T11:27:13Z</time>
      </trkpt>
      <trkpt lat="39.2917130" lon="-0.7215330">
        <ele>457.0</ele>
        <time>2018-09-16T11:27:14Z</time>
      </trkpt>
      <trkpt lat="39.2918950" lon="-0.7212580">
        <ele>457.0</ele>
        <time>2018-09-16T11:27:15Z</time>
      </trkpt>
      <trkpt lat="39.2918950" lon="-0.7212580">
        <ele>457.0</ele>
        <time>2018-09-16T11:27:16Z</time>
      </trkpt>
      <trkpt lat="39.2920920" lon="-0.7210650">
        <ele>455.0</ele>
        <time>2018-09-16T11:27:17Z</time>
      </trkpt>
      <trkpt lat="39.2920920" lon="-0.7210650">
        <ele>453.0</ele>
        <time>2018-09-16T11:27:18Z</time>
      </trkpt>
      <trkpt lat="39.2923370" lon="-0.7210280">
        <ele>453.0</ele>
        <time>2018-09-16T11:27:19Z</time>
      </trkpt>
      <trkpt lat="39.2923370" lon="-0.7210280">
        <ele>451.0</ele>
        <time>2018-09-16T11:27:20Z</time>
      </trkpt>
      <trkpt lat="39.2926020" lon="-0.7210450">
        <ele>451.0</ele>
        <time>2018-09-16T11:27:21Z</time>
      </trkpt>
      <trkpt lat="39.2927350" lon="-0.7210220">
        <ele>449.0</ele>
        <time>2018-09-16T11:27:22Z</time>
      </trkpt>
      <trkpt lat="39.2927350" lon="-0.7210220">
        <ele>449.0</ele>
        <time>2018-09-16T11:27:23Z</time>
      </trkpt>
      <trkpt lat="39.2929900" lon="-0.7209130">
        <ele>447.0</ele>
        <time>2018-09-16T11:27:24Z</time>
      </trkpt>
      <trkpt lat="39.2931300" lon="-0.7208580">
        <ele>447.0</ele>
        <time>2018-09-16T11:27:25Z</time>
      </trkpt>
      <trkpt lat="39.2931300" lon="-0.7208580">
        <ele>445.0</ele>
        <time>2018-09-16T11:27:26Z</time>
      </trkpt>
      <trkpt lat="39.2934020" lon="-0.7208430">
        <ele>445.0</ele>
        <time>2018-09-16T11:27:27Z</time>
      </trkpt>
      <trkpt lat="39.2935300" lon="-0.7208670">
        <ele>443.0</ele>
        <time>2018-09-16T11:27:28Z</time>
      </trkpt>
      <trkpt lat="39.2935300" lon="-0.7208670">
        <ele>443.0</ele>
        <time>2018-09-16T11:27:29Z</time>
      </trkpt>
      <trkpt lat="39.2937620" lon="-0.7209470">
        <ele>441.0</ele>
        <time>2018-09-16T11:27:30Z</time>
      </trkpt>
      <trkpt lat="39.2938700" lon="-0.7209450">
        <ele>441.0</ele>
        <time>2018-09-16T11:27:31Z</time>
      </trkpt>
      <trkpt lat="39.2938700" lon="-0.7209450">
        <ele>440.0</ele>
        <time>2018-09-16T11:27:32Z</time>
      </trkpt>
      <trkpt lat="39.2940630" lon="-0.7207820">
        <ele>440.0</ele>
        <time>2018-09-16T11:27:33Z</time>
      </trkpt>
      <trkpt lat="39.2940630" lon="-0.7207820">
        <ele>438.0</ele>
        <time>2018-09-16T11:27:34Z</time>
      </trkpt>
      <trkpt lat="39.2942630" lon="-0.7205920">
        <ele>438.0</ele>
        <time>2018-09-16T11:27:35Z</time>
      </trkpt>
      <trkpt lat="39.2942630" lon="-0.7205920">
        <ele>437.0</ele>
        <time>2018-09-16T11:27:36Z</time>
      </trkpt>
      <trkpt lat="39.2944950" lon="-0.7204620">
        <ele>437.0</ele>
        <time>2018-09-16T11:27:37Z</time>
      </trkpt>
      <trkpt lat="39.2944950" lon="-0.7204620">
        <ele>435.0</ele>
        <time>2018-09-16T11:27:38Z</time>
      </trkpt>
      <trkpt lat="39.2946800" lon="-0.7203130">
        <ele>435.0</ele>
        <time>2018-09-16T11:27:39Z</time>
      </trkpt>
      <trkpt lat="39.2946800" lon="-0.7203130">
        <ele>432.0</ele>
        <time>2018-09-16T11:27:40Z</time>
      </trkpt>
      <trkpt lat="39.2947930" lon="-0.7200420">
        <ele>432.0</ele>
        <time>2018-09-16T11:27:41Z</time>
      </trkpt>
      <trkpt lat="39.2947930" lon="-0.7200420">
        <ele>430.0</ele>
        <time>2018-09-16T11:27:42Z</time>
      </trkpt>
      <trkpt lat="39.2949180" lon="-0.7197700">
        <ele>430.0</ele>
        <time>2018-09-16T11:27:43Z</time>
      </trkpt>
      <trkpt lat="39.2949180" lon="-0.7197700">
        <ele>428.0</ele>
        <time>2018-09-16T11:27:44Z</time>
      </trkpt>
      <trkpt lat="39.2950970" lon="-0.7195420">
        <ele>425.0</ele>
        <time>2018-09-16T11:27:45Z</time>
      </trkpt>
      <trkpt lat="39.2950970" lon="-0.7195420">
        <ele>425.0</ele>
        <time>2018-09-16T11:27:46Z</time>
      </trkpt>
      <trkpt lat="39.2953220" lon="-0.7194020">
        <ele>423.0</ele>
        <time>2018-09-16T11:27:47Z</time>
      </trkpt>
      <trkpt lat="39.2954470" lon="-0.7193770">
        <ele>423.0</ele>
        <time>2018-09-16T11:27:48Z</time>
      </trkpt>
      <trkpt lat="39.2954470" lon="-0.7193770">
        <ele>422.0</ele>
        <time>2018-09-16T11:27:49Z</time>
      </trkpt>
      <trkpt lat="39.2956900" lon="-0.7194530">
        <ele>422.0</ele>
        <time>2018-09-16T11:27:50Z</time>
      </trkpt>
      <trkpt lat="39.2958080" lon="-0.7195180">
        <ele>420.0</ele>
        <time>2018-09-16T11:27:51Z</time>
      </trkpt>
      <trkpt lat="39.2958080" lon="-0.7195180">
        <ele>420.0</ele>
        <time>2018-09-16T11:27:52Z</time>
      </trkpt>
      <trkpt lat="39.2960430" lon="-0.7196530">
        <ele>419.0</ele>
        <time>2018-09-16T11:27:53Z</time>
      </trkpt>
      <trkpt lat="39.2961620" lon="-0.7197180">
        <ele>419.0</ele>
        <time>2018-09-16T11:27:54Z</time>
      </trkpt>
      <trkpt lat="39.2962830" lon="-0.7197700">
        <ele>417.0</ele>
        <time>2018-09-16T11:27:55Z</time>
      </trkpt>
      <trkpt lat="39.2962830" lon="-0.7197700">
        <ele>417.0</ele>
        <time>2018-09-16T11:27:56Z</time>
      </trkpt>
      <trkpt lat="39.2965450" lon="-0.7197650">
        <ele>416.0</ele>
        <time>2018-09-16T11:27:57Z</time>
      </trkpt>
      <trkpt lat="39.2965450" lon="-0.7197650">
        <ele>416.0</ele>
        <time>2018-09-16T11:27:58Z</time>
      </trkpt>
      <trkpt lat="39.2967630" lon="-0.7195800">
        <ele>414.0</ele>
        <time>2018-09-16T11:27:59Z</time>
      </trkpt>
      <trkpt lat="39.2967630" lon="-0.7195800">
        <ele>414.0</ele>
        <time>2018-09-16T11:28:00Z</time>
      </trkpt>
      <trkpt lat="39.2969300" lon="-0.7193470">
        <ele>412.0</ele>
        <time>2018-09-16T11:28:01Z</time>
      </trkpt>
      <trkpt lat="39.2969300" lon="-0.7193470">
        <ele>412.0</ele>
        <time>2018-09-16T11:28:02Z</time>
      </trkpt>
      <trkpt lat="39.2971380" lon="-0.7192220">
        <ele>410.0</ele>
        <time>2018-09-16T11:28:03Z</time>
      </trkpt>
      <trkpt lat="39.2971380" lon="-0.7192220">
        <ele>410.0</ele>
        <time>2018-09-16T11:28:04Z</time>
      </trkpt>
      <trkpt lat="39.2973650" lon="-0.7192400">
        <ele>408.0</ele>
        <time>2018-09-16T11:28:05Z</time>
      </trkpt>
      <trkpt lat="39.2973650" lon="-0.7192400">
        <ele>408.0</ele>
        <time>2018-09-16T11:28:06Z</time>
      </trkpt>
      <trkpt lat="39.2975930" lon="-0.7192150">
        <ele>407.0</ele>
        <time>2018-09-16T11:28:07Z</time>
      </trkpt>
      <trkpt lat="39.2975930" lon="-0.7192150">
        <ele>407.0</ele>
        <time>2018-09-16T11:28:08Z</time>
      </trkpt>
      <trkpt lat="39.2978170" lon="-0.7190900">
        <ele>406.0</ele>
        <time>2018-09-16T11:28:09Z</time>
      </trkpt>
      <trkpt lat="39.2979280" lon="-0.7190170">
        <ele>404.0</ele>
        <time>2018-09-16T11:28:10Z</time>
      </trkpt>
      <trkpt lat="39.2979280" lon="-0.7190170">
        <ele>404.0</ele>
        <time>2018-09-16T11:28:11Z</time>
      </trkpt>
      <trkpt lat="39.2981520" lon="-0.7188730">
        <ele>402.0</ele>
        <time>2018-09-16T11:28:12Z</time>
      </trkpt>
      <trkpt lat="39.2981520" lon="-0.7188730">
        <ele>402.0</ele>
        <time>2018-09-16T11:28:13Z</time>
      </trkpt>
      <trkpt lat="39.2983130" lon="-0.7186670">
        <ele>400.0</ele>
        <time>2018-09-16T11:28:14Z</time>
      </trkpt>
      <trkpt lat="39.2983130" lon="-0.7186670">
        <ele>400.0</ele>
        <time>2018-09-16T11:28:15Z</time>
      </trkpt>
      <trkpt lat="39.2983420" lon="-0.7183750">
        <ele>398.0</ele>
        <time>2018-09-16T11:28:16Z</time>
      </trkpt>
      <trkpt lat="39.2983000" lon="-0.7182470">
        <ele>398.0</ele>
        <time>2018-09-16T11:28:17Z</time>
      </trkpt>
      <trkpt lat="39.2983000" lon="-0.7182470">
        <ele>396.0</ele>
        <time>2018-09-16T11:28:18Z</time>
      </trkpt>
      <trkpt lat="39.2981320" lon="-0.7180570">
        <ele>396.0</ele>
        <time>2018-09-16T11:28:19Z</time>
      </trkpt>
      <trkpt lat="39.2981320" lon="-0.7180570">
        <ele>393.0</ele>
        <time>2018-09-16T11:28:20Z</time>
      </trkpt>
      <trkpt lat="39.2979400" lon="-0.7178770">
        <ele>393.0</ele>
        <time>2018-09-16T11:28:21Z</time>
      </trkpt>
      <trkpt lat="39.2979400" lon="-0.7178770">
        <ele>392.0</ele>
        <time>2018-09-16T11:28:22Z</time>
      </trkpt>
      <trkpt lat="39.2978100" lon="-0.7176000">
        <ele>392.0</ele>
        <time>2018-09-16T11:28:23Z</time>
      </trkpt>
      <trkpt lat="39.2978100" lon="-0.7176000">
        <ele>390.0</ele>
        <time>2018-09-16T11:28:24Z</time>
      </trkpt>
      <trkpt lat="39.2977550" lon="-0.7172670">
        <ele>390.0</ele>
        <time>2018-09-16T11:28:25Z</time>
      </trkpt>
      <trkpt lat="39.2977550" lon="-0.7172670">
        <ele>389.0</ele>
        <time>2018-09-16T11:28:26Z</time>
      </trkpt>
      <trkpt lat="39.2977300" lon="-0.7169230">
        <ele>389.0</ele>
        <time>2018-09-16T11:28:27Z</time>
      </trkpt>
      <trkpt lat="39.2977300" lon="-0.7169230">
        <ele>387.0</ele>
        <time>2018-09-16T11:28:28Z</time>
      </trkpt>
      <trkpt lat="39.2977180" lon="-0.7165800">
        <ele>387.0</ele>
        <time>2018-09-16T11:28:29Z</time>
      </trkpt>
      <trkpt lat="39.2977180" lon="-0.7165800">
        <ele>386.0</ele>
        <time>2018-09-16T11:28:30Z</time>
      </trkpt>
      <trkpt lat="39.2977370" lon="-0.7162380">
        <ele>386.0</ele>
        <time>2018-09-16T11:28:31Z</time>
      </trkpt>
      <trkpt lat="39.2977370" lon="-0.7162380">
        <ele>384.0</ele>
        <time>2018-09-16T11:28:32Z</time>
      </trkpt>
      <trkpt lat="39.2978080" lon="-0.7159120">
        <ele>384.0</ele>
        <time>2018-09-16T11:28:33Z</time>
      </trkpt>
      <trkpt lat="39.2978650" lon="-0.7157600">
        <ele>382.0</ele>
        <time>2018-09-16T11:28:34Z</time>
      </trkpt>
      <trkpt lat="39.2978650" lon="-0.7157600">
        <ele>382.0</ele>
        <time>2018-09-16T11:28:35Z</time>
      </trkpt>
      <trkpt lat="39.2980120" lon="-0.7154820">
        <ele>380.0</ele>
        <time>2018-09-16T11:28:36Z</time>
      </trkpt>
      <trkpt lat="39.2980120" lon="-0.7154820">
        <ele>379.0</ele>
        <time>2018-09-16T11:28:37Z</time>
      </trkpt>
      <trkpt lat="39.2981720" lon="-0.7152380">
        <ele>379.0</ele>
        <time>2018-09-16T11:28:38Z</time>
      </trkpt>
      <trkpt lat="39.2981720" lon="-0.7152380">
        <ele>378.0</ele>
        <time>2018-09-16T11:28:39Z</time>
      </trkpt>
      <trkpt lat="39.2983300" lon="-0.7150120">
        <ele>378.0</ele>
        <time>2018-09-16T11:28:40Z</time>
      </trkpt>
      <trkpt lat="39.2983300" lon="-0.7150120">
        <ele>377.0</ele>
        <time>2018-09-16T11:28:41Z</time>
      </trkpt>
      <trkpt lat="39.2984750" lon="-0.7147830">
        <ele>377.0</ele>
        <time>2018-09-16T11:28:42Z</time>
      </trkpt>
      <trkpt lat="39.2985420" lon="-0.7146680">
        <ele>377.0</ele>
        <time>2018-09-16T11:28:43Z</time>
      </trkpt>
      <trkpt lat="39.2985420" lon="-0.7146680">
        <ele>377.0</ele>
        <time>2018-09-16T11:28:44Z</time>
      </trkpt>
      <trkpt lat="39.2986700" lon="-0.7144480">
        <ele>376.0</ele>
        <time>2018-09-16T11:28:45Z</time>
      </trkpt>
      <trkpt lat="39.2986700" lon="-0.7144480">
        <ele>376.0</ele>
        <time>2018-09-16T11:28:46Z</time>
      </trkpt>
      <trkpt lat="39.2987770" lon="-0.7142330">
        <ele>376.0</ele>
        <time>2018-09-16T11:28:47Z</time>
      </trkpt>
      <trkpt lat="39.2987770" lon="-0.7142330">
        <ele>376.0</ele>
        <time>2018-09-16T11:28:48Z</time>
      </trkpt>
      <trkpt lat="39.2988720" lon="-0.7140300">
        <ele>376.0</ele>
        <time>2018-09-16T11:28:49Z</time>
      </trkpt>
      <trkpt lat="39.2988720" lon="-0.7140300">
        <ele>376.0</ele>
        <time>2018-09-16T11:28:50Z</time>
      </trkpt>
      <trkpt lat="39.2989500" lon="-0.7138500">
        <ele>376.0</ele>
        <time>2018-09-16T11:28:51Z</time>
      </trkpt>
      <trkpt lat="39.2989500" lon="-0.7138500">
        <ele>376.0</ele>
        <time>2018-09-16T11:28:52Z</time>
      </trkpt>
      <trkpt lat="39.2990120" lon="-0.7136870">
        <ele>376.0</ele>
        <time>2018-09-16T11:28:53Z</time>
      </trkpt>
      <trkpt lat="39.2990120" lon="-0.7136870">
        <ele>376.0</ele>
        <time>2018-09-16T11:28:54Z</time>
      </trkpt>
      <trkpt lat="39.2990470" lon="-0.7135380">
        <ele>376.0</ele>
        <time>2018-09-16T11:28:55Z</time>
      </trkpt>
      <trkpt lat="39.2990470" lon="-0.7135380">
        <ele>376.0</ele>
        <time>2018-09-16T11:28:56Z</time>
      </trkpt>
      <trkpt lat="39.2990680" lon="-0.7134070">
        <ele>376.0</ele>
        <time>2018-09-16T11:28:57Z</time>
      </trkpt>
      <trkpt lat="39.2990750" lon="-0.7133470">
        <ele>376.0</ele>
        <time>2018-09-16T11:28:58Z</time>
      </trkpt>
      <trkpt lat="39.2990820" lon="-0.7132920">
        <ele>376.0</ele>
        <time>2018-09-16T11:28:59Z</time>
      </trkpt>
      <trkpt lat="39.2990820" lon="-0.7132920">
        <ele>376.0</ele>
        <time>2018-09-16T11:29:00Z</time>
      </trkpt>
      <trkpt lat="39.2990870" lon="-0.7131820">
        <ele>376.0</ele>
        <time>2018-09-16T11:29:01Z</time>
      </trkpt>
      <trkpt lat="39.2990870" lon="-0.7131820">
        <ele>376.0</ele>
        <time>2018-09-16T11:29:02Z</time>
      </trkpt>
      <trkpt lat="39.2990820" lon="-0.7130770">
        <ele>376.0</ele>
        <time>2018-09-16T11:29:03Z</time>
      </trkpt>
      <trkpt lat="39.2990820" lon="-0.7130770">
        <ele>377.0</ele>
        <time>2018-09-16T11:29:04Z</time>
      </trkpt>
      <trkpt lat="39.2990780" lon="-0.7129730">
        <ele>377.0</ele>
        <time>2018-09-16T11:29:05Z</time>
      </trkpt>
      <trkpt lat="39.2990780" lon="-0.7129730">
        <ele>377.0</ele>
        <time>2018-09-16T11:29:06Z</time>
      </trkpt>
      <trkpt lat="39.2990720" lon="-0.7128700">
        <ele>377.0</ele>
        <time>2018-09-16T11:29:07Z</time>
      </trkpt>
      <trkpt lat="39.2990670" lon="-0.7128180">
        <ele>378.0</ele>
        <time>2018-09-16T11:29:08Z</time>
      </trkpt>
      <trkpt lat="39.2990670" lon="-0.7128180">
        <ele>378.0</ele>
        <time>2018-09-16T11:29:09Z</time>
      </trkpt>
      <trkpt lat="39.2990630" lon="-0.7127200">
        <ele>378.0</ele>
        <time>2018-09-16T11:29:10Z</time>
      </trkpt>
      <trkpt lat="39.2990630" lon="-0.7126730">
        <ele>378.0</ele>
        <time>2018-09-16T11:29:11Z</time>
      </trkpt>
      <trkpt lat="39.2990630" lon="-0.7126730">
        <ele>378.0</ele>
        <time>2018-09-16T11:29:12Z</time>
      </trkpt>
      <trkpt lat="39.2990670" lon="-0.7125830">
        <ele>378.0</ele>
        <time>2018-09-16T11:29:13Z</time>
      </trkpt>
      <trkpt lat="39.2990670" lon="-0.7125830">
        <ele>378.0</ele>
        <time>2018-09-16T11:29:14Z</time>
      </trkpt>
      <trkpt lat="39.2990750" lon="-0.7124900">
        <ele>378.0</ele>
        <time>2018-09-16T11:29:15Z</time>
      </trkpt>
      <trkpt lat="39.2990750" lon="-0.7124900">
        <ele>378.0</ele>
        <time>2018-09-16T11:29:16Z</time>
      </trkpt>
      <trkpt lat="39.2990900" lon="-0.7123930">
        <ele>379.0</ele>
        <time>2018-09-16T11:29:17Z</time>
      </trkpt>
      <trkpt lat="39.2990900" lon="-0.7123930">
        <ele>379.0</ele>
        <time>2018-09-16T11:29:18Z</time>
      </trkpt>
      <trkpt lat="39.2991100" lon="-0.7122970">
        <ele>379.0</ele>
        <time>2018-09-16T11:29:19Z</time>
      </trkpt>
      <trkpt lat="39.2991100" lon="-0.7122970">
        <ele>379.0</ele>
        <time>2018-09-16T11:29:20Z</time>
      </trkpt>
      <trkpt lat="39.2991380" lon="-0.7122070">
        <ele>379.0</ele>
        <time>2018-09-16T11:29:21Z</time>
      </trkpt>
      <trkpt lat="39.2991380" lon="-0.7122070">
        <ele>379.0</ele>
        <time>2018-09-16T11:29:22Z</time>
      </trkpt>
      <trkpt lat="39.2991680" lon="-0.7121130">
        <ele>379.0</ele>
        <time>2018-09-16T11:29:23Z</time>
      </trkpt>
      <trkpt lat="39.2991680" lon="-0.7121130">
        <ele>379.0</ele>
        <time>2018-09-16T11:29:24Z</time>
      </trkpt>
      <trkpt lat="39.2992000" lon="-0.7120180">
        <ele>379.0</ele>
        <time>2018-09-16T11:29:25Z</time>
      </trkpt>
      <trkpt lat="39.2992000" lon="-0.7120180">
        <ele>379.0</ele>
        <time>2018-09-16T11:29:26Z</time>
      </trkpt>
      <trkpt lat="39.2992350" lon="-0.7119300">
        <ele>380.0</ele>
        <time>2018-09-16T11:29:27Z</time>
      </trkpt>
      <trkpt lat="39.2992520" lon="-0.7118880">
        <ele>380.0</ele>
        <time>2018-09-16T11:29:28Z</time>
      </trkpt>
      <trkpt lat="39.2992520" lon="-0.7118880">
        <ele>380.0</ele>
        <time>2018-09-16T11:29:29Z</time>
      </trkpt>
      <trkpt lat="39.2992900" lon="-0.7118120">
        <ele>380.0</ele>
        <time>2018-09-16T11:29:30Z</time>
      </trkpt>
      <trkpt lat="39.2993070" lon="-0.7117720">
        <ele>380.0</ele>
        <time>2018-09-16T11:29:31Z</time>
      </trkpt>
      <trkpt lat="39.2993070" lon="-0.7117720">
        <ele>380.0</ele>
        <time>2018-09-16T11:29:32Z</time>
      </trkpt>
      <trkpt lat="39.2993430" lon="-0.7116920">
        <ele>380.0</ele>
        <time>2018-09-16T11:29:33Z</time>
      </trkpt>
      <trkpt lat="39.2993430" lon="-0.7116920">
        <ele>380.0</ele>
        <time>2018-09-16T11:29:34Z</time>
      </trkpt>
      <trkpt lat="39.2993800" lon="-0.7116130">
        <ele>380.0</ele>
        <time>2018-09-16T11:29:35Z</time>
      </trkpt>
      <trkpt lat="39.2993800" lon="-0.7116130">
        <ele>381.0</ele>
        <time>2018-09-16T11:29:36Z</time>
      </trkpt>
      <trkpt lat="39.2994180" lon="-0.7115350">
        <ele>381.0</ele>
        <time>2018-09-16T11:29:37Z</time>
      </trkpt>
      <trkpt lat="39.2994180" lon="-0.7115350">
        <ele>381.0</ele>
        <time>2018-09-16T11:29:38Z</time>
      </trkpt>
      <trkpt lat="39.2994550" lon="-0.7114620">
        <ele>381.0</ele>
        <time>2018-09-16T11:29:39Z</time>
      </trkpt>
      <trkpt lat="39.2994550" lon="-0.7114620">
        <ele>381.0</ele>
        <time>2018-09-16T11:29:40Z</time>
      </trkpt>
      <trkpt lat="39.2994920" lon="-0.7113930">
        <ele>381.0</ele>
        <time>2018-09-16T11:29:41Z</time>
      </trkpt>
      <trkpt lat="39.2994920" lon="-0.7113930">
        <ele>381.0</ele>
        <time>2018-09-16T11:29:42Z</time>
      </trkpt>
      <trkpt lat="39.2995230" lon="-0.7113270">
        <ele>381.0</ele>
        <time>2018-09-16T11:29:43Z</time>
      </trkpt>
      <trkpt lat="39.2995230" lon="-0.7113270">
        <ele>382.0</ele>
        <time>2018-09-16T11:29:44Z</time>
      </trkpt>
      <trkpt lat="39.2995550" lon="-0.7112580">
        <ele>382.0</ele>
        <time>2018-09-16T11:29:45Z</time>
      </trkpt>
      <trkpt lat="39.2995730" lon="-0.7112250">
        <ele>382.0</ele>
        <time>2018-09-16T11:29:46Z</time>
      </trkpt>
      <trkpt lat="39.2995730" lon="-0.7112250">
        <ele>382.0</ele>
        <time>2018-09-16T11:29:47Z</time>
      </trkpt>
      <trkpt lat="39.2996050" lon="-0.7111580">
        <ele>382.0</ele>
        <time>2018-09-16T11:29:48Z</time>
      </trkpt>
      <trkpt lat="39.2996230" lon="-0.7111270">
        <ele>382.0</ele>
        <time>2018-09-16T11:29:49Z</time>
      </trkpt>
      <trkpt lat="39.2996230" lon="-0.7111270">
        <ele>383.0</ele>
        <time>2018-09-16T11:29:50Z</time>
      </trkpt>
      <trkpt lat="39.2996550" lon="-0.7110620">
        <ele>383.0</ele>
        <time>2018-09-16T11:29:51Z</time>
      </trkpt>
      <trkpt lat="39.2996720" lon="-0.7110280">
        <ele>383.0</ele>
        <time>2018-09-16T11:29:52Z</time>
      </trkpt>
      <trkpt lat="39.2996720" lon="-0.7110280">
        <ele>383.0</ele>
        <time>2018-09-16T11:29:53Z</time>
      </trkpt>
      <trkpt lat="39.2997050" lon="-0.7109620">
        <ele>384.0</ele>
        <time>2018-09-16T11:29:54Z</time>
      </trkpt>
      <trkpt lat="39.2997220" lon="-0.7109280">
        <ele>384.0</ele>
        <time>2018-09-16T11:29:55Z</time>
      </trkpt>
      <trkpt lat="39.2997220" lon="-0.7109280">
        <ele>384.0</ele>
        <time>2018-09-16T11:29:56Z</time>
      </trkpt>
      <trkpt lat="39.2997530" lon="-0.7108630">
        <ele>384.0</ele>
        <time>2018-09-16T11:29:57Z</time>
      </trkpt>
      <trkpt lat="39.2997530" lon="-0.7108630">
        <ele>384.0</ele>
        <time>2018-09-16T11:29:58Z</time>
      </trkpt>
      <trkpt lat="39.2997850" lon="-0.7107980">
        <ele>385.0</ele>
        <time>2018-09-16T11:29:59Z</time>
      </trkpt>
      <trkpt lat="39.2997850" lon="-0.7107980">
        <ele>385.0</ele>
        <time>2018-09-16T11:30:00Z</time>
      </trkpt>
      <trkpt lat="39.2998150" lon="-0.7107400">
        <ele>385.0</ele>
        <time>2018-09-16T11:30:01Z</time>
      </trkpt>
      <trkpt lat="39.2998150" lon="-0.7107400">
        <ele>385.0</ele>
        <time>2018-09-16T11:30:02Z</time>
      </trkpt>
      <trkpt lat="39.2998450" lon="-0.7106820">
        <ele>385.0</ele>
        <time>2018-09-16T11:30:03Z</time>
      </trkpt>
      <trkpt lat="39.2998600" lon="-0.7106500">
        <ele>385.0</ele>
        <time>2018-09-16T11:30:04Z</time>
      </trkpt>
      <trkpt lat="39.2998600" lon="-0.7106500">
        <ele>386.0</ele>
        <time>2018-09-16T11:30:05Z</time>
      </trkpt>
      <trkpt lat="39.2998900" lon="-0.7105880">
        <ele>386.0</ele>
        <time>2018-09-16T11:30:06Z</time>
      </trkpt>
      <trkpt lat="39.2998900" lon="-0.7105880">
        <ele>386.0</ele>
        <time>2018-09-16T11:30:07Z</time>
      </trkpt>
      <trkpt lat="39.2999150" lon="-0.7105270">
        <ele>386.0</ele>
        <time>2018-09-16T11:30:08Z</time>
      </trkpt>
      <trkpt lat="39.2999150" lon="-0.7105270">
        <ele>386.0</ele>
        <time>2018-09-16T11:30:09Z</time>
      </trkpt>
      <trkpt lat="39.2999430" lon="-0.7104650">
        <ele>386.0</ele>
        <time>2018-09-16T11:30:10Z</time>
      </trkpt>
      <trkpt lat="39.2999580" lon="-0.7104350">
        <ele>386.0</ele>
        <time>2018-09-16T11:30:11Z</time>
      </trkpt>
      <trkpt lat="39.2999580" lon="-0.7104350">
        <ele>386.0</ele>
        <time>2018-09-16T11:30:12Z</time>
      </trkpt>
      <trkpt lat="39.2999880" lon="-0.7103770">
        <ele>386.0</ele>
        <time>2018-09-16T11:30:13Z</time>
      </trkpt>
      <trkpt lat="39.2999880" lon="-0.7103770">
        <ele>386.0</ele>
        <time>2018-09-16T11:30:14Z</time>
      </trkpt>
      <trkpt lat="39.3000230" lon="-0.7103200">
        <ele>386.0</ele>
        <time>2018-09-16T11:30:15Z</time>
      </trkpt>
      <trkpt lat="39.3000230" lon="-0.7103200">
        <ele>386.0</ele>
        <time>2018-09-16T11:30:16Z</time>
      </trkpt>
      <trkpt lat="39.3000600" lon="-0.7102700">
        <ele>387.0</ele>
        <time>2018-09-16T11:30:17Z</time>
      </trkpt>
      <trkpt lat="39.3000600" lon="-0.7102700">
        <ele>387.0</ele>
        <time>2018-09-16T11:30:18Z</time>
      </trkpt>
      <trkpt lat="39.3001050" lon="-0.7102280">
        <ele>387.0</ele>
        <time>2018-09-16T11:30:19Z</time>
      </trkpt>
      <trkpt lat="39.3001050" lon="-0.7102280">
        <ele>387.0</ele>
        <time>2018-09-16T11:30:20Z</time>
      </trkpt>
      <trkpt lat="39.3001520" lon="-0.7102020">
        <ele>387.0</ele>
        <time>2018-09-16T11:30:21Z</time>
      </trkpt>
      <trkpt lat="39.3001520" lon="-0.7102020">
        <ele>387.0</ele>
        <time>2018-09-16T11:30:22Z</time>
      </trkpt>
      <trkpt lat="39.3002020" lon="-0.7101870">
        <ele>388.0</ele>
        <time>2018-09-16T11:30:23Z</time>
      </trkpt>
      <trkpt lat="39.3002020" lon="-0.7101870">
        <ele>388.0</ele>
        <time>2018-09-16T11:30:24Z</time>
      </trkpt>
      <trkpt lat="39.3002550" lon="-0.7101800">
        <ele>388.0</ele>
        <time>2018-09-16T11:30:25Z</time>
      </trkpt>
      <trkpt lat="39.3002550" lon="-0.7101800">
        <ele>389.0</ele>
        <time>2018-09-16T11:30:26Z</time>
      </trkpt>
      <trkpt lat="39.3003080" lon="-0.7101830">
        <ele>389.0</ele>
        <time>2018-09-16T11:30:27Z</time>
      </trkpt>
      <trkpt lat="39.3003080" lon="-0.7101830">
        <ele>389.0</ele>
        <time>2018-09-16T11:30:28Z</time>
      </trkpt>
      <trkpt lat="39.3003620" lon="-0.7101930">
        <ele>389.0</ele>
        <time>2018-09-16T11:30:29Z</time>
      </trkpt>
      <trkpt lat="39.3003900" lon="-0.7102020">
        <ele>389.0</ele>
        <time>2018-09-16T11:30:30Z</time>
      </trkpt>
      <trkpt lat="39.3004180" lon="-0.7102130">
        <ele>389.0</ele>
        <time>2018-09-16T11:30:31Z</time>
      </trkpt>
      <trkpt lat="39.3004180" lon="-0.7102130">
        <ele>390.0</ele>
        <time>2018-09-16T11:30:32Z</time>
      </trkpt>
      <trkpt lat="39.3004720" lon="-0.7102370">
        <ele>390.0</ele>
        <time>2018-09-16T11:30:33Z</time>
      </trkpt>
      <trkpt lat="39.3004720" lon="-0.7102370">
        <ele>390.0</ele>
        <time>2018-09-16T11:30:34Z</time>
      </trkpt>
      <trkpt lat="39.3005220" lon="-0.7102630">
        <ele>390.0</ele>
        <time>2018-09-16T11:30:35Z</time>
      </trkpt>
      <trkpt lat="39.3005220" lon="-0.7102630">
        <ele>390.0</ele>
        <time>2018-09-16T11:30:36Z</time>
      </trkpt>
      <trkpt lat="39.3005680" lon="-0.7102950">
        <ele>390.0</ele>
        <time>2018-09-16T11:30:37Z</time>
      </trkpt>
      <trkpt lat="39.3005680" lon="-0.7102950">
        <ele>390.0</ele>
        <time>2018-09-16T11:30:38Z</time>
      </trkpt>
      <trkpt lat="39.3006120" lon="-0.7103280">
        <ele>390.0</ele>
        <time>2018-09-16T11:30:39Z</time>
      </trkpt>
      <trkpt lat="39.3006330" lon="-0.7103480">
        <ele>391.0</ele>
        <time>2018-09-16T11:30:40Z</time>
      </trkpt>
      <trkpt lat="39.3006330" lon="-0.7103480">
        <ele>391.0</ele>
        <time>2018-09-16T11:30:41Z</time>
      </trkpt>
      <trkpt lat="39.3006750" lon="-0.7103900">
        <ele>391.0</ele>
        <time>2018-09-16T11:30:42Z</time>
      </trkpt>
      <trkpt lat="39.3006950" lon="-0.7104130">
        <ele>391.0</ele>
        <time>2018-09-16T11:30:43Z</time>
      </trkpt>
      <trkpt lat="39.3006950" lon="-0.7104130">
        <ele>392.0</ele>
        <time>2018-09-16T11:30:44Z</time>
      </trkpt>
      <trkpt lat="39.3007350" lon="-0.7104630">
        <ele>392.0</ele>
        <time>2018-09-16T11:30:45Z</time>
      </trkpt>
      <trkpt lat="39.3007350" lon="-0.7104630">
        <ele>392.0</ele>
        <time>2018-09-16T11:30:46Z</time>
      </trkpt>
      <trkpt lat="39.3007750" lon="-0.7105150">
        <ele>392.0</ele>
        <time>2018-09-16T11:30:47Z</time>
      </trkpt>
      <trkpt lat="39.3007750" lon="-0.7105150">
        <ele>393.0</ele>
        <time>2018-09-16T11:30:48Z</time>
      </trkpt>
      <trkpt lat="39.3008170" lon="-0.7105680">
        <ele>393.0</ele>
        <time>2018-09-16T11:30:49Z</time>
      </trkpt>
      <trkpt lat="39.3008170" lon="-0.7105680">
        <ele>393.0</ele>
        <time>2018-09-16T11:30:50Z</time>
      </trkpt>
      <trkpt lat="39.3008550" lon="-0.7106180">
        <ele>393.0</ele>
        <time>2018-09-16T11:30:51Z</time>
      </trkpt>
      <trkpt lat="39.3008550" lon="-0.7106180">
        <ele>393.0</ele>
        <time>2018-09-16T11:30:52Z</time>
      </trkpt>
      <trkpt lat="39.3008930" lon="-0.7106680">
        <ele>394.0</ele>
        <time>2018-09-16T11:30:53Z</time>
      </trkpt>
      <trkpt lat="39.3008930" lon="-0.7106680">
        <ele>394.0</ele>
        <time>2018-09-16T11:30:54Z</time>
      </trkpt>
      <trkpt lat="39.3009330" lon="-0.7107150">
        <ele>394.0</ele>
        <time>2018-09-16T11:30:55Z</time>
      </trkpt>
      <trkpt lat="39.3009330" lon="-0.7107150">
        <ele>394.0</ele>
        <time>2018-09-16T11:30:56Z</time>
      </trkpt>
      <trkpt lat="39.3009730" lon="-0.7107600">
        <ele>395.0</ele>
        <time>2018-09-16T11:30:57Z</time>
      </trkpt>
      <trkpt lat="39.3009730" lon="-0.7107600">
        <ele>395.0</ele>
        <time>2018-09-16T11:30:58Z</time>
      </trkpt>
      <trkpt lat="39.3010170" lon="-0.7108020">
        <ele>395.0</ele>
        <time>2018-09-16T11:30:59Z</time>
      </trkpt>
      <trkpt lat="39.3010380" lon="-0.7108180">
        <ele>395.0</ele>
        <time>2018-09-16T11:31:00Z</time>
      </trkpt>
      <trkpt lat="39.3010620" lon="-0.7108350">
        <ele>396.0</ele>
        <time>2018-09-16T11:31:01Z</time>
      </trkpt>
      <trkpt lat="39.3010620" lon="-0.7108350">
        <ele>396.0</ele>
        <time>2018-09-16T11:31:02Z</time>
      </trkpt>
      <trkpt lat="39.3011130" lon="-0.7108530">
        <ele>396.0</ele>
        <time>2018-09-16T11:31:03Z</time>
      </trkpt>
      <trkpt lat="39.3011130" lon="-0.7108530">
        <ele>396.0</ele>
        <time>2018-09-16T11:31:04Z</time>
      </trkpt>
      <trkpt lat="39.3011680" lon="-0.7108620">
        <ele>396.0</ele>
        <time>2018-09-16T11:31:05Z</time>
      </trkpt>
      <trkpt lat="39.3011680" lon="-0.7108620">
        <ele>396.0</ele>
        <time>2018-09-16T11:31:06Z</time>
      </trkpt>
      <trkpt lat="39.3012200" lon="-0.7108550">
        <ele>397.0</ele>
        <time>2018-09-16T11:31:07Z</time>
      </trkpt>
      <trkpt lat="39.3012200" lon="-0.7108550">
        <ele>397.0</ele>
        <time>2018-09-16T11:31:08Z</time>
      </trkpt>
      <trkpt lat="39.3012750" lon="-0.7108380">
        <ele>397.0</ele>
        <time>2018-09-16T11:31:09Z</time>
      </trkpt>
      <trkpt lat="39.3013000" lon="-0.7108250">
        <ele>397.0</ele>
        <time>2018-09-16T11:31:10Z</time>
      </trkpt>
      <trkpt lat="39.3013000" lon="-0.7108250">
        <ele>397.0</ele>
        <time>2018-09-16T11:31:11Z</time>
      </trkpt>
      <trkpt lat="39.3013520" lon="-0.7107980">
        <ele>397.0</ele>
        <time>2018-09-16T11:31:12Z</time>
      </trkpt>
      <trkpt lat="39.3013770" lon="-0.7107870">
        <ele>397.0</ele>
        <time>2018-09-16T11:31:13Z</time>
      </trkpt>
      <trkpt lat="39.3013770" lon="-0.7107870">
        <ele>397.0</ele>
        <time>2018-09-16T11:31:14Z</time>
      </trkpt>
      <trkpt lat="39.3014280" lon="-0.7107670">
        <ele>397.0</ele>
        <time>2018-09-16T11:31:15Z</time>
      </trkpt>
      <trkpt lat="39.3014550" lon="-0.7107570">
        <ele>397.0</ele>
        <time>2018-09-16T11:31:16Z</time>
      </trkpt>
      <trkpt lat="39.3014550" lon="-0.7107570">
        <ele>397.0</ele>
        <time>2018-09-16T11:31:17Z</time>
      </trkpt>
      <trkpt lat="39.3015070" lon="-0.7107430">
        <ele>398.0</ele>
        <time>2018-09-16T11:31:18Z</time>
      </trkpt>
      <trkpt lat="39.3015330" lon="-0.7107380">
        <ele>398.0</ele>
        <time>2018-09-16T11:31:19Z</time>
      </trkpt>
      <trkpt lat="39.3015330" lon="-0.7107380">
        <ele>398.0</ele>
        <time>2018-09-16T11:31:20Z</time>
      </trkpt>
      <trkpt lat="39.3015880" lon="-0.7107320">
        <ele>398.0</ele>
        <time>2018-09-16T11:31:21Z</time>
      </trkpt>
      <trkpt lat="39.3015880" lon="-0.7107320">
        <ele>398.0</ele>
        <time>2018-09-16T11:31:22Z</time>
      </trkpt>
      <trkpt lat="39.3016450" lon="-0.7107280">
        <ele>398.0</ele>
        <time>2018-09-16T11:31:23Z</time>
      </trkpt>
      <trkpt lat="39.3016730" lon="-0.7107270">
        <ele>399.0</ele>
        <time>2018-09-16T11:31:24Z</time>
      </trkpt>
      <trkpt lat="39.3017020" lon="-0.7107250">
        <ele>399.0</ele>
        <time>2018-09-16T11:31:25Z</time>
      </trkpt>
      <trkpt lat="39.3017020" lon="-0.7107250">
        <ele>399.0</ele>
        <time>2018-09-16T11:31:26Z</time>
      </trkpt>
      <trkpt lat="39.3017600" lon="-0.7107230">
        <ele>399.0</ele>
        <time>2018-09-16T11:31:27Z</time>
      </trkpt>
      <trkpt lat="39.3017600" lon="-0.7107230">
        <ele>400.0</ele>
        <time>2018-09-16T11:31:28Z</time>
      </trkpt>
      <trkpt lat="39.3018180" lon="-0.7107250">
        <ele>400.0</ele>
        <time>2018-09-16T11:31:29Z</time>
      </trkpt>
      <trkpt lat="39.3018180" lon="-0.7107250">
        <ele>400.0</ele>
        <time>2018-09-16T11:31:30Z</time>
      </trkpt>
      <trkpt lat="39.3018730" lon="-0.7107230">
        <ele>400.0</ele>
        <time>2018-09-16T11:31:31Z</time>
      </trkpt>
      <trkpt lat="39.3018730" lon="-0.7107230">
        <ele>400.0</ele>
        <time>2018-09-16T11:31:32Z</time>
      </trkpt>
      <trkpt lat="39.3019300" lon="-0.7107200">
        <ele>400.0</ele>
        <time>2018-09-16T11:31:33Z</time>
      </trkpt>
      <trkpt lat="39.3019580" lon="-0.7107200">
        <ele>400.0</ele>
        <time>2018-09-16T11:31:34Z</time>
      </trkpt>
      <trkpt lat="39.3019580" lon="-0.7107200">
        <ele>400.0</ele>
        <time>2018-09-16T11:31:35Z</time>
      </trkpt>
      <trkpt lat="39.3020010" lon="-0.7107190">
        <ele>400.0</ele>
        <time>2018-09-16T11:31:36Z</time>
      </trkpt>
      <trkpt lat="39.3020430" lon="-0.7107170">
        <ele>400.0</ele>
        <time>2018-09-16T11:31:37Z</time>
      </trkpt>
      <trkpt lat="39.3020430" lon="-0.7107170">
        <ele>400.0</ele>
        <time>2018-09-16T11:31:38Z</time>
      </trkpt>
      <trkpt lat="39.3020970" lon="-0.7107100">
        <ele>400.0</ele>
        <time>2018-09-16T11:31:39Z</time>
      </trkpt>
      <trkpt lat="39.3020970" lon="-0.7107100">
        <ele>400.0</ele>
        <time>2018-09-16T11:31:40Z</time>
      </trkpt>
      <trkpt lat="39.3021480" lon="-0.7106950">
        <ele>401.0</ele>
        <time>2018-09-16T11:31:41Z</time>
      </trkpt>
      <trkpt lat="39.3021480" lon="-0.7106950">
        <ele>401.0</ele>
        <time>2018-09-16T11:31:42Z</time>
      </trkpt>
      <trkpt lat="39.3021980" lon="-0.7106720">
        <ele>401.0</ele>
        <time>2018-09-16T11:31:43Z</time>
      </trkpt>
      <trkpt lat="39.3022230" lon="-0.7106550">
        <ele>402.0</ele>
        <time>2018-09-16T11:31:44Z</time>
      </trkpt>
      <trkpt lat="39.3022230" lon="-0.7106550">
        <ele>402.0</ele>
        <time>2018-09-16T11:31:45Z</time>
      </trkpt>
      <trkpt lat="39.3022650" lon="-0.7106130">
        <ele>402.0</ele>
        <time>2018-09-16T11:31:46Z</time>
      </trkpt>
      <trkpt lat="39.3022830" lon="-0.7105870">
        <ele>402.0</ele>
        <time>2018-09-16T11:31:47Z</time>
      </trkpt>
      <trkpt lat="39.3023020" lon="-0.7105600">
        <ele>403.0</ele>
        <time>2018-09-16T11:31:48Z</time>
      </trkpt>
      <trkpt lat="39.3023020" lon="-0.7105600">
        <ele>403.0</ele>
        <time>2018-09-16T11:31:49Z</time>
      </trkpt>
      <trkpt lat="39.3023330" lon="-0.7105050">
        <ele>403.0</ele>
        <time>2018-09-16T11:31:50Z</time>
      </trkpt>
      <trkpt lat="39.3023480" lon="-0.7104780">
        <ele>403.0</ele>
        <time>2018-09-16T11:31:51Z</time>
      </trkpt>
      <trkpt lat="39.3023480" lon="-0.7104780">
        <ele>404.0</ele>
        <time>2018-09-16T11:31:52Z</time>
      </trkpt>
      <trkpt lat="39.3023770" lon="-0.7104270">
        <ele>404.0</ele>
        <time>2018-09-16T11:31:53Z</time>
      </trkpt>
      <trkpt lat="39.3023770" lon="-0.7104270">
        <ele>404.0</ele>
        <time>2018-09-16T11:31:54Z</time>
      </trkpt>
      <trkpt lat="39.3024030" lon="-0.7103730">
        <ele>404.0</ele>
        <time>2018-09-16T11:31:55Z</time>
      </trkpt>
      <trkpt lat="39.3024030" lon="-0.7103730">
        <ele>405.0</ele>
        <time>2018-09-16T11:31:56Z</time>
      </trkpt>
      <trkpt lat="39.3024320" lon="-0.7103220">
        <ele>405.0</ele>
        <time>2018-09-16T11:31:57Z</time>
      </trkpt>
      <trkpt lat="39.3024320" lon="-0.7103220">
        <ele>405.0</ele>
        <time>2018-09-16T11:31:58Z</time>
      </trkpt>
      <trkpt lat="39.3024620" lon="-0.7102700">
        <ele>405.0</ele>
        <time>2018-09-16T11:31:59Z</time>
      </trkpt>
      <trkpt lat="39.3024620" lon="-0.7102700">
        <ele>405.0</ele>
        <time>2018-09-16T11:32:00Z</time>
      </trkpt>
      <trkpt lat="39.3024980" lon="-0.7102220">
        <ele>405.0</ele>
        <time>2018-09-16T11:32:01Z</time>
      </trkpt>
      <trkpt lat="39.3024980" lon="-0.7102220">
        <ele>406.0</ele>
        <time>2018-09-16T11:32:02Z</time>
      </trkpt>
      <trkpt lat="39.3025380" lon="-0.7101870">
        <ele>406.0</ele>
        <time>2018-09-16T11:32:03Z</time>
      </trkpt>
      <trkpt lat="39.3025380" lon="-0.7101870">
        <ele>406.0</ele>
        <time>2018-09-16T11:32:04Z</time>
      </trkpt>
      <trkpt lat="39.3025850" lon="-0.7101580">
        <ele>406.0</ele>
        <time>2018-09-16T11:32:05Z</time>
      </trkpt>
      <trkpt lat="39.3025850" lon="-0.7101580">
        <ele>406.0</ele>
        <time>2018-09-16T11:32:06Z</time>
      </trkpt>
      <trkpt lat="39.3026280" lon="-0.7101320">
        <ele>406.0</ele>
        <time>2018-09-16T11:32:07Z</time>
      </trkpt>
      <trkpt lat="39.3026280" lon="-0.7101320">
        <ele>407.0</ele>
        <time>2018-09-16T11:32:08Z</time>
      </trkpt>
      <trkpt lat="39.3026750" lon="-0.7101120">
        <ele>407.0</ele>
        <time>2018-09-16T11:32:09Z</time>
      </trkpt>
      <trkpt lat="39.3026750" lon="-0.7101120">
        <ele>407.0</ele>
        <time>2018-09-16T11:32:10Z</time>
      </trkpt>
      <trkpt lat="39.3027230" lon="-0.7100970">
        <ele>407.0</ele>
        <time>2018-09-16T11:32:11Z</time>
      </trkpt>
      <trkpt lat="39.3027230" lon="-0.7100970">
        <ele>407.0</ele>
        <time>2018-09-16T11:32:12Z</time>
      </trkpt>
      <trkpt lat="39.3027780" lon="-0.7100800">
        <ele>407.0</ele>
        <time>2018-09-16T11:32:13Z</time>
      </trkpt>
      <trkpt lat="39.3027780" lon="-0.7100800">
        <ele>407.0</ele>
        <time>2018-09-16T11:32:14Z</time>
      </trkpt>
      <trkpt lat="39.3028300" lon="-0.7100650">
        <ele>408.0</ele>
        <time>2018-09-16T11:32:15Z</time>
      </trkpt>
      <trkpt lat="39.3028300" lon="-0.7100650">
        <ele>408.0</ele>
        <time>2018-09-16T11:32:16Z</time>
      </trkpt>
      <trkpt lat="39.3028800" lon="-0.7100520">
        <ele>408.0</ele>
        <time>2018-09-16T11:32:17Z</time>
      </trkpt>
      <trkpt lat="39.3028800" lon="-0.7100520">
        <ele>408.0</ele>
        <time>2018-09-16T11:32:18Z</time>
      </trkpt>
      <trkpt lat="39.3029330" lon="-0.7100380">
        <ele>408.0</ele>
        <time>2018-09-16T11:32:19Z</time>
      </trkpt>
      <trkpt lat="39.3029330" lon="-0.7100380">
        <ele>408.0</ele>
        <time>2018-09-16T11:32:20Z</time>
      </trkpt>
      <trkpt lat="39.3029870" lon="-0.7100250">
        <ele>408.0</ele>
        <time>2018-09-16T11:32:21Z</time>
      </trkpt>
      <trkpt lat="39.3029870" lon="-0.7100250">
        <ele>408.0</ele>
        <time>2018-09-16T11:32:22Z</time>
      </trkpt>
      <trkpt lat="39.3030380" lon="-0.7100080">
        <ele>408.0</ele>
        <time>2018-09-16T11:32:23Z</time>
      </trkpt>
      <trkpt lat="39.3030650" lon="-0.7100030">
        <ele>408.0</ele>
        <time>2018-09-16T11:32:24Z</time>
      </trkpt>
      <trkpt lat="39.3030900" lon="-0.7099950">
        <ele>408.0</ele>
        <time>2018-09-16T11:32:25Z</time>
      </trkpt>
      <trkpt lat="39.3030900" lon="-0.7099950">
        <ele>408.0</ele>
        <time>2018-09-16T11:32:26Z</time>
      </trkpt>
      <trkpt lat="39.3031350" lon="-0.7099730">
        <ele>408.0</ele>
        <time>2018-09-16T11:32:27Z</time>
      </trkpt>
      <trkpt lat="39.3031350" lon="-0.7099730">
        <ele>408.0</ele>
        <time>2018-09-16T11:32:28Z</time>
      </trkpt>
      <trkpt lat="39.3031870" lon="-0.7099530">
        <ele>408.0</ele>
        <time>2018-09-16T11:32:29Z</time>
      </trkpt>
      <trkpt lat="39.3031870" lon="-0.7099530">
        <ele>408.0</ele>
        <time>2018-09-16T11:32:30Z</time>
      </trkpt>
      <trkpt lat="39.3032370" lon="-0.7099330">
        <ele>408.0</ele>
        <time>2018-09-16T11:32:31Z</time>
      </trkpt>
      <trkpt lat="39.3032370" lon="-0.7099330">
        <ele>409.0</ele>
        <time>2018-09-16T11:32:32Z</time>
      </trkpt>
      <trkpt lat="39.3032820" lon="-0.7099020">
        <ele>409.0</ele>
        <time>2018-09-16T11:32:33Z</time>
      </trkpt>
      <trkpt lat="39.3032820" lon="-0.7099020">
        <ele>409.0</ele>
        <time>2018-09-16T11:32:34Z</time>
      </trkpt>
      <trkpt lat="39.3033230" lon="-0.7098630">
        <ele>410.0</ele>
        <time>2018-09-16T11:32:35Z</time>
      </trkpt>
      <trkpt lat="39.3033230" lon="-0.7098630">
        <ele>410.0</ele>
        <time>2018-09-16T11:32:36Z</time>
      </trkpt>
      <trkpt lat="39.3033650" lon="-0.7098250">
        <ele>410.0</ele>
        <time>2018-09-16T11:32:37Z</time>
      </trkpt>
      <trkpt lat="39.3033650" lon="-0.7098250">
        <ele>410.0</ele>
        <time>2018-09-16T11:32:38Z</time>
      </trkpt>
      <trkpt lat="39.3034030" lon="-0.7097870">
        <ele>410.0</ele>
        <time>2018-09-16T11:32:39Z</time>
      </trkpt>
      <trkpt lat="39.3034030" lon="-0.7097870">
        <ele>410.0</ele>
        <time>2018-09-16T11:32:40Z</time>
      </trkpt>
      <trkpt lat="39.3034450" lon="-0.7097420">
        <ele>411.0</ele>
        <time>2018-09-16T11:32:41Z</time>
      </trkpt>
      <trkpt lat="39.3034450" lon="-0.7097420">
        <ele>411.0</ele>
        <time>2018-09-16T11:32:42Z</time>
      </trkpt>
      <trkpt lat="39.3034850" lon="-0.7096980">
        <ele>411.0</ele>
        <time>2018-09-16T11:32:43Z</time>
      </trkpt>
      <trkpt lat="39.3034850" lon="-0.7096980">
        <ele>411.0</ele>
        <time>2018-09-16T11:32:44Z</time>
      </trkpt>
      <trkpt lat="39.3035230" lon="-0.7096580">
        <ele>411.0</ele>
        <time>2018-09-16T11:32:45Z</time>
      </trkpt>
      <trkpt lat="39.3035230" lon="-0.7096580">
        <ele>412.0</ele>
        <time>2018-09-16T11:32:46Z</time>
      </trkpt>
      <trkpt lat="39.3035630" lon="-0.7096180">
        <ele>412.0</ele>
        <time>2018-09-16T11:32:47Z</time>
      </trkpt>
      <trkpt lat="39.3035630" lon="-0.7096180">
        <ele>412.0</ele>
        <time>2018-09-16T11:32:48Z</time>
      </trkpt>
      <trkpt lat="39.3036020" lon="-0.7095830">
        <ele>412.0</ele>
        <time>2018-09-16T11:32:49Z</time>
      </trkpt>
      <trkpt lat="39.3036020" lon="-0.7095830">
        <ele>412.0</ele>
        <time>2018-09-16T11:32:50Z</time>
      </trkpt>
      <trkpt lat="39.3036430" lon="-0.7095520">
        <ele>412.0</ele>
        <time>2018-09-16T11:32:51Z</time>
      </trkpt>
      <trkpt lat="39.3036430" lon="-0.7095520">
        <ele>413.0</ele>
        <time>2018-09-16T11:32:52Z</time>
      </trkpt>
      <trkpt lat="39.3036870" lon="-0.7095300">
        <ele>413.0</ele>
        <time>2018-09-16T11:32:53Z</time>
      </trkpt>
      <trkpt lat="39.3037120" lon="-0.7095220">
        <ele>413.0</ele>
        <time>2018-09-16T11:32:54Z</time>
      </trkpt>
      <trkpt lat="39.3037120" lon="-0.7095220">
        <ele>413.0</ele>
        <time>2018-09-16T11:32:55Z</time>
      </trkpt>
      <trkpt lat="39.3037620" lon="-0.7095130">
        <ele>414.0</ele>
        <time>2018-09-16T11:32:56Z</time>
      </trkpt>
      <trkpt lat="39.3037620" lon="-0.7095130">
        <ele>414.0</ele>
        <time>2018-09-16T11:32:57Z</time>
      </trkpt>
      <trkpt lat="39.3038100" lon="-0.7095120">
        <ele>414.0</ele>
        <time>2018-09-16T11:32:58Z</time>
      </trkpt>
      <trkpt lat="39.3038350" lon="-0.7095120">
        <ele>414.0</ele>
        <time>2018-09-16T11:32:59Z</time>
      </trkpt>
      <trkpt lat="39.3038350" lon="-0.7095120">
        <ele>414.0</ele>
        <time>2018-09-16T11:33:00Z</time>
      </trkpt>
      <trkpt lat="39.3038820" lon="-0.7095200">
        <ele>415.0</ele>
        <time>2018-09-16T11:33:01Z</time>
      </trkpt>
      <trkpt lat="39.3038820" lon="-0.7095200">
        <ele>415.0</ele>
        <time>2018-09-16T11:33:02Z</time>
      </trkpt>
      <trkpt lat="39.3039280" lon="-0.7095330">
        <ele>415.0</ele>
        <time>2018-09-16T11:33:03Z</time>
      </trkpt>
      <trkpt lat="39.3039530" lon="-0.7095430">
        <ele>415.0</ele>
        <time>2018-09-16T11:33:04Z</time>
      </trkpt>
      <trkpt lat="39.3039780" lon="-0.7095520">
        <ele>415.0</ele>
        <time>2018-09-16T11:33:05Z</time>
      </trkpt>
      <trkpt lat="39.3039780" lon="-0.7095520">
        <ele>415.0</ele>
        <time>2018-09-16T11:33:06Z</time>
      </trkpt>
      <trkpt lat="39.3040280" lon="-0.7095720">
        <ele>416.0</ele>
        <time>2018-09-16T11:33:07Z</time>
      </trkpt>
      <trkpt lat="39.3040280" lon="-0.7095720">
        <ele>416.0</ele>
        <time>2018-09-16T11:33:08Z</time>
      </trkpt>
      <trkpt lat="39.3040780" lon="-0.7095970">
        <ele>416.0</ele>
        <time>2018-09-16T11:33:09Z</time>
      </trkpt>
      <trkpt lat="39.3041020" lon="-0.7096070">
        <ele>416.0</ele>
        <time>2018-09-16T11:33:10Z</time>
      </trkpt>
      <trkpt lat="39.3041250" lon="-0.7096180">
        <ele>416.0</ele>
        <time>2018-09-16T11:33:11Z</time>
      </trkpt>
      <trkpt lat="39.3041480" lon="-0.7096330">
        <ele>416.0</ele>
        <time>2018-09-16T11:33:12Z</time>
      </trkpt>
      <trkpt lat="39.3041730" lon="-0.7096470">
        <ele>417.0</ele>
        <time>2018-09-16T11:33:13Z</time>
      </trkpt>
      <trkpt lat="39.3041730" lon="-0.7096470">
        <ele>417.0</ele>
        <time>2018-09-16T11:33:14Z</time>
      </trkpt>
      <trkpt lat="39.3042170" lon="-0.7096770">
        <ele>417.0</ele>
        <time>2018-09-16T11:33:15Z</time>
      </trkpt>
      <trkpt lat="39.3042420" lon="-0.7096880">
        <ele>417.0</ele>
        <time>2018-09-16T11:33:16Z</time>
      </trkpt>
      <trkpt lat="39.3042420" lon="-0.7096880">
        <ele>417.0</ele>
        <time>2018-09-16T11:33:17Z</time>
      </trkpt>
      <trkpt lat="39.3042930" lon="-0.7097120">
        <ele>417.0</ele>
        <time>2018-09-16T11:33:18Z</time>
      </trkpt>
      <trkpt lat="39.3043180" lon="-0.7097250">
        <ele>417.0</ele>
        <time>2018-09-16T11:33:19Z</time>
      </trkpt>
      <trkpt lat="39.3043180" lon="-0.7097250">
        <ele>417.0</ele>
        <time>2018-09-16T11:33:20Z</time>
      </trkpt>
      <trkpt lat="39.3043650" lon="-0.7097550">
        <ele>417.0</ele>
        <time>2018-09-16T11:33:21Z</time>
      </trkpt>
      <trkpt lat="39.3043880" lon="-0.7097680">
        <ele>417.0</ele>
        <time>2018-09-16T11:33:22Z</time>
      </trkpt>
      <trkpt lat="39.3043880" lon="-0.7097680">
        <ele>417.0</ele>
        <time>2018-09-16T11:33:23Z</time>
      </trkpt>
      <trkpt lat="39.3044370" lon="-0.7097920">
        <ele>417.0</ele>
        <time>2018-09-16T11:33:24Z</time>
      </trkpt>
      <trkpt lat="39.3044620" lon="-0.7098050">
        <ele>418.0</ele>
        <time>2018-09-16T11:33:25Z</time>
      </trkpt>
      <trkpt lat="39.3044620" lon="-0.7098050">
        <ele>418.0</ele>
        <time>2018-09-16T11:33:26Z</time>
      </trkpt>
      <trkpt lat="39.3045080" lon="-0.7098300">
        <ele>418.0</ele>
        <time>2018-09-16T11:33:27Z</time>
      </trkpt>
      <trkpt lat="39.3045080" lon="-0.7098300">
        <ele>418.0</ele>
        <time>2018-09-16T11:33:28Z</time>
      </trkpt>
      <trkpt lat="39.3045570" lon="-0.7098570">
        <ele>418.0</ele>
        <time>2018-09-16T11:33:29Z</time>
      </trkpt>
      <trkpt lat="39.3045570" lon="-0.7098570">
        <ele>420.0</ele>
        <time>2018-09-16T11:33:30Z</time>
      </trkpt>
      <trkpt lat="39.3046070" lon="-0.7098830">
        <ele>420.0</ele>
        <time>2018-09-16T11:33:31Z</time>
      </trkpt>
      <trkpt lat="39.3046070" lon="-0.7098830">
        <ele>420.0</ele>
        <time>2018-09-16T11:33:32Z</time>
      </trkpt>
      <trkpt lat="39.3046580" lon="-0.7099100">
        <ele>420.0</ele>
        <time>2018-09-16T11:33:33Z</time>
      </trkpt>
      <trkpt lat="39.3046580" lon="-0.7099100">
        <ele>420.0</ele>
        <time>2018-09-16T11:33:34Z</time>
      </trkpt>
      <trkpt lat="39.3047100" lon="-0.7099370">
        <ele>420.0</ele>
        <time>2018-09-16T11:33:35Z</time>
      </trkpt>
      <trkpt lat="39.3047100" lon="-0.7099370">
        <ele>420.0</ele>
        <time>2018-09-16T11:33:36Z</time>
      </trkpt>
      <trkpt lat="39.3047630" lon="-0.7099620">
        <ele>420.0</ele>
        <time>2018-09-16T11:33:37Z</time>
      </trkpt>
      <trkpt lat="39.3047630" lon="-0.7099620">
        <ele>421.0</ele>
        <time>2018-09-16T11:33:38Z</time>
      </trkpt>
      <trkpt lat="39.3048150" lon="-0.7099870">
        <ele>421.0</ele>
        <time>2018-09-16T11:33:39Z</time>
      </trkpt>
      <trkpt lat="39.3048420" lon="-0.7099980">
        <ele>421.0</ele>
        <time>2018-09-16T11:33:40Z</time>
      </trkpt>
      <trkpt lat="39.3048420" lon="-0.7099980">
        <ele>421.0</ele>
        <time>2018-09-16T11:33:41Z</time>
      </trkpt>
      <trkpt lat="39.3048930" lon="-0.7100230">
        <ele>421.0</ele>
        <time>2018-09-16T11:33:42Z</time>
      </trkpt>
      <trkpt lat="39.3049200" lon="-0.7100350">
        <ele>421.0</ele>
        <time>2018-09-16T11:33:43Z</time>
      </trkpt>
      <trkpt lat="39.3049200" lon="-0.7100350">
        <ele>422.0</ele>
        <time>2018-09-16T11:33:44Z</time>
      </trkpt>
      <trkpt lat="39.3049720" lon="-0.7100570">
        <ele>422.0</ele>
        <time>2018-09-16T11:33:45Z</time>
      </trkpt>
      <trkpt lat="39.3049720" lon="-0.7100570">
        <ele>422.0</ele>
        <time>2018-09-16T11:33:46Z</time>
      </trkpt>
      <trkpt lat="39.3050250" lon="-0.7100770">
        <ele>422.0</ele>
        <time>2018-09-16T11:33:47Z</time>
      </trkpt>
      <trkpt lat="39.3050250" lon="-0.7100770">
        <ele>423.0</ele>
        <time>2018-09-16T11:33:48Z</time>
      </trkpt>
      <trkpt lat="39.3050770" lon="-0.7100980">
        <ele>423.0</ele>
        <time>2018-09-16T11:33:49Z</time>
      </trkpt>
      <trkpt lat="39.3050770" lon="-0.7100980">
        <ele>423.0</ele>
        <time>2018-09-16T11:33:50Z</time>
      </trkpt>
      <trkpt lat="39.3051320" lon="-0.7101200">
        <ele>423.0</ele>
        <time>2018-09-16T11:33:51Z</time>
      </trkpt>
      <trkpt lat="39.3051320" lon="-0.7101200">
        <ele>423.0</ele>
        <time>2018-09-16T11:33:52Z</time>
      </trkpt>
      <trkpt lat="39.3051850" lon="-0.7101400">
        <ele>423.0</ele>
        <time>2018-09-16T11:33:53Z</time>
      </trkpt>
      <trkpt lat="39.3052120" lon="-0.7101500">
        <ele>424.0</ele>
        <time>2018-09-16T11:33:54Z</time>
      </trkpt>
      <trkpt lat="39.3052380" lon="-0.7101600">
        <ele>424.0</ele>
        <time>2018-09-16T11:33:55Z</time>
      </trkpt>
      <trkpt lat="39.3052380" lon="-0.7101600">
        <ele>424.0</ele>
        <time>2018-09-16T11:33:56Z</time>
      </trkpt>
      <trkpt lat="39.3052950" lon="-0.7101830">
        <ele>424.0</ele>
        <time>2018-09-16T11:33:57Z</time>
      </trkpt>
      <trkpt lat="39.3052950" lon="-0.7101830">
        <ele>424.0</ele>
        <time>2018-09-16T11:33:58Z</time>
      </trkpt>
      <trkpt lat="39.3053500" lon="-0.7102050">
        <ele>425.0</ele>
        <time>2018-09-16T11:33:59Z</time>
      </trkpt>
      <trkpt lat="39.3053770" lon="-0.7102170">
        <ele>425.0</ele>
        <time>2018-09-16T11:34:00Z</time>
      </trkpt>
      <trkpt lat="39.3054030" lon="-0.7102280">
        <ele>425.0</ele>
        <time>2018-09-16T11:34:01Z</time>
      </trkpt>
      <trkpt lat="39.3054030" lon="-0.7102280">
        <ele>425.0</ele>
        <time>2018-09-16T11:34:02Z</time>
      </trkpt>
      <trkpt lat="39.3054580" lon="-0.7102480">
        <ele>426.0</ele>
        <time>2018-09-16T11:34:03Z</time>
      </trkpt>
      <trkpt lat="39.3054580" lon="-0.7102480">
        <ele>426.0</ele>
        <time>2018-09-16T11:34:04Z</time>
      </trkpt>
      <trkpt lat="39.3055130" lon="-0.7102700">
        <ele>426.0</ele>
        <time>2018-09-16T11:34:05Z</time>
      </trkpt>
      <trkpt lat="39.3055130" lon="-0.7102700">
        <ele>426.0</ele>
        <time>2018-09-16T11:34:06Z</time>
      </trkpt>
      <trkpt lat="39.3055670" lon="-0.7102920">
        <ele>427.0</ele>
        <time>2018-09-16T11:34:07Z</time>
      </trkpt>
      <trkpt lat="39.3055670" lon="-0.7102920">
        <ele>427.0</ele>
        <time>2018-09-16T11:34:08Z</time>
      </trkpt>
      <trkpt lat="39.3056220" lon="-0.7103100">
        <ele>427.0</ele>
        <time>2018-09-16T11:34:09Z</time>
      </trkpt>
      <trkpt lat="39.3056220" lon="-0.7103100">
        <ele>427.0</ele>
        <time>2018-09-16T11:34:10Z</time>
      </trkpt>
      <trkpt lat="39.3056750" lon="-0.7103280">
        <ele>427.0</ele>
        <time>2018-09-16T11:34:11Z</time>
      </trkpt>
      <trkpt lat="39.3056750" lon="-0.7103280">
        <ele>427.0</ele>
        <time>2018-09-16T11:34:12Z</time>
      </trkpt>
      <trkpt lat="39.3057280" lon="-0.7103430">
        <ele>427.0</ele>
        <time>2018-09-16T11:34:13Z</time>
      </trkpt>
      <trkpt lat="39.3057280" lon="-0.7103430">
        <ele>427.0</ele>
        <time>2018-09-16T11:34:14Z</time>
      </trkpt>
      <trkpt lat="39.3057830" lon="-0.7103530">
        <ele>428.0</ele>
        <time>2018-09-16T11:34:15Z</time>
      </trkpt>
      <trkpt lat="39.3057830" lon="-0.7103530">
        <ele>428.0</ele>
        <time>2018-09-16T11:34:16Z</time>
      </trkpt>
      <trkpt lat="39.3058400" lon="-0.7103620">
        <ele>428.0</ele>
        <time>2018-09-16T11:34:17Z</time>
      </trkpt>
      <trkpt lat="39.3058400" lon="-0.7103620">
        <ele>428.0</ele>
        <time>2018-09-16T11:34:18Z</time>
      </trkpt>
      <trkpt lat="39.3058950" lon="-0.7103630">
        <ele>428.0</ele>
        <time>2018-09-16T11:34:19Z</time>
      </trkpt>
      <trkpt lat="39.3058950" lon="-0.7103630">
        <ele>428.0</ele>
        <time>2018-09-16T11:34:20Z</time>
      </trkpt>
      <trkpt lat="39.3059500" lon="-0.7103570">
        <ele>429.0</ele>
        <time>2018-09-16T11:34:21Z</time>
      </trkpt>
      <trkpt lat="39.3059500" lon="-0.7103570">
        <ele>429.0</ele>
        <time>2018-09-16T11:34:22Z</time>
      </trkpt>
      <trkpt lat="39.3060020" lon="-0.7103470">
        <ele>429.0</ele>
        <time>2018-09-16T11:34:23Z</time>
      </trkpt>
      <trkpt lat="39.3060020" lon="-0.7103470">
        <ele>430.0</ele>
        <time>2018-09-16T11:34:24Z</time>
      </trkpt>
      <trkpt lat="39.3060530" lon="-0.7103270">
        <ele>430.0</ele>
        <time>2018-09-16T11:34:25Z</time>
      </trkpt>
      <trkpt lat="39.3060530" lon="-0.7103270">
        <ele>430.0</ele>
        <time>2018-09-16T11:34:26Z</time>
      </trkpt>
      <trkpt lat="39.3061030" lon="-0.7103050">
        <ele>430.0</ele>
        <time>2018-09-16T11:34:27Z</time>
      </trkpt>
      <trkpt lat="39.3061030" lon="-0.7103050">
        <ele>430.0</ele>
        <time>2018-09-16T11:34:28Z</time>
      </trkpt>
      <trkpt lat="39.3061530" lon="-0.7102750">
        <ele>430.0</ele>
        <time>2018-09-16T11:34:29Z</time>
      </trkpt>
      <trkpt lat="39.3061530" lon="-0.7102750">
        <ele>431.0</ele>
        <time>2018-09-16T11:34:30Z</time>
      </trkpt>
      <trkpt lat="39.3062050" lon="-0.7102430">
        <ele>431.0</ele>
        <time>2018-09-16T11:34:31Z</time>
      </trkpt>
      <trkpt lat="39.3062050" lon="-0.7102430">
        <ele>431.0</ele>
        <time>2018-09-16T11:34:32Z</time>
      </trkpt>
      <trkpt lat="39.3062550" lon="-0.7102120">
        <ele>431.0</ele>
        <time>2018-09-16T11:34:33Z</time>
      </trkpt>
      <trkpt lat="39.3062550" lon="-0.7102120">
        <ele>431.0</ele>
        <time>2018-09-16T11:34:34Z</time>
      </trkpt>
      <trkpt lat="39.3063070" lon="-0.7101780">
        <ele>431.0</ele>
        <time>2018-09-16T11:34:35Z</time>
      </trkpt>
      <trkpt lat="39.3063070" lon="-0.7101780">
        <ele>432.0</ele>
        <time>2018-09-16T11:34:36Z</time>
      </trkpt>
      <trkpt lat="39.3063570" lon="-0.7101430">
        <ele>432.0</ele>
        <time>2018-09-16T11:34:37Z</time>
      </trkpt>
      <trkpt lat="39.3063570" lon="-0.7101430">
        <ele>432.0</ele>
        <time>2018-09-16T11:34:38Z</time>
      </trkpt>
      <trkpt lat="39.3064030" lon="-0.7101070">
        <ele>432.0</ele>
        <time>2018-09-16T11:34:39Z</time>
      </trkpt>
      <trkpt lat="39.3064030" lon="-0.7101070">
        <ele>433.0</ele>
        <time>2018-09-16T11:34:40Z</time>
      </trkpt>
      <trkpt lat="39.3064520" lon="-0.7100670">
        <ele>433.0</ele>
        <time>2018-09-16T11:34:41Z</time>
      </trkpt>
      <trkpt lat="39.3064520" lon="-0.7100670">
        <ele>433.0</ele>
        <time>2018-09-16T11:34:42Z</time>
      </trkpt>
      <trkpt lat="39.3065020" lon="-0.7100220">
        <ele>433.0</ele>
        <time>2018-09-16T11:34:43Z</time>
      </trkpt>
      <trkpt lat="39.3065020" lon="-0.7100220">
        <ele>433.0</ele>
        <time>2018-09-16T11:34:44Z</time>
      </trkpt>
      <trkpt lat="39.3065520" lon="-0.7099730">
        <ele>433.0</ele>
        <time>2018-09-16T11:34:45Z</time>
      </trkpt>
      <trkpt lat="39.3065770" lon="-0.7099450">
        <ele>434.0</ele>
        <time>2018-09-16T11:34:46Z</time>
      </trkpt>
      <trkpt lat="39.3066000" lon="-0.7099170">
        <ele>434.0</ele>
        <time>2018-09-16T11:34:47Z</time>
      </trkpt>
      <trkpt lat="39.3066000" lon="-0.7099170">
        <ele>434.0</ele>
        <time>2018-09-16T11:34:48Z</time>
      </trkpt>
      <trkpt lat="39.3066450" lon="-0.7098580">
        <ele>434.0</ele>
        <time>2018-09-16T11:34:49Z</time>
      </trkpt>
      <trkpt lat="39.3066670" lon="-0.7098300">
        <ele>434.0</ele>
        <time>2018-09-16T11:34:50Z</time>
      </trkpt>
      <trkpt lat="39.3066670" lon="-0.7098300">
        <ele>434.0</ele>
        <time>2018-09-16T11:34:51Z</time>
      </trkpt>
      <trkpt lat="39.3067120" lon="-0.7097720">
        <ele>434.0</ele>
        <time>2018-09-16T11:34:52Z</time>
      </trkpt>
      <trkpt lat="39.3067120" lon="-0.7097720">
        <ele>434.0</ele>
        <time>2018-09-16T11:34:53Z</time>
      </trkpt>
      <trkpt lat="39.3067530" lon="-0.7097170">
        <ele>434.0</ele>
        <time>2018-09-16T11:34:54Z</time>
      </trkpt>
      <trkpt lat="39.3067720" lon="-0.7096920">
        <ele>435.0</ele>
        <time>2018-09-16T11:34:55Z</time>
      </trkpt>
      <trkpt lat="39.3067720" lon="-0.7096920">
        <ele>435.0</ele>
        <time>2018-09-16T11:34:56Z</time>
      </trkpt>
      <trkpt lat="39.3068070" lon="-0.7096450">
        <ele>435.0</ele>
        <time>2018-09-16T11:34:57Z</time>
      </trkpt>
      <trkpt lat="39.3068070" lon="-0.7096450">
        <ele>435.0</ele>
        <time>2018-09-16T11:34:58Z</time>
      </trkpt>
      <trkpt lat="39.3068400" lon="-0.7095920">
        <ele>435.0</ele>
        <time>2018-09-16T11:34:59Z</time>
      </trkpt>
      <trkpt lat="39.3068400" lon="-0.7095920">
        <ele>435.0</ele>
        <time>2018-09-16T11:35:00Z</time>
      </trkpt>
      <trkpt lat="39.3068780" lon="-0.7095430">
        <ele>436.0</ele>
        <time>2018-09-16T11:35:01Z</time>
      </trkpt>
      <trkpt lat="39.3068780" lon="-0.7095430">
        <ele>436.0</ele>
        <time>2018-09-16T11:35:02Z</time>
      </trkpt>
      <trkpt lat="39.3069180" lon="-0.7094980">
        <ele>436.0</ele>
        <time>2018-09-16T11:35:03Z</time>
      </trkpt>
      <trkpt lat="39.3069370" lon="-0.7094720">
        <ele>436.0</ele>
        <time>2018-09-16T11:35:04Z</time>
      </trkpt>
      <trkpt lat="39.3069370" lon="-0.7094720">
        <ele>437.0</ele>
        <time>2018-09-16T11:35:05Z</time>
      </trkpt>
      <trkpt lat="39.3069700" lon="-0.7094150">
        <ele>437.0</ele>
        <time>2018-09-16T11:35:06Z</time>
      </trkpt>
      <trkpt lat="39.3069870" lon="-0.7093870">
        <ele>437.0</ele>
        <time>2018-09-16T11:35:07Z</time>
      </trkpt>
      <trkpt lat="39.3069870" lon="-0.7093870">
        <ele>437.0</ele>
        <time>2018-09-16T11:35:08Z</time>
      </trkpt>
      <trkpt lat="39.3070250" lon="-0.7093330">
        <ele>437.0</ele>
        <time>2018-09-16T11:35:09Z</time>
      </trkpt>
      <trkpt lat="39.3070250" lon="-0.7093330">
        <ele>437.0</ele>
        <time>2018-09-16T11:35:10Z</time>
      </trkpt>
      <trkpt lat="39.3070620" lon="-0.7092820">
        <ele>437.0</ele>
        <time>2018-09-16T11:35:11Z</time>
      </trkpt>
      <trkpt lat="39.3070620" lon="-0.7092820">
        <ele>437.0</ele>
        <time>2018-09-16T11:35:12Z</time>
      </trkpt>
      <trkpt lat="39.3071030" lon="-0.7092330">
        <ele>437.0</ele>
        <time>2018-09-16T11:35:13Z</time>
      </trkpt>
      <trkpt lat="39.3071030" lon="-0.7092330">
        <ele>437.0</ele>
        <time>2018-09-16T11:35:14Z</time>
      </trkpt>
      <trkpt lat="39.3071430" lon="-0.7091800">
        <ele>437.0</ele>
        <time>2018-09-16T11:35:15Z</time>
      </trkpt>
      <trkpt lat="39.3071430" lon="-0.7091800">
        <ele>437.0</ele>
        <time>2018-09-16T11:35:16Z</time>
      </trkpt>
      <trkpt lat="39.3071850" lon="-0.7091300">
        <ele>437.0</ele>
        <time>2018-09-16T11:35:17Z</time>
      </trkpt>
      <trkpt lat="39.3071850" lon="-0.7091300">
        <ele>437.0</ele>
        <time>2018-09-16T11:35:18Z</time>
      </trkpt>
      <trkpt lat="39.3072200" lon="-0.7090870">
        <ele>437.0</ele>
        <time>2018-09-16T11:35:19Z</time>
      </trkpt>
      <trkpt lat="39.3072200" lon="-0.7090870">
        <ele>437.0</ele>
        <time>2018-09-16T11:35:20Z</time>
      </trkpt>
      <trkpt lat="39.3072450" lon="-0.7090500">
        <ele>437.0</ele>
        <time>2018-09-16T11:35:21Z</time>
      </trkpt>
      <trkpt lat="39.3072450" lon="-0.7090500">
        <ele>437.0</ele>
        <time>2018-09-16T11:35:22Z</time>
      </trkpt>
      <trkpt lat="39.3072650" lon="-0.7090180">
        <ele>437.0</ele>
        <time>2018-09-16T11:35:23Z</time>
      </trkpt>
      <trkpt lat="39.3072670" lon="-0.7090160">
        <ele>437.0</ele>
        <time>2018-09-16T11:35:24Z</time>
      </trkpt>
      <trkpt lat="39.3072690" lon="-0.7090150">
        <ele>437.0</ele>
        <time>2018-09-16T11:35:25Z</time>
      </trkpt>
      <trkpt lat="39.3072710" lon="-0.7090130">
        <ele>437.0</ele>
        <time>2018-09-16T11:37:53Z</time>
      </trkpt>
      <trkpt lat="39.3072730" lon="-0.7090110">
        <ele>436.0</ele>
        <time>2018-09-16T11:37:54Z</time>
      </trkpt>
      <trkpt lat="39.3072750" lon="-0.7090100">
        <ele>436.0</ele>
        <time>2018-09-16T11:37:55Z</time>
      </trkpt>
      <trkpt lat="39.3072770" lon="-0.7090080">
        <ele>436.0</ele>
        <time>2018-09-16T11:37:56Z</time>
      </trkpt>
      <trkpt lat="39.3072780" lon="-0.7090070">
        <ele>436.0</ele>
        <time>2018-09-16T11:37:57Z</time>
      </trkpt>
      <trkpt lat="39.3072800" lon="-0.7090050">
        <ele>437.0</ele>
        <time>2018-09-16T11:37:58Z</time>
      </trkpt>
      <trkpt lat="39.3072820" lon="-0.7090030">
        <ele>437.0</ele>
        <time>2018-09-16T11:37:59Z</time>
      </trkpt>
      <trkpt lat="39.3072840" lon="-0.7090020">
        <ele>437.0</ele>
        <time>2018-09-16T11:38:00Z</time>
      </trkpt>
      <trkpt lat="39.3072860" lon="-0.7090000">
        <ele>437.0</ele>
        <time>2018-09-16T11:38:01Z</time>
      </trkpt>
      <trkpt lat="39.3072880" lon="-0.7089980">
        <ele>437.0</ele>
        <time>2018-09-16T11:38:02Z</time>
      </trkpt>
      <trkpt lat="39.3072900" lon="-0.7089970">
        <ele>437.0</ele>
        <time>2018-09-16T11:38:03Z</time>
      </trkpt>
      <trkpt lat="39.3072920" lon="-0.7089950">
        <ele>437.0</ele>
        <time>2018-09-16T11:38:04Z</time>
      </trkpt>
      <trkpt lat="39.3072940" lon="-0.7089930">
        <ele>437.0</ele>
        <time>2018-09-16T11:38:05Z</time>
      </trkpt>
      <trkpt lat="39.3072960" lon="-0.7089920">
        <ele>437.0</ele>
        <time>2018-09-16T11:38:06Z</time>
      </trkpt>
      <trkpt lat="39.3072980" lon="-0.7089900">
        <ele>437.0</ele>
        <time>2018-09-16T11:38:07Z</time>
      </trkpt>
      <trkpt lat="39.3073000" lon="-0.7089880">
        <ele>437.0</ele>
        <time>2018-09-16T11:38:08Z</time>
      </trkpt>
      <trkpt lat="39.3073010" lon="-0.7089870">
        <ele>437.0</ele>
        <time>2018-09-16T11:38:09Z</time>
      </trkpt>
      <trkpt lat="39.3073030" lon="-0.7089850">
        <ele>437.0</ele>
        <time>2018-09-16T11:38:10Z</time>
      </trkpt>
      <trkpt lat="39.3073050" lon="-0.7089840">
        <ele>437.0</ele>
        <time>2018-09-16T11:38:11Z</time>
      </trkpt>
      <trkpt lat="39.3073070" lon="-0.7089820">
        <ele>437.0</ele>
        <time>2018-09-16T11:38:12Z</time>
      </trkpt>
      <trkpt lat="39.3073090" lon="-0.7089800">
        <ele>437.0</ele>
        <time>2018-09-16T11:38:13Z</time>
      </trkpt>
      <trkpt lat="39.3073110" lon="-0.7089790">
        <ele>437.0</ele>
        <time>2018-09-16T11:38:14Z</time>
      </trkpt>
      <trkpt lat="39.3073130" lon="-0.7089770">
        <ele>437.0</ele>
        <time>2018-09-16T11:38:15Z</time>
      </trkpt>
      <trkpt lat="39.3073130" lon="-0.7089770">
        <ele>437.0</ele>
        <time>2018-09-16T11:38:16Z</time>
      </trkpt>
      <trkpt lat="39.3073600" lon="-0.7089270">
        <ele>437.0</ele>
        <time>2018-09-16T11:38:17Z</time>
      </trkpt>
      <trkpt lat="39.3073600" lon="-0.7089270">
        <ele>437.0</ele>
        <time>2018-09-16T11:38:18Z</time>
      </trkpt>
      <trkpt lat="39.3074150" lon="-0.7088800">
        <ele>437.0</ele>
        <time>2018-09-16T11:38:19Z</time>
      </trkpt>
      <trkpt lat="39.3074150" lon="-0.7088800">
        <ele>437.0</ele>
        <time>2018-09-16T11:38:20Z</time>
      </trkpt>
      <trkpt lat="39.3074800" lon="-0.7088180">
        <ele>437.0</ele>
        <time>2018-09-16T11:38:21Z</time>
      </trkpt>
      <trkpt lat="39.3074800" lon="-0.7088180">
        <ele>437.0</ele>
        <time>2018-09-16T11:38:22Z</time>
      </trkpt>
      <trkpt lat="39.3075520" lon="-0.7087420">
        <ele>437.0</ele>
        <time>2018-09-16T11:38:23Z</time>
      </trkpt>
      <trkpt lat="39.3075520" lon="-0.7087420">
        <ele>437.0</ele>
        <time>2018-09-16T11:38:24Z</time>
      </trkpt>
      <trkpt lat="39.3076320" lon="-0.7086550">
        <ele>437.0</ele>
        <time>2018-09-16T11:38:25Z</time>
      </trkpt>
      <trkpt lat="39.3076320" lon="-0.7086550">
        <ele>437.0</ele>
        <time>2018-09-16T11:38:26Z</time>
      </trkpt>
      <trkpt lat="39.3077230" lon="-0.7085630">
        <ele>437.0</ele>
        <time>2018-09-16T11:38:27Z</time>
      </trkpt>
      <trkpt lat="39.3077230" lon="-0.7085630">
        <ele>436.0</ele>
        <time>2018-09-16T11:38:28Z</time>
      </trkpt>
      <trkpt lat="39.3078220" lon="-0.7084620">
        <ele>436.0</ele>
        <time>2018-09-16T11:38:29Z</time>
      </trkpt>
      <trkpt lat="39.3078720" lon="-0.7084080">
        <ele>436.0</ele>
        <time>2018-09-16T11:38:30Z</time>
      </trkpt>
      <trkpt lat="39.3079250" lon="-0.7083530">
        <ele>436.0</ele>
        <time>2018-09-16T11:38:31Z</time>
      </trkpt>
      <trkpt lat="39.3079250" lon="-0.7083530">
        <ele>435.0</ele>
        <time>2018-09-16T11:38:32Z</time>
      </trkpt>
      <trkpt lat="39.3080330" lon="-0.7082380">
        <ele>435.0</ele>
        <time>2018-09-16T11:38:33Z</time>
      </trkpt>
      <trkpt lat="39.3080330" lon="-0.7082380">
        <ele>435.0</ele>
        <time>2018-09-16T11:38:34Z</time>
      </trkpt>
      <trkpt lat="39.3081450" lon="-0.7081220">
        <ele>434.0</ele>
        <time>2018-09-16T11:38:35Z</time>
      </trkpt>
      <trkpt lat="39.3081450" lon="-0.7081220">
        <ele>434.0</ele>
        <time>2018-09-16T11:38:36Z</time>
      </trkpt>
      <trkpt lat="39.3082630" lon="-0.7080050">
        <ele>433.0</ele>
        <time>2018-09-16T11:38:37Z</time>
      </trkpt>
      <trkpt lat="39.3082630" lon="-0.7080050">
        <ele>433.0</ele>
        <time>2018-09-16T11:38:38Z</time>
      </trkpt>
      <trkpt lat="39.3083820" lon="-0.7078920">
        <ele>433.0</ele>
        <time>2018-09-16T11:38:39Z</time>
      </trkpt>
      <trkpt lat="39.3083820" lon="-0.7078920">
        <ele>433.0</ele>
        <time>2018-09-16T11:38:40Z</time>
      </trkpt>
      <trkpt lat="39.3085030" lon="-0.7077870">
        <ele>432.0</ele>
        <time>2018-09-16T11:38:41Z</time>
      </trkpt>
      <trkpt lat="39.3085030" lon="-0.7077870">
        <ele>432.0</ele>
        <time>2018-09-16T11:38:42Z</time>
      </trkpt>
      <trkpt lat="39.3086400" lon="-0.7077030">
        <ele>432.0</ele>
        <time>2018-09-16T11:38:43Z</time>
      </trkpt>
      <trkpt lat="39.3086400" lon="-0.7077030">
        <ele>432.0</ele>
        <time>2018-09-16T11:38:44Z</time>
      </trkpt>
      <trkpt lat="39.3087870" lon="-0.7076430">
        <ele>432.0</ele>
        <time>2018-09-16T11:38:45Z</time>
      </trkpt>
      <trkpt lat="39.3087870" lon="-0.7076430">
        <ele>430.0</ele>
        <time>2018-09-16T11:38:46Z</time>
      </trkpt>
      <trkpt lat="39.3089350" lon="-0.7075830">
        <ele>430.0</ele>
        <time>2018-09-16T11:38:47Z</time>
      </trkpt>
      <trkpt lat="39.3089350" lon="-0.7075830">
        <ele>430.0</ele>
        <time>2018-09-16T11:38:48Z</time>
      </trkpt>
      <trkpt lat="39.3090800" lon="-0.7075050">
        <ele>430.0</ele>
        <time>2018-09-16T11:38:49Z</time>
      </trkpt>
      <trkpt lat="39.3090800" lon="-0.7075050">
        <ele>429.0</ele>
        <time>2018-09-16T11:38:50Z</time>
      </trkpt>
      <trkpt lat="39.3092130" lon="-0.7073920">
        <ele>429.0</ele>
        <time>2018-09-16T11:38:51Z</time>
      </trkpt>
      <trkpt lat="39.3092130" lon="-0.7073920">
        <ele>428.0</ele>
        <time>2018-09-16T11:38:52Z</time>
      </trkpt>
      <trkpt lat="39.3093350" lon="-0.7072430">
        <ele>428.0</ele>
        <time>2018-09-16T11:38:53Z</time>
      </trkpt>
      <trkpt lat="39.3093350" lon="-0.7072430">
        <ele>427.0</ele>
        <time>2018-09-16T11:38:54Z</time>
      </trkpt>
      <trkpt lat="39.3094570" lon="-0.7070750">
        <ele>427.0</ele>
        <time>2018-09-16T11:38:55Z</time>
      </trkpt>
      <trkpt lat="39.3094570" lon="-0.7070750">
        <ele>427.0</ele>
        <time>2018-09-16T11:38:56Z</time>
      </trkpt>
      <trkpt lat="39.3095830" lon="-0.7069120">
        <ele>427.0</ele>
        <time>2018-09-16T11:38:57Z</time>
      </trkpt>
      <trkpt lat="39.3095830" lon="-0.7069120">
        <ele>426.0</ele>
        <time>2018-09-16T11:38:58Z</time>
      </trkpt>
      <trkpt lat="39.3097120" lon="-0.7067480">
        <ele>426.0</ele>
        <time>2018-09-16T11:38:59Z</time>
      </trkpt>
      <trkpt lat="39.3097120" lon="-0.7067480">
        <ele>426.0</ele>
        <time>2018-09-16T11:39:00Z</time>
      </trkpt>
      <trkpt lat="39.3098270" lon="-0.7065730">
        <ele>425.0</ele>
        <time>2018-09-16T11:39:01Z</time>
      </trkpt>
      <trkpt lat="39.3098270" lon="-0.7065730">
        <ele>425.0</ele>
        <time>2018-09-16T11:39:02Z</time>
      </trkpt>
      <trkpt lat="39.3099080" lon="-0.7063630">
        <ele>424.0</ele>
        <time>2018-09-16T11:39:03Z</time>
      </trkpt>
      <trkpt lat="39.3099380" lon="-0.7062480">
        <ele>424.0</ele>
        <time>2018-09-16T11:39:04Z</time>
      </trkpt>
      <trkpt lat="39.3099680" lon="-0.7061330">
        <ele>423.0</ele>
        <time>2018-09-16T11:39:05Z</time>
      </trkpt>
      <trkpt lat="39.3099680" lon="-0.7061330">
        <ele>423.0</ele>
        <time>2018-09-16T11:39:06Z</time>
      </trkpt>
      <trkpt lat="39.3100380" lon="-0.7059080">
        <ele>422.0</ele>
        <time>2018-09-16T11:39:07Z</time>
      </trkpt>
      <trkpt lat="39.3100380" lon="-0.7059080">
        <ele>422.0</ele>
        <time>2018-09-16T11:39:08Z</time>
      </trkpt>
      <trkpt lat="39.3101320" lon="-0.7056950">
        <ele>422.0</ele>
        <time>2018-09-16T11:39:09Z</time>
      </trkpt>
      <trkpt lat="39.3101320" lon="-0.7056950">
        <ele>422.0</ele>
        <time>2018-09-16T11:39:10Z</time>
      </trkpt>
      <trkpt lat="39.3102370" lon="-0.7054820">
        <ele>421.0</ele>
        <time>2018-09-16T11:39:11Z</time>
      </trkpt>
      <trkpt lat="39.3102370" lon="-0.7054820">
        <ele>421.0</ele>
        <time>2018-09-16T11:39:12Z</time>
      </trkpt>
      <trkpt lat="39.3103380" lon="-0.7052720">
        <ele>421.0</ele>
        <time>2018-09-16T11:39:13Z</time>
      </trkpt>
      <trkpt lat="39.3103380" lon="-0.7052720">
        <ele>421.0</ele>
        <time>2018-09-16T11:39:14Z</time>
      </trkpt>
      <trkpt lat="39.3104380" lon="-0.7050630">
        <ele>420.0</ele>
        <time>2018-09-16T11:39:15Z</time>
      </trkpt>
      <trkpt lat="39.3104380" lon="-0.7050630">
        <ele>420.0</ele>
        <time>2018-09-16T11:39:16Z</time>
      </trkpt>
      <trkpt lat="39.3105370" lon="-0.7048580">
        <ele>420.0</ele>
        <time>2018-09-16T11:39:17Z</time>
      </trkpt>
      <trkpt lat="39.3105370" lon="-0.7048580">
        <ele>420.0</ele>
        <time>2018-09-16T11:39:18Z</time>
      </trkpt>
      <trkpt lat="39.3106400" lon="-0.7046570">
        <ele>418.0</ele>
        <time>2018-09-16T11:39:19Z</time>
      </trkpt>
      <trkpt lat="39.3106400" lon="-0.7046570">
        <ele>418.0</ele>
        <time>2018-09-16T11:39:20Z</time>
      </trkpt>
      <trkpt lat="39.3107400" lon="-0.7044570">
        <ele>417.0</ele>
        <time>2018-09-16T11:39:21Z</time>
      </trkpt>
      <trkpt lat="39.3107400" lon="-0.7044570">
        <ele>417.0</ele>
        <time>2018-09-16T11:39:22Z</time>
      </trkpt>
      <trkpt lat="39.3108420" lon="-0.7042550">
        <ele>416.0</ele>
        <time>2018-09-16T11:39:23Z</time>
      </trkpt>
      <trkpt lat="39.3108420" lon="-0.7042550">
        <ele>416.0</ele>
        <time>2018-09-16T11:39:24Z</time>
      </trkpt>
      <trkpt lat="39.3109470" lon="-0.7040450">
        <ele>416.0</ele>
        <time>2018-09-16T11:39:25Z</time>
      </trkpt>
      <trkpt lat="39.3109470" lon="-0.7040450">
        <ele>415.0</ele>
        <time>2018-09-16T11:39:26Z</time>
      </trkpt>
      <trkpt lat="39.3110530" lon="-0.7038330">
        <ele>415.0</ele>
        <time>2018-09-16T11:39:27Z</time>
      </trkpt>
      <trkpt lat="39.3111050" lon="-0.7037270">
        <ele>415.0</ele>
        <time>2018-09-16T11:39:28Z</time>
      </trkpt>
      <trkpt lat="39.3111050" lon="-0.7037270">
        <ele>415.0</ele>
        <time>2018-09-16T11:39:29Z</time>
      </trkpt>
      <trkpt lat="39.3112120" lon="-0.7035130">
        <ele>413.0</ele>
        <time>2018-09-16T11:39:30Z</time>
      </trkpt>
      <trkpt lat="39.3112650" lon="-0.7034080">
        <ele>413.0</ele>
        <time>2018-09-16T11:39:31Z</time>
      </trkpt>
      <trkpt lat="39.3113230" lon="-0.7033100">
        <ele>412.0</ele>
        <time>2018-09-16T11:39:32Z</time>
      </trkpt>
      <trkpt lat="39.3113230" lon="-0.7033100">
        <ele>412.0</ele>
        <time>2018-09-16T11:39:33Z</time>
      </trkpt>
      <trkpt lat="39.3114580" lon="-0.7031370">
        <ele>411.0</ele>
        <time>2018-09-16T11:39:34Z</time>
      </trkpt>
      <trkpt lat="39.3115320" lon="-0.7030530">
        <ele>411.0</ele>
        <time>2018-09-16T11:39:35Z</time>
      </trkpt>
      <trkpt lat="39.3115320" lon="-0.7030530">
        <ele>411.0</ele>
        <time>2018-09-16T11:39:36Z</time>
      </trkpt>
      <trkpt lat="39.3116850" lon="-0.7028870">
        <ele>411.0</ele>
        <time>2018-09-16T11:39:37Z</time>
      </trkpt>
      <trkpt lat="39.3116850" lon="-0.7028870">
        <ele>411.0</ele>
        <time>2018-09-16T11:39:38Z</time>
      </trkpt>
      <trkpt lat="39.3118400" lon="-0.7027180">
        <ele>410.0</ele>
        <time>2018-09-16T11:39:39Z</time>
      </trkpt>
      <trkpt lat="39.3118400" lon="-0.7027180">
        <ele>410.0</ele>
        <time>2018-09-16T11:39:40Z</time>
      </trkpt>
      <trkpt lat="39.3119770" lon="-0.7025320">
        <ele>408.0</ele>
        <time>2018-09-16T11:39:41Z</time>
      </trkpt>
      <trkpt lat="39.3119770" lon="-0.7025320">
        <ele>408.0</ele>
        <time>2018-09-16T11:39:42Z</time>
      </trkpt>
      <trkpt lat="39.3120530" lon="-0.7023100">
        <ele>408.0</ele>
        <time>2018-09-16T11:39:43Z</time>
      </trkpt>
      <trkpt lat="39.3120530" lon="-0.7023100">
        <ele>408.0</ele>
        <time>2018-09-16T11:39:44Z</time>
      </trkpt>
      <trkpt lat="39.3120830" lon="-0.7020800">
        <ele>408.0</ele>
        <time>2018-09-16T11:39:45Z</time>
      </trkpt>
      <trkpt lat="39.3120920" lon="-0.7019650">
        <ele>408.0</ele>
        <time>2018-09-16T11:39:46Z</time>
      </trkpt>
      <trkpt lat="39.3120920" lon="-0.7019650">
        <ele>408.0</ele>
        <time>2018-09-16T11:39:47Z</time>
      </trkpt>
      <trkpt lat="39.3120850" lon="-0.7017470">
        <ele>408.0</ele>
        <time>2018-09-16T11:39:48Z</time>
      </trkpt>
      <trkpt lat="39.3120650" lon="-0.7016430">
        <ele>408.0</ele>
        <time>2018-09-16T11:39:49Z</time>
      </trkpt>
      <trkpt lat="39.3120650" lon="-0.7016430">
        <ele>408.0</ele>
        <time>2018-09-16T11:39:50Z</time>
      </trkpt>
      <trkpt lat="39.3120150" lon="-0.7014470">
        <ele>407.0</ele>
        <time>2018-09-16T11:39:51Z</time>
      </trkpt>
      <trkpt lat="39.3120150" lon="-0.7014470">
        <ele>407.0</ele>
        <time>2018-09-16T11:39:52Z</time>
      </trkpt>
      <trkpt lat="39.3119620" lon="-0.7012500">
        <ele>407.0</ele>
        <time>2018-09-16T11:39:53Z</time>
      </trkpt>
      <trkpt lat="39.3119430" lon="-0.7011470">
        <ele>406.0</ele>
        <time>2018-09-16T11:39:54Z</time>
      </trkpt>
      <trkpt lat="39.3119320" lon="-0.7010400">
        <ele>406.0</ele>
        <time>2018-09-16T11:39:55Z</time>
      </trkpt>
      <trkpt lat="39.3119320" lon="-0.7010400">
        <ele>406.0</ele>
        <time>2018-09-16T11:39:56Z</time>
      </trkpt>
      <trkpt lat="39.3119420" lon="-0.7008130">
        <ele>406.0</ele>
        <time>2018-09-16T11:39:57Z</time>
      </trkpt>
      <trkpt lat="39.3119670" lon="-0.7007020">
        <ele>405.0</ele>
        <time>2018-09-16T11:39:58Z</time>
      </trkpt>
      <trkpt lat="39.3120070" lon="-0.7005970">
        <ele>405.0</ele>
        <time>2018-09-16T11:39:59Z</time>
      </trkpt>
      <trkpt lat="39.3120070" lon="-0.7005970">
        <ele>404.0</ele>
        <time>2018-09-16T11:40:00Z</time>
      </trkpt>
      <trkpt lat="39.3121300" lon="-0.7004150">
        <ele>404.0</ele>
        <time>2018-09-16T11:40:01Z</time>
      </trkpt>
      <trkpt lat="39.3121300" lon="-0.7004150">
        <ele>403.0</ele>
        <time>2018-09-16T11:40:02Z</time>
      </trkpt>
      <trkpt lat="39.3122880" lon="-0.7002800">
        <ele>403.0</ele>
        <time>2018-09-16T11:40:03Z</time>
      </trkpt>
      <trkpt lat="39.3123750" lon="-0.7002270">
        <ele>402.0</ele>
        <time>2018-09-16T11:40:04Z</time>
      </trkpt>
      <trkpt lat="39.3123750" lon="-0.7002270">
        <ele>402.0</ele>
        <time>2018-09-16T11:40:05Z</time>
      </trkpt>
      <trkpt lat="39.3125530" lon="-0.7001300">
        <ele>401.0</ele>
        <time>2018-09-16T11:40:06Z</time>
      </trkpt>
      <trkpt lat="39.3126400" lon="-0.7000800">
        <ele>401.0</ele>
        <time>2018-09-16T11:40:07Z</time>
      </trkpt>
      <trkpt lat="39.3126400" lon="-0.7000800">
        <ele>400.0</ele>
        <time>2018-09-16T11:40:08Z</time>
      </trkpt>
      <trkpt lat="39.3128080" lon="-0.6999780">
        <ele>400.0</ele>
        <time>2018-09-16T11:40:09Z</time>
      </trkpt>
      <trkpt lat="39.3128080" lon="-0.6999780">
        <ele>400.0</ele>
        <time>2018-09-16T11:40:10Z</time>
      </trkpt>
      <trkpt lat="39.3129620" lon="-0.6998630">
        <ele>400.0</ele>
        <time>2018-09-16T11:40:11Z</time>
      </trkpt>
      <trkpt lat="39.3129620" lon="-0.6998630">
        <ele>399.0</ele>
        <time>2018-09-16T11:40:12Z</time>
      </trkpt>
      <trkpt lat="39.3131030" lon="-0.6997400">
        <ele>399.0</ele>
        <time>2018-09-16T11:40:13Z</time>
      </trkpt>
      <trkpt lat="39.3131030" lon="-0.6997400">
        <ele>399.0</ele>
        <time>2018-09-16T11:40:14Z</time>
      </trkpt>
      <trkpt lat="39.3132280" lon="-0.6996020">
        <ele>399.0</ele>
        <time>2018-09-16T11:40:15Z</time>
      </trkpt>
      <trkpt lat="39.3132280" lon="-0.6996020">
        <ele>399.0</ele>
        <time>2018-09-16T11:40:16Z</time>
      </trkpt>
      <trkpt lat="39.3133420" lon="-0.6994500">
        <ele>399.0</ele>
        <time>2018-09-16T11:40:17Z</time>
      </trkpt>
      <trkpt lat="39.3133420" lon="-0.6994500">
        <ele>398.0</ele>
        <time>2018-09-16T11:40:18Z</time>
      </trkpt>
      <trkpt lat="39.3134450" lon="-0.6992900">
        <ele>398.0</ele>
        <time>2018-09-16T11:40:19Z</time>
      </trkpt>
      <trkpt lat="39.3134450" lon="-0.6992900">
        <ele>398.0</ele>
        <time>2018-09-16T11:40:20Z</time>
      </trkpt>
      <trkpt lat="39.3135250" lon="-0.6991120">
        <ele>398.0</ele>
        <time>2018-09-16T11:40:21Z</time>
      </trkpt>
      <trkpt lat="39.3135250" lon="-0.6991120">
        <ele>398.0</ele>
        <time>2018-09-16T11:40:22Z</time>
      </trkpt>
      <trkpt lat="39.3135750" lon="-0.6989370">
        <ele>398.0</ele>
        <time>2018-09-16T11:40:23Z</time>
      </trkpt>
      <trkpt lat="39.3135750" lon="-0.6989370">
        <ele>398.0</ele>
        <time>2018-09-16T11:40:24Z</time>
      </trkpt>
      <trkpt lat="39.3136150" lon="-0.6987750">
        <ele>398.0</ele>
        <time>2018-09-16T11:40:25Z</time>
      </trkpt>
      <trkpt lat="39.3136150" lon="-0.6987750">
        <ele>398.0</ele>
        <time>2018-09-16T11:40:26Z</time>
      </trkpt>
      <trkpt lat="39.3136550" lon="-0.6986200">
        <ele>398.0</ele>
        <time>2018-09-16T11:40:27Z</time>
      </trkpt>
      <trkpt lat="39.3136550" lon="-0.6986200">
        <ele>398.0</ele>
        <time>2018-09-16T11:40:28Z</time>
      </trkpt>
      <trkpt lat="39.3136880" lon="-0.6984730">
        <ele>398.0</ele>
        <time>2018-09-16T11:40:29Z</time>
      </trkpt>
      <trkpt lat="39.3137050" lon="-0.6984020">
        <ele>398.0</ele>
        <time>2018-09-16T11:40:30Z</time>
      </trkpt>
      <trkpt lat="39.3137200" lon="-0.6983330">
        <ele>398.0</ele>
        <time>2018-09-16T11:40:31Z</time>
      </trkpt>
      <trkpt lat="39.3137200" lon="-0.6983330">
        <ele>398.0</ele>
        <time>2018-09-16T11:40:32Z</time>
      </trkpt>
      <trkpt lat="39.3137500" lon="-0.6981970">
        <ele>398.0</ele>
        <time>2018-09-16T11:40:33Z</time>
      </trkpt>
      <trkpt lat="39.3137500" lon="-0.6981970">
        <ele>398.0</ele>
        <time>2018-09-16T11:40:34Z</time>
      </trkpt>
      <trkpt lat="39.3137820" lon="-0.6980650">
        <ele>398.0</ele>
        <time>2018-09-16T11:40:35Z</time>
      </trkpt>
      <trkpt lat="39.3137820" lon="-0.6980650">
        <ele>398.0</ele>
        <time>2018-09-16T11:40:36Z</time>
      </trkpt>
      <trkpt lat="39.3138150" lon="-0.6979370">
        <ele>399.0</ele>
        <time>2018-09-16T11:40:37Z</time>
      </trkpt>
      <trkpt lat="39.3138150" lon="-0.6979370">
        <ele>399.0</ele>
        <time>2018-09-16T11:40:38Z</time>
      </trkpt>
      <trkpt lat="39.3138480" lon="-0.6978070">
        <ele>399.0</ele>
        <time>2018-09-16T11:40:39Z</time>
      </trkpt>
      <trkpt lat="39.3138480" lon="-0.6978070">
        <ele>399.0</ele>
        <time>2018-09-16T11:40:40Z</time>
      </trkpt>
      <trkpt lat="39.3138780" lon="-0.6976650">
        <ele>399.0</ele>
        <time>2018-09-16T11:40:41Z</time>
      </trkpt>
      <trkpt lat="39.3138780" lon="-0.6976650">
        <ele>399.0</ele>
        <time>2018-09-16T11:40:42Z</time>
      </trkpt>
      <trkpt lat="39.3138830" lon="-0.6975100">
        <ele>398.0</ele>
        <time>2018-09-16T11:40:43Z</time>
      </trkpt>
      <trkpt lat="39.3138830" lon="-0.6975100">
        <ele>398.0</ele>
        <time>2018-09-16T11:40:44Z</time>
      </trkpt>
      <trkpt lat="39.3138470" lon="-0.6973550">
        <ele>398.0</ele>
        <time>2018-09-16T11:40:45Z</time>
      </trkpt>
      <trkpt lat="39.3138470" lon="-0.6973550">
        <ele>398.0</ele>
        <time>2018-09-16T11:40:46Z</time>
      </trkpt>
      <trkpt lat="39.3137850" lon="-0.6972050">
        <ele>398.0</ele>
        <time>2018-09-16T11:40:47Z</time>
      </trkpt>
      <trkpt lat="39.3137850" lon="-0.6972050">
        <ele>398.0</ele>
        <time>2018-09-16T11:40:48Z</time>
      </trkpt>
      <trkpt lat="39.3137100" lon="-0.6970600">
        <ele>398.0</ele>
        <time>2018-09-16T11:40:49Z</time>
      </trkpt>
      <trkpt lat="39.3137100" lon="-0.6970600">
        <ele>397.0</ele>
        <time>2018-09-16T11:40:50Z</time>
      </trkpt>
      <trkpt lat="39.3136220" lon="-0.6969220">
        <ele>397.0</ele>
        <time>2018-09-16T11:40:51Z</time>
      </trkpt>
      <trkpt lat="39.3136220" lon="-0.6969220">
        <ele>397.0</ele>
        <time>2018-09-16T11:40:52Z</time>
      </trkpt>
      <trkpt lat="39.3135120" lon="-0.6968050">
        <ele>397.0</ele>
        <time>2018-09-16T11:40:53Z</time>
      </trkpt>
      <trkpt lat="39.3134500" lon="-0.6967550">
        <ele>397.0</ele>
        <time>2018-09-16T11:40:54Z</time>
      </trkpt>
      <trkpt lat="39.3133870" lon="-0.6967080">
        <ele>397.0</ele>
        <time>2018-09-16T11:40:55Z</time>
      </trkpt>
      <trkpt lat="39.3133870" lon="-0.6967080">
        <ele>397.0</ele>
        <time>2018-09-16T11:40:56Z</time>
      </trkpt>
      <trkpt lat="39.3132600" lon="-0.6966130">
        <ele>397.0</ele>
        <time>2018-09-16T11:40:57Z</time>
      </trkpt>
      <trkpt lat="39.3131970" lon="-0.6965650">
        <ele>397.0</ele>
        <time>2018-09-16T11:40:58Z</time>
      </trkpt>
      <trkpt lat="39.3131970" lon="-0.6965650">
        <ele>397.0</ele>
        <time>2018-09-16T11:40:59Z</time>
      </trkpt>
      <trkpt lat="39.3130730" lon="-0.6964730">
        <ele>397.0</ele>
        <time>2018-09-16T11:41:00Z</time>
      </trkpt>
      <trkpt lat="39.3130150" lon="-0.6964280">
        <ele>397.0</ele>
        <time>2018-09-16T11:41:01Z</time>
      </trkpt>
      <trkpt lat="39.3130150" lon="-0.6964280">
        <ele>397.0</ele>
        <time>2018-09-16T11:41:02Z</time>
      </trkpt>
      <trkpt lat="39.3129080" lon="-0.6963320">
        <ele>397.0</ele>
        <time>2018-09-16T11:41:03Z</time>
      </trkpt>
      <trkpt lat="39.3129080" lon="-0.6963320">
        <ele>397.0</ele>
        <time>2018-09-16T11:41:04Z</time>
      </trkpt>
      <trkpt lat="39.3128230" lon="-0.6962170">
        <ele>397.0</ele>
        <time>2018-09-16T11:41:05Z</time>
      </trkpt>
      <trkpt lat="39.3128230" lon="-0.6962170">
        <ele>397.0</ele>
        <time>2018-09-16T11:41:06Z</time>
      </trkpt>
      <trkpt lat="39.3127650" lon="-0.6960730">
        <ele>397.0</ele>
        <time>2018-09-16T11:41:07Z</time>
      </trkpt>
      <trkpt lat="39.3127650" lon="-0.6960730">
        <ele>397.0</ele>
        <time>2018-09-16T11:41:08Z</time>
      </trkpt>
      <trkpt lat="39.3127370" lon="-0.6959020">
        <ele>397.0</ele>
        <time>2018-09-16T11:41:09Z</time>
      </trkpt>
      <trkpt lat="39.3127370" lon="-0.6959020">
        <ele>396.0</ele>
        <time>2018-09-16T11:41:10Z</time>
      </trkpt>
      <trkpt lat="39.3127520" lon="-0.6957070">
        <ele>396.0</ele>
        <time>2018-09-16T11:41:11Z</time>
      </trkpt>
      <trkpt lat="39.3127780" lon="-0.6956120">
        <ele>396.0</ele>
        <time>2018-09-16T11:41:12Z</time>
      </trkpt>
      <trkpt lat="39.3127780" lon="-0.6956120">
        <ele>395.0</ele>
        <time>2018-09-16T11:41:13Z</time>
      </trkpt>
      <trkpt lat="39.3128670" lon="-0.6954370">
        <ele>395.0</ele>
        <time>2018-09-16T11:41:14Z</time>
      </trkpt>
      <trkpt lat="39.3129180" lon="-0.6953580">
        <ele>394.0</ele>
        <time>2018-09-16T11:41:15Z</time>
      </trkpt>
      <trkpt lat="39.3129180" lon="-0.6953580">
        <ele>394.0</ele>
        <time>2018-09-16T11:41:16Z</time>
      </trkpt>
      <trkpt lat="39.3130230" lon="-0.6952000">
        <ele>394.0</ele>
        <time>2018-09-16T11:41:17Z</time>
      </trkpt>
      <trkpt lat="39.3130230" lon="-0.6952000">
        <ele>394.0</ele>
        <time>2018-09-16T11:41:18Z</time>
      </trkpt>
      <trkpt lat="39.3131270" lon="-0.6950430">
        <ele>393.0</ele>
        <time>2018-09-16T11:41:19Z</time>
      </trkpt>
      <trkpt lat="39.3131270" lon="-0.6950430">
        <ele>393.0</ele>
        <time>2018-09-16T11:41:20Z</time>
      </trkpt>
      <trkpt lat="39.3132300" lon="-0.6948880">
        <ele>393.0</ele>
        <time>2018-09-16T11:41:21Z</time>
      </trkpt>
      <trkpt lat="39.3132800" lon="-0.6948120">
        <ele>393.0</ele>
        <time>2018-09-16T11:41:22Z</time>
      </trkpt>
      <trkpt lat="39.3132800" lon="-0.6948120">
        <ele>393.0</ele>
        <time>2018-09-16T11:41:23Z</time>
      </trkpt>
      <trkpt lat="39.3133830" lon="-0.6946580">
        <ele>393.0</ele>
        <time>2018-09-16T11:41:24Z</time>
      </trkpt>
      <trkpt lat="39.3134350" lon="-0.6945820">
        <ele>392.0</ele>
        <time>2018-09-16T11:41:25Z</time>
      </trkpt>
      <trkpt lat="39.3134350" lon="-0.6945820">
        <ele>392.0</ele>
        <time>2018-09-16T11:41:26Z</time>
      </trkpt>
      <trkpt lat="39.3135330" lon="-0.6944300">
        <ele>392.0</ele>
        <time>2018-09-16T11:41:27Z</time>
      </trkpt>
      <trkpt lat="39.3135330" lon="-0.6944300">
        <ele>392.0</ele>
        <time>2018-09-16T11:41:28Z</time>
      </trkpt>
      <trkpt lat="39.3136280" lon="-0.6942800">
        <ele>392.0</ele>
        <time>2018-09-16T11:41:29Z</time>
      </trkpt>
      <trkpt lat="39.3136750" lon="-0.6942030">
        <ele>392.0</ele>
        <time>2018-09-16T11:41:30Z</time>
      </trkpt>
      <trkpt lat="39.3137180" lon="-0.6941230">
        <ele>392.0</ele>
        <time>2018-09-16T11:41:31Z</time>
      </trkpt>
      <trkpt lat="39.3137180" lon="-0.6941230">
        <ele>392.0</ele>
        <time>2018-09-16T11:41:32Z</time>
      </trkpt>
      <trkpt lat="39.3137850" lon="-0.6939530">
        <ele>392.0</ele>
        <time>2018-09-16T11:41:33Z</time>
      </trkpt>
      <trkpt lat="39.3138080" lon="-0.6938650">
        <ele>392.0</ele>
        <time>2018-09-16T11:41:34Z</time>
      </trkpt>
      <trkpt lat="39.3138080" lon="-0.6938650">
        <ele>391.0</ele>
        <time>2018-09-16T11:41:35Z</time>
      </trkpt>
      <trkpt lat="39.3138450" lon="-0.6936780">
        <ele>391.0</ele>
        <time>2018-09-16T11:41:36Z</time>
      </trkpt>
      <trkpt lat="39.3138600" lon="-0.6935820">
        <ele>391.0</ele>
        <time>2018-09-16T11:41:37Z</time>
      </trkpt>
      <trkpt lat="39.3138600" lon="-0.6935820">
        <ele>391.0</ele>
        <time>2018-09-16T11:41:38Z</time>
      </trkpt>
      <trkpt lat="39.3138880" lon="-0.6933870">
        <ele>391.0</ele>
        <time>2018-09-16T11:41:39Z</time>
      </trkpt>
      <trkpt lat="39.3138880" lon="-0.6933870">
        <ele>391.0</ele>
        <time>2018-09-16T11:41:40Z</time>
      </trkpt>
      <trkpt lat="39.3139200" lon="-0.6931870">
        <ele>391.0</ele>
        <time>2018-09-16T11:41:41Z</time>
      </trkpt>
      <trkpt lat="39.3139380" lon="-0.6930830">
        <ele>390.0</ele>
        <time>2018-09-16T11:41:42Z</time>
      </trkpt>
      <trkpt lat="39.3139380" lon="-0.6930830">
        <ele>390.0</ele>
        <time>2018-09-16T11:41:43Z</time>
      </trkpt>
      <trkpt lat="39.3139700" lon="-0.6928750">
        <ele>390.0</ele>
        <time>2018-09-16T11:41:44Z</time>
      </trkpt>
      <trkpt lat="39.3139700" lon="-0.6928750">
        <ele>390.0</ele>
        <time>2018-09-16T11:41:45Z</time>
      </trkpt>
      <trkpt lat="39.3140000" lon="-0.6926620">
        <ele>390.0</ele>
        <time>2018-09-16T11:41:46Z</time>
      </trkpt>
      <trkpt lat="39.3140000" lon="-0.6926620">
        <ele>389.0</ele>
        <time>2018-09-16T11:41:47Z</time>
      </trkpt>
      <trkpt lat="39.3140080" lon="-0.6924420">
        <ele>389.0</ele>
        <time>2018-09-16T11:41:48Z</time>
      </trkpt>
      <trkpt lat="39.3140020" lon="-0.6923300">
        <ele>388.0</ele>
        <time>2018-09-16T11:41:49Z</time>
      </trkpt>
      <trkpt lat="39.3140020" lon="-0.6923300">
        <ele>388.0</ele>
        <time>2018-09-16T11:41:50Z</time>
      </trkpt>
      <trkpt lat="39.3139800" lon="-0.6921070">
        <ele>387.0</ele>
        <time>2018-09-16T11:41:51Z</time>
      </trkpt>
      <trkpt lat="39.3139800" lon="-0.6921070">
        <ele>387.0</ele>
        <time>2018-09-16T11:41:52Z</time>
      </trkpt>
      <trkpt lat="39.3139550" lon="-0.6918800">
        <ele>386.0</ele>
        <time>2018-09-16T11:41:53Z</time>
      </trkpt>
      <trkpt lat="39.3139550" lon="-0.6918800">
        <ele>386.0</ele>
        <time>2018-09-16T11:41:54Z</time>
      </trkpt>
      <trkpt lat="39.3139320" lon="-0.6916450">
        <ele>386.0</ele>
        <time>2018-09-16T11:41:55Z</time>
      </trkpt>
      <trkpt lat="39.3139320" lon="-0.6916450">
        <ele>386.0</ele>
        <time>2018-09-16T11:41:56Z</time>
      </trkpt>
      <trkpt lat="39.3139280" lon="-0.6914050">
        <ele>385.0</ele>
        <time>2018-09-16T11:41:57Z</time>
      </trkpt>
      <trkpt lat="39.3139280" lon="-0.6914050">
        <ele>385.0</ele>
        <time>2018-09-16T11:41:58Z</time>
      </trkpt>
      <trkpt lat="39.3139720" lon="-0.6911680">
        <ele>385.0</ele>
        <time>2018-09-16T11:41:59Z</time>
      </trkpt>
      <trkpt lat="39.3139720" lon="-0.6911680">
        <ele>385.0</ele>
        <time>2018-09-16T11:42:00Z</time>
      </trkpt>
      <trkpt lat="39.3140630" lon="-0.6909500">
        <ele>384.0</ele>
        <time>2018-09-16T11:42:01Z</time>
      </trkpt>
      <trkpt lat="39.3140630" lon="-0.6909500">
        <ele>384.0</ele>
        <time>2018-09-16T11:42:02Z</time>
      </trkpt>
      <trkpt lat="39.3141920" lon="-0.6907620">
        <ele>384.0</ele>
        <time>2018-09-16T11:42:03Z</time>
      </trkpt>
      <trkpt lat="39.3142600" lon="-0.6906720">
        <ele>383.0</ele>
        <time>2018-09-16T11:42:04Z</time>
      </trkpt>
      <trkpt lat="39.3143280" lon="-0.6905800">
        <ele>383.0</ele>
        <time>2018-09-16T11:42:05Z</time>
      </trkpt>
      <trkpt lat="39.3143950" lon="-0.6904830">
        <ele>381.0</ele>
        <time>2018-09-16T11:42:06Z</time>
      </trkpt>
      <trkpt lat="39.3143950" lon="-0.6904830">
        <ele>381.0</ele>
        <time>2018-09-16T11:42:07Z</time>
      </trkpt>
      <trkpt lat="39.3145130" lon="-0.6902650">
        <ele>380.0</ele>
        <time>2018-09-16T11:42:08Z</time>
      </trkpt>
      <trkpt lat="39.3145130" lon="-0.6902650">
        <ele>380.0</ele>
        <time>2018-09-16T11:42:09Z</time>
      </trkpt>
      <trkpt lat="39.3146070" lon="-0.6900170">
        <ele>378.0</ele>
        <time>2018-09-16T11:42:10Z</time>
      </trkpt>
      <trkpt lat="39.3146400" lon="-0.6898820">
        <ele>378.0</ele>
        <time>2018-09-16T11:42:11Z</time>
      </trkpt>
      <trkpt lat="39.3146670" lon="-0.6897450">
        <ele>377.0</ele>
        <time>2018-09-16T11:42:12Z</time>
      </trkpt>
      <trkpt lat="39.3146850" lon="-0.6896030">
        <ele>377.0</ele>
        <time>2018-09-16T11:42:13Z</time>
      </trkpt>
      <trkpt lat="39.3146850" lon="-0.6896030">
        <ele>376.0</ele>
        <time>2018-09-16T11:42:14Z</time>
      </trkpt>
      <trkpt lat="39.3146920" lon="-0.6893180">
        <ele>376.0</ele>
        <time>2018-09-16T11:42:15Z</time>
      </trkpt>
      <trkpt lat="39.3146920" lon="-0.6893180">
        <ele>375.0</ele>
        <time>2018-09-16T11:42:16Z</time>
      </trkpt>
      <trkpt lat="39.3146620" lon="-0.6890470">
        <ele>375.0</ele>
        <time>2018-09-16T11:42:17Z</time>
      </trkpt>
      <trkpt lat="39.3146620" lon="-0.6890470">
        <ele>374.0</ele>
        <time>2018-09-16T11:42:18Z</time>
      </trkpt>
      <trkpt lat="39.3146000" lon="-0.6887870">
        <ele>374.0</ele>
        <time>2018-09-16T11:42:19Z</time>
      </trkpt>
      <trkpt lat="39.3146000" lon="-0.6887870">
        <ele>373.0</ele>
        <time>2018-09-16T11:42:20Z</time>
      </trkpt>
      <trkpt lat="39.3145250" lon="-0.6885230">
        <ele>373.0</ele>
        <time>2018-09-16T11:42:21Z</time>
      </trkpt>
      <trkpt lat="39.3144870" lon="-0.6883870">
        <ele>372.0</ele>
        <time>2018-09-16T11:42:22Z</time>
      </trkpt>
      <trkpt lat="39.3144870" lon="-0.6883870">
        <ele>372.0</ele>
        <time>2018-09-16T11:42:23Z</time>
      </trkpt>
      <trkpt lat="39.3144020" lon="-0.6881070">
        <ele>371.0</ele>
        <time>2018-09-16T11:42:24Z</time>
      </trkpt>
      <trkpt lat="39.3143550" lon="-0.6879670">
        <ele>371.0</ele>
        <time>2018-09-16T11:42:25Z</time>
      </trkpt>
      <trkpt lat="39.3143550" lon="-0.6879670">
        <ele>371.0</ele>
        <time>2018-09-16T11:42:26Z</time>
      </trkpt>
      <trkpt lat="39.3142520" lon="-0.6876880">
        <ele>371.0</ele>
        <time>2018-09-16T11:42:27Z</time>
      </trkpt>
      <trkpt lat="39.3142000" lon="-0.6875500">
        <ele>369.0</ele>
        <time>2018-09-16T11:42:28Z</time>
      </trkpt>
      <trkpt lat="39.3142000" lon="-0.6875500">
        <ele>368.0</ele>
        <time>2018-09-16T11:42:29Z</time>
      </trkpt>
      <trkpt lat="39.3141080" lon="-0.6872670">
        <ele>368.0</ele>
        <time>2018-09-16T11:42:30Z</time>
      </trkpt>
      <trkpt lat="39.3140720" lon="-0.6871180">
        <ele>367.0</ele>
        <time>2018-09-16T11:42:31Z</time>
      </trkpt>
      <trkpt lat="39.3140720" lon="-0.6871180">
        <ele>367.0</ele>
        <time>2018-09-16T11:42:32Z</time>
      </trkpt>
      <trkpt lat="39.3140170" lon="-0.6868130">
        <ele>366.0</ele>
        <time>2018-09-16T11:42:33Z</time>
      </trkpt>
      <trkpt lat="39.3139900" lon="-0.6866580">
        <ele>366.0</ele>
        <time>2018-09-16T11:42:34Z</time>
      </trkpt>
      <trkpt lat="39.3139900" lon="-0.6866580">
        <ele>364.0</ele>
        <time>2018-09-16T11:42:35Z</time>
      </trkpt>
      <trkpt lat="39.3139350" lon="-0.6863430">
        <ele>364.0</ele>
        <time>2018-09-16T11:42:36Z</time>
      </trkpt>
      <trkpt lat="39.3139080" lon="-0.6861850">
        <ele>363.0</ele>
        <time>2018-09-16T11:42:37Z</time>
      </trkpt>
      <trkpt lat="39.3139080" lon="-0.6861850">
        <ele>363.0</ele>
        <time>2018-09-16T11:42:38Z</time>
      </trkpt>
      <trkpt lat="39.3138780" lon="-0.6858650">
        <ele>361.0</ele>
        <time>2018-09-16T11:42:39Z</time>
      </trkpt>
      <trkpt lat="39.3138780" lon="-0.6858650">
        <ele>361.0</ele>
        <time>2018-09-16T11:42:40Z</time>
      </trkpt>
      <trkpt lat="39.3139030" lon="-0.6855520">
        <ele>360.0</ele>
        <time>2018-09-16T11:42:41Z</time>
      </trkpt>
      <trkpt lat="39.3139030" lon="-0.6855520">
        <ele>360.0</ele>
        <time>2018-09-16T11:42:42Z</time>
      </trkpt>
      <trkpt lat="39.3139620" lon="-0.6852450">
        <ele>358.0</ele>
        <time>2018-09-16T11:42:43Z</time>
      </trkpt>
      <trkpt lat="39.3139620" lon="-0.6852450">
        <ele>358.0</ele>
        <time>2018-09-16T11:42:44Z</time>
      </trkpt>
      <trkpt lat="39.3140300" lon="-0.6849430">
        <ele>357.0</ele>
        <time>2018-09-16T11:42:45Z</time>
      </trkpt>
      <trkpt lat="39.3140300" lon="-0.6849430">
        <ele>357.0</ele>
        <time>2018-09-16T11:42:46Z</time>
      </trkpt>
      <trkpt lat="39.3141020" lon="-0.6846420">
        <ele>354.0</ele>
        <time>2018-09-16T11:42:47Z</time>
      </trkpt>
      <trkpt lat="39.3141020" lon="-0.6846420">
        <ele>354.0</ele>
        <time>2018-09-16T11:42:48Z</time>
      </trkpt>
      <trkpt lat="39.3141830" lon="-0.6843500">
        <ele>353.0</ele>
        <time>2018-09-16T11:42:49Z</time>
      </trkpt>
      <trkpt lat="39.3141830" lon="-0.6843500">
        <ele>353.0</ele>
        <time>2018-09-16T11:42:50Z</time>
      </trkpt>
      <trkpt lat="39.3142850" lon="-0.6840620">
        <ele>351.0</ele>
        <time>2018-09-16T11:42:51Z</time>
      </trkpt>
      <trkpt lat="39.3142850" lon="-0.6840620">
        <ele>351.0</ele>
        <time>2018-09-16T11:42:52Z</time>
      </trkpt>
      <trkpt lat="39.3143870" lon="-0.6837750">
        <ele>350.0</ele>
        <time>2018-09-16T11:42:53Z</time>
      </trkpt>
      <trkpt lat="39.3143870" lon="-0.6837750">
        <ele>350.0</ele>
        <time>2018-09-16T11:42:54Z</time>
      </trkpt>
      <trkpt lat="39.3144430" lon="-0.6834750">
        <ele>348.0</ele>
        <time>2018-09-16T11:42:55Z</time>
      </trkpt>
      <trkpt lat="39.3144430" lon="-0.6834750">
        <ele>346.0</ele>
        <time>2018-09-16T11:42:56Z</time>
      </trkpt>
      <trkpt lat="39.3144030" lon="-0.6831650">
        <ele>346.0</ele>
        <time>2018-09-16T11:42:57Z</time>
      </trkpt>
      <trkpt lat="39.3143550" lon="-0.6830170">
        <ele>345.0</ele>
        <time>2018-09-16T11:42:58Z</time>
      </trkpt>
      <trkpt lat="39.3143550" lon="-0.6830170">
        <ele>345.0</ele>
        <time>2018-09-16T11:42:59Z</time>
      </trkpt>
      <trkpt lat="39.3142430" lon="-0.6827130">
        <ele>343.0</ele>
        <time>2018-09-16T11:43:00Z</time>
      </trkpt>
      <trkpt lat="39.3141850" lon="-0.6825570">
        <ele>343.0</ele>
        <time>2018-09-16T11:43:01Z</time>
      </trkpt>
      <trkpt lat="39.3141850" lon="-0.6825570">
        <ele>341.0</ele>
        <time>2018-09-16T11:43:02Z</time>
      </trkpt>
      <trkpt lat="39.3140650" lon="-0.6822380">
        <ele>341.0</ele>
        <time>2018-09-16T11:43:03Z</time>
      </trkpt>
      <trkpt lat="39.3140650" lon="-0.6822380">
        <ele>340.0</ele>
        <time>2018-09-16T11:43:04Z</time>
      </trkpt>
      <trkpt lat="39.3139220" lon="-0.6819380">
        <ele>340.0</ele>
        <time>2018-09-16T11:43:05Z</time>
      </trkpt>
      <trkpt lat="39.3139220" lon="-0.6819380">
        <ele>338.0</ele>
        <time>2018-09-16T11:43:06Z</time>
      </trkpt>
      <trkpt lat="39.3137630" lon="-0.6816580">
        <ele>338.0</ele>
        <time>2018-09-16T11:43:07Z</time>
      </trkpt>
      <trkpt lat="39.3137630" lon="-0.6816580">
        <ele>336.0</ele>
        <time>2018-09-16T11:43:08Z</time>
      </trkpt>
      <trkpt lat="39.3136250" lon="-0.6813730">
        <ele>336.0</ele>
        <time>2018-09-16T11:43:09Z</time>
      </trkpt>
      <trkpt lat="39.3136250" lon="-0.6813730">
        <ele>336.0</ele>
        <time>2018-09-16T11:43:10Z</time>
      </trkpt>
      <trkpt lat="39.3135200" lon="-0.6810800">
        <ele>336.0</ele>
        <time>2018-09-16T11:43:11Z</time>
      </trkpt>
      <trkpt lat="39.3134820" lon="-0.6809280">
        <ele>334.0</ele>
        <time>2018-09-16T11:43:12Z</time>
      </trkpt>
      <trkpt lat="39.3134520" lon="-0.6807730">
        <ele>334.0</ele>
        <time>2018-09-16T11:43:13Z</time>
      </trkpt>
      <trkpt lat="39.3134520" lon="-0.6807730">
        <ele>333.0</ele>
        <time>2018-09-16T11:43:14Z</time>
      </trkpt>
      <trkpt lat="39.3134100" lon="-0.6804620">
        <ele>333.0</ele>
        <time>2018-09-16T11:43:15Z</time>
      </trkpt>
      <trkpt lat="39.3133920" lon="-0.6803070">
        <ele>331.0</ele>
        <time>2018-09-16T11:43:16Z</time>
      </trkpt>
      <trkpt lat="39.3133920" lon="-0.6803070">
        <ele>331.0</ele>
        <time>2018-09-16T11:43:17Z</time>
      </trkpt>
      <trkpt lat="39.3133530" lon="-0.6800000">
        <ele>329.0</ele>
        <time>2018-09-16T11:43:18Z</time>
      </trkpt>
      <trkpt lat="39.3133250" lon="-0.6798570">
        <ele>329.0</ele>
        <time>2018-09-16T11:43:19Z</time>
      </trkpt>
      <trkpt lat="39.3133250" lon="-0.6798570">
        <ele>327.0</ele>
        <time>2018-09-16T11:43:20Z</time>
      </trkpt>
      <trkpt lat="39.3131920" lon="-0.6796270">
        <ele>327.0</ele>
        <time>2018-09-16T11:43:21Z</time>
      </trkpt>
      <trkpt lat="39.3131920" lon="-0.6796270">
        <ele>325.0</ele>
        <time>2018-09-16T11:43:22Z</time>
      </trkpt>
      <trkpt lat="39.3130350" lon="-0.6794280">
        <ele>323.0</ele>
        <time>2018-09-16T11:43:23Z</time>
      </trkpt>
      <trkpt lat="39.3130350" lon="-0.6794280">
        <ele>323.0</ele>
        <time>2018-09-16T11:43:24Z</time>
      </trkpt>
      <trkpt lat="39.3129830" lon="-0.6791670">
        <ele>321.0</ele>
        <time>2018-09-16T11:43:25Z</time>
      </trkpt>
      <trkpt lat="39.3129830" lon="-0.6791670">
        <ele>321.0</ele>
        <time>2018-09-16T11:43:26Z</time>
      </trkpt>
      <trkpt lat="39.3130880" lon="-0.6789520">
        <ele>320.0</ele>
        <time>2018-09-16T11:43:27Z</time>
      </trkpt>
      <trkpt lat="39.3130880" lon="-0.6789520">
        <ele>320.0</ele>
        <time>2018-09-16T11:43:28Z</time>
      </trkpt>
      <trkpt lat="39.3132630" lon="-0.6787800">
        <ele>319.0</ele>
        <time>2018-09-16T11:43:29Z</time>
      </trkpt>
      <trkpt lat="39.3133480" lon="-0.6786820">
        <ele>319.0</ele>
        <time>2018-09-16T11:43:30Z</time>
      </trkpt>
      <trkpt lat="39.3134180" lon="-0.6785620">
        <ele>318.0</ele>
        <time>2018-09-16T11:43:31Z</time>
      </trkpt>
      <trkpt lat="39.3134180" lon="-0.6785620">
        <ele>318.0</ele>
        <time>2018-09-16T11:43:32Z</time>
      </trkpt>
      <trkpt lat="39.3135170" lon="-0.6782750">
        <ele>317.0</ele>
        <time>2018-09-16T11:43:33Z</time>
      </trkpt>
      <trkpt lat="39.3135600" lon="-0.6781250">
        <ele>317.0</ele>
        <time>2018-09-16T11:43:34Z</time>
      </trkpt>
      <trkpt lat="39.3135600" lon="-0.6781250">
        <ele>316.0</ele>
        <time>2018-09-16T11:43:35Z</time>
      </trkpt>
      <trkpt lat="39.3136520" lon="-0.6778170">
        <ele>316.0</ele>
        <time>2018-09-16T11:43:36Z</time>
      </trkpt>
      <trkpt lat="39.3136970" lon="-0.6776620">
        <ele>315.0</ele>
        <time>2018-09-16T11:43:37Z</time>
      </trkpt>
      <trkpt lat="39.3136970" lon="-0.6776620">
        <ele>315.0</ele>
        <time>2018-09-16T11:43:38Z</time>
      </trkpt>
      <trkpt lat="39.3137800" lon="-0.6773580">
        <ele>313.0</ele>
        <time>2018-09-16T11:43:39Z</time>
      </trkpt>
      <trkpt lat="39.3137800" lon="-0.6773580">
        <ele>313.0</ele>
        <time>2018-09-16T11:43:40Z</time>
      </trkpt>
      <trkpt lat="39.3138370" lon="-0.6770550">
        <ele>312.0</ele>
        <time>2018-09-16T11:43:41Z</time>
      </trkpt>
      <trkpt lat="39.3138370" lon="-0.6770550">
        <ele>312.0</ele>
        <time>2018-09-16T11:43:42Z</time>
      </trkpt>
      <trkpt lat="39.3137950" lon="-0.6767570">
        <ele>310.0</ele>
        <time>2018-09-16T11:43:43Z</time>
      </trkpt>
      <trkpt lat="39.3137950" lon="-0.6767570">
        <ele>310.0</ele>
        <time>2018-09-16T11:43:44Z</time>
      </trkpt>
      <trkpt lat="39.3136530" lon="-0.6765070">
        <ele>308.0</ele>
        <time>2018-09-16T11:43:45Z</time>
      </trkpt>
      <trkpt lat="39.3135750" lon="-0.6763820">
        <ele>308.0</ele>
        <time>2018-09-16T11:43:46Z</time>
      </trkpt>
      <trkpt lat="39.3135750" lon="-0.6763820">
        <ele>306.0</ele>
        <time>2018-09-16T11:43:47Z</time>
      </trkpt>
      <trkpt lat="39.3134150" lon="-0.6761270">
        <ele>304.0</ele>
        <time>2018-09-16T11:43:48Z</time>
      </trkpt>
      <trkpt lat="39.3133250" lon="-0.6760050">
        <ele>304.0</ele>
        <time>2018-09-16T11:43:49Z</time>
      </trkpt>
      <trkpt lat="39.3133250" lon="-0.6760050">
        <ele>302.0</ele>
        <time>2018-09-16T11:43:50Z</time>
      </trkpt>
      <trkpt lat="39.3131230" lon="-0.6757800">
        <ele>302.0</ele>
        <time>2018-09-16T11:43:51Z</time>
      </trkpt>
      <trkpt lat="39.3130180" lon="-0.6756670">
        <ele>300.0</ele>
        <time>2018-09-16T11:43:52Z</time>
      </trkpt>
      <trkpt lat="39.3130180" lon="-0.6756670">
        <ele>300.0</ele>
        <time>2018-09-16T11:43:53Z</time>
      </trkpt>
      <trkpt lat="39.3128070" lon="-0.6754530">
        <ele>298.0</ele>
        <time>2018-09-16T11:43:54Z</time>
      </trkpt>
      <trkpt lat="39.3127100" lon="-0.6753530">
        <ele>298.0</ele>
        <time>2018-09-16T11:43:55Z</time>
      </trkpt>
      <trkpt lat="39.3127100" lon="-0.6753530">
        <ele>296.0</ele>
        <time>2018-09-16T11:43:56Z</time>
      </trkpt>
      <trkpt lat="39.3125830" lon="-0.6751420">
        <ele>296.0</ele>
        <time>2018-09-16T11:43:57Z</time>
      </trkpt>
      <trkpt lat="39.3125830" lon="-0.6751420">
        <ele>294.0</ele>
        <time>2018-09-16T11:43:58Z</time>
      </trkpt>
      <trkpt lat="39.3125920" lon="-0.6749130">
        <ele>294.0</ele>
        <time>2018-09-16T11:43:59Z</time>
      </trkpt>
      <trkpt lat="39.3125920" lon="-0.6749130">
        <ele>293.0</ele>
        <time>2018-09-16T11:44:00Z</time>
      </trkpt>
      <trkpt lat="39.3127600" lon="-0.6747850">
        <ele>293.0</ele>
        <time>2018-09-16T11:44:01Z</time>
      </trkpt>
      <trkpt lat="39.3127600" lon="-0.6747850">
        <ele>291.0</ele>
        <time>2018-09-16T11:44:02Z</time>
      </trkpt>
      <trkpt lat="39.3129770" lon="-0.6748380">
        <ele>291.0</ele>
        <time>2018-09-16T11:44:03Z</time>
      </trkpt>
      <trkpt lat="39.3130870" lon="-0.6748970">
        <ele>289.0</ele>
        <time>2018-09-16T11:44:04Z</time>
      </trkpt>
      <trkpt lat="39.3130870" lon="-0.6748970">
        <ele>289.0</ele>
        <time>2018-09-16T11:44:05Z</time>
      </trkpt>
      <trkpt lat="39.3133130" lon="-0.6750280">
        <ele>287.0</ele>
        <time>2018-09-16T11:44:06Z</time>
      </trkpt>
      <trkpt lat="39.3134250" lon="-0.6751000">
        <ele>287.0</ele>
        <time>2018-09-16T11:44:07Z</time>
      </trkpt>
      <trkpt lat="39.3134250" lon="-0.6751000">
        <ele>287.0</ele>
        <time>2018-09-16T11:44:08Z</time>
      </trkpt>
      <trkpt lat="39.3136250" lon="-0.6752920">
        <ele>285.0</ele>
        <time>2018-09-16T11:44:09Z</time>
      </trkpt>
      <trkpt lat="39.3136250" lon="-0.6752920">
        <ele>285.0</ele>
        <time>2018-09-16T11:44:10Z</time>
      </trkpt>
      <trkpt lat="39.3138030" lon="-0.6755150">
        <ele>282.0</ele>
        <time>2018-09-16T11:44:11Z</time>
      </trkpt>
      <trkpt lat="39.3138030" lon="-0.6755150">
        <ele>282.0</ele>
        <time>2018-09-16T11:44:12Z</time>
      </trkpt>
      <trkpt lat="39.3140250" lon="-0.6756580">
        <ele>281.0</ele>
        <time>2018-09-16T11:44:13Z</time>
      </trkpt>
      <trkpt lat="39.3140250" lon="-0.6756580">
        <ele>281.0</ele>
        <time>2018-09-16T11:44:14Z</time>
      </trkpt>
      <trkpt lat="39.3142670" lon="-0.6757300">
        <ele>280.0</ele>
        <time>2018-09-16T11:44:15Z</time>
      </trkpt>
      <trkpt lat="39.3143880" lon="-0.6757620">
        <ele>278.0</ele>
        <time>2018-09-16T11:44:16Z</time>
      </trkpt>
      <trkpt lat="39.3143880" lon="-0.6757620">
        <ele>278.0</ele>
        <time>2018-09-16T11:44:17Z</time>
      </trkpt>
      <trkpt lat="39.3146350" lon="-0.6758280">
        <ele>277.0</ele>
        <time>2018-09-16T11:44:18Z</time>
      </trkpt>
      <trkpt lat="39.3147600" lon="-0.6758630">
        <ele>277.0</ele>
        <time>2018-09-16T11:44:19Z</time>
      </trkpt>
      <trkpt lat="39.3147600" lon="-0.6758630">
        <ele>275.0</ele>
        <time>2018-09-16T11:44:20Z</time>
      </trkpt>
      <trkpt lat="39.3150080" lon="-0.6759500">
        <ele>275.0</ele>
        <time>2018-09-16T11:44:21Z</time>
      </trkpt>
      <trkpt lat="39.3151300" lon="-0.6760020">
        <ele>274.0</ele>
        <time>2018-09-16T11:44:22Z</time>
      </trkpt>
      <trkpt lat="39.3151300" lon="-0.6760020">
        <ele>274.0</ele>
        <time>2018-09-16T11:44:23Z</time>
      </trkpt>
      <trkpt lat="39.3153750" lon="-0.6761230">
        <ele>272.0</ele>
        <time>2018-09-16T11:44:24Z</time>
      </trkpt>
      <trkpt lat="39.3154980" lon="-0.6761970">
        <ele>272.0</ele>
        <time>2018-09-16T11:44:25Z</time>
      </trkpt>
      <trkpt lat="39.3154980" lon="-0.6761970">
        <ele>270.0</ele>
        <time>2018-09-16T11:44:26Z</time>
      </trkpt>
      <trkpt lat="39.3157400" lon="-0.6763700">
        <ele>270.0</ele>
        <time>2018-09-16T11:44:27Z</time>
      </trkpt>
      <trkpt lat="39.3157400" lon="-0.6763700">
        <ele>268.0</ele>
        <time>2018-09-16T11:44:28Z</time>
      </trkpt>
      <trkpt lat="39.3159750" lon="-0.6765450">
        <ele>268.0</ele>
        <time>2018-09-16T11:44:29Z</time>
      </trkpt>
      <trkpt lat="39.3159750" lon="-0.6765450">
        <ele>266.0</ele>
        <time>2018-09-16T11:44:30Z</time>
      </trkpt>
      <trkpt lat="39.3162180" lon="-0.6766550">
        <ele>266.0</ele>
        <time>2018-09-16T11:44:31Z</time>
      </trkpt>
      <trkpt lat="39.3162180" lon="-0.6766550">
        <ele>263.0</ele>
        <time>2018-09-16T11:44:32Z</time>
      </trkpt>
      <trkpt lat="39.3164830" lon="-0.6766150">
        <ele>263.0</ele>
        <time>2018-09-16T11:44:33Z</time>
      </trkpt>
      <trkpt lat="39.3166100" lon="-0.6765580">
        <ele>262.0</ele>
        <time>2018-09-16T11:44:34Z</time>
      </trkpt>
      <trkpt lat="39.3166100" lon="-0.6765580">
        <ele>262.0</ele>
        <time>2018-09-16T11:44:35Z</time>
      </trkpt>
      <trkpt lat="39.3168600" lon="-0.6764380">
        <ele>260.0</ele>
        <time>2018-09-16T11:44:36Z</time>
      </trkpt>
      <trkpt lat="39.3169880" lon="-0.6763970">
        <ele>260.0</ele>
        <time>2018-09-16T11:44:37Z</time>
      </trkpt>
      <trkpt lat="39.3169880" lon="-0.6763970">
        <ele>258.0</ele>
        <time>2018-09-16T11:44:38Z</time>
      </trkpt>
      <trkpt lat="39.3172550" lon="-0.6763920">
        <ele>258.0</ele>
        <time>2018-09-16T11:44:39Z</time>
      </trkpt>
      <trkpt lat="39.3172550" lon="-0.6763920">
        <ele>256.0</ele>
        <time>2018-09-16T11:44:40Z</time>
      </trkpt>
      <trkpt lat="39.3175150" lon="-0.6765030">
        <ele>254.0</ele>
        <time>2018-09-16T11:44:41Z</time>
      </trkpt>
      <trkpt lat="39.3176320" lon="-0.6766030">
        <ele>254.0</ele>
        <time>2018-09-16T11:44:42Z</time>
      </trkpt>
      <trkpt lat="39.3177370" lon="-0.6767250">
        <ele>254.0</ele>
        <time>2018-09-16T11:44:43Z</time>
      </trkpt>
      <trkpt lat="39.3177370" lon="-0.6767250">
        <ele>252.0</ele>
        <time>2018-09-16T11:44:44Z</time>
      </trkpt>
      <trkpt lat="39.3179220" lon="-0.6769970">
        <ele>252.0</ele>
        <time>2018-09-16T11:44:45Z</time>
      </trkpt>
      <trkpt lat="39.3180120" lon="-0.6771320">
        <ele>249.0</ele>
        <time>2018-09-16T11:44:46Z</time>
      </trkpt>
      <trkpt lat="39.3180120" lon="-0.6771320">
        <ele>249.0</ele>
        <time>2018-09-16T11:44:47Z</time>
      </trkpt>
      <trkpt lat="39.3181900" lon="-0.6773930">
        <ele>247.0</ele>
        <time>2018-09-16T11:44:48Z</time>
      </trkpt>
      <trkpt lat="39.3182920" lon="-0.6774950">
        <ele>247.0</ele>
        <time>2018-09-16T11:44:49Z</time>
      </trkpt>
      <trkpt lat="39.3182920" lon="-0.6774950">
        <ele>246.0</ele>
        <time>2018-09-16T11:44:50Z</time>
      </trkpt>
      <trkpt lat="39.3185330" lon="-0.6775970">
        <ele>246.0</ele>
        <time>2018-09-16T11:44:51Z</time>
      </trkpt>
      <trkpt lat="39.3185330" lon="-0.6775970">
        <ele>244.0</ele>
        <time>2018-09-16T11:44:52Z</time>
      </trkpt>
      <trkpt lat="39.3187800" lon="-0.6775450">
        <ele>244.0</ele>
        <time>2018-09-16T11:44:53Z</time>
      </trkpt>
      <trkpt lat="39.3187800" lon="-0.6775450">
        <ele>243.0</ele>
        <time>2018-09-16T11:44:54Z</time>
      </trkpt>
      <trkpt lat="39.3189800" lon="-0.6773380">
        <ele>243.0</ele>
        <time>2018-09-16T11:44:55Z</time>
      </trkpt>
      <trkpt lat="39.3189800" lon="-0.6773380">
        <ele>241.0</ele>
        <time>2018-09-16T11:44:56Z</time>
      </trkpt>
      <trkpt lat="39.3191220" lon="-0.6770500">
        <ele>241.0</ele>
        <time>2018-09-16T11:44:57Z</time>
      </trkpt>
      <trkpt lat="39.3191220" lon="-0.6770500">
        <ele>240.0</ele>
        <time>2018-09-16T11:44:58Z</time>
      </trkpt>
      <trkpt lat="39.3192470" lon="-0.6767530">
        <ele>240.0</ele>
        <time>2018-09-16T11:44:59Z</time>
      </trkpt>
      <trkpt lat="39.3192470" lon="-0.6767530">
        <ele>238.0</ele>
        <time>2018-09-16T11:45:00Z</time>
      </trkpt>
      <trkpt lat="39.3193630" lon="-0.6764550">
        <ele>238.0</ele>
        <time>2018-09-16T11:45:01Z</time>
      </trkpt>
      <trkpt lat="39.3193630" lon="-0.6764550">
        <ele>236.0</ele>
        <time>2018-09-16T11:45:02Z</time>
      </trkpt>
      <trkpt lat="39.3194370" lon="-0.6761380">
        <ele>236.0</ele>
        <time>2018-09-16T11:45:03Z</time>
      </trkpt>
      <trkpt lat="39.3194370" lon="-0.6761380">
        <ele>235.0</ele>
        <time>2018-09-16T11:45:04Z</time>
      </trkpt>
      <trkpt lat="39.3194520" lon="-0.6758170">
        <ele>235.0</ele>
        <time>2018-09-16T11:45:05Z</time>
      </trkpt>
      <trkpt lat="39.3194520" lon="-0.6756550">
        <ele>234.0</ele>
        <time>2018-09-16T11:45:06Z</time>
      </trkpt>
      <trkpt lat="39.3194500" lon="-0.6754930">
        <ele>233.0</ele>
        <time>2018-09-16T11:45:07Z</time>
      </trkpt>
      <trkpt lat="39.3194500" lon="-0.6754930">
        <ele>233.0</ele>
        <time>2018-09-16T11:45:08Z</time>
      </trkpt>
      <trkpt lat="39.3194530" lon="-0.6751680">
        <ele>232.0</ele>
        <time>2018-09-16T11:45:09Z</time>
      </trkpt>
      <trkpt lat="39.3194530" lon="-0.6751680">
        <ele>232.0</ele>
        <time>2018-09-16T11:45:10Z</time>
      </trkpt>
      <trkpt lat="39.3194630" lon="-0.6748420">
        <ele>231.0</ele>
        <time>2018-09-16T11:45:11Z</time>
      </trkpt>
      <trkpt lat="39.3194720" lon="-0.6746780">
        <ele>231.0</ele>
        <time>2018-09-16T11:45:12Z</time>
      </trkpt>
      <trkpt lat="39.3194820" lon="-0.6745170">
        <ele>230.0</ele>
        <time>2018-09-16T11:45:13Z</time>
      </trkpt>
      <trkpt lat="39.3194820" lon="-0.6745170">
        <ele>230.0</ele>
        <time>2018-09-16T11:45:14Z</time>
      </trkpt>
      <trkpt lat="39.3195030" lon="-0.6741970">
        <ele>228.0</ele>
        <time>2018-09-16T11:45:15Z</time>
      </trkpt>
      <trkpt lat="39.3195150" lon="-0.6740400">
        <ele>228.0</ele>
        <time>2018-09-16T11:45:16Z</time>
      </trkpt>
      <trkpt lat="39.3195150" lon="-0.6740400">
        <ele>227.0</ele>
        <time>2018-09-16T11:45:17Z</time>
      </trkpt>
      <trkpt lat="39.3195420" lon="-0.6737420">
        <ele>227.0</ele>
        <time>2018-09-16T11:45:18Z</time>
      </trkpt>
      <trkpt lat="39.3195420" lon="-0.6737420">
        <ele>226.0</ele>
        <time>2018-09-16T11:45:19Z</time>
      </trkpt>
      <trkpt lat="39.3195750" lon="-0.6734600">
        <ele>226.0</ele>
        <time>2018-09-16T11:45:20Z</time>
      </trkpt>
      <trkpt lat="39.3195750" lon="-0.6734600">
        <ele>225.0</ele>
        <time>2018-09-16T11:45:21Z</time>
      </trkpt>
      <trkpt lat="39.3196100" lon="-0.6731930">
        <ele>225.0</ele>
        <time>2018-09-16T11:45:22Z</time>
      </trkpt>
      <trkpt lat="39.3196100" lon="-0.6731930">
        <ele>224.0</ele>
        <time>2018-09-16T11:45:23Z</time>
      </trkpt>
      <trkpt lat="39.3196430" lon="-0.6729370">
        <ele>224.0</ele>
        <time>2018-09-16T11:45:24Z</time>
      </trkpt>
      <trkpt lat="39.3196600" lon="-0.6728100">
        <ele>223.0</ele>
        <time>2018-09-16T11:45:25Z</time>
      </trkpt>
      <trkpt lat="39.3196600" lon="-0.6728100">
        <ele>223.0</ele>
        <time>2018-09-16T11:45:26Z</time>
      </trkpt>
      <trkpt lat="39.3196900" lon="-0.6725570">
        <ele>222.0</ele>
        <time>2018-09-16T11:45:27Z</time>
      </trkpt>
      <trkpt lat="39.3196900" lon="-0.6725570">
        <ele>222.0</ele>
        <time>2018-09-16T11:45:28Z</time>
      </trkpt>
      <trkpt lat="39.3197270" lon="-0.6723050">
        <ele>221.0</ele>
        <time>2018-09-16T11:45:29Z</time>
      </trkpt>
      <trkpt lat="39.3197270" lon="-0.6723050">
        <ele>221.0</ele>
        <time>2018-09-16T11:45:30Z</time>
      </trkpt>
      <trkpt lat="39.3197830" lon="-0.6720550">
        <ele>221.0</ele>
        <time>2018-09-16T11:45:31Z</time>
      </trkpt>
      <trkpt lat="39.3197830" lon="-0.6720550">
        <ele>221.0</ele>
        <time>2018-09-16T11:45:32Z</time>
      </trkpt>
      <trkpt lat="39.3198680" lon="-0.6718100">
        <ele>220.0</ele>
        <time>2018-09-16T11:45:33Z</time>
      </trkpt>
      <trkpt lat="39.3198680" lon="-0.6718100">
        <ele>220.0</ele>
        <time>2018-09-16T11:45:34Z</time>
      </trkpt>
      <trkpt lat="39.3199570" lon="-0.6715670">
        <ele>220.0</ele>
        <time>2018-09-16T11:45:35Z</time>
      </trkpt>
      <trkpt lat="39.3199570" lon="-0.6715670">
        <ele>219.0</ele>
        <time>2018-09-16T11:45:36Z</time>
      </trkpt>
      <trkpt lat="39.3200470" lon="-0.6713180">
        <ele>219.0</ele>
        <time>2018-09-16T11:45:37Z</time>
      </trkpt>
      <trkpt lat="39.3200470" lon="-0.6713180">
        <ele>219.0</ele>
        <time>2018-09-16T11:45:38Z</time>
      </trkpt>
      <trkpt lat="39.3201350" lon="-0.6710680">
        <ele>219.0</ele>
        <time>2018-09-16T11:45:39Z</time>
      </trkpt>
      <trkpt lat="39.3201350" lon="-0.6710680">
        <ele>219.0</ele>
        <time>2018-09-16T11:45:40Z</time>
      </trkpt>
      <trkpt lat="39.3202230" lon="-0.6708180">
        <ele>219.0</ele>
        <time>2018-09-16T11:45:41Z</time>
      </trkpt>
      <trkpt lat="39.3202230" lon="-0.6708180">
        <ele>218.0</ele>
        <time>2018-09-16T11:45:42Z</time>
      </trkpt>
      <trkpt lat="39.3202800" lon="-0.6705570">
        <ele>218.0</ele>
        <time>2018-09-16T11:45:43Z</time>
      </trkpt>
      <trkpt lat="39.3202850" lon="-0.6704250">
        <ele>218.0</ele>
        <time>2018-09-16T11:45:44Z</time>
      </trkpt>
      <trkpt lat="39.3202850" lon="-0.6704250">
        <ele>218.0</ele>
        <time>2018-09-16T11:45:45Z</time>
      </trkpt>
      <trkpt lat="39.3202480" lon="-0.6701720">
        <ele>216.0</ele>
        <time>2018-09-16T11:45:46Z</time>
      </trkpt>
      <trkpt lat="39.3202480" lon="-0.6701720">
        <ele>216.0</ele>
        <time>2018-09-16T11:45:47Z</time>
      </trkpt>
      <trkpt lat="39.3201570" lon="-0.6699430">
        <ele>216.0</ele>
        <time>2018-09-16T11:45:48Z</time>
      </trkpt>
      <trkpt lat="39.3201000" lon="-0.6698400">
        <ele>216.0</ele>
        <time>2018-09-16T11:45:49Z</time>
      </trkpt>
      <trkpt lat="39.3201000" lon="-0.6698400">
        <ele>216.0</ele>
        <time>2018-09-16T11:45:50Z</time>
      </trkpt>
      <trkpt lat="39.3199780" lon="-0.6696480">
        <ele>216.0</ele>
        <time>2018-09-16T11:45:51Z</time>
      </trkpt>
      <trkpt lat="39.3199200" lon="-0.6695550">
        <ele>215.0</ele>
        <time>2018-09-16T11:45:52Z</time>
      </trkpt>
      <trkpt lat="39.3199200" lon="-0.6695550">
        <ele>215.0</ele>
        <time>2018-09-16T11:45:53Z</time>
      </trkpt>
      <trkpt lat="39.3198050" lon="-0.6693750">
        <ele>215.0</ele>
        <time>2018-09-16T11:45:54Z</time>
      </trkpt>
      <trkpt lat="39.3198050" lon="-0.6693750">
        <ele>215.0</ele>
        <time>2018-09-16T11:45:55Z</time>
      </trkpt>
      <trkpt lat="39.3196930" lon="-0.6692020">
        <ele>215.0</ele>
        <time>2018-09-16T11:45:56Z</time>
      </trkpt>
      <trkpt lat="39.3196930" lon="-0.6692020">
        <ele>215.0</ele>
        <time>2018-09-16T11:45:57Z</time>
      </trkpt>
      <trkpt lat="39.3195880" lon="-0.6690350">
        <ele>215.0</ele>
        <time>2018-09-16T11:45:58Z</time>
      </trkpt>
      <trkpt lat="39.3195880" lon="-0.6690350">
        <ele>215.0</ele>
        <time>2018-09-16T11:45:59Z</time>
      </trkpt>
      <trkpt lat="39.3194980" lon="-0.6688630">
        <ele>215.0</ele>
        <time>2018-09-16T11:46:00Z</time>
      </trkpt>
      <trkpt lat="39.3194580" lon="-0.6687750">
        <ele>215.0</ele>
        <time>2018-09-16T11:46:01Z</time>
      </trkpt>
      <trkpt lat="39.3194580" lon="-0.6687750">
        <ele>215.0</ele>
        <time>2018-09-16T11:46:02Z</time>
      </trkpt>
      <trkpt lat="39.3193930" lon="-0.6685900">
        <ele>215.0</ele>
        <time>2018-09-16T11:46:03Z</time>
      </trkpt>
      <trkpt lat="39.3193670" lon="-0.6684950">
        <ele>215.0</ele>
        <time>2018-09-16T11:46:04Z</time>
      </trkpt>
      <trkpt lat="39.3193670" lon="-0.6684950">
        <ele>215.0</ele>
        <time>2018-09-16T11:46:05Z</time>
      </trkpt>
      <trkpt lat="39.3193250" lon="-0.6683000">
        <ele>215.0</ele>
        <time>2018-09-16T11:46:06Z</time>
      </trkpt>
      <trkpt lat="39.3193100" lon="-0.6682000">
        <ele>214.0</ele>
        <time>2018-09-16T11:46:07Z</time>
      </trkpt>
      <trkpt lat="39.3193100" lon="-0.6682000">
        <ele>214.0</ele>
        <time>2018-09-16T11:46:08Z</time>
      </trkpt>
      <trkpt lat="39.3192930" lon="-0.6679950">
        <ele>214.0</ele>
        <time>2018-09-16T11:46:09Z</time>
      </trkpt>
      <trkpt lat="39.3192930" lon="-0.6679950">
        <ele>214.0</ele>
        <time>2018-09-16T11:46:10Z</time>
      </trkpt>
      <trkpt lat="39.3192930" lon="-0.6677820">
        <ele>213.0</ele>
        <time>2018-09-16T11:46:11Z</time>
      </trkpt>
      <trkpt lat="39.3192930" lon="-0.6677820">
        <ele>213.0</ele>
        <time>2018-09-16T11:46:12Z</time>
      </trkpt>
      <trkpt lat="39.3193130" lon="-0.6675650">
        <ele>212.0</ele>
        <time>2018-09-16T11:46:13Z</time>
      </trkpt>
      <trkpt lat="39.3193130" lon="-0.6675650">
        <ele>212.0</ele>
        <time>2018-09-16T11:46:14Z</time>
      </trkpt>
      <trkpt lat="39.3193400" lon="-0.6673400">
        <ele>211.0</ele>
        <time>2018-09-16T11:46:15Z</time>
      </trkpt>
      <trkpt lat="39.3193400" lon="-0.6673400">
        <ele>211.0</ele>
        <time>2018-09-16T11:46:16Z</time>
      </trkpt>
      <trkpt lat="39.3193680" lon="-0.6671080">
        <ele>211.0</ele>
        <time>2018-09-16T11:46:17Z</time>
      </trkpt>
      <trkpt lat="39.3193680" lon="-0.6671080">
        <ele>211.0</ele>
        <time>2018-09-16T11:46:18Z</time>
      </trkpt>
      <trkpt lat="39.3193980" lon="-0.6668770">
        <ele>210.0</ele>
        <time>2018-09-16T11:46:19Z</time>
      </trkpt>
      <trkpt lat="39.3193980" lon="-0.6668770">
        <ele>210.0</ele>
        <time>2018-09-16T11:46:20Z</time>
      </trkpt>
      <trkpt lat="39.3194280" lon="-0.6666450">
        <ele>210.0</ele>
        <time>2018-09-16T11:46:21Z</time>
      </trkpt>
      <trkpt lat="39.3194280" lon="-0.6666450">
        <ele>210.0</ele>
        <time>2018-09-16T11:46:22Z</time>
      </trkpt>
      <trkpt lat="39.3194570" lon="-0.6664130">
        <ele>208.0</ele>
        <time>2018-09-16T11:46:23Z</time>
      </trkpt>
      <trkpt lat="39.3194700" lon="-0.6662980">
        <ele>208.0</ele>
        <time>2018-09-16T11:46:24Z</time>
      </trkpt>
      <trkpt lat="39.3194830" lon="-0.6661830">
        <ele>208.0</ele>
        <time>2018-09-16T11:46:25Z</time>
      </trkpt>
      <trkpt lat="39.3194830" lon="-0.6661830">
        <ele>208.0</ele>
        <time>2018-09-16T11:46:26Z</time>
      </trkpt>
      <trkpt lat="39.3195120" lon="-0.6659550">
        <ele>208.0</ele>
        <time>2018-09-16T11:46:27Z</time>
      </trkpt>
      <trkpt lat="39.3195120" lon="-0.6659550">
        <ele>208.0</ele>
        <time>2018-09-16T11:46:28Z</time>
      </trkpt>
      <trkpt lat="39.3195300" lon="-0.6657270">
        <ele>208.0</ele>
        <time>2018-09-16T11:46:29Z</time>
      </trkpt>
      <trkpt lat="39.3195300" lon="-0.6656120">
        <ele>207.0</ele>
        <time>2018-09-16T11:46:30Z</time>
      </trkpt>
      <trkpt lat="39.3195220" lon="-0.6654970">
        <ele>207.0</ele>
        <time>2018-09-16T11:46:31Z</time>
      </trkpt>
      <trkpt lat="39.3195220" lon="-0.6654970">
        <ele>207.0</ele>
        <time>2018-09-16T11:46:32Z</time>
      </trkpt>
      <trkpt lat="39.3194900" lon="-0.6652720">
        <ele>207.0</ele>
        <time>2018-09-16T11:46:33Z</time>
      </trkpt>
      <trkpt lat="39.3194650" lon="-0.6651620">
        <ele>206.0</ele>
        <time>2018-09-16T11:46:34Z</time>
      </trkpt>
      <trkpt lat="39.3194650" lon="-0.6651620">
        <ele>206.0</ele>
        <time>2018-09-16T11:46:35Z</time>
      </trkpt>
      <trkpt lat="39.3194000" lon="-0.6649500">
        <ele>206.0</ele>
        <time>2018-09-16T11:46:36Z</time>
      </trkpt>
      <trkpt lat="39.3193620" lon="-0.6648500">
        <ele>206.0</ele>
        <time>2018-09-16T11:46:37Z</time>
      </trkpt>
      <trkpt lat="39.3193620" lon="-0.6648500">
        <ele>206.0</ele>
        <time>2018-09-16T11:46:38Z</time>
      </trkpt>
      <trkpt lat="39.3192850" lon="-0.6646550">
        <ele>206.0</ele>
        <time>2018-09-16T11:46:39Z</time>
      </trkpt>
      <trkpt lat="39.3192850" lon="-0.6646550">
        <ele>206.0</ele>
        <time>2018-09-16T11:46:40Z</time>
      </trkpt>
      <trkpt lat="39.3192080" lon="-0.6644620">
        <ele>206.0</ele>
        <time>2018-09-16T11:46:41Z</time>
      </trkpt>
      <trkpt lat="39.3192080" lon="-0.6644620">
        <ele>205.0</ele>
        <time>2018-09-16T11:46:42Z</time>
      </trkpt>
      <trkpt lat="39.3191300" lon="-0.6642700">
        <ele>205.0</ele>
        <time>2018-09-16T11:46:43Z</time>
      </trkpt>
      <trkpt lat="39.3191300" lon="-0.6642700">
        <ele>205.0</ele>
        <time>2018-09-16T11:46:44Z</time>
      </trkpt>
      <trkpt lat="39.3190520" lon="-0.6640770">
        <ele>205.0</ele>
        <time>2018-09-16T11:46:45Z</time>
      </trkpt>
      <trkpt lat="39.3190520" lon="-0.6640770">
        <ele>204.0</ele>
        <time>2018-09-16T11:46:46Z</time>
      </trkpt>
      <trkpt lat="39.3189700" lon="-0.6638820">
        <ele>204.0</ele>
        <time>2018-09-16T11:46:47Z</time>
      </trkpt>
      <trkpt lat="39.3189700" lon="-0.6638820">
        <ele>204.0</ele>
        <time>2018-09-16T11:46:48Z</time>
      </trkpt>
      <trkpt lat="39.3188920" lon="-0.6636920">
        <ele>204.0</ele>
        <time>2018-09-16T11:46:49Z</time>
      </trkpt>
      <trkpt lat="39.3188920" lon="-0.6636920">
        <ele>204.0</ele>
        <time>2018-09-16T11:46:50Z</time>
      </trkpt>
      <trkpt lat="39.3188150" lon="-0.6635080">
        <ele>204.0</ele>
        <time>2018-09-16T11:46:51Z</time>
      </trkpt>
      <trkpt lat="39.3188150" lon="-0.6635080">
        <ele>204.0</ele>
        <time>2018-09-16T11:46:52Z</time>
      </trkpt>
      <trkpt lat="39.3187470" lon="-0.6633320">
        <ele>203.0</ele>
        <time>2018-09-16T11:46:53Z</time>
      </trkpt>
      <trkpt lat="39.3187470" lon="-0.6633320">
        <ele>203.0</ele>
        <time>2018-09-16T11:46:54Z</time>
      </trkpt>
      <trkpt lat="39.3186980" lon="-0.6631520">
        <ele>203.0</ele>
        <time>2018-09-16T11:46:55Z</time>
      </trkpt>
      <trkpt lat="39.3186980" lon="-0.6631520">
        <ele>203.0</ele>
        <time>2018-09-16T11:46:56Z</time>
      </trkpt>
      <trkpt lat="39.3186620" lon="-0.6629680">
        <ele>203.0</ele>
        <time>2018-09-16T11:46:57Z</time>
      </trkpt>
      <trkpt lat="39.3186620" lon="-0.6629680">
        <ele>203.0</ele>
        <time>2018-09-16T11:46:58Z</time>
      </trkpt>
      <trkpt lat="39.3186430" lon="-0.6627720">
        <ele>203.0</ele>
        <time>2018-09-16T11:46:59Z</time>
      </trkpt>
      <trkpt lat="39.3186430" lon="-0.6627720">
        <ele>203.0</ele>
        <time>2018-09-16T11:47:00Z</time>
      </trkpt>
      <trkpt lat="39.3186430" lon="-0.6625750">
        <ele>202.0</ele>
        <time>2018-09-16T11:47:01Z</time>
      </trkpt>
      <trkpt lat="39.3186430" lon="-0.6625750">
        <ele>202.0</ele>
        <time>2018-09-16T11:47:02Z</time>
      </trkpt>
      <trkpt lat="39.3186570" lon="-0.6623880">
        <ele>202.0</ele>
        <time>2018-09-16T11:47:03Z</time>
      </trkpt>
      <trkpt lat="39.3186570" lon="-0.6623880">
        <ele>202.0</ele>
        <time>2018-09-16T11:47:04Z</time>
      </trkpt>
      <trkpt lat="39.3186680" lon="-0.6622100">
        <ele>202.0</ele>
        <time>2018-09-16T11:47:05Z</time>
      </trkpt>
      <trkpt lat="39.3186680" lon="-0.6622100">
        <ele>202.0</ele>
        <time>2018-09-16T11:47:06Z</time>
      </trkpt>
      <trkpt lat="39.3186800" lon="-0.6620280">
        <ele>202.0</ele>
        <time>2018-09-16T11:47:07Z</time>
      </trkpt>
      <trkpt lat="39.3186800" lon="-0.6620280">
        <ele>202.0</ele>
        <time>2018-09-16T11:47:08Z</time>
      </trkpt>
      <trkpt lat="39.3186930" lon="-0.6618430">
        <ele>202.0</ele>
        <time>2018-09-16T11:47:09Z</time>
      </trkpt>
      <trkpt lat="39.3187000" lon="-0.6617520">
        <ele>202.0</ele>
        <time>2018-09-16T11:47:10Z</time>
      </trkpt>
      <trkpt lat="39.3187000" lon="-0.6617520">
        <ele>201.0</ele>
        <time>2018-09-16T11:47:11Z</time>
      </trkpt>
      <trkpt lat="39.3187170" lon="-0.6615650">
        <ele>201.0</ele>
        <time>2018-09-16T11:47:12Z</time>
      </trkpt>
      <trkpt lat="39.3187170" lon="-0.6615650">
        <ele>201.0</ele>
        <time>2018-09-16T11:47:13Z</time>
      </trkpt>
      <trkpt lat="39.3187320" lon="-0.6613780">
        <ele>201.0</ele>
        <time>2018-09-16T11:47:14Z</time>
      </trkpt>
      <trkpt lat="39.3187320" lon="-0.6613780">
        <ele>201.0</ele>
        <time>2018-09-16T11:47:15Z</time>
      </trkpt>
      <trkpt lat="39.3187470" lon="-0.6611930">
        <ele>201.0</ele>
        <time>2018-09-16T11:47:16Z</time>
      </trkpt>
      <trkpt lat="39.3187530" lon="-0.6610980">
        <ele>201.0</ele>
        <time>2018-09-16T11:47:17Z</time>
      </trkpt>
      <trkpt lat="39.3187530" lon="-0.6610980">
        <ele>201.0</ele>
        <time>2018-09-16T11:47:18Z</time>
      </trkpt>
      <trkpt lat="39.3187680" lon="-0.6609120">
        <ele>201.0</ele>
        <time>2018-09-16T11:47:19Z</time>
      </trkpt>
      <trkpt lat="39.3187680" lon="-0.6609120">
        <ele>200.0</ele>
        <time>2018-09-16T11:47:20Z</time>
      </trkpt>
      <trkpt lat="39.3187830" lon="-0.6607230">
        <ele>200.0</ele>
        <time>2018-09-16T11:47:21Z</time>
      </trkpt>
      <trkpt lat="39.3187830" lon="-0.6607230">
        <ele>200.0</ele>
        <time>2018-09-16T11:47:22Z</time>
      </trkpt>
      <trkpt lat="39.3187980" lon="-0.6605350">
        <ele>200.0</ele>
        <time>2018-09-16T11:47:23Z</time>
      </trkpt>
      <trkpt lat="39.3187980" lon="-0.6605350">
        <ele>200.0</ele>
        <time>2018-09-16T11:47:24Z</time>
      </trkpt>
      <trkpt lat="39.3188130" lon="-0.6603450">
        <ele>200.0</ele>
        <time>2018-09-16T11:47:25Z</time>
      </trkpt>
      <trkpt lat="39.3188130" lon="-0.6603450">
        <ele>199.0</ele>
        <time>2018-09-16T11:47:26Z</time>
      </trkpt>
      <trkpt lat="39.3188280" lon="-0.6601500">
        <ele>199.0</ele>
        <time>2018-09-16T11:47:27Z</time>
      </trkpt>
      <trkpt lat="39.3188280" lon="-0.6601500">
        <ele>199.0</ele>
        <time>2018-09-16T11:47:28Z</time>
      </trkpt>
      <trkpt lat="39.3188420" lon="-0.6599570">
        <ele>199.0</ele>
        <time>2018-09-16T11:47:29Z</time>
      </trkpt>
      <trkpt lat="39.3188500" lon="-0.6598600">
        <ele>199.0</ele>
        <time>2018-09-16T11:47:30Z</time>
      </trkpt>
      <trkpt lat="39.3188570" lon="-0.6597630">
        <ele>199.0</ele>
        <time>2018-09-16T11:47:31Z</time>
      </trkpt>
      <trkpt lat="39.3188570" lon="-0.6597630">
        <ele>199.0</ele>
        <time>2018-09-16T11:47:32Z</time>
      </trkpt>
      <trkpt lat="39.3188700" lon="-0.6595700">
        <ele>199.0</ele>
        <time>2018-09-16T11:47:33Z</time>
      </trkpt>
      <trkpt lat="39.3188700" lon="-0.6595700">
        <ele>199.0</ele>
        <time>2018-09-16T11:47:34Z</time>
      </trkpt>
      <trkpt lat="39.3188850" lon="-0.6593770">
        <ele>199.0</ele>
        <time>2018-09-16T11:47:35Z</time>
      </trkpt>
      <trkpt lat="39.3188850" lon="-0.6593770">
        <ele>199.0</ele>
        <time>2018-09-16T11:47:36Z</time>
      </trkpt>
      <trkpt lat="39.3189000" lon="-0.6591800">
        <ele>199.0</ele>
        <time>2018-09-16T11:47:37Z</time>
      </trkpt>
      <trkpt lat="39.3189000" lon="-0.6591800">
        <ele>198.0</ele>
        <time>2018-09-16T11:47:38Z</time>
      </trkpt>
      <trkpt lat="39.3189150" lon="-0.6589800">
        <ele>198.0</ele>
        <time>2018-09-16T11:47:39Z</time>
      </trkpt>
      <trkpt lat="39.3189150" lon="-0.6589800">
        <ele>198.0</ele>
        <time>2018-09-16T11:47:40Z</time>
      </trkpt>
      <trkpt lat="39.3189280" lon="-0.6587750">
        <ele>198.0</ele>
        <time>2018-09-16T11:47:41Z</time>
      </trkpt>
      <trkpt lat="39.3189280" lon="-0.6587750">
        <ele>198.0</ele>
        <time>2018-09-16T11:47:42Z</time>
      </trkpt>
      <trkpt lat="39.3189450" lon="-0.6585650">
        <ele>198.0</ele>
        <time>2018-09-16T11:47:43Z</time>
      </trkpt>
      <trkpt lat="39.3189450" lon="-0.6585650">
        <ele>197.0</ele>
        <time>2018-09-16T11:47:44Z</time>
      </trkpt>
      <trkpt lat="39.3189600" lon="-0.6583500">
        <ele>197.0</ele>
        <time>2018-09-16T11:47:45Z</time>
      </trkpt>
      <trkpt lat="39.3189600" lon="-0.6583500">
        <ele>197.0</ele>
        <time>2018-09-16T11:47:46Z</time>
      </trkpt>
      <trkpt lat="39.3189750" lon="-0.6581320">
        <ele>196.0</ele>
        <time>2018-09-16T11:47:47Z</time>
      </trkpt>
      <trkpt lat="39.3189750" lon="-0.6581320">
        <ele>196.0</ele>
        <time>2018-09-16T11:47:48Z</time>
      </trkpt>
      <trkpt lat="39.3189920" lon="-0.6579070">
        <ele>196.0</ele>
        <time>2018-09-16T11:47:49Z</time>
      </trkpt>
      <trkpt lat="39.3189920" lon="-0.6579070">
        <ele>196.0</ele>
        <time>2018-09-16T11:47:50Z</time>
      </trkpt>
      <trkpt lat="39.3190200" lon="-0.6576780">
        <ele>195.0</ele>
        <time>2018-09-16T11:47:51Z</time>
      </trkpt>
      <trkpt lat="39.3190450" lon="-0.6575650">
        <ele>195.0</ele>
        <time>2018-09-16T11:47:52Z</time>
      </trkpt>
      <trkpt lat="39.3190450" lon="-0.6575650">
        <ele>195.0</ele>
        <time>2018-09-16T11:47:53Z</time>
      </trkpt>
      <trkpt lat="39.3191080" lon="-0.6573480">
        <ele>195.0</ele>
        <time>2018-09-16T11:47:54Z</time>
      </trkpt>
      <trkpt lat="39.3191080" lon="-0.6573480">
        <ele>194.0</ele>
        <time>2018-09-16T11:47:55Z</time>
      </trkpt>
      <trkpt lat="39.3191970" lon="-0.6571480">
        <ele>194.0</ele>
        <time>2018-09-16T11:47:56Z</time>
      </trkpt>
      <trkpt lat="39.3191970" lon="-0.6571480">
        <ele>193.0</ele>
        <time>2018-09-16T11:47:57Z</time>
      </trkpt>
      <trkpt lat="39.3193020" lon="-0.6569630">
        <ele>193.0</ele>
        <time>2018-09-16T11:47:58Z</time>
      </trkpt>
      <trkpt lat="39.3193020" lon="-0.6569630">
        <ele>192.0</ele>
        <time>2018-09-16T11:47:59Z</time>
      </trkpt>
      <trkpt lat="39.3194130" lon="-0.6567830">
        <ele>192.0</ele>
        <time>2018-09-16T11:48:00Z</time>
      </trkpt>
      <trkpt lat="39.3194130" lon="-0.6567830">
        <ele>191.0</ele>
        <time>2018-09-16T11:48:01Z</time>
      </trkpt>
      <trkpt lat="39.3195280" lon="-0.6566070">
        <ele>191.0</ele>
        <time>2018-09-16T11:48:02Z</time>
      </trkpt>
      <trkpt lat="39.3195280" lon="-0.6566070">
        <ele>191.0</ele>
        <time>2018-09-16T11:48:03Z</time>
      </trkpt>
      <trkpt lat="39.3196450" lon="-0.6564330">
        <ele>191.0</ele>
        <time>2018-09-16T11:48:04Z</time>
      </trkpt>
      <trkpt lat="39.3197030" lon="-0.6563480">
        <ele>190.0</ele>
        <time>2018-09-16T11:48:05Z</time>
      </trkpt>
      <trkpt lat="39.3197030" lon="-0.6563480">
        <ele>190.0</ele>
        <time>2018-09-16T11:48:06Z</time>
      </trkpt>
      <trkpt lat="39.3198150" lon="-0.6561880">
        <ele>190.0</ele>
        <time>2018-09-16T11:48:07Z</time>
      </trkpt>
      <trkpt lat="39.3198150" lon="-0.6561880">
        <ele>190.0</ele>
        <time>2018-09-16T11:48:08Z</time>
      </trkpt>
      <trkpt lat="39.3199230" lon="-0.6560350">
        <ele>190.0</ele>
        <time>2018-09-16T11:48:09Z</time>
      </trkpt>
      <trkpt lat="39.3199230" lon="-0.6560350">
        <ele>190.0</ele>
        <time>2018-09-16T11:48:10Z</time>
      </trkpt>
      <trkpt lat="39.3200270" lon="-0.6558970">
        <ele>190.0</ele>
        <time>2018-09-16T11:48:11Z</time>
      </trkpt>
      <trkpt lat="39.3200270" lon="-0.6558970">
        <ele>190.0</ele>
        <time>2018-09-16T11:48:12Z</time>
      </trkpt>
      <trkpt lat="39.3201250" lon="-0.6557830">
        <ele>190.0</ele>
        <time>2018-09-16T11:48:13Z</time>
      </trkpt>
      <trkpt lat="39.3201250" lon="-0.6557830">
        <ele>190.0</ele>
        <time>2018-09-16T11:48:14Z</time>
      </trkpt>
      <trkpt lat="39.3202070" lon="-0.6556870">
        <ele>190.0</ele>
        <time>2018-09-16T11:48:15Z</time>
      </trkpt>
      <trkpt lat="39.3202070" lon="-0.6556870">
        <ele>190.0</ele>
        <time>2018-09-16T11:48:16Z</time>
      </trkpt>
      <trkpt lat="39.3202750" lon="-0.6556050">
        <ele>190.0</ele>
        <time>2018-09-16T11:48:17Z</time>
      </trkpt>
      <trkpt lat="39.3202750" lon="-0.6556050">
        <ele>191.0</ele>
        <time>2018-09-16T11:48:18Z</time>
      </trkpt>
      <trkpt lat="39.3203600" lon="-0.6555730">
        <ele>191.0</ele>
        <time>2018-09-16T11:48:19Z</time>
      </trkpt>
      <trkpt lat="39.3203600" lon="-0.6555730">
        <ele>191.0</ele>
        <time>2018-09-16T11:48:20Z</time>
      </trkpt>
      <trkpt lat="39.3204320" lon="-0.6556230">
        <ele>191.0</ele>
        <time>2018-09-16T11:48:21Z</time>
      </trkpt>
      <trkpt lat="39.3204320" lon="-0.6556230">
        <ele>191.0</ele>
        <time>2018-09-16T11:48:22Z</time>
      </trkpt>
      <trkpt lat="39.3204580" lon="-0.6557180">
        <ele>191.0</ele>
        <time>2018-09-16T11:48:23Z</time>
      </trkpt>
      <trkpt lat="39.3204620" lon="-0.6557670">
        <ele>191.0</ele>
        <time>2018-09-16T11:48:24Z</time>
      </trkpt>
      <trkpt lat="39.3204680" lon="-0.6558130">
        <ele>191.0</ele>
        <time>2018-09-16T11:48:25Z</time>
      </trkpt>
      <trkpt lat="39.3204680" lon="-0.6558130">
        <ele>191.0</ele>
        <time>2018-09-16T11:48:26Z</time>
      </trkpt>
      <trkpt lat="39.3204820" lon="-0.6559050">
        <ele>191.0</ele>
        <time>2018-09-16T11:48:27Z</time>
      </trkpt>
      <trkpt lat="39.3204820" lon="-0.6559050">
        <ele>191.0</ele>
        <time>2018-09-16T11:48:28Z</time>
      </trkpt>
      <trkpt lat="39.3204930" lon="-0.6559970">
        <ele>192.0</ele>
        <time>2018-09-16T11:48:29Z</time>
      </trkpt>
      <trkpt lat="39.3205020" lon="-0.6560380">
        <ele>192.0</ele>
        <time>2018-09-16T11:48:30Z</time>
      </trkpt>
      <trkpt lat="39.3205150" lon="-0.6560800">
        <ele>192.0</ele>
        <time>2018-09-16T11:48:31Z</time>
      </trkpt>
      <trkpt lat="39.3205280" lon="-0.6561230">
        <ele>192.0</ele>
        <time>2018-09-16T11:48:32Z</time>
      </trkpt>
      <trkpt lat="39.3205280" lon="-0.6561230">
        <ele>193.0</ele>
        <time>2018-09-16T11:48:33Z</time>
      </trkpt>
      <trkpt lat="39.3205520" lon="-0.6561980">
        <ele>193.0</ele>
        <time>2018-09-16T11:48:34Z</time>
      </trkpt>
      <trkpt lat="39.3205520" lon="-0.6561980">
        <ele>193.0</ele>
        <time>2018-09-16T11:48:35Z</time>
      </trkpt>
      <trkpt lat="39.3205720" lon="-0.6562600">
        <ele>193.0</ele>
        <time>2018-09-16T11:48:36Z</time>
      </trkpt>
      <trkpt lat="39.3205830" lon="-0.6562900">
        <ele>193.0</ele>
        <time>2018-09-16T11:48:37Z</time>
      </trkpt>
      <trkpt lat="39.3205830" lon="-0.6562900">
        <ele>193.0</ele>
        <time>2018-09-16T11:48:38Z</time>
      </trkpt>
      <trkpt lat="39.3206000" lon="-0.6563500">
        <ele>193.0</ele>
        <time>2018-09-16T11:48:39Z</time>
      </trkpt>
      <trkpt lat="39.3206000" lon="-0.6563500">
        <ele>194.0</ele>
        <time>2018-09-16T11:48:40Z</time>
      </trkpt>
      <trkpt lat="39.3206130" lon="-0.6563950">
        <ele>194.0</ele>
        <time>2018-09-16T11:48:41Z</time>
      </trkpt>
      <trkpt lat="39.3206230" lon="-0.6564170">
        <ele>194.0</ele>
        <time>2018-09-16T11:48:42Z</time>
      </trkpt>
      <trkpt lat="39.3206230" lon="-0.6564170">
        <ele>194.0</ele>
        <time>2018-09-16T11:48:43Z</time>
      </trkpt>
      <trkpt lat="39.3206480" lon="-0.6564620">
        <ele>194.0</ele>
        <time>2018-09-16T11:48:44Z</time>
      </trkpt>
      <trkpt lat="39.3206480" lon="-0.6564620">
        <ele>194.0</ele>
        <time>2018-09-16T11:48:45Z</time>
      </trkpt>
      <trkpt lat="39.3206770" lon="-0.6565180">
        <ele>194.0</ele>
        <time>2018-09-16T11:48:46Z</time>
      </trkpt>
      <trkpt lat="39.3206770" lon="-0.6565180">
        <ele>194.0</ele>
        <time>2018-09-16T11:48:47Z</time>
      </trkpt>
      <trkpt lat="39.3207070" lon="-0.6565830">
        <ele>195.0</ele>
        <time>2018-09-16T11:48:48Z</time>
      </trkpt>
      <trkpt lat="39.3207230" lon="-0.6566200">
        <ele>195.0</ele>
        <time>2018-09-16T11:48:49Z</time>
      </trkpt>
      <trkpt lat="39.3207230" lon="-0.6566200">
        <ele>195.0</ele>
        <time>2018-09-16T11:48:50Z</time>
      </trkpt>
      <trkpt lat="39.3207600" lon="-0.6566970">
        <ele>195.0</ele>
        <time>2018-09-16T11:48:51Z</time>
      </trkpt>
      <trkpt lat="39.3207830" lon="-0.6567370">
        <ele>195.0</ele>
        <time>2018-09-16T11:48:52Z</time>
      </trkpt>
      <trkpt lat="39.3207830" lon="-0.6567370">
        <ele>195.0</ele>
        <time>2018-09-16T11:48:53Z</time>
      </trkpt>
      <trkpt lat="39.3208350" lon="-0.6568170">
        <ele>195.0</ele>
        <time>2018-09-16T11:48:54Z</time>
      </trkpt>
      <trkpt lat="39.3208580" lon="-0.6568600">
        <ele>195.0</ele>
        <time>2018-09-16T11:48:55Z</time>
      </trkpt>
      <trkpt lat="39.3208580" lon="-0.6568600">
        <ele>195.0</ele>
        <time>2018-09-16T11:48:56Z</time>
      </trkpt>
      <trkpt lat="39.3209100" lon="-0.6569400">
        <ele>195.0</ele>
        <time>2018-09-16T11:48:57Z</time>
      </trkpt>
      <trkpt lat="39.3209100" lon="-0.6569400">
        <ele>196.0</ele>
        <time>2018-09-16T11:48:58Z</time>
      </trkpt>
      <trkpt lat="39.3209700" lon="-0.6570130">
        <ele>196.0</ele>
        <time>2018-09-16T11:48:59Z</time>
      </trkpt>
      <trkpt lat="39.3210050" lon="-0.6570480">
        <ele>196.0</ele>
        <time>2018-09-16T11:49:00Z</time>
      </trkpt>
      <trkpt lat="39.3210050" lon="-0.6570480">
        <ele>196.0</ele>
        <time>2018-09-16T11:49:01Z</time>
      </trkpt>
      <trkpt lat="39.3210800" lon="-0.6571030">
        <ele>196.0</ele>
        <time>2018-09-16T11:49:02Z</time>
      </trkpt>
      <trkpt lat="39.3210800" lon="-0.6571030">
        <ele>196.0</ele>
        <time>2018-09-16T11:49:03Z</time>
      </trkpt>
      <trkpt lat="39.3211620" lon="-0.6571450">
        <ele>196.0</ele>
        <time>2018-09-16T11:49:04Z</time>
      </trkpt>
      <trkpt lat="39.3211620" lon="-0.6571450">
        <ele>196.0</ele>
        <time>2018-09-16T11:49:05Z</time>
      </trkpt>
      <trkpt lat="39.3212450" lon="-0.6571920">
        <ele>196.0</ele>
        <time>2018-09-16T11:49:06Z</time>
      </trkpt>
      <trkpt lat="39.3212450" lon="-0.6571920">
        <ele>196.0</ele>
        <time>2018-09-16T11:49:07Z</time>
      </trkpt>
      <trkpt lat="39.3213350" lon="-0.6572470">
        <ele>196.0</ele>
        <time>2018-09-16T11:49:08Z</time>
      </trkpt>
      <trkpt lat="39.3213350" lon="-0.6572470">
        <ele>196.0</ele>
        <time>2018-09-16T11:49:09Z</time>
      </trkpt>
      <trkpt lat="39.3214270" lon="-0.6573170">
        <ele>196.0</ele>
        <time>2018-09-16T11:49:10Z</time>
      </trkpt>
      <trkpt lat="39.3214270" lon="-0.6573170">
        <ele>196.0</ele>
        <time>2018-09-16T11:49:11Z</time>
      </trkpt>
      <trkpt lat="39.3215120" lon="-0.6574050">
        <ele>196.0</ele>
        <time>2018-09-16T11:49:12Z</time>
      </trkpt>
      <trkpt lat="39.3215500" lon="-0.6574570">
        <ele>196.0</ele>
        <time>2018-09-16T11:49:13Z</time>
      </trkpt>
      <trkpt lat="39.3215500" lon="-0.6574570">
        <ele>196.0</ele>
        <time>2018-09-16T11:49:14Z</time>
      </trkpt>
      <trkpt lat="39.3215970" lon="-0.6575880">
        <ele>196.0</ele>
        <time>2018-09-16T11:49:15Z</time>
      </trkpt>
      <trkpt lat="39.3215980" lon="-0.6576630">
        <ele>196.0</ele>
        <time>2018-09-16T11:49:16Z</time>
      </trkpt>
      <trkpt lat="39.3215980" lon="-0.6576630">
        <ele>196.0</ele>
        <time>2018-09-16T11:49:17Z</time>
      </trkpt>
      <trkpt lat="39.3215520" lon="-0.6577930">
        <ele>196.0</ele>
        <time>2018-09-16T11:49:18Z</time>
      </trkpt>
      <trkpt lat="39.3215170" lon="-0.6578500">
        <ele>196.0</ele>
        <time>2018-09-16T11:49:19Z</time>
      </trkpt>
      <trkpt lat="39.3215170" lon="-0.6578500">
        <ele>196.0</ele>
        <time>2018-09-16T11:49:20Z</time>
      </trkpt>
      <trkpt lat="39.3214480" lon="-0.6579630">
        <ele>196.0</ele>
        <time>2018-09-16T11:49:21Z</time>
      </trkpt>
      <trkpt lat="39.3214480" lon="-0.6579630">
        <ele>196.0</ele>
        <time>2018-09-16T11:49:22Z</time>
      </trkpt>
      <trkpt lat="39.3213880" lon="-0.6580870">
        <ele>196.0</ele>
        <time>2018-09-16T11:49:23Z</time>
      </trkpt>
      <trkpt lat="39.3213880" lon="-0.6580870">
        <ele>196.0</ele>
        <time>2018-09-16T11:49:24Z</time>
      </trkpt>
      <trkpt lat="39.3213430" lon="-0.6582180">
        <ele>196.0</ele>
        <time>2018-09-16T11:49:25Z</time>
      </trkpt>
      <trkpt lat="39.3213430" lon="-0.6582180">
        <ele>196.0</ele>
        <time>2018-09-16T11:49:26Z</time>
      </trkpt>
      <trkpt lat="39.3213070" lon="-0.6583520">
        <ele>196.0</ele>
        <time>2018-09-16T11:49:27Z</time>
      </trkpt>
      <trkpt lat="39.3213070" lon="-0.6583520">
        <ele>196.0</ele>
        <time>2018-09-16T11:49:28Z</time>
      </trkpt>
      <trkpt lat="39.3212700" lon="-0.6584830">
        <ele>196.0</ele>
        <time>2018-09-16T11:49:29Z</time>
      </trkpt>
      <trkpt lat="39.3212520" lon="-0.6585480">
        <ele>196.0</ele>
        <time>2018-09-16T11:49:30Z</time>
      </trkpt>
      <trkpt lat="39.3212330" lon="-0.6586100">
        <ele>196.0</ele>
        <time>2018-09-16T11:49:31Z</time>
      </trkpt>
      <trkpt lat="39.3212330" lon="-0.6586100">
        <ele>196.0</ele>
        <time>2018-09-16T11:49:32Z</time>
      </trkpt>
      <trkpt lat="39.3212000" lon="-0.6587280">
        <ele>196.0</ele>
        <time>2018-09-16T11:49:33Z</time>
      </trkpt>
      <trkpt lat="39.3212000" lon="-0.6587280">
        <ele>196.0</ele>
        <time>2018-09-16T11:49:34Z</time>
      </trkpt>
      <trkpt lat="39.3211680" lon="-0.6588450">
        <ele>196.0</ele>
        <time>2018-09-16T11:49:35Z</time>
      </trkpt>
      <trkpt lat="39.3211680" lon="-0.6588450">
        <ele>196.0</ele>
        <time>2018-09-16T11:49:36Z</time>
      </trkpt>
      <trkpt lat="39.3211380" lon="-0.6589570">
        <ele>196.0</ele>
        <time>2018-09-16T11:49:37Z</time>
      </trkpt>
      <trkpt lat="39.3211380" lon="-0.6589570">
        <ele>196.0</ele>
        <time>2018-09-16T11:49:38Z</time>
      </trkpt>
      <trkpt lat="39.3211100" lon="-0.6590680">
        <ele>197.0</ele>
        <time>2018-09-16T11:49:39Z</time>
      </trkpt>
      <trkpt lat="39.3211100" lon="-0.6590680">
        <ele>197.0</ele>
        <time>2018-09-16T11:49:40Z</time>
      </trkpt>
      <trkpt lat="39.3210800" lon="-0.6591820">
        <ele>197.0</ele>
        <time>2018-09-16T11:49:41Z</time>
      </trkpt>
      <trkpt lat="39.3210800" lon="-0.6591820">
        <ele>197.0</ele>
        <time>2018-09-16T11:49:42Z</time>
      </trkpt>
      <trkpt lat="39.3210470" lon="-0.6592880">
        <ele>197.0</ele>
        <time>2018-09-16T11:49:43Z</time>
      </trkpt>
      <trkpt lat="39.3210470" lon="-0.6592880">
        <ele>197.0</ele>
        <time>2018-09-16T11:49:44Z</time>
      </trkpt>
      <trkpt lat="39.3210180" lon="-0.6593900">
        <ele>197.0</ele>
        <time>2018-09-16T11:49:45Z</time>
      </trkpt>
      <trkpt lat="39.3210050" lon="-0.6594400">
        <ele>197.0</ele>
        <time>2018-09-16T11:49:46Z</time>
      </trkpt>
      <trkpt lat="39.3210050" lon="-0.6594400">
        <ele>198.0</ele>
        <time>2018-09-16T11:49:47Z</time>
      </trkpt>
      <trkpt lat="39.3209830" lon="-0.6595400">
        <ele>198.0</ele>
        <time>2018-09-16T11:49:48Z</time>
      </trkpt>
      <trkpt lat="39.3209730" lon="-0.6595920">
        <ele>198.0</ele>
        <time>2018-09-16T11:49:49Z</time>
      </trkpt>
      <trkpt lat="39.3209730" lon="-0.6595920">
        <ele>198.0</ele>
        <time>2018-09-16T11:49:50Z</time>
      </trkpt>
      <trkpt lat="39.3209530" lon="-0.6596970">
        <ele>198.0</ele>
        <time>2018-09-16T11:49:51Z</time>
      </trkpt>
      <trkpt lat="39.3209420" lon="-0.6597500">
        <ele>198.0</ele>
        <time>2018-09-16T11:49:52Z</time>
      </trkpt>
      <trkpt lat="39.3209420" lon="-0.6597500">
        <ele>198.0</ele>
        <time>2018-09-16T11:49:53Z</time>
      </trkpt>
      <trkpt lat="39.3209200" lon="-0.6598550">
        <ele>198.0</ele>
        <time>2018-09-16T11:49:54Z</time>
      </trkpt>
      <trkpt lat="39.3209100" lon="-0.6599050">
        <ele>198.0</ele>
        <time>2018-09-16T11:49:55Z</time>
      </trkpt>
      <trkpt lat="39.3209100" lon="-0.6599050">
        <ele>198.0</ele>
        <time>2018-09-16T11:49:56Z</time>
      </trkpt>
      <trkpt lat="39.3208930" lon="-0.6600070">
        <ele>198.0</ele>
        <time>2018-09-16T11:49:57Z</time>
      </trkpt>
      <trkpt lat="39.3208930" lon="-0.6600070">
        <ele>198.0</ele>
        <time>2018-09-16T11:49:58Z</time>
      </trkpt>
      <trkpt lat="39.3208720" lon="-0.6601150">
        <ele>198.0</ele>
        <time>2018-09-16T11:49:59Z</time>
      </trkpt>
      <trkpt lat="39.3208620" lon="-0.6601700">
        <ele>198.0</ele>
        <time>2018-09-16T11:50:00Z</time>
      </trkpt>
      <trkpt lat="39.3208620" lon="-0.6601700">
        <ele>198.0</ele>
        <time>2018-09-16T11:50:01Z</time>
      </trkpt>
      <trkpt lat="39.3208400" lon="-0.6602830">
        <ele>198.0</ele>
        <time>2018-09-16T11:50:02Z</time>
      </trkpt>
      <trkpt lat="39.3208400" lon="-0.6602830">
        <ele>198.0</ele>
        <time>2018-09-16T11:50:03Z</time>
      </trkpt>
      <trkpt lat="39.3208180" lon="-0.6603970">
        <ele>198.0</ele>
        <time>2018-09-16T11:50:04Z</time>
      </trkpt>
      <trkpt lat="39.3208180" lon="-0.6603970">
        <ele>198.0</ele>
        <time>2018-09-16T11:50:05Z</time>
      </trkpt>
      <trkpt lat="39.3207980" lon="-0.6605100">
        <ele>198.0</ele>
        <time>2018-09-16T11:50:06Z</time>
      </trkpt>
      <trkpt lat="39.3207870" lon="-0.6605680">
        <ele>198.0</ele>
        <time>2018-09-16T11:50:07Z</time>
      </trkpt>
      <trkpt lat="39.3207870" lon="-0.6605680">
        <ele>198.0</ele>
        <time>2018-09-16T11:50:08Z</time>
      </trkpt>
      <trkpt lat="39.3207670" lon="-0.6606850">
        <ele>198.0</ele>
        <time>2018-09-16T11:50:09Z</time>
      </trkpt>
      <trkpt lat="39.3207670" lon="-0.6606850">
        <ele>198.0</ele>
        <time>2018-09-16T11:50:10Z</time>
      </trkpt>
      <trkpt lat="39.3207580" lon="-0.6607980">
        <ele>198.0</ele>
        <time>2018-09-16T11:50:11Z</time>
      </trkpt>
      <trkpt lat="39.3207580" lon="-0.6607980">
        <ele>198.0</ele>
        <time>2018-09-16T11:50:12Z</time>
      </trkpt>
      <trkpt lat="39.3207570" lon="-0.6609020">
        <ele>198.0</ele>
        <time>2018-09-16T11:50:13Z</time>
      </trkpt>
      <trkpt lat="39.3207620" lon="-0.6609420">
        <ele>198.0</ele>
        <time>2018-09-16T11:50:14Z</time>
      </trkpt>
      <trkpt lat="39.3207620" lon="-0.6609420">
        <ele>198.0</ele>
        <time>2018-09-16T11:50:15Z</time>
      </trkpt>
      <trkpt lat="39.3207730" lon="-0.6609850">
        <ele>198.0</ele>
        <time>2018-09-16T11:50:16Z</time>
      </trkpt>
      <trkpt lat="39.3207750" lon="-0.6609950">
        <ele>198.0</ele>
        <time>2018-09-16T11:50:17Z</time>
      </trkpt>
      <trkpt lat="39.3207750" lon="-0.6609950">
        <ele>198.0</ele>
        <time>2018-09-16T11:50:18Z</time>
      </trkpt>
      <trkpt lat="39.3207730" lon="-0.6609930">
        <ele>198.0</ele>
        <time>2018-09-16T11:50:19Z</time>
      </trkpt>
      <trkpt lat="39.3207730" lon="-0.6609930">
        <ele>198.0</ele>
        <time>2018-09-16T11:50:20Z</time>
      </trkpt>
      <trkpt lat="39.3207720" lon="-0.6609930">
        <ele>198.0</ele>
        <time>2018-09-16T11:51:50Z</time>
      </trkpt>
      <trkpt lat="39.3208000" lon="-0.6610070">
        <ele>197.0</ele>
        <time>2018-09-16T11:51:51Z</time>
      </trkpt>
      <trkpt lat="39.3208000" lon="-0.6610070">
        <ele>197.0</ele>
        <time>2018-09-16T11:51:52Z</time>
      </trkpt>
      <trkpt lat="39.3208000" lon="-0.6610070">
        <ele>198.0</ele>
        <time>2018-09-16T11:51:53Z</time>
      </trkpt>
      <trkpt lat="39.3208000" lon="-0.6610070">
        <ele>198.0</ele>
        <time>2018-09-16T11:51:54Z</time>
      </trkpt>
      <trkpt lat="39.3208000" lon="-0.6610070">
        <ele>198.0</ele>
        <time>2018-09-16T11:51:55Z</time>
      </trkpt>
      <trkpt lat="39.3208000" lon="-0.6610070">
        <ele>198.0</ele>
        <time>2018-09-16T11:51:56Z</time>
      </trkpt>
      <trkpt lat="39.3208020" lon="-0.6610480">
        <ele>198.0</ele>
        <time>2018-09-16T11:51:57Z</time>
      </trkpt>
      <trkpt lat="39.3208070" lon="-0.6610720">
        <ele>198.0</ele>
        <time>2018-09-16T11:51:58Z</time>
      </trkpt>
      <trkpt lat="39.3208150" lon="-0.6610970">
        <ele>198.0</ele>
        <time>2018-09-16T11:51:59Z</time>
      </trkpt>
      <trkpt lat="39.3208220" lon="-0.6611220">
        <ele>198.0</ele>
        <time>2018-09-16T11:52:00Z</time>
      </trkpt>
      <trkpt lat="39.3208300" lon="-0.6611470">
        <ele>199.0</ele>
        <time>2018-09-16T11:52:01Z</time>
      </trkpt>
      <trkpt lat="39.3208300" lon="-0.6611470">
        <ele>199.0</ele>
        <time>2018-09-16T11:52:02Z</time>
      </trkpt>
      <trkpt lat="39.3208500" lon="-0.6612050">
        <ele>199.0</ele>
        <time>2018-09-16T11:52:03Z</time>
      </trkpt>
      <trkpt lat="39.3208500" lon="-0.6612050">
        <ele>199.0</ele>
        <time>2018-09-16T11:52:04Z</time>
      </trkpt>
      <trkpt lat="39.3208750" lon="-0.6612650">
        <ele>199.0</ele>
        <time>2018-09-16T11:52:05Z</time>
      </trkpt>
      <trkpt lat="39.3208750" lon="-0.6612650">
        <ele>199.0</ele>
        <time>2018-09-16T11:52:06Z</time>
      </trkpt>
      <trkpt lat="39.3209020" lon="-0.6613280">
        <ele>199.0</ele>
        <time>2018-09-16T11:52:07Z</time>
      </trkpt>
      <trkpt lat="39.3209020" lon="-0.6613280">
        <ele>199.0</ele>
        <time>2018-09-16T11:52:08Z</time>
      </trkpt>
      <trkpt lat="39.3209280" lon="-0.6613930">
        <ele>199.0</ele>
        <time>2018-09-16T11:52:09Z</time>
      </trkpt>
      <trkpt lat="39.3209280" lon="-0.6613930">
        <ele>199.0</ele>
        <time>2018-09-16T11:52:10Z</time>
      </trkpt>
      <trkpt lat="39.3209570" lon="-0.6614600">
        <ele>199.0</ele>
        <time>2018-09-16T11:52:11Z</time>
      </trkpt>
      <trkpt lat="39.3209570" lon="-0.6614600">
        <ele>199.0</ele>
        <time>2018-09-16T11:52:12Z</time>
      </trkpt>
      <trkpt lat="39.3209830" lon="-0.6615300">
        <ele>199.0</ele>
        <time>2018-09-16T11:52:13Z</time>
      </trkpt>
      <trkpt lat="39.3209830" lon="-0.6615300">
        <ele>199.0</ele>
        <time>2018-09-16T11:52:14Z</time>
      </trkpt>
      <trkpt lat="39.3210100" lon="-0.6616000">
        <ele>199.0</ele>
        <time>2018-09-16T11:52:15Z</time>
      </trkpt>
      <trkpt lat="39.3210100" lon="-0.6616000">
        <ele>199.0</ele>
        <time>2018-09-16T11:52:16Z</time>
      </trkpt>
      <trkpt lat="39.3210400" lon="-0.6616670">
        <ele>199.0</ele>
        <time>2018-09-16T11:52:17Z</time>
      </trkpt>
      <trkpt lat="39.3210400" lon="-0.6616670">
        <ele>199.0</ele>
        <time>2018-09-16T11:52:18Z</time>
      </trkpt>
      <trkpt lat="39.3210680" lon="-0.6617370">
        <ele>199.0</ele>
        <time>2018-09-16T11:52:19Z</time>
      </trkpt>
      <trkpt lat="39.3210680" lon="-0.6617370">
        <ele>199.0</ele>
        <time>2018-09-16T11:52:20Z</time>
      </trkpt>
      <trkpt lat="39.3211000" lon="-0.6618080">
        <ele>199.0</ele>
        <time>2018-09-16T11:52:21Z</time>
      </trkpt>
      <trkpt lat="39.3211170" lon="-0.6618450">
        <ele>199.0</ele>
        <time>2018-09-16T11:52:22Z</time>
      </trkpt>
      <trkpt lat="39.3211170" lon="-0.6618450">
        <ele>199.0</ele>
        <time>2018-09-16T11:52:23Z</time>
      </trkpt>
      <trkpt lat="39.3211480" lon="-0.6619230">
        <ele>199.0</ele>
        <time>2018-09-16T11:52:24Z</time>
      </trkpt>
      <trkpt lat="39.3211630" lon="-0.6619630">
        <ele>199.0</ele>
        <time>2018-09-16T11:52:25Z</time>
      </trkpt>
      <trkpt lat="39.3211630" lon="-0.6619630">
        <ele>199.0</ele>
        <time>2018-09-16T11:52:26Z</time>
      </trkpt>
      <trkpt lat="39.3211950" lon="-0.6620420">
        <ele>199.0</ele>
        <time>2018-09-16T11:52:27Z</time>
      </trkpt>
      <trkpt lat="39.3212120" lon="-0.6620820">
        <ele>200.0</ele>
        <time>2018-09-16T11:52:28Z</time>
      </trkpt>
      <trkpt lat="39.3212120" lon="-0.6620820">
        <ele>200.0</ele>
        <time>2018-09-16T11:52:29Z</time>
      </trkpt>
      <trkpt lat="39.3212450" lon="-0.6621580">
        <ele>200.0</ele>
        <time>2018-09-16T11:52:30Z</time>
      </trkpt>
      <trkpt lat="39.3212620" lon="-0.6621980">
        <ele>200.0</ele>
        <time>2018-09-16T11:52:31Z</time>
      </trkpt>
      <trkpt lat="39.3212620" lon="-0.6621980">
        <ele>200.0</ele>
        <time>2018-09-16T11:52:32Z</time>
      </trkpt>
      <trkpt lat="39.3212930" lon="-0.6622770">
        <ele>200.0</ele>
        <time>2018-09-16T11:52:33Z</time>
      </trkpt>
      <trkpt lat="39.3212930" lon="-0.6622770">
        <ele>200.0</ele>
        <time>2018-09-16T11:52:34Z</time>
      </trkpt>
      <trkpt lat="39.3213270" lon="-0.6623580">
        <ele>200.0</ele>
        <time>2018-09-16T11:52:35Z</time>
      </trkpt>
      <trkpt lat="39.3213270" lon="-0.6623580">
        <ele>200.0</ele>
        <time>2018-09-16T11:52:36Z</time>
      </trkpt>
      <trkpt lat="39.3213600" lon="-0.6624430">
        <ele>200.0</ele>
        <time>2018-09-16T11:52:37Z</time>
      </trkpt>
      <trkpt lat="39.3213600" lon="-0.6624430">
        <ele>200.0</ele>
        <time>2018-09-16T11:52:38Z</time>
      </trkpt>
      <trkpt lat="39.3213970" lon="-0.6625300">
        <ele>200.0</ele>
        <time>2018-09-16T11:52:39Z</time>
      </trkpt>
      <trkpt lat="39.3213970" lon="-0.6625300">
        <ele>200.0</ele>
        <time>2018-09-16T11:52:40Z</time>
      </trkpt>
      <trkpt lat="39.3214320" lon="-0.6626200">
        <ele>200.0</ele>
        <time>2018-09-16T11:52:41Z</time>
      </trkpt>
      <trkpt lat="39.3214500" lon="-0.6626650">
        <ele>200.0</ele>
        <time>2018-09-16T11:52:42Z</time>
      </trkpt>
      <trkpt lat="39.3214500" lon="-0.6626650">
        <ele>200.0</ele>
        <time>2018-09-16T11:52:43Z</time>
      </trkpt>
      <trkpt lat="39.3214820" lon="-0.6627520">
        <ele>200.0</ele>
        <time>2018-09-16T11:52:44Z</time>
      </trkpt>
      <trkpt lat="39.3214980" lon="-0.6627930">
        <ele>200.0</ele>
        <time>2018-09-16T11:52:45Z</time>
      </trkpt>
      <trkpt lat="39.3214980" lon="-0.6627930">
        <ele>200.0</ele>
        <time>2018-09-16T11:52:46Z</time>
      </trkpt>
      <trkpt lat="39.3215330" lon="-0.6628770">
        <ele>200.0</ele>
        <time>2018-09-16T11:52:47Z</time>
      </trkpt>
      <trkpt lat="39.3215500" lon="-0.6629180">
        <ele>200.0</ele>
        <time>2018-09-16T11:52:48Z</time>
      </trkpt>
      <trkpt lat="39.3215500" lon="-0.6629180">
        <ele>200.0</ele>
        <time>2018-09-16T11:52:49Z</time>
      </trkpt>
      <trkpt lat="39.3215880" lon="-0.6630070">
        <ele>201.0</ele>
        <time>2018-09-16T11:52:50Z</time>
      </trkpt>
      <trkpt lat="39.3215880" lon="-0.6630070">
        <ele>201.0</ele>
        <time>2018-09-16T11:52:51Z</time>
      </trkpt>
      <trkpt lat="39.3216270" lon="-0.6631000">
        <ele>201.0</ele>
        <time>2018-09-16T11:52:52Z</time>
      </trkpt>
      <trkpt lat="39.3216270" lon="-0.6631000">
        <ele>201.0</ele>
        <time>2018-09-16T11:52:53Z</time>
      </trkpt>
      <trkpt lat="39.3216670" lon="-0.6631870">
        <ele>201.0</ele>
        <time>2018-09-16T11:52:54Z</time>
      </trkpt>
      <trkpt lat="39.3216850" lon="-0.6632270">
        <ele>201.0</ele>
        <time>2018-09-16T11:52:55Z</time>
      </trkpt>
      <trkpt lat="39.3216850" lon="-0.6632270">
        <ele>201.0</ele>
        <time>2018-09-16T11:52:56Z</time>
      </trkpt>
      <trkpt lat="39.3217230" lon="-0.6633100">
        <ele>201.0</ele>
        <time>2018-09-16T11:52:57Z</time>
      </trkpt>
      <trkpt lat="39.3217230" lon="-0.6633100">
        <ele>201.0</ele>
        <time>2018-09-16T11:52:58Z</time>
      </trkpt>
      <trkpt lat="39.3217580" lon="-0.6634020">
        <ele>201.0</ele>
        <time>2018-09-16T11:52:59Z</time>
      </trkpt>
      <trkpt lat="39.3217780" lon="-0.6634470">
        <ele>201.0</ele>
        <time>2018-09-16T11:53:00Z</time>
      </trkpt>
      <trkpt lat="39.3217980" lon="-0.6634930">
        <ele>201.0</ele>
        <time>2018-09-16T11:53:01Z</time>
      </trkpt>
      <trkpt lat="39.3217980" lon="-0.6634930">
        <ele>201.0</ele>
        <time>2018-09-16T11:53:02Z</time>
      </trkpt>
      <trkpt lat="39.3218400" lon="-0.6635850">
        <ele>201.0</ele>
        <time>2018-09-16T11:53:03Z</time>
      </trkpt>
      <trkpt lat="39.3218620" lon="-0.6636320">
        <ele>201.0</ele>
        <time>2018-09-16T11:53:04Z</time>
      </trkpt>
      <trkpt lat="39.3218620" lon="-0.6636320">
        <ele>201.0</ele>
        <time>2018-09-16T11:53:05Z</time>
      </trkpt>
      <trkpt lat="39.3219080" lon="-0.6637230">
        <ele>201.0</ele>
        <time>2018-09-16T11:53:06Z</time>
      </trkpt>
      <trkpt lat="39.3219330" lon="-0.6637670">
        <ele>201.0</ele>
        <time>2018-09-16T11:53:07Z</time>
      </trkpt>
      <trkpt lat="39.3219330" lon="-0.6637670">
        <ele>201.0</ele>
        <time>2018-09-16T11:53:08Z</time>
      </trkpt>
      <trkpt lat="39.3219820" lon="-0.6638520">
        <ele>201.0</ele>
        <time>2018-09-16T11:53:09Z</time>
      </trkpt>
      <trkpt lat="39.3219820" lon="-0.6638520">
        <ele>201.0</ele>
        <time>2018-09-16T11:53:10Z</time>
      </trkpt>
      <trkpt lat="39.3220330" lon="-0.6639320">
        <ele>201.0</ele>
        <time>2018-09-16T11:53:11Z</time>
      </trkpt>
      <trkpt lat="39.3220330" lon="-0.6639320">
        <ele>202.0</ele>
        <time>2018-09-16T11:53:12Z</time>
      </trkpt>
      <trkpt lat="39.3220880" lon="-0.6640080">
        <ele>202.0</ele>
        <time>2018-09-16T11:53:13Z</time>
      </trkpt>
      <trkpt lat="39.3220880" lon="-0.6640080">
        <ele>202.0</ele>
        <time>2018-09-16T11:53:14Z</time>
      </trkpt>
      <trkpt lat="39.3221450" lon="-0.6640850">
        <ele>202.0</ele>
        <time>2018-09-16T11:53:15Z</time>
      </trkpt>
      <trkpt lat="39.3221720" lon="-0.6641200">
        <ele>202.0</ele>
        <time>2018-09-16T11:53:16Z</time>
      </trkpt>
      <trkpt lat="39.3221720" lon="-0.6641200">
        <ele>202.0</ele>
        <time>2018-09-16T11:53:17Z</time>
      </trkpt>
      <trkpt lat="39.3222270" lon="-0.6641950">
        <ele>202.0</ele>
        <time>2018-09-16T11:53:18Z</time>
      </trkpt>
      <trkpt lat="39.3222530" lon="-0.6642320">
        <ele>202.0</ele>
        <time>2018-09-16T11:53:19Z</time>
      </trkpt>
      <trkpt lat="39.3222530" lon="-0.6642320">
        <ele>202.0</ele>
        <time>2018-09-16T11:53:20Z</time>
      </trkpt>
      <trkpt lat="39.3223050" lon="-0.6643080">
        <ele>202.0</ele>
        <time>2018-09-16T11:53:21Z</time>
      </trkpt>
      <trkpt lat="39.3223320" lon="-0.6643470">
        <ele>202.0</ele>
        <time>2018-09-16T11:53:22Z</time>
      </trkpt>
      <trkpt lat="39.3223320" lon="-0.6643470">
        <ele>203.0</ele>
        <time>2018-09-16T11:53:23Z</time>
      </trkpt>
      <trkpt lat="39.3223800" lon="-0.6644180">
        <ele>203.0</ele>
        <time>2018-09-16T11:53:24Z</time>
      </trkpt>
      <trkpt lat="39.3224030" lon="-0.6644520">
        <ele>203.0</ele>
        <time>2018-09-16T11:53:25Z</time>
      </trkpt>
      <trkpt lat="39.3224030" lon="-0.6644520">
        <ele>203.0</ele>
        <time>2018-09-16T11:53:26Z</time>
      </trkpt>
      <trkpt lat="39.3224520" lon="-0.6645170">
        <ele>203.0</ele>
        <time>2018-09-16T11:53:27Z</time>
      </trkpt>
      <trkpt lat="39.3224750" lon="-0.6645480">
        <ele>203.0</ele>
        <time>2018-09-16T11:53:28Z</time>
      </trkpt>
      <trkpt lat="39.3224750" lon="-0.6645480">
        <ele>203.0</ele>
        <time>2018-09-16T11:53:29Z</time>
      </trkpt>
      <trkpt lat="39.3225230" lon="-0.6646130">
        <ele>203.0</ele>
        <time>2018-09-16T11:53:30Z</time>
      </trkpt>
      <trkpt lat="39.3225230" lon="-0.6646130">
        <ele>203.0</ele>
        <time>2018-09-16T11:53:31Z</time>
      </trkpt>
      <trkpt lat="39.3225680" lon="-0.6646780">
        <ele>203.0</ele>
        <time>2018-09-16T11:53:32Z</time>
      </trkpt>
      <trkpt lat="39.3225680" lon="-0.6646780">
        <ele>203.0</ele>
        <time>2018-09-16T11:53:33Z</time>
      </trkpt>
      <trkpt lat="39.3226130" lon="-0.6647320">
        <ele>203.0</ele>
        <time>2018-09-16T11:53:34Z</time>
      </trkpt>
      <trkpt lat="39.3226130" lon="-0.6647320">
        <ele>203.0</ele>
        <time>2018-09-16T11:53:35Z</time>
      </trkpt>
      <trkpt lat="39.3226570" lon="-0.6647930">
        <ele>203.0</ele>
        <time>2018-09-16T11:53:36Z</time>
      </trkpt>
      <trkpt lat="39.3226750" lon="-0.6648230">
        <ele>203.0</ele>
        <time>2018-09-16T11:53:37Z</time>
      </trkpt>
      <trkpt lat="39.3226750" lon="-0.6648230">
        <ele>203.0</ele>
        <time>2018-09-16T11:53:38Z</time>
      </trkpt>
      <trkpt lat="39.3227120" lon="-0.6648820">
        <ele>203.0</ele>
        <time>2018-09-16T11:53:39Z</time>
      </trkpt>
      <trkpt lat="39.3227120" lon="-0.6648820">
        <ele>203.0</ele>
        <time>2018-09-16T11:53:40Z</time>
      </trkpt>
      <trkpt lat="39.3227580" lon="-0.6649430">
        <ele>204.0</ele>
        <time>2018-09-16T11:53:41Z</time>
      </trkpt>
      <trkpt lat="39.3227580" lon="-0.6649430">
        <ele>204.0</ele>
        <time>2018-09-16T11:53:42Z</time>
      </trkpt>
      <trkpt lat="39.3228080" lon="-0.6650080">
        <ele>204.0</ele>
        <time>2018-09-16T11:53:43Z</time>
      </trkpt>
      <trkpt lat="39.3228080" lon="-0.6650080">
        <ele>204.0</ele>
        <time>2018-09-16T11:53:44Z</time>
      </trkpt>
      <trkpt lat="39.3228570" lon="-0.6650770">
        <ele>204.0</ele>
        <time>2018-09-16T11:53:45Z</time>
      </trkpt>
      <trkpt lat="39.3228570" lon="-0.6650770">
        <ele>204.0</ele>
        <time>2018-09-16T11:53:46Z</time>
      </trkpt>
      <trkpt lat="39.3229020" lon="-0.6651420">
        <ele>204.0</ele>
        <time>2018-09-16T11:53:47Z</time>
      </trkpt>
      <trkpt lat="39.3229020" lon="-0.6651420">
        <ele>204.0</ele>
        <time>2018-09-16T11:53:48Z</time>
      </trkpt>
      <trkpt lat="39.3229470" lon="-0.6652050">
        <ele>204.0</ele>
        <time>2018-09-16T11:53:49Z</time>
      </trkpt>
      <trkpt lat="39.3229470" lon="-0.6652050">
        <ele>204.0</ele>
        <time>2018-09-16T11:53:50Z</time>
      </trkpt>
      <trkpt lat="39.3229970" lon="-0.6652750">
        <ele>204.0</ele>
        <time>2018-09-16T11:53:51Z</time>
      </trkpt>
      <trkpt lat="39.3229970" lon="-0.6652750">
        <ele>204.0</ele>
        <time>2018-09-16T11:53:52Z</time>
      </trkpt>
      <trkpt lat="39.3230470" lon="-0.6653480">
        <ele>204.0</ele>
        <time>2018-09-16T11:53:53Z</time>
      </trkpt>
      <trkpt lat="39.3230470" lon="-0.6653480">
        <ele>204.0</ele>
        <time>2018-09-16T11:53:54Z</time>
      </trkpt>
      <trkpt lat="39.3231000" lon="-0.6654270">
        <ele>204.0</ele>
        <time>2018-09-16T11:53:55Z</time>
      </trkpt>
      <trkpt lat="39.3231000" lon="-0.6654270">
        <ele>204.0</ele>
        <time>2018-09-16T11:53:56Z</time>
      </trkpt>
      <trkpt lat="39.3231530" lon="-0.6655050">
        <ele>204.0</ele>
        <time>2018-09-16T11:53:57Z</time>
      </trkpt>
      <trkpt lat="39.3231530" lon="-0.6655050">
        <ele>205.0</ele>
        <time>2018-09-16T11:53:58Z</time>
      </trkpt>
      <trkpt lat="39.3232100" lon="-0.6655830">
        <ele>205.0</ele>
        <time>2018-09-16T11:53:59Z</time>
      </trkpt>
      <trkpt lat="39.3232100" lon="-0.6655830">
        <ele>205.0</ele>
        <time>2018-09-16T11:54:00Z</time>
      </trkpt>
      <trkpt lat="39.3232650" lon="-0.6656620">
        <ele>205.0</ele>
        <time>2018-09-16T11:54:01Z</time>
      </trkpt>
      <trkpt lat="39.3232650" lon="-0.6656620">
        <ele>205.0</ele>
        <time>2018-09-16T11:54:02Z</time>
      </trkpt>
      <trkpt lat="39.3233200" lon="-0.6657400">
        <ele>205.0</ele>
        <time>2018-09-16T11:54:03Z</time>
      </trkpt>
      <trkpt lat="39.3233470" lon="-0.6657800">
        <ele>205.0</ele>
        <time>2018-09-16T11:54:04Z</time>
      </trkpt>
      <trkpt lat="39.3233470" lon="-0.6657800">
        <ele>205.0</ele>
        <time>2018-09-16T11:54:05Z</time>
      </trkpt>
      <trkpt lat="39.3234000" lon="-0.6658600">
        <ele>205.0</ele>
        <time>2018-09-16T11:54:06Z</time>
      </trkpt>
      <trkpt lat="39.3234000" lon="-0.6658600">
        <ele>205.0</ele>
        <time>2018-09-16T11:54:07Z</time>
      </trkpt>
      <trkpt lat="39.3234530" lon="-0.6659430">
        <ele>205.0</ele>
        <time>2018-09-16T11:54:08Z</time>
      </trkpt>
      <trkpt lat="39.3234780" lon="-0.6659850">
        <ele>205.0</ele>
        <time>2018-09-16T11:54:09Z</time>
      </trkpt>
      <trkpt lat="39.3234780" lon="-0.6659850">
        <ele>205.0</ele>
        <time>2018-09-16T11:54:10Z</time>
      </trkpt>
      <trkpt lat="39.3235270" lon="-0.6660630">
        <ele>205.0</ele>
        <time>2018-09-16T11:54:11Z</time>
      </trkpt>
      <trkpt lat="39.3235270" lon="-0.6660630">
        <ele>205.0</ele>
        <time>2018-09-16T11:54:12Z</time>
      </trkpt>
      <trkpt lat="39.3235750" lon="-0.6661370">
        <ele>205.0</ele>
        <time>2018-09-16T11:54:13Z</time>
      </trkpt>
      <trkpt lat="39.3235750" lon="-0.6661370">
        <ele>205.0</ele>
        <time>2018-09-16T11:54:14Z</time>
      </trkpt>
      <trkpt lat="39.3236200" lon="-0.6662120">
        <ele>205.0</ele>
        <time>2018-09-16T11:54:15Z</time>
      </trkpt>
      <trkpt lat="39.3236430" lon="-0.6662520">
        <ele>205.0</ele>
        <time>2018-09-16T11:54:16Z</time>
      </trkpt>
      <trkpt lat="39.3236430" lon="-0.6662520">
        <ele>205.0</ele>
        <time>2018-09-16T11:54:17Z</time>
      </trkpt>
      <trkpt lat="39.3236880" lon="-0.6663350">
        <ele>205.0</ele>
        <time>2018-09-16T11:54:18Z</time>
      </trkpt>
      <trkpt lat="39.3237130" lon="-0.6663780">
        <ele>205.0</ele>
        <time>2018-09-16T11:54:19Z</time>
      </trkpt>
      <trkpt lat="39.3237130" lon="-0.6663780">
        <ele>205.0</ele>
        <time>2018-09-16T11:54:20Z</time>
      </trkpt>
      <trkpt lat="39.3237620" lon="-0.6664650">
        <ele>205.0</ele>
        <time>2018-09-16T11:54:21Z</time>
      </trkpt>
      <trkpt lat="39.3237850" lon="-0.6665080">
        <ele>205.0</ele>
        <time>2018-09-16T11:54:22Z</time>
      </trkpt>
      <trkpt lat="39.3237850" lon="-0.6665080">
        <ele>206.0</ele>
        <time>2018-09-16T11:54:23Z</time>
      </trkpt>
      <trkpt lat="39.3238320" lon="-0.6665950">
        <ele>206.0</ele>
        <time>2018-09-16T11:54:24Z</time>
      </trkpt>
      <trkpt lat="39.3238550" lon="-0.6666350">
        <ele>206.0</ele>
        <time>2018-09-16T11:54:25Z</time>
      </trkpt>
      <trkpt lat="39.3238550" lon="-0.6666350">
        <ele>206.0</ele>
        <time>2018-09-16T11:54:26Z</time>
      </trkpt>
      <trkpt lat="39.3239020" lon="-0.6667170">
        <ele>206.0</ele>
        <time>2018-09-16T11:54:27Z</time>
      </trkpt>
      <trkpt lat="39.3239020" lon="-0.6667170">
        <ele>206.0</ele>
        <time>2018-09-16T11:54:28Z</time>
      </trkpt>
      <trkpt lat="39.3239430" lon="-0.6667970">
        <ele>206.0</ele>
        <time>2018-09-16T11:54:29Z</time>
      </trkpt>
      <trkpt lat="39.3239430" lon="-0.6667970">
        <ele>206.0</ele>
        <time>2018-09-16T11:54:30Z</time>
      </trkpt>
      <trkpt lat="39.3239870" lon="-0.6668780">
        <ele>206.0</ele>
        <time>2018-09-16T11:54:31Z</time>
      </trkpt>
      <trkpt lat="39.3239870" lon="-0.6668780">
        <ele>206.0</ele>
        <time>2018-09-16T11:54:32Z</time>
      </trkpt>
      <trkpt lat="39.3240350" lon="-0.6669620">
        <ele>206.0</ele>
        <time>2018-09-16T11:54:33Z</time>
      </trkpt>
      <trkpt lat="39.3240570" lon="-0.6670050">
        <ele>206.0</ele>
        <time>2018-09-16T11:54:34Z</time>
      </trkpt>
      <trkpt lat="39.3240570" lon="-0.6670050">
        <ele>206.0</ele>
        <time>2018-09-16T11:54:35Z</time>
      </trkpt>
      <trkpt lat="39.3240980" lon="-0.6670880">
        <ele>206.0</ele>
        <time>2018-09-16T11:54:36Z</time>
      </trkpt>
      <trkpt lat="39.3241200" lon="-0.6671300">
        <ele>206.0</ele>
        <time>2018-09-16T11:54:37Z</time>
      </trkpt>
      <trkpt lat="39.3241200" lon="-0.6671300">
        <ele>206.0</ele>
        <time>2018-09-16T11:54:38Z</time>
      </trkpt>
      <trkpt lat="39.3241650" lon="-0.6672120">
        <ele>206.0</ele>
        <time>2018-09-16T11:54:39Z</time>
      </trkpt>
      <trkpt lat="39.3241650" lon="-0.6672120">
        <ele>206.0</ele>
        <time>2018-09-16T11:54:40Z</time>
      </trkpt>
      <trkpt lat="39.3242130" lon="-0.6672930">
        <ele>206.0</ele>
        <time>2018-09-16T11:54:41Z</time>
      </trkpt>
      <trkpt lat="39.3242130" lon="-0.6672930">
        <ele>206.0</ele>
        <time>2018-09-16T11:54:42Z</time>
      </trkpt>
      <trkpt lat="39.3242630" lon="-0.6673730">
        <ele>206.0</ele>
        <time>2018-09-16T11:54:43Z</time>
      </trkpt>
      <trkpt lat="39.3242630" lon="-0.6673730">
        <ele>207.0</ele>
        <time>2018-09-16T11:54:44Z</time>
      </trkpt>
      <trkpt lat="39.3243170" lon="-0.6674520">
        <ele>207.0</ele>
        <time>2018-09-16T11:54:45Z</time>
      </trkpt>
      <trkpt lat="39.3243170" lon="-0.6674520">
        <ele>207.0</ele>
        <time>2018-09-16T11:54:46Z</time>
      </trkpt>
      <trkpt lat="39.3243720" lon="-0.6675320">
        <ele>207.0</ele>
        <time>2018-09-16T11:54:47Z</time>
      </trkpt>
      <trkpt lat="39.3243720" lon="-0.6675320">
        <ele>207.0</ele>
        <time>2018-09-16T11:54:48Z</time>
      </trkpt>
      <trkpt lat="39.3244270" lon="-0.6676100">
        <ele>207.0</ele>
        <time>2018-09-16T11:54:49Z</time>
      </trkpt>
      <trkpt lat="39.3244270" lon="-0.6676100">
        <ele>207.0</ele>
        <time>2018-09-16T11:54:50Z</time>
      </trkpt>
      <trkpt lat="39.3244820" lon="-0.6676880">
        <ele>207.0</ele>
        <time>2018-09-16T11:54:51Z</time>
      </trkpt>
      <trkpt lat="39.3244820" lon="-0.6676880">
        <ele>207.0</ele>
        <time>2018-09-16T11:54:52Z</time>
      </trkpt>
      <trkpt lat="39.3245380" lon="-0.6677670">
        <ele>207.0</ele>
        <time>2018-09-16T11:54:53Z</time>
      </trkpt>
      <trkpt lat="39.3245380" lon="-0.6677670">
        <ele>207.0</ele>
        <time>2018-09-16T11:54:54Z</time>
      </trkpt>
      <trkpt lat="39.3245920" lon="-0.6678470">
        <ele>207.0</ele>
        <time>2018-09-16T11:54:55Z</time>
      </trkpt>
      <trkpt lat="39.3245920" lon="-0.6678470">
        <ele>207.0</ele>
        <time>2018-09-16T11:54:56Z</time>
      </trkpt>
      <trkpt lat="39.3246450" lon="-0.6679270">
        <ele>207.0</ele>
        <time>2018-09-16T11:54:57Z</time>
      </trkpt>
      <trkpt lat="39.3246450" lon="-0.6679270">
        <ele>207.0</ele>
        <time>2018-09-16T11:54:58Z</time>
      </trkpt>
      <trkpt lat="39.3246980" lon="-0.6680100">
        <ele>207.0</ele>
        <time>2018-09-16T11:54:59Z</time>
      </trkpt>
      <trkpt lat="39.3247250" lon="-0.6680480">
        <ele>207.0</ele>
        <time>2018-09-16T11:55:00Z</time>
      </trkpt>
      <trkpt lat="39.3247550" lon="-0.6680870">
        <ele>208.0</ele>
        <time>2018-09-16T11:55:01Z</time>
      </trkpt>
      <trkpt lat="39.3247550" lon="-0.6680870">
        <ele>208.0</ele>
        <time>2018-09-16T11:55:02Z</time>
      </trkpt>
      <trkpt lat="39.3248120" lon="-0.6681630">
        <ele>208.0</ele>
        <time>2018-09-16T11:55:03Z</time>
      </trkpt>
      <trkpt lat="39.3248400" lon="-0.6682030">
        <ele>208.0</ele>
        <time>2018-09-16T11:55:04Z</time>
      </trkpt>
      <trkpt lat="39.3248400" lon="-0.6682030">
        <ele>208.0</ele>
        <time>2018-09-16T11:55:05Z</time>
      </trkpt>
      <trkpt lat="39.3249000" lon="-0.6682900">
        <ele>208.0</ele>
        <time>2018-09-16T11:55:06Z</time>
      </trkpt>
      <trkpt lat="39.3249000" lon="-0.6682900">
        <ele>208.0</ele>
        <time>2018-09-16T11:55:07Z</time>
      </trkpt>
      <trkpt lat="39.3249570" lon="-0.6683730">
        <ele>208.0</ele>
        <time>2018-09-16T11:55:08Z</time>
      </trkpt>
      <trkpt lat="39.3249570" lon="-0.6683730">
        <ele>208.0</ele>
        <time>2018-09-16T11:55:09Z</time>
      </trkpt>
      <trkpt lat="39.3250150" lon="-0.6684570">
        <ele>208.0</ele>
        <time>2018-09-16T11:55:10Z</time>
      </trkpt>
      <trkpt lat="39.3250450" lon="-0.6684970">
        <ele>208.0</ele>
        <time>2018-09-16T11:55:11Z</time>
      </trkpt>
      <trkpt lat="39.3250450" lon="-0.6684970">
        <ele>208.0</ele>
        <time>2018-09-16T11:55:12Z</time>
      </trkpt>
      <trkpt lat="39.3251030" lon="-0.6685830">
        <ele>208.0</ele>
        <time>2018-09-16T11:55:13Z</time>
      </trkpt>
      <trkpt lat="39.3251030" lon="-0.6685830">
        <ele>209.0</ele>
        <time>2018-09-16T11:55:14Z</time>
      </trkpt>
      <trkpt lat="39.3251620" lon="-0.6686700">
        <ele>209.0</ele>
        <time>2018-09-16T11:55:15Z</time>
      </trkpt>
      <trkpt lat="39.3251620" lon="-0.6686700">
        <ele>209.0</ele>
        <time>2018-09-16T11:55:16Z</time>
      </trkpt>
      <trkpt lat="39.3252170" lon="-0.6687620">
        <ele>209.0</ele>
        <time>2018-09-16T11:55:17Z</time>
      </trkpt>
      <trkpt lat="39.3252170" lon="-0.6687620">
        <ele>209.0</ele>
        <time>2018-09-16T11:55:18Z</time>
      </trkpt>
      <trkpt lat="39.3252700" lon="-0.6688550">
        <ele>209.0</ele>
        <time>2018-09-16T11:55:19Z</time>
      </trkpt>
      <trkpt lat="39.3252700" lon="-0.6688550">
        <ele>209.0</ele>
        <time>2018-09-16T11:55:20Z</time>
      </trkpt>
      <trkpt lat="39.3253230" lon="-0.6689480">
        <ele>209.0</ele>
        <time>2018-09-16T11:55:21Z</time>
      </trkpt>
      <trkpt lat="39.3253230" lon="-0.6689480">
        <ele>209.0</ele>
        <time>2018-09-16T11:55:22Z</time>
      </trkpt>
      <trkpt lat="39.3253720" lon="-0.6690470">
        <ele>210.0</ele>
        <time>2018-09-16T11:55:23Z</time>
      </trkpt>
      <trkpt lat="39.3253720" lon="-0.6690470">
        <ele>210.0</ele>
        <time>2018-09-16T11:55:24Z</time>
      </trkpt>
      <trkpt lat="39.3254180" lon="-0.6691470">
        <ele>210.0</ele>
        <time>2018-09-16T11:55:25Z</time>
      </trkpt>
      <trkpt lat="39.3254180" lon="-0.6691470">
        <ele>210.0</ele>
        <time>2018-09-16T11:55:26Z</time>
      </trkpt>
      <trkpt lat="39.3254650" lon="-0.6692470">
        <ele>210.0</ele>
        <time>2018-09-16T11:55:27Z</time>
      </trkpt>
      <trkpt lat="39.3254650" lon="-0.6692470">
        <ele>210.0</ele>
        <time>2018-09-16T11:55:28Z</time>
      </trkpt>
      <trkpt lat="39.3255120" lon="-0.6693450">
        <ele>210.0</ele>
        <time>2018-09-16T11:55:29Z</time>
      </trkpt>
      <trkpt lat="39.3255120" lon="-0.6693450">
        <ele>210.0</ele>
        <time>2018-09-16T11:55:30Z</time>
      </trkpt>
      <trkpt lat="39.3255630" lon="-0.6694400">
        <ele>210.0</ele>
        <time>2018-09-16T11:55:31Z</time>
      </trkpt>
      <trkpt lat="39.3255630" lon="-0.6694400">
        <ele>210.0</ele>
        <time>2018-09-16T11:55:32Z</time>
      </trkpt>
      <trkpt lat="39.3256100" lon="-0.6695370">
        <ele>210.0</ele>
        <time>2018-09-16T11:55:33Z</time>
      </trkpt>
      <trkpt lat="39.3256100" lon="-0.6695370">
        <ele>210.0</ele>
        <time>2018-09-16T11:55:34Z</time>
      </trkpt>
      <trkpt lat="39.3256600" lon="-0.6696350">
        <ele>210.0</ele>
        <time>2018-09-16T11:55:35Z</time>
      </trkpt>
      <trkpt lat="39.3256600" lon="-0.6696350">
        <ele>210.0</ele>
        <time>2018-09-16T11:55:36Z</time>
      </trkpt>
      <trkpt lat="39.3257080" lon="-0.6697330">
        <ele>210.0</ele>
        <time>2018-09-16T11:55:37Z</time>
      </trkpt>
      <trkpt lat="39.3257080" lon="-0.6697330">
        <ele>210.0</ele>
        <time>2018-09-16T11:55:38Z</time>
      </trkpt>
      <trkpt lat="39.3257520" lon="-0.6698370">
        <ele>210.0</ele>
        <time>2018-09-16T11:55:39Z</time>
      </trkpt>
      <trkpt lat="39.3257720" lon="-0.6698880">
        <ele>210.0</ele>
        <time>2018-09-16T11:55:40Z</time>
      </trkpt>
      <trkpt lat="39.3257720" lon="-0.6698880">
        <ele>210.0</ele>
        <time>2018-09-16T11:55:41Z</time>
      </trkpt>
      <trkpt lat="39.3258070" lon="-0.6699950">
        <ele>210.0</ele>
        <time>2018-09-16T11:55:42Z</time>
      </trkpt>
      <trkpt lat="39.3258200" lon="-0.6700500">
        <ele>210.0</ele>
        <time>2018-09-16T11:55:43Z</time>
      </trkpt>
      <trkpt lat="39.3258320" lon="-0.6701070">
        <ele>210.0</ele>
        <time>2018-09-16T11:55:44Z</time>
      </trkpt>
      <trkpt lat="39.3258320" lon="-0.6701070">
        <ele>210.0</ele>
        <time>2018-09-16T11:55:45Z</time>
      </trkpt>
      <trkpt lat="39.3258530" lon="-0.6702230">
        <ele>210.0</ele>
        <time>2018-09-16T11:55:46Z</time>
      </trkpt>
      <trkpt lat="39.3258530" lon="-0.6702230">
        <ele>210.0</ele>
        <time>2018-09-16T11:55:47Z</time>
      </trkpt>
      <trkpt lat="39.3258770" lon="-0.6703400">
        <ele>210.0</ele>
        <time>2018-09-16T11:55:48Z</time>
      </trkpt>
      <trkpt lat="39.3258880" lon="-0.6703980">
        <ele>210.0</ele>
        <time>2018-09-16T11:55:49Z</time>
      </trkpt>
      <trkpt lat="39.3258880" lon="-0.6703980">
        <ele>210.0</ele>
        <time>2018-09-16T11:55:50Z</time>
      </trkpt>
      <trkpt lat="39.3259130" lon="-0.6705180">
        <ele>210.0</ele>
        <time>2018-09-16T11:55:51Z</time>
      </trkpt>
      <trkpt lat="39.3259130" lon="-0.6705180">
        <ele>210.0</ele>
        <time>2018-09-16T11:55:52Z</time>
      </trkpt>
      <trkpt lat="39.3259370" lon="-0.6706380">
        <ele>210.0</ele>
        <time>2018-09-16T11:55:53Z</time>
      </trkpt>
      <trkpt lat="39.3259480" lon="-0.6706970">
        <ele>210.0</ele>
        <time>2018-09-16T11:55:54Z</time>
      </trkpt>
      <trkpt lat="39.3259620" lon="-0.6707570">
        <ele>210.0</ele>
        <time>2018-09-16T11:55:55Z</time>
      </trkpt>
      <trkpt lat="39.3259620" lon="-0.6707570">
        <ele>210.0</ele>
        <time>2018-09-16T11:55:56Z</time>
      </trkpt>
      <trkpt lat="39.3259850" lon="-0.6708780">
        <ele>210.0</ele>
        <time>2018-09-16T11:55:57Z</time>
      </trkpt>
      <trkpt lat="39.3259920" lon="-0.6709380">
        <ele>210.0</ele>
        <time>2018-09-16T11:55:58Z</time>
      </trkpt>
      <trkpt lat="39.3259920" lon="-0.6709380">
        <ele>210.0</ele>
        <time>2018-09-16T11:55:59Z</time>
      </trkpt>
      <trkpt lat="39.3260000" lon="-0.6710630">
        <ele>210.0</ele>
        <time>2018-09-16T11:56:00Z</time>
      </trkpt>
      <trkpt lat="39.3260050" lon="-0.6711200">
        <ele>210.0</ele>
        <time>2018-09-16T11:56:01Z</time>
      </trkpt>
      <trkpt lat="39.3260050" lon="-0.6711200">
        <ele>210.0</ele>
        <time>2018-09-16T11:56:02Z</time>
      </trkpt>
      <trkpt lat="39.3260100" lon="-0.6712380">
        <ele>211.0</ele>
        <time>2018-09-16T11:56:03Z</time>
      </trkpt>
      <trkpt lat="39.3260100" lon="-0.6712380">
        <ele>211.0</ele>
        <time>2018-09-16T11:56:04Z</time>
      </trkpt>
      <trkpt lat="39.3260170" lon="-0.6713550">
        <ele>211.0</ele>
        <time>2018-09-16T11:56:05Z</time>
      </trkpt>
      <trkpt lat="39.3260170" lon="-0.6713550">
        <ele>211.0</ele>
        <time>2018-09-16T11:56:06Z</time>
      </trkpt>
      <trkpt lat="39.3260250" lon="-0.6714770">
        <ele>211.0</ele>
        <time>2018-09-16T11:56:07Z</time>
      </trkpt>
      <trkpt lat="39.3260250" lon="-0.6714770">
        <ele>211.0</ele>
        <time>2018-09-16T11:56:08Z</time>
      </trkpt>
      <trkpt lat="39.3260320" lon="-0.6715950">
        <ele>211.0</ele>
        <time>2018-09-16T11:56:09Z</time>
      </trkpt>
      <trkpt lat="39.3260320" lon="-0.6715950">
        <ele>211.0</ele>
        <time>2018-09-16T11:56:10Z</time>
      </trkpt>
      <trkpt lat="39.3260380" lon="-0.6717150">
        <ele>211.0</ele>
        <time>2018-09-16T11:56:11Z</time>
      </trkpt>
      <trkpt lat="39.3260380" lon="-0.6717150">
        <ele>211.0</ele>
        <time>2018-09-16T11:56:12Z</time>
      </trkpt>
      <trkpt lat="39.3260450" lon="-0.6718350">
        <ele>211.0</ele>
        <time>2018-09-16T11:56:13Z</time>
      </trkpt>
      <trkpt lat="39.3260450" lon="-0.6718350">
        <ele>211.0</ele>
        <time>2018-09-16T11:56:14Z</time>
      </trkpt>
      <trkpt lat="39.3260480" lon="-0.6719530">
        <ele>212.0</ele>
        <time>2018-09-16T11:56:15Z</time>
      </trkpt>
      <trkpt lat="39.3260480" lon="-0.6719530">
        <ele>212.0</ele>
        <time>2018-09-16T11:56:16Z</time>
      </trkpt>
      <trkpt lat="39.3260530" lon="-0.6720720">
        <ele>212.0</ele>
        <time>2018-09-16T11:56:17Z</time>
      </trkpt>
      <trkpt lat="39.3260530" lon="-0.6720720">
        <ele>212.0</ele>
        <time>2018-09-16T11:56:18Z</time>
      </trkpt>
      <trkpt lat="39.3260550" lon="-0.6721930">
        <ele>212.0</ele>
        <time>2018-09-16T11:56:19Z</time>
      </trkpt>
      <trkpt lat="39.3260550" lon="-0.6721930">
        <ele>212.0</ele>
        <time>2018-09-16T11:56:20Z</time>
      </trkpt>
      <trkpt lat="39.3260650" lon="-0.6723150">
        <ele>212.0</ele>
        <time>2018-09-16T11:56:21Z</time>
      </trkpt>
      <trkpt lat="39.3260650" lon="-0.6723150">
        <ele>212.0</ele>
        <time>2018-09-16T11:56:22Z</time>
      </trkpt>
      <trkpt lat="39.3260780" lon="-0.6724370">
        <ele>212.0</ele>
        <time>2018-09-16T11:56:23Z</time>
      </trkpt>
      <trkpt lat="39.3260780" lon="-0.6724370">
        <ele>212.0</ele>
        <time>2018-09-16T11:56:24Z</time>
      </trkpt>
      <trkpt lat="39.3260970" lon="-0.6725580">
        <ele>212.0</ele>
        <time>2018-09-16T11:56:25Z</time>
      </trkpt>
      <trkpt lat="39.3260970" lon="-0.6725580">
        <ele>212.0</ele>
        <time>2018-09-16T11:56:26Z</time>
      </trkpt>
      <trkpt lat="39.3261170" lon="-0.6726800">
        <ele>212.0</ele>
        <time>2018-09-16T11:56:27Z</time>
      </trkpt>
      <trkpt lat="39.3261250" lon="-0.6727420">
        <ele>212.0</ele>
        <time>2018-09-16T11:56:28Z</time>
      </trkpt>
      <trkpt lat="39.3261250" lon="-0.6727420">
        <ele>212.0</ele>
        <time>2018-09-16T11:56:29Z</time>
      </trkpt>
      <trkpt lat="39.3261430" lon="-0.6728670">
        <ele>212.0</ele>
        <time>2018-09-16T11:56:30Z</time>
      </trkpt>
      <trkpt lat="39.3261530" lon="-0.6729270">
        <ele>212.0</ele>
        <time>2018-09-16T11:56:31Z</time>
      </trkpt>
      <trkpt lat="39.3261530" lon="-0.6729270">
        <ele>212.0</ele>
        <time>2018-09-16T11:56:32Z</time>
      </trkpt>
      <trkpt lat="39.3261730" lon="-0.6730500">
        <ele>212.0</ele>
        <time>2018-09-16T11:56:33Z</time>
      </trkpt>
      <trkpt lat="39.3261730" lon="-0.6730500">
        <ele>213.0</ele>
        <time>2018-09-16T11:56:34Z</time>
      </trkpt>
      <trkpt lat="39.3261920" lon="-0.6731720">
        <ele>213.0</ele>
        <time>2018-09-16T11:56:35Z</time>
      </trkpt>
      <trkpt lat="39.3261920" lon="-0.6731720">
        <ele>213.0</ele>
        <time>2018-09-16T11:56:36Z</time>
      </trkpt>
      <trkpt lat="39.3262070" lon="-0.6732870">
        <ele>213.0</ele>
        <time>2018-09-16T11:56:37Z</time>
      </trkpt>
      <trkpt lat="39.3262070" lon="-0.6732870">
        <ele>213.0</ele>
        <time>2018-09-16T11:56:38Z</time>
      </trkpt>
      <trkpt lat="39.3262220" lon="-0.6734030">
        <ele>213.0</ele>
        <time>2018-09-16T11:56:39Z</time>
      </trkpt>
      <trkpt lat="39.3262220" lon="-0.6734030">
        <ele>213.0</ele>
        <time>2018-09-16T11:56:40Z</time>
      </trkpt>
      <trkpt lat="39.3262300" lon="-0.6735220">
        <ele>213.0</ele>
        <time>2018-09-16T11:56:41Z</time>
      </trkpt>
      <trkpt lat="39.3262300" lon="-0.6735820">
        <ele>213.0</ele>
        <time>2018-09-16T11:56:42Z</time>
      </trkpt>
      <trkpt lat="39.3262320" lon="-0.6736420">
        <ele>213.0</ele>
        <time>2018-09-16T11:56:43Z</time>
      </trkpt>
      <trkpt lat="39.3262320" lon="-0.6736420">
        <ele>213.0</ele>
        <time>2018-09-16T11:56:44Z</time>
      </trkpt>
      <trkpt lat="39.3262370" lon="-0.6737620">
        <ele>213.0</ele>
        <time>2018-09-16T11:56:45Z</time>
      </trkpt>
      <trkpt lat="39.3262380" lon="-0.6738200">
        <ele>213.0</ele>
        <time>2018-09-16T11:56:46Z</time>
      </trkpt>
      <trkpt lat="39.3262380" lon="-0.6738200">
        <ele>213.0</ele>
        <time>2018-09-16T11:56:47Z</time>
      </trkpt>
      <trkpt lat="39.3262400" lon="-0.6739380">
        <ele>214.0</ele>
        <time>2018-09-16T11:56:48Z</time>
      </trkpt>
      <trkpt lat="39.3262400" lon="-0.6739380">
        <ele>214.0</ele>
        <time>2018-09-16T11:56:49Z</time>
      </trkpt>
      <trkpt lat="39.3262430" lon="-0.6740570">
        <ele>214.0</ele>
        <time>2018-09-16T11:56:50Z</time>
      </trkpt>
      <trkpt lat="39.3262450" lon="-0.6741150">
        <ele>214.0</ele>
        <time>2018-09-16T11:56:51Z</time>
      </trkpt>
      <trkpt lat="39.3262450" lon="-0.6741150">
        <ele>214.0</ele>
        <time>2018-09-16T11:56:52Z</time>
      </trkpt>
      <trkpt lat="39.3262450" lon="-0.6742330">
        <ele>214.0</ele>
        <time>2018-09-16T11:56:53Z</time>
      </trkpt>
      <trkpt lat="39.3262450" lon="-0.6742930">
        <ele>214.0</ele>
        <time>2018-09-16T11:56:54Z</time>
      </trkpt>
      <trkpt lat="39.3262480" lon="-0.6743520">
        <ele>214.0</ele>
        <time>2018-09-16T11:56:55Z</time>
      </trkpt>
      <trkpt lat="39.3262480" lon="-0.6743520">
        <ele>214.0</ele>
        <time>2018-09-16T11:56:56Z</time>
      </trkpt>
      <trkpt lat="39.3262550" lon="-0.6744730">
        <ele>215.0</ele>
        <time>2018-09-16T11:56:57Z</time>
      </trkpt>
      <trkpt lat="39.3262550" lon="-0.6744730">
        <ele>215.0</ele>
        <time>2018-09-16T11:56:58Z</time>
      </trkpt>
      <trkpt lat="39.3262630" lon="-0.6745930">
        <ele>215.0</ele>
        <time>2018-09-16T11:56:59Z</time>
      </trkpt>
      <trkpt lat="39.3262680" lon="-0.6746570">
        <ele>215.0</ele>
        <time>2018-09-16T11:57:00Z</time>
      </trkpt>
      <trkpt lat="39.3262730" lon="-0.6747200">
        <ele>215.0</ele>
        <time>2018-09-16T11:57:01Z</time>
      </trkpt>
      <trkpt lat="39.3262730" lon="-0.6747200">
        <ele>215.0</ele>
        <time>2018-09-16T11:57:02Z</time>
      </trkpt>
      <trkpt lat="39.3262780" lon="-0.6748480">
        <ele>215.0</ele>
        <time>2018-09-16T11:57:03Z</time>
      </trkpt>
      <trkpt lat="39.3262780" lon="-0.6748480">
        <ele>215.0</ele>
        <time>2018-09-16T11:57:04Z</time>
      </trkpt>
      <trkpt lat="39.3262880" lon="-0.6749730">
        <ele>215.0</ele>
        <time>2018-09-16T11:57:05Z</time>
      </trkpt>
      <trkpt lat="39.3262920" lon="-0.6750370">
        <ele>215.0</ele>
        <time>2018-09-16T11:57:06Z</time>
      </trkpt>
      <trkpt lat="39.3262920" lon="-0.6750370">
        <ele>215.0</ele>
        <time>2018-09-16T11:57:07Z</time>
      </trkpt>
      <trkpt lat="39.3262970" lon="-0.6751650">
        <ele>216.0</ele>
        <time>2018-09-16T11:57:08Z</time>
      </trkpt>
      <trkpt lat="39.3262970" lon="-0.6751650">
        <ele>216.0</ele>
        <time>2018-09-16T11:57:09Z</time>
      </trkpt>
      <trkpt lat="39.3263070" lon="-0.6752920">
        <ele>216.0</ele>
        <time>2018-09-16T11:57:10Z</time>
      </trkpt>
      <trkpt lat="39.3263120" lon="-0.6753550">
        <ele>216.0</ele>
        <time>2018-09-16T11:57:11Z</time>
      </trkpt>
      <trkpt lat="39.3263120" lon="-0.6753550">
        <ele>216.0</ele>
        <time>2018-09-16T11:57:12Z</time>
      </trkpt>
      <trkpt lat="39.3263220" lon="-0.6754820">
        <ele>216.0</ele>
        <time>2018-09-16T11:57:13Z</time>
      </trkpt>
      <trkpt lat="39.3263270" lon="-0.6755450">
        <ele>216.0</ele>
        <time>2018-09-16T11:57:14Z</time>
      </trkpt>
      <trkpt lat="39.3263270" lon="-0.6755450">
        <ele>216.0</ele>
        <time>2018-09-16T11:57:15Z</time>
      </trkpt>
      <trkpt lat="39.3263330" lon="-0.6756720">
        <ele>216.0</ele>
        <time>2018-09-16T11:57:16Z</time>
      </trkpt>
      <trkpt lat="39.3263330" lon="-0.6756720">
        <ele>216.0</ele>
        <time>2018-09-16T11:57:17Z</time>
      </trkpt>
      <trkpt lat="39.3263430" lon="-0.6757970">
        <ele>217.0</ele>
        <time>2018-09-16T11:57:18Z</time>
      </trkpt>
      <trkpt lat="39.3263470" lon="-0.6758600">
        <ele>217.0</ele>
        <time>2018-09-16T11:57:19Z</time>
      </trkpt>
      <trkpt lat="39.3263470" lon="-0.6758600">
        <ele>217.0</ele>
        <time>2018-09-16T11:57:20Z</time>
      </trkpt>
      <trkpt lat="39.3263520" lon="-0.6759870">
        <ele>217.0</ele>
        <time>2018-09-16T11:57:21Z</time>
      </trkpt>
      <trkpt lat="39.3263520" lon="-0.6759870">
        <ele>217.0</ele>
        <time>2018-09-16T11:57:22Z</time>
      </trkpt>
      <trkpt lat="39.3263580" lon="-0.6761120">
        <ele>217.0</ele>
        <time>2018-09-16T11:57:23Z</time>
      </trkpt>
      <trkpt lat="39.3263580" lon="-0.6761120">
        <ele>217.0</ele>
        <time>2018-09-16T11:57:24Z</time>
      </trkpt>
      <trkpt lat="39.3263670" lon="-0.6762350">
        <ele>217.0</ele>
        <time>2018-09-16T11:57:25Z</time>
      </trkpt>
      <trkpt lat="39.3263670" lon="-0.6762350">
        <ele>217.0</ele>
        <time>2018-09-16T11:57:26Z</time>
      </trkpt>
      <trkpt lat="39.3263750" lon="-0.6763570">
        <ele>217.0</ele>
        <time>2018-09-16T11:57:27Z</time>
      </trkpt>
      <trkpt lat="39.3263750" lon="-0.6763570">
        <ele>217.0</ele>
        <time>2018-09-16T11:57:28Z</time>
      </trkpt>
      <trkpt lat="39.3263820" lon="-0.6764750">
        <ele>217.0</ele>
        <time>2018-09-16T11:57:29Z</time>
      </trkpt>
      <trkpt lat="39.3263820" lon="-0.6764750">
        <ele>217.0</ele>
        <time>2018-09-16T11:57:30Z</time>
      </trkpt>
      <trkpt lat="39.3263920" lon="-0.6765950">
        <ele>217.0</ele>
        <time>2018-09-16T11:57:31Z</time>
      </trkpt>
      <trkpt lat="39.3263920" lon="-0.6765950">
        <ele>217.0</ele>
        <time>2018-09-16T11:57:32Z</time>
      </trkpt>
      <trkpt lat="39.3264000" lon="-0.6767180">
        <ele>217.0</ele>
        <time>2018-09-16T11:57:33Z</time>
      </trkpt>
      <trkpt lat="39.3264000" lon="-0.6767180">
        <ele>217.0</ele>
        <time>2018-09-16T11:57:34Z</time>
      </trkpt>
      <trkpt lat="39.3264080" lon="-0.6768380">
        <ele>217.0</ele>
        <time>2018-09-16T11:57:35Z</time>
      </trkpt>
      <trkpt lat="39.3264080" lon="-0.6768380">
        <ele>217.0</ele>
        <time>2018-09-16T11:57:36Z</time>
      </trkpt>
      <trkpt lat="39.3264150" lon="-0.6769620">
        <ele>217.0</ele>
        <time>2018-09-16T11:57:37Z</time>
      </trkpt>
      <trkpt lat="39.3264150" lon="-0.6769620">
        <ele>217.0</ele>
        <time>2018-09-16T11:57:38Z</time>
      </trkpt>
      <trkpt lat="39.3264230" lon="-0.6770830">
        <ele>217.0</ele>
        <time>2018-09-16T11:57:39Z</time>
      </trkpt>
      <trkpt lat="39.3264230" lon="-0.6770830">
        <ele>217.0</ele>
        <time>2018-09-16T11:57:40Z</time>
      </trkpt>
      <trkpt lat="39.3264300" lon="-0.6772080">
        <ele>217.0</ele>
        <time>2018-09-16T11:57:41Z</time>
      </trkpt>
      <trkpt lat="39.3264300" lon="-0.6772080">
        <ele>217.0</ele>
        <time>2018-09-16T11:57:42Z</time>
      </trkpt>
      <trkpt lat="39.3264370" lon="-0.6773370">
        <ele>217.0</ele>
        <time>2018-09-16T11:57:43Z</time>
      </trkpt>
      <trkpt lat="39.3264370" lon="-0.6773370">
        <ele>218.0</ele>
        <time>2018-09-16T11:57:44Z</time>
      </trkpt>
      <trkpt lat="39.3264450" lon="-0.6774680">
        <ele>218.0</ele>
        <time>2018-09-16T11:57:45Z</time>
      </trkpt>
      <trkpt lat="39.3264480" lon="-0.6775330">
        <ele>218.0</ele>
        <time>2018-09-16T11:57:46Z</time>
      </trkpt>
      <trkpt lat="39.3264480" lon="-0.6775330">
        <ele>218.0</ele>
        <time>2018-09-16T11:57:47Z</time>
      </trkpt>
      <trkpt lat="39.3264580" lon="-0.6776620">
        <ele>218.0</ele>
        <time>2018-09-16T11:57:48Z</time>
      </trkpt>
      <trkpt lat="39.3264620" lon="-0.6777250">
        <ele>218.0</ele>
        <time>2018-09-16T11:57:49Z</time>
      </trkpt>
      <trkpt lat="39.3264620" lon="-0.6777250">
        <ele>218.0</ele>
        <time>2018-09-16T11:57:50Z</time>
      </trkpt>
      <trkpt lat="39.3264680" lon="-0.6778530">
        <ele>218.0</ele>
        <time>2018-09-16T11:57:51Z</time>
      </trkpt>
      <trkpt lat="39.3264680" lon="-0.6778530">
        <ele>218.0</ele>
        <time>2018-09-16T11:57:52Z</time>
      </trkpt>
      <trkpt lat="39.3264770" lon="-0.6779780">
        <ele>218.0</ele>
        <time>2018-09-16T11:57:53Z</time>
      </trkpt>
      <trkpt lat="39.3264770" lon="-0.6779780">
        <ele>218.0</ele>
        <time>2018-09-16T11:57:54Z</time>
      </trkpt>
      <trkpt lat="39.3264830" lon="-0.6781050">
        <ele>218.0</ele>
        <time>2018-09-16T11:57:55Z</time>
      </trkpt>
      <trkpt lat="39.3264830" lon="-0.6781050">
        <ele>219.0</ele>
        <time>2018-09-16T11:57:56Z</time>
      </trkpt>
      <trkpt lat="39.3264900" lon="-0.6782300">
        <ele>219.0</ele>
        <time>2018-09-16T11:57:57Z</time>
      </trkpt>
      <trkpt lat="39.3264900" lon="-0.6782300">
        <ele>219.0</ele>
        <time>2018-09-16T11:57:58Z</time>
      </trkpt>
      <trkpt lat="39.3264970" lon="-0.6783520">
        <ele>219.0</ele>
        <time>2018-09-16T11:57:59Z</time>
      </trkpt>
      <trkpt lat="39.3265000" lon="-0.6784120">
        <ele>219.0</ele>
        <time>2018-09-16T11:58:00Z</time>
      </trkpt>
      <trkpt lat="39.3265030" lon="-0.6784700">
        <ele>219.0</ele>
        <time>2018-09-16T11:58:01Z</time>
      </trkpt>
      <trkpt lat="39.3265030" lon="-0.6784700">
        <ele>220.0</ele>
        <time>2018-09-16T11:58:02Z</time>
      </trkpt>
      <trkpt lat="39.3265130" lon="-0.6785870">
        <ele>220.0</ele>
        <time>2018-09-16T11:58:03Z</time>
      </trkpt>
      <trkpt lat="39.3265130" lon="-0.6785870">
        <ele>220.0</ele>
        <time>2018-09-16T11:58:04Z</time>
      </trkpt>
      <trkpt lat="39.3265320" lon="-0.6786980">
        <ele>220.0</ele>
        <time>2018-09-16T11:58:05Z</time>
      </trkpt>
      <trkpt lat="39.3265320" lon="-0.6786980">
        <ele>220.0</ele>
        <time>2018-09-16T11:58:06Z</time>
      </trkpt>
      <trkpt lat="39.3265580" lon="-0.6788020">
        <ele>220.0</ele>
        <time>2018-09-16T11:58:07Z</time>
      </trkpt>
      <trkpt lat="39.3265580" lon="-0.6788020">
        <ele>221.0</ele>
        <time>2018-09-16T11:58:08Z</time>
      </trkpt>
      <trkpt lat="39.3265880" lon="-0.6788950">
        <ele>221.0</ele>
        <time>2018-09-16T11:58:09Z</time>
      </trkpt>
      <trkpt lat="39.3265880" lon="-0.6788950">
        <ele>221.0</ele>
        <time>2018-09-16T11:58:10Z</time>
      </trkpt>
      <trkpt lat="39.3266200" lon="-0.6789820">
        <ele>222.0</ele>
        <time>2018-09-16T11:58:11Z</time>
      </trkpt>
      <trkpt lat="39.3266200" lon="-0.6789820">
        <ele>222.0</ele>
        <time>2018-09-16T11:58:12Z</time>
      </trkpt>
      <trkpt lat="39.3266570" lon="-0.6790680">
        <ele>222.0</ele>
        <time>2018-09-16T11:58:13Z</time>
      </trkpt>
      <trkpt lat="39.3266750" lon="-0.6791120">
        <ele>222.0</ele>
        <time>2018-09-16T11:58:14Z</time>
      </trkpt>
      <trkpt lat="39.3266750" lon="-0.6791120">
        <ele>222.0</ele>
        <time>2018-09-16T11:58:15Z</time>
      </trkpt>
      <trkpt lat="39.3267100" lon="-0.6791970">
        <ele>222.0</ele>
        <time>2018-09-16T11:58:16Z</time>
      </trkpt>
      <trkpt lat="39.3267100" lon="-0.6791970">
        <ele>223.0</ele>
        <time>2018-09-16T11:58:17Z</time>
      </trkpt>
      <trkpt lat="39.3267450" lon="-0.6792830">
        <ele>223.0</ele>
        <time>2018-09-16T11:58:18Z</time>
      </trkpt>
      <trkpt lat="39.3267630" lon="-0.6793270">
        <ele>223.0</ele>
        <time>2018-09-16T11:58:19Z</time>
      </trkpt>
      <trkpt lat="39.3267630" lon="-0.6793270">
        <ele>223.0</ele>
        <time>2018-09-16T11:58:20Z</time>
      </trkpt>
      <trkpt lat="39.3268020" lon="-0.6794080">
        <ele>224.0</ele>
        <time>2018-09-16T11:58:21Z</time>
      </trkpt>
      <trkpt lat="39.3268020" lon="-0.6794080">
        <ele>224.0</ele>
        <time>2018-09-16T11:58:22Z</time>
      </trkpt>
      <trkpt lat="39.3268470" lon="-0.6794830">
        <ele>224.0</ele>
        <time>2018-09-16T11:58:23Z</time>
      </trkpt>
      <trkpt lat="39.3268730" lon="-0.6795150">
        <ele>224.0</ele>
        <time>2018-09-16T11:58:24Z</time>
      </trkpt>
      <trkpt lat="39.3269030" lon="-0.6795450">
        <ele>224.0</ele>
        <time>2018-09-16T11:58:25Z</time>
      </trkpt>
      <trkpt lat="39.3269030" lon="-0.6795450">
        <ele>224.0</ele>
        <time>2018-09-16T11:58:26Z</time>
      </trkpt>
      <trkpt lat="39.3269730" lon="-0.6795870">
        <ele>225.0</ele>
        <time>2018-09-16T11:58:27Z</time>
      </trkpt>
      <trkpt lat="39.3270100" lon="-0.6795980">
        <ele>225.0</ele>
        <time>2018-09-16T11:58:28Z</time>
      </trkpt>
      <trkpt lat="39.3270470" lon="-0.6796070">
        <ele>225.0</ele>
        <time>2018-09-16T11:58:29Z</time>
      </trkpt>
      <trkpt lat="39.3270470" lon="-0.6796070">
        <ele>225.0</ele>
        <time>2018-09-16T11:58:30Z</time>
      </trkpt>
      <trkpt lat="39.3271220" lon="-0.6796180">
        <ele>226.0</ele>
        <time>2018-09-16T11:58:31Z</time>
      </trkpt>
      <trkpt lat="39.3271220" lon="-0.6796180">
        <ele>226.0</ele>
        <time>2018-09-16T11:58:32Z</time>
      </trkpt>
      <trkpt lat="39.3271980" lon="-0.6796330">
        <ele>226.0</ele>
        <time>2018-09-16T11:58:33Z</time>
      </trkpt>
      <trkpt lat="39.3272370" lon="-0.6796400">
        <ele>226.0</ele>
        <time>2018-09-16T11:58:34Z</time>
      </trkpt>
      <trkpt lat="39.3272370" lon="-0.6796400">
        <ele>227.0</ele>
        <time>2018-09-16T11:58:35Z</time>
      </trkpt>
      <trkpt lat="39.3273150" lon="-0.6796530">
        <ele>227.0</ele>
        <time>2018-09-16T11:58:36Z</time>
      </trkpt>
      <trkpt lat="39.3273530" lon="-0.6796600">
        <ele>227.0</ele>
        <time>2018-09-16T11:58:37Z</time>
      </trkpt>
      <trkpt lat="39.3273530" lon="-0.6796600">
        <ele>228.0</ele>
        <time>2018-09-16T11:58:38Z</time>
      </trkpt>
      <trkpt lat="39.3274300" lon="-0.6796720">
        <ele>228.0</ele>
        <time>2018-09-16T11:58:39Z</time>
      </trkpt>
      <trkpt lat="39.3274300" lon="-0.6796720">
        <ele>228.0</ele>
        <time>2018-09-16T11:58:40Z</time>
      </trkpt>
      <trkpt lat="39.3275070" lon="-0.6796830">
        <ele>228.0</ele>
        <time>2018-09-16T11:58:41Z</time>
      </trkpt>
      <trkpt lat="39.3275450" lon="-0.6796900">
        <ele>228.0</ele>
        <time>2018-09-16T11:58:42Z</time>
      </trkpt>
      <trkpt lat="39.3275450" lon="-0.6796900">
        <ele>228.0</ele>
        <time>2018-09-16T11:58:43Z</time>
      </trkpt>
      <trkpt lat="39.3276200" lon="-0.6797030">
        <ele>228.0</ele>
        <time>2018-09-16T11:58:44Z</time>
      </trkpt>
      <trkpt lat="39.3276200" lon="-0.6797030">
        <ele>228.0</ele>
        <time>2018-09-16T11:58:45Z</time>
      </trkpt>
      <trkpt lat="39.3276970" lon="-0.6797170">
        <ele>228.0</ele>
        <time>2018-09-16T11:58:46Z</time>
      </trkpt>
      <trkpt lat="39.3276970" lon="-0.6797170">
        <ele>228.0</ele>
        <time>2018-09-16T11:58:47Z</time>
      </trkpt>
      <trkpt lat="39.3277730" lon="-0.6797320">
        <ele>228.0</ele>
        <time>2018-09-16T11:58:48Z</time>
      </trkpt>
      <trkpt lat="39.3277730" lon="-0.6797320">
        <ele>228.0</ele>
        <time>2018-09-16T11:58:49Z</time>
      </trkpt>
      <trkpt lat="39.3278500" lon="-0.6797450">
        <ele>228.0</ele>
        <time>2018-09-16T11:58:50Z</time>
      </trkpt>
      <trkpt lat="39.3278500" lon="-0.6797450">
        <ele>228.0</ele>
        <time>2018-09-16T11:58:51Z</time>
      </trkpt>
      <trkpt lat="39.3279270" lon="-0.6797580">
        <ele>229.0</ele>
        <time>2018-09-16T11:58:52Z</time>
      </trkpt>
      <trkpt lat="39.3279270" lon="-0.6797580">
        <ele>229.0</ele>
        <time>2018-09-16T11:58:53Z</time>
      </trkpt>
      <trkpt lat="39.3280050" lon="-0.6797700">
        <ele>229.0</ele>
        <time>2018-09-16T11:58:54Z</time>
      </trkpt>
      <trkpt lat="39.3280430" lon="-0.6797780">
        <ele>229.0</ele>
        <time>2018-09-16T11:58:55Z</time>
      </trkpt>
      <trkpt lat="39.3280430" lon="-0.6797780">
        <ele>229.0</ele>
        <time>2018-09-16T11:58:56Z</time>
      </trkpt>
      <trkpt lat="39.3281270" lon="-0.6797950">
        <ele>229.0</ele>
        <time>2018-09-16T11:58:57Z</time>
      </trkpt>
      <trkpt lat="39.3281270" lon="-0.6797950">
        <ele>229.0</ele>
        <time>2018-09-16T11:58:58Z</time>
      </trkpt>
      <trkpt lat="39.3282130" lon="-0.6798080">
        <ele>229.0</ele>
        <time>2018-09-16T11:58:59Z</time>
      </trkpt>
      <trkpt lat="39.3282130" lon="-0.6798080">
        <ele>229.0</ele>
        <time>2018-09-16T11:59:00Z</time>
      </trkpt>
      <trkpt lat="39.3283030" lon="-0.6798250">
        <ele>229.0</ele>
        <time>2018-09-16T11:59:01Z</time>
      </trkpt>
      <trkpt lat="39.3283030" lon="-0.6798250">
        <ele>230.0</ele>
        <time>2018-09-16T11:59:02Z</time>
      </trkpt>
      <trkpt lat="39.3283970" lon="-0.6798400">
        <ele>230.0</ele>
        <time>2018-09-16T11:59:03Z</time>
      </trkpt>
      <trkpt lat="39.3283970" lon="-0.6798400">
        <ele>230.0</ele>
        <time>2018-09-16T11:59:04Z</time>
      </trkpt>
      <trkpt lat="39.3284870" lon="-0.6798600">
        <ele>230.0</ele>
        <time>2018-09-16T11:59:05Z</time>
      </trkpt>
      <trkpt lat="39.3284870" lon="-0.6798600">
        <ele>230.0</ele>
        <time>2018-09-16T11:59:06Z</time>
      </trkpt>
      <trkpt lat="39.3285780" lon="-0.6798730">
        <ele>230.0</ele>
        <time>2018-09-16T11:59:07Z</time>
      </trkpt>
      <trkpt lat="39.3285780" lon="-0.6798730">
        <ele>231.0</ele>
        <time>2018-09-16T11:59:08Z</time>
      </trkpt>
      <trkpt lat="39.3286700" lon="-0.6798850">
        <ele>231.0</ele>
        <time>2018-09-16T11:59:09Z</time>
      </trkpt>
      <trkpt lat="39.3286700" lon="-0.6798850">
        <ele>231.0</ele>
        <time>2018-09-16T11:59:10Z</time>
      </trkpt>
      <trkpt lat="39.3287630" lon="-0.6799020">
        <ele>231.0</ele>
        <time>2018-09-16T11:59:11Z</time>
      </trkpt>
      <trkpt lat="39.3287630" lon="-0.6799020">
        <ele>231.0</ele>
        <time>2018-09-16T11:59:12Z</time>
      </trkpt>
      <trkpt lat="39.3288580" lon="-0.6799200">
        <ele>231.0</ele>
        <time>2018-09-16T11:59:13Z</time>
      </trkpt>
      <trkpt lat="39.3288580" lon="-0.6799200">
        <ele>231.0</ele>
        <time>2018-09-16T11:59:14Z</time>
      </trkpt>
      <trkpt lat="39.3289550" lon="-0.6799430">
        <ele>231.0</ele>
        <time>2018-09-16T11:59:15Z</time>
      </trkpt>
      <trkpt lat="39.3290050" lon="-0.6799550">
        <ele>231.0</ele>
        <time>2018-09-16T11:59:16Z</time>
      </trkpt>
      <trkpt lat="39.3290050" lon="-0.6799550">
        <ele>231.0</ele>
        <time>2018-09-16T11:59:17Z</time>
      </trkpt>
      <trkpt lat="39.3291080" lon="-0.6799730">
        <ele>231.0</ele>
        <time>2018-09-16T11:59:18Z</time>
      </trkpt>
      <trkpt lat="39.3291080" lon="-0.6799730">
        <ele>232.0</ele>
        <time>2018-09-16T11:59:19Z</time>
      </trkpt>
      <trkpt lat="39.3292120" lon="-0.6799970">
        <ele>232.0</ele>
        <time>2018-09-16T11:59:20Z</time>
      </trkpt>
      <trkpt lat="39.3292120" lon="-0.6799970">
        <ele>232.0</ele>
        <time>2018-09-16T11:59:21Z</time>
      </trkpt>
      <trkpt lat="39.3293100" lon="-0.6800420">
        <ele>232.0</ele>
        <time>2018-09-16T11:59:22Z</time>
      </trkpt>
      <trkpt lat="39.3293100" lon="-0.6800420">
        <ele>232.0</ele>
        <time>2018-09-16T11:59:23Z</time>
      </trkpt>
      <trkpt lat="39.3294050" lon="-0.6801100">
        <ele>232.0</ele>
        <time>2018-09-16T11:59:24Z</time>
      </trkpt>
      <trkpt lat="39.3294520" lon="-0.6801480">
        <ele>232.0</ele>
        <time>2018-09-16T11:59:25Z</time>
      </trkpt>
      <trkpt lat="39.3294520" lon="-0.6801480">
        <ele>232.0</ele>
        <time>2018-09-16T11:59:26Z</time>
      </trkpt>
      <trkpt lat="39.3295420" lon="-0.6802270">
        <ele>232.0</ele>
        <time>2018-09-16T11:59:27Z</time>
      </trkpt>
      <trkpt lat="39.3295420" lon="-0.6802270">
        <ele>233.0</ele>
        <time>2018-09-16T11:59:28Z</time>
      </trkpt>
      <trkpt lat="39.3296270" lon="-0.6803030">
        <ele>233.0</ele>
        <time>2018-09-16T11:59:29Z</time>
      </trkpt>
      <trkpt lat="39.3296270" lon="-0.6803030">
        <ele>233.0</ele>
        <time>2018-09-16T11:59:30Z</time>
      </trkpt>
      <trkpt lat="39.3297100" lon="-0.6803870">
        <ele>233.0</ele>
        <time>2018-09-16T11:59:31Z</time>
      </trkpt>
      <trkpt lat="39.3297100" lon="-0.6803870">
        <ele>233.0</ele>
        <time>2018-09-16T11:59:32Z</time>
      </trkpt>
      <trkpt lat="39.3297930" lon="-0.6804650">
        <ele>233.0</ele>
        <time>2018-09-16T11:59:33Z</time>
      </trkpt>
      <trkpt lat="39.3298350" lon="-0.6805020">
        <ele>234.0</ele>
        <time>2018-09-16T11:59:34Z</time>
      </trkpt>
      <trkpt lat="39.3298730" lon="-0.6805370">
        <ele>234.0</ele>
        <time>2018-09-16T11:59:35Z</time>
      </trkpt>
      <trkpt lat="39.3298730" lon="-0.6805370">
        <ele>234.0</ele>
        <time>2018-09-16T11:59:36Z</time>
      </trkpt>
      <trkpt lat="39.3299500" lon="-0.6806070">
        <ele>234.0</ele>
        <time>2018-09-16T11:59:37Z</time>
      </trkpt>
      <trkpt lat="39.3299500" lon="-0.6806070">
        <ele>235.0</ele>
        <time>2018-09-16T11:59:38Z</time>
      </trkpt>
      <trkpt lat="39.3300250" lon="-0.6806730">
        <ele>235.0</ele>
        <time>2018-09-16T11:59:39Z</time>
      </trkpt>
      <trkpt lat="39.3300250" lon="-0.6806730">
        <ele>235.0</ele>
        <time>2018-09-16T11:59:40Z</time>
      </trkpt>
      <trkpt lat="39.3301030" lon="-0.6807400">
        <ele>235.0</ele>
        <time>2018-09-16T11:59:41Z</time>
      </trkpt>
      <trkpt lat="39.3301030" lon="-0.6807400">
        <ele>235.0</ele>
        <time>2018-09-16T11:59:42Z</time>
      </trkpt>
      <trkpt lat="39.3301820" lon="-0.6808120">
        <ele>235.0</ele>
        <time>2018-09-16T11:59:43Z</time>
      </trkpt>
      <trkpt lat="39.3301820" lon="-0.6808120">
        <ele>235.0</ele>
        <time>2018-09-16T11:59:44Z</time>
      </trkpt>
      <trkpt lat="39.3302570" lon="-0.6808820">
        <ele>235.0</ele>
        <time>2018-09-16T11:59:45Z</time>
      </trkpt>
      <trkpt lat="39.3302570" lon="-0.6808820">
        <ele>235.0</ele>
        <time>2018-09-16T11:59:46Z</time>
      </trkpt>
      <trkpt lat="39.3303350" lon="-0.6809480">
        <ele>235.0</ele>
        <time>2018-09-16T11:59:47Z</time>
      </trkpt>
      <trkpt lat="39.3303350" lon="-0.6809480">
        <ele>236.0</ele>
        <time>2018-09-16T11:59:48Z</time>
      </trkpt>
      <trkpt lat="39.3304080" lon="-0.6810170">
        <ele>236.0</ele>
        <time>2018-09-16T11:59:49Z</time>
      </trkpt>
      <trkpt lat="39.3304080" lon="-0.6810170">
        <ele>236.0</ele>
        <time>2018-09-16T11:59:50Z</time>
      </trkpt>
      <trkpt lat="39.3304770" lon="-0.6810800">
        <ele>236.0</ele>
        <time>2018-09-16T11:59:51Z</time>
      </trkpt>
      <trkpt lat="39.3304770" lon="-0.6810800">
        <ele>237.0</ele>
        <time>2018-09-16T11:59:52Z</time>
      </trkpt>
      <trkpt lat="39.3305470" lon="-0.6811380">
        <ele>237.0</ele>
        <time>2018-09-16T11:59:53Z</time>
      </trkpt>
      <trkpt lat="39.3305470" lon="-0.6811380">
        <ele>237.0</ele>
        <time>2018-09-16T11:59:54Z</time>
      </trkpt>
      <trkpt lat="39.3306120" lon="-0.6811950">
        <ele>238.0</ele>
        <time>2018-09-16T11:59:55Z</time>
      </trkpt>
      <trkpt lat="39.3306120" lon="-0.6811950">
        <ele>238.0</ele>
        <time>2018-09-16T11:59:56Z</time>
      </trkpt>
      <trkpt lat="39.3306800" lon="-0.6812550">
        <ele>238.0</ele>
        <time>2018-09-16T11:59:57Z</time>
      </trkpt>
      <trkpt lat="39.3306800" lon="-0.6812550">
        <ele>238.0</ele>
        <time>2018-09-16T11:59:58Z</time>
      </trkpt>
      <trkpt lat="39.3307500" lon="-0.6813170">
        <ele>238.0</ele>
        <time>2018-09-16T11:59:59Z</time>
      </trkpt>
      <trkpt lat="39.3307880" lon="-0.6813480">
        <ele>238.0</ele>
        <time>2018-09-16T12:00:00Z</time>
      </trkpt>
      <trkpt lat="39.3308250" lon="-0.6813820">
        <ele>239.0</ele>
        <time>2018-09-16T12:00:01Z</time>
      </trkpt>
      <trkpt lat="39.3308250" lon="-0.6813820">
        <ele>239.0</ele>
        <time>2018-09-16T12:00:02Z</time>
      </trkpt>
      <trkpt lat="39.3308980" lon="-0.6814480">
        <ele>239.0</ele>
        <time>2018-09-16T12:00:03Z</time>
      </trkpt>
      <trkpt lat="39.3309350" lon="-0.6814830">
        <ele>239.0</ele>
        <time>2018-09-16T12:00:04Z</time>
      </trkpt>
      <trkpt lat="39.3309350" lon="-0.6814830">
        <ele>239.0</ele>
        <time>2018-09-16T12:00:05Z</time>
      </trkpt>
      <trkpt lat="39.3310030" lon="-0.6815580">
        <ele>239.0</ele>
        <time>2018-09-16T12:00:06Z</time>
      </trkpt>
      <trkpt lat="39.3310350" lon="-0.6815980">
        <ele>240.0</ele>
        <time>2018-09-16T12:00:07Z</time>
      </trkpt>
      <trkpt lat="39.3310650" lon="-0.6816420">
        <ele>240.0</ele>
        <time>2018-09-16T12:00:08Z</time>
      </trkpt>
      <trkpt lat="39.3310650" lon="-0.6816420">
        <ele>240.0</ele>
        <time>2018-09-16T12:00:09Z</time>
      </trkpt>
      <trkpt lat="39.3311080" lon="-0.6817400">
        <ele>240.0</ele>
        <time>2018-09-16T12:00:10Z</time>
      </trkpt>
      <trkpt lat="39.3311250" lon="-0.6817930">
        <ele>240.0</ele>
        <time>2018-09-16T12:00:11Z</time>
      </trkpt>
      <trkpt lat="39.3311250" lon="-0.6817930">
        <ele>240.0</ele>
        <time>2018-09-16T12:00:12Z</time>
      </trkpt>
      <trkpt lat="39.3311550" lon="-0.6819070">
        <ele>240.0</ele>
        <time>2018-09-16T12:00:13Z</time>
      </trkpt>
      <trkpt lat="39.3311550" lon="-0.6819070">
        <ele>240.0</ele>
        <time>2018-09-16T12:00:14Z</time>
      </trkpt>
      <trkpt lat="39.3311750" lon="-0.6820270">
        <ele>240.0</ele>
        <time>2018-09-16T12:00:15Z</time>
      </trkpt>
      <trkpt lat="39.3311870" lon="-0.6820870">
        <ele>240.0</ele>
        <time>2018-09-16T12:00:16Z</time>
      </trkpt>
      <trkpt lat="39.3311870" lon="-0.6820870">
        <ele>240.0</ele>
        <time>2018-09-16T12:00:17Z</time>
      </trkpt>
      <trkpt lat="39.3312080" lon="-0.6822130">
        <ele>240.0</ele>
        <time>2018-09-16T12:00:18Z</time>
      </trkpt>
      <trkpt lat="39.3312200" lon="-0.6822770">
        <ele>240.0</ele>
        <time>2018-09-16T12:00:19Z</time>
      </trkpt>
      <trkpt lat="39.3312200" lon="-0.6822770">
        <ele>240.0</ele>
        <time>2018-09-16T12:00:20Z</time>
      </trkpt>
      <trkpt lat="39.3312450" lon="-0.6824050">
        <ele>240.0</ele>
        <time>2018-09-16T12:00:21Z</time>
      </trkpt>
      <trkpt lat="39.3312450" lon="-0.6824050">
        <ele>240.0</ele>
        <time>2018-09-16T12:00:22Z</time>
      </trkpt>
      <trkpt lat="39.3312680" lon="-0.6825320">
        <ele>240.0</ele>
        <time>2018-09-16T12:00:23Z</time>
      </trkpt>
      <trkpt lat="39.3312780" lon="-0.6825950">
        <ele>240.0</ele>
        <time>2018-09-16T12:00:24Z</time>
      </trkpt>
      <trkpt lat="39.3312880" lon="-0.6826570">
        <ele>240.0</ele>
        <time>2018-09-16T12:00:25Z</time>
      </trkpt>
      <trkpt lat="39.3312880" lon="-0.6826570">
        <ele>240.0</ele>
        <time>2018-09-16T12:00:26Z</time>
      </trkpt>
      <trkpt lat="39.3313100" lon="-0.6827820">
        <ele>240.0</ele>
        <time>2018-09-16T12:00:27Z</time>
      </trkpt>
      <trkpt lat="39.3313100" lon="-0.6827820">
        <ele>240.0</ele>
        <time>2018-09-16T12:00:28Z</time>
      </trkpt>
      <trkpt lat="39.3313330" lon="-0.6829070">
        <ele>240.0</ele>
        <time>2018-09-16T12:00:29Z</time>
      </trkpt>
      <trkpt lat="39.3313330" lon="-0.6829070">
        <ele>240.0</ele>
        <time>2018-09-16T12:00:30Z</time>
      </trkpt>
      <trkpt lat="39.3313550" lon="-0.6830320">
        <ele>240.0</ele>
        <time>2018-09-16T12:00:31Z</time>
      </trkpt>
      <trkpt lat="39.3313550" lon="-0.6830320">
        <ele>240.0</ele>
        <time>2018-09-16T12:00:32Z</time>
      </trkpt>
      <trkpt lat="39.3313750" lon="-0.6831570">
        <ele>240.0</ele>
        <time>2018-09-16T12:00:33Z</time>
      </trkpt>
      <trkpt lat="39.3313750" lon="-0.6831570">
        <ele>240.0</ele>
        <time>2018-09-16T12:00:34Z</time>
      </trkpt>
      <trkpt lat="39.3313970" lon="-0.6832800">
        <ele>240.0</ele>
        <time>2018-09-16T12:00:35Z</time>
      </trkpt>
      <trkpt lat="39.3314070" lon="-0.6833420">
        <ele>240.0</ele>
        <time>2018-09-16T12:00:36Z</time>
      </trkpt>
      <trkpt lat="39.3314070" lon="-0.6833420">
        <ele>240.0</ele>
        <time>2018-09-16T12:00:37Z</time>
      </trkpt>
      <trkpt lat="39.3314270" lon="-0.6834650">
        <ele>240.0</ele>
        <time>2018-09-16T12:00:38Z</time>
      </trkpt>
      <trkpt lat="39.3314270" lon="-0.6834650">
        <ele>240.0</ele>
        <time>2018-09-16T12:00:39Z</time>
      </trkpt>
      <trkpt lat="39.3314500" lon="-0.6835850">
        <ele>240.0</ele>
        <time>2018-09-16T12:00:40Z</time>
      </trkpt>
      <trkpt lat="39.3314620" lon="-0.6836470">
        <ele>240.0</ele>
        <time>2018-09-16T12:00:41Z</time>
      </trkpt>
      <trkpt lat="39.3314620" lon="-0.6836470">
        <ele>240.0</ele>
        <time>2018-09-16T12:00:42Z</time>
      </trkpt>
      <trkpt lat="39.3314850" lon="-0.6837680">
        <ele>240.0</ele>
        <time>2018-09-16T12:00:43Z</time>
      </trkpt>
      <trkpt lat="39.3314850" lon="-0.6837680">
        <ele>240.0</ele>
        <time>2018-09-16T12:00:44Z</time>
      </trkpt>
      <trkpt lat="39.3315180" lon="-0.6838880">
        <ele>240.0</ele>
        <time>2018-09-16T12:00:45Z</time>
      </trkpt>
      <trkpt lat="39.3315180" lon="-0.6838880">
        <ele>241.0</ele>
        <time>2018-09-16T12:00:46Z</time>
      </trkpt>
      <trkpt lat="39.3315650" lon="-0.6840000">
        <ele>241.0</ele>
        <time>2018-09-16T12:00:47Z</time>
      </trkpt>
      <trkpt lat="39.3315650" lon="-0.6840000">
        <ele>241.0</ele>
        <time>2018-09-16T12:00:48Z</time>
      </trkpt>
      <trkpt lat="39.3316170" lon="-0.6841120">
        <ele>241.0</ele>
        <time>2018-09-16T12:00:49Z</time>
      </trkpt>
      <trkpt lat="39.3316170" lon="-0.6841120">
        <ele>241.0</ele>
        <time>2018-09-16T12:00:50Z</time>
      </trkpt>
      <trkpt lat="39.3316700" lon="-0.6842230">
        <ele>241.0</ele>
        <time>2018-09-16T12:00:51Z</time>
      </trkpt>
      <trkpt lat="39.3316970" lon="-0.6842800">
        <ele>241.0</ele>
        <time>2018-09-16T12:00:52Z</time>
      </trkpt>
      <trkpt lat="39.3316970" lon="-0.6842800">
        <ele>241.0</ele>
        <time>2018-09-16T12:00:53Z</time>
      </trkpt>
      <trkpt lat="39.3317450" lon="-0.6843930">
        <ele>241.0</ele>
        <time>2018-09-16T12:00:54Z</time>
      </trkpt>
      <trkpt lat="39.3317670" lon="-0.6844530">
        <ele>241.0</ele>
        <time>2018-09-16T12:00:55Z</time>
      </trkpt>
      <trkpt lat="39.3317670" lon="-0.6844530">
        <ele>241.0</ele>
        <time>2018-09-16T12:00:56Z</time>
      </trkpt>
      <trkpt lat="39.3318070" lon="-0.6845800">
        <ele>241.0</ele>
        <time>2018-09-16T12:00:57Z</time>
      </trkpt>
      <trkpt lat="39.3318070" lon="-0.6845800">
        <ele>241.0</ele>
        <time>2018-09-16T12:00:58Z</time>
      </trkpt>
      <trkpt lat="39.3318450" lon="-0.6847120">
        <ele>241.0</ele>
        <time>2018-09-16T12:00:59Z</time>
      </trkpt>
      <trkpt lat="39.3318630" lon="-0.6847800">
        <ele>241.0</ele>
        <time>2018-09-16T12:01:00Z</time>
      </trkpt>
      <trkpt lat="39.3318800" lon="-0.6848470">
        <ele>241.0</ele>
        <time>2018-09-16T12:01:01Z</time>
      </trkpt>
      <trkpt lat="39.3318800" lon="-0.6848470">
        <ele>241.0</ele>
        <time>2018-09-16T12:01:02Z</time>
      </trkpt>
      <trkpt lat="39.3319170" lon="-0.6849800">
        <ele>241.0</ele>
        <time>2018-09-16T12:01:03Z</time>
      </trkpt>
      <trkpt lat="39.3319330" lon="-0.6850470">
        <ele>242.0</ele>
        <time>2018-09-16T12:01:04Z</time>
      </trkpt>
      <trkpt lat="39.3319330" lon="-0.6850470">
        <ele>242.0</ele>
        <time>2018-09-16T12:01:05Z</time>
      </trkpt>
      <trkpt lat="39.3319650" lon="-0.6851770">
        <ele>242.0</ele>
        <time>2018-09-16T12:01:06Z</time>
      </trkpt>
      <trkpt lat="39.3319820" lon="-0.6852400">
        <ele>242.0</ele>
        <time>2018-09-16T12:01:07Z</time>
      </trkpt>
      <trkpt lat="39.3319820" lon="-0.6852400">
        <ele>242.0</ele>
        <time>2018-09-16T12:01:08Z</time>
      </trkpt>
      <trkpt lat="39.3320170" lon="-0.6853620">
        <ele>242.0</ele>
        <time>2018-09-16T12:01:09Z</time>
      </trkpt>
      <trkpt lat="39.3320170" lon="-0.6853620">
        <ele>242.0</ele>
        <time>2018-09-16T12:01:10Z</time>
      </trkpt>
      <trkpt lat="39.3320600" lon="-0.6854770">
        <ele>242.0</ele>
        <time>2018-09-16T12:01:11Z</time>
      </trkpt>
      <trkpt lat="39.3320600" lon="-0.6854770">
        <ele>242.0</ele>
        <time>2018-09-16T12:01:12Z</time>
      </trkpt>
      <trkpt lat="39.3321120" lon="-0.6855830">
        <ele>242.0</ele>
        <time>2018-09-16T12:01:13Z</time>
      </trkpt>
      <trkpt lat="39.3321120" lon="-0.6855830">
        <ele>242.0</ele>
        <time>2018-09-16T12:01:14Z</time>
      </trkpt>
      <trkpt lat="39.3321680" lon="-0.6856830">
        <ele>243.0</ele>
        <time>2018-09-16T12:01:15Z</time>
      </trkpt>
      <trkpt lat="39.3321980" lon="-0.6857320">
        <ele>243.0</ele>
        <time>2018-09-16T12:01:16Z</time>
      </trkpt>
      <trkpt lat="39.3321980" lon="-0.6857320">
        <ele>243.0</ele>
        <time>2018-09-16T12:01:17Z</time>
      </trkpt>
      <trkpt lat="39.3322580" lon="-0.6858270">
        <ele>243.0</ele>
        <time>2018-09-16T12:01:18Z</time>
      </trkpt>
      <trkpt lat="39.3322870" lon="-0.6858730">
        <ele>243.0</ele>
        <time>2018-09-16T12:01:19Z</time>
      </trkpt>
      <trkpt lat="39.3322870" lon="-0.6858730">
        <ele>243.0</ele>
        <time>2018-09-16T12:01:20Z</time>
      </trkpt>
      <trkpt lat="39.3323430" lon="-0.6859670">
        <ele>244.0</ele>
        <time>2018-09-16T12:01:21Z</time>
      </trkpt>
      <trkpt lat="39.3323430" lon="-0.6859670">
        <ele>244.0</ele>
        <time>2018-09-16T12:01:22Z</time>
      </trkpt>
      <trkpt lat="39.3323970" lon="-0.6860600">
        <ele>244.0</ele>
        <time>2018-09-16T12:01:23Z</time>
      </trkpt>
      <trkpt lat="39.3324250" lon="-0.6861070">
        <ele>244.0</ele>
        <time>2018-09-16T12:01:24Z</time>
      </trkpt>
      <trkpt lat="39.3324530" lon="-0.6861520">
        <ele>244.0</ele>
        <time>2018-09-16T12:01:25Z</time>
      </trkpt>
      <trkpt lat="39.3324530" lon="-0.6861520">
        <ele>244.0</ele>
        <time>2018-09-16T12:01:26Z</time>
      </trkpt>
      <trkpt lat="39.3325080" lon="-0.6862420">
        <ele>244.0</ele>
        <time>2018-09-16T12:01:27Z</time>
      </trkpt>
      <trkpt lat="39.3325080" lon="-0.6862420">
        <ele>244.0</ele>
        <time>2018-09-16T12:01:28Z</time>
      </trkpt>
      <trkpt lat="39.3325620" lon="-0.6863330">
        <ele>244.0</ele>
        <time>2018-09-16T12:01:29Z</time>
      </trkpt>
      <trkpt lat="39.3325620" lon="-0.6863330">
        <ele>244.0</ele>
        <time>2018-09-16T12:01:30Z</time>
      </trkpt>
      <trkpt lat="39.3326150" lon="-0.6864270">
        <ele>244.0</ele>
        <time>2018-09-16T12:01:31Z</time>
      </trkpt>
      <trkpt lat="39.3326150" lon="-0.6864270">
        <ele>244.0</ele>
        <time>2018-09-16T12:01:32Z</time>
      </trkpt>
      <trkpt lat="39.3326720" lon="-0.6865180">
        <ele>245.0</ele>
        <time>2018-09-16T12:01:33Z</time>
      </trkpt>
      <trkpt lat="39.3327000" lon="-0.6865650">
        <ele>245.0</ele>
        <time>2018-09-16T12:01:34Z</time>
      </trkpt>
      <trkpt lat="39.3327000" lon="-0.6865650">
        <ele>245.0</ele>
        <time>2018-09-16T12:01:35Z</time>
      </trkpt>
      <trkpt lat="39.3327530" lon="-0.6866620">
        <ele>245.0</ele>
        <time>2018-09-16T12:01:36Z</time>
      </trkpt>
      <trkpt lat="39.3327780" lon="-0.6867080">
        <ele>246.0</ele>
        <time>2018-09-16T12:01:37Z</time>
      </trkpt>
      <trkpt lat="39.3327780" lon="-0.6867080">
        <ele>246.0</ele>
        <time>2018-09-16T12:01:38Z</time>
      </trkpt>
      <trkpt lat="39.3328320" lon="-0.6867950">
        <ele>246.0</ele>
        <time>2018-09-16T12:01:39Z</time>
      </trkpt>
      <trkpt lat="39.3328320" lon="-0.6867950">
        <ele>247.0</ele>
        <time>2018-09-16T12:01:40Z</time>
      </trkpt>
      <trkpt lat="39.3328820" lon="-0.6868850">
        <ele>247.0</ele>
        <time>2018-09-16T12:01:41Z</time>
      </trkpt>
      <trkpt lat="39.3329020" lon="-0.6869330">
        <ele>247.0</ele>
        <time>2018-09-16T12:01:42Z</time>
      </trkpt>
      <trkpt lat="39.3329180" lon="-0.6869830">
        <ele>247.0</ele>
        <time>2018-09-16T12:01:43Z</time>
      </trkpt>
      <trkpt lat="39.3329180" lon="-0.6869830">
        <ele>247.0</ele>
        <time>2018-09-16T12:01:44Z</time>
      </trkpt>
      <trkpt lat="39.3329380" lon="-0.6870970">
        <ele>247.0</ele>
        <time>2018-09-16T12:01:45Z</time>
      </trkpt>
      <trkpt lat="39.3329400" lon="-0.6871550">
        <ele>247.0</ele>
        <time>2018-09-16T12:01:46Z</time>
      </trkpt>
      <trkpt lat="39.3329400" lon="-0.6871550">
        <ele>247.0</ele>
        <time>2018-09-16T12:01:47Z</time>
      </trkpt>
      <trkpt lat="39.3329320" lon="-0.6872770">
        <ele>247.0</ele>
        <time>2018-09-16T12:01:48Z</time>
      </trkpt>
      <trkpt lat="39.3329230" lon="-0.6873370">
        <ele>247.0</ele>
        <time>2018-09-16T12:01:49Z</time>
      </trkpt>
      <trkpt lat="39.3329230" lon="-0.6873370">
        <ele>247.0</ele>
        <time>2018-09-16T12:01:50Z</time>
      </trkpt>
      <trkpt lat="39.3329050" lon="-0.6874550">
        <ele>247.0</ele>
        <time>2018-09-16T12:01:51Z</time>
      </trkpt>
      <trkpt lat="39.3328950" lon="-0.6875120">
        <ele>247.0</ele>
        <time>2018-09-16T12:01:52Z</time>
      </trkpt>
      <trkpt lat="39.3328950" lon="-0.6875120">
        <ele>247.0</ele>
        <time>2018-09-16T12:01:53Z</time>
      </trkpt>
      <trkpt lat="39.3328750" lon="-0.6876270">
        <ele>247.0</ele>
        <time>2018-09-16T12:01:54Z</time>
      </trkpt>
      <trkpt lat="39.3328630" lon="-0.6876830">
        <ele>248.0</ele>
        <time>2018-09-16T12:01:55Z</time>
      </trkpt>
      <trkpt lat="39.3328630" lon="-0.6876830">
        <ele>248.0</ele>
        <time>2018-09-16T12:01:56Z</time>
      </trkpt>
      <trkpt lat="39.3328420" lon="-0.6877970">
        <ele>248.0</ele>
        <time>2018-09-16T12:01:57Z</time>
      </trkpt>
      <trkpt lat="39.3328420" lon="-0.6877970">
        <ele>248.0</ele>
        <time>2018-09-16T12:01:58Z</time>
      </trkpt>
      <trkpt lat="39.3328180" lon="-0.6879120">
        <ele>248.0</ele>
        <time>2018-09-16T12:01:59Z</time>
      </trkpt>
      <trkpt lat="39.3328080" lon="-0.6879680">
        <ele>248.0</ele>
        <time>2018-09-16T12:02:00Z</time>
      </trkpt>
      <trkpt lat="39.3328000" lon="-0.6880250">
        <ele>248.0</ele>
        <time>2018-09-16T12:02:01Z</time>
      </trkpt>
      <trkpt lat="39.3328000" lon="-0.6880250">
        <ele>248.0</ele>
        <time>2018-09-16T12:02:02Z</time>
      </trkpt>
      <trkpt lat="39.3327820" lon="-0.6881350">
        <ele>249.0</ele>
        <time>2018-09-16T12:02:03Z</time>
      </trkpt>
      <trkpt lat="39.3327820" lon="-0.6881350">
        <ele>249.0</ele>
        <time>2018-09-16T12:02:04Z</time>
      </trkpt>
      <trkpt lat="39.3327630" lon="-0.6882420">
        <ele>249.0</ele>
        <time>2018-09-16T12:02:05Z</time>
      </trkpt>
      <trkpt lat="39.3327630" lon="-0.6882420">
        <ele>249.0</ele>
        <time>2018-09-16T12:02:06Z</time>
      </trkpt>
      <trkpt lat="39.3327450" lon="-0.6883450">
        <ele>249.0</ele>
        <time>2018-09-16T12:02:07Z</time>
      </trkpt>
      <trkpt lat="39.3327450" lon="-0.6883450">
        <ele>250.0</ele>
        <time>2018-09-16T12:02:08Z</time>
      </trkpt>
      <trkpt lat="39.3327280" lon="-0.6884500">
        <ele>250.0</ele>
        <time>2018-09-16T12:02:09Z</time>
      </trkpt>
      <trkpt lat="39.3327280" lon="-0.6884500">
        <ele>250.0</ele>
        <time>2018-09-16T12:02:10Z</time>
      </trkpt>
      <trkpt lat="39.3327120" lon="-0.6885520">
        <ele>250.0</ele>
        <time>2018-09-16T12:02:11Z</time>
      </trkpt>
      <trkpt lat="39.3327120" lon="-0.6885520">
        <ele>250.0</ele>
        <time>2018-09-16T12:02:12Z</time>
      </trkpt>
      <trkpt lat="39.3326920" lon="-0.6886520">
        <ele>250.0</ele>
        <time>2018-09-16T12:02:13Z</time>
      </trkpt>
      <trkpt lat="39.3326920" lon="-0.6886520">
        <ele>252.0</ele>
        <time>2018-09-16T12:02:14Z</time>
      </trkpt>
      <trkpt lat="39.3326770" lon="-0.6887450">
        <ele>252.0</ele>
        <time>2018-09-16T12:02:15Z</time>
      </trkpt>
      <trkpt lat="39.3326680" lon="-0.6887900">
        <ele>252.0</ele>
        <time>2018-09-16T12:02:16Z</time>
      </trkpt>
      <trkpt lat="39.3326680" lon="-0.6887900">
        <ele>252.0</ele>
        <time>2018-09-16T12:02:17Z</time>
      </trkpt>
      <trkpt lat="39.3326520" lon="-0.6888850">
        <ele>252.0</ele>
        <time>2018-09-16T12:02:18Z</time>
      </trkpt>
      <trkpt lat="39.3326450" lon="-0.6889320">
        <ele>252.0</ele>
        <time>2018-09-16T12:02:19Z</time>
      </trkpt>
      <trkpt lat="39.3326450" lon="-0.6889320">
        <ele>252.0</ele>
        <time>2018-09-16T12:02:20Z</time>
      </trkpt>
      <trkpt lat="39.3326320" lon="-0.6890180">
        <ele>252.0</ele>
        <time>2018-09-16T12:02:21Z</time>
      </trkpt>
      <trkpt lat="39.3326250" lon="-0.6890620">
        <ele>253.0</ele>
        <time>2018-09-16T12:02:22Z</time>
      </trkpt>
      <trkpt lat="39.3326170" lon="-0.6891030">
        <ele>253.0</ele>
        <time>2018-09-16T12:02:23Z</time>
      </trkpt>
      <trkpt lat="39.3326170" lon="-0.6891030">
        <ele>253.0</ele>
        <time>2018-09-16T12:02:24Z</time>
      </trkpt>
      <trkpt lat="39.3326070" lon="-0.6891850">
        <ele>253.0</ele>
        <time>2018-09-16T12:02:25Z</time>
      </trkpt>
      <trkpt lat="39.3326070" lon="-0.6891850">
        <ele>253.0</ele>
        <time>2018-09-16T12:02:26Z</time>
      </trkpt>
      <trkpt lat="39.3325950" lon="-0.6892720">
        <ele>254.0</ele>
        <time>2018-09-16T12:02:27Z</time>
      </trkpt>
      <trkpt lat="39.3325950" lon="-0.6892720">
        <ele>254.0</ele>
        <time>2018-09-16T12:02:28Z</time>
      </trkpt>
      <trkpt lat="39.3325930" lon="-0.6893600">
        <ele>254.0</ele>
        <time>2018-09-16T12:02:29Z</time>
      </trkpt>
      <trkpt lat="39.3325930" lon="-0.6893600">
        <ele>254.0</ele>
        <time>2018-09-16T12:02:30Z</time>
      </trkpt>
      <trkpt lat="39.3326000" lon="-0.6894480">
        <ele>254.0</ele>
        <time>2018-09-16T12:02:31Z</time>
      </trkpt>
      <trkpt lat="39.3326000" lon="-0.6894480">
        <ele>255.0</ele>
        <time>2018-09-16T12:02:32Z</time>
      </trkpt>
      <trkpt lat="39.3326220" lon="-0.6895500">
        <ele>255.0</ele>
        <time>2018-09-16T12:02:33Z</time>
      </trkpt>
      <trkpt lat="39.3326220" lon="-0.6895500">
        <ele>255.0</ele>
        <time>2018-09-16T12:02:34Z</time>
      </trkpt>
      <trkpt lat="39.3326450" lon="-0.6896480">
        <ele>255.0</ele>
        <time>2018-09-16T12:02:35Z</time>
      </trkpt>
      <trkpt lat="39.3326450" lon="-0.6896480">
        <ele>255.0</ele>
        <time>2018-09-16T12:02:36Z</time>
      </trkpt>
      <trkpt lat="39.3326700" lon="-0.6897500">
        <ele>255.0</ele>
        <time>2018-09-16T12:02:37Z</time>
      </trkpt>
      <trkpt lat="39.3326700" lon="-0.6897500">
        <ele>255.0</ele>
        <time>2018-09-16T12:02:38Z</time>
      </trkpt>
      <trkpt lat="39.3326920" lon="-0.6898580">
        <ele>255.0</ele>
        <time>2018-09-16T12:02:39Z</time>
      </trkpt>
      <trkpt lat="39.3326920" lon="-0.6898580">
        <ele>254.0</ele>
        <time>2018-09-16T12:02:40Z</time>
      </trkpt>
      <trkpt lat="39.3327050" lon="-0.6899770">
        <ele>254.0</ele>
        <time>2018-09-16T12:02:41Z</time>
      </trkpt>
      <trkpt lat="39.3327050" lon="-0.6899770">
        <ele>254.0</ele>
        <time>2018-09-16T12:02:42Z</time>
      </trkpt>
      <trkpt lat="39.3327180" lon="-0.6900950">
        <ele>254.0</ele>
        <time>2018-09-16T12:02:43Z</time>
      </trkpt>
      <trkpt lat="39.3327180" lon="-0.6900950">
        <ele>254.0</ele>
        <time>2018-09-16T12:02:44Z</time>
      </trkpt>
      <trkpt lat="39.3327230" lon="-0.6902070">
        <ele>254.0</ele>
        <time>2018-09-16T12:02:45Z</time>
      </trkpt>
      <trkpt lat="39.3327230" lon="-0.6902070">
        <ele>254.0</ele>
        <time>2018-09-16T12:02:46Z</time>
      </trkpt>
      <trkpt lat="39.3327270" lon="-0.6903100">
        <ele>254.0</ele>
        <time>2018-09-16T12:02:47Z</time>
      </trkpt>
      <trkpt lat="39.3327270" lon="-0.6903100">
        <ele>254.0</ele>
        <time>2018-09-16T12:02:48Z</time>
      </trkpt>
      <trkpt lat="39.3327320" lon="-0.6904120">
        <ele>254.0</ele>
        <time>2018-09-16T12:02:49Z</time>
      </trkpt>
      <trkpt lat="39.3327330" lon="-0.6904620">
        <ele>254.0</ele>
        <time>2018-09-16T12:02:50Z</time>
      </trkpt>
      <trkpt lat="39.3327330" lon="-0.6904620">
        <ele>254.0</ele>
        <time>2018-09-16T12:02:51Z</time>
      </trkpt>
      <trkpt lat="39.3327400" lon="-0.6905620">
        <ele>254.0</ele>
        <time>2018-09-16T12:02:52Z</time>
      </trkpt>
      <trkpt lat="39.3327400" lon="-0.6905620">
        <ele>254.0</ele>
        <time>2018-09-16T12:02:53Z</time>
      </trkpt>
      <trkpt lat="39.3327450" lon="-0.6906680">
        <ele>254.0</ele>
        <time>2018-09-16T12:02:54Z</time>
      </trkpt>
      <trkpt lat="39.3327450" lon="-0.6906680">
        <ele>254.0</ele>
        <time>2018-09-16T12:02:55Z</time>
      </trkpt>
      <trkpt lat="39.3327520" lon="-0.6907770">
        <ele>254.0</ele>
        <time>2018-09-16T12:02:56Z</time>
      </trkpt>
      <trkpt lat="39.3327520" lon="-0.6907770">
        <ele>254.0</ele>
        <time>2018-09-16T12:02:57Z</time>
      </trkpt>
      <trkpt lat="39.3327520" lon="-0.6908820">
        <ele>254.0</ele>
        <time>2018-09-16T12:02:58Z</time>
      </trkpt>
      <trkpt lat="39.3327520" lon="-0.6908820">
        <ele>255.0</ele>
        <time>2018-09-16T12:02:59Z</time>
      </trkpt>
      <trkpt lat="39.3327550" lon="-0.6909750">
        <ele>255.0</ele>
        <time>2018-09-16T12:03:00Z</time>
      </trkpt>
      <trkpt lat="39.3327580" lon="-0.6910200">
        <ele>255.0</ele>
        <time>2018-09-16T12:03:01Z</time>
      </trkpt>
      <trkpt lat="39.3327580" lon="-0.6910200">
        <ele>255.0</ele>
        <time>2018-09-16T12:03:02Z</time>
      </trkpt>
      <trkpt lat="39.3327630" lon="-0.6911130">
        <ele>255.0</ele>
        <time>2018-09-16T12:03:03Z</time>
      </trkpt>
      <trkpt lat="39.3327630" lon="-0.6911130">
        <ele>255.0</ele>
        <time>2018-09-16T12:03:04Z</time>
      </trkpt>
      <trkpt lat="39.3327670" lon="-0.6912070">
        <ele>256.0</ele>
        <time>2018-09-16T12:03:05Z</time>
      </trkpt>
      <trkpt lat="39.3327670" lon="-0.6912070">
        <ele>256.0</ele>
        <time>2018-09-16T12:03:06Z</time>
      </trkpt>
      <trkpt lat="39.3327700" lon="-0.6913020">
        <ele>256.0</ele>
        <time>2018-09-16T12:03:07Z</time>
      </trkpt>
      <trkpt lat="39.3327700" lon="-0.6913020">
        <ele>256.0</ele>
        <time>2018-09-16T12:03:08Z</time>
      </trkpt>
      <trkpt lat="39.3327730" lon="-0.6913900">
        <ele>256.0</ele>
        <time>2018-09-16T12:03:09Z</time>
      </trkpt>
      <trkpt lat="39.3327730" lon="-0.6913900">
        <ele>256.0</ele>
        <time>2018-09-16T12:03:10Z</time>
      </trkpt>
      <trkpt lat="39.3327730" lon="-0.6914780">
        <ele>257.0</ele>
        <time>2018-09-16T12:03:11Z</time>
      </trkpt>
      <trkpt lat="39.3327730" lon="-0.6914780">
        <ele>257.0</ele>
        <time>2018-09-16T12:03:12Z</time>
      </trkpt>
      <trkpt lat="39.3327730" lon="-0.6915670">
        <ele>257.0</ele>
        <time>2018-09-16T12:03:13Z</time>
      </trkpt>
      <trkpt lat="39.3327730" lon="-0.6915670">
        <ele>257.0</ele>
        <time>2018-09-16T12:03:14Z</time>
      </trkpt>
      <trkpt lat="39.3327730" lon="-0.6916530">
        <ele>257.0</ele>
        <time>2018-09-16T12:03:15Z</time>
      </trkpt>
      <trkpt lat="39.3327730" lon="-0.6916530">
        <ele>257.0</ele>
        <time>2018-09-16T12:03:16Z</time>
      </trkpt>
      <trkpt lat="39.3327720" lon="-0.6917420">
        <ele>258.0</ele>
        <time>2018-09-16T12:03:17Z</time>
      </trkpt>
      <trkpt lat="39.3327720" lon="-0.6917420">
        <ele>258.0</ele>
        <time>2018-09-16T12:03:18Z</time>
      </trkpt>
      <trkpt lat="39.3327570" lon="-0.6918300">
        <ele>258.0</ele>
        <time>2018-09-16T12:03:19Z</time>
      </trkpt>
      <trkpt lat="39.3327570" lon="-0.6918300">
        <ele>258.0</ele>
        <time>2018-09-16T12:03:20Z</time>
      </trkpt>
      <trkpt lat="39.3327450" lon="-0.6919170">
        <ele>258.0</ele>
        <time>2018-09-16T12:03:21Z</time>
      </trkpt>
      <trkpt lat="39.3327450" lon="-0.6919170">
        <ele>258.0</ele>
        <time>2018-09-16T12:03:22Z</time>
      </trkpt>
      <trkpt lat="39.3327380" lon="-0.6920030">
        <ele>258.0</ele>
        <time>2018-09-16T12:03:23Z</time>
      </trkpt>
      <trkpt lat="39.3327380" lon="-0.6920030">
        <ele>259.0</ele>
        <time>2018-09-16T12:03:24Z</time>
      </trkpt>
      <trkpt lat="39.3327220" lon="-0.6920850">
        <ele>259.0</ele>
        <time>2018-09-16T12:03:25Z</time>
      </trkpt>
      <trkpt lat="39.3327220" lon="-0.6920850">
        <ele>259.0</ele>
        <time>2018-09-16T12:03:26Z</time>
      </trkpt>
      <trkpt lat="39.3326980" lon="-0.6921630">
        <ele>259.0</ele>
        <time>2018-09-16T12:03:27Z</time>
      </trkpt>
      <trkpt lat="39.3326980" lon="-0.6921630">
        <ele>260.0</ele>
        <time>2018-09-16T12:03:28Z</time>
      </trkpt>
      <trkpt lat="39.3326650" lon="-0.6922380">
        <ele>260.0</ele>
        <time>2018-09-16T12:03:29Z</time>
      </trkpt>
      <trkpt lat="39.3326650" lon="-0.6922380">
        <ele>260.0</ele>
        <time>2018-09-16T12:03:30Z</time>
      </trkpt>
      <trkpt lat="39.3326230" lon="-0.6923070">
        <ele>260.0</ele>
        <time>2018-09-16T12:03:31Z</time>
      </trkpt>
      <trkpt lat="39.3326230" lon="-0.6923070">
        <ele>260.0</ele>
        <time>2018-09-16T12:03:32Z</time>
      </trkpt>
      <trkpt lat="39.3325780" lon="-0.6923720">
        <ele>260.0</ele>
        <time>2018-09-16T12:03:33Z</time>
      </trkpt>
      <trkpt lat="39.3325780" lon="-0.6923720">
        <ele>260.0</ele>
        <time>2018-09-16T12:03:34Z</time>
      </trkpt>
      <trkpt lat="39.3325300" lon="-0.6924330">
        <ele>260.0</ele>
        <time>2018-09-16T12:03:35Z</time>
      </trkpt>
      <trkpt lat="39.3325050" lon="-0.6924620">
        <ele>261.0</ele>
        <time>2018-09-16T12:03:36Z</time>
      </trkpt>
      <trkpt lat="39.3324820" lon="-0.6924920">
        <ele>261.0</ele>
        <time>2018-09-16T12:03:37Z</time>
      </trkpt>
      <trkpt lat="39.3324820" lon="-0.6924920">
        <ele>261.0</ele>
        <time>2018-09-16T12:03:38Z</time>
      </trkpt>
      <trkpt lat="39.3324350" lon="-0.6925500">
        <ele>261.0</ele>
        <time>2018-09-16T12:03:39Z</time>
      </trkpt>
      <trkpt lat="39.3324120" lon="-0.6925770">
        <ele>261.0</ele>
        <time>2018-09-16T12:03:40Z</time>
      </trkpt>
      <trkpt lat="39.3324120" lon="-0.6925770">
        <ele>261.0</ele>
        <time>2018-09-16T12:03:41Z</time>
      </trkpt>
      <trkpt lat="39.3323670" lon="-0.6926280">
        <ele>261.0</ele>
        <time>2018-09-16T12:03:42Z</time>
      </trkpt>
      <trkpt lat="39.3323470" lon="-0.6926530">
        <ele>261.0</ele>
        <time>2018-09-16T12:03:43Z</time>
      </trkpt>
      <trkpt lat="39.3323470" lon="-0.6926530">
        <ele>262.0</ele>
        <time>2018-09-16T12:03:44Z</time>
      </trkpt>
      <trkpt lat="39.3323050" lon="-0.6927050">
        <ele>262.0</ele>
        <time>2018-09-16T12:03:45Z</time>
      </trkpt>
      <trkpt lat="39.3323050" lon="-0.6927050">
        <ele>262.0</ele>
        <time>2018-09-16T12:03:46Z</time>
      </trkpt>
      <trkpt lat="39.3322630" lon="-0.6927570">
        <ele>262.0</ele>
        <time>2018-09-16T12:03:47Z</time>
      </trkpt>
      <trkpt lat="39.3322630" lon="-0.6927570">
        <ele>262.0</ele>
        <time>2018-09-16T12:03:48Z</time>
      </trkpt>
      <trkpt lat="39.3322200" lon="-0.6928080">
        <ele>263.0</ele>
        <time>2018-09-16T12:03:49Z</time>
      </trkpt>
      <trkpt lat="39.3322200" lon="-0.6928080">
        <ele>263.0</ele>
        <time>2018-09-16T12:03:50Z</time>
      </trkpt>
      <trkpt lat="39.3321770" lon="-0.6928620">
        <ele>263.0</ele>
        <time>2018-09-16T12:03:51Z</time>
      </trkpt>
      <trkpt lat="39.3321770" lon="-0.6928620">
        <ele>263.0</ele>
        <time>2018-09-16T12:03:52Z</time>
      </trkpt>
      <trkpt lat="39.3321330" lon="-0.6929130">
        <ele>263.0</ele>
        <time>2018-09-16T12:03:53Z</time>
      </trkpt>
      <trkpt lat="39.3321120" lon="-0.6929400">
        <ele>263.0</ele>
        <time>2018-09-16T12:03:54Z</time>
      </trkpt>
      <trkpt lat="39.3321120" lon="-0.6929400">
        <ele>264.0</ele>
        <time>2018-09-16T12:03:55Z</time>
      </trkpt>
      <trkpt lat="39.3320670" lon="-0.6929950">
        <ele>264.0</ele>
        <time>2018-09-16T12:03:56Z</time>
      </trkpt>
      <trkpt lat="39.3320670" lon="-0.6929950">
        <ele>264.0</ele>
        <time>2018-09-16T12:03:57Z</time>
      </trkpt>
      <trkpt lat="39.3320250" lon="-0.6930520">
        <ele>264.0</ele>
        <time>2018-09-16T12:03:58Z</time>
      </trkpt>
      <trkpt lat="39.3320250" lon="-0.6930520">
        <ele>264.0</ele>
        <time>2018-09-16T12:03:59Z</time>
      </trkpt>
      <trkpt lat="39.3319870" lon="-0.6931150">
        <ele>264.0</ele>
        <time>2018-09-16T12:04:00Z</time>
      </trkpt>
      <trkpt lat="39.3319680" lon="-0.6931480">
        <ele>265.0</ele>
        <time>2018-09-16T12:04:01Z</time>
      </trkpt>
      <trkpt lat="39.3319680" lon="-0.6931480">
        <ele>265.0</ele>
        <time>2018-09-16T12:04:02Z</time>
      </trkpt>
      <trkpt lat="39.3319380" lon="-0.6932200">
        <ele>265.0</ele>
        <time>2018-09-16T12:04:03Z</time>
      </trkpt>
      <trkpt lat="39.3319270" lon="-0.6932580">
        <ele>265.0</ele>
        <time>2018-09-16T12:04:04Z</time>
      </trkpt>
      <trkpt lat="39.3319270" lon="-0.6932580">
        <ele>265.0</ele>
        <time>2018-09-16T12:04:05Z</time>
      </trkpt>
      <trkpt lat="39.3319120" lon="-0.6933400">
        <ele>265.0</ele>
        <time>2018-09-16T12:04:06Z</time>
      </trkpt>
      <trkpt lat="39.3319100" lon="-0.6933820">
        <ele>266.0</ele>
        <time>2018-09-16T12:04:07Z</time>
      </trkpt>
      <trkpt lat="39.3319100" lon="-0.6933820">
        <ele>266.0</ele>
        <time>2018-09-16T12:04:08Z</time>
      </trkpt>
      <trkpt lat="39.3319170" lon="-0.6934630">
        <ele>266.0</ele>
        <time>2018-09-16T12:04:09Z</time>
      </trkpt>
      <trkpt lat="39.3319170" lon="-0.6934630">
        <ele>266.0</ele>
        <time>2018-09-16T12:04:10Z</time>
      </trkpt>
      <trkpt lat="39.3319320" lon="-0.6935420">
        <ele>266.0</ele>
        <time>2018-09-16T12:04:11Z</time>
      </trkpt>
      <trkpt lat="39.3319320" lon="-0.6935420">
        <ele>266.0</ele>
        <time>2018-09-16T12:04:12Z</time>
      </trkpt>
      <trkpt lat="39.3319470" lon="-0.6936230">
        <ele>267.0</ele>
        <time>2018-09-16T12:04:13Z</time>
      </trkpt>
      <trkpt lat="39.3319470" lon="-0.6936230">
        <ele>267.0</ele>
        <time>2018-09-16T12:04:14Z</time>
      </trkpt>
      <trkpt lat="39.3319620" lon="-0.6937120">
        <ele>267.0</ele>
        <time>2018-09-16T12:04:15Z</time>
      </trkpt>
      <trkpt lat="39.3319730" lon="-0.6937570">
        <ele>267.0</ele>
        <time>2018-09-16T12:04:16Z</time>
      </trkpt>
      <trkpt lat="39.3319730" lon="-0.6937570">
        <ele>267.0</ele>
        <time>2018-09-16T12:04:17Z</time>
      </trkpt>
      <trkpt lat="39.3319980" lon="-0.6938480">
        <ele>267.0</ele>
        <time>2018-09-16T12:04:18Z</time>
      </trkpt>
      <trkpt lat="39.3320070" lon="-0.6938970">
        <ele>267.0</ele>
        <time>2018-09-16T12:04:19Z</time>
      </trkpt>
      <trkpt lat="39.3320070" lon="-0.6938970">
        <ele>267.0</ele>
        <time>2018-09-16T12:04:20Z</time>
      </trkpt>
      <trkpt lat="39.3320270" lon="-0.6939970">
        <ele>267.0</ele>
        <time>2018-09-16T12:04:21Z</time>
      </trkpt>
      <trkpt lat="39.3320270" lon="-0.6939970">
        <ele>267.0</ele>
        <time>2018-09-16T12:04:22Z</time>
      </trkpt>
      <trkpt lat="39.3320480" lon="-0.6940920">
        <ele>267.0</ele>
        <time>2018-09-16T12:04:23Z</time>
      </trkpt>
      <trkpt lat="39.3320480" lon="-0.6940920">
        <ele>267.0</ele>
        <time>2018-09-16T12:04:24Z</time>
      </trkpt>
      <trkpt lat="39.3320770" lon="-0.6941870">
        <ele>267.0</ele>
        <time>2018-09-16T12:04:25Z</time>
      </trkpt>
      <trkpt lat="39.3320770" lon="-0.6941870">
        <ele>267.0</ele>
        <time>2018-09-16T12:04:26Z</time>
      </trkpt>
      <trkpt lat="39.3321070" lon="-0.6942770">
        <ele>267.0</ele>
        <time>2018-09-16T12:04:27Z</time>
      </trkpt>
      <trkpt lat="39.3321070" lon="-0.6942770">
        <ele>267.0</ele>
        <time>2018-09-16T12:04:28Z</time>
      </trkpt>
      <trkpt lat="39.3321400" lon="-0.6943600">
        <ele>267.0</ele>
        <time>2018-09-16T12:04:29Z</time>
      </trkpt>
      <trkpt lat="39.3321570" lon="-0.6944030">
        <ele>267.0</ele>
        <time>2018-09-16T12:04:30Z</time>
      </trkpt>
      <trkpt lat="39.3321700" lon="-0.6944500">
        <ele>267.0</ele>
        <time>2018-09-16T12:04:31Z</time>
      </trkpt>
      <trkpt lat="39.3321700" lon="-0.6944500">
        <ele>267.0</ele>
        <time>2018-09-16T12:04:32Z</time>
      </trkpt>
      <trkpt lat="39.3321830" lon="-0.6945370">
        <ele>267.0</ele>
        <time>2018-09-16T12:04:33Z</time>
      </trkpt>
      <trkpt lat="39.3321830" lon="-0.6945370">
        <ele>267.0</ele>
        <time>2018-09-16T12:04:34Z</time>
      </trkpt>
      <trkpt lat="39.3321800" lon="-0.6945800">
        <ele>267.0</ele>
        <time>2018-09-16T12:04:35Z</time>
      </trkpt>
      <trkpt lat="39.3321930" lon="-0.6946000">
        <ele>267.0</ele>
        <time>2018-09-16T12:04:46Z</time>
      </trkpt>
      <trkpt lat="39.3322060" lon="-0.6946200">
        <ele>267.0</ele>
        <time>2018-09-16T12:04:47Z</time>
      </trkpt>
      <trkpt lat="39.3322190" lon="-0.6946400">
        <ele>267.0</ele>
        <time>2018-09-16T12:06:08Z</time>
      </trkpt>
      <trkpt lat="39.3322320" lon="-0.6946600">
        <ele>268.0</ele>
        <time>2018-09-16T12:06:09Z</time>
      </trkpt>
      <trkpt lat="39.3322320" lon="-0.6946600">
        <ele>268.0</ele>
        <time>2018-09-16T12:06:10Z</time>
      </trkpt>
      <trkpt lat="39.3322700" lon="-0.6946820">
        <ele>268.0</ele>
        <time>2018-09-16T12:06:11Z</time>
      </trkpt>
      <trkpt lat="39.3322700" lon="-0.6946820">
        <ele>268.0</ele>
        <time>2018-09-16T12:06:12Z</time>
      </trkpt>
      <trkpt lat="39.3323170" lon="-0.6947080">
        <ele>268.0</ele>
        <time>2018-09-16T12:06:13Z</time>
      </trkpt>
      <trkpt lat="39.3323170" lon="-0.6947080">
        <ele>269.0</ele>
        <time>2018-09-16T12:06:14Z</time>
      </trkpt>
      <trkpt lat="39.3323780" lon="-0.6947470">
        <ele>269.0</ele>
        <time>2018-09-16T12:06:15Z</time>
      </trkpt>
      <trkpt lat="39.3323780" lon="-0.6947470">
        <ele>269.0</ele>
        <time>2018-09-16T12:06:16Z</time>
      </trkpt>
      <trkpt lat="39.3324580" lon="-0.6947920">
        <ele>269.0</ele>
        <time>2018-09-16T12:06:17Z</time>
      </trkpt>
      <trkpt lat="39.3324580" lon="-0.6947920">
        <ele>269.0</ele>
        <time>2018-09-16T12:06:18Z</time>
      </trkpt>
      <trkpt lat="39.3325450" lon="-0.6948470">
        <ele>269.0</ele>
        <time>2018-09-16T12:06:19Z</time>
      </trkpt>
      <trkpt lat="39.3325450" lon="-0.6948470">
        <ele>269.0</ele>
        <time>2018-09-16T12:06:20Z</time>
      </trkpt>
      <trkpt lat="39.3326330" lon="-0.6949420">
        <ele>268.0</ele>
        <time>2018-09-16T12:06:21Z</time>
      </trkpt>
      <trkpt lat="39.3326330" lon="-0.6949420">
        <ele>268.0</ele>
        <time>2018-09-16T12:06:22Z</time>
      </trkpt>
      <trkpt lat="39.3327100" lon="-0.6950800">
        <ele>267.0</ele>
        <time>2018-09-16T12:06:23Z</time>
      </trkpt>
      <trkpt lat="39.3327100" lon="-0.6950800">
        <ele>267.0</ele>
        <time>2018-09-16T12:06:24Z</time>
      </trkpt>
      <trkpt lat="39.3327750" lon="-0.6952530">
        <ele>266.0</ele>
        <time>2018-09-16T12:06:25Z</time>
      </trkpt>
      <trkpt lat="39.3327750" lon="-0.6952530">
        <ele>266.0</ele>
        <time>2018-09-16T12:06:26Z</time>
      </trkpt>
      <trkpt lat="39.3328500" lon="-0.6954370">
        <ele>266.0</ele>
        <time>2018-09-16T12:06:27Z</time>
      </trkpt>
      <trkpt lat="39.3328500" lon="-0.6954370">
        <ele>266.0</ele>
        <time>2018-09-16T12:06:28Z</time>
      </trkpt>
      <trkpt lat="39.3329580" lon="-0.6956130">
        <ele>265.0</ele>
        <time>2018-09-16T12:06:29Z</time>
      </trkpt>
      <trkpt lat="39.3330200" lon="-0.6957000">
        <ele>265.0</ele>
        <time>2018-09-16T12:06:30Z</time>
      </trkpt>
      <trkpt lat="39.3330200" lon="-0.6957000">
        <ele>264.0</ele>
        <time>2018-09-16T12:06:31Z</time>
      </trkpt>
      <trkpt lat="39.3331500" lon="-0.6958780">
        <ele>264.0</ele>
        <time>2018-09-16T12:06:32Z</time>
      </trkpt>
      <trkpt lat="39.3331500" lon="-0.6958780">
        <ele>263.0</ele>
        <time>2018-09-16T12:06:33Z</time>
      </trkpt>
      <trkpt lat="39.3332900" lon="-0.6960620">
        <ele>263.0</ele>
        <time>2018-09-16T12:06:34Z</time>
      </trkpt>
      <trkpt lat="39.3333630" lon="-0.6961550">
        <ele>262.0</ele>
        <time>2018-09-16T12:06:35Z</time>
      </trkpt>
      <trkpt lat="39.3333630" lon="-0.6961550">
        <ele>262.0</ele>
        <time>2018-09-16T12:06:36Z</time>
      </trkpt>
      <trkpt lat="39.3335200" lon="-0.6963400">
        <ele>260.0</ele>
        <time>2018-09-16T12:06:37Z</time>
      </trkpt>
      <trkpt lat="39.3335200" lon="-0.6963400">
        <ele>259.0</ele>
        <time>2018-09-16T12:06:38Z</time>
      </trkpt>
      <trkpt lat="39.3336900" lon="-0.6965230">
        <ele>259.0</ele>
        <time>2018-09-16T12:06:39Z</time>
      </trkpt>
      <trkpt lat="39.3336900" lon="-0.6965230">
        <ele>259.0</ele>
        <time>2018-09-16T12:06:40Z</time>
      </trkpt>
      <trkpt lat="39.3338670" lon="-0.6967130">
        <ele>258.0</ele>
        <time>2018-09-16T12:06:41Z</time>
      </trkpt>
      <trkpt lat="39.3338670" lon="-0.6967130">
        <ele>257.0</ele>
        <time>2018-09-16T12:06:42Z</time>
      </trkpt>
      <trkpt lat="39.3340570" lon="-0.6969000">
        <ele>257.0</ele>
        <time>2018-09-16T12:06:43Z</time>
      </trkpt>
      <trkpt lat="39.3340570" lon="-0.6969000">
        <ele>255.0</ele>
        <time>2018-09-16T12:06:44Z</time>
      </trkpt>
      <trkpt lat="39.3342730" lon="-0.6970570">
        <ele>255.0</ele>
        <time>2018-09-16T12:06:45Z</time>
      </trkpt>
      <trkpt lat="39.3343870" lon="-0.6971250">
        <ele>254.0</ele>
        <time>2018-09-16T12:06:46Z</time>
      </trkpt>
      <trkpt lat="39.3343870" lon="-0.6971250">
        <ele>254.0</ele>
        <time>2018-09-16T12:06:47Z</time>
      </trkpt>
      <trkpt lat="39.3346180" lon="-0.6972620">
        <ele>252.0</ele>
        <time>2018-09-16T12:06:48Z</time>
      </trkpt>
      <trkpt lat="39.3347350" lon="-0.6973300">
        <ele>252.0</ele>
        <time>2018-09-16T12:06:49Z</time>
      </trkpt>
      <trkpt lat="39.3347350" lon="-0.6973300">
        <ele>251.0</ele>
        <time>2018-09-16T12:06:50Z</time>
      </trkpt>
      <trkpt lat="39.3349680" lon="-0.6974670">
        <ele>251.0</ele>
        <time>2018-09-16T12:06:51Z</time>
      </trkpt>
      <trkpt lat="39.3349680" lon="-0.6974670">
        <ele>250.0</ele>
        <time>2018-09-16T12:06:52Z</time>
      </trkpt>
      <trkpt lat="39.3352020" lon="-0.6976050">
        <ele>250.0</ele>
        <time>2018-09-16T12:06:53Z</time>
      </trkpt>
      <trkpt lat="39.3352020" lon="-0.6976050">
        <ele>248.0</ele>
        <time>2018-09-16T12:06:54Z</time>
      </trkpt>
      <trkpt lat="39.3354300" lon="-0.6977570">
        <ele>248.0</ele>
        <time>2018-09-16T12:06:55Z</time>
      </trkpt>
      <trkpt lat="39.3354300" lon="-0.6977570">
        <ele>247.0</ele>
        <time>2018-09-16T12:06:56Z</time>
      </trkpt>
      <trkpt lat="39.3356520" lon="-0.6979320">
        <ele>247.0</ele>
        <time>2018-09-16T12:06:57Z</time>
      </trkpt>
      <trkpt lat="39.3356520" lon="-0.6979320">
        <ele>245.0</ele>
        <time>2018-09-16T12:06:58Z</time>
      </trkpt>
      <trkpt lat="39.3358550" lon="-0.6981450">
        <ele>245.0</ele>
        <time>2018-09-16T12:06:59Z</time>
      </trkpt>
      <trkpt lat="39.3358550" lon="-0.6981450">
        <ele>243.0</ele>
        <time>2018-09-16T12:07:00Z</time>
      </trkpt>
      <trkpt lat="39.3360370" lon="-0.6983650">
        <ele>243.0</ele>
        <time>2018-09-16T12:07:01Z</time>
      </trkpt>
      <trkpt lat="39.3360370" lon="-0.6983650">
        <ele>241.0</ele>
        <time>2018-09-16T12:07:02Z</time>
      </trkpt>
      <trkpt lat="39.3361980" lon="-0.6985570">
        <ele>241.0</ele>
        <time>2018-09-16T12:07:03Z</time>
      </trkpt>
      <trkpt lat="39.3361980" lon="-0.6985570">
        <ele>239.0</ele>
        <time>2018-09-16T12:07:04Z</time>
      </trkpt>
      <trkpt lat="39.3363470" lon="-0.6987350">
        <ele>239.0</ele>
        <time>2018-09-16T12:07:05Z</time>
      </trkpt>
      <trkpt lat="39.3363470" lon="-0.6987350">
        <ele>237.0</ele>
        <time>2018-09-16T12:07:06Z</time>
      </trkpt>
      <trkpt lat="39.3364920" lon="-0.6988720">
        <ele>236.0</ele>
        <time>2018-09-16T12:07:07Z</time>
      </trkpt>
      <trkpt lat="39.3364920" lon="-0.6988720">
        <ele>236.0</ele>
        <time>2018-09-16T12:07:08Z</time>
      </trkpt>
      <trkpt lat="39.3366600" lon="-0.6989270">
        <ele>235.0</ele>
        <time>2018-09-16T12:07:09Z</time>
      </trkpt>
      <trkpt lat="39.3366600" lon="-0.6989270">
        <ele>235.0</ele>
        <time>2018-09-16T12:07:10Z</time>
      </trkpt>
      <trkpt lat="39.3368470" lon="-0.6989500">
        <ele>235.0</ele>
        <time>2018-09-16T12:07:11Z</time>
      </trkpt>
      <trkpt lat="39.3368470" lon="-0.6989500">
        <ele>235.0</ele>
        <time>2018-09-16T12:07:12Z</time>
      </trkpt>
      <trkpt lat="39.3370230" lon="-0.6990400">
        <ele>234.0</ele>
        <time>2018-09-16T12:07:13Z</time>
      </trkpt>
      <trkpt lat="39.3370230" lon="-0.6990400">
        <ele>234.0</ele>
        <time>2018-09-16T12:07:14Z</time>
      </trkpt>
      <trkpt lat="39.3371800" lon="-0.6991800">
        <ele>234.0</ele>
        <time>2018-09-16T12:07:15Z</time>
      </trkpt>
      <trkpt lat="39.3372570" lon="-0.6992550">
        <ele>234.0</ele>
        <time>2018-09-16T12:07:16Z</time>
      </trkpt>
      <trkpt lat="39.3372570" lon="-0.6992550">
        <ele>234.0</ele>
        <time>2018-09-16T12:07:17Z</time>
      </trkpt>
      <trkpt lat="39.3374150" lon="-0.6994070">
        <ele>234.0</ele>
        <time>2018-09-16T12:07:18Z</time>
      </trkpt>
      <trkpt lat="39.3374970" lon="-0.6994850">
        <ele>233.0</ele>
        <time>2018-09-16T12:07:19Z</time>
      </trkpt>
      <trkpt lat="39.3374970" lon="-0.6994850">
        <ele>233.0</ele>
        <time>2018-09-16T12:07:20Z</time>
      </trkpt>
      <trkpt lat="39.3376720" lon="-0.6996280">
        <ele>233.0</ele>
        <time>2018-09-16T12:07:21Z</time>
      </trkpt>
      <trkpt lat="39.3376720" lon="-0.6996280">
        <ele>233.0</ele>
        <time>2018-09-16T12:07:22Z</time>
      </trkpt>
      <trkpt lat="39.3378650" lon="-0.6997450">
        <ele>232.0</ele>
        <time>2018-09-16T12:07:23Z</time>
      </trkpt>
      <trkpt lat="39.3379630" lon="-0.6998000">
        <ele>232.0</ele>
        <time>2018-09-16T12:07:24Z</time>
      </trkpt>
      <trkpt lat="39.3379630" lon="-0.6998000">
        <ele>232.0</ele>
        <time>2018-09-16T12:07:25Z</time>
      </trkpt>
      <trkpt lat="39.3381600" lon="-0.6999080">
        <ele>232.0</ele>
        <time>2018-09-16T12:07:26Z</time>
      </trkpt>
      <trkpt lat="39.3381600" lon="-0.6999080">
        <ele>232.0</ele>
        <time>2018-09-16T12:07:27Z</time>
      </trkpt>
      <trkpt lat="39.3383550" lon="-0.7000170">
        <ele>232.0</ele>
        <time>2018-09-16T12:07:28Z</time>
      </trkpt>
      <trkpt lat="39.3384500" lon="-0.7000680">
        <ele>232.0</ele>
        <time>2018-09-16T12:07:29Z</time>
      </trkpt>
      <trkpt lat="39.3384500" lon="-0.7000680">
        <ele>231.0</ele>
        <time>2018-09-16T12:07:30Z</time>
      </trkpt>
      <trkpt lat="39.3386320" lon="-0.7001700">
        <ele>231.0</ele>
        <time>2018-09-16T12:07:31Z</time>
      </trkpt>
      <trkpt lat="39.3386320" lon="-0.7001700">
        <ele>231.0</ele>
        <time>2018-09-16T12:07:32Z</time>
      </trkpt>
      <trkpt lat="39.3388050" lon="-0.7002680">
        <ele>231.0</ele>
        <time>2018-09-16T12:07:33Z</time>
      </trkpt>
      <trkpt lat="39.3388050" lon="-0.7002680">
        <ele>231.0</ele>
        <time>2018-09-16T12:07:34Z</time>
      </trkpt>
      <trkpt lat="39.3389670" lon="-0.7003630">
        <ele>231.0</ele>
        <time>2018-09-16T12:07:35Z</time>
      </trkpt>
      <trkpt lat="39.3389670" lon="-0.7003630">
        <ele>231.0</ele>
        <time>2018-09-16T12:07:36Z</time>
      </trkpt>
      <trkpt lat="39.3391150" lon="-0.7004580">
        <ele>231.0</ele>
        <time>2018-09-16T12:07:37Z</time>
      </trkpt>
      <trkpt lat="39.3391150" lon="-0.7004580">
        <ele>230.0</ele>
        <time>2018-09-16T12:07:38Z</time>
      </trkpt>
      <trkpt lat="39.3392430" lon="-0.7005770">
        <ele>230.0</ele>
        <time>2018-09-16T12:07:39Z</time>
      </trkpt>
      <trkpt lat="39.3393000" lon="-0.7006500">
        <ele>230.0</ele>
        <time>2018-09-16T12:07:40Z</time>
      </trkpt>
      <trkpt lat="39.3393000" lon="-0.7006500">
        <ele>230.0</ele>
        <time>2018-09-16T12:07:41Z</time>
      </trkpt>
      <trkpt lat="39.3394180" lon="-0.7008100">
        <ele>230.0</ele>
        <time>2018-09-16T12:07:42Z</time>
      </trkpt>
      <trkpt lat="39.3394180" lon="-0.7008100">
        <ele>230.0</ele>
        <time>2018-09-16T12:07:43Z</time>
      </trkpt>
      <trkpt lat="39.3395520" lon="-0.7009680">
        <ele>229.0</ele>
        <time>2018-09-16T12:07:44Z</time>
      </trkpt>
      <trkpt lat="39.3395520" lon="-0.7009680">
        <ele>229.0</ele>
        <time>2018-09-16T12:07:45Z</time>
      </trkpt>
      <trkpt lat="39.3397230" lon="-0.7010580">
        <ele>229.0</ele>
        <time>2018-09-16T12:07:46Z</time>
      </trkpt>
      <trkpt lat="39.3397230" lon="-0.7010580">
        <ele>229.0</ele>
        <time>2018-09-16T12:07:47Z</time>
      </trkpt>
      <trkpt lat="39.3399100" lon="-0.7010980">
        <ele>229.0</ele>
        <time>2018-09-16T12:07:48Z</time>
      </trkpt>
      <trkpt lat="39.3400020" lon="-0.7011170">
        <ele>229.0</ele>
        <time>2018-09-16T12:07:49Z</time>
      </trkpt>
      <trkpt lat="39.3400020" lon="-0.7011170">
        <ele>229.0</ele>
        <time>2018-09-16T12:07:50Z</time>
      </trkpt>
      <trkpt lat="39.3401820" lon="-0.7011800">
        <ele>228.0</ele>
        <time>2018-09-16T12:07:51Z</time>
      </trkpt>
      <trkpt lat="39.3402670" lon="-0.7012320">
        <ele>228.0</ele>
        <time>2018-09-16T12:07:52Z</time>
      </trkpt>
      <trkpt lat="39.3402670" lon="-0.7012320">
        <ele>228.0</ele>
        <time>2018-09-16T12:07:53Z</time>
      </trkpt>
      <trkpt lat="39.3404300" lon="-0.7013520">
        <ele>228.0</ele>
        <time>2018-09-16T12:07:54Z</time>
      </trkpt>
      <trkpt lat="39.3405080" lon="-0.7014120">
        <ele>227.0</ele>
        <time>2018-09-16T12:07:55Z</time>
      </trkpt>
      <trkpt lat="39.3405080" lon="-0.7014120">
        <ele>227.0</ele>
        <time>2018-09-16T12:07:56Z</time>
      </trkpt>
      <trkpt lat="39.3406670" lon="-0.7015300">
        <ele>227.0</ele>
        <time>2018-09-16T12:07:57Z</time>
      </trkpt>
      <trkpt lat="39.3407450" lon="-0.7015880">
        <ele>227.0</ele>
        <time>2018-09-16T12:07:58Z</time>
      </trkpt>
      <trkpt lat="39.3407450" lon="-0.7015880">
        <ele>226.0</ele>
        <time>2018-09-16T12:07:59Z</time>
      </trkpt>
      <trkpt lat="39.3409000" lon="-0.7017000">
        <ele>226.0</ele>
        <time>2018-09-16T12:08:00Z</time>
      </trkpt>
      <trkpt lat="39.3409750" lon="-0.7017580">
        <ele>226.0</ele>
        <time>2018-09-16T12:08:01Z</time>
      </trkpt>
      <trkpt lat="39.3409750" lon="-0.7017580">
        <ele>226.0</ele>
        <time>2018-09-16T12:08:02Z</time>
      </trkpt>
      <trkpt lat="39.3411270" lon="-0.7018800">
        <ele>224.0</ele>
        <time>2018-09-16T12:08:03Z</time>
      </trkpt>
      <trkpt lat="39.3411270" lon="-0.7018800">
        <ele>224.0</ele>
        <time>2018-09-16T12:08:04Z</time>
      </trkpt>
      <trkpt lat="39.3412880" lon="-0.7019350">
        <ele>224.0</ele>
        <time>2018-09-16T12:08:05Z</time>
      </trkpt>
      <trkpt lat="39.3413680" lon="-0.7019150">
        <ele>224.0</ele>
        <time>2018-09-16T12:08:06Z</time>
      </trkpt>
      <trkpt lat="39.3413680" lon="-0.7019150">
        <ele>224.0</ele>
        <time>2018-09-16T12:08:07Z</time>
      </trkpt>
      <trkpt lat="39.3415200" lon="-0.7018600">
        <ele>224.0</ele>
        <time>2018-09-16T12:08:08Z</time>
      </trkpt>
      <trkpt lat="39.3415200" lon="-0.7018600">
        <ele>224.0</ele>
        <time>2018-09-16T12:08:09Z</time>
      </trkpt>
      <trkpt lat="39.3416670" lon="-0.7018100">
        <ele>224.0</ele>
        <time>2018-09-16T12:08:10Z</time>
      </trkpt>
      <trkpt lat="39.3417370" lon="-0.7017880">
        <ele>224.0</ele>
        <time>2018-09-16T12:08:11Z</time>
      </trkpt>
      <trkpt lat="39.3417370" lon="-0.7017880">
        <ele>224.0</ele>
        <time>2018-09-16T12:08:12Z</time>
      </trkpt>
      <trkpt lat="39.3418720" lon="-0.7017700">
        <ele>224.0</ele>
        <time>2018-09-16T12:08:13Z</time>
      </trkpt>
      <trkpt lat="39.3418720" lon="-0.7017700">
        <ele>224.0</ele>
        <time>2018-09-16T12:08:14Z</time>
      </trkpt>
      <trkpt lat="39.3420050" lon="-0.7018130">
        <ele>224.0</ele>
        <time>2018-09-16T12:08:15Z</time>
      </trkpt>
      <trkpt lat="39.3420050" lon="-0.7018130">
        <ele>224.0</ele>
        <time>2018-09-16T12:08:16Z</time>
      </trkpt>
      <trkpt lat="39.3421370" lon="-0.7018830">
        <ele>224.0</ele>
        <time>2018-09-16T12:08:17Z</time>
      </trkpt>
      <trkpt lat="39.3421370" lon="-0.7018830">
        <ele>224.0</ele>
        <time>2018-09-16T12:08:18Z</time>
      </trkpt>
      <trkpt lat="39.3422700" lon="-0.7019630">
        <ele>224.0</ele>
        <time>2018-09-16T12:08:19Z</time>
      </trkpt>
      <trkpt lat="39.3422700" lon="-0.7019630">
        <ele>224.0</ele>
        <time>2018-09-16T12:08:20Z</time>
      </trkpt>
      <trkpt lat="39.3424030" lon="-0.7020450">
        <ele>224.0</ele>
        <time>2018-09-16T12:08:21Z</time>
      </trkpt>
      <trkpt lat="39.3424720" lon="-0.7020880">
        <ele>224.0</ele>
        <time>2018-09-16T12:08:22Z</time>
      </trkpt>
      <trkpt lat="39.3424720" lon="-0.7020880">
        <ele>224.0</ele>
        <time>2018-09-16T12:08:23Z</time>
      </trkpt>
      <trkpt lat="39.3426070" lon="-0.7021750">
        <ele>224.0</ele>
        <time>2018-09-16T12:08:24Z</time>
      </trkpt>
      <trkpt lat="39.3426730" lon="-0.7022170">
        <ele>224.0</ele>
        <time>2018-09-16T12:08:25Z</time>
      </trkpt>
      <trkpt lat="39.3426730" lon="-0.7022170">
        <ele>224.0</ele>
        <time>2018-09-16T12:08:26Z</time>
      </trkpt>
      <trkpt lat="39.3428080" lon="-0.7023000">
        <ele>224.0</ele>
        <time>2018-09-16T12:08:27Z</time>
      </trkpt>
      <trkpt lat="39.3428750" lon="-0.7023420">
        <ele>223.0</ele>
        <time>2018-09-16T12:08:28Z</time>
      </trkpt>
      <trkpt lat="39.3428750" lon="-0.7023420">
        <ele>223.0</ele>
        <time>2018-09-16T12:08:29Z</time>
      </trkpt>
      <trkpt lat="39.3430150" lon="-0.7024330">
        <ele>223.0</ele>
        <time>2018-09-16T12:08:30Z</time>
      </trkpt>
      <trkpt lat="39.3430880" lon="-0.7024800">
        <ele>223.0</ele>
        <time>2018-09-16T12:08:31Z</time>
      </trkpt>
      <trkpt lat="39.3430880" lon="-0.7024800">
        <ele>222.0</ele>
        <time>2018-09-16T12:08:32Z</time>
      </trkpt>
      <trkpt lat="39.3432380" lon="-0.7025830">
        <ele>222.0</ele>
        <time>2018-09-16T12:08:33Z</time>
      </trkpt>
      <trkpt lat="39.3433170" lon="-0.7026370">
        <ele>222.0</ele>
        <time>2018-09-16T12:08:34Z</time>
      </trkpt>
      <trkpt lat="39.3433170" lon="-0.7026370">
        <ele>222.0</ele>
        <time>2018-09-16T12:08:35Z</time>
      </trkpt>
      <trkpt lat="39.3434870" lon="-0.7027250">
        <ele>221.0</ele>
        <time>2018-09-16T12:08:36Z</time>
      </trkpt>
      <trkpt lat="39.3435800" lon="-0.7027480">
        <ele>221.0</ele>
        <time>2018-09-16T12:08:37Z</time>
      </trkpt>
      <trkpt lat="39.3435800" lon="-0.7027480">
        <ele>219.0</ele>
        <time>2018-09-16T12:08:38Z</time>
      </trkpt>
      <trkpt lat="39.3437770" lon="-0.7027500">
        <ele>219.0</ele>
        <time>2018-09-16T12:08:39Z</time>
      </trkpt>
      <trkpt lat="39.3438780" lon="-0.7027380">
        <ele>218.0</ele>
        <time>2018-09-16T12:08:40Z</time>
      </trkpt>
      <trkpt lat="39.3438780" lon="-0.7027380">
        <ele>218.0</ele>
        <time>2018-09-16T12:08:41Z</time>
      </trkpt>
      <trkpt lat="39.3440880" lon="-0.7027150">
        <ele>217.0</ele>
        <time>2018-09-16T12:08:42Z</time>
      </trkpt>
      <trkpt lat="39.3441930" lon="-0.7027080">
        <ele>217.0</ele>
        <time>2018-09-16T12:08:43Z</time>
      </trkpt>
      <trkpt lat="39.3441930" lon="-0.7027080">
        <ele>216.0</ele>
        <time>2018-09-16T12:08:44Z</time>
      </trkpt>
      <trkpt lat="39.3444050" lon="-0.7027370">
        <ele>216.0</ele>
        <time>2018-09-16T12:08:45Z</time>
      </trkpt>
      <trkpt lat="39.3444050" lon="-0.7027370">
        <ele>215.0</ele>
        <time>2018-09-16T12:08:46Z</time>
      </trkpt>
      <trkpt lat="39.3445980" lon="-0.7028620">
        <ele>215.0</ele>
        <time>2018-09-16T12:08:47Z</time>
      </trkpt>
      <trkpt lat="39.3446880" lon="-0.7029470">
        <ele>214.0</ele>
        <time>2018-09-16T12:08:48Z</time>
      </trkpt>
      <trkpt lat="39.3447750" lon="-0.7030400">
        <ele>214.0</ele>
        <time>2018-09-16T12:08:49Z</time>
      </trkpt>
      <trkpt lat="39.3447750" lon="-0.7030400">
        <ele>213.0</ele>
        <time>2018-09-16T12:08:50Z</time>
      </trkpt>
      <trkpt lat="39.3449280" lon="-0.7032570">
        <ele>213.0</ele>
        <time>2018-09-16T12:08:51Z</time>
      </trkpt>
      <trkpt lat="39.3449280" lon="-0.7032570">
        <ele>212.0</ele>
        <time>2018-09-16T12:08:52Z</time>
      </trkpt>
      <trkpt lat="39.3450650" lon="-0.7034930">
        <ele>211.0</ele>
        <time>2018-09-16T12:08:53Z</time>
      </trkpt>
      <trkpt lat="39.3450650" lon="-0.7034930">
        <ele>211.0</ele>
        <time>2018-09-16T12:08:54Z</time>
      </trkpt>
      <trkpt lat="39.3452180" lon="-0.7037050">
        <ele>209.0</ele>
        <time>2018-09-16T12:08:55Z</time>
      </trkpt>
      <trkpt lat="39.3452180" lon="-0.7037050">
        <ele>209.0</ele>
        <time>2018-09-16T12:08:56Z</time>
      </trkpt>
      <trkpt lat="39.3453900" lon="-0.7038920">
        <ele>208.0</ele>
        <time>2018-09-16T12:08:57Z</time>
      </trkpt>
      <trkpt lat="39.3453900" lon="-0.7038920">
        <ele>208.0</ele>
        <time>2018-09-16T12:08:58Z</time>
      </trkpt>
      <trkpt lat="39.3455150" lon="-0.7041300">
        <ele>206.0</ele>
        <time>2018-09-16T12:08:59Z</time>
      </trkpt>
      <trkpt lat="39.3455150" lon="-0.7041300">
        <ele>206.0</ele>
        <time>2018-09-16T12:09:00Z</time>
      </trkpt>
      <trkpt lat="39.3456030" lon="-0.7043930">
        <ele>206.0</ele>
        <time>2018-09-16T12:09:01Z</time>
      </trkpt>
      <trkpt lat="39.3456030" lon="-0.7043930">
        <ele>206.0</ele>
        <time>2018-09-16T12:09:02Z</time>
      </trkpt>
      <trkpt lat="39.3457230" lon="-0.7046230">
        <ele>205.0</ele>
        <time>2018-09-16T12:09:03Z</time>
      </trkpt>
      <trkpt lat="39.3458030" lon="-0.7047130">
        <ele>205.0</ele>
        <time>2018-09-16T12:09:04Z</time>
      </trkpt>
      <trkpt lat="39.3458030" lon="-0.7047130">
        <ele>205.0</ele>
        <time>2018-09-16T12:09:05Z</time>
      </trkpt>
      <trkpt lat="39.3459770" lon="-0.7048800">
        <ele>205.0</ele>
        <time>2018-09-16T12:09:06Z</time>
      </trkpt>
      <trkpt lat="39.3460650" lon="-0.7049630">
        <ele>204.0</ele>
        <time>2018-09-16T12:09:07Z</time>
      </trkpt>
      <trkpt lat="39.3460650" lon="-0.7049630">
        <ele>204.0</ele>
        <time>2018-09-16T12:09:08Z</time>
      </trkpt>
      <trkpt lat="39.3462370" lon="-0.7051250">
        <ele>204.0</ele>
        <time>2018-09-16T12:09:09Z</time>
      </trkpt>
      <trkpt lat="39.3462370" lon="-0.7051250">
        <ele>204.0</ele>
        <time>2018-09-16T12:09:10Z</time>
      </trkpt>
      <trkpt lat="39.3464000" lon="-0.7052850">
        <ele>204.0</ele>
        <time>2018-09-16T12:09:11Z</time>
      </trkpt>
      <trkpt lat="39.3464800" lon="-0.7053620">
        <ele>204.0</ele>
        <time>2018-09-16T12:09:12Z</time>
      </trkpt>
      <trkpt lat="39.3465580" lon="-0.7054380">
        <ele>203.0</ele>
        <time>2018-09-16T12:09:13Z</time>
      </trkpt>
      <trkpt lat="39.3465580" lon="-0.7054380">
        <ele>203.0</ele>
        <time>2018-09-16T12:09:14Z</time>
      </trkpt>
      <trkpt lat="39.3467150" lon="-0.7055950">
        <ele>203.0</ele>
        <time>2018-09-16T12:09:15Z</time>
      </trkpt>
      <trkpt lat="39.3467930" lon="-0.7056720">
        <ele>203.0</ele>
        <time>2018-09-16T12:09:16Z</time>
      </trkpt>
      <trkpt lat="39.3467930" lon="-0.7056720">
        <ele>203.0</ele>
        <time>2018-09-16T12:09:17Z</time>
      </trkpt>
      <trkpt lat="39.3469500" lon="-0.7058150">
        <ele>203.0</ele>
        <time>2018-09-16T12:09:18Z</time>
      </trkpt>
      <trkpt lat="39.3470280" lon="-0.7058870">
        <ele>203.0</ele>
        <time>2018-09-16T12:09:19Z</time>
      </trkpt>
      <trkpt lat="39.3470280" lon="-0.7058870">
        <ele>203.0</ele>
        <time>2018-09-16T12:09:20Z</time>
      </trkpt>
      <trkpt lat="39.3471770" lon="-0.7060230">
        <ele>203.0</ele>
        <time>2018-09-16T12:09:21Z</time>
      </trkpt>
      <trkpt lat="39.3472500" lon="-0.7060920">
        <ele>203.0</ele>
        <time>2018-09-16T12:09:22Z</time>
      </trkpt>
      <trkpt lat="39.3472500" lon="-0.7060920">
        <ele>203.0</ele>
        <time>2018-09-16T12:09:23Z</time>
      </trkpt>
      <trkpt lat="39.3473920" lon="-0.7062250">
        <ele>203.0</ele>
        <time>2018-09-16T12:09:24Z</time>
      </trkpt>
      <trkpt lat="39.3474620" lon="-0.7062900">
        <ele>203.0</ele>
        <time>2018-09-16T12:09:25Z</time>
      </trkpt>
      <trkpt lat="39.3474620" lon="-0.7062900">
        <ele>202.0</ele>
        <time>2018-09-16T12:09:26Z</time>
      </trkpt>
      <trkpt lat="39.3476020" lon="-0.7064170">
        <ele>202.0</ele>
        <time>2018-09-16T12:09:27Z</time>
      </trkpt>
      <trkpt lat="39.3476020" lon="-0.7064170">
        <ele>202.0</ele>
        <time>2018-09-16T12:09:28Z</time>
      </trkpt>
      <trkpt lat="39.3477380" lon="-0.7065420">
        <ele>202.0</ele>
        <time>2018-09-16T12:09:29Z</time>
      </trkpt>
      <trkpt lat="39.3477380" lon="-0.7065420">
        <ele>202.0</ele>
        <time>2018-09-16T12:09:30Z</time>
      </trkpt>
      <trkpt lat="39.3478620" lon="-0.7066700">
        <ele>202.0</ele>
        <time>2018-09-16T12:09:31Z</time>
      </trkpt>
      <trkpt lat="39.3478620" lon="-0.7066700">
        <ele>202.0</ele>
        <time>2018-09-16T12:09:32Z</time>
      </trkpt>
      <trkpt lat="39.3479650" lon="-0.7068120">
        <ele>202.0</ele>
        <time>2018-09-16T12:09:33Z</time>
      </trkpt>
      <trkpt lat="39.3480080" lon="-0.7068870">
        <ele>202.0</ele>
        <time>2018-09-16T12:09:34Z</time>
      </trkpt>
      <trkpt lat="39.3480080" lon="-0.7068870">
        <ele>202.0</ele>
        <time>2018-09-16T12:09:35Z</time>
      </trkpt>
      <trkpt lat="39.3480700" lon="-0.7070550">
        <ele>202.0</ele>
        <time>2018-09-16T12:09:36Z</time>
      </trkpt>
      <trkpt lat="39.3480920" lon="-0.7071420">
        <ele>202.0</ele>
        <time>2018-09-16T12:09:37Z</time>
      </trkpt>
      <trkpt lat="39.3480920" lon="-0.7071420">
        <ele>202.0</ele>
        <time>2018-09-16T12:09:38Z</time>
      </trkpt>
      <trkpt lat="39.3481300" lon="-0.7073220">
        <ele>202.0</ele>
        <time>2018-09-16T12:09:39Z</time>
      </trkpt>
      <trkpt lat="39.3481300" lon="-0.7073220">
        <ele>202.0</ele>
        <time>2018-09-16T12:09:40Z</time>
      </trkpt>
      <trkpt lat="39.3481670" lon="-0.7074980">
        <ele>202.0</ele>
        <time>2018-09-16T12:09:41Z</time>
      </trkpt>
      <trkpt lat="39.3481670" lon="-0.7074980">
        <ele>202.0</ele>
        <time>2018-09-16T12:09:42Z</time>
      </trkpt>
      <trkpt lat="39.3482030" lon="-0.7076750">
        <ele>202.0</ele>
        <time>2018-09-16T12:09:43Z</time>
      </trkpt>
      <trkpt lat="39.3482030" lon="-0.7076750">
        <ele>202.0</ele>
        <time>2018-09-16T12:09:44Z</time>
      </trkpt>
      <trkpt lat="39.3482400" lon="-0.7078530">
        <ele>202.0</ele>
        <time>2018-09-16T12:09:45Z</time>
      </trkpt>
      <trkpt lat="39.3482580" lon="-0.7079430">
        <ele>203.0</ele>
        <time>2018-09-16T12:09:46Z</time>
      </trkpt>
      <trkpt lat="39.3482580" lon="-0.7079430">
        <ele>203.0</ele>
        <time>2018-09-16T12:09:47Z</time>
      </trkpt>
      <trkpt lat="39.3482930" lon="-0.7081220">
        <ele>203.0</ele>
        <time>2018-09-16T12:09:48Z</time>
      </trkpt>
      <trkpt lat="39.3483080" lon="-0.7082120">
        <ele>203.0</ele>
        <time>2018-09-16T12:09:49Z</time>
      </trkpt>
      <trkpt lat="39.3483080" lon="-0.7082120">
        <ele>203.0</ele>
        <time>2018-09-16T12:09:50Z</time>
      </trkpt>
      <trkpt lat="39.3483470" lon="-0.7083870">
        <ele>203.0</ele>
        <time>2018-09-16T12:09:51Z</time>
      </trkpt>
      <trkpt lat="39.3483650" lon="-0.7084750">
        <ele>203.0</ele>
        <time>2018-09-16T12:09:52Z</time>
      </trkpt>
      <trkpt lat="39.3483650" lon="-0.7084750">
        <ele>203.0</ele>
        <time>2018-09-16T12:09:53Z</time>
      </trkpt>
      <trkpt lat="39.3484020" lon="-0.7086480">
        <ele>203.0</ele>
        <time>2018-09-16T12:09:54Z</time>
      </trkpt>
      <trkpt lat="39.3484200" lon="-0.7087350">
        <ele>203.0</ele>
        <time>2018-09-16T12:09:55Z</time>
      </trkpt>
      <trkpt lat="39.3484200" lon="-0.7087350">
        <ele>203.0</ele>
        <time>2018-09-16T12:09:56Z</time>
      </trkpt>
      <trkpt lat="39.3484570" lon="-0.7089050">
        <ele>203.0</ele>
        <time>2018-09-16T12:09:57Z</time>
      </trkpt>
      <trkpt lat="39.3484570" lon="-0.7089050">
        <ele>203.0</ele>
        <time>2018-09-16T12:09:58Z</time>
      </trkpt>
      <trkpt lat="39.3485050" lon="-0.7090630">
        <ele>203.0</ele>
        <time>2018-09-16T12:09:59Z</time>
      </trkpt>
      <trkpt lat="39.3485050" lon="-0.7090630">
        <ele>203.0</ele>
        <time>2018-09-16T12:10:00Z</time>
      </trkpt>
      <trkpt lat="39.3485730" lon="-0.7092050">
        <ele>203.0</ele>
        <time>2018-09-16T12:10:01Z</time>
      </trkpt>
      <trkpt lat="39.3485730" lon="-0.7092050">
        <ele>203.0</ele>
        <time>2018-09-16T12:10:02Z</time>
      </trkpt>
      <trkpt lat="39.3486580" lon="-0.7093250">
        <ele>203.0</ele>
        <time>2018-09-16T12:10:03Z</time>
      </trkpt>
      <trkpt lat="39.3486580" lon="-0.7093250">
        <ele>203.0</ele>
        <time>2018-09-16T12:10:04Z</time>
      </trkpt>
      <trkpt lat="39.3487570" lon="-0.7094220">
        <ele>203.0</ele>
        <time>2018-09-16T12:10:05Z</time>
      </trkpt>
      <trkpt lat="39.3487570" lon="-0.7094220">
        <ele>203.0</ele>
        <time>2018-09-16T12:10:06Z</time>
      </trkpt>
      <trkpt lat="39.3488630" lon="-0.7095000">
        <ele>203.0</ele>
        <time>2018-09-16T12:10:07Z</time>
      </trkpt>
      <trkpt lat="39.3488630" lon="-0.7095000">
        <ele>203.0</ele>
        <time>2018-09-16T12:10:08Z</time>
      </trkpt>
      <trkpt lat="39.3489700" lon="-0.7095730">
        <ele>203.0</ele>
        <time>2018-09-16T12:10:09Z</time>
      </trkpt>
      <trkpt lat="39.3489700" lon="-0.7095730">
        <ele>203.0</ele>
        <time>2018-09-16T12:10:10Z</time>
      </trkpt>
      <trkpt lat="39.3490730" lon="-0.7096480">
        <ele>203.0</ele>
        <time>2018-09-16T12:10:11Z</time>
      </trkpt>
      <trkpt lat="39.3490730" lon="-0.7096480">
        <ele>203.0</ele>
        <time>2018-09-16T12:10:12Z</time>
      </trkpt>
      <trkpt lat="39.3491770" lon="-0.7097230">
        <ele>203.0</ele>
        <time>2018-09-16T12:10:13Z</time>
      </trkpt>
      <trkpt lat="39.3491770" lon="-0.7097230">
        <ele>203.0</ele>
        <time>2018-09-16T12:10:14Z</time>
      </trkpt>
      <trkpt lat="39.3492800" lon="-0.7097980">
        <ele>203.0</ele>
        <time>2018-09-16T12:10:15Z</time>
      </trkpt>
      <trkpt lat="39.3492800" lon="-0.7097980">
        <ele>203.0</ele>
        <time>2018-09-16T12:10:16Z</time>
      </trkpt>
      <trkpt lat="39.3493830" lon="-0.7098750">
        <ele>204.0</ele>
        <time>2018-09-16T12:10:17Z</time>
      </trkpt>
      <trkpt lat="39.3493830" lon="-0.7098750">
        <ele>204.0</ele>
        <time>2018-09-16T12:10:18Z</time>
      </trkpt>
      <trkpt lat="39.3494920" lon="-0.7099530">
        <ele>204.0</ele>
        <time>2018-09-16T12:10:19Z</time>
      </trkpt>
      <trkpt lat="39.3494920" lon="-0.7099530">
        <ele>204.0</ele>
        <time>2018-09-16T12:10:20Z</time>
      </trkpt>
      <trkpt lat="39.3496030" lon="-0.7100320">
        <ele>204.0</ele>
        <time>2018-09-16T12:10:21Z</time>
      </trkpt>
      <trkpt lat="39.3496030" lon="-0.7100320">
        <ele>204.0</ele>
        <time>2018-09-16T12:10:22Z</time>
      </trkpt>
      <trkpt lat="39.3497180" lon="-0.7101050">
        <ele>204.0</ele>
        <time>2018-09-16T12:10:23Z</time>
      </trkpt>
      <trkpt lat="39.3497770" lon="-0.7101420">
        <ele>204.0</ele>
        <time>2018-09-16T12:10:24Z</time>
      </trkpt>
      <trkpt lat="39.3498350" lon="-0.7101780">
        <ele>204.0</ele>
        <time>2018-09-16T12:10:25Z</time>
      </trkpt>
      <trkpt lat="39.3498350" lon="-0.7101780">
        <ele>204.0</ele>
        <time>2018-09-16T12:10:26Z</time>
      </trkpt>
      <trkpt lat="39.3499500" lon="-0.7102570">
        <ele>204.0</ele>
        <time>2018-09-16T12:10:27Z</time>
      </trkpt>
      <trkpt lat="39.3500080" lon="-0.7102970">
        <ele>204.0</ele>
        <time>2018-09-16T12:10:28Z</time>
      </trkpt>
      <trkpt lat="39.3500080" lon="-0.7102970">
        <ele>204.0</ele>
        <time>2018-09-16T12:10:29Z</time>
      </trkpt>
      <trkpt lat="39.3501230" lon="-0.7103770">
        <ele>204.0</ele>
        <time>2018-09-16T12:10:30Z</time>
      </trkpt>
      <trkpt lat="39.3501800" lon="-0.7104170">
        <ele>204.0</ele>
        <time>2018-09-16T12:10:31Z</time>
      </trkpt>
      <trkpt lat="39.3501800" lon="-0.7104170">
        <ele>204.0</ele>
        <time>2018-09-16T12:10:32Z</time>
      </trkpt>
      <trkpt lat="39.3502950" lon="-0.7104950">
        <ele>204.0</ele>
        <time>2018-09-16T12:10:33Z</time>
      </trkpt>
      <trkpt lat="39.3503520" lon="-0.7105350">
        <ele>204.0</ele>
        <time>2018-09-16T12:10:34Z</time>
      </trkpt>
      <trkpt lat="39.3503520" lon="-0.7105350">
        <ele>204.0</ele>
        <time>2018-09-16T12:10:35Z</time>
      </trkpt>
      <trkpt lat="39.3504650" lon="-0.7106150">
        <ele>204.0</ele>
        <time>2018-09-16T12:10:36Z</time>
      </trkpt>
      <trkpt lat="39.3505220" lon="-0.7106570">
        <ele>204.0</ele>
        <time>2018-09-16T12:10:37Z</time>
      </trkpt>
      <trkpt lat="39.3505220" lon="-0.7106570">
        <ele>204.0</ele>
        <time>2018-09-16T12:10:38Z</time>
      </trkpt>
      <trkpt lat="39.3506350" lon="-0.7107430">
        <ele>204.0</ele>
        <time>2018-09-16T12:10:39Z</time>
      </trkpt>
      <trkpt lat="39.3506900" lon="-0.7107900">
        <ele>204.0</ele>
        <time>2018-09-16T12:10:40Z</time>
      </trkpt>
      <trkpt lat="39.3506900" lon="-0.7107900">
        <ele>204.0</ele>
        <time>2018-09-16T12:10:41Z</time>
      </trkpt>
      <trkpt lat="39.3507880" lon="-0.7109030">
        <ele>204.0</ele>
        <time>2018-09-16T12:10:42Z</time>
      </trkpt>
      <trkpt lat="39.3508330" lon="-0.7109670">
        <ele>204.0</ele>
        <time>2018-09-16T12:10:43Z</time>
      </trkpt>
      <trkpt lat="39.3508330" lon="-0.7109670">
        <ele>204.0</ele>
        <time>2018-09-16T12:10:44Z</time>
      </trkpt>
      <trkpt lat="39.3509130" lon="-0.7111050">
        <ele>204.0</ele>
        <time>2018-09-16T12:10:45Z</time>
      </trkpt>
      <trkpt lat="39.3509130" lon="-0.7111050">
        <ele>204.0</ele>
        <time>2018-09-16T12:10:46Z</time>
      </trkpt>
      <trkpt lat="39.3509850" lon="-0.7112550">
        <ele>204.0</ele>
        <time>2018-09-16T12:10:47Z</time>
      </trkpt>
      <trkpt lat="39.3509850" lon="-0.7112550">
        <ele>204.0</ele>
        <time>2018-09-16T12:10:48Z</time>
      </trkpt>
      <trkpt lat="39.3510550" lon="-0.7114130">
        <ele>204.0</ele>
        <time>2018-09-16T12:10:49Z</time>
      </trkpt>
      <trkpt lat="39.3510550" lon="-0.7114130">
        <ele>204.0</ele>
        <time>2018-09-16T12:10:50Z</time>
      </trkpt>
      <trkpt lat="39.3511250" lon="-0.7115770">
        <ele>204.0</ele>
        <time>2018-09-16T12:10:51Z</time>
      </trkpt>
      <trkpt lat="39.3511600" lon="-0.7116600">
        <ele>204.0</ele>
        <time>2018-09-16T12:10:52Z</time>
      </trkpt>
      <trkpt lat="39.3511600" lon="-0.7116600">
        <ele>204.0</ele>
        <time>2018-09-16T12:10:53Z</time>
      </trkpt>
      <trkpt lat="39.3512330" lon="-0.7118280">
        <ele>204.0</ele>
        <time>2018-09-16T12:10:54Z</time>
      </trkpt>
      <trkpt lat="39.3512700" lon="-0.7119130">
        <ele>203.0</ele>
        <time>2018-09-16T12:10:55Z</time>
      </trkpt>
      <trkpt lat="39.3512700" lon="-0.7119130">
        <ele>203.0</ele>
        <time>2018-09-16T12:10:56Z</time>
      </trkpt>
      <trkpt lat="39.3513450" lon="-0.7120830">
        <ele>203.0</ele>
        <time>2018-09-16T12:10:57Z</time>
      </trkpt>
      <trkpt lat="39.3513820" lon="-0.7121700">
        <ele>203.0</ele>
        <time>2018-09-16T12:10:58Z</time>
      </trkpt>
      <trkpt lat="39.3513820" lon="-0.7121700">
        <ele>203.0</ele>
        <time>2018-09-16T12:10:59Z</time>
      </trkpt>
      <trkpt lat="39.3514580" lon="-0.7123370">
        <ele>203.0</ele>
        <time>2018-09-16T12:11:00Z</time>
      </trkpt>
      <trkpt lat="39.3514970" lon="-0.7124180">
        <ele>203.0</ele>
        <time>2018-09-16T12:11:01Z</time>
      </trkpt>
      <trkpt lat="39.3514970" lon="-0.7124180">
        <ele>203.0</ele>
        <time>2018-09-16T12:11:02Z</time>
      </trkpt>
      <trkpt lat="39.3515670" lon="-0.7125770">
        <ele>203.0</ele>
        <time>2018-09-16T12:11:03Z</time>
      </trkpt>
      <trkpt lat="39.3516000" lon="-0.7126570">
        <ele>203.0</ele>
        <time>2018-09-16T12:11:04Z</time>
      </trkpt>
      <trkpt lat="39.3516000" lon="-0.7126570">
        <ele>203.0</ele>
        <time>2018-09-16T12:11:05Z</time>
      </trkpt>
      <trkpt lat="39.3516630" lon="-0.7128030">
        <ele>203.0</ele>
        <time>2018-09-16T12:11:06Z</time>
      </trkpt>
      <trkpt lat="39.3516930" lon="-0.7128730">
        <ele>203.0</ele>
        <time>2018-09-16T12:11:07Z</time>
      </trkpt>
      <trkpt lat="39.3516930" lon="-0.7128730">
        <ele>203.0</ele>
        <time>2018-09-16T12:11:08Z</time>
      </trkpt>
      <trkpt lat="39.3517500" lon="-0.7130070">
        <ele>203.0</ele>
        <time>2018-09-16T12:11:09Z</time>
      </trkpt>
      <trkpt lat="39.3517500" lon="-0.7130070">
        <ele>203.0</ele>
        <time>2018-09-16T12:11:10Z</time>
      </trkpt>
      <trkpt lat="39.3518070" lon="-0.7131300">
        <ele>203.0</ele>
        <time>2018-09-16T12:11:11Z</time>
      </trkpt>
      <trkpt lat="39.3518070" lon="-0.7131300">
        <ele>204.0</ele>
        <time>2018-09-16T12:11:12Z</time>
      </trkpt>
      <trkpt lat="39.3518650" lon="-0.7132480">
        <ele>204.0</ele>
        <time>2018-09-16T12:11:13Z</time>
      </trkpt>
      <trkpt lat="39.3518650" lon="-0.7132480">
        <ele>204.0</ele>
        <time>2018-09-16T12:11:14Z</time>
      </trkpt>
      <trkpt lat="39.3519270" lon="-0.7133670">
        <ele>204.0</ele>
        <time>2018-09-16T12:11:15Z</time>
      </trkpt>
      <trkpt lat="39.3519570" lon="-0.7134230">
        <ele>205.0</ele>
        <time>2018-09-16T12:11:16Z</time>
      </trkpt>
      <trkpt lat="39.3519570" lon="-0.7134230">
        <ele>205.0</ele>
        <time>2018-09-16T12:11:17Z</time>
      </trkpt>
      <trkpt lat="39.3520220" lon="-0.7135330">
        <ele>205.0</ele>
        <time>2018-09-16T12:11:18Z</time>
      </trkpt>
      <trkpt lat="39.3520570" lon="-0.7135830">
        <ele>205.0</ele>
        <time>2018-09-16T12:11:19Z</time>
      </trkpt>
      <trkpt lat="39.3520570" lon="-0.7135830">
        <ele>205.0</ele>
        <time>2018-09-16T12:11:20Z</time>
      </trkpt>
      <trkpt lat="39.3521280" lon="-0.7136850">
        <ele>205.0</ele>
        <time>2018-09-16T12:11:21Z</time>
      </trkpt>
      <trkpt lat="39.3521280" lon="-0.7136850">
        <ele>206.0</ele>
        <time>2018-09-16T12:11:22Z</time>
      </trkpt>
      <trkpt lat="39.3522020" lon="-0.7137850">
        <ele>206.0</ele>
        <time>2018-09-16T12:11:23Z</time>
      </trkpt>
      <trkpt lat="39.3522020" lon="-0.7137850">
        <ele>206.0</ele>
        <time>2018-09-16T12:11:24Z</time>
      </trkpt>
      <trkpt lat="39.3522720" lon="-0.7138780">
        <ele>206.0</ele>
        <time>2018-09-16T12:11:25Z</time>
      </trkpt>
      <trkpt lat="39.3523080" lon="-0.7139250">
        <ele>206.0</ele>
        <time>2018-09-16T12:11:26Z</time>
      </trkpt>
      <trkpt lat="39.3523080" lon="-0.7139250">
        <ele>206.0</ele>
        <time>2018-09-16T12:11:27Z</time>
      </trkpt>
      <trkpt lat="39.3523820" lon="-0.7140200">
        <ele>206.0</ele>
        <time>2018-09-16T12:11:28Z</time>
      </trkpt>
      <trkpt lat="39.3524180" lon="-0.7140680">
        <ele>207.0</ele>
        <time>2018-09-16T12:11:29Z</time>
      </trkpt>
      <trkpt lat="39.3524180" lon="-0.7140680">
        <ele>207.0</ele>
        <time>2018-09-16T12:11:30Z</time>
      </trkpt>
      <trkpt lat="39.3524930" lon="-0.7141670">
        <ele>207.0</ele>
        <time>2018-09-16T12:11:31Z</time>
      </trkpt>
      <trkpt lat="39.3524930" lon="-0.7141670">
        <ele>207.0</ele>
        <time>2018-09-16T12:11:32Z</time>
      </trkpt>
      <trkpt lat="39.3525650" lon="-0.7142650">
        <ele>207.0</ele>
        <time>2018-09-16T12:11:33Z</time>
      </trkpt>
      <trkpt lat="39.3526020" lon="-0.7143130">
        <ele>207.0</ele>
        <time>2018-09-16T12:11:34Z</time>
      </trkpt>
      <trkpt lat="39.3526020" lon="-0.7143130">
        <ele>207.0</ele>
        <time>2018-09-16T12:11:35Z</time>
      </trkpt>
      <trkpt lat="39.3526770" lon="-0.7144070">
        <ele>207.0</ele>
        <time>2018-09-16T12:11:36Z</time>
      </trkpt>
      <trkpt lat="39.3527150" lon="-0.7144530">
        <ele>207.0</ele>
        <time>2018-09-16T12:11:37Z</time>
      </trkpt>
      <trkpt lat="39.3527150" lon="-0.7144530">
        <ele>207.0</ele>
        <time>2018-09-16T12:11:38Z</time>
      </trkpt>
      <trkpt lat="39.3527930" lon="-0.7145420">
        <ele>207.0</ele>
        <time>2018-09-16T12:11:39Z</time>
      </trkpt>
      <trkpt lat="39.3527930" lon="-0.7145420">
        <ele>207.0</ele>
        <time>2018-09-16T12:11:40Z</time>
      </trkpt>
      <trkpt lat="39.3528800" lon="-0.7146200">
        <ele>207.0</ele>
        <time>2018-09-16T12:11:41Z</time>
      </trkpt>
      <trkpt lat="39.3529250" lon="-0.7146550">
        <ele>207.0</ele>
        <time>2018-09-16T12:11:42Z</time>
      </trkpt>
      <trkpt lat="39.3529700" lon="-0.7146870">
        <ele>207.0</ele>
        <time>2018-09-16T12:11:43Z</time>
      </trkpt>
      <trkpt lat="39.3529700" lon="-0.7146870">
        <ele>207.0</ele>
        <time>2018-09-16T12:11:44Z</time>
      </trkpt>
      <trkpt lat="39.3530650" lon="-0.7147400">
        <ele>208.0</ele>
        <time>2018-09-16T12:11:45Z</time>
      </trkpt>
      <trkpt lat="39.3530650" lon="-0.7147400">
        <ele>208.0</ele>
        <time>2018-09-16T12:11:46Z</time>
      </trkpt>
      <trkpt lat="39.3531630" lon="-0.7147850">
        <ele>208.0</ele>
        <time>2018-09-16T12:11:47Z</time>
      </trkpt>
      <trkpt lat="39.3531630" lon="-0.7147850">
        <ele>208.0</ele>
        <time>2018-09-16T12:11:48Z</time>
      </trkpt>
      <trkpt lat="39.3532670" lon="-0.7148180">
        <ele>208.0</ele>
        <time>2018-09-16T12:11:49Z</time>
      </trkpt>
      <trkpt lat="39.3533180" lon="-0.7148330">
        <ele>208.0</ele>
        <time>2018-09-16T12:11:50Z</time>
      </trkpt>
      <trkpt lat="39.3533180" lon="-0.7148330">
        <ele>208.0</ele>
        <time>2018-09-16T12:11:51Z</time>
      </trkpt>
      <trkpt lat="39.3534230" lon="-0.7148580">
        <ele>208.0</ele>
        <time>2018-09-16T12:11:52Z</time>
      </trkpt>
      <trkpt lat="39.3534750" lon="-0.7148730">
        <ele>208.0</ele>
        <time>2018-09-16T12:11:53Z</time>
      </trkpt>
      <trkpt lat="39.3534750" lon="-0.7148730">
        <ele>208.0</ele>
        <time>2018-09-16T12:11:54Z</time>
      </trkpt>
      <trkpt lat="39.3535800" lon="-0.7149000">
        <ele>208.0</ele>
        <time>2018-09-16T12:11:55Z</time>
      </trkpt>
      <trkpt lat="39.3535800" lon="-0.7149000">
        <ele>208.0</ele>
        <time>2018-09-16T12:11:56Z</time>
      </trkpt>
      <trkpt lat="39.3536850" lon="-0.7149270">
        <ele>208.0</ele>
        <time>2018-09-16T12:11:57Z</time>
      </trkpt>
      <trkpt lat="39.3536850" lon="-0.7149270">
        <ele>208.0</ele>
        <time>2018-09-16T12:11:58Z</time>
      </trkpt>
      <trkpt lat="39.3537900" lon="-0.7149520">
        <ele>208.0</ele>
        <time>2018-09-16T12:11:59Z</time>
      </trkpt>
      <trkpt lat="39.3537900" lon="-0.7149520">
        <ele>208.0</ele>
        <time>2018-09-16T12:12:00Z</time>
      </trkpt>
      <trkpt lat="39.3538950" lon="-0.7149800">
        <ele>208.0</ele>
        <time>2018-09-16T12:12:01Z</time>
      </trkpt>
      <trkpt lat="39.3538950" lon="-0.7149800">
        <ele>208.0</ele>
        <time>2018-09-16T12:12:02Z</time>
      </trkpt>
      <trkpt lat="39.3539980" lon="-0.7150050">
        <ele>209.0</ele>
        <time>2018-09-16T12:12:03Z</time>
      </trkpt>
      <trkpt lat="39.3539980" lon="-0.7150050">
        <ele>209.0</ele>
        <time>2018-09-16T12:12:04Z</time>
      </trkpt>
      <trkpt lat="39.3541000" lon="-0.7150320">
        <ele>209.0</ele>
        <time>2018-09-16T12:12:05Z</time>
      </trkpt>
      <trkpt lat="39.3541000" lon="-0.7150320">
        <ele>209.0</ele>
        <time>2018-09-16T12:12:06Z</time>
      </trkpt>
      <trkpt lat="39.3541980" lon="-0.7150580">
        <ele>210.0</ele>
        <time>2018-09-16T12:12:07Z</time>
      </trkpt>
      <trkpt lat="39.3541980" lon="-0.7150580">
        <ele>210.0</ele>
        <time>2018-09-16T12:12:08Z</time>
      </trkpt>
      <trkpt lat="39.3542950" lon="-0.7150750">
        <ele>210.0</ele>
        <time>2018-09-16T12:12:09Z</time>
      </trkpt>
      <trkpt lat="39.3542950" lon="-0.7150750">
        <ele>210.0</ele>
        <time>2018-09-16T12:12:10Z</time>
      </trkpt>
      <trkpt lat="39.3543880" lon="-0.7150830">
        <ele>210.0</ele>
        <time>2018-09-16T12:12:11Z</time>
      </trkpt>
      <trkpt lat="39.3543880" lon="-0.7150830">
        <ele>210.0</ele>
        <time>2018-09-16T12:12:12Z</time>
      </trkpt>
      <trkpt lat="39.3544800" lon="-0.7150770">
        <ele>211.0</ele>
        <time>2018-09-16T12:12:13Z</time>
      </trkpt>
      <trkpt lat="39.3544800" lon="-0.7150770">
        <ele>211.0</ele>
        <time>2018-09-16T12:12:14Z</time>
      </trkpt>
      <trkpt lat="39.3545730" lon="-0.7150600">
        <ele>211.0</ele>
        <time>2018-09-16T12:12:15Z</time>
      </trkpt>
      <trkpt lat="39.3546200" lon="-0.7150480">
        <ele>211.0</ele>
        <time>2018-09-16T12:12:16Z</time>
      </trkpt>
      <trkpt lat="39.3546200" lon="-0.7150480">
        <ele>211.0</ele>
        <time>2018-09-16T12:12:17Z</time>
      </trkpt>
      <trkpt lat="39.3547120" lon="-0.7150270">
        <ele>211.0</ele>
        <time>2018-09-16T12:12:18Z</time>
      </trkpt>
      <trkpt lat="39.3547570" lon="-0.7150150">
        <ele>211.0</ele>
        <time>2018-09-16T12:12:19Z</time>
      </trkpt>
      <trkpt lat="39.3547570" lon="-0.7150150">
        <ele>211.0</ele>
        <time>2018-09-16T12:12:20Z</time>
      </trkpt>
      <trkpt lat="39.3548480" lon="-0.7149930">
        <ele>211.0</ele>
        <time>2018-09-16T12:12:21Z</time>
      </trkpt>
      <trkpt lat="39.3548480" lon="-0.7149930">
        <ele>211.0</ele>
        <time>2018-09-16T12:12:22Z</time>
      </trkpt>
      <trkpt lat="39.3549400" lon="-0.7149700">
        <ele>211.0</ele>
        <time>2018-09-16T12:12:23Z</time>
      </trkpt>
      <trkpt lat="39.3549400" lon="-0.7149700">
        <ele>212.0</ele>
        <time>2018-09-16T12:12:24Z</time>
      </trkpt>
      <trkpt lat="39.3549850" lon="-0.7149590">
        <ele>212.0</ele>
        <time>2018-09-16T12:12:25Z</time>
      </trkpt>
      <trkpt lat="39.3550300" lon="-0.7149470">
        <ele>212.0</ele>
        <time>2018-09-16T12:12:26Z</time>
      </trkpt>
      <trkpt lat="39.3551200" lon="-0.7149200">
        <ele>212.0</ele>
        <time>2018-09-16T12:12:27Z</time>
      </trkpt>
      <trkpt lat="39.3551200" lon="-0.7149200">
        <ele>212.0</ele>
        <time>2018-09-16T12:12:28Z</time>
      </trkpt>
      <trkpt lat="39.3552150" lon="-0.7148970">
        <ele>212.0</ele>
        <time>2018-09-16T12:12:29Z</time>
      </trkpt>
      <trkpt lat="39.3552150" lon="-0.7148970">
        <ele>212.0</ele>
        <time>2018-09-16T12:12:30Z</time>
      </trkpt>
      <trkpt lat="39.3553150" lon="-0.7148730">
        <ele>212.0</ele>
        <time>2018-09-16T12:12:31Z</time>
      </trkpt>
      <trkpt lat="39.3553150" lon="-0.7148730">
        <ele>212.0</ele>
        <time>2018-09-16T12:12:32Z</time>
      </trkpt>
      <trkpt lat="39.3554150" lon="-0.7148500">
        <ele>212.0</ele>
        <time>2018-09-16T12:12:33Z</time>
      </trkpt>
      <trkpt lat="39.3554150" lon="-0.7148500">
        <ele>212.0</ele>
        <time>2018-09-16T12:12:34Z</time>
      </trkpt>
      <trkpt lat="39.3555170" lon="-0.7148270">
        <ele>212.0</ele>
        <time>2018-09-16T12:12:35Z</time>
      </trkpt>
      <trkpt lat="39.3555680" lon="-0.7148150">
        <ele>212.0</ele>
        <time>2018-09-16T12:12:36Z</time>
      </trkpt>
      <trkpt lat="39.3556180" lon="-0.7148000">
        <ele>212.0</ele>
        <time>2018-09-16T12:12:37Z</time>
      </trkpt>
      <trkpt lat="39.3556180" lon="-0.7148000">
        <ele>212.0</ele>
        <time>2018-09-16T12:12:38Z</time>
      </trkpt>
      <trkpt lat="39.3557200" lon="-0.7147730">
        <ele>212.0</ele>
        <time>2018-09-16T12:12:39Z</time>
      </trkpt>
      <trkpt lat="39.3557200" lon="-0.7147730">
        <ele>212.0</ele>
        <time>2018-09-16T12:12:40Z</time>
      </trkpt>
      <trkpt lat="39.3558200" lon="-0.7147500">
        <ele>212.0</ele>
        <time>2018-09-16T12:12:41Z</time>
      </trkpt>
      <trkpt lat="39.3558200" lon="-0.7147500">
        <ele>212.0</ele>
        <time>2018-09-16T12:12:42Z</time>
      </trkpt>
      <trkpt lat="39.3559180" lon="-0.7147270">
        <ele>212.0</ele>
        <time>2018-09-16T12:12:43Z</time>
      </trkpt>
      <trkpt lat="39.3559180" lon="-0.7147270">
        <ele>212.0</ele>
        <time>2018-09-16T12:12:44Z</time>
      </trkpt>
      <trkpt lat="39.3560180" lon="-0.7147000">
        <ele>212.0</ele>
        <time>2018-09-16T12:12:45Z</time>
      </trkpt>
      <trkpt lat="39.3560180" lon="-0.7147000">
        <ele>212.0</ele>
        <time>2018-09-16T12:12:46Z</time>
      </trkpt>
      <trkpt lat="39.3561170" lon="-0.7146750">
        <ele>212.0</ele>
        <time>2018-09-16T12:12:47Z</time>
      </trkpt>
      <trkpt lat="39.3561170" lon="-0.7146750">
        <ele>213.0</ele>
        <time>2018-09-16T12:12:48Z</time>
      </trkpt>
      <trkpt lat="39.3562120" lon="-0.7146520">
        <ele>213.0</ele>
        <time>2018-09-16T12:12:49Z</time>
      </trkpt>
      <trkpt lat="39.3562120" lon="-0.7146520">
        <ele>213.0</ele>
        <time>2018-09-16T12:12:50Z</time>
      </trkpt>
      <trkpt lat="39.3562970" lon="-0.7146270">
        <ele>213.0</ele>
        <time>2018-09-16T12:12:51Z</time>
      </trkpt>
      <trkpt lat="39.3562970" lon="-0.7146270">
        <ele>214.0</ele>
        <time>2018-09-16T12:12:52Z</time>
      </trkpt>
      <trkpt lat="39.3563820" lon="-0.7146000">
        <ele>214.0</ele>
        <time>2018-09-16T12:12:53Z</time>
      </trkpt>
      <trkpt lat="39.3563820" lon="-0.7146000">
        <ele>214.0</ele>
        <time>2018-09-16T12:12:54Z</time>
      </trkpt>
      <trkpt lat="39.3564650" lon="-0.7145830">
        <ele>214.0</ele>
        <time>2018-09-16T12:12:55Z</time>
      </trkpt>
      <trkpt lat="39.3564650" lon="-0.7145830">
        <ele>215.0</ele>
        <time>2018-09-16T12:12:56Z</time>
      </trkpt>
      <trkpt lat="39.3565370" lon="-0.7145780">
        <ele>215.0</ele>
        <time>2018-09-16T12:12:57Z</time>
      </trkpt>
      <trkpt lat="39.3565370" lon="-0.7145780">
        <ele>215.0</ele>
        <time>2018-09-16T12:12:58Z</time>
      </trkpt>
      <trkpt lat="39.3566080" lon="-0.7145720">
        <ele>215.0</ele>
        <time>2018-09-16T12:12:59Z</time>
      </trkpt>
      <trkpt lat="39.3566080" lon="-0.7145720">
        <ele>215.0</ele>
        <time>2018-09-16T12:13:00Z</time>
      </trkpt>
      <trkpt lat="39.3566800" lon="-0.7145700">
        <ele>215.0</ele>
        <time>2018-09-16T12:13:01Z</time>
      </trkpt>
      <trkpt lat="39.3566800" lon="-0.7145700">
        <ele>215.0</ele>
        <time>2018-09-16T12:13:02Z</time>
      </trkpt>
      <trkpt lat="39.3567470" lon="-0.7145700">
        <ele>215.0</ele>
        <time>2018-09-16T12:13:03Z</time>
      </trkpt>
      <trkpt lat="39.3567470" lon="-0.7145700">
        <ele>216.0</ele>
        <time>2018-09-16T12:13:04Z</time>
      </trkpt>
      <trkpt lat="39.3568100" lon="-0.7145720">
        <ele>216.0</ele>
        <time>2018-09-16T12:13:05Z</time>
      </trkpt>
      <trkpt lat="39.3568400" lon="-0.7145750">
        <ele>216.0</ele>
        <time>2018-09-16T12:13:06Z</time>
      </trkpt>
      <trkpt lat="39.3568400" lon="-0.7145750">
        <ele>216.0</ele>
        <time>2018-09-16T12:13:07Z</time>
      </trkpt>
      <trkpt lat="39.3569020" lon="-0.7145820">
        <ele>216.0</ele>
        <time>2018-09-16T12:13:08Z</time>
      </trkpt>
      <trkpt lat="39.3569020" lon="-0.7145820">
        <ele>216.0</ele>
        <time>2018-09-16T12:13:09Z</time>
      </trkpt>
      <trkpt lat="39.3569650" lon="-0.7145850">
        <ele>216.0</ele>
        <time>2018-09-16T12:13:10Z</time>
      </trkpt>
      <trkpt lat="39.3569950" lon="-0.7145870">
        <ele>216.0</ele>
        <time>2018-09-16T12:13:11Z</time>
      </trkpt>
      <trkpt lat="39.3570230" lon="-0.7145900">
        <ele>216.0</ele>
        <time>2018-09-16T12:13:12Z</time>
      </trkpt>
      <trkpt lat="39.3570230" lon="-0.7145900">
        <ele>216.0</ele>
        <time>2018-09-16T12:13:13Z</time>
      </trkpt>
      <trkpt lat="39.3570770" lon="-0.7145980">
        <ele>216.0</ele>
        <time>2018-09-16T12:13:14Z</time>
      </trkpt>
      <trkpt lat="39.3570770" lon="-0.7145980">
        <ele>216.0</ele>
        <time>2018-09-16T12:13:15Z</time>
      </trkpt>
      <trkpt lat="39.3571280" lon="-0.7146070">
        <ele>216.0</ele>
        <time>2018-09-16T12:13:16Z</time>
      </trkpt>
      <trkpt lat="39.3571280" lon="-0.7146070">
        <ele>216.0</ele>
        <time>2018-09-16T12:13:17Z</time>
      </trkpt>
      <trkpt lat="39.3571720" lon="-0.7145950">
        <ele>216.0</ele>
        <time>2018-09-16T12:13:18Z</time>
      </trkpt>
      <trkpt lat="39.3571800" lon="-0.7145750">
        <ele>216.0</ele>
        <time>2018-09-16T12:13:19Z</time>
      </trkpt>
      <trkpt lat="39.3571800" lon="-0.7145750">
        <ele>216.0</ele>
        <time>2018-09-16T12:13:20Z</time>
      </trkpt>
      <trkpt lat="39.3571770" lon="-0.7145630">
        <ele>216.0</ele>
        <time>2018-09-16T12:13:21Z</time>
      </trkpt>
      <trkpt lat="39.3571770" lon="-0.7145630">
        <ele>216.0</ele>
        <time>2018-09-16T12:13:48Z</time>
      </trkpt>
      <trkpt lat="39.3571870" lon="-0.7145730">
        <ele>217.0</ele>
        <time>2018-09-16T12:13:49Z</time>
      </trkpt>
      <trkpt lat="39.3571870" lon="-0.7145730">
        <ele>217.0</ele>
        <time>2018-09-16T12:13:50Z</time>
      </trkpt>
      <trkpt lat="39.3571870" lon="-0.7145730">
        <ele>217.0</ele>
        <time>2018-09-16T12:13:51Z</time>
      </trkpt>
      <trkpt lat="39.3571870" lon="-0.7145730">
        <ele>217.0</ele>
        <time>2018-09-16T12:13:52Z</time>
      </trkpt>
      <trkpt lat="39.3571870" lon="-0.7145730">
        <ele>217.0</ele>
        <time>2018-09-16T12:13:53Z</time>
      </trkpt>
      <trkpt lat="39.3571870" lon="-0.7145730">
        <ele>217.0</ele>
        <time>2018-09-16T12:13:54Z</time>
      </trkpt>
      <trkpt lat="39.3571870" lon="-0.7145730">
        <ele>217.0</ele>
        <time>2018-09-16T12:13:55Z</time>
      </trkpt>
      <trkpt lat="39.3571870" lon="-0.7145730">
        <ele>217.0</ele>
        <time>2018-09-16T12:13:56Z</time>
      </trkpt>
      <trkpt lat="39.3571870" lon="-0.7145830">
        <ele>217.0</ele>
        <time>2018-09-16T12:13:57Z</time>
      </trkpt>
      <trkpt lat="39.3571870" lon="-0.7145830">
        <ele>217.0</ele>
        <time>2018-09-16T12:13:58Z</time>
      </trkpt>
      <trkpt lat="39.3572170" lon="-0.7146080">
        <ele>217.0</ele>
        <time>2018-09-16T12:13:59Z</time>
      </trkpt>
      <trkpt lat="39.3572170" lon="-0.7146080">
        <ele>217.0</ele>
        <time>2018-09-16T12:14:00Z</time>
      </trkpt>
      <trkpt lat="39.3572650" lon="-0.7146120">
        <ele>217.0</ele>
        <time>2018-09-16T12:14:01Z</time>
      </trkpt>
      <trkpt lat="39.3572650" lon="-0.7146120">
        <ele>217.0</ele>
        <time>2018-09-16T12:14:02Z</time>
      </trkpt>
      <trkpt lat="39.3573250" lon="-0.7146150">
        <ele>217.0</ele>
        <time>2018-09-16T12:14:03Z</time>
      </trkpt>
      <trkpt lat="39.3573250" lon="-0.7146150">
        <ele>217.0</ele>
        <time>2018-09-16T12:14:04Z</time>
      </trkpt>
      <trkpt lat="39.3573830" lon="-0.7146270">
        <ele>217.0</ele>
        <time>2018-09-16T12:14:05Z</time>
      </trkpt>
      <trkpt lat="39.3573830" lon="-0.7146270">
        <ele>217.0</ele>
        <time>2018-09-16T12:14:06Z</time>
      </trkpt>
      <trkpt lat="39.3574420" lon="-0.7146300">
        <ele>217.0</ele>
        <time>2018-09-16T12:14:07Z</time>
      </trkpt>
      <trkpt lat="39.3574420" lon="-0.7146300">
        <ele>217.0</ele>
        <time>2018-09-16T12:14:08Z</time>
      </trkpt>
      <trkpt lat="39.3574950" lon="-0.7146330">
        <ele>217.0</ele>
        <time>2018-09-16T12:14:09Z</time>
      </trkpt>
      <trkpt lat="39.3574950" lon="-0.7146330">
        <ele>217.0</ele>
        <time>2018-09-16T12:14:10Z</time>
      </trkpt>
      <trkpt lat="39.3575480" lon="-0.7146380">
        <ele>217.0</ele>
        <time>2018-09-16T12:14:11Z</time>
      </trkpt>
      <trkpt lat="39.3575700" lon="-0.7146500">
        <ele>217.0</ele>
        <time>2018-09-16T12:14:12Z</time>
      </trkpt>
      <trkpt lat="39.3575820" lon="-0.7146770">
        <ele>217.0</ele>
        <time>2018-09-16T12:14:13Z</time>
      </trkpt>
      <trkpt lat="39.3575820" lon="-0.7146770">
        <ele>217.0</ele>
        <time>2018-09-16T12:14:14Z</time>
      </trkpt>
      <trkpt lat="39.3575770" lon="-0.7147270">
        <ele>217.0</ele>
        <time>2018-09-16T12:14:15Z</time>
      </trkpt>
      <trkpt lat="39.3575770" lon="-0.7147270">
        <ele>217.0</ele>
        <time>2018-09-16T12:14:16Z</time>
      </trkpt>
      <trkpt lat="39.3575830" lon="-0.7147520">
        <ele>217.0</ele>
        <time>2018-09-16T12:14:17Z</time>
      </trkpt>
      <trkpt lat="39.3575830" lon="-0.7147520">
        <ele>217.0</ele>
        <time>2018-09-16T12:14:18Z</time>
      </trkpt>
      <trkpt lat="39.3575840" lon="-0.7147480">
        <ele>217.0</ele>
        <time>2018-09-16T12:14:19Z</time>
      </trkpt>
      <trkpt lat="39.3575850" lon="-0.7147400">
        <ele>217.0</ele>
        <time>2018-09-16T12:16:55Z</time>
      </trkpt>
      <trkpt lat="39.3575870" lon="-0.7147330">
        <ele>217.0</ele>
        <time>2018-09-16T12:16:56Z</time>
      </trkpt>
      <trkpt lat="39.3575880" lon="-0.7147250">
        <ele>217.0</ele>
        <time>2018-09-16T12:16:57Z</time>
      </trkpt>
      <trkpt lat="39.3575890" lon="-0.7147180">
        <ele>218.0</ele>
        <time>2018-09-16T12:16:58Z</time>
      </trkpt>
      <trkpt lat="39.3575900" lon="-0.7147100">
        <ele>218.0</ele>
        <time>2018-09-16T12:16:59Z</time>
      </trkpt>
      <trkpt lat="39.3575910" lon="-0.7147030">
        <ele>218.0</ele>
        <time>2018-09-16T12:17:00Z</time>
      </trkpt>
      <trkpt lat="39.3575930" lon="-0.7146950">
        <ele>218.0</ele>
        <time>2018-09-16T12:17:01Z</time>
      </trkpt>
      <trkpt lat="39.3575940" lon="-0.7146880">
        <ele>218.0</ele>
        <time>2018-09-16T12:17:02Z</time>
      </trkpt>
      <trkpt lat="39.3575950" lon="-0.7146800">
        <ele>218.0</ele>
        <time>2018-09-16T12:17:03Z</time>
      </trkpt>
      <trkpt lat="39.3576030" lon="-0.7146750">
        <ele>218.0</ele>
        <time>2018-09-16T12:17:04Z</time>
      </trkpt>
      <trkpt lat="39.3576100" lon="-0.7146710">
        <ele>218.0</ele>
        <time>2018-09-16T12:17:05Z</time>
      </trkpt>
      <trkpt lat="39.3576160" lon="-0.7146680">
        <ele>219.0</ele>
        <time>2018-09-16T12:17:06Z</time>
      </trkpt>
      <trkpt lat="39.3576220" lon="-0.7146650">
        <ele>219.0</ele>
        <time>2018-09-16T12:17:07Z</time>
      </trkpt>
      <trkpt lat="39.3576290" lon="-0.7146610">
        <ele>219.0</ele>
        <time>2018-09-16T12:17:08Z</time>
      </trkpt>
      <trkpt lat="39.3576350" lon="-0.7146580">
        <ele>219.0</ele>
        <time>2018-09-16T12:17:09Z</time>
      </trkpt>
      <trkpt lat="39.3576500" lon="-0.7146580">
        <ele>219.0</ele>
        <time>2018-09-16T12:17:10Z</time>
      </trkpt>
      <trkpt lat="39.3576500" lon="-0.7146580">
        <ele>219.0</ele>
        <time>2018-09-16T12:17:11Z</time>
      </trkpt>
      <trkpt lat="39.3576930" lon="-0.7146580">
        <ele>219.0</ele>
        <time>2018-09-16T12:17:12Z</time>
      </trkpt>
      <trkpt lat="39.3577180" lon="-0.7146580">
        <ele>219.0</ele>
        <time>2018-09-16T12:17:13Z</time>
      </trkpt>
      <trkpt lat="39.3577180" lon="-0.7146580">
        <ele>219.0</ele>
        <time>2018-09-16T12:17:14Z</time>
      </trkpt>
      <trkpt lat="39.3577730" lon="-0.7146600">
        <ele>219.0</ele>
        <time>2018-09-16T12:17:15Z</time>
      </trkpt>
      <trkpt lat="39.3577730" lon="-0.7146600">
        <ele>219.0</ele>
        <time>2018-09-16T12:17:16Z</time>
      </trkpt>
      <trkpt lat="39.3578320" lon="-0.7146650">
        <ele>219.0</ele>
        <time>2018-09-16T12:17:17Z</time>
      </trkpt>
      <trkpt lat="39.3578320" lon="-0.7146650">
        <ele>219.0</ele>
        <time>2018-09-16T12:17:18Z</time>
      </trkpt>
      <trkpt lat="39.3578900" lon="-0.7146750">
        <ele>219.0</ele>
        <time>2018-09-16T12:17:19Z</time>
      </trkpt>
      <trkpt lat="39.3578900" lon="-0.7146750">
        <ele>219.0</ele>
        <time>2018-09-16T12:17:20Z</time>
      </trkpt>
      <trkpt lat="39.3579550" lon="-0.7146820">
        <ele>219.0</ele>
        <time>2018-09-16T12:17:21Z</time>
      </trkpt>
      <trkpt lat="39.3579550" lon="-0.7146820">
        <ele>219.0</ele>
        <time>2018-09-16T12:17:22Z</time>
      </trkpt>
      <trkpt lat="39.3580180" lon="-0.7146870">
        <ele>219.0</ele>
        <time>2018-09-16T12:17:23Z</time>
      </trkpt>
      <trkpt lat="39.3580180" lon="-0.7146870">
        <ele>219.0</ele>
        <time>2018-09-16T12:17:24Z</time>
      </trkpt>
      <trkpt lat="39.3580850" lon="-0.7146900">
        <ele>219.0</ele>
        <time>2018-09-16T12:17:25Z</time>
      </trkpt>
      <trkpt lat="39.3580850" lon="-0.7146900">
        <ele>219.0</ele>
        <time>2018-09-16T12:17:26Z</time>
      </trkpt>
      <trkpt lat="39.3581520" lon="-0.7146980">
        <ele>219.0</ele>
        <time>2018-09-16T12:17:27Z</time>
      </trkpt>
      <trkpt lat="39.3581520" lon="-0.7146980">
        <ele>219.0</ele>
        <time>2018-09-16T12:17:28Z</time>
      </trkpt>
      <trkpt lat="39.3582180" lon="-0.7147070">
        <ele>219.0</ele>
        <time>2018-09-16T12:17:29Z</time>
      </trkpt>
      <trkpt lat="39.3582180" lon="-0.7147070">
        <ele>219.0</ele>
        <time>2018-09-16T12:17:30Z</time>
      </trkpt>
      <trkpt lat="39.3582850" lon="-0.7147150">
        <ele>219.0</ele>
        <time>2018-09-16T12:17:31Z</time>
      </trkpt>
      <trkpt lat="39.3582850" lon="-0.7147150">
        <ele>219.0</ele>
        <time>2018-09-16T12:17:32Z</time>
      </trkpt>
      <trkpt lat="39.3583480" lon="-0.7147230">
        <ele>219.0</ele>
        <time>2018-09-16T12:17:33Z</time>
      </trkpt>
      <trkpt lat="39.3583480" lon="-0.7147230">
        <ele>219.0</ele>
        <time>2018-09-16T12:17:34Z</time>
      </trkpt>
      <trkpt lat="39.3584120" lon="-0.7147300">
        <ele>219.0</ele>
        <time>2018-09-16T12:17:35Z</time>
      </trkpt>
      <trkpt lat="39.3584120" lon="-0.7147300">
        <ele>219.0</ele>
        <time>2018-09-16T12:17:36Z</time>
      </trkpt>
      <trkpt lat="39.3584730" lon="-0.7147350">
        <ele>219.0</ele>
        <time>2018-09-16T12:17:37Z</time>
      </trkpt>
      <trkpt lat="39.3584730" lon="-0.7147350">
        <ele>219.0</ele>
        <time>2018-09-16T12:17:38Z</time>
      </trkpt>
      <trkpt lat="39.3585370" lon="-0.7147400">
        <ele>220.0</ele>
        <time>2018-09-16T12:17:39Z</time>
      </trkpt>
      <trkpt lat="39.3585370" lon="-0.7147400">
        <ele>220.0</ele>
        <time>2018-09-16T12:17:40Z</time>
      </trkpt>
      <trkpt lat="39.3585970" lon="-0.7147430">
        <ele>220.0</ele>
        <time>2018-09-16T12:17:41Z</time>
      </trkpt>
      <trkpt lat="39.3585970" lon="-0.7147430">
        <ele>220.0</ele>
        <time>2018-09-16T12:17:42Z</time>
      </trkpt>
      <trkpt lat="39.3586580" lon="-0.7147480">
        <ele>220.0</ele>
        <time>2018-09-16T12:17:43Z</time>
      </trkpt>
      <trkpt lat="39.3586580" lon="-0.7147480">
        <ele>220.0</ele>
        <time>2018-09-16T12:17:44Z</time>
      </trkpt>
      <trkpt lat="39.3587230" lon="-0.7147530">
        <ele>220.0</ele>
        <time>2018-09-16T12:17:45Z</time>
      </trkpt>
      <trkpt lat="39.3587530" lon="-0.7147550">
        <ele>220.0</ele>
        <time>2018-09-16T12:17:46Z</time>
      </trkpt>
      <trkpt lat="39.3587530" lon="-0.7147550">
        <ele>221.0</ele>
        <time>2018-09-16T12:17:47Z</time>
      </trkpt>
      <trkpt lat="39.3588130" lon="-0.7147600">
        <ele>221.0</ele>
        <time>2018-09-16T12:17:48Z</time>
      </trkpt>
      <trkpt lat="39.3588400" lon="-0.7147630">
        <ele>221.0</ele>
        <time>2018-09-16T12:17:49Z</time>
      </trkpt>
      <trkpt lat="39.3588400" lon="-0.7147630">
        <ele>221.0</ele>
        <time>2018-09-16T12:17:50Z</time>
      </trkpt>
      <trkpt lat="39.3588950" lon="-0.7147730">
        <ele>221.0</ele>
        <time>2018-09-16T12:17:51Z</time>
      </trkpt>
      <trkpt lat="39.3588950" lon="-0.7147730">
        <ele>221.0</ele>
        <time>2018-09-16T12:17:52Z</time>
      </trkpt>
      <trkpt lat="39.3589550" lon="-0.7147800">
        <ele>221.0</ele>
        <time>2018-09-16T12:17:53Z</time>
      </trkpt>
      <trkpt lat="39.3589550" lon="-0.7147800">
        <ele>221.0</ele>
        <time>2018-09-16T12:17:54Z</time>
      </trkpt>
      <trkpt lat="39.3590180" lon="-0.7147820">
        <ele>221.0</ele>
        <time>2018-09-16T12:17:55Z</time>
      </trkpt>
      <trkpt lat="39.3590180" lon="-0.7147820">
        <ele>221.0</ele>
        <time>2018-09-16T12:17:56Z</time>
      </trkpt>
      <trkpt lat="39.3590870" lon="-0.7147830">
        <ele>222.0</ele>
        <time>2018-09-16T12:17:57Z</time>
      </trkpt>
      <trkpt lat="39.3590870" lon="-0.7147830">
        <ele>222.0</ele>
        <time>2018-09-16T12:17:58Z</time>
      </trkpt>
      <trkpt lat="39.3591550" lon="-0.7147850">
        <ele>222.0</ele>
        <time>2018-09-16T12:17:59Z</time>
      </trkpt>
      <trkpt lat="39.3591550" lon="-0.7147850">
        <ele>222.0</ele>
        <time>2018-09-16T12:18:00Z</time>
      </trkpt>
      <trkpt lat="39.3592220" lon="-0.7147900">
        <ele>222.0</ele>
        <time>2018-09-16T12:18:01Z</time>
      </trkpt>
      <trkpt lat="39.3592220" lon="-0.7147900">
        <ele>223.0</ele>
        <time>2018-09-16T12:18:02Z</time>
      </trkpt>
      <trkpt lat="39.3592920" lon="-0.7147930">
        <ele>223.0</ele>
        <time>2018-09-16T12:18:03Z</time>
      </trkpt>
      <trkpt lat="39.3593270" lon="-0.7147970">
        <ele>223.0</ele>
        <time>2018-09-16T12:18:04Z</time>
      </trkpt>
      <trkpt lat="39.3593620" lon="-0.7147980">
        <ele>223.0</ele>
        <time>2018-09-16T12:18:05Z</time>
      </trkpt>
      <trkpt lat="39.3593620" lon="-0.7147980">
        <ele>223.0</ele>
        <time>2018-09-16T12:18:06Z</time>
      </trkpt>
      <trkpt lat="39.3594330" lon="-0.7148020">
        <ele>223.0</ele>
        <time>2018-09-16T12:18:07Z</time>
      </trkpt>
      <trkpt lat="39.3594330" lon="-0.7148020">
        <ele>223.0</ele>
        <time>2018-09-16T12:18:08Z</time>
      </trkpt>
      <trkpt lat="39.3595030" lon="-0.7148020">
        <ele>223.0</ele>
        <time>2018-09-16T12:18:09Z</time>
      </trkpt>
      <trkpt lat="39.3595030" lon="-0.7148020">
        <ele>223.0</ele>
        <time>2018-09-16T12:18:10Z</time>
      </trkpt>
      <trkpt lat="39.3595730" lon="-0.7148030">
        <ele>223.0</ele>
        <time>2018-09-16T12:18:11Z</time>
      </trkpt>
      <trkpt lat="39.3595730" lon="-0.7148030">
        <ele>223.0</ele>
        <time>2018-09-16T12:18:12Z</time>
      </trkpt>
      <trkpt lat="39.3596450" lon="-0.7148080">
        <ele>223.0</ele>
        <time>2018-09-16T12:18:13Z</time>
      </trkpt>
      <trkpt lat="39.3596450" lon="-0.7148080">
        <ele>223.0</ele>
        <time>2018-09-16T12:18:14Z</time>
      </trkpt>
      <trkpt lat="39.3597130" lon="-0.7148100">
        <ele>223.0</ele>
        <time>2018-09-16T12:18:15Z</time>
      </trkpt>
      <trkpt lat="39.3597130" lon="-0.7148100">
        <ele>223.0</ele>
        <time>2018-09-16T12:18:16Z</time>
      </trkpt>
      <trkpt lat="39.3597850" lon="-0.7148120">
        <ele>224.0</ele>
        <time>2018-09-16T12:18:17Z</time>
      </trkpt>
      <trkpt lat="39.3597850" lon="-0.7148120">
        <ele>224.0</ele>
        <time>2018-09-16T12:18:18Z</time>
      </trkpt>
      <trkpt lat="39.3598570" lon="-0.7148180">
        <ele>224.0</ele>
        <time>2018-09-16T12:18:19Z</time>
      </trkpt>
      <trkpt lat="39.3598570" lon="-0.7148180">
        <ele>224.0</ele>
        <time>2018-09-16T12:18:20Z</time>
      </trkpt>
      <trkpt lat="39.3599330" lon="-0.7148230">
        <ele>225.0</ele>
        <time>2018-09-16T12:18:21Z</time>
      </trkpt>
      <trkpt lat="39.3599720" lon="-0.7148250">
        <ele>225.0</ele>
        <time>2018-09-16T12:18:22Z</time>
      </trkpt>
      <trkpt lat="39.3599720" lon="-0.7148250">
        <ele>225.0</ele>
        <time>2018-09-16T12:18:23Z</time>
      </trkpt>
      <trkpt lat="39.3600530" lon="-0.7148270">
        <ele>225.0</ele>
        <time>2018-09-16T12:18:24Z</time>
      </trkpt>
      <trkpt lat="39.3600950" lon="-0.7148280">
        <ele>225.0</ele>
        <time>2018-09-16T12:18:25Z</time>
      </trkpt>
      <trkpt lat="39.3600950" lon="-0.7148280">
        <ele>225.0</ele>
        <time>2018-09-16T12:18:26Z</time>
      </trkpt>
      <trkpt lat="39.3601780" lon="-0.7148320">
        <ele>225.0</ele>
        <time>2018-09-16T12:18:27Z</time>
      </trkpt>
      <trkpt lat="39.3601780" lon="-0.7148320">
        <ele>225.0</ele>
        <time>2018-09-16T12:18:28Z</time>
      </trkpt>
      <trkpt lat="39.3602630" lon="-0.7148350">
        <ele>225.0</ele>
        <time>2018-09-16T12:18:29Z</time>
      </trkpt>
      <trkpt lat="39.3602630" lon="-0.7148350">
        <ele>225.0</ele>
        <time>2018-09-16T12:18:30Z</time>
      </trkpt>
      <trkpt lat="39.3603480" lon="-0.7148380">
        <ele>225.0</ele>
        <time>2018-09-16T12:18:31Z</time>
      </trkpt>
      <trkpt lat="39.3603480" lon="-0.7148380">
        <ele>226.0</ele>
        <time>2018-09-16T12:18:32Z</time>
      </trkpt>
      <trkpt lat="39.3604320" lon="-0.7148420">
        <ele>226.0</ele>
        <time>2018-09-16T12:18:33Z</time>
      </trkpt>
      <trkpt lat="39.3604320" lon="-0.7148420">
        <ele>226.0</ele>
        <time>2018-09-16T12:18:34Z</time>
      </trkpt>
      <trkpt lat="39.3605150" lon="-0.7148450">
        <ele>226.0</ele>
        <time>2018-09-16T12:18:35Z</time>
      </trkpt>
      <trkpt lat="39.3605570" lon="-0.7148470">
        <ele>227.0</ele>
        <time>2018-09-16T12:18:36Z</time>
      </trkpt>
      <trkpt lat="39.3605980" lon="-0.7148480">
        <ele>227.0</ele>
        <time>2018-09-16T12:18:37Z</time>
      </trkpt>
      <trkpt lat="39.3605980" lon="-0.7148480">
        <ele>227.0</ele>
        <time>2018-09-16T12:18:38Z</time>
      </trkpt>
      <trkpt lat="39.3606780" lon="-0.7148530">
        <ele>227.0</ele>
        <time>2018-09-16T12:18:39Z</time>
      </trkpt>
      <trkpt lat="39.3606780" lon="-0.7148530">
        <ele>227.0</ele>
        <time>2018-09-16T12:18:40Z</time>
      </trkpt>
      <trkpt lat="39.3607550" lon="-0.7148570">
        <ele>227.0</ele>
        <time>2018-09-16T12:18:41Z</time>
      </trkpt>
      <trkpt lat="39.3607930" lon="-0.7148570">
        <ele>228.0</ele>
        <time>2018-09-16T12:18:42Z</time>
      </trkpt>
      <trkpt lat="39.3608280" lon="-0.7148570">
        <ele>228.0</ele>
        <time>2018-09-16T12:18:43Z</time>
      </trkpt>
      <trkpt lat="39.3608280" lon="-0.7148570">
        <ele>228.0</ele>
        <time>2018-09-16T12:18:44Z</time>
      </trkpt>
      <trkpt lat="39.3609000" lon="-0.7148570">
        <ele>228.0</ele>
        <time>2018-09-16T12:18:45Z</time>
      </trkpt>
      <trkpt lat="39.3609380" lon="-0.7148600">
        <ele>228.0</ele>
        <time>2018-09-16T12:18:46Z</time>
      </trkpt>
      <trkpt lat="39.3609380" lon="-0.7148600">
        <ele>228.0</ele>
        <time>2018-09-16T12:18:47Z</time>
      </trkpt>
      <trkpt lat="39.3610120" lon="-0.7148580">
        <ele>228.0</ele>
        <time>2018-09-16T12:18:48Z</time>
      </trkpt>
      <trkpt lat="39.3610500" lon="-0.7148580">
        <ele>228.0</ele>
        <time>2018-09-16T12:18:49Z</time>
      </trkpt>
      <trkpt lat="39.3610500" lon="-0.7148580">
        <ele>228.0</ele>
        <time>2018-09-16T12:18:50Z</time>
      </trkpt>
      <trkpt lat="39.3611220" lon="-0.7148570">
        <ele>228.0</ele>
        <time>2018-09-16T12:18:51Z</time>
      </trkpt>
      <trkpt lat="39.3611550" lon="-0.7148600">
        <ele>229.0</ele>
        <time>2018-09-16T12:18:52Z</time>
      </trkpt>
      <trkpt lat="39.3611550" lon="-0.7148600">
        <ele>229.0</ele>
        <time>2018-09-16T12:18:53Z</time>
      </trkpt>
      <trkpt lat="39.3612270" lon="-0.7148650">
        <ele>229.0</ele>
        <time>2018-09-16T12:18:54Z</time>
      </trkpt>
      <trkpt lat="39.3612620" lon="-0.7148650">
        <ele>230.0</ele>
        <time>2018-09-16T12:18:55Z</time>
      </trkpt>
      <trkpt lat="39.3612620" lon="-0.7148650">
        <ele>230.0</ele>
        <time>2018-09-16T12:18:56Z</time>
      </trkpt>
      <trkpt lat="39.3613300" lon="-0.7148650">
        <ele>230.0</ele>
        <time>2018-09-16T12:18:57Z</time>
      </trkpt>
      <trkpt lat="39.3613650" lon="-0.7148650">
        <ele>230.0</ele>
        <time>2018-09-16T12:18:58Z</time>
      </trkpt>
      <trkpt lat="39.3613650" lon="-0.7148650">
        <ele>230.0</ele>
        <time>2018-09-16T12:18:59Z</time>
      </trkpt>
      <trkpt lat="39.3614350" lon="-0.7148630">
        <ele>230.0</ele>
        <time>2018-09-16T12:19:00Z</time>
      </trkpt>
      <trkpt lat="39.3614680" lon="-0.7148620">
        <ele>231.0</ele>
        <time>2018-09-16T12:19:01Z</time>
      </trkpt>
      <trkpt lat="39.3614680" lon="-0.7148620">
        <ele>231.0</ele>
        <time>2018-09-16T12:19:02Z</time>
      </trkpt>
      <trkpt lat="39.3615400" lon="-0.7148620">
        <ele>231.0</ele>
        <time>2018-09-16T12:19:03Z</time>
      </trkpt>
      <trkpt lat="39.3615400" lon="-0.7148620">
        <ele>231.0</ele>
        <time>2018-09-16T12:19:04Z</time>
      </trkpt>
      <trkpt lat="39.3616120" lon="-0.7148570">
        <ele>231.0</ele>
        <time>2018-09-16T12:19:05Z</time>
      </trkpt>
      <trkpt lat="39.3616480" lon="-0.7148570">
        <ele>231.0</ele>
        <time>2018-09-16T12:19:06Z</time>
      </trkpt>
      <trkpt lat="39.3616830" lon="-0.7148570">
        <ele>232.0</ele>
        <time>2018-09-16T12:19:07Z</time>
      </trkpt>
      <trkpt lat="39.3616830" lon="-0.7148570">
        <ele>232.0</ele>
        <time>2018-09-16T12:19:08Z</time>
      </trkpt>
      <trkpt lat="39.3617550" lon="-0.7148570">
        <ele>232.0</ele>
        <time>2018-09-16T12:19:09Z</time>
      </trkpt>
      <trkpt lat="39.3617550" lon="-0.7148570">
        <ele>232.0</ele>
        <time>2018-09-16T12:19:10Z</time>
      </trkpt>
      <trkpt lat="39.3618270" lon="-0.7148530">
        <ele>232.0</ele>
        <time>2018-09-16T12:19:11Z</time>
      </trkpt>
      <trkpt lat="39.3618270" lon="-0.7148530">
        <ele>232.0</ele>
        <time>2018-09-16T12:19:12Z</time>
      </trkpt>
      <trkpt lat="39.3618950" lon="-0.7148530">
        <ele>233.0</ele>
        <time>2018-09-16T12:19:13Z</time>
      </trkpt>
      <trkpt lat="39.3618950" lon="-0.7148530">
        <ele>233.0</ele>
        <time>2018-09-16T12:19:14Z</time>
      </trkpt>
      <trkpt lat="39.3619670" lon="-0.7148530">
        <ele>233.0</ele>
        <time>2018-09-16T12:19:15Z</time>
      </trkpt>
      <trkpt lat="39.3620020" lon="-0.7148520">
        <ele>233.0</ele>
        <time>2018-09-16T12:19:16Z</time>
      </trkpt>
      <trkpt lat="39.3620020" lon="-0.7148520">
        <ele>233.0</ele>
        <time>2018-09-16T12:19:17Z</time>
      </trkpt>
      <trkpt lat="39.3620730" lon="-0.7148500">
        <ele>233.0</ele>
        <time>2018-09-16T12:19:18Z</time>
      </trkpt>
      <trkpt lat="39.3621100" lon="-0.7148480">
        <ele>233.0</ele>
        <time>2018-09-16T12:19:19Z</time>
      </trkpt>
      <trkpt lat="39.3621100" lon="-0.7148480">
        <ele>233.0</ele>
        <time>2018-09-16T12:19:20Z</time>
      </trkpt>
      <trkpt lat="39.3621850" lon="-0.7148430">
        <ele>233.0</ele>
        <time>2018-09-16T12:19:21Z</time>
      </trkpt>
      <trkpt lat="39.3622230" lon="-0.7148400">
        <ele>233.0</ele>
        <time>2018-09-16T12:19:22Z</time>
      </trkpt>
      <trkpt lat="39.3622230" lon="-0.7148400">
        <ele>233.0</ele>
        <time>2018-09-16T12:19:23Z</time>
      </trkpt>
      <trkpt lat="39.3622980" lon="-0.7148370">
        <ele>233.0</ele>
        <time>2018-09-16T12:19:24Z</time>
      </trkpt>
      <trkpt lat="39.3623370" lon="-0.7148330">
        <ele>233.0</ele>
        <time>2018-09-16T12:19:25Z</time>
      </trkpt>
      <trkpt lat="39.3623370" lon="-0.7148330">
        <ele>234.0</ele>
        <time>2018-09-16T12:19:26Z</time>
      </trkpt>
      <trkpt lat="39.3624130" lon="-0.7148270">
        <ele>234.0</ele>
        <time>2018-09-16T12:19:27Z</time>
      </trkpt>
      <trkpt lat="39.3624130" lon="-0.7148270">
        <ele>234.0</ele>
        <time>2018-09-16T12:19:28Z</time>
      </trkpt>
      <trkpt lat="39.3624920" lon="-0.7148200">
        <ele>234.0</ele>
        <time>2018-09-16T12:19:29Z</time>
      </trkpt>
      <trkpt lat="39.3624920" lon="-0.7148200">
        <ele>234.0</ele>
        <time>2018-09-16T12:19:30Z</time>
      </trkpt>
      <trkpt lat="39.3625700" lon="-0.7148150">
        <ele>234.0</ele>
        <time>2018-09-16T12:19:31Z</time>
      </trkpt>
      <trkpt lat="39.3625700" lon="-0.7148150">
        <ele>235.0</ele>
        <time>2018-09-16T12:19:32Z</time>
      </trkpt>
      <trkpt lat="39.3626500" lon="-0.7148080">
        <ele>235.0</ele>
        <time>2018-09-16T12:19:33Z</time>
      </trkpt>
      <trkpt lat="39.3626500" lon="-0.7148080">
        <ele>235.0</ele>
        <time>2018-09-16T12:19:34Z</time>
      </trkpt>
      <trkpt lat="39.3627280" lon="-0.7148050">
        <ele>235.0</ele>
        <time>2018-09-16T12:19:35Z</time>
      </trkpt>
      <trkpt lat="39.3627280" lon="-0.7148050">
        <ele>235.0</ele>
        <time>2018-09-16T12:19:36Z</time>
      </trkpt>
      <trkpt lat="39.3628080" lon="-0.7148030">
        <ele>235.0</ele>
        <time>2018-09-16T12:19:37Z</time>
      </trkpt>
      <trkpt lat="39.3628080" lon="-0.7148030">
        <ele>236.0</ele>
        <time>2018-09-16T12:19:38Z</time>
      </trkpt>
      <trkpt lat="39.3628870" lon="-0.7148000">
        <ele>236.0</ele>
        <time>2018-09-16T12:19:39Z</time>
      </trkpt>
      <trkpt lat="39.3628870" lon="-0.7148000">
        <ele>236.0</ele>
        <time>2018-09-16T12:19:40Z</time>
      </trkpt>
      <trkpt lat="39.3629670" lon="-0.7147970">
        <ele>236.0</ele>
        <time>2018-09-16T12:19:41Z</time>
      </trkpt>
      <trkpt lat="39.3629670" lon="-0.7147970">
        <ele>236.0</ele>
        <time>2018-09-16T12:19:42Z</time>
      </trkpt>
      <trkpt lat="39.3630470" lon="-0.7147900">
        <ele>236.0</ele>
        <time>2018-09-16T12:19:43Z</time>
      </trkpt>
      <trkpt lat="39.3630470" lon="-0.7147900">
        <ele>236.0</ele>
        <time>2018-09-16T12:19:44Z</time>
      </trkpt>
      <trkpt lat="39.3631250" lon="-0.7147850">
        <ele>237.0</ele>
        <time>2018-09-16T12:19:45Z</time>
      </trkpt>
      <trkpt lat="39.3631250" lon="-0.7147850">
        <ele>237.0</ele>
        <time>2018-09-16T12:19:46Z</time>
      </trkpt>
      <trkpt lat="39.3632020" lon="-0.7147820">
        <ele>237.0</ele>
        <time>2018-09-16T12:19:47Z</time>
      </trkpt>
      <trkpt lat="39.3632400" lon="-0.7147770">
        <ele>237.0</ele>
        <time>2018-09-16T12:19:48Z</time>
      </trkpt>
      <trkpt lat="39.3632780" lon="-0.7147720">
        <ele>237.0</ele>
        <time>2018-09-16T12:19:49Z</time>
      </trkpt>
      <trkpt lat="39.3632780" lon="-0.7147720">
        <ele>237.0</ele>
        <time>2018-09-16T12:19:50Z</time>
      </trkpt>
      <trkpt lat="39.3633580" lon="-0.7147580">
        <ele>237.0</ele>
        <time>2018-09-16T12:19:51Z</time>
      </trkpt>
      <trkpt lat="39.3633580" lon="-0.7147580">
        <ele>237.0</ele>
        <time>2018-09-16T12:19:52Z</time>
      </trkpt>
      <trkpt lat="39.3634400" lon="-0.7147450">
        <ele>237.0</ele>
        <time>2018-09-16T12:19:53Z</time>
      </trkpt>
      <trkpt lat="39.3634820" lon="-0.7147380">
        <ele>237.0</ele>
        <time>2018-09-16T12:19:54Z</time>
      </trkpt>
      <trkpt lat="39.3634820" lon="-0.7147380">
        <ele>237.0</ele>
        <time>2018-09-16T12:19:55Z</time>
      </trkpt>
      <trkpt lat="39.3635700" lon="-0.7147230">
        <ele>237.0</ele>
        <time>2018-09-16T12:19:56Z</time>
      </trkpt>
      <trkpt lat="39.3635700" lon="-0.7147230">
        <ele>237.0</ele>
        <time>2018-09-16T12:19:57Z</time>
      </trkpt>
      <trkpt lat="39.3636630" lon="-0.7147130">
        <ele>237.0</ele>
        <time>2018-09-16T12:19:58Z</time>
      </trkpt>
      <trkpt lat="39.3637100" lon="-0.7147070">
        <ele>237.0</ele>
        <time>2018-09-16T12:19:59Z</time>
      </trkpt>
      <trkpt lat="39.3637100" lon="-0.7147070">
        <ele>237.0</ele>
        <time>2018-09-16T12:20:00Z</time>
      </trkpt>
      <trkpt lat="39.3638120" lon="-0.7146930">
        <ele>237.0</ele>
        <time>2018-09-16T12:20:01Z</time>
      </trkpt>
      <trkpt lat="39.3638120" lon="-0.7146930">
        <ele>237.0</ele>
        <time>2018-09-16T12:20:02Z</time>
      </trkpt>
      <trkpt lat="39.3639170" lon="-0.7146770">
        <ele>237.0</ele>
        <time>2018-09-16T12:20:03Z</time>
      </trkpt>
      <trkpt lat="39.3639700" lon="-0.7146700">
        <ele>237.0</ele>
        <time>2018-09-16T12:20:04Z</time>
      </trkpt>
      <trkpt lat="39.3639700" lon="-0.7146700">
        <ele>237.0</ele>
        <time>2018-09-16T12:20:05Z</time>
      </trkpt>
      <trkpt lat="39.3640800" lon="-0.7146530">
        <ele>237.0</ele>
        <time>2018-09-16T12:20:06Z</time>
      </trkpt>
      <trkpt lat="39.3641330" lon="-0.7146450">
        <ele>237.0</ele>
        <time>2018-09-16T12:20:07Z</time>
      </trkpt>
      <trkpt lat="39.3641330" lon="-0.7146450">
        <ele>237.0</ele>
        <time>2018-09-16T12:20:08Z</time>
      </trkpt>
      <trkpt lat="39.3642430" lon="-0.7146280">
        <ele>237.0</ele>
        <time>2018-09-16T12:20:09Z</time>
      </trkpt>
      <trkpt lat="39.3642980" lon="-0.7146200">
        <ele>237.0</ele>
        <time>2018-09-16T12:20:10Z</time>
      </trkpt>
      <trkpt lat="39.3642980" lon="-0.7146200">
        <ele>237.0</ele>
        <time>2018-09-16T12:20:11Z</time>
      </trkpt>
      <trkpt lat="39.3644080" lon="-0.7146020">
        <ele>237.0</ele>
        <time>2018-09-16T12:20:12Z</time>
      </trkpt>
      <trkpt lat="39.3644630" lon="-0.7145920">
        <ele>237.0</ele>
        <time>2018-09-16T12:20:13Z</time>
      </trkpt>
      <trkpt lat="39.3644630" lon="-0.7145920">
        <ele>237.0</ele>
        <time>2018-09-16T12:20:14Z</time>
      </trkpt>
      <trkpt lat="39.3645770" lon="-0.7145730">
        <ele>237.0</ele>
        <time>2018-09-16T12:20:15Z</time>
      </trkpt>
      <trkpt lat="39.3646370" lon="-0.7145580">
        <ele>237.0</ele>
        <time>2018-09-16T12:20:16Z</time>
      </trkpt>
      <trkpt lat="39.3646370" lon="-0.7145580">
        <ele>237.0</ele>
        <time>2018-09-16T12:20:17Z</time>
      </trkpt>
      <trkpt lat="39.3647520" lon="-0.7145330">
        <ele>237.0</ele>
        <time>2018-09-16T12:20:18Z</time>
      </trkpt>
      <trkpt lat="39.3648070" lon="-0.7145220">
        <ele>237.0</ele>
        <time>2018-09-16T12:20:19Z</time>
      </trkpt>
      <trkpt lat="39.3648070" lon="-0.7145220">
        <ele>237.0</ele>
        <time>2018-09-16T12:20:20Z</time>
      </trkpt>
      <trkpt lat="39.3649180" lon="-0.7145050">
        <ele>237.0</ele>
        <time>2018-09-16T12:20:21Z</time>
      </trkpt>
      <trkpt lat="39.3649730" lon="-0.7144970">
        <ele>237.0</ele>
        <time>2018-09-16T12:20:22Z</time>
      </trkpt>
      <trkpt lat="39.3649730" lon="-0.7144970">
        <ele>237.0</ele>
        <time>2018-09-16T12:20:23Z</time>
      </trkpt>
      <trkpt lat="39.3650900" lon="-0.7144830">
        <ele>237.0</ele>
        <time>2018-09-16T12:20:24Z</time>
      </trkpt>
      <trkpt lat="39.3651470" lon="-0.7144750">
        <ele>238.0</ele>
        <time>2018-09-16T12:20:25Z</time>
      </trkpt>
      <trkpt lat="39.3651470" lon="-0.7144750">
        <ele>238.0</ele>
        <time>2018-09-16T12:20:26Z</time>
      </trkpt>
      <trkpt lat="39.3652600" lon="-0.7144570">
        <ele>238.0</ele>
        <time>2018-09-16T12:20:27Z</time>
      </trkpt>
      <trkpt lat="39.3652600" lon="-0.7144570">
        <ele>238.0</ele>
        <time>2018-09-16T12:20:28Z</time>
      </trkpt>
      <trkpt lat="39.3653730" lon="-0.7144370">
        <ele>238.0</ele>
        <time>2018-09-16T12:20:29Z</time>
      </trkpt>
      <trkpt lat="39.3653730" lon="-0.7144370">
        <ele>238.0</ele>
        <time>2018-09-16T12:20:30Z</time>
      </trkpt>
      <trkpt lat="39.3654870" lon="-0.7144150">
        <ele>238.0</ele>
        <time>2018-09-16T12:20:31Z</time>
      </trkpt>
      <trkpt lat="39.3654870" lon="-0.7144150">
        <ele>238.0</ele>
        <time>2018-09-16T12:20:32Z</time>
      </trkpt>
      <trkpt lat="39.3656020" lon="-0.7144000">
        <ele>238.0</ele>
        <time>2018-09-16T12:20:33Z</time>
      </trkpt>
      <trkpt lat="39.3656020" lon="-0.7144000">
        <ele>238.0</ele>
        <time>2018-09-16T12:20:34Z</time>
      </trkpt>
      <trkpt lat="39.3657200" lon="-0.7143900">
        <ele>238.0</ele>
        <time>2018-09-16T12:20:35Z</time>
      </trkpt>
      <trkpt lat="39.3657200" lon="-0.7143900">
        <ele>238.0</ele>
        <time>2018-09-16T12:20:36Z</time>
      </trkpt>
      <trkpt lat="39.3658420" lon="-0.7143880">
        <ele>238.0</ele>
        <time>2018-09-16T12:20:37Z</time>
      </trkpt>
      <trkpt lat="39.3658420" lon="-0.7143880">
        <ele>238.0</ele>
        <time>2018-09-16T12:20:38Z</time>
      </trkpt>
      <trkpt lat="39.3659680" lon="-0.7144070">
        <ele>238.0</ele>
        <time>2018-09-16T12:20:39Z</time>
      </trkpt>
      <trkpt lat="39.3659680" lon="-0.7144070">
        <ele>238.0</ele>
        <time>2018-09-16T12:20:40Z</time>
      </trkpt>
      <trkpt lat="39.3661030" lon="-0.7144450">
        <ele>238.0</ele>
        <time>2018-09-16T12:20:41Z</time>
      </trkpt>
      <trkpt lat="39.3661030" lon="-0.7144450">
        <ele>237.0</ele>
        <time>2018-09-16T12:20:42Z</time>
      </trkpt>
      <trkpt lat="39.3662520" lon="-0.7144920">
        <ele>237.0</ele>
        <time>2018-09-16T12:20:43Z</time>
      </trkpt>
      <trkpt lat="39.3662520" lon="-0.7144920">
        <ele>237.0</ele>
        <time>2018-09-16T12:20:44Z</time>
      </trkpt>
      <trkpt lat="39.3664100" lon="-0.7145370">
        <ele>237.0</ele>
        <time>2018-09-16T12:20:45Z</time>
      </trkpt>
      <trkpt lat="39.3664100" lon="-0.7145370">
        <ele>236.0</ele>
        <time>2018-09-16T12:20:46Z</time>
      </trkpt>
      <trkpt lat="39.3665750" lon="-0.7145700">
        <ele>236.0</ele>
        <time>2018-09-16T12:20:47Z</time>
      </trkpt>
      <trkpt lat="39.3665750" lon="-0.7145700">
        <ele>235.0</ele>
        <time>2018-09-16T12:20:48Z</time>
      </trkpt>
      <trkpt lat="39.3667470" lon="-0.7145600">
        <ele>235.0</ele>
        <time>2018-09-16T12:20:49Z</time>
      </trkpt>
      <trkpt lat="39.3667470" lon="-0.7145600">
        <ele>235.0</ele>
        <time>2018-09-16T12:20:50Z</time>
      </trkpt>
      <trkpt lat="39.3669150" lon="-0.7145100">
        <ele>235.0</ele>
        <time>2018-09-16T12:20:51Z</time>
      </trkpt>
      <trkpt lat="39.3669950" lon="-0.7144700">
        <ele>233.0</ele>
        <time>2018-09-16T12:20:52Z</time>
      </trkpt>
      <trkpt lat="39.3669950" lon="-0.7144700">
        <ele>233.0</ele>
        <time>2018-09-16T12:20:53Z</time>
      </trkpt>
      <trkpt lat="39.3671520" lon="-0.7143700">
        <ele>232.0</ele>
        <time>2018-09-16T12:20:54Z</time>
      </trkpt>
      <trkpt lat="39.3672300" lon="-0.7143170">
        <ele>232.0</ele>
        <time>2018-09-16T12:20:55Z</time>
      </trkpt>
      <trkpt lat="39.3672300" lon="-0.7143170">
        <ele>231.0</ele>
        <time>2018-09-16T12:20:56Z</time>
      </trkpt>
      <trkpt lat="39.3673850" lon="-0.7142120">
        <ele>231.0</ele>
        <time>2018-09-16T12:20:57Z</time>
      </trkpt>
      <trkpt lat="39.3674620" lon="-0.7141600">
        <ele>230.0</ele>
        <time>2018-09-16T12:20:58Z</time>
      </trkpt>
      <trkpt lat="39.3674620" lon="-0.7141600">
        <ele>230.0</ele>
        <time>2018-09-16T12:20:59Z</time>
      </trkpt>
      <trkpt lat="39.3676100" lon="-0.7140620">
        <ele>229.0</ele>
        <time>2018-09-16T12:21:00Z</time>
      </trkpt>
      <trkpt lat="39.3676100" lon="-0.7140620">
        <ele>229.0</ele>
        <time>2018-09-16T12:21:01Z</time>
      </trkpt>
      <trkpt lat="39.3677500" lon="-0.7139620">
        <ele>229.0</ele>
        <time>2018-09-16T12:21:02Z</time>
      </trkpt>
      <trkpt lat="39.3677500" lon="-0.7139620">
        <ele>229.0</ele>
        <time>2018-09-16T12:21:03Z</time>
      </trkpt>
      <trkpt lat="39.3678850" lon="-0.7138680">
        <ele>228.0</ele>
        <time>2018-09-16T12:21:04Z</time>
      </trkpt>
      <trkpt lat="39.3678850" lon="-0.7138680">
        <ele>228.0</ele>
        <time>2018-09-16T12:21:05Z</time>
      </trkpt>
      <trkpt lat="39.3680170" lon="-0.7137830">
        <ele>228.0</ele>
        <time>2018-09-16T12:21:06Z</time>
      </trkpt>
      <trkpt lat="39.3680800" lon="-0.7137450">
        <ele>226.0</ele>
        <time>2018-09-16T12:21:07Z</time>
      </trkpt>
      <trkpt lat="39.3680800" lon="-0.7137450">
        <ele>226.0</ele>
        <time>2018-09-16T12:21:08Z</time>
      </trkpt>
      <trkpt lat="39.3681980" lon="-0.7136670">
        <ele>228.0</ele>
        <time>2018-09-16T12:21:09Z</time>
      </trkpt>
      <trkpt lat="39.3681980" lon="-0.7136670">
        <ele>228.0</ele>
        <time>2018-09-16T12:21:10Z</time>
      </trkpt>
      <trkpt lat="39.3683170" lon="-0.7135750">
        <ele>228.0</ele>
        <time>2018-09-16T12:21:11Z</time>
      </trkpt>
      <trkpt lat="39.3683170" lon="-0.7135750">
        <ele>228.0</ele>
        <time>2018-09-16T12:21:12Z</time>
      </trkpt>
      <trkpt lat="39.3684470" lon="-0.7134830">
        <ele>228.0</ele>
        <time>2018-09-16T12:21:13Z</time>
      </trkpt>
      <trkpt lat="39.3684470" lon="-0.7134830">
        <ele>228.0</ele>
        <time>2018-09-16T12:21:14Z</time>
      </trkpt>
      <trkpt lat="39.3685780" lon="-0.7133970">
        <ele>227.0</ele>
        <time>2018-09-16T12:21:15Z</time>
      </trkpt>
      <trkpt lat="39.3685780" lon="-0.7133970">
        <ele>227.0</ele>
        <time>2018-09-16T12:21:16Z</time>
      </trkpt>
      <trkpt lat="39.3687120" lon="-0.7133130">
        <ele>227.0</ele>
        <time>2018-09-16T12:21:17Z</time>
      </trkpt>
      <trkpt lat="39.3687750" lon="-0.7132720">
        <ele>227.0</ele>
        <time>2018-09-16T12:21:18Z</time>
      </trkpt>
      <trkpt lat="39.3688400" lon="-0.7132330">
        <ele>227.0</ele>
        <time>2018-09-16T12:21:19Z</time>
      </trkpt>
      <trkpt lat="39.3688400" lon="-0.7132330">
        <ele>227.0</ele>
        <time>2018-09-16T12:21:20Z</time>
      </trkpt>
      <trkpt lat="39.3689700" lon="-0.7131680">
        <ele>227.0</ele>
        <time>2018-09-16T12:21:21Z</time>
      </trkpt>
      <trkpt lat="39.3689700" lon="-0.7131680">
        <ele>227.0</ele>
        <time>2018-09-16T12:21:22Z</time>
      </trkpt>
      <trkpt lat="39.3691070" lon="-0.7131400">
        <ele>227.0</ele>
        <time>2018-09-16T12:21:23Z</time>
      </trkpt>
      <trkpt lat="39.3691070" lon="-0.7131400">
        <ele>227.0</ele>
        <time>2018-09-16T12:21:24Z</time>
      </trkpt>
      <trkpt lat="39.3692420" lon="-0.7131470">
        <ele>227.0</ele>
        <time>2018-09-16T12:21:25Z</time>
      </trkpt>
      <trkpt lat="39.3692420" lon="-0.7131470">
        <ele>227.0</ele>
        <time>2018-09-16T12:21:26Z</time>
      </trkpt>
      <trkpt lat="39.3693730" lon="-0.7131780">
        <ele>227.0</ele>
        <time>2018-09-16T12:21:27Z</time>
      </trkpt>
      <trkpt lat="39.3693730" lon="-0.7131780">
        <ele>227.0</ele>
        <time>2018-09-16T12:21:28Z</time>
      </trkpt>
      <trkpt lat="39.3695000" lon="-0.7132220">
        <ele>227.0</ele>
        <time>2018-09-16T12:21:29Z</time>
      </trkpt>
      <trkpt lat="39.3695000" lon="-0.7132220">
        <ele>227.0</ele>
        <time>2018-09-16T12:21:30Z</time>
      </trkpt>
      <trkpt lat="39.3696270" lon="-0.7132630">
        <ele>227.0</ele>
        <time>2018-09-16T12:21:31Z</time>
      </trkpt>
      <trkpt lat="39.3696270" lon="-0.7132630">
        <ele>227.0</ele>
        <time>2018-09-16T12:21:32Z</time>
      </trkpt>
      <trkpt lat="39.3697530" lon="-0.7133030">
        <ele>227.0</ele>
        <time>2018-09-16T12:21:33Z</time>
      </trkpt>
      <trkpt lat="39.3697530" lon="-0.7133030">
        <ele>227.0</ele>
        <time>2018-09-16T12:21:34Z</time>
      </trkpt>
      <trkpt lat="39.3698160" lon="-0.7133250">
        <ele>227.0</ele>
        <time>2018-09-16T12:21:35Z</time>
      </trkpt>
      <trkpt lat="39.3698780" lon="-0.7133470">
        <ele>227.0</ele>
        <time>2018-09-16T12:21:36Z</time>
      </trkpt>
      <trkpt lat="39.3700020" lon="-0.7133920">
        <ele>227.0</ele>
        <time>2018-09-16T12:21:37Z</time>
      </trkpt>
      <trkpt lat="39.3700020" lon="-0.7133920">
        <ele>227.0</ele>
        <time>2018-09-16T12:21:38Z</time>
      </trkpt>
      <trkpt lat="39.3701220" lon="-0.7134370">
        <ele>226.0</ele>
        <time>2018-09-16T12:21:39Z</time>
      </trkpt>
      <trkpt lat="39.3701220" lon="-0.7134370">
        <ele>226.0</ele>
        <time>2018-09-16T12:21:40Z</time>
      </trkpt>
      <trkpt lat="39.3702420" lon="-0.7134780">
        <ele>226.0</ele>
        <time>2018-09-16T12:21:41Z</time>
      </trkpt>
      <trkpt lat="39.3703020" lon="-0.7134980">
        <ele>226.0</ele>
        <time>2018-09-16T12:21:42Z</time>
      </trkpt>
      <trkpt lat="39.3703020" lon="-0.7134980">
        <ele>226.0</ele>
        <time>2018-09-16T12:21:43Z</time>
      </trkpt>
      <trkpt lat="39.3704220" lon="-0.7135400">
        <ele>226.0</ele>
        <time>2018-09-16T12:21:44Z</time>
      </trkpt>
      <trkpt lat="39.3704220" lon="-0.7135400">
        <ele>226.0</ele>
        <time>2018-09-16T12:21:45Z</time>
      </trkpt>
      <trkpt lat="39.3705420" lon="-0.7135770">
        <ele>226.0</ele>
        <time>2018-09-16T12:21:46Z</time>
      </trkpt>
      <trkpt lat="39.3705420" lon="-0.7135770">
        <ele>226.0</ele>
        <time>2018-09-16T12:21:47Z</time>
      </trkpt>
      <trkpt lat="39.3706620" lon="-0.7136170">
        <ele>226.0</ele>
        <time>2018-09-16T12:21:48Z</time>
      </trkpt>
      <trkpt lat="39.3707200" lon="-0.7136380">
        <ele>226.0</ele>
        <time>2018-09-16T12:21:49Z</time>
      </trkpt>
      <trkpt lat="39.3707770" lon="-0.7136580">
        <ele>226.0</ele>
        <time>2018-09-16T12:21:50Z</time>
      </trkpt>
      <trkpt lat="39.3707770" lon="-0.7136580">
        <ele>226.0</ele>
        <time>2018-09-16T12:21:51Z</time>
      </trkpt>
      <trkpt lat="39.3708920" lon="-0.7136970">
        <ele>226.0</ele>
        <time>2018-09-16T12:21:52Z</time>
      </trkpt>
      <trkpt lat="39.3709470" lon="-0.7137180">
        <ele>226.0</ele>
        <time>2018-09-16T12:21:53Z</time>
      </trkpt>
      <trkpt lat="39.3709470" lon="-0.7137180">
        <ele>226.0</ele>
        <time>2018-09-16T12:21:54Z</time>
      </trkpt>
      <trkpt lat="39.3710530" lon="-0.7137580">
        <ele>226.0</ele>
        <time>2018-09-16T12:21:55Z</time>
      </trkpt>
      <trkpt lat="39.3710530" lon="-0.7137580">
        <ele>226.0</ele>
        <time>2018-09-16T12:21:56Z</time>
      </trkpt>
      <trkpt lat="39.3711620" lon="-0.7137950">
        <ele>226.0</ele>
        <time>2018-09-16T12:21:57Z</time>
      </trkpt>
      <trkpt lat="39.3712150" lon="-0.7138130">
        <ele>226.0</ele>
        <time>2018-09-16T12:21:58Z</time>
      </trkpt>
      <trkpt lat="39.3712150" lon="-0.7138130">
        <ele>226.0</ele>
        <time>2018-09-16T12:21:59Z</time>
      </trkpt>
      <trkpt lat="39.3713170" lon="-0.7138520">
        <ele>226.0</ele>
        <time>2018-09-16T12:22:00Z</time>
      </trkpt>
      <trkpt lat="39.3713650" lon="-0.7138700">
        <ele>226.0</ele>
        <time>2018-09-16T12:22:01Z</time>
      </trkpt>
      <trkpt lat="39.3713650" lon="-0.7138700">
        <ele>226.0</ele>
        <time>2018-09-16T12:22:02Z</time>
      </trkpt>
      <trkpt lat="39.3714680" lon="-0.7139020">
        <ele>226.0</ele>
        <time>2018-09-16T12:22:03Z</time>
      </trkpt>
      <trkpt lat="39.3714680" lon="-0.7139020">
        <ele>226.0</ele>
        <time>2018-09-16T12:22:04Z</time>
      </trkpt>
      <trkpt lat="39.3715720" lon="-0.7139370">
        <ele>226.0</ele>
        <time>2018-09-16T12:22:05Z</time>
      </trkpt>
      <trkpt lat="39.3716250" lon="-0.7139530">
        <ele>226.0</ele>
        <time>2018-09-16T12:22:06Z</time>
      </trkpt>
      <trkpt lat="39.3716780" lon="-0.7139720">
        <ele>226.0</ele>
        <time>2018-09-16T12:22:07Z</time>
      </trkpt>
      <trkpt lat="39.3716780" lon="-0.7139720">
        <ele>226.0</ele>
        <time>2018-09-16T12:22:08Z</time>
      </trkpt>
      <trkpt lat="39.3717830" lon="-0.7140120">
        <ele>226.0</ele>
        <time>2018-09-16T12:22:09Z</time>
      </trkpt>
      <trkpt lat="39.3718380" lon="-0.7140300">
        <ele>226.0</ele>
        <time>2018-09-16T12:22:10Z</time>
      </trkpt>
      <trkpt lat="39.3718380" lon="-0.7140300">
        <ele>226.0</ele>
        <time>2018-09-16T12:22:11Z</time>
      </trkpt>
      <trkpt lat="39.3719470" lon="-0.7140720">
        <ele>226.0</ele>
        <time>2018-09-16T12:22:12Z</time>
      </trkpt>
      <trkpt lat="39.3720020" lon="-0.7140920">
        <ele>226.0</ele>
        <time>2018-09-16T12:22:13Z</time>
      </trkpt>
      <trkpt lat="39.3720020" lon="-0.7140920">
        <ele>226.0</ele>
        <time>2018-09-16T12:22:14Z</time>
      </trkpt>
      <trkpt lat="39.3721130" lon="-0.7141320">
        <ele>226.0</ele>
        <time>2018-09-16T12:22:15Z</time>
      </trkpt>
      <trkpt lat="39.3721680" lon="-0.7141500">
        <ele>226.0</ele>
        <time>2018-09-16T12:22:16Z</time>
      </trkpt>
      <trkpt lat="39.3721680" lon="-0.7141500">
        <ele>226.0</ele>
        <time>2018-09-16T12:22:17Z</time>
      </trkpt>
      <trkpt lat="39.3722820" lon="-0.7141870">
        <ele>226.0</ele>
        <time>2018-09-16T12:22:18Z</time>
      </trkpt>
      <trkpt lat="39.3723370" lon="-0.7142070">
        <ele>226.0</ele>
        <time>2018-09-16T12:22:19Z</time>
      </trkpt>
      <trkpt lat="39.3723370" lon="-0.7142070">
        <ele>226.0</ele>
        <time>2018-09-16T12:22:20Z</time>
      </trkpt>
      <trkpt lat="39.3724480" lon="-0.7142420">
        <ele>226.0</ele>
        <time>2018-09-16T12:22:21Z</time>
      </trkpt>
      <trkpt lat="39.3724480" lon="-0.7142420">
        <ele>226.0</ele>
        <time>2018-09-16T12:22:22Z</time>
      </trkpt>
      <trkpt lat="39.3725630" lon="-0.7142670">
        <ele>226.0</ele>
        <time>2018-09-16T12:22:23Z</time>
      </trkpt>
      <trkpt lat="39.3725630" lon="-0.7142670">
        <ele>226.0</ele>
        <time>2018-09-16T12:22:24Z</time>
      </trkpt>
      <trkpt lat="39.3726780" lon="-0.7142670">
        <ele>226.0</ele>
        <time>2018-09-16T12:22:25Z</time>
      </trkpt>
      <trkpt lat="39.3726780" lon="-0.7142670">
        <ele>226.0</ele>
        <time>2018-09-16T12:22:26Z</time>
      </trkpt>
      <trkpt lat="39.3727920" lon="-0.7142430">
        <ele>226.0</ele>
        <time>2018-09-16T12:22:27Z</time>
      </trkpt>
      <trkpt lat="39.3728470" lon="-0.7142200">
        <ele>226.0</ele>
        <time>2018-09-16T12:22:28Z</time>
      </trkpt>
      <trkpt lat="39.3728470" lon="-0.7142200">
        <ele>226.0</ele>
        <time>2018-09-16T12:22:29Z</time>
      </trkpt>
      <trkpt lat="39.3729500" lon="-0.7141520">
        <ele>226.0</ele>
        <time>2018-09-16T12:22:30Z</time>
      </trkpt>
      <trkpt lat="39.3730000" lon="-0.7141070">
        <ele>226.0</ele>
        <time>2018-09-16T12:22:31Z</time>
      </trkpt>
      <trkpt lat="39.3730000" lon="-0.7141070">
        <ele>226.0</ele>
        <time>2018-09-16T12:22:32Z</time>
      </trkpt>
      <trkpt lat="39.3730930" lon="-0.7140100">
        <ele>226.0</ele>
        <time>2018-09-16T12:22:33Z</time>
      </trkpt>
      <trkpt lat="39.3730930" lon="-0.7140100">
        <ele>226.0</ele>
        <time>2018-09-16T12:22:34Z</time>
      </trkpt>
      <trkpt lat="39.3731870" lon="-0.7139170">
        <ele>226.0</ele>
        <time>2018-09-16T12:22:35Z</time>
      </trkpt>
      <trkpt lat="39.3732330" lon="-0.7138720">
        <ele>226.0</ele>
        <time>2018-09-16T12:22:36Z</time>
      </trkpt>
      <trkpt lat="39.3732330" lon="-0.7138720">
        <ele>226.0</ele>
        <time>2018-09-16T12:22:37Z</time>
      </trkpt>
      <trkpt lat="39.3733230" lon="-0.7137750">
        <ele>226.0</ele>
        <time>2018-09-16T12:22:38Z</time>
      </trkpt>
      <trkpt lat="39.3733680" lon="-0.7137280">
        <ele>226.0</ele>
        <time>2018-09-16T12:22:39Z</time>
      </trkpt>
      <trkpt lat="39.3733680" lon="-0.7137280">
        <ele>226.0</ele>
        <time>2018-09-16T12:22:40Z</time>
      </trkpt>
      <trkpt lat="39.3734570" lon="-0.7136370">
        <ele>226.0</ele>
        <time>2018-09-16T12:22:41Z</time>
      </trkpt>
      <trkpt lat="39.3734570" lon="-0.7136370">
        <ele>226.0</ele>
        <time>2018-09-16T12:22:42Z</time>
      </trkpt>
      <trkpt lat="39.3735450" lon="-0.7135470">
        <ele>226.0</ele>
        <time>2018-09-16T12:22:43Z</time>
      </trkpt>
      <trkpt lat="39.3735880" lon="-0.7135030">
        <ele>226.0</ele>
        <time>2018-09-16T12:22:44Z</time>
      </trkpt>
      <trkpt lat="39.3735880" lon="-0.7135030">
        <ele>226.0</ele>
        <time>2018-09-16T12:22:45Z</time>
      </trkpt>
      <trkpt lat="39.3736700" lon="-0.7134150">
        <ele>226.0</ele>
        <time>2018-09-16T12:22:46Z</time>
      </trkpt>
      <trkpt lat="39.3736700" lon="-0.7134150">
        <ele>226.0</ele>
        <time>2018-09-16T12:22:47Z</time>
      </trkpt>
      <trkpt lat="39.3737500" lon="-0.7133230">
        <ele>226.0</ele>
        <time>2018-09-16T12:22:48Z</time>
      </trkpt>
      <trkpt lat="39.3737880" lon="-0.7132820">
        <ele>226.0</ele>
        <time>2018-09-16T12:22:49Z</time>
      </trkpt>
      <trkpt lat="39.3738280" lon="-0.7132380">
        <ele>227.0</ele>
        <time>2018-09-16T12:22:50Z</time>
      </trkpt>
      <trkpt lat="39.3738280" lon="-0.7132380">
        <ele>227.0</ele>
        <time>2018-09-16T12:22:51Z</time>
      </trkpt>
      <trkpt lat="39.3739070" lon="-0.7131580">
        <ele>227.0</ele>
        <time>2018-09-16T12:22:52Z</time>
      </trkpt>
      <trkpt lat="39.3739450" lon="-0.7131180">
        <ele>227.0</ele>
        <time>2018-09-16T12:22:53Z</time>
      </trkpt>
      <trkpt lat="39.3739450" lon="-0.7131180">
        <ele>227.0</ele>
        <time>2018-09-16T12:22:54Z</time>
      </trkpt>
      <trkpt lat="39.3740220" lon="-0.7130400">
        <ele>228.0</ele>
        <time>2018-09-16T12:22:55Z</time>
      </trkpt>
      <trkpt lat="39.3740580" lon="-0.7130020">
        <ele>228.0</ele>
        <time>2018-09-16T12:22:56Z</time>
      </trkpt>
      <trkpt lat="39.3740970" lon="-0.7129670">
        <ele>228.0</ele>
        <time>2018-09-16T12:22:57Z</time>
      </trkpt>
      <trkpt lat="39.3740970" lon="-0.7129670">
        <ele>228.0</ele>
        <time>2018-09-16T12:22:58Z</time>
      </trkpt>
      <trkpt lat="39.3741670" lon="-0.7129000">
        <ele>228.0</ele>
        <time>2018-09-16T12:22:59Z</time>
      </trkpt>
      <trkpt lat="39.3742000" lon="-0.7128650">
        <ele>228.0</ele>
        <time>2018-09-16T12:23:00Z</time>
      </trkpt>
      <trkpt lat="39.3742000" lon="-0.7128650">
        <ele>228.0</ele>
        <time>2018-09-16T12:23:01Z</time>
      </trkpt>
      <trkpt lat="39.3742650" lon="-0.7127980">
        <ele>228.0</ele>
        <time>2018-09-16T12:23:02Z</time>
      </trkpt>
      <trkpt lat="39.3742970" lon="-0.7127670">
        <ele>228.0</ele>
        <time>2018-09-16T12:23:03Z</time>
      </trkpt>
      <trkpt lat="39.3742970" lon="-0.7127670">
        <ele>228.0</ele>
        <time>2018-09-16T12:23:04Z</time>
      </trkpt>
      <trkpt lat="39.3743620" lon="-0.7126980">
        <ele>228.0</ele>
        <time>2018-09-16T12:23:05Z</time>
      </trkpt>
      <trkpt lat="39.3743950" lon="-0.7126630">
        <ele>228.0</ele>
        <time>2018-09-16T12:23:06Z</time>
      </trkpt>
      <trkpt lat="39.3744280" lon="-0.7126300">
        <ele>229.0</ele>
        <time>2018-09-16T12:23:07Z</time>
      </trkpt>
      <trkpt lat="39.3744280" lon="-0.7126300">
        <ele>229.0</ele>
        <time>2018-09-16T12:23:08Z</time>
      </trkpt>
      <trkpt lat="39.3744920" lon="-0.7125670">
        <ele>229.0</ele>
        <time>2018-09-16T12:23:09Z</time>
      </trkpt>
      <trkpt lat="39.3744920" lon="-0.7125670">
        <ele>229.0</ele>
        <time>2018-09-16T12:23:10Z</time>
      </trkpt>
      <trkpt lat="39.3745550" lon="-0.7125050">
        <ele>229.0</ele>
        <time>2018-09-16T12:23:11Z</time>
      </trkpt>
      <trkpt lat="39.3745850" lon="-0.7124730">
        <ele>229.0</ele>
        <time>2018-09-16T12:23:12Z</time>
      </trkpt>
      <trkpt lat="39.3745850" lon="-0.7124730">
        <ele>230.0</ele>
        <time>2018-09-16T12:23:13Z</time>
      </trkpt>
      <trkpt lat="39.3746420" lon="-0.7124220">
        <ele>230.0</ele>
        <time>2018-09-16T12:23:14Z</time>
      </trkpt>
      <trkpt lat="39.3746420" lon="-0.7124220">
        <ele>230.0</ele>
        <time>2018-09-16T12:23:15Z</time>
      </trkpt>
      <trkpt lat="39.3746980" lon="-0.7123780">
        <ele>230.0</ele>
        <time>2018-09-16T12:23:16Z</time>
      </trkpt>
      <trkpt lat="39.3746980" lon="-0.7123780">
        <ele>230.0</ele>
        <time>2018-09-16T12:23:17Z</time>
      </trkpt>
      <trkpt lat="39.3747530" lon="-0.7123230">
        <ele>230.0</ele>
        <time>2018-09-16T12:23:18Z</time>
      </trkpt>
      <trkpt lat="39.3747820" lon="-0.7122880">
        <ele>230.0</ele>
        <time>2018-09-16T12:23:19Z</time>
      </trkpt>
      <trkpt lat="39.3747820" lon="-0.7122880">
        <ele>231.0</ele>
        <time>2018-09-16T12:23:20Z</time>
      </trkpt>
      <trkpt lat="39.3748350" lon="-0.7122250">
        <ele>231.0</ele>
        <time>2018-09-16T12:23:21Z</time>
      </trkpt>
      <trkpt lat="39.3748350" lon="-0.7122250">
        <ele>231.0</ele>
        <time>2018-09-16T12:23:22Z</time>
      </trkpt>
      <trkpt lat="39.3748930" lon="-0.7121650">
        <ele>231.0</ele>
        <time>2018-09-16T12:23:23Z</time>
      </trkpt>
      <trkpt lat="39.3748930" lon="-0.7121650">
        <ele>231.0</ele>
        <time>2018-09-16T12:23:24Z</time>
      </trkpt>
      <trkpt lat="39.3749530" lon="-0.7121030">
        <ele>231.0</ele>
        <time>2018-09-16T12:23:25Z</time>
      </trkpt>
      <trkpt lat="39.3749530" lon="-0.7121030">
        <ele>231.0</ele>
        <time>2018-09-16T12:23:26Z</time>
      </trkpt>
      <trkpt lat="39.3750170" lon="-0.7120420">
        <ele>232.0</ele>
        <time>2018-09-16T12:23:27Z</time>
      </trkpt>
      <trkpt lat="39.3750480" lon="-0.7120080">
        <ele>232.0</ele>
        <time>2018-09-16T12:23:28Z</time>
      </trkpt>
      <trkpt lat="39.3750480" lon="-0.7120080">
        <ele>232.0</ele>
        <time>2018-09-16T12:23:29Z</time>
      </trkpt>
      <trkpt lat="39.3751080" lon="-0.7119450">
        <ele>232.0</ele>
        <time>2018-09-16T12:23:30Z</time>
      </trkpt>
      <trkpt lat="39.3751370" lon="-0.7119150">
        <ele>233.0</ele>
        <time>2018-09-16T12:23:31Z</time>
      </trkpt>
      <trkpt lat="39.3751370" lon="-0.7119150">
        <ele>233.0</ele>
        <time>2018-09-16T12:23:32Z</time>
      </trkpt>
      <trkpt lat="39.3752020" lon="-0.7118530">
        <ele>233.0</ele>
        <time>2018-09-16T12:23:33Z</time>
      </trkpt>
      <trkpt lat="39.3752020" lon="-0.7118530">
        <ele>233.0</ele>
        <time>2018-09-16T12:23:34Z</time>
      </trkpt>
      <trkpt lat="39.3752650" lon="-0.7117900">
        <ele>233.0</ele>
        <time>2018-09-16T12:23:35Z</time>
      </trkpt>
      <trkpt lat="39.3752650" lon="-0.7117900">
        <ele>233.0</ele>
        <time>2018-09-16T12:23:36Z</time>
      </trkpt>
      <trkpt lat="39.3753320" lon="-0.7117280">
        <ele>234.0</ele>
        <time>2018-09-16T12:23:37Z</time>
      </trkpt>
      <trkpt lat="39.3753320" lon="-0.7117280">
        <ele>234.0</ele>
        <time>2018-09-16T12:23:38Z</time>
      </trkpt>
      <trkpt lat="39.3753950" lon="-0.7116680">
        <ele>234.0</ele>
        <time>2018-09-16T12:23:39Z</time>
      </trkpt>
      <trkpt lat="39.3753950" lon="-0.7116680">
        <ele>234.0</ele>
        <time>2018-09-16T12:23:40Z</time>
      </trkpt>
      <trkpt lat="39.3754600" lon="-0.7116070">
        <ele>234.0</ele>
        <time>2018-09-16T12:23:41Z</time>
      </trkpt>
      <trkpt lat="39.3754600" lon="-0.7116070">
        <ele>234.0</ele>
        <time>2018-09-16T12:23:42Z</time>
      </trkpt>
      <trkpt lat="39.3755270" lon="-0.7115500">
        <ele>234.0</ele>
        <time>2018-09-16T12:23:43Z</time>
      </trkpt>
      <trkpt lat="39.3755630" lon="-0.7115230">
        <ele>235.0</ele>
        <time>2018-09-16T12:23:44Z</time>
      </trkpt>
      <trkpt lat="39.3755980" lon="-0.7114970">
        <ele>235.0</ele>
        <time>2018-09-16T12:23:45Z</time>
      </trkpt>
      <trkpt lat="39.3755980" lon="-0.7114970">
        <ele>235.0</ele>
        <time>2018-09-16T12:23:46Z</time>
      </trkpt>
      <trkpt lat="39.3756700" lon="-0.7114450">
        <ele>236.0</ele>
        <time>2018-09-16T12:23:47Z</time>
      </trkpt>
      <trkpt lat="39.3756700" lon="-0.7114450">
        <ele>236.0</ele>
        <time>2018-09-16T12:23:48Z</time>
      </trkpt>
      <trkpt lat="39.3757470" lon="-0.7114000">
        <ele>236.0</ele>
        <time>2018-09-16T12:23:49Z</time>
      </trkpt>
      <trkpt lat="39.3757470" lon="-0.7114000">
        <ele>236.0</ele>
        <time>2018-09-16T12:23:50Z</time>
      </trkpt>
      <trkpt lat="39.3758270" lon="-0.7113620">
        <ele>236.0</ele>
        <time>2018-09-16T12:23:51Z</time>
      </trkpt>
      <trkpt lat="39.3758270" lon="-0.7113620">
        <ele>236.0</ele>
        <time>2018-09-16T12:23:52Z</time>
      </trkpt>
      <trkpt lat="39.3759030" lon="-0.7113250">
        <ele>237.0</ele>
        <time>2018-09-16T12:23:53Z</time>
      </trkpt>
      <trkpt lat="39.3759030" lon="-0.7113250">
        <ele>237.0</ele>
        <time>2018-09-16T12:23:54Z</time>
      </trkpt>
      <trkpt lat="39.3759780" lon="-0.7112880">
        <ele>237.0</ele>
        <time>2018-09-16T12:23:55Z</time>
      </trkpt>
      <trkpt lat="39.3759780" lon="-0.7112880">
        <ele>237.0</ele>
        <time>2018-09-16T12:23:56Z</time>
      </trkpt>
      <trkpt lat="39.3760450" lon="-0.7112620">
        <ele>237.0</ele>
        <time>2018-09-16T12:23:57Z</time>
      </trkpt>
      <trkpt lat="39.3760450" lon="-0.7112620">
        <ele>237.0</ele>
        <time>2018-09-16T12:23:58Z</time>
      </trkpt>
      <trkpt lat="39.3761120" lon="-0.7112330">
        <ele>237.0</ele>
        <time>2018-09-16T12:23:59Z</time>
      </trkpt>
      <trkpt lat="39.3761430" lon="-0.7112200">
        <ele>237.0</ele>
        <time>2018-09-16T12:24:00Z</time>
      </trkpt>
      <trkpt lat="39.3761430" lon="-0.7112200">
        <ele>237.0</ele>
        <time>2018-09-16T12:24:01Z</time>
      </trkpt>
      <trkpt lat="39.3762080" lon="-0.7111870">
        <ele>237.0</ele>
        <time>2018-09-16T12:24:02Z</time>
      </trkpt>
      <trkpt lat="39.3762080" lon="-0.7111870">
        <ele>237.0</ele>
        <time>2018-09-16T12:24:03Z</time>
      </trkpt>
      <trkpt lat="39.3762750" lon="-0.7111550">
        <ele>237.0</ele>
        <time>2018-09-16T12:24:04Z</time>
      </trkpt>
      <trkpt lat="39.3762750" lon="-0.7111550">
        <ele>237.0</ele>
        <time>2018-09-16T12:24:05Z</time>
      </trkpt>
      <trkpt lat="39.3763450" lon="-0.7111250">
        <ele>237.0</ele>
        <time>2018-09-16T12:24:06Z</time>
      </trkpt>
      <trkpt lat="39.3763820" lon="-0.7111100">
        <ele>237.0</ele>
        <time>2018-09-16T12:24:07Z</time>
      </trkpt>
      <trkpt lat="39.3763820" lon="-0.7111100">
        <ele>237.0</ele>
        <time>2018-09-16T12:24:08Z</time>
      </trkpt>
      <trkpt lat="39.3764570" lon="-0.7110780">
        <ele>237.0</ele>
        <time>2018-09-16T12:24:09Z</time>
      </trkpt>
      <trkpt lat="39.3764570" lon="-0.7110780">
        <ele>237.0</ele>
        <time>2018-09-16T12:24:10Z</time>
      </trkpt>
      <trkpt lat="39.3765350" lon="-0.7110470">
        <ele>237.0</ele>
        <time>2018-09-16T12:24:11Z</time>
      </trkpt>
      <trkpt lat="39.3765350" lon="-0.7110470">
        <ele>237.0</ele>
        <time>2018-09-16T12:24:12Z</time>
      </trkpt>
      <trkpt lat="39.3766130" lon="-0.7110120">
        <ele>237.0</ele>
        <time>2018-09-16T12:24:13Z</time>
      </trkpt>
      <trkpt lat="39.3766130" lon="-0.7110120">
        <ele>237.0</ele>
        <time>2018-09-16T12:24:14Z</time>
      </trkpt>
      <trkpt lat="39.3766970" lon="-0.7109770">
        <ele>237.0</ele>
        <time>2018-09-16T12:24:15Z</time>
      </trkpt>
      <trkpt lat="39.3766970" lon="-0.7109770">
        <ele>237.0</ele>
        <time>2018-09-16T12:24:16Z</time>
      </trkpt>
      <trkpt lat="39.3767780" lon="-0.7109400">
        <ele>237.0</ele>
        <time>2018-09-16T12:24:17Z</time>
      </trkpt>
      <trkpt lat="39.3767780" lon="-0.7109400">
        <ele>237.0</ele>
        <time>2018-09-16T12:24:18Z</time>
      </trkpt>
      <trkpt lat="39.3768620" lon="-0.7109050">
        <ele>237.0</ele>
        <time>2018-09-16T12:24:19Z</time>
      </trkpt>
      <trkpt lat="39.3768620" lon="-0.7109050">
        <ele>237.0</ele>
        <time>2018-09-16T12:24:20Z</time>
      </trkpt>
      <trkpt lat="39.3769450" lon="-0.7108700">
        <ele>237.0</ele>
        <time>2018-09-16T12:24:21Z</time>
      </trkpt>
      <trkpt lat="39.3769450" lon="-0.7108700">
        <ele>237.0</ele>
        <time>2018-09-16T12:24:22Z</time>
      </trkpt>
      <trkpt lat="39.3770270" lon="-0.7108350">
        <ele>237.0</ele>
        <time>2018-09-16T12:24:23Z</time>
      </trkpt>
      <trkpt lat="39.3770270" lon="-0.7108350">
        <ele>237.0</ele>
        <time>2018-09-16T12:24:24Z</time>
      </trkpt>
      <trkpt lat="39.3771080" lon="-0.7107950">
        <ele>237.0</ele>
        <time>2018-09-16T12:24:25Z</time>
      </trkpt>
      <trkpt lat="39.3771080" lon="-0.7107950">
        <ele>237.0</ele>
        <time>2018-09-16T12:24:26Z</time>
      </trkpt>
      <trkpt lat="39.3771880" lon="-0.7107580">
        <ele>237.0</ele>
        <time>2018-09-16T12:24:27Z</time>
      </trkpt>
      <trkpt lat="39.3771880" lon="-0.7107580">
        <ele>237.0</ele>
        <time>2018-09-16T12:24:28Z</time>
      </trkpt>
      <trkpt lat="39.3772700" lon="-0.7107230">
        <ele>237.0</ele>
        <time>2018-09-16T12:24:29Z</time>
      </trkpt>
      <trkpt lat="39.3772700" lon="-0.7107230">
        <ele>237.0</ele>
        <time>2018-09-16T12:24:30Z</time>
      </trkpt>
      <trkpt lat="39.3773500" lon="-0.7106850">
        <ele>237.0</ele>
        <time>2018-09-16T12:24:31Z</time>
      </trkpt>
      <trkpt lat="39.3773920" lon="-0.7106670">
        <ele>237.0</ele>
        <time>2018-09-16T12:24:32Z</time>
      </trkpt>
      <trkpt lat="39.3774320" lon="-0.7106470">
        <ele>237.0</ele>
        <time>2018-09-16T12:24:33Z</time>
      </trkpt>
      <trkpt lat="39.3774320" lon="-0.7106470">
        <ele>237.0</ele>
        <time>2018-09-16T12:24:34Z</time>
      </trkpt>
      <trkpt lat="39.3775130" lon="-0.7106100">
        <ele>237.0</ele>
        <time>2018-09-16T12:24:35Z</time>
      </trkpt>
      <trkpt lat="39.3775550" lon="-0.7105920">
        <ele>238.0</ele>
        <time>2018-09-16T12:24:36Z</time>
      </trkpt>
      <trkpt lat="39.3775550" lon="-0.7105920">
        <ele>238.0</ele>
        <time>2018-09-16T12:24:37Z</time>
      </trkpt>
      <trkpt lat="39.3776380" lon="-0.7105530">
        <ele>238.0</ele>
        <time>2018-09-16T12:24:38Z</time>
      </trkpt>
      <trkpt lat="39.3776820" lon="-0.7105350">
        <ele>238.0</ele>
        <time>2018-09-16T12:24:39Z</time>
      </trkpt>
      <trkpt lat="39.3776820" lon="-0.7105350">
        <ele>238.0</ele>
        <time>2018-09-16T12:24:40Z</time>
      </trkpt>
      <trkpt lat="39.3777670" lon="-0.7105000">
        <ele>238.0</ele>
        <time>2018-09-16T12:24:41Z</time>
      </trkpt>
      <trkpt lat="39.3777670" lon="-0.7105000">
        <ele>238.0</ele>
        <time>2018-09-16T12:24:42Z</time>
      </trkpt>
      <trkpt lat="39.3778500" lon="-0.7104650">
        <ele>238.0</ele>
        <time>2018-09-16T12:24:43Z</time>
      </trkpt>
      <trkpt lat="39.3778500" lon="-0.7104650">
        <ele>238.0</ele>
        <time>2018-09-16T12:24:44Z</time>
      </trkpt>
      <trkpt lat="39.3779350" lon="-0.7104300">
        <ele>238.0</ele>
        <time>2018-09-16T12:24:45Z</time>
      </trkpt>
      <trkpt lat="39.3779350" lon="-0.7104300">
        <ele>238.0</ele>
        <time>2018-09-16T12:24:46Z</time>
      </trkpt>
      <trkpt lat="39.3780180" lon="-0.7104020">
        <ele>238.0</ele>
        <time>2018-09-16T12:24:47Z</time>
      </trkpt>
      <trkpt lat="39.3780180" lon="-0.7104020">
        <ele>238.0</ele>
        <time>2018-09-16T12:24:48Z</time>
      </trkpt>
      <trkpt lat="39.3781030" lon="-0.7103730">
        <ele>238.0</ele>
        <time>2018-09-16T12:24:49Z</time>
      </trkpt>
      <trkpt lat="39.3781030" lon="-0.7103730">
        <ele>238.0</ele>
        <time>2018-09-16T12:24:50Z</time>
      </trkpt>
      <trkpt lat="39.3781920" lon="-0.7103470">
        <ele>238.0</ele>
        <time>2018-09-16T12:24:51Z</time>
      </trkpt>
      <trkpt lat="39.3781920" lon="-0.7103470">
        <ele>238.0</ele>
        <time>2018-09-16T12:24:52Z</time>
      </trkpt>
      <trkpt lat="39.3782780" lon="-0.7103220">
        <ele>238.0</ele>
        <time>2018-09-16T12:24:53Z</time>
      </trkpt>
      <trkpt lat="39.3783220" lon="-0.7103080">
        <ele>238.0</ele>
        <time>2018-09-16T12:24:54Z</time>
      </trkpt>
      <trkpt lat="39.3783650" lon="-0.7102970">
        <ele>238.0</ele>
        <time>2018-09-16T12:24:55Z</time>
      </trkpt>
      <trkpt lat="39.3783650" lon="-0.7102970">
        <ele>238.0</ele>
        <time>2018-09-16T12:24:56Z</time>
      </trkpt>
      <trkpt lat="39.3784520" lon="-0.7102720">
        <ele>238.0</ele>
        <time>2018-09-16T12:24:57Z</time>
      </trkpt>
      <trkpt lat="39.3784520" lon="-0.7102720">
        <ele>238.0</ele>
        <time>2018-09-16T12:24:58Z</time>
      </trkpt>
      <trkpt lat="39.3785400" lon="-0.7102480">
        <ele>238.0</ele>
        <time>2018-09-16T12:24:59Z</time>
      </trkpt>
      <trkpt lat="39.3785400" lon="-0.7102480">
        <ele>238.0</ele>
        <time>2018-09-16T12:25:00Z</time>
      </trkpt>
      <trkpt lat="39.3786270" lon="-0.7102230">
        <ele>238.0</ele>
        <time>2018-09-16T12:25:01Z</time>
      </trkpt>
      <trkpt lat="39.3786270" lon="-0.7102230">
        <ele>238.0</ele>
        <time>2018-09-16T12:25:02Z</time>
      </trkpt>
      <trkpt lat="39.3787130" lon="-0.7102030">
        <ele>239.0</ele>
        <time>2018-09-16T12:25:03Z</time>
      </trkpt>
      <trkpt lat="39.3787570" lon="-0.7101930">
        <ele>239.0</ele>
        <time>2018-09-16T12:25:04Z</time>
      </trkpt>
      <trkpt lat="39.3787570" lon="-0.7101930">
        <ele>239.0</ele>
        <time>2018-09-16T12:25:05Z</time>
      </trkpt>
      <trkpt lat="39.3788420" lon="-0.7101720">
        <ele>239.0</ele>
        <time>2018-09-16T12:25:06Z</time>
      </trkpt>
      <trkpt lat="39.3788850" lon="-0.7101600">
        <ele>239.0</ele>
        <time>2018-09-16T12:25:07Z</time>
      </trkpt>
      <trkpt lat="39.3788850" lon="-0.7101600">
        <ele>239.0</ele>
        <time>2018-09-16T12:25:08Z</time>
      </trkpt>
      <trkpt lat="39.3789700" lon="-0.7101330">
        <ele>239.0</ele>
        <time>2018-09-16T12:25:09Z</time>
      </trkpt>
      <trkpt lat="39.3789700" lon="-0.7101330">
        <ele>239.0</ele>
        <time>2018-09-16T12:25:10Z</time>
      </trkpt>
      <trkpt lat="39.3790550" lon="-0.7101100">
        <ele>239.0</ele>
        <time>2018-09-16T12:25:11Z</time>
      </trkpt>
      <trkpt lat="39.3790550" lon="-0.7101100">
        <ele>239.0</ele>
        <time>2018-09-16T12:25:12Z</time>
      </trkpt>
      <trkpt lat="39.3791400" lon="-0.7100870">
        <ele>239.0</ele>
        <time>2018-09-16T12:25:13Z</time>
      </trkpt>
      <trkpt lat="39.3791400" lon="-0.7100870">
        <ele>239.0</ele>
        <time>2018-09-16T12:25:14Z</time>
      </trkpt>
      <trkpt lat="39.3792250" lon="-0.7100600">
        <ele>239.0</ele>
        <time>2018-09-16T12:25:15Z</time>
      </trkpt>
      <trkpt lat="39.3792250" lon="-0.7100600">
        <ele>239.0</ele>
        <time>2018-09-16T12:25:16Z</time>
      </trkpt>
      <trkpt lat="39.3793120" lon="-0.7100370">
        <ele>239.0</ele>
        <time>2018-09-16T12:25:17Z</time>
      </trkpt>
      <trkpt lat="39.3793530" lon="-0.7100270">
        <ele>239.0</ele>
        <time>2018-09-16T12:25:18Z</time>
      </trkpt>
      <trkpt lat="39.3793950" lon="-0.7100170">
        <ele>239.0</ele>
        <time>2018-09-16T12:25:19Z</time>
      </trkpt>
      <trkpt lat="39.3794370" lon="-0.7100080">
        <ele>239.0</ele>
        <time>2018-09-16T12:25:20Z</time>
      </trkpt>
      <trkpt lat="39.3794770" lon="-0.7099980">
        <ele>239.0</ele>
        <time>2018-09-16T12:25:21Z</time>
      </trkpt>
      <trkpt lat="39.3794770" lon="-0.7099980">
        <ele>239.0</ele>
        <time>2018-09-16T12:25:22Z</time>
      </trkpt>
      <trkpt lat="39.3795550" lon="-0.7099770">
        <ele>239.0</ele>
        <time>2018-09-16T12:25:23Z</time>
      </trkpt>
      <trkpt lat="39.3795550" lon="-0.7099770">
        <ele>239.0</ele>
        <time>2018-09-16T12:25:24Z</time>
      </trkpt>
      <trkpt lat="39.3796370" lon="-0.7099530">
        <ele>239.0</ele>
        <time>2018-09-16T12:25:25Z</time>
      </trkpt>
      <trkpt lat="39.3796370" lon="-0.7099530">
        <ele>239.0</ele>
        <time>2018-09-16T12:25:26Z</time>
      </trkpt>
      <trkpt lat="39.3797170" lon="-0.7099320">
        <ele>239.0</ele>
        <time>2018-09-16T12:25:27Z</time>
      </trkpt>
      <trkpt lat="39.3797170" lon="-0.7099320">
        <ele>240.0</ele>
        <time>2018-09-16T12:25:28Z</time>
      </trkpt>
      <trkpt lat="39.3797980" lon="-0.7099080">
        <ele>240.0</ele>
        <time>2018-09-16T12:25:29Z</time>
      </trkpt>
      <trkpt lat="39.3797980" lon="-0.7099080">
        <ele>240.0</ele>
        <time>2018-09-16T12:25:30Z</time>
      </trkpt>
      <trkpt lat="39.3798780" lon="-0.7098830">
        <ele>240.0</ele>
        <time>2018-09-16T12:25:31Z</time>
      </trkpt>
      <trkpt lat="39.3798780" lon="-0.7098830">
        <ele>240.0</ele>
        <time>2018-09-16T12:25:32Z</time>
      </trkpt>
      <trkpt lat="39.3799620" lon="-0.7098600">
        <ele>241.0</ele>
        <time>2018-09-16T12:25:33Z</time>
      </trkpt>
      <trkpt lat="39.3800030" lon="-0.7098500">
        <ele>241.0</ele>
        <time>2018-09-16T12:25:34Z</time>
      </trkpt>
      <trkpt lat="39.3800030" lon="-0.7098500">
        <ele>241.0</ele>
        <time>2018-09-16T12:25:35Z</time>
      </trkpt>
      <trkpt lat="39.3800880" lon="-0.7098280">
        <ele>241.0</ele>
        <time>2018-09-16T12:25:36Z</time>
      </trkpt>
      <trkpt lat="39.3801300" lon="-0.7098150">
        <ele>241.0</ele>
        <time>2018-09-16T12:25:37Z</time>
      </trkpt>
      <trkpt lat="39.3801300" lon="-0.7098150">
        <ele>241.0</ele>
        <time>2018-09-16T12:25:38Z</time>
      </trkpt>
      <trkpt lat="39.3802150" lon="-0.7097880">
        <ele>241.0</ele>
        <time>2018-09-16T12:25:39Z</time>
      </trkpt>
      <trkpt lat="39.3802570" lon="-0.7097770">
        <ele>241.0</ele>
        <time>2018-09-16T12:25:40Z</time>
      </trkpt>
      <trkpt lat="39.3802570" lon="-0.7097770">
        <ele>242.0</ele>
        <time>2018-09-16T12:25:41Z</time>
      </trkpt>
      <trkpt lat="39.3803430" lon="-0.7097530">
        <ele>242.0</ele>
        <time>2018-09-16T12:25:42Z</time>
      </trkpt>
      <trkpt lat="39.3803870" lon="-0.7097400">
        <ele>242.0</ele>
        <time>2018-09-16T12:25:43Z</time>
      </trkpt>
      <trkpt lat="39.3803870" lon="-0.7097400">
        <ele>242.0</ele>
        <time>2018-09-16T12:25:44Z</time>
      </trkpt>
      <trkpt lat="39.3804750" lon="-0.7097180">
        <ele>242.0</ele>
        <time>2018-09-16T12:25:45Z</time>
      </trkpt>
      <trkpt lat="39.3805180" lon="-0.7097050">
        <ele>242.0</ele>
        <time>2018-09-16T12:25:46Z</time>
      </trkpt>
      <trkpt lat="39.3805180" lon="-0.7097050">
        <ele>242.0</ele>
        <time>2018-09-16T12:25:47Z</time>
      </trkpt>
      <trkpt lat="39.3806030" lon="-0.7096800">
        <ele>242.0</ele>
        <time>2018-09-16T12:25:48Z</time>
      </trkpt>
      <trkpt lat="39.3806470" lon="-0.7096700">
        <ele>243.0</ele>
        <time>2018-09-16T12:25:49Z</time>
      </trkpt>
      <trkpt lat="39.3806900" lon="-0.7096600">
        <ele>243.0</ele>
        <time>2018-09-16T12:25:50Z</time>
      </trkpt>
      <trkpt lat="39.3807330" lon="-0.7096470">
        <ele>243.0</ele>
        <time>2018-09-16T12:25:51Z</time>
      </trkpt>
      <trkpt lat="39.3807330" lon="-0.7096470">
        <ele>243.0</ele>
        <time>2018-09-16T12:25:52Z</time>
      </trkpt>
      <trkpt lat="39.3808170" lon="-0.7096220">
        <ele>243.0</ele>
        <time>2018-09-16T12:25:53Z</time>
      </trkpt>
      <trkpt lat="39.3808170" lon="-0.7096220">
        <ele>243.0</ele>
        <time>2018-09-16T12:25:54Z</time>
      </trkpt>
      <trkpt lat="39.3809020" lon="-0.7095970">
        <ele>243.0</ele>
        <time>2018-09-16T12:25:55Z</time>
      </trkpt>
      <trkpt lat="39.3809020" lon="-0.7095970">
        <ele>243.0</ele>
        <time>2018-09-16T12:25:56Z</time>
      </trkpt>
      <trkpt lat="39.3809850" lon="-0.7095770">
        <ele>244.0</ele>
        <time>2018-09-16T12:25:57Z</time>
      </trkpt>
      <trkpt lat="39.3809850" lon="-0.7095770">
        <ele>244.0</ele>
        <time>2018-09-16T12:25:58Z</time>
      </trkpt>
      <trkpt lat="39.3810700" lon="-0.7095550">
        <ele>244.0</ele>
        <time>2018-09-16T12:25:59Z</time>
      </trkpt>
      <trkpt lat="39.3811120" lon="-0.7095430">
        <ele>244.0</ele>
        <time>2018-09-16T12:26:00Z</time>
      </trkpt>
      <trkpt lat="39.3811120" lon="-0.7095430">
        <ele>244.0</ele>
        <time>2018-09-16T12:26:01Z</time>
      </trkpt>
      <trkpt lat="39.3811970" lon="-0.7095200">
        <ele>244.0</ele>
        <time>2018-09-16T12:26:02Z</time>
      </trkpt>
      <trkpt lat="39.3812400" lon="-0.7095100">
        <ele>244.0</ele>
        <time>2018-09-16T12:26:03Z</time>
      </trkpt>
      <trkpt lat="39.3812400" lon="-0.7095100">
        <ele>244.0</ele>
        <time>2018-09-16T12:26:04Z</time>
      </trkpt>
      <trkpt lat="39.3813280" lon="-0.7094920">
        <ele>244.0</ele>
        <time>2018-09-16T12:26:05Z</time>
      </trkpt>
      <trkpt lat="39.3813280" lon="-0.7094920">
        <ele>244.0</ele>
        <time>2018-09-16T12:26:06Z</time>
      </trkpt>
      <trkpt lat="39.3814180" lon="-0.7094830">
        <ele>244.0</ele>
        <time>2018-09-16T12:26:07Z</time>
      </trkpt>
      <trkpt lat="39.3814180" lon="-0.7094830">
        <ele>244.0</ele>
        <time>2018-09-16T12:26:08Z</time>
      </trkpt>
      <trkpt lat="39.3815100" lon="-0.7094780">
        <ele>244.0</ele>
        <time>2018-09-16T12:26:09Z</time>
      </trkpt>
      <trkpt lat="39.3815100" lon="-0.7094780">
        <ele>244.0</ele>
        <time>2018-09-16T12:26:10Z</time>
      </trkpt>
      <trkpt lat="39.3816000" lon="-0.7094850">
        <ele>244.0</ele>
        <time>2018-09-16T12:26:11Z</time>
      </trkpt>
      <trkpt lat="39.3816000" lon="-0.7094850">
        <ele>244.0</ele>
        <time>2018-09-16T12:26:12Z</time>
      </trkpt>
      <trkpt lat="39.3816930" lon="-0.7095020">
        <ele>244.0</ele>
        <time>2018-09-16T12:26:13Z</time>
      </trkpt>
      <trkpt lat="39.3816930" lon="-0.7095020">
        <ele>244.0</ele>
        <time>2018-09-16T12:26:14Z</time>
      </trkpt>
      <trkpt lat="39.3817850" lon="-0.7095170">
        <ele>244.0</ele>
        <time>2018-09-16T12:26:15Z</time>
      </trkpt>
      <trkpt lat="39.3817850" lon="-0.7095170">
        <ele>244.0</ele>
        <time>2018-09-16T12:26:16Z</time>
      </trkpt>
      <trkpt lat="39.3818770" lon="-0.7095330">
        <ele>244.0</ele>
        <time>2018-09-16T12:26:17Z</time>
      </trkpt>
      <trkpt lat="39.3819220" lon="-0.7095420">
        <ele>244.0</ele>
        <time>2018-09-16T12:26:18Z</time>
      </trkpt>
      <trkpt lat="39.3819680" lon="-0.7095480">
        <ele>244.0</ele>
        <time>2018-09-16T12:26:19Z</time>
      </trkpt>
      <trkpt lat="39.3819680" lon="-0.7095480">
        <ele>245.0</ele>
        <time>2018-09-16T12:26:20Z</time>
      </trkpt>
      <trkpt lat="39.3820580" lon="-0.7095670">
        <ele>245.0</ele>
        <time>2018-09-16T12:26:21Z</time>
      </trkpt>
      <trkpt lat="39.3820580" lon="-0.7095670">
        <ele>245.0</ele>
        <time>2018-09-16T12:26:22Z</time>
      </trkpt>
      <trkpt lat="39.3821450" lon="-0.7095830">
        <ele>245.0</ele>
        <time>2018-09-16T12:26:23Z</time>
      </trkpt>
      <trkpt lat="39.3821880" lon="-0.7095930">
        <ele>245.0</ele>
        <time>2018-09-16T12:26:24Z</time>
      </trkpt>
      <trkpt lat="39.3821880" lon="-0.7095930">
        <ele>245.0</ele>
        <time>2018-09-16T12:26:25Z</time>
      </trkpt>
      <trkpt lat="39.3822680" lon="-0.7096080">
        <ele>245.0</ele>
        <time>2018-09-16T12:26:26Z</time>
      </trkpt>
      <trkpt lat="39.3822680" lon="-0.7096080">
        <ele>246.0</ele>
        <time>2018-09-16T12:26:27Z</time>
      </trkpt>
      <trkpt lat="39.3823480" lon="-0.7096230">
        <ele>246.0</ele>
        <time>2018-09-16T12:26:28Z</time>
      </trkpt>
      <trkpt lat="39.3823480" lon="-0.7096230">
        <ele>246.0</ele>
        <time>2018-09-16T12:26:29Z</time>
      </trkpt>
      <trkpt lat="39.3824280" lon="-0.7096400">
        <ele>246.0</ele>
        <time>2018-09-16T12:26:30Z</time>
      </trkpt>
      <trkpt lat="39.3824650" lon="-0.7096470">
        <ele>246.0</ele>
        <time>2018-09-16T12:26:31Z</time>
      </trkpt>
      <trkpt lat="39.3824650" lon="-0.7096470">
        <ele>246.0</ele>
        <time>2018-09-16T12:26:32Z</time>
      </trkpt>
      <trkpt lat="39.3825380" lon="-0.7096580">
        <ele>247.0</ele>
        <time>2018-09-16T12:26:33Z</time>
      </trkpt>
      <trkpt lat="39.3825750" lon="-0.7096630">
        <ele>247.0</ele>
        <time>2018-09-16T12:26:34Z</time>
      </trkpt>
      <trkpt lat="39.3825750" lon="-0.7096630">
        <ele>247.0</ele>
        <time>2018-09-16T12:26:35Z</time>
      </trkpt>
      <trkpt lat="39.3826480" lon="-0.7096780">
        <ele>247.0</ele>
        <time>2018-09-16T12:26:36Z</time>
      </trkpt>
      <trkpt lat="39.3826480" lon="-0.7096780">
        <ele>247.0</ele>
        <time>2018-09-16T12:26:37Z</time>
      </trkpt>
      <trkpt lat="39.3827200" lon="-0.7096930">
        <ele>247.0</ele>
        <time>2018-09-16T12:26:38Z</time>
      </trkpt>
      <trkpt lat="39.3827570" lon="-0.7097020">
        <ele>248.0</ele>
        <time>2018-09-16T12:26:39Z</time>
      </trkpt>
      <trkpt lat="39.3827570" lon="-0.7097020">
        <ele>248.0</ele>
        <time>2018-09-16T12:26:40Z</time>
      </trkpt>
      <trkpt lat="39.3828300" lon="-0.7097180">
        <ele>248.0</ele>
        <time>2018-09-16T12:26:41Z</time>
      </trkpt>
      <trkpt lat="39.3828300" lon="-0.7097180">
        <ele>248.0</ele>
        <time>2018-09-16T12:26:42Z</time>
      </trkpt>
      <trkpt lat="39.3829020" lon="-0.7097300">
        <ele>248.0</ele>
        <time>2018-09-16T12:26:43Z</time>
      </trkpt>
      <trkpt lat="39.3829020" lon="-0.7097300">
        <ele>248.0</ele>
        <time>2018-09-16T12:26:44Z</time>
      </trkpt>
      <trkpt lat="39.3829730" lon="-0.7097400">
        <ele>248.0</ele>
        <time>2018-09-16T12:26:45Z</time>
      </trkpt>
      <trkpt lat="39.3829730" lon="-0.7097400">
        <ele>248.0</ele>
        <time>2018-09-16T12:26:46Z</time>
      </trkpt>
      <trkpt lat="39.3830450" lon="-0.7097520">
        <ele>249.0</ele>
        <time>2018-09-16T12:26:47Z</time>
      </trkpt>
      <trkpt lat="39.3830800" lon="-0.7097600">
        <ele>249.0</ele>
        <time>2018-09-16T12:26:48Z</time>
      </trkpt>
      <trkpt lat="39.3831150" lon="-0.7097670">
        <ele>249.0</ele>
        <time>2018-09-16T12:26:49Z</time>
      </trkpt>
      <trkpt lat="39.3831500" lon="-0.7097730">
        <ele>249.0</ele>
        <time>2018-09-16T12:26:50Z</time>
      </trkpt>
      <trkpt lat="39.3831500" lon="-0.7097730">
        <ele>249.0</ele>
        <time>2018-09-16T12:26:51Z</time>
      </trkpt>
      <trkpt lat="39.3832170" lon="-0.7097870">
        <ele>250.0</ele>
        <time>2018-09-16T12:26:52Z</time>
      </trkpt>
      <trkpt lat="39.3832170" lon="-0.7097870">
        <ele>250.0</ele>
        <time>2018-09-16T12:26:53Z</time>
      </trkpt>
      <trkpt lat="39.3832830" lon="-0.7097980">
        <ele>250.0</ele>
        <time>2018-09-16T12:26:54Z</time>
      </trkpt>
      <trkpt lat="39.3833170" lon="-0.7098050">
        <ele>250.0</ele>
        <time>2018-09-16T12:26:55Z</time>
      </trkpt>
      <trkpt lat="39.3833170" lon="-0.7098050">
        <ele>251.0</ele>
        <time>2018-09-16T12:26:56Z</time>
      </trkpt>
      <trkpt lat="39.3833830" lon="-0.7098180">
        <ele>251.0</ele>
        <time>2018-09-16T12:26:57Z</time>
      </trkpt>
      <trkpt lat="39.3834170" lon="-0.7098250">
        <ele>251.0</ele>
        <time>2018-09-16T12:26:58Z</time>
      </trkpt>
      <trkpt lat="39.3834500" lon="-0.7098320">
        <ele>251.0</ele>
        <time>2018-09-16T12:26:59Z</time>
      </trkpt>
      <trkpt lat="39.3834850" lon="-0.7098370">
        <ele>251.0</ele>
        <time>2018-09-16T12:27:00Z</time>
      </trkpt>
      <trkpt lat="39.3834850" lon="-0.7098370">
        <ele>251.0</ele>
        <time>2018-09-16T12:27:01Z</time>
      </trkpt>
      <trkpt lat="39.3835530" lon="-0.7098470">
        <ele>251.0</ele>
        <time>2018-09-16T12:27:02Z</time>
      </trkpt>
      <trkpt lat="39.3835900" lon="-0.7098520">
        <ele>251.0</ele>
        <time>2018-09-16T12:27:03Z</time>
      </trkpt>
      <trkpt lat="39.3835900" lon="-0.7098520">
        <ele>251.0</ele>
        <time>2018-09-16T12:27:04Z</time>
      </trkpt>
      <trkpt lat="39.3836570" lon="-0.7098600">
        <ele>251.0</ele>
        <time>2018-09-16T12:27:05Z</time>
      </trkpt>
      <trkpt lat="39.3836570" lon="-0.7098600">
        <ele>252.0</ele>
        <time>2018-09-16T12:27:06Z</time>
      </trkpt>
      <trkpt lat="39.3837220" lon="-0.7098720">
        <ele>252.0</ele>
        <time>2018-09-16T12:27:07Z</time>
      </trkpt>
      <trkpt lat="39.3837530" lon="-0.7098770">
        <ele>252.0</ele>
        <time>2018-09-16T12:27:08Z</time>
      </trkpt>
      <trkpt lat="39.3837850" lon="-0.7098830">
        <ele>252.0</ele>
        <time>2018-09-16T12:27:09Z</time>
      </trkpt>
      <trkpt lat="39.3837850" lon="-0.7098830">
        <ele>252.0</ele>
        <time>2018-09-16T12:27:10Z</time>
      </trkpt>
      <trkpt lat="39.3838450" lon="-0.7098970">
        <ele>252.0</ele>
        <time>2018-09-16T12:27:11Z</time>
      </trkpt>
      <trkpt lat="39.3838450" lon="-0.7098970">
        <ele>253.0</ele>
        <time>2018-09-16T12:27:12Z</time>
      </trkpt>
      <trkpt lat="39.3839030" lon="-0.7099130">
        <ele>253.0</ele>
        <time>2018-09-16T12:27:13Z</time>
      </trkpt>
      <trkpt lat="39.3839030" lon="-0.7099130">
        <ele>253.0</ele>
        <time>2018-09-16T12:27:14Z</time>
      </trkpt>
      <trkpt lat="39.3839650" lon="-0.7099300">
        <ele>253.0</ele>
        <time>2018-09-16T12:27:15Z</time>
      </trkpt>
      <trkpt lat="39.3839650" lon="-0.7099300">
        <ele>254.0</ele>
        <time>2018-09-16T12:27:16Z</time>
      </trkpt>
      <trkpt lat="39.3840280" lon="-0.7099480">
        <ele>254.0</ele>
        <time>2018-09-16T12:27:17Z</time>
      </trkpt>
      <trkpt lat="39.3840280" lon="-0.7099480">
        <ele>254.0</ele>
        <time>2018-09-16T12:27:18Z</time>
      </trkpt>
      <trkpt lat="39.3840880" lon="-0.7099700">
        <ele>254.0</ele>
        <time>2018-09-16T12:27:19Z</time>
      </trkpt>
      <trkpt lat="39.3840880" lon="-0.7099700">
        <ele>254.0</ele>
        <time>2018-09-16T12:27:20Z</time>
      </trkpt>
      <trkpt lat="39.3841450" lon="-0.7099930">
        <ele>254.0</ele>
        <time>2018-09-16T12:27:21Z</time>
      </trkpt>
      <trkpt lat="39.3841450" lon="-0.7099930">
        <ele>256.0</ele>
        <time>2018-09-16T12:27:22Z</time>
      </trkpt>
      <trkpt lat="39.3842000" lon="-0.7100200">
        <ele>256.0</ele>
        <time>2018-09-16T12:27:23Z</time>
      </trkpt>
      <trkpt lat="39.3842000" lon="-0.7100200">
        <ele>256.0</ele>
        <time>2018-09-16T12:27:24Z</time>
      </trkpt>
      <trkpt lat="39.3842550" lon="-0.7100450">
        <ele>256.0</ele>
        <time>2018-09-16T12:27:25Z</time>
      </trkpt>
      <trkpt lat="39.3842550" lon="-0.7100450">
        <ele>256.0</ele>
        <time>2018-09-16T12:27:26Z</time>
      </trkpt>
      <trkpt lat="39.3843100" lon="-0.7100750">
        <ele>256.0</ele>
        <time>2018-09-16T12:27:27Z</time>
      </trkpt>
      <trkpt lat="39.3843370" lon="-0.7100920">
        <ele>256.0</ele>
        <time>2018-09-16T12:27:28Z</time>
      </trkpt>
      <trkpt lat="39.3843370" lon="-0.7100920">
        <ele>256.0</ele>
        <time>2018-09-16T12:27:29Z</time>
      </trkpt>
      <trkpt lat="39.3843900" lon="-0.7101270">
        <ele>256.0</ele>
        <time>2018-09-16T12:27:30Z</time>
      </trkpt>
      <trkpt lat="39.3844170" lon="-0.7101430">
        <ele>256.0</ele>
        <time>2018-09-16T12:27:31Z</time>
      </trkpt>
      <trkpt lat="39.3844170" lon="-0.7101430">
        <ele>257.0</ele>
        <time>2018-09-16T12:27:32Z</time>
      </trkpt>
      <trkpt lat="39.3844720" lon="-0.7101750">
        <ele>257.0</ele>
        <time>2018-09-16T12:27:33Z</time>
      </trkpt>
      <trkpt lat="39.3844720" lon="-0.7101750">
        <ele>257.0</ele>
        <time>2018-09-16T12:27:34Z</time>
      </trkpt>
      <trkpt lat="39.3845320" lon="-0.7102020">
        <ele>257.0</ele>
        <time>2018-09-16T12:27:35Z</time>
      </trkpt>
      <trkpt lat="39.3845320" lon="-0.7102020">
        <ele>257.0</ele>
        <time>2018-09-16T12:27:36Z</time>
      </trkpt>
      <trkpt lat="39.3845880" lon="-0.7102350">
        <ele>257.0</ele>
        <time>2018-09-16T12:27:37Z</time>
      </trkpt>
      <trkpt lat="39.3845880" lon="-0.7102350">
        <ele>257.0</ele>
        <time>2018-09-16T12:27:38Z</time>
      </trkpt>
      <trkpt lat="39.3846430" lon="-0.7102670">
        <ele>258.0</ele>
        <time>2018-09-16T12:27:39Z</time>
      </trkpt>
      <trkpt lat="39.3846700" lon="-0.7102830">
        <ele>258.0</ele>
        <time>2018-09-16T12:27:40Z</time>
      </trkpt>
      <trkpt lat="39.3846700" lon="-0.7102830">
        <ele>258.0</ele>
        <time>2018-09-16T12:27:41Z</time>
      </trkpt>
      <trkpt lat="39.3847250" lon="-0.7103170">
        <ele>258.0</ele>
        <time>2018-09-16T12:27:42Z</time>
      </trkpt>
      <trkpt lat="39.3847250" lon="-0.7103170">
        <ele>258.0</ele>
        <time>2018-09-16T12:27:43Z</time>
      </trkpt>
      <trkpt lat="39.3847820" lon="-0.7103500">
        <ele>259.0</ele>
        <time>2018-09-16T12:27:44Z</time>
      </trkpt>
      <trkpt lat="39.3848100" lon="-0.7103670">
        <ele>259.0</ele>
        <time>2018-09-16T12:27:45Z</time>
      </trkpt>
      <trkpt lat="39.3848100" lon="-0.7103670">
        <ele>259.0</ele>
        <time>2018-09-16T12:27:46Z</time>
      </trkpt>
      <trkpt lat="39.3848650" lon="-0.7103970">
        <ele>259.0</ele>
        <time>2018-09-16T12:27:47Z</time>
      </trkpt>
      <trkpt lat="39.3848650" lon="-0.7103970">
        <ele>259.0</ele>
        <time>2018-09-16T12:27:48Z</time>
      </trkpt>
      <trkpt lat="39.3849150" lon="-0.7104270">
        <ele>259.0</ele>
        <time>2018-09-16T12:27:49Z</time>
      </trkpt>
      <trkpt lat="39.3849430" lon="-0.7104450">
        <ele>260.0</ele>
        <time>2018-09-16T12:27:50Z</time>
      </trkpt>
      <trkpt lat="39.3849730" lon="-0.7104650">
        <ele>260.0</ele>
        <time>2018-09-16T12:27:51Z</time>
      </trkpt>
      <trkpt lat="39.3849730" lon="-0.7104650">
        <ele>260.0</ele>
        <time>2018-09-16T12:27:52Z</time>
      </trkpt>
      <trkpt lat="39.3850380" lon="-0.7105050">
        <ele>260.0</ele>
        <time>2018-09-16T12:27:53Z</time>
      </trkpt>
      <trkpt lat="39.3850380" lon="-0.7105050">
        <ele>260.0</ele>
        <time>2018-09-16T12:27:54Z</time>
      </trkpt>
      <trkpt lat="39.3851080" lon="-0.7105470">
        <ele>260.0</ele>
        <time>2018-09-16T12:27:55Z</time>
      </trkpt>
      <trkpt lat="39.3851080" lon="-0.7105470">
        <ele>260.0</ele>
        <time>2018-09-16T12:27:56Z</time>
      </trkpt>
      <trkpt lat="39.3851850" lon="-0.7105900">
        <ele>260.0</ele>
        <time>2018-09-16T12:27:57Z</time>
      </trkpt>
      <trkpt lat="39.3851850" lon="-0.7105900">
        <ele>260.0</ele>
        <time>2018-09-16T12:27:58Z</time>
      </trkpt>
      <trkpt lat="39.3852630" lon="-0.7106330">
        <ele>260.0</ele>
        <time>2018-09-16T12:27:59Z</time>
      </trkpt>
      <trkpt lat="39.3852630" lon="-0.7106330">
        <ele>261.0</ele>
        <time>2018-09-16T12:28:00Z</time>
      </trkpt>
      <trkpt lat="39.3853420" lon="-0.7106800">
        <ele>261.0</ele>
        <time>2018-09-16T12:28:01Z</time>
      </trkpt>
      <trkpt lat="39.3853420" lon="-0.7106800">
        <ele>261.0</ele>
        <time>2018-09-16T12:28:02Z</time>
      </trkpt>
      <trkpt lat="39.3854200" lon="-0.7107300">
        <ele>261.0</ele>
        <time>2018-09-16T12:28:03Z</time>
      </trkpt>
      <trkpt lat="39.3854600" lon="-0.7107570">
        <ele>261.0</ele>
        <time>2018-09-16T12:28:04Z</time>
      </trkpt>
      <trkpt lat="39.3854600" lon="-0.7107570">
        <ele>261.0</ele>
        <time>2018-09-16T12:28:05Z</time>
      </trkpt>
      <trkpt lat="39.3855350" lon="-0.7108170">
        <ele>261.0</ele>
        <time>2018-09-16T12:28:06Z</time>
      </trkpt>
      <trkpt lat="39.3855700" lon="-0.7108530">
        <ele>262.0</ele>
        <time>2018-09-16T12:28:07Z</time>
      </trkpt>
      <trkpt lat="39.3855700" lon="-0.7108530">
        <ele>262.0</ele>
        <time>2018-09-16T12:28:08Z</time>
      </trkpt>
      <trkpt lat="39.3856350" lon="-0.7109350">
        <ele>262.0</ele>
        <time>2018-09-16T12:28:09Z</time>
      </trkpt>
      <trkpt lat="39.3856620" lon="-0.7109820">
        <ele>262.0</ele>
        <time>2018-09-16T12:28:10Z</time>
      </trkpt>
      <trkpt lat="39.3856620" lon="-0.7109820">
        <ele>262.0</ele>
        <time>2018-09-16T12:28:11Z</time>
      </trkpt>
      <trkpt lat="39.3857050" lon="-0.7110770">
        <ele>263.0</ele>
        <time>2018-09-16T12:28:12Z</time>
      </trkpt>
      <trkpt lat="39.3857230" lon="-0.7111270">
        <ele>263.0</ele>
        <time>2018-09-16T12:28:13Z</time>
      </trkpt>
      <trkpt lat="39.3857230" lon="-0.7111270">
        <ele>263.0</ele>
        <time>2018-09-16T12:28:14Z</time>
      </trkpt>
      <trkpt lat="39.3857570" lon="-0.7112220">
        <ele>263.0</ele>
        <time>2018-09-16T12:28:15Z</time>
      </trkpt>
      <trkpt lat="39.3857570" lon="-0.7112220">
        <ele>263.0</ele>
        <time>2018-09-16T12:28:16Z</time>
      </trkpt>
      <trkpt lat="39.3857850" lon="-0.7113000">
        <ele>263.0</ele>
        <time>2018-09-16T12:28:17Z</time>
      </trkpt>
      <trkpt lat="39.3857980" lon="-0.7113330">
        <ele>263.0</ele>
        <time>2018-09-16T12:28:18Z</time>
      </trkpt>
      <trkpt lat="39.3857980" lon="-0.7113330">
        <ele>263.0</ele>
        <time>2018-09-16T12:28:19Z</time>
      </trkpt>
      <trkpt lat="39.3858220" lon="-0.7113970">
        <ele>263.0</ele>
        <time>2018-09-16T12:28:20Z</time>
      </trkpt>
      <trkpt lat="39.3858220" lon="-0.7113970">
        <ele>264.0</ele>
        <time>2018-09-16T12:28:21Z</time>
      </trkpt>
      <trkpt lat="39.3858480" lon="-0.7114600">
        <ele>264.0</ele>
        <time>2018-09-16T12:28:22Z</time>
      </trkpt>
      <trkpt lat="39.3858480" lon="-0.7114600">
        <ele>264.0</ele>
        <time>2018-09-16T12:28:23Z</time>
      </trkpt>
      <trkpt lat="39.3858780" lon="-0.7115170">
        <ele>264.0</ele>
        <time>2018-09-16T12:28:24Z</time>
      </trkpt>
      <trkpt lat="39.3858930" lon="-0.7115450">
        <ele>264.0</ele>
        <time>2018-09-16T12:28:25Z</time>
      </trkpt>
      <trkpt lat="39.3858930" lon="-0.7115450">
        <ele>264.0</ele>
        <time>2018-09-16T12:28:26Z</time>
      </trkpt>
      <trkpt lat="39.3859280" lon="-0.7115950">
        <ele>265.0</ele>
        <time>2018-09-16T12:28:27Z</time>
      </trkpt>
      <trkpt lat="39.3859280" lon="-0.7115950">
        <ele>265.0</ele>
        <time>2018-09-16T12:28:28Z</time>
      </trkpt>
      <trkpt lat="39.3859630" lon="-0.7116480">
        <ele>265.0</ele>
        <time>2018-09-16T12:28:29Z</time>
      </trkpt>
      <trkpt lat="39.3859630" lon="-0.7116480">
        <ele>265.0</ele>
        <time>2018-09-16T12:28:30Z</time>
      </trkpt>
      <trkpt lat="39.3859930" lon="-0.7116880">
        <ele>265.0</ele>
        <time>2018-09-16T12:28:31Z</time>
      </trkpt>
      <trkpt lat="39.3859930" lon="-0.7116880">
        <ele>265.0</ele>
        <time>2018-09-16T12:28:32Z</time>
      </trkpt>
      <trkpt lat="39.3860300" lon="-0.7117130">
        <ele>265.0</ele>
        <time>2018-09-16T12:28:33Z</time>
      </trkpt>
      <trkpt lat="39.3860300" lon="-0.7117130">
        <ele>265.0</ele>
        <time>2018-09-16T12:28:34Z</time>
      </trkpt>
      <trkpt lat="39.3860550" lon="-0.7117190">
        <ele>265.0</ele>
        <time>2018-09-16T12:28:35Z</time>
      </trkpt>
      <trkpt lat="39.3860580" lon="-0.7117150">
        <ele>265.0</ele>
        <time>2018-09-16T12:28:36Z</time>
      </trkpt>
      <trkpt lat="39.3860620" lon="-0.7117120">
        <ele>265.0</ele>
        <time>2018-09-16T12:28:37Z</time>
      </trkpt>
      <trkpt lat="39.3860650" lon="-0.7117090">
        <ele>265.0</ele>
        <time>2018-09-16T12:29:05Z</time>
      </trkpt>
      <trkpt lat="39.3860680" lon="-0.7117050">
        <ele>265.0</ele>
        <time>2018-09-16T12:29:06Z</time>
      </trkpt>
      <trkpt lat="39.3860710" lon="-0.7117020">
        <ele>265.0</ele>
        <time>2018-09-16T12:29:07Z</time>
      </trkpt>
      <trkpt lat="39.3860740" lon="-0.7116990">
        <ele>265.0</ele>
        <time>2018-09-16T12:29:08Z</time>
      </trkpt>
      <trkpt lat="39.3860770" lon="-0.7116950">
        <ele>265.0</ele>
        <time>2018-09-16T12:29:09Z</time>
      </trkpt>
      <trkpt lat="39.3860810" lon="-0.7116920">
        <ele>265.0</ele>
        <time>2018-09-16T12:29:10Z</time>
      </trkpt>
      <trkpt lat="39.3860840" lon="-0.7116890">
        <ele>265.0</ele>
        <time>2018-09-16T12:29:11Z</time>
      </trkpt>
      <trkpt lat="39.3860870" lon="-0.7116850">
        <ele>265.0</ele>
        <time>2018-09-16T12:29:12Z</time>
      </trkpt>
      <trkpt lat="39.3860900" lon="-0.7116820">
        <ele>265.0</ele>
        <time>2018-09-16T12:29:13Z</time>
      </trkpt>
      <trkpt lat="39.3860980" lon="-0.7116830">
        <ele>265.0</ele>
        <time>2018-09-16T12:29:14Z</time>
      </trkpt>
      <trkpt lat="39.3860980" lon="-0.7116830">
        <ele>265.0</ele>
        <time>2018-09-16T12:29:15Z</time>
      </trkpt>
      <trkpt lat="39.3861280" lon="-0.7116950">
        <ele>265.0</ele>
        <time>2018-09-16T12:29:16Z</time>
      </trkpt>
      <trkpt lat="39.3861470" lon="-0.7117000">
        <ele>265.0</ele>
        <time>2018-09-16T12:29:17Z</time>
      </trkpt>
      <trkpt lat="39.3861470" lon="-0.7117000">
        <ele>265.0</ele>
        <time>2018-09-16T12:29:18Z</time>
      </trkpt>
      <trkpt lat="39.3861920" lon="-0.7116970">
        <ele>266.0</ele>
        <time>2018-09-16T12:29:19Z</time>
      </trkpt>
      <trkpt lat="39.3861920" lon="-0.7116970">
        <ele>266.0</ele>
        <time>2018-09-16T12:29:20Z</time>
      </trkpt>
      <trkpt lat="39.3862270" lon="-0.7117080">
        <ele>266.0</ele>
        <time>2018-09-16T12:29:21Z</time>
      </trkpt>
      <trkpt lat="39.3862270" lon="-0.7117080">
        <ele>266.0</ele>
        <time>2018-09-16T12:29:22Z</time>
      </trkpt>
      <trkpt lat="39.3862670" lon="-0.7117250">
        <ele>266.0</ele>
        <time>2018-09-16T12:29:23Z</time>
      </trkpt>
      <trkpt lat="39.3862670" lon="-0.7117250">
        <ele>266.0</ele>
        <time>2018-09-16T12:29:24Z</time>
      </trkpt>
      <trkpt lat="39.3863070" lon="-0.7117370">
        <ele>266.0</ele>
        <time>2018-09-16T12:29:25Z</time>
      </trkpt>
      <trkpt lat="39.3863070" lon="-0.7117370">
        <ele>266.0</ele>
        <time>2018-09-16T12:29:26Z</time>
      </trkpt>
      <trkpt lat="39.3863450" lon="-0.7117500">
        <ele>266.0</ele>
        <time>2018-09-16T12:29:27Z</time>
      </trkpt>
      <trkpt lat="39.3863450" lon="-0.7117500">
        <ele>267.0</ele>
        <time>2018-09-16T12:29:28Z</time>
      </trkpt>
      <trkpt lat="39.3863920" lon="-0.7117630">
        <ele>267.0</ele>
        <time>2018-09-16T12:29:29Z</time>
      </trkpt>
      <trkpt lat="39.3864130" lon="-0.7117720">
        <ele>267.0</ele>
        <time>2018-09-16T12:29:30Z</time>
      </trkpt>
      <trkpt lat="39.3864130" lon="-0.7117720">
        <ele>267.0</ele>
        <time>2018-09-16T12:29:31Z</time>
      </trkpt>
      <trkpt lat="39.3864600" lon="-0.7117820">
        <ele>267.0</ele>
        <time>2018-09-16T12:29:32Z</time>
      </trkpt>
      <trkpt lat="39.3864870" lon="-0.7117850">
        <ele>267.0</ele>
        <time>2018-09-16T12:29:33Z</time>
      </trkpt>
      <trkpt lat="39.3864870" lon="-0.7117850">
        <ele>267.0</ele>
        <time>2018-09-16T12:29:34Z</time>
      </trkpt>
      <trkpt lat="39.3865400" lon="-0.7117830">
        <ele>267.0</ele>
        <time>2018-09-16T12:29:35Z</time>
      </trkpt>
      <trkpt lat="39.3865400" lon="-0.7117830">
        <ele>267.0</ele>
        <time>2018-09-16T12:29:36Z</time>
      </trkpt>
      <trkpt lat="39.3865980" lon="-0.7117750">
        <ele>267.0</ele>
        <time>2018-09-16T12:29:37Z</time>
      </trkpt>
      <trkpt lat="39.3865980" lon="-0.7117750">
        <ele>267.0</ele>
        <time>2018-09-16T12:29:38Z</time>
      </trkpt>
      <trkpt lat="39.3866570" lon="-0.7117650">
        <ele>267.0</ele>
        <time>2018-09-16T12:29:39Z</time>
      </trkpt>
      <trkpt lat="39.3866570" lon="-0.7117650">
        <ele>267.0</ele>
        <time>2018-09-16T12:29:40Z</time>
      </trkpt>
      <trkpt lat="39.3867200" lon="-0.7117530">
        <ele>267.0</ele>
        <time>2018-09-16T12:29:41Z</time>
      </trkpt>
      <trkpt lat="39.3867200" lon="-0.7117530">
        <ele>267.0</ele>
        <time>2018-09-16T12:29:42Z</time>
      </trkpt>
      <trkpt lat="39.3867780" lon="-0.7117430">
        <ele>267.0</ele>
        <time>2018-09-16T12:29:43Z</time>
      </trkpt>
      <trkpt lat="39.3867780" lon="-0.7117430">
        <ele>267.0</ele>
        <time>2018-09-16T12:29:44Z</time>
      </trkpt>
      <trkpt lat="39.3868420" lon="-0.7117330">
        <ele>268.0</ele>
        <time>2018-09-16T12:29:45Z</time>
      </trkpt>
      <trkpt lat="39.3868420" lon="-0.7117330">
        <ele>268.0</ele>
        <time>2018-09-16T12:29:46Z</time>
      </trkpt>
      <trkpt lat="39.3868980" lon="-0.7117270">
        <ele>268.0</ele>
        <time>2018-09-16T12:29:47Z</time>
      </trkpt>
      <trkpt lat="39.3869280" lon="-0.7117200">
        <ele>268.0</ele>
        <time>2018-09-16T12:29:48Z</time>
      </trkpt>
      <trkpt lat="39.3869280" lon="-0.7117200">
        <ele>268.0</ele>
        <time>2018-09-16T12:29:49Z</time>
      </trkpt>
      <trkpt lat="39.3869850" lon="-0.7117150">
        <ele>268.0</ele>
        <time>2018-09-16T12:29:50Z</time>
      </trkpt>
      <trkpt lat="39.3870130" lon="-0.7117130">
        <ele>268.0</ele>
        <time>2018-09-16T12:29:51Z</time>
      </trkpt>
      <trkpt lat="39.3870130" lon="-0.7117130">
        <ele>268.0</ele>
        <time>2018-09-16T12:29:52Z</time>
      </trkpt>
      <trkpt lat="39.3870670" lon="-0.7117050">
        <ele>269.0</ele>
        <time>2018-09-16T12:29:53Z</time>
      </trkpt>
      <trkpt lat="39.3870930" lon="-0.7117030">
        <ele>269.0</ele>
        <time>2018-09-16T12:29:54Z</time>
      </trkpt>
      <trkpt lat="39.3871170" lon="-0.7116980">
        <ele>269.0</ele>
        <time>2018-09-16T12:29:55Z</time>
      </trkpt>
      <trkpt lat="39.3871170" lon="-0.7116980">
        <ele>269.0</ele>
        <time>2018-09-16T12:29:56Z</time>
      </trkpt>
      <trkpt lat="39.3871670" lon="-0.7116880">
        <ele>269.0</ele>
        <time>2018-09-16T12:29:57Z</time>
      </trkpt>
      <trkpt lat="39.3871920" lon="-0.7116830">
        <ele>269.0</ele>
        <time>2018-09-16T12:29:58Z</time>
      </trkpt>
      <trkpt lat="39.3871920" lon="-0.7116830">
        <ele>269.0</ele>
        <time>2018-09-16T12:29:59Z</time>
      </trkpt>
      <trkpt lat="39.3872430" lon="-0.7116730">
        <ele>269.0</ele>
        <time>2018-09-16T12:30:00Z</time>
      </trkpt>
      <trkpt lat="39.3872430" lon="-0.7116730">
        <ele>269.0</ele>
        <time>2018-09-16T12:30:01Z</time>
      </trkpt>
      <trkpt lat="39.3873000" lon="-0.7116630">
        <ele>269.0</ele>
        <time>2018-09-16T12:30:02Z</time>
      </trkpt>
      <trkpt lat="39.3873280" lon="-0.7116600">
        <ele>269.0</ele>
        <time>2018-09-16T12:30:03Z</time>
      </trkpt>
      <trkpt lat="39.3873280" lon="-0.7116600">
        <ele>269.0</ele>
        <time>2018-09-16T12:30:04Z</time>
      </trkpt>
      <trkpt lat="39.3873830" lon="-0.7116450">
        <ele>269.0</ele>
        <time>2018-09-16T12:30:05Z</time>
      </trkpt>
      <trkpt lat="39.3874100" lon="-0.7116380">
        <ele>269.0</ele>
        <time>2018-09-16T12:30:06Z</time>
      </trkpt>
      <trkpt lat="39.3874100" lon="-0.7116380">
        <ele>269.0</ele>
        <time>2018-09-16T12:30:07Z</time>
      </trkpt>
      <trkpt lat="39.3874670" lon="-0.7116250">
        <ele>269.0</ele>
        <time>2018-09-16T12:30:08Z</time>
      </trkpt>
      <trkpt lat="39.3874930" lon="-0.7116170">
        <ele>269.0</ele>
        <time>2018-09-16T12:30:09Z</time>
      </trkpt>
      <trkpt lat="39.3874930" lon="-0.7116170">
        <ele>269.0</ele>
        <time>2018-09-16T12:30:10Z</time>
      </trkpt>
      <trkpt lat="39.3875520" lon="-0.7116050">
        <ele>269.0</ele>
        <time>2018-09-16T12:30:11Z</time>
      </trkpt>
      <trkpt lat="39.3875520" lon="-0.7116050">
        <ele>269.0</ele>
        <time>2018-09-16T12:30:12Z</time>
      </trkpt>
      <trkpt lat="39.3876130" lon="-0.7115900">
        <ele>269.0</ele>
        <time>2018-09-16T12:30:13Z</time>
      </trkpt>
      <trkpt lat="39.3876130" lon="-0.7115900">
        <ele>270.0</ele>
        <time>2018-09-16T12:30:14Z</time>
      </trkpt>
      <trkpt lat="39.3876780" lon="-0.7115800">
        <ele>270.0</ele>
        <time>2018-09-16T12:30:15Z</time>
      </trkpt>
      <trkpt lat="39.3877080" lon="-0.7115650">
        <ele>270.0</ele>
        <time>2018-09-16T12:30:16Z</time>
      </trkpt>
      <trkpt lat="39.3877080" lon="-0.7115650">
        <ele>270.0</ele>
        <time>2018-09-16T12:30:17Z</time>
      </trkpt>
      <trkpt lat="39.3877650" lon="-0.7115470">
        <ele>270.0</ele>
        <time>2018-09-16T12:30:18Z</time>
      </trkpt>
      <trkpt lat="39.3877650" lon="-0.7115470">
        <ele>270.0</ele>
        <time>2018-09-16T12:30:19Z</time>
      </trkpt>
      <trkpt lat="39.3878280" lon="-0.7115350">
        <ele>270.0</ele>
        <time>2018-09-16T12:30:20Z</time>
      </trkpt>
      <trkpt lat="39.3878600" lon="-0.7115300">
        <ele>270.0</ele>
        <time>2018-09-16T12:30:21Z</time>
      </trkpt>
      <trkpt lat="39.3878600" lon="-0.7115300">
        <ele>270.0</ele>
        <time>2018-09-16T12:30:22Z</time>
      </trkpt>
      <trkpt lat="39.3879250" lon="-0.7115100">
        <ele>270.0</ele>
        <time>2018-09-16T12:30:23Z</time>
      </trkpt>
      <trkpt lat="39.3879250" lon="-0.7115100">
        <ele>270.0</ele>
        <time>2018-09-16T12:30:24Z</time>
      </trkpt>
      <trkpt lat="39.3879830" lon="-0.7114900">
        <ele>271.0</ele>
        <time>2018-09-16T12:30:25Z</time>
      </trkpt>
      <trkpt lat="39.3880120" lon="-0.7114770">
        <ele>271.0</ele>
        <time>2018-09-16T12:30:26Z</time>
      </trkpt>
      <trkpt lat="39.3880400" lon="-0.7114620">
        <ele>271.0</ele>
        <time>2018-09-16T12:30:27Z</time>
      </trkpt>
      <trkpt lat="39.3880400" lon="-0.7114620">
        <ele>271.0</ele>
        <time>2018-09-16T12:30:28Z</time>
      </trkpt>
      <trkpt lat="39.3880900" lon="-0.7114250">
        <ele>271.0</ele>
        <time>2018-09-16T12:30:29Z</time>
      </trkpt>
      <trkpt lat="39.3881100" lon="-0.7114030">
        <ele>271.0</ele>
        <time>2018-09-16T12:30:30Z</time>
      </trkpt>
      <trkpt lat="39.3881100" lon="-0.7114030">
        <ele>272.0</ele>
        <time>2018-09-16T12:30:31Z</time>
      </trkpt>
      <trkpt lat="39.3881500" lon="-0.7113680">
        <ele>272.0</ele>
        <time>2018-09-16T12:30:32Z</time>
      </trkpt>
      <trkpt lat="39.3881680" lon="-0.7113520">
        <ele>272.0</ele>
        <time>2018-09-16T12:30:33Z</time>
      </trkpt>
      <trkpt lat="39.3881680" lon="-0.7113520">
        <ele>272.0</ele>
        <time>2018-09-16T12:30:34Z</time>
      </trkpt>
      <trkpt lat="39.3882130" lon="-0.7113300">
        <ele>272.0</ele>
        <time>2018-09-16T12:30:35Z</time>
      </trkpt>
      <trkpt lat="39.3882430" lon="-0.7113200">
        <ele>272.0</ele>
        <time>2018-09-16T12:30:36Z</time>
      </trkpt>
      <trkpt lat="39.3882750" lon="-0.7113080">
        <ele>272.0</ele>
        <time>2018-09-16T12:30:37Z</time>
      </trkpt>
      <trkpt lat="39.3882750" lon="-0.7113080">
        <ele>272.0</ele>
        <time>2018-09-16T12:30:38Z</time>
      </trkpt>
      <trkpt lat="39.3883370" lon="-0.7112770">
        <ele>272.0</ele>
        <time>2018-09-16T12:30:39Z</time>
      </trkpt>
      <trkpt lat="39.3883680" lon="-0.7112600">
        <ele>272.0</ele>
        <time>2018-09-16T12:30:40Z</time>
      </trkpt>
      <trkpt lat="39.3883680" lon="-0.7112600">
        <ele>272.0</ele>
        <time>2018-09-16T12:30:41Z</time>
      </trkpt>
      <trkpt lat="39.3884300" lon="-0.7112320">
        <ele>272.0</ele>
        <time>2018-09-16T12:30:42Z</time>
      </trkpt>
      <trkpt lat="39.3884600" lon="-0.7112180">
        <ele>272.0</ele>
        <time>2018-09-16T12:30:43Z</time>
      </trkpt>
      <trkpt lat="39.3884600" lon="-0.7112180">
        <ele>272.0</ele>
        <time>2018-09-16T12:30:44Z</time>
      </trkpt>
      <trkpt lat="39.3885230" lon="-0.7111950">
        <ele>272.0</ele>
        <time>2018-09-16T12:30:45Z</time>
      </trkpt>
      <trkpt lat="39.3885230" lon="-0.7111950">
        <ele>272.0</ele>
        <time>2018-09-16T12:30:46Z</time>
      </trkpt>
      <trkpt lat="39.3885880" lon="-0.7111830">
        <ele>272.0</ele>
        <time>2018-09-16T12:30:47Z</time>
      </trkpt>
      <trkpt lat="39.3885880" lon="-0.7111830">
        <ele>272.0</ele>
        <time>2018-09-16T12:30:48Z</time>
      </trkpt>
      <trkpt lat="39.3886470" lon="-0.7112180">
        <ele>272.0</ele>
        <time>2018-09-16T12:30:49Z</time>
      </trkpt>
      <trkpt lat="39.3886780" lon="-0.7112320">
        <ele>272.0</ele>
        <time>2018-09-16T12:30:50Z</time>
      </trkpt>
      <trkpt lat="39.3887100" lon="-0.7112480">
        <ele>272.0</ele>
        <time>2018-09-16T12:30:51Z</time>
      </trkpt>
      <trkpt lat="39.3887100" lon="-0.7112480">
        <ele>272.0</ele>
        <time>2018-09-16T12:30:52Z</time>
      </trkpt>
      <trkpt lat="39.3887570" lon="-0.7112880">
        <ele>272.0</ele>
        <time>2018-09-16T12:30:53Z</time>
      </trkpt>
      <trkpt lat="39.3887570" lon="-0.7112880">
        <ele>272.0</ele>
        <time>2018-09-16T12:30:54Z</time>
      </trkpt>
      <trkpt lat="39.3888070" lon="-0.7113270">
        <ele>272.0</ele>
        <time>2018-09-16T12:30:55Z</time>
      </trkpt>
      <trkpt lat="39.3888070" lon="-0.7113270">
        <ele>272.0</ele>
        <time>2018-09-16T12:30:56Z</time>
      </trkpt>
      <trkpt lat="39.3888570" lon="-0.7113880">
        <ele>272.0</ele>
        <time>2018-09-16T12:30:57Z</time>
      </trkpt>
      <trkpt lat="39.3888780" lon="-0.7114140">
        <ele>272.0</ele>
        <time>2018-09-16T12:30:58Z</time>
      </trkpt>
      <trkpt lat="39.3888980" lon="-0.7114400">
        <ele>272.0</ele>
        <time>2018-09-16T12:30:59Z</time>
      </trkpt>
      <trkpt lat="39.3888980" lon="-0.7114400">
        <ele>272.0</ele>
        <time>2018-09-16T12:31:00Z</time>
      </trkpt>
      <trkpt lat="39.3889530" lon="-0.7114480">
        <ele>272.0</ele>
        <time>2018-09-16T12:31:01Z</time>
      </trkpt>
      <trkpt lat="39.3889530" lon="-0.7114480">
        <ele>272.0</ele>
        <time>2018-09-16T12:31:02Z</time>
      </trkpt>
      <trkpt lat="39.3890270" lon="-0.7114380">
        <ele>272.0</ele>
        <time>2018-09-16T12:31:03Z</time>
      </trkpt>
      <trkpt lat="39.3890270" lon="-0.7114380">
        <ele>272.0</ele>
        <time>2018-09-16T12:31:04Z</time>
      </trkpt>
      <trkpt lat="39.3890870" lon="-0.7114250">
        <ele>272.0</ele>
        <time>2018-09-16T12:31:05Z</time>
      </trkpt>
      <trkpt lat="39.3891100" lon="-0.7114080">
        <ele>272.0</ele>
        <time>2018-09-16T12:31:06Z</time>
      </trkpt>
      <trkpt lat="39.3891350" lon="-0.7113850">
        <ele>272.0</ele>
        <time>2018-09-16T12:31:07Z</time>
      </trkpt>
      <trkpt lat="39.3891350" lon="-0.7113850">
        <ele>272.0</ele>
        <time>2018-09-16T12:31:08Z</time>
      </trkpt>
      <trkpt lat="39.3891830" lon="-0.7113320">
        <ele>272.0</ele>
        <time>2018-09-16T12:31:09Z</time>
      </trkpt>
      <trkpt lat="39.3892080" lon="-0.7113170">
        <ele>272.0</ele>
        <time>2018-09-16T12:31:10Z</time>
      </trkpt>
      <trkpt lat="39.3892080" lon="-0.7113170">
        <ele>272.0</ele>
        <time>2018-09-16T12:31:11Z</time>
      </trkpt>
      <trkpt lat="39.3892580" lon="-0.7112780">
        <ele>272.0</ele>
        <time>2018-09-16T12:31:12Z</time>
      </trkpt>
      <trkpt lat="39.3892580" lon="-0.7112780">
        <ele>272.0</ele>
        <time>2018-09-16T12:31:13Z</time>
      </trkpt>
      <trkpt lat="39.3893050" lon="-0.7112350">
        <ele>272.0</ele>
        <time>2018-09-16T12:31:14Z</time>
      </trkpt>
      <trkpt lat="39.3893050" lon="-0.7112350">
        <ele>272.0</ele>
        <time>2018-09-16T12:31:15Z</time>
      </trkpt>
      <trkpt lat="39.3893330" lon="-0.7111780">
        <ele>272.0</ele>
        <time>2018-09-16T12:31:16Z</time>
      </trkpt>
      <trkpt lat="39.3893330" lon="-0.7111780">
        <ele>272.0</ele>
        <time>2018-09-16T12:31:17Z</time>
      </trkpt>
      <trkpt lat="39.3893870" lon="-0.7111520">
        <ele>272.0</ele>
        <time>2018-09-16T12:31:18Z</time>
      </trkpt>
      <trkpt lat="39.3894320" lon="-0.7111220">
        <ele>272.0</ele>
        <time>2018-09-16T12:31:19Z</time>
      </trkpt>
      <trkpt lat="39.3894320" lon="-0.7111220">
        <ele>272.0</ele>
        <time>2018-09-16T12:31:20Z</time>
      </trkpt>
      <trkpt lat="39.3895120" lon="-0.7110750">
        <ele>272.0</ele>
        <time>2018-09-16T12:31:21Z</time>
      </trkpt>
      <trkpt lat="39.3895500" lon="-0.7110550">
        <ele>272.0</ele>
        <time>2018-09-16T12:31:22Z</time>
      </trkpt>
      <trkpt lat="39.3895500" lon="-0.7110550">
        <ele>272.0</ele>
        <time>2018-09-16T12:31:23Z</time>
      </trkpt>
      <trkpt lat="39.3896320" lon="-0.7110300">
        <ele>272.0</ele>
        <time>2018-09-16T12:31:24Z</time>
      </trkpt>
      <trkpt lat="39.3896720" lon="-0.7110280">
        <ele>272.0</ele>
        <time>2018-09-16T12:31:25Z</time>
      </trkpt>
      <trkpt lat="39.3896720" lon="-0.7110280">
        <ele>272.0</ele>
        <time>2018-09-16T12:31:26Z</time>
      </trkpt>
      <trkpt lat="39.3897500" lon="-0.7110500">
        <ele>272.0</ele>
        <time>2018-09-16T12:31:27Z</time>
      </trkpt>
      <trkpt lat="39.3897500" lon="-0.7110500">
        <ele>272.0</ele>
        <time>2018-09-16T12:31:28Z</time>
      </trkpt>
      <trkpt lat="39.3898080" lon="-0.7110730">
        <ele>272.0</ele>
        <time>2018-09-16T12:31:29Z</time>
      </trkpt>
      <trkpt lat="39.3898500" lon="-0.7110750">
        <ele>272.0</ele>
        <time>2018-09-16T12:31:30Z</time>
      </trkpt>
      <trkpt lat="39.3898980" lon="-0.7111020">
        <ele>272.0</ele>
        <time>2018-09-16T12:31:31Z</time>
      </trkpt>
      <trkpt lat="39.3898980" lon="-0.7111020">
        <ele>272.0</ele>
        <time>2018-09-16T12:31:32Z</time>
      </trkpt>
      <trkpt lat="39.3899920" lon="-0.7111400">
        <ele>272.0</ele>
        <time>2018-09-16T12:31:33Z</time>
      </trkpt>
      <trkpt lat="39.3899920" lon="-0.7111400">
        <ele>272.0</ele>
        <time>2018-09-16T12:31:34Z</time>
      </trkpt>
      <trkpt lat="39.3900780" lon="-0.7111670">
        <ele>272.0</ele>
        <time>2018-09-16T12:31:35Z</time>
      </trkpt>
      <trkpt lat="39.3900780" lon="-0.7111670">
        <ele>272.0</ele>
        <time>2018-09-16T12:31:36Z</time>
      </trkpt>
      <trkpt lat="39.3901630" lon="-0.7111980">
        <ele>272.0</ele>
        <time>2018-09-16T12:31:37Z</time>
      </trkpt>
      <trkpt lat="39.3901630" lon="-0.7111980">
        <ele>272.0</ele>
        <time>2018-09-16T12:31:38Z</time>
      </trkpt>
      <trkpt lat="39.3902580" lon="-0.7112400">
        <ele>272.0</ele>
        <time>2018-09-16T12:31:39Z</time>
      </trkpt>
      <trkpt lat="39.3903030" lon="-0.7112550">
        <ele>272.0</ele>
        <time>2018-09-16T12:31:40Z</time>
      </trkpt>
      <trkpt lat="39.3903030" lon="-0.7112550">
        <ele>272.0</ele>
        <time>2018-09-16T12:31:41Z</time>
      </trkpt>
      <trkpt lat="39.3903820" lon="-0.7112820">
        <ele>272.0</ele>
        <time>2018-09-16T12:31:42Z</time>
      </trkpt>
      <trkpt lat="39.3904180" lon="-0.7112930">
        <ele>272.0</ele>
        <time>2018-09-16T12:31:43Z</time>
      </trkpt>
      <trkpt lat="39.3904180" lon="-0.7112930">
        <ele>272.0</ele>
        <time>2018-09-16T12:31:44Z</time>
      </trkpt>
      <trkpt lat="39.3904850" lon="-0.7113180">
        <ele>272.0</ele>
        <time>2018-09-16T12:31:45Z</time>
      </trkpt>
      <trkpt lat="39.3905080" lon="-0.7113320">
        <ele>272.0</ele>
        <time>2018-09-16T12:31:46Z</time>
      </trkpt>
      <trkpt lat="39.3905250" lon="-0.7113430">
        <ele>272.0</ele>
        <time>2018-09-16T12:31:47Z</time>
      </trkpt>
      <trkpt lat="39.3905420" lon="-0.7113550">
        <ele>272.0</ele>
        <time>2018-09-16T12:31:48Z</time>
      </trkpt>
      <trkpt lat="39.3905420" lon="-0.7113550">
        <ele>272.0</ele>
        <time>2018-09-16T12:31:49Z</time>
      </trkpt>
      <trkpt lat="39.3905830" lon="-0.7113730">
        <ele>272.0</ele>
        <time>2018-09-16T12:31:50Z</time>
      </trkpt>
      <trkpt lat="39.3905830" lon="-0.7113730">
        <ele>272.0</ele>
        <time>2018-09-16T12:31:51Z</time>
      </trkpt>
      <trkpt lat="39.3906200" lon="-0.7113900">
        <ele>272.0</ele>
        <time>2018-09-16T12:31:52Z</time>
      </trkpt>
      <trkpt lat="39.3906390" lon="-0.7113860">
        <ele>272.0</ele>
        <time>2018-09-16T12:31:53Z</time>
      </trkpt>
      <trkpt lat="39.3906570" lon="-0.7113820">
        <ele>272.0</ele>
        <time>2018-09-16T12:31:54Z</time>
      </trkpt>
      <trkpt lat="39.3906800" lon="-0.7113720">
        <ele>272.0</ele>
        <time>2018-09-16T12:31:55Z</time>
      </trkpt>
      <trkpt lat="39.3907090" lon="-0.7113600">
        <ele>272.0</ele>
        <time>2018-09-16T12:31:56Z</time>
      </trkpt>
      <trkpt lat="39.3907380" lon="-0.7113470">
        <ele>271.0</ele>
        <time>2018-09-16T12:31:57Z</time>
      </trkpt>
      <trkpt lat="39.3907380" lon="-0.7113470">
        <ele>271.0</ele>
        <time>2018-09-16T12:31:58Z</time>
      </trkpt>
      <trkpt lat="39.3907970" lon="-0.7113150">
        <ele>271.0</ele>
        <time>2018-09-16T12:31:59Z</time>
      </trkpt>
      <trkpt lat="39.3908370" lon="-0.7113070">
        <ele>271.0</ele>
        <time>2018-09-16T12:32:00Z</time>
      </trkpt>
      <trkpt lat="39.3908370" lon="-0.7113070">
        <ele>271.0</ele>
        <time>2018-09-16T12:32:01Z</time>
      </trkpt>
      <trkpt lat="39.3909230" lon="-0.7112920">
        <ele>271.0</ele>
        <time>2018-09-16T12:32:02Z</time>
      </trkpt>
      <trkpt lat="39.3909230" lon="-0.7112920">
        <ele>271.0</ele>
        <time>2018-09-16T12:32:03Z</time>
      </trkpt>
      <trkpt lat="39.3910200" lon="-0.7112770">
        <ele>271.0</ele>
        <time>2018-09-16T12:32:04Z</time>
      </trkpt>
      <trkpt lat="39.3910750" lon="-0.7112700">
        <ele>271.0</ele>
        <time>2018-09-16T12:32:05Z</time>
      </trkpt>
      <trkpt lat="39.3910750" lon="-0.7112700">
        <ele>271.0</ele>
        <time>2018-09-16T12:32:06Z</time>
      </trkpt>
      <trkpt lat="39.3911780" lon="-0.7112400">
        <ele>271.0</ele>
        <time>2018-09-16T12:32:07Z</time>
      </trkpt>
      <trkpt lat="39.3911780" lon="-0.7112400">
        <ele>272.0</ele>
        <time>2018-09-16T12:32:08Z</time>
      </trkpt>
      <trkpt lat="39.3912800" lon="-0.7112130">
        <ele>272.0</ele>
        <time>2018-09-16T12:32:09Z</time>
      </trkpt>
      <trkpt lat="39.3912800" lon="-0.7112130">
        <ele>272.0</ele>
        <time>2018-09-16T12:32:10Z</time>
      </trkpt>
      <trkpt lat="39.3913850" lon="-0.7111900">
        <ele>272.0</ele>
        <time>2018-09-16T12:32:11Z</time>
      </trkpt>
      <trkpt lat="39.3913850" lon="-0.7111900">
        <ele>273.0</ele>
        <time>2018-09-16T12:32:12Z</time>
      </trkpt>
      <trkpt lat="39.3914770" lon="-0.7112070">
        <ele>273.0</ele>
        <time>2018-09-16T12:32:13Z</time>
      </trkpt>
      <trkpt lat="39.3914770" lon="-0.7112070">
        <ele>273.0</ele>
        <time>2018-09-16T12:32:14Z</time>
      </trkpt>
      <trkpt lat="39.3915350" lon="-0.7112820">
        <ele>273.0</ele>
        <time>2018-09-16T12:32:15Z</time>
      </trkpt>
      <trkpt lat="39.3915350" lon="-0.7112820">
        <ele>273.0</ele>
        <time>2018-09-16T12:32:16Z</time>
      </trkpt>
      <trkpt lat="39.3915930" lon="-0.7113670">
        <ele>273.0</ele>
        <time>2018-09-16T12:32:17Z</time>
      </trkpt>
      <trkpt lat="39.3915930" lon="-0.7113670">
        <ele>273.0</ele>
        <time>2018-09-16T12:32:18Z</time>
      </trkpt>
      <trkpt lat="39.3916520" lon="-0.7114530">
        <ele>273.0</ele>
        <time>2018-09-16T12:32:19Z</time>
      </trkpt>
      <trkpt lat="39.3916520" lon="-0.7114530">
        <ele>273.0</ele>
        <time>2018-09-16T12:32:20Z</time>
      </trkpt>
      <trkpt lat="39.3917100" lon="-0.7115320">
        <ele>273.0</ele>
        <time>2018-09-16T12:32:21Z</time>
      </trkpt>
      <trkpt lat="39.3917350" lon="-0.7115720">
        <ele>274.0</ele>
        <time>2018-09-16T12:32:22Z</time>
      </trkpt>
      <trkpt lat="39.3917350" lon="-0.7115720">
        <ele>274.0</ele>
        <time>2018-09-16T12:32:23Z</time>
      </trkpt>
      <trkpt lat="39.3917820" lon="-0.7116430">
        <ele>274.0</ele>
        <time>2018-09-16T12:32:24Z</time>
      </trkpt>
      <trkpt lat="39.3917820" lon="-0.7116430">
        <ele>274.0</ele>
        <time>2018-09-16T12:32:25Z</time>
      </trkpt>
      <trkpt lat="39.3918220" lon="-0.7117120">
        <ele>274.0</ele>
        <time>2018-09-16T12:32:26Z</time>
      </trkpt>
      <trkpt lat="39.3918450" lon="-0.7117350">
        <ele>274.0</ele>
        <time>2018-09-16T12:32:27Z</time>
      </trkpt>
      <trkpt lat="39.3918450" lon="-0.7117350">
        <ele>274.0</ele>
        <time>2018-09-16T12:32:28Z</time>
      </trkpt>
      <trkpt lat="39.3918950" lon="-0.7117520">
        <ele>274.0</ele>
        <time>2018-09-16T12:32:29Z</time>
      </trkpt>
      <trkpt lat="39.3918950" lon="-0.7117520">
        <ele>274.0</ele>
        <time>2018-09-16T12:32:30Z</time>
      </trkpt>
      <trkpt lat="39.3919600" lon="-0.7117430">
        <ele>274.0</ele>
        <time>2018-09-16T12:32:31Z</time>
      </trkpt>
      <trkpt lat="39.3919600" lon="-0.7117430">
        <ele>274.0</ele>
        <time>2018-09-16T12:32:32Z</time>
      </trkpt>
      <trkpt lat="39.3920220" lon="-0.7117270">
        <ele>274.0</ele>
        <time>2018-09-16T12:32:33Z</time>
      </trkpt>
      <trkpt lat="39.3920220" lon="-0.7117270">
        <ele>274.0</ele>
        <time>2018-09-16T12:32:34Z</time>
      </trkpt>
      <trkpt lat="39.3920820" lon="-0.7117100">
        <ele>274.0</ele>
        <time>2018-09-16T12:32:35Z</time>
      </trkpt>
      <trkpt lat="39.3920820" lon="-0.7117100">
        <ele>274.0</ele>
        <time>2018-09-16T12:32:36Z</time>
      </trkpt>
      <trkpt lat="39.3921420" lon="-0.7116920">
        <ele>275.0</ele>
        <time>2018-09-16T12:32:37Z</time>
      </trkpt>
      <trkpt lat="39.3921420" lon="-0.7116920">
        <ele>275.0</ele>
        <time>2018-09-16T12:32:38Z</time>
      </trkpt>
      <trkpt lat="39.3922020" lon="-0.7116750">
        <ele>275.0</ele>
        <time>2018-09-16T12:32:39Z</time>
      </trkpt>
      <trkpt lat="39.3922020" lon="-0.7116750">
        <ele>275.0</ele>
        <time>2018-09-16T12:32:40Z</time>
      </trkpt>
      <trkpt lat="39.3922600" lon="-0.7116680">
        <ele>275.0</ele>
        <time>2018-09-16T12:32:41Z</time>
      </trkpt>
      <trkpt lat="39.3922980" lon="-0.7116850">
        <ele>275.0</ele>
        <time>2018-09-16T12:32:42Z</time>
      </trkpt>
      <trkpt lat="39.3922980" lon="-0.7116850">
        <ele>275.0</ele>
        <time>2018-09-16T12:32:43Z</time>
      </trkpt>
      <trkpt lat="39.3923500" lon="-0.7117400">
        <ele>275.0</ele>
        <time>2018-09-16T12:32:44Z</time>
      </trkpt>
      <trkpt lat="39.3923680" lon="-0.7117730">
        <ele>276.0</ele>
        <time>2018-09-16T12:32:45Z</time>
      </trkpt>
      <trkpt lat="39.3923680" lon="-0.7117730">
        <ele>276.0</ele>
        <time>2018-09-16T12:32:46Z</time>
      </trkpt>
      <trkpt lat="39.3924080" lon="-0.7118350">
        <ele>276.0</ele>
        <time>2018-09-16T12:32:47Z</time>
      </trkpt>
      <trkpt lat="39.3924080" lon="-0.7118350">
        <ele>276.0</ele>
        <time>2018-09-16T12:32:48Z</time>
      </trkpt>
      <trkpt lat="39.3924420" lon="-0.7118980">
        <ele>276.0</ele>
        <time>2018-09-16T12:32:49Z</time>
      </trkpt>
      <trkpt lat="39.3924420" lon="-0.7118980">
        <ele>276.0</ele>
        <time>2018-09-16T12:32:50Z</time>
      </trkpt>
      <trkpt lat="39.3924700" lon="-0.7119600">
        <ele>277.0</ele>
        <time>2018-09-16T12:32:51Z</time>
      </trkpt>
      <trkpt lat="39.3924820" lon="-0.7119870">
        <ele>277.0</ele>
        <time>2018-09-16T12:32:52Z</time>
      </trkpt>
      <trkpt lat="39.3924820" lon="-0.7119870">
        <ele>277.0</ele>
        <time>2018-09-16T12:32:53Z</time>
      </trkpt>
      <trkpt lat="39.3925000" lon="-0.7120230">
        <ele>277.0</ele>
        <time>2018-09-16T12:32:54Z</time>
      </trkpt>
      <trkpt lat="39.3925120" lon="-0.7120350">
        <ele>277.0</ele>
        <time>2018-09-16T12:32:55Z</time>
      </trkpt>
      <trkpt lat="39.3925120" lon="-0.7120350">
        <ele>277.0</ele>
        <time>2018-09-16T12:32:56Z</time>
      </trkpt>
      <trkpt lat="39.3925450" lon="-0.7120470">
        <ele>277.0</ele>
        <time>2018-09-16T12:32:57Z</time>
      </trkpt>
      <trkpt lat="39.3925630" lon="-0.7120470">
        <ele>277.0</ele>
        <time>2018-09-16T12:32:58Z</time>
      </trkpt>
      <trkpt lat="39.3925800" lon="-0.7120470">
        <ele>278.0</ele>
        <time>2018-09-16T12:32:59Z</time>
      </trkpt>
      <trkpt lat="39.3925970" lon="-0.7120450">
        <ele>278.0</ele>
        <time>2018-09-16T12:33:00Z</time>
      </trkpt>
      <trkpt lat="39.3925970" lon="-0.7120450">
        <ele>278.0</ele>
        <time>2018-09-16T12:33:01Z</time>
      </trkpt>
      <trkpt lat="39.3926320" lon="-0.7120470">
        <ele>278.0</ele>
        <time>2018-09-16T12:33:02Z</time>
      </trkpt>
      <trkpt lat="39.3926320" lon="-0.7120470">
        <ele>278.0</ele>
        <time>2018-09-16T12:33:03Z</time>
      </trkpt>
      <trkpt lat="39.3926670" lon="-0.7120450">
        <ele>279.0</ele>
        <time>2018-09-16T12:33:04Z</time>
      </trkpt>
      <trkpt lat="39.3926670" lon="-0.7120450">
        <ele>279.0</ele>
        <time>2018-09-16T12:33:05Z</time>
      </trkpt>
      <trkpt lat="39.3927020" lon="-0.7120430">
        <ele>279.0</ele>
        <time>2018-09-16T12:33:06Z</time>
      </trkpt>
      <trkpt lat="39.3927180" lon="-0.7120450">
        <ele>279.0</ele>
        <time>2018-09-16T12:33:07Z</time>
      </trkpt>
      <trkpt lat="39.3927180" lon="-0.7120450">
        <ele>279.0</ele>
        <time>2018-09-16T12:33:08Z</time>
      </trkpt>
      <trkpt lat="39.3927520" lon="-0.7120420">
        <ele>279.0</ele>
        <time>2018-09-16T12:33:09Z</time>
      </trkpt>
      <trkpt lat="39.3927680" lon="-0.7120400">
        <ele>279.0</ele>
        <time>2018-09-16T12:33:10Z</time>
      </trkpt>
      <trkpt lat="39.3927850" lon="-0.7120330">
        <ele>279.0</ele>
        <time>2018-09-16T12:33:11Z</time>
      </trkpt>
      <trkpt lat="39.3927850" lon="-0.7120330">
        <ele>279.0</ele>
        <time>2018-09-16T12:33:12Z</time>
      </trkpt>
      <trkpt lat="39.3928130" lon="-0.7120150">
        <ele>279.0</ele>
        <time>2018-09-16T12:33:13Z</time>
      </trkpt>
      <trkpt lat="39.3928130" lon="-0.7120150">
        <ele>279.0</ele>
        <time>2018-09-16T12:33:14Z</time>
      </trkpt>
      <trkpt lat="39.3928450" lon="-0.7120070">
        <ele>280.0</ele>
        <time>2018-09-16T12:33:15Z</time>
      </trkpt>
      <trkpt lat="39.3928620" lon="-0.7120050">
        <ele>280.0</ele>
        <time>2018-09-16T12:33:16Z</time>
      </trkpt>
      <trkpt lat="39.3928620" lon="-0.7120050">
        <ele>280.0</ele>
        <time>2018-09-16T12:33:17Z</time>
      </trkpt>
      <trkpt lat="39.3928930" lon="-0.7119970">
        <ele>280.0</ele>
        <time>2018-09-16T12:33:18Z</time>
      </trkpt>
      <trkpt lat="39.3929080" lon="-0.7119900">
        <ele>281.0</ele>
        <time>2018-09-16T12:33:19Z</time>
      </trkpt>
      <trkpt lat="39.3929080" lon="-0.7119900">
        <ele>281.0</ele>
        <time>2018-09-16T12:33:20Z</time>
      </trkpt>
      <trkpt lat="39.3929400" lon="-0.7119750">
        <ele>281.0</ele>
        <time>2018-09-16T12:33:21Z</time>
      </trkpt>
      <trkpt lat="39.3929550" lon="-0.7119670">
        <ele>281.0</ele>
        <time>2018-09-16T12:33:22Z</time>
      </trkpt>
      <trkpt lat="39.3929550" lon="-0.7119670">
        <ele>282.0</ele>
        <time>2018-09-16T12:33:23Z</time>
      </trkpt>
      <trkpt lat="39.3929870" lon="-0.7119580">
        <ele>282.0</ele>
        <time>2018-09-16T12:33:24Z</time>
      </trkpt>
      <trkpt lat="39.3930030" lon="-0.7119520">
        <ele>282.0</ele>
        <time>2018-09-16T12:33:25Z</time>
      </trkpt>
      <trkpt lat="39.3930030" lon="-0.7119520">
        <ele>283.0</ele>
        <time>2018-09-16T12:33:26Z</time>
      </trkpt>
      <trkpt lat="39.3930350" lon="-0.7119380">
        <ele>283.0</ele>
        <time>2018-09-16T12:33:27Z</time>
      </trkpt>
      <trkpt lat="39.3930350" lon="-0.7119380">
        <ele>283.0</ele>
        <time>2018-09-16T12:33:28Z</time>
      </trkpt>
      <trkpt lat="39.3930650" lon="-0.7119230">
        <ele>283.0</ele>
        <time>2018-09-16T12:33:29Z</time>
      </trkpt>
      <trkpt lat="39.3930650" lon="-0.7119230">
        <ele>283.0</ele>
        <time>2018-09-16T12:33:30Z</time>
      </trkpt>
      <trkpt lat="39.3930950" lon="-0.7119100">
        <ele>285.0</ele>
        <time>2018-09-16T12:33:31Z</time>
      </trkpt>
      <trkpt lat="39.3930950" lon="-0.7119100">
        <ele>285.0</ele>
        <time>2018-09-16T12:33:32Z</time>
      </trkpt>
      <trkpt lat="39.3931280" lon="-0.7118970">
        <ele>285.0</ele>
        <time>2018-09-16T12:33:33Z</time>
      </trkpt>
      <trkpt lat="39.3931450" lon="-0.7118900">
        <ele>285.0</ele>
        <time>2018-09-16T12:33:34Z</time>
      </trkpt>
      <trkpt lat="39.3931450" lon="-0.7118900">
        <ele>286.0</ele>
        <time>2018-09-16T12:33:35Z</time>
      </trkpt>
      <trkpt lat="39.3931770" lon="-0.7118770">
        <ele>286.0</ele>
        <time>2018-09-16T12:33:36Z</time>
      </trkpt>
      <trkpt lat="39.3931930" lon="-0.7118700">
        <ele>286.0</ele>
        <time>2018-09-16T12:33:37Z</time>
      </trkpt>
      <trkpt lat="39.3931930" lon="-0.7118700">
        <ele>286.0</ele>
        <time>2018-09-16T12:33:38Z</time>
      </trkpt>
      <trkpt lat="39.3932220" lon="-0.7118530">
        <ele>286.0</ele>
        <time>2018-09-16T12:33:39Z</time>
      </trkpt>
      <trkpt lat="39.3932330" lon="-0.7118430">
        <ele>286.0</ele>
        <time>2018-09-16T12:33:40Z</time>
      </trkpt>
      <trkpt lat="39.3932330" lon="-0.7118430">
        <ele>287.0</ele>
        <time>2018-09-16T12:33:41Z</time>
      </trkpt>
      <trkpt lat="39.3932630" lon="-0.7118270">
        <ele>287.0</ele>
        <time>2018-09-16T12:33:42Z</time>
      </trkpt>
      <trkpt lat="39.3932630" lon="-0.7118270">
        <ele>288.0</ele>
        <time>2018-09-16T12:33:43Z</time>
      </trkpt>
      <trkpt lat="39.3932950" lon="-0.7118130">
        <ele>288.0</ele>
        <time>2018-09-16T12:33:44Z</time>
      </trkpt>
      <trkpt lat="39.3933100" lon="-0.7118070">
        <ele>288.0</ele>
        <time>2018-09-16T12:33:45Z</time>
      </trkpt>
      <trkpt lat="39.3933100" lon="-0.7118070">
        <ele>288.0</ele>
        <time>2018-09-16T12:33:46Z</time>
      </trkpt>
      <trkpt lat="39.3933380" lon="-0.7117880">
        <ele>289.0</ele>
        <time>2018-09-16T12:33:47Z</time>
      </trkpt>
      <trkpt lat="39.3933380" lon="-0.7117880">
        <ele>289.0</ele>
        <time>2018-09-16T12:33:48Z</time>
      </trkpt>
      <trkpt lat="39.3933630" lon="-0.7117670">
        <ele>289.0</ele>
        <time>2018-09-16T12:33:49Z</time>
      </trkpt>
      <trkpt lat="39.3933630" lon="-0.7117670">
        <ele>289.0</ele>
        <time>2018-09-16T12:33:50Z</time>
      </trkpt>
      <trkpt lat="39.3933970" lon="-0.7117620">
        <ele>289.0</ele>
        <time>2018-09-16T12:33:51Z</time>
      </trkpt>
      <trkpt lat="39.3934130" lon="-0.7117620">
        <ele>290.0</ele>
        <time>2018-09-16T12:33:52Z</time>
      </trkpt>
      <trkpt lat="39.3934130" lon="-0.7117620">
        <ele>290.0</ele>
        <time>2018-09-16T12:33:53Z</time>
      </trkpt>
      <trkpt lat="39.3934430" lon="-0.7117680">
        <ele>290.0</ele>
        <time>2018-09-16T12:33:54Z</time>
      </trkpt>
      <trkpt lat="39.3934600" lon="-0.7117700">
        <ele>290.0</ele>
        <time>2018-09-16T12:33:55Z</time>
      </trkpt>
      <trkpt lat="39.3934600" lon="-0.7117700">
        <ele>291.0</ele>
        <time>2018-09-16T12:33:56Z</time>
      </trkpt>
      <trkpt lat="39.3934920" lon="-0.7117730">
        <ele>291.0</ele>
        <time>2018-09-16T12:33:57Z</time>
      </trkpt>
      <trkpt lat="39.3934920" lon="-0.7117730">
        <ele>291.0</ele>
        <time>2018-09-16T12:33:58Z</time>
      </trkpt>
      <trkpt lat="39.3935220" lon="-0.7117780">
        <ele>291.0</ele>
        <time>2018-09-16T12:33:59Z</time>
      </trkpt>
      <trkpt lat="39.3935220" lon="-0.7117780">
        <ele>292.0</ele>
        <time>2018-09-16T12:34:00Z</time>
      </trkpt>
      <trkpt lat="39.3935480" lon="-0.7117780">
        <ele>292.0</ele>
        <time>2018-09-16T12:34:01Z</time>
      </trkpt>
      <trkpt lat="39.3935600" lon="-0.7117800">
        <ele>292.0</ele>
        <time>2018-09-16T12:34:02Z</time>
      </trkpt>
      <trkpt lat="39.3935600" lon="-0.7117800">
        <ele>292.0</ele>
        <time>2018-09-16T12:34:03Z</time>
      </trkpt>
      <trkpt lat="39.3935580" lon="-0.7117900">
        <ele>293.0</ele>
        <time>2018-09-16T12:34:04Z</time>
      </trkpt>
      <trkpt lat="39.3935580" lon="-0.7117900">
        <ele>293.0</ele>
        <time>2018-09-16T12:34:05Z</time>
      </trkpt>
      <trkpt lat="39.3935570" lon="-0.7117920">
        <ele>293.0</ele>
        <time>2018-09-16T12:34:06Z</time>
      </trkpt>
      <trkpt lat="39.3935570" lon="-0.7117920">
        <ele>293.0</ele>
        <time>2018-09-16T12:34:07Z</time>
      </trkpt>
      <trkpt lat="39.3935570" lon="-0.7117920">
        <ele>293.0</ele>
        <time>2018-09-16T12:34:08Z</time>
      </trkpt>
      <trkpt lat="39.3935570" lon="-0.7117920">
        <ele>293.0</ele>
        <time>2018-09-16T12:34:09Z</time>
      </trkpt>
      <trkpt lat="39.3935570" lon="-0.7117920">
        <ele>293.0</ele>
        <time>2018-09-16T12:34:10Z</time>
      </trkpt>
      <trkpt lat="39.3935570" lon="-0.7117920">
        <ele>293.0</ele>
        <time>2018-09-16T12:34:11Z</time>
      </trkpt>
      <trkpt lat="39.3935570" lon="-0.7117920">
        <ele>293.0</ele>
        <time>2018-09-16T12:34:12Z</time>
      </trkpt>
      <trkpt lat="39.3935570" lon="-0.7117920">
        <ele>293.0</ele>
        <time>2018-09-16T12:34:13Z</time>
      </trkpt>
      <trkpt lat="39.3935570" lon="-0.7117920">
        <ele>293.0</ele>
        <time>2018-09-16T12:34:14Z</time>
      </trkpt>
      <trkpt lat="39.3935570" lon="-0.7117920">
        <ele>293.0</ele>
        <time>2018-09-16T12:34:15Z</time>
      </trkpt>
      <trkpt lat="39.3935570" lon="-0.7117920">
        <ele>293.0</ele>
        <time>2018-09-16T12:34:16Z</time>
      </trkpt>
      <trkpt lat="39.3935570" lon="-0.7117920">
        <ele>293.0</ele>
        <time>2018-09-16T12:34:17Z</time>
      </trkpt>
      <trkpt lat="39.3935570" lon="-0.7117920">
        <ele>293.0</ele>
        <time>2018-09-16T12:34:18Z</time>
      </trkpt>
      <trkpt lat="39.3935570" lon="-0.7117920">
        <ele>293.0</ele>
        <time>2018-09-16T12:34:19Z</time>
      </trkpt>
      <trkpt lat="39.3935570" lon="-0.7117920">
        <ele>293.0</ele>
        <time>2018-09-16T12:34:20Z</time>
      </trkpt>
      <trkpt lat="39.3935570" lon="-0.7117920">
        <ele>292.0</ele>
        <time>2018-09-16T12:34:38Z</time>
      </trkpt>
      <trkpt lat="39.3935570" lon="-0.7117920">
        <ele>292.0</ele>
        <time>2018-09-16T12:34:39Z</time>
      </trkpt>
      <trkpt lat="39.3935570" lon="-0.7117920">
        <ele>292.0</ele>
        <time>2018-09-16T12:34:40Z</time>
      </trkpt>
      <trkpt lat="39.3935430" lon="-0.7117980">
        <ele>292.0</ele>
        <time>2018-09-16T12:34:41Z</time>
      </trkpt>
      <trkpt lat="39.3935530" lon="-0.7117950">
        <ele>293.0</ele>
        <time>2018-09-16T12:34:42Z</time>
      </trkpt>
      <trkpt lat="39.3935650" lon="-0.7117930">
        <ele>293.0</ele>
        <time>2018-09-16T12:34:43Z</time>
      </trkpt>
      <trkpt lat="39.3935650" lon="-0.7117930">
        <ele>293.0</ele>
        <time>2018-09-16T12:34:44Z</time>
      </trkpt>
      <trkpt lat="39.3935950" lon="-0.7118000">
        <ele>293.0</ele>
        <time>2018-09-16T12:34:45Z</time>
      </trkpt>
      <trkpt lat="39.3935950" lon="-0.7118000">
        <ele>293.0</ele>
        <time>2018-09-16T12:34:46Z</time>
      </trkpt>
      <trkpt lat="39.3936220" lon="-0.7118280">
        <ele>293.0</ele>
        <time>2018-09-16T12:34:47Z</time>
      </trkpt>
      <trkpt lat="39.3936220" lon="-0.7118280">
        <ele>294.0</ele>
        <time>2018-09-16T12:34:48Z</time>
      </trkpt>
      <trkpt lat="39.3936370" lon="-0.7118570">
        <ele>294.0</ele>
        <time>2018-09-16T12:34:49Z</time>
      </trkpt>
      <trkpt lat="39.3936370" lon="-0.7118570">
        <ele>294.0</ele>
        <time>2018-09-16T12:34:50Z</time>
      </trkpt>
      <trkpt lat="39.3936630" lon="-0.7118770">
        <ele>294.0</ele>
        <time>2018-09-16T12:34:51Z</time>
      </trkpt>
      <trkpt lat="39.3936800" lon="-0.7118820">
        <ele>295.0</ele>
        <time>2018-09-16T12:34:52Z</time>
      </trkpt>
      <trkpt lat="39.3936800" lon="-0.7118820">
        <ele>295.0</ele>
        <time>2018-09-16T12:34:53Z</time>
      </trkpt>
      <trkpt lat="39.3937180" lon="-0.7118800">
        <ele>295.0</ele>
        <time>2018-09-16T12:34:54Z</time>
      </trkpt>
      <trkpt lat="39.3937180" lon="-0.7118800">
        <ele>295.0</ele>
        <time>2018-09-16T12:34:55Z</time>
      </trkpt>
      <trkpt lat="39.3937600" lon="-0.7118820">
        <ele>296.0</ele>
        <time>2018-09-16T12:34:56Z</time>
      </trkpt>
    </trkseg>
  </trk>
</gpx>
